<?xml version='1.0' encoding='UTF-8'?><gpx version="1.1" creator="JPX - https://github.com/jenetics/jpx" xmlns="http://www.topografix.com/GPX/1/1"><trk><trkseg><trkpt lat="44.4646792" lon="11.400478"><ele>79.14285714285715</ele><time>2026-03-30T09:24:01.869Z</time></trkpt><trkpt lat="44.4646187" lon="11.4005209"><ele>79.28571428571429</ele><time>2026-03-30T09:24:06.865Z</time></trkpt><trkpt lat="44.4645566" lon="11.4004875"><ele>79.42857142857143</ele><time>2026-03-30T09:24:11.852Z</time></trkpt><trkpt lat="44.4644969" lon="11.4004591"><ele>79.57142857142858</ele><time>2026-03-30T09:24:18.866Z</time></trkpt><trkpt lat="44.4644439" lon="11.4004066"><ele>79.71428571428572</ele><time>2026-03-30T09:24:24.869Z</time></trkpt><trkpt lat="44.4644372" lon="11.4003156"><ele>79.85714285714286</ele><time>2026-03-30T09:25:48.871Z</time></trkpt><trkpt lat="44.4643233" lon="11.4003111"><ele>80.0</ele><time>2026-03-30T09:25:51.868Z</time></trkpt><trkpt lat="44.4642533" lon="11.4003568"><ele>80.0</ele><time>2026-03-30T09:25:53.864Z</time></trkpt><trkpt lat="44.4641929" lon="11.4004311"><ele>80.0</ele><time>2026-03-30T09:25:55.864Z</time></trkpt><trkpt lat="44.464138" lon="11.4005343"><ele>80.0</ele><time>2026-03-30T09:25:57.873Z</time></trkpt><trkpt lat="44.464082" lon="11.4006354"><ele>80.0</ele><time>2026-03-30T09:25:59.869Z</time></trkpt><trkpt lat="44.4640171" lon="11.4007326"><ele>80.0</ele><time>2026-03-30T09:26:01.87Z</time></trkpt><trkpt lat="44.46395" lon="11.4008272"><ele>80.0</ele><time>2026-03-30T09:26:03.876Z</time></trkpt><trkpt lat="44.4638808" lon="11.4009269"><ele>80.0</ele><time>2026-03-30T09:26:05.867Z</time></trkpt><trkpt lat="44.4638042" lon="11.4010205"><ele>80.0</ele><time>2026-03-30T09:26:07.87Z</time></trkpt><trkpt lat="44.4637254" lon="11.4011176"><ele>80.0</ele><time>2026-03-30T09:26:09.86Z</time></trkpt><trkpt lat="44.4636453" lon="11.4012184"><ele>80.0</ele><time>2026-03-30T09:26:11.863Z</time></trkpt><trkpt lat="44.4635659" lon="11.4013317"><ele>79.66666666666667</ele><time>2026-03-30T09:26:13.87Z</time></trkpt><trkpt lat="44.4634856" lon="11.4014561"><ele>79.33333333333334</ele><time>2026-03-30T09:26:15.867Z</time></trkpt><trkpt lat="44.4634061" lon="11.4015894"><ele>79.0</ele><time>2026-03-30T09:26:17.871Z</time></trkpt><trkpt lat="44.4633676" lon="11.4016593"><ele>78.66666666666667</ele><time>2026-03-30T09:26:18.872Z</time></trkpt><trkpt lat="44.4633294" lon="11.4017338"><ele>78.33333333333333</ele><time>2026-03-30T09:26:19.865Z</time></trkpt><trkpt lat="44.4632919" lon="11.4018102"><ele>78.0</ele><time>2026-03-30T09:26:20.851Z</time></trkpt><trkpt lat="44.4632538" lon="11.4018875"><ele>78.0</ele><time>2026-03-30T09:26:21.863Z</time></trkpt><trkpt lat="44.4632179" lon="11.4019671"><ele>78.0</ele><time>2026-03-30T09:26:22.861Z</time></trkpt><trkpt lat="44.4631813" lon="11.4020486"><ele>78.0</ele><time>2026-03-30T09:26:23.864Z</time></trkpt><trkpt lat="44.4631448" lon="11.4021303"><ele>78.0</ele><time>2026-03-30T09:26:24.863Z</time></trkpt><trkpt lat="44.4631076" lon="11.4022112"><ele>78.0</ele><time>2026-03-30T09:26:25.861Z</time></trkpt><trkpt lat="44.4630696" lon="11.40229"><ele>78.0</ele><time>2026-03-30T09:26:26.87Z</time></trkpt><trkpt lat="44.4630317" lon="11.4023652"><ele>78.0</ele><time>2026-03-30T09:26:27.87Z</time></trkpt><trkpt lat="44.462995" lon="11.4024432"><ele>78.0</ele><time>2026-03-30T09:26:28.861Z</time></trkpt><trkpt lat="44.4629565" lon="11.4025227"><ele>78.0</ele><time>2026-03-30T09:26:29.853Z</time></trkpt><trkpt lat="44.4629187" lon="11.4026017"><ele>78.0</ele><time>2026-03-30T09:26:30.865Z</time></trkpt><trkpt lat="44.4628822" lon="11.4026811"><ele>78.0</ele><time>2026-03-30T09:26:31.864Z</time></trkpt><trkpt lat="44.4628485" lon="11.402763"><ele>78.0</ele><time>2026-03-30T09:26:32.859Z</time></trkpt><trkpt lat="44.462811" lon="11.4028418"><ele>78.0</ele><time>2026-03-30T09:26:33.863Z</time></trkpt><trkpt lat="44.4627741" lon="11.4029188"><ele>78.0</ele><time>2026-03-30T09:26:34.869Z</time></trkpt><trkpt lat="44.4627394" lon="11.4029976"><ele>78.2</ele><time>2026-03-30T09:26:35.869Z</time></trkpt><trkpt lat="44.4627067" lon="11.4030753"><ele>78.4</ele><time>2026-03-30T09:26:36.872Z</time></trkpt><trkpt lat="44.4626363" lon="11.4032158"><ele>78.60000000000001</ele><time>2026-03-30T09:26:38.863Z</time></trkpt><trkpt lat="44.462564" lon="11.4033487"><ele>78.8</ele><time>2026-03-30T09:26:40.849Z</time></trkpt><trkpt lat="44.4624846" lon="11.4034666"><ele>79.0</ele><time>2026-03-30T09:26:42.846Z</time></trkpt><trkpt lat="44.4623934" lon="11.4035659"><ele>79.0</ele><time>2026-03-30T09:26:44.864Z</time></trkpt><trkpt lat="44.4623043" lon="11.4036531"><ele>79.0</ele><time>2026-03-30T09:26:46.859Z</time></trkpt><trkpt lat="44.4622026" lon="11.4037193"><ele>79.0</ele><time>2026-03-30T09:26:48.872Z</time></trkpt><trkpt lat="44.4620959" lon="11.4037661"><ele>79.0</ele><time>2026-03-30T09:26:50.864Z</time></trkpt><trkpt lat="44.4619945" lon="11.4038103"><ele>79.0</ele><time>2026-03-30T09:26:52.868Z</time></trkpt><trkpt lat="44.4618913" lon="11.4038535"><ele>80.2</ele><time>2026-03-30T09:26:54.84Z</time></trkpt><trkpt lat="44.4617883" lon="11.4039036"><ele>81.4</ele><time>2026-03-30T09:26:56.857Z</time></trkpt><trkpt lat="44.4616877" lon="11.4039517"><ele>82.6</ele><time>2026-03-30T09:26:58.866Z</time></trkpt><trkpt lat="44.4615861" lon="11.4039995"><ele>83.8</ele><time>2026-03-30T09:27:00.862Z</time></trkpt><trkpt lat="44.4614851" lon="11.4040495"><ele>85.0</ele><time>2026-03-30T09:27:02.871Z</time></trkpt><trkpt lat="44.461375" lon="11.404101"><ele>85.0</ele><time>2026-03-30T09:27:04.867Z</time></trkpt><trkpt lat="44.4612699" lon="11.4041446"><ele>85.0</ele><time>2026-03-30T09:27:06.871Z</time></trkpt><trkpt lat="44.4611622" lon="11.4041944"><ele>85.0</ele><time>2026-03-30T09:27:08.869Z</time></trkpt><trkpt lat="44.4610546" lon="11.4042477"><ele>85.0</ele><time>2026-03-30T09:27:10.86Z</time></trkpt><trkpt lat="44.4609518" lon="11.4042966"><ele>85.0</ele><time>2026-03-30T09:27:12.858Z</time></trkpt><trkpt lat="44.4608564" lon="11.4043533"><ele>85.0</ele><time>2026-03-30T09:27:14.87Z</time></trkpt><trkpt lat="44.460761" lon="11.4044111"><ele>85.0</ele><time>2026-03-30T09:27:16.849Z</time></trkpt><trkpt lat="44.4606669" lon="11.4044734"><ele>85.0</ele><time>2026-03-30T09:27:18.861Z</time></trkpt><trkpt lat="44.4605697" lon="11.4045449"><ele>85.0</ele><time>2026-03-30T09:27:20.86Z</time></trkpt><trkpt lat="44.4604767" lon="11.4046153"><ele>85.0</ele><time>2026-03-30T09:27:22.867Z</time></trkpt><trkpt lat="44.4603831" lon="11.404689"><ele>85.4</ele><time>2026-03-30T09:27:24.856Z</time></trkpt><trkpt lat="44.4602887" lon="11.4047716"><ele>85.8</ele><time>2026-03-30T09:27:26.859Z</time></trkpt><trkpt lat="44.460195" lon="11.404857"><ele>86.19999999999999</ele><time>2026-03-30T09:27:28.865Z</time></trkpt><trkpt lat="44.4601015" lon="11.4049389"><ele>86.6</ele><time>2026-03-30T09:27:30.872Z</time></trkpt><trkpt lat="44.4600063" lon="11.4050107"><ele>87.0</ele><time>2026-03-30T09:27:32.867Z</time></trkpt><trkpt lat="44.4599071" lon="11.4050823"><ele>87.0</ele><time>2026-03-30T09:27:34.872Z</time></trkpt><trkpt lat="44.4598032" lon="11.4051433"><ele>87.0</ele><time>2026-03-30T09:27:36.868Z</time></trkpt><trkpt lat="44.459696" lon="11.4052053"><ele>87.0</ele><time>2026-03-30T09:27:38.857Z</time></trkpt><trkpt lat="44.4595827" lon="11.4052584"><ele>87.0</ele><time>2026-03-30T09:27:40.871Z</time></trkpt><trkpt lat="44.4594625" lon="11.4052973"><ele>87.375</ele><time>2026-03-30T09:27:42.868Z</time></trkpt><trkpt lat="44.4594002" lon="11.4053141"><ele>87.75</ele><time>2026-03-30T09:27:43.863Z</time></trkpt><trkpt lat="44.4593365" lon="11.4053296"><ele>88.125</ele><time>2026-03-30T09:27:44.86Z</time></trkpt><trkpt lat="44.4592735" lon="11.405341"><ele>88.5</ele><time>2026-03-30T09:27:45.864Z</time></trkpt><trkpt lat="44.4592104" lon="11.4053562"><ele>88.875</ele><time>2026-03-30T09:27:46.865Z</time></trkpt><trkpt lat="44.4591471" lon="11.405371"><ele>89.25</ele><time>2026-03-30T09:27:47.867Z</time></trkpt><trkpt lat="44.459084" lon="11.4053839"><ele>89.625</ele><time>2026-03-30T09:27:48.858Z</time></trkpt><trkpt lat="44.4590205" lon="11.405397"><ele>90.0</ele><time>2026-03-30T09:27:49.868Z</time></trkpt><trkpt lat="44.4589572" lon="11.4054074"><ele>90.0</ele><time>2026-03-30T09:27:50.868Z</time></trkpt><trkpt lat="44.458894" lon="11.4054193"><ele>90.0</ele><time>2026-03-30T09:27:51.868Z</time></trkpt><trkpt lat="44.458831" lon="11.4054343"><ele>90.0</ele><time>2026-03-30T09:27:52.863Z</time></trkpt><trkpt lat="44.4587687" lon="11.4054489"><ele>90.0</ele><time>2026-03-30T09:27:53.869Z</time></trkpt><trkpt lat="44.4587055" lon="11.4054613"><ele>90.0</ele><time>2026-03-30T09:27:54.868Z</time></trkpt><trkpt lat="44.4586431" lon="11.4054753"><ele>90.0</ele><time>2026-03-30T09:27:55.858Z</time></trkpt><trkpt lat="44.4585187" lon="11.4055038"><ele>90.0</ele><time>2026-03-30T09:27:57.871Z</time></trkpt><trkpt lat="44.4584566" lon="11.4055193"><ele>88.33333333333333</ele><time>2026-03-30T09:27:58.859Z</time></trkpt><trkpt lat="44.458394" lon="11.4055323"><ele>86.66666666666667</ele><time>2026-03-30T09:27:59.873Z</time></trkpt><trkpt lat="44.4583309" lon="11.4055467"><ele>85.0</ele><time>2026-03-30T09:28:00.881Z</time></trkpt><trkpt lat="44.458268" lon="11.4055613"><ele>83.33333333333334</ele><time>2026-03-30T09:28:01.868Z</time></trkpt><trkpt lat="44.4582057" lon="11.4055764"><ele>81.66666666666667</ele><time>2026-03-30T09:28:02.864Z</time></trkpt><trkpt lat="44.4580831" lon="11.4056078"><ele>80.0</ele><time>2026-03-30T09:28:04.865Z</time></trkpt><trkpt lat="44.4579657" lon="11.4056563"><ele>81.6</ele><time>2026-03-30T09:28:06.862Z</time></trkpt><trkpt lat="44.4578484" lon="11.4057118"><ele>83.2</ele><time>2026-03-30T09:28:08.852Z</time></trkpt><trkpt lat="44.4577278" lon="11.4057541"><ele>84.80000000000001</ele><time>2026-03-30T09:28:10.861Z</time></trkpt><trkpt lat="44.4576066" lon="11.4057811"><ele>86.4</ele><time>2026-03-30T09:28:12.863Z</time></trkpt><trkpt lat="44.4575463" lon="11.4058082"><ele>88.0</ele><time>2026-03-30T09:28:13.863Z</time></trkpt><trkpt lat="44.4574847" lon="11.4058359"><ele>88.0</ele><time>2026-03-30T09:28:14.862Z</time></trkpt><trkpt lat="44.4574212" lon="11.405863"><ele>88.0</ele><time>2026-03-30T09:28:15.868Z</time></trkpt><trkpt lat="44.4573536" lon="11.4058536"><ele>88.0</ele><time>2026-03-30T09:28:16.871Z</time></trkpt><trkpt lat="44.4572843" lon="11.405843"><ele>88.0</ele><time>2026-03-30T09:28:17.874Z</time></trkpt><trkpt lat="44.4572189" lon="11.4058372"><ele>88.0</ele><time>2026-03-30T09:28:18.862Z</time></trkpt><trkpt lat="44.4571533" lon="11.4058343"><ele>88.0</ele><time>2026-03-30T09:28:19.862Z</time></trkpt><trkpt lat="44.4570893" lon="11.4058331"><ele>88.0</ele><time>2026-03-30T09:28:20.871Z</time></trkpt><trkpt lat="44.4570262" lon="11.4058319"><ele>87.85714285714286</ele><time>2026-03-30T09:28:21.87Z</time></trkpt><trkpt lat="44.4569625" lon="11.4058417"><ele>87.71428571428571</ele><time>2026-03-30T09:28:22.867Z</time></trkpt><trkpt lat="44.4568987" lon="11.4058529"><ele>87.57142857142857</ele><time>2026-03-30T09:28:23.87Z</time></trkpt><trkpt lat="44.4568351" lon="11.405866"><ele>87.42857142857143</ele><time>2026-03-30T09:28:24.856Z</time></trkpt><trkpt lat="44.456771" lon="11.4058772"><ele>87.28571428571429</ele><time>2026-03-30T09:28:25.861Z</time></trkpt><trkpt lat="44.456708" lon="11.4058911"><ele>87.14285714285714</ele><time>2026-03-30T09:28:26.864Z</time></trkpt><trkpt lat="44.4566431" lon="11.4059057"><ele>87.0</ele><time>2026-03-30T09:28:27.868Z</time></trkpt><trkpt lat="44.4565777" lon="11.4059198"><ele>87.0</ele><time>2026-03-30T09:28:28.875Z</time></trkpt><trkpt lat="44.4565117" lon="11.4059357"><ele>87.0</ele><time>2026-03-30T09:28:29.863Z</time></trkpt><trkpt lat="44.4564457" lon="11.4059508"><ele>87.0</ele><time>2026-03-30T09:28:30.857Z</time></trkpt><trkpt lat="44.4563792" lon="11.4059617"><ele>87.0</ele><time>2026-03-30T09:28:31.862Z</time></trkpt><trkpt lat="44.4563137" lon="11.4059748"><ele>87.0</ele><time>2026-03-30T09:28:32.861Z</time></trkpt><trkpt lat="44.4562467" lon="11.4059884"><ele>87.0</ele><time>2026-03-30T09:28:33.866Z</time></trkpt><trkpt lat="44.4561807" lon="11.4060019"><ele>87.0</ele><time>2026-03-30T09:28:34.857Z</time></trkpt><trkpt lat="44.4561142" lon="11.4060158"><ele>87.28571428571428</ele><time>2026-03-30T09:28:35.867Z</time></trkpt><trkpt lat="44.4560482" lon="11.4060309"><ele>87.57142857142857</ele><time>2026-03-30T09:28:36.868Z</time></trkpt><trkpt lat="44.4559816" lon="11.4060456"><ele>87.85714285714286</ele><time>2026-03-30T09:28:37.866Z</time></trkpt><trkpt lat="44.4559145" lon="11.4060594"><ele>88.14285714285714</ele><time>2026-03-30T09:28:38.865Z</time></trkpt><trkpt lat="44.4558472" lon="11.4060731"><ele>88.42857142857143</ele><time>2026-03-30T09:28:39.861Z</time></trkpt><trkpt lat="44.4557782" lon="11.406088"><ele>88.71428571428571</ele><time>2026-03-30T09:28:40.866Z</time></trkpt><trkpt lat="44.4557092" lon="11.4061014"><ele>89.0</ele><time>2026-03-30T09:28:41.856Z</time></trkpt><trkpt lat="44.4556412" lon="11.4061163"><ele>88.99999999999999</ele><time>2026-03-30T09:28:42.86Z</time></trkpt><trkpt lat="44.4555711" lon="11.4061307"><ele>89.0</ele><time>2026-03-30T09:28:43.862Z</time></trkpt><trkpt lat="44.4555028" lon="11.4061446"><ele>89.0</ele><time>2026-03-30T09:28:44.873Z</time></trkpt><trkpt lat="44.4554358" lon="11.4061597"><ele>89.0</ele><time>2026-03-30T09:28:45.865Z</time></trkpt><trkpt lat="44.4553679" lon="11.4061762"><ele>89.0</ele><time>2026-03-30T09:28:46.86Z</time></trkpt><trkpt lat="44.4552997" lon="11.4061923"><ele>88.99999999999999</ele><time>2026-03-30T09:28:47.867Z</time></trkpt><trkpt lat="44.4552331" lon="11.4062076"><ele>89.0</ele><time>2026-03-30T09:28:48.87Z</time></trkpt><trkpt lat="44.4551653" lon="11.4062254"><ele>88.57142857142857</ele><time>2026-03-30T09:28:49.86Z</time></trkpt><trkpt lat="44.4550974" lon="11.4062422"><ele>88.14285714285714</ele><time>2026-03-30T09:28:50.862Z</time></trkpt><trkpt lat="44.4550307" lon="11.4062568"><ele>87.71428571428572</ele><time>2026-03-30T09:28:51.868Z</time></trkpt><trkpt lat="44.4549649" lon="11.4062744"><ele>87.28571428571428</ele><time>2026-03-30T09:28:52.862Z</time></trkpt><trkpt lat="44.4548992" lon="11.4062929"><ele>86.85714285714286</ele><time>2026-03-30T09:28:53.866Z</time></trkpt><trkpt lat="44.4548341" lon="11.4063115"><ele>86.42857142857143</ele><time>2026-03-30T09:28:54.861Z</time></trkpt><trkpt lat="44.4547681" lon="11.4063327"><ele>86.0</ele><time>2026-03-30T09:28:55.859Z</time></trkpt><trkpt lat="44.454702" lon="11.4063546"><ele>85.57142857142858</ele><time>2026-03-30T09:28:56.866Z</time></trkpt><trkpt lat="44.4546362" lon="11.4063785"><ele>85.14285714285714</ele><time>2026-03-30T09:28:57.867Z</time></trkpt><trkpt lat="44.4545697" lon="11.4064023"><ele>84.71428571428572</ele><time>2026-03-30T09:28:58.862Z</time></trkpt><trkpt lat="44.4545025" lon="11.4064267"><ele>84.28571428571429</ele><time>2026-03-30T09:28:59.847Z</time></trkpt><trkpt lat="44.4544365" lon="11.4064527"><ele>83.85714285714286</ele><time>2026-03-30T09:29:00.869Z</time></trkpt><trkpt lat="44.4543702" lon="11.4064836"><ele>83.42857142857143</ele><time>2026-03-30T09:29:01.87Z</time></trkpt><trkpt lat="44.4543052" lon="11.4065129"><ele>83.0</ele><time>2026-03-30T09:29:02.862Z</time></trkpt><trkpt lat="44.454237" lon="11.4065417"><ele>83.0</ele><time>2026-03-30T09:29:03.865Z</time></trkpt><trkpt lat="44.4541707" lon="11.4065701"><ele>83.0</ele><time>2026-03-30T09:29:04.87Z</time></trkpt><trkpt lat="44.454104" lon="11.4066055"><ele>83.0</ele><time>2026-03-30T09:29:05.865Z</time></trkpt><trkpt lat="44.4540367" lon="11.4066406"><ele>83.0</ele><time>2026-03-30T09:29:06.86Z</time></trkpt><trkpt lat="44.4539701" lon="11.406672"><ele>83.0</ele><time>2026-03-30T09:29:07.866Z</time></trkpt><trkpt lat="44.4539034" lon="11.4067051"><ele>83.0</ele><time>2026-03-30T09:29:08.864Z</time></trkpt><trkpt lat="44.4538359" lon="11.4067407"><ele>83.0</ele><time>2026-03-30T09:29:09.866Z</time></trkpt><trkpt lat="44.4537692" lon="11.4067723"><ele>83.57142857142857</ele><time>2026-03-30T09:29:10.859Z</time></trkpt><trkpt lat="44.4537034" lon="11.4068053"><ele>84.14285714285715</ele><time>2026-03-30T09:29:11.866Z</time></trkpt><trkpt lat="44.4536366" lon="11.4068392"><ele>84.71428571428572</ele><time>2026-03-30T09:29:12.866Z</time></trkpt><trkpt lat="44.4535724" lon="11.4068724"><ele>85.28571428571428</ele><time>2026-03-30T09:29:13.863Z</time></trkpt><trkpt lat="44.4535089" lon="11.4069051"><ele>85.85714285714286</ele><time>2026-03-30T09:29:14.869Z</time></trkpt><trkpt lat="44.4534447" lon="11.4069349"><ele>86.42857142857143</ele><time>2026-03-30T09:29:15.86Z</time></trkpt><trkpt lat="44.4533801" lon="11.4069659"><ele>87.0</ele><time>2026-03-30T09:29:16.863Z</time></trkpt><trkpt lat="44.4533147" lon="11.406998"><ele>87.0</ele><time>2026-03-30T09:29:17.881Z</time></trkpt><trkpt lat="44.4532497" lon="11.4070307"><ele>87.0</ele><time>2026-03-30T09:29:18.863Z</time></trkpt><trkpt lat="44.4531844" lon="11.4070612"><ele>87.0</ele><time>2026-03-30T09:29:19.864Z</time></trkpt><trkpt lat="44.453119" lon="11.4070926"><ele>87.0</ele><time>2026-03-30T09:29:20.872Z</time></trkpt><trkpt lat="44.4530535" lon="11.4071241"><ele>87.0</ele><time>2026-03-30T09:29:21.854Z</time></trkpt><trkpt lat="44.4529895" lon="11.4071553"><ele>87.0</ele><time>2026-03-30T09:29:22.871Z</time></trkpt><trkpt lat="44.4529244" lon="11.4071869"><ele>87.0</ele><time>2026-03-30T09:29:23.878Z</time></trkpt><trkpt lat="44.4528591" lon="11.4072009"><ele>86.85714285714286</ele><time>2026-03-30T09:29:24.865Z</time></trkpt><trkpt lat="44.4527919" lon="11.4072196"><ele>86.71428571428572</ele><time>2026-03-30T09:29:25.86Z</time></trkpt><trkpt lat="44.4527261" lon="11.4072359"><ele>86.57142857142858</ele><time>2026-03-30T09:29:26.869Z</time></trkpt><trkpt lat="44.4526603" lon="11.4072474"><ele>86.42857142857143</ele><time>2026-03-30T09:29:27.878Z</time></trkpt><trkpt lat="44.4525952" lon="11.4072555"><ele>86.28571428571429</ele><time>2026-03-30T09:29:28.866Z</time></trkpt><trkpt lat="44.4525302" lon="11.4072657"><ele>86.14285714285715</ele><time>2026-03-30T09:29:29.861Z</time></trkpt><trkpt lat="44.4524644" lon="11.4072758"><ele>86.0</ele><time>2026-03-30T09:29:30.864Z</time></trkpt><trkpt lat="44.4524011" lon="11.4072864"><ele>86.0</ele><time>2026-03-30T09:29:31.865Z</time></trkpt><trkpt lat="44.4523374" lon="11.407296"><ele>86.0</ele><time>2026-03-30T09:29:32.869Z</time></trkpt><trkpt lat="44.4522159" lon="11.4073102"><ele>86.0</ele><time>2026-03-30T09:29:34.877Z</time></trkpt><trkpt lat="44.4520977" lon="11.4073256"><ele>86.0</ele><time>2026-03-30T09:29:36.862Z</time></trkpt><trkpt lat="44.4519811" lon="11.4073378"><ele>86.0</ele><time>2026-03-30T09:29:38.868Z</time></trkpt><trkpt lat="44.451863" lon="11.4073492"><ele>85.75</ele><time>2026-03-30T09:29:40.878Z</time></trkpt><trkpt lat="44.451747" lon="11.4073638"><ele>85.5</ele><time>2026-03-30T09:29:42.874Z</time></trkpt><trkpt lat="44.4516329" lon="11.4073939"><ele>85.25</ele><time>2026-03-30T09:29:44.861Z</time></trkpt><trkpt lat="44.4515205" lon="11.4074376"><ele>85.0</ele><time>2026-03-30T09:29:46.863Z</time></trkpt><trkpt lat="44.4514084" lon="11.4074747"><ele>85.0</ele><time>2026-03-30T09:29:48.843Z</time></trkpt><trkpt lat="44.4513048" lon="11.4075316"><ele>85.0</ele><time>2026-03-30T09:29:50.863Z</time></trkpt><trkpt lat="44.4512279" lon="11.4076355"><ele>85.0</ele><time>2026-03-30T09:29:52.862Z</time></trkpt><trkpt lat="44.4512031" lon="11.40779"><ele>85.0</ele><time>2026-03-30T09:29:54.857Z</time></trkpt><trkpt lat="44.4511693" lon="11.4079422"><ele>85.0</ele><time>2026-03-30T09:29:56.847Z</time></trkpt><trkpt lat="44.4511391" lon="11.4080958"><ele>85.75</ele><time>2026-03-30T09:29:58.86Z</time></trkpt><trkpt lat="44.4511198" lon="11.408254"><ele>86.5</ele><time>2026-03-30T09:30:00.857Z</time></trkpt><trkpt lat="44.4511099" lon="11.4084181"><ele>87.25</ele><time>2026-03-30T09:30:02.853Z</time></trkpt><trkpt lat="44.4511038" lon="11.408585"><ele>88.0</ele><time>2026-03-30T09:30:04.856Z</time></trkpt><trkpt lat="44.4510961" lon="11.4087504"><ele>88.5</ele><time>2026-03-30T09:30:06.855Z</time></trkpt><trkpt lat="44.4510886" lon="11.4089169"><ele>89.0</ele><time>2026-03-30T09:30:08.851Z</time></trkpt><trkpt lat="44.4510816" lon="11.4090835"><ele>89.5</ele><time>2026-03-30T09:30:10.857Z</time></trkpt><trkpt lat="44.4510733" lon="11.4092557"><ele>90.0</ele><time>2026-03-30T09:30:12.859Z</time></trkpt><trkpt lat="44.4510682" lon="11.4094307"><ele>90.0</ele><time>2026-03-30T09:30:14.863Z</time></trkpt><trkpt lat="44.4510614" lon="11.4096021"><ele>90.0</ele><time>2026-03-30T09:30:16.853Z</time></trkpt><trkpt lat="44.4510563" lon="11.4097752"><ele>90.0</ele><time>2026-03-30T09:30:18.864Z</time></trkpt><trkpt lat="44.4510533" lon="11.4099553"><ele>90.0</ele><time>2026-03-30T09:30:20.868Z</time></trkpt><trkpt lat="44.4510523" lon="11.4100572"><ele>90.0</ele><time>2026-03-30T09:30:21.853Z</time></trkpt><trkpt lat="44.4510449" lon="11.4101649"><ele>89.85714285714285</ele><time>2026-03-30T09:30:22.865Z</time></trkpt><trkpt lat="44.45104" lon="11.4102679"><ele>89.71428571428572</ele><time>2026-03-30T09:30:23.864Z</time></trkpt><trkpt lat="44.4510329" lon="11.4103663"><ele>89.57142857142857</ele><time>2026-03-30T09:30:24.867Z</time></trkpt><trkpt lat="44.4510246" lon="11.4104622"><ele>89.42857142857142</ele><time>2026-03-30T09:30:25.868Z</time></trkpt><trkpt lat="44.4510191" lon="11.4105626"><ele>89.28571428571428</ele><time>2026-03-30T09:30:26.867Z</time></trkpt><trkpt lat="44.4510117" lon="11.4106599"><ele>89.14285714285714</ele><time>2026-03-30T09:30:27.864Z</time></trkpt><trkpt lat="44.4510047" lon="11.4107599"><ele>89.0</ele><time>2026-03-30T09:30:28.876Z</time></trkpt><trkpt lat="44.4509984" lon="11.410859"><ele>88.99999999999999</ele><time>2026-03-30T09:30:29.862Z</time></trkpt><trkpt lat="44.4509929" lon="11.410958"><ele>89.0</ele><time>2026-03-30T09:30:30.865Z</time></trkpt><trkpt lat="44.4509864" lon="11.4110595"><ele>89.0</ele><time>2026-03-30T09:30:31.867Z</time></trkpt><trkpt lat="44.4509803" lon="11.4111624"><ele>89.0</ele><time>2026-03-30T09:30:32.879Z</time></trkpt><trkpt lat="44.450974" lon="11.4112658"><ele>89.0</ele><time>2026-03-30T09:30:33.864Z</time></trkpt><trkpt lat="44.4509662" lon="11.4113706"><ele>88.99999999999999</ele><time>2026-03-30T09:30:34.874Z</time></trkpt><trkpt lat="44.4509602" lon="11.411475"><ele>89.0</ele><time>2026-03-30T09:30:35.857Z</time></trkpt><trkpt lat="44.4509537" lon="11.4115774"><ele>88.99999999999999</ele><time>2026-03-30T09:30:36.868Z</time></trkpt><trkpt lat="44.4509472" lon="11.4116795"><ele>89.0</ele><time>2026-03-30T09:30:37.864Z</time></trkpt><trkpt lat="44.4509429" lon="11.4117811"><ele>89.0</ele><time>2026-03-30T09:30:38.86Z</time></trkpt><trkpt lat="44.4509382" lon="11.4118854"><ele>89.0</ele><time>2026-03-30T09:30:39.859Z</time></trkpt><trkpt lat="44.4509347" lon="11.411991"><ele>89.0</ele><time>2026-03-30T09:30:40.867Z</time></trkpt><trkpt lat="44.450928" lon="11.412097"><ele>88.99999999999999</ele><time>2026-03-30T09:30:41.872Z</time></trkpt><trkpt lat="44.4509206" lon="11.4122024"><ele>89.0</ele><time>2026-03-30T09:30:42.877Z</time></trkpt><trkpt lat="44.4509129" lon="11.4123075"><ele>88.5</ele><time>2026-03-30T09:30:43.865Z</time></trkpt><trkpt lat="44.450905" lon="11.4124125"><ele>88.0</ele><time>2026-03-30T09:30:44.866Z</time></trkpt><trkpt lat="44.4508997" lon="11.4125184"><ele>87.5</ele><time>2026-03-30T09:30:45.866Z</time></trkpt><trkpt lat="44.4508925" lon="11.4126257"><ele>87.0</ele><time>2026-03-30T09:30:46.858Z</time></trkpt><trkpt lat="44.4508859" lon="11.4127321"><ele>86.5</ele><time>2026-03-30T09:30:47.866Z</time></trkpt><trkpt lat="44.4508798" lon="11.4128391"><ele>86.0</ele><time>2026-03-30T09:30:48.873Z</time></trkpt><trkpt lat="44.4508734" lon="11.412945"><ele>85.83333333333334</ele><time>2026-03-30T09:30:49.865Z</time></trkpt><trkpt lat="44.4508675" lon="11.4130529"><ele>85.66666666666667</ele><time>2026-03-30T09:30:50.863Z</time></trkpt><trkpt lat="44.4508625" lon="11.4131612"><ele>85.5</ele><time>2026-03-30T09:30:51.867Z</time></trkpt><trkpt lat="44.4508567" lon="11.4132702"><ele>85.33333333333333</ele><time>2026-03-30T09:30:52.863Z</time></trkpt><trkpt lat="44.4508496" lon="11.4133793"><ele>85.16666666666666</ele><time>2026-03-30T09:30:53.871Z</time></trkpt><trkpt lat="44.450844" lon="11.4134881"><ele>85.0</ele><time>2026-03-30T09:30:54.875Z</time></trkpt><trkpt lat="44.4508389" lon="11.4135982"><ele>85.0</ele><time>2026-03-30T09:30:55.869Z</time></trkpt><trkpt lat="44.4508338" lon="11.4137069"><ele>85.0</ele><time>2026-03-30T09:30:56.864Z</time></trkpt><trkpt lat="44.4508249" lon="11.4138193"><ele>85.0</ele><time>2026-03-30T09:30:57.865Z</time></trkpt><trkpt lat="44.4508122" lon="11.4139264"><ele>85.0</ele><time>2026-03-30T09:30:58.87Z</time></trkpt><trkpt lat="44.450788" lon="11.4140331"><ele>85.0</ele><time>2026-03-30T09:30:59.874Z</time></trkpt><trkpt lat="44.4507475" lon="11.4141353"><ele>85.0</ele><time>2026-03-30T09:31:00.85Z</time></trkpt><trkpt lat="44.4507044" lon="11.4142326"><ele>84.66666666666666</ele><time>2026-03-30T09:31:01.868Z</time></trkpt><trkpt lat="44.4506766" lon="11.4143397"><ele>84.33333333333333</ele><time>2026-03-30T09:31:02.868Z</time></trkpt><trkpt lat="44.4506826" lon="11.4144535"><ele>84.0</ele><time>2026-03-30T09:31:03.865Z</time></trkpt><trkpt lat="44.4507137" lon="11.4145623"><ele>83.66666666666667</ele><time>2026-03-30T09:31:04.866Z</time></trkpt><trkpt lat="44.4507569" lon="11.4146621"><ele>83.33333333333334</ele><time>2026-03-30T09:31:05.86Z</time></trkpt><trkpt lat="44.4507986" lon="11.4147598"><ele>83.0</ele><time>2026-03-30T09:31:06.874Z</time></trkpt><trkpt lat="44.4508294" lon="11.4148722"><ele>82.83333333333334</ele><time>2026-03-30T09:31:07.86Z</time></trkpt><trkpt lat="44.4508517" lon="11.4149888"><ele>82.66666666666667</ele><time>2026-03-30T09:31:08.869Z</time></trkpt><trkpt lat="44.4508726" lon="11.4151071"><ele>82.5</ele><time>2026-03-30T09:31:09.858Z</time></trkpt><trkpt lat="44.4508944" lon="11.4152254"><ele>82.33333333333333</ele><time>2026-03-30T09:31:10.863Z</time></trkpt><trkpt lat="44.450918" lon="11.4153434"><ele>82.16666666666666</ele><time>2026-03-30T09:31:11.852Z</time></trkpt><trkpt lat="44.4509449" lon="11.4154603"><ele>82.0</ele><time>2026-03-30T09:31:12.853Z</time></trkpt><trkpt lat="44.4509754" lon="11.4155766"><ele>81.16666666666666</ele><time>2026-03-30T09:31:13.865Z</time></trkpt><trkpt lat="44.4510078" lon="11.4156922"><ele>80.33333333333333</ele><time>2026-03-30T09:31:14.87Z</time></trkpt><trkpt lat="44.4510422" lon="11.4158056"><ele>79.5</ele><time>2026-03-30T09:31:15.862Z</time></trkpt><trkpt lat="44.4510815" lon="11.4159188"><ele>78.66666666666667</ele><time>2026-03-30T09:31:16.876Z</time></trkpt><trkpt lat="44.4511236" lon="11.4160301"><ele>77.83333333333334</ele><time>2026-03-30T09:31:17.871Z</time></trkpt><trkpt lat="44.4511685" lon="11.416139"><ele>77.0</ele><time>2026-03-30T09:31:18.859Z</time></trkpt><trkpt lat="44.4512174" lon="11.416245"><ele>77.0</ele><time>2026-03-30T09:31:19.867Z</time></trkpt><trkpt lat="44.4512709" lon="11.4163472"><ele>77.0</ele><time>2026-03-30T09:31:20.859Z</time></trkpt><trkpt lat="44.4513279" lon="11.4164422"><ele>77.0</ele><time>2026-03-30T09:31:21.862Z</time></trkpt><trkpt lat="44.4513858" lon="11.4165382"><ele>77.0</ele><time>2026-03-30T09:31:22.869Z</time></trkpt><trkpt lat="44.4514445" lon="11.4166324"><ele>77.0</ele><time>2026-03-30T09:31:23.868Z</time></trkpt><trkpt lat="44.4515051" lon="11.416724"><ele>77.0</ele><time>2026-03-30T09:31:24.864Z</time></trkpt><trkpt lat="44.4515656" lon="11.4168127"><ele>77.0</ele><time>2026-03-30T09:31:25.871Z</time></trkpt><trkpt lat="44.451626" lon="11.4168997"><ele>77.0</ele><time>2026-03-30T09:31:26.87Z</time></trkpt><trkpt lat="44.451688" lon="11.4169877"><ele>77.0</ele><time>2026-03-30T09:31:27.869Z</time></trkpt><trkpt lat="44.4517497" lon="11.4170738"><ele>77.0</ele><time>2026-03-30T09:31:28.866Z</time></trkpt><trkpt lat="44.451812" lon="11.4171615"><ele>77.0</ele><time>2026-03-30T09:31:29.863Z</time></trkpt><trkpt lat="44.451873" lon="11.417248"><ele>77.0</ele><time>2026-03-30T09:31:30.853Z</time></trkpt><trkpt lat="44.4519305" lon="11.4173333"><ele>77.16666666666667</ele><time>2026-03-30T09:31:31.856Z</time></trkpt><trkpt lat="44.451988" lon="11.4174212"><ele>77.33333333333334</ele><time>2026-03-30T09:31:32.86Z</time></trkpt><trkpt lat="44.4520482" lon="11.4175091"><ele>77.5</ele><time>2026-03-30T09:31:33.862Z</time></trkpt><trkpt lat="44.4521108" lon="11.4175955"><ele>77.66666666666667</ele><time>2026-03-30T09:31:34.852Z</time></trkpt><trkpt lat="44.4521697" lon="11.4176809"><ele>77.83333333333333</ele><time>2026-03-30T09:31:35.864Z</time></trkpt><trkpt lat="44.45223" lon="11.4177627"><ele>78.0</ele><time>2026-03-30T09:31:36.863Z</time></trkpt><trkpt lat="44.4522883" lon="11.4178455"><ele>78.0</ele><time>2026-03-30T09:31:37.865Z</time></trkpt><trkpt lat="44.4523452" lon="11.4179278"><ele>78.0</ele><time>2026-03-30T09:31:38.862Z</time></trkpt><trkpt lat="44.4524026" lon="11.4180111"><ele>78.0</ele><time>2026-03-30T09:31:39.867Z</time></trkpt><trkpt lat="44.4524602" lon="11.4180934"><ele>78.0</ele><time>2026-03-30T09:31:40.862Z</time></trkpt><trkpt lat="44.4525174" lon="11.4181753"><ele>78.0</ele><time>2026-03-30T09:31:41.859Z</time></trkpt><trkpt lat="44.4525749" lon="11.4182591"><ele>78.0</ele><time>2026-03-30T09:31:42.859Z</time></trkpt><trkpt lat="44.452631" lon="11.4183413"><ele>77.83333333333333</ele><time>2026-03-30T09:31:43.858Z</time></trkpt><trkpt lat="44.4526883" lon="11.4184238"><ele>77.66666666666667</ele><time>2026-03-30T09:31:44.871Z</time></trkpt><trkpt lat="44.4527456" lon="11.4185063"><ele>77.5</ele><time>2026-03-30T09:31:45.862Z</time></trkpt><trkpt lat="44.4528021" lon="11.4185893"><ele>77.33333333333334</ele><time>2026-03-30T09:31:46.865Z</time></trkpt><trkpt lat="44.4528584" lon="11.4186721"><ele>77.16666666666667</ele><time>2026-03-30T09:31:47.863Z</time></trkpt><trkpt lat="44.4529154" lon="11.4187548"><ele>77.0</ele><time>2026-03-30T09:31:48.871Z</time></trkpt><trkpt lat="44.4529718" lon="11.4188364"><ele>76.33333333333334</ele><time>2026-03-30T09:31:49.867Z</time></trkpt><trkpt lat="44.4530283" lon="11.4189182"><ele>75.66666666666667</ele><time>2026-03-30T09:31:50.882Z</time></trkpt><trkpt lat="44.4530847" lon="11.419"><ele>75.0</ele><time>2026-03-30T09:31:51.861Z</time></trkpt><trkpt lat="44.4531414" lon="11.4190816"><ele>74.33333333333333</ele><time>2026-03-30T09:31:52.868Z</time></trkpt><trkpt lat="44.4531985" lon="11.4191637"><ele>73.66666666666666</ele><time>2026-03-30T09:31:53.868Z</time></trkpt><trkpt lat="44.4532552" lon="11.4192466"><ele>73.0</ele><time>2026-03-30T09:31:54.867Z</time></trkpt><trkpt lat="44.4533128" lon="11.4193281"><ele>73.0</ele><time>2026-03-30T09:31:55.86Z</time></trkpt><trkpt lat="44.4533695" lon="11.4194105"><ele>73.0</ele><time>2026-03-30T09:31:56.865Z</time></trkpt><trkpt lat="44.4534267" lon="11.4194922"><ele>73.0</ele><time>2026-03-30T09:31:57.868Z</time></trkpt><trkpt lat="44.453483" lon="11.4195751"><ele>73.0</ele><time>2026-03-30T09:31:58.855Z</time></trkpt><trkpt lat="44.4535391" lon="11.4196563"><ele>73.0</ele><time>2026-03-30T09:31:59.858Z</time></trkpt><trkpt lat="44.4535947" lon="11.4197375"><ele>73.0</ele><time>2026-03-30T09:32:00.86Z</time></trkpt><trkpt lat="44.4536509" lon="11.4198178"><ele>73.16666666666666</ele><time>2026-03-30T09:32:01.867Z</time></trkpt><trkpt lat="44.4537075" lon="11.4198985"><ele>73.33333333333333</ele><time>2026-03-30T09:32:02.873Z</time></trkpt><trkpt lat="44.4537632" lon="11.4199787"><ele>73.5</ele><time>2026-03-30T09:32:03.868Z</time></trkpt><trkpt lat="44.4538196" lon="11.4200586"><ele>73.66666666666667</ele><time>2026-03-30T09:32:04.858Z</time></trkpt><trkpt lat="44.453876" lon="11.4201387"><ele>73.83333333333334</ele><time>2026-03-30T09:32:05.868Z</time></trkpt><trkpt lat="44.4539327" lon="11.4202189"><ele>74.0</ele><time>2026-03-30T09:32:06.861Z</time></trkpt><trkpt lat="44.453986" lon="11.4202992"><ele>73.66666666666667</ele><time>2026-03-30T09:32:07.867Z</time></trkpt><trkpt lat="44.4540403" lon="11.4203796"><ele>73.33333333333334</ele><time>2026-03-30T09:32:08.863Z</time></trkpt><trkpt lat="44.4540944" lon="11.4204592"><ele>73.0</ele><time>2026-03-30T09:32:09.861Z</time></trkpt><trkpt lat="44.4541494" lon="11.4205374"><ele>72.66666666666667</ele><time>2026-03-30T09:32:10.865Z</time></trkpt><trkpt lat="44.4542055" lon="11.4206168"><ele>72.33333333333333</ele><time>2026-03-30T09:32:11.868Z</time></trkpt><trkpt lat="44.4542593" lon="11.4206967"><ele>72.0</ele><time>2026-03-30T09:32:12.877Z</time></trkpt><trkpt lat="44.4543126" lon="11.4207772"><ele>72.0</ele><time>2026-03-30T09:32:13.862Z</time></trkpt><trkpt lat="44.4543652" lon="11.4208591"><ele>72.0</ele><time>2026-03-30T09:32:14.863Z</time></trkpt><trkpt lat="44.4544155" lon="11.4209447"><ele>72.0</ele><time>2026-03-30T09:32:15.873Z</time></trkpt><trkpt lat="44.4544624" lon="11.4210337"><ele>72.0</ele><time>2026-03-30T09:32:16.86Z</time></trkpt><trkpt lat="44.4545055" lon="11.4211255"><ele>72.0</ele><time>2026-03-30T09:32:17.859Z</time></trkpt><trkpt lat="44.454545" lon="11.4212205"><ele>72.0</ele><time>2026-03-30T09:32:18.86Z</time></trkpt><trkpt lat="44.4545829" lon="11.4213154"><ele>72.16666666666667</ele><time>2026-03-30T09:32:19.863Z</time></trkpt><trkpt lat="44.4546201" lon="11.4214111"><ele>72.33333333333333</ele><time>2026-03-30T09:32:20.861Z</time></trkpt><trkpt lat="44.4546575" lon="11.421507"><ele>72.5</ele><time>2026-03-30T09:32:21.874Z</time></trkpt><trkpt lat="44.4546957" lon="11.4216041"><ele>72.66666666666666</ele><time>2026-03-30T09:32:22.871Z</time></trkpt><trkpt lat="44.4547337" lon="11.4217027"><ele>72.83333333333333</ele><time>2026-03-30T09:32:23.87Z</time></trkpt><trkpt lat="44.4547722" lon="11.4217958"><ele>73.0</ele><time>2026-03-30T09:32:24.866Z</time></trkpt><trkpt lat="44.4548098" lon="11.4218924"><ele>73.0</ele><time>2026-03-30T09:32:25.866Z</time></trkpt><trkpt lat="44.4548466" lon="11.4219919"><ele>73.0</ele><time>2026-03-30T09:32:26.86Z</time></trkpt><trkpt lat="44.4548834" lon="11.4220891"><ele>73.0</ele><time>2026-03-30T09:32:27.875Z</time></trkpt><trkpt lat="44.4549235" lon="11.4221861"><ele>73.0</ele><time>2026-03-30T09:32:28.858Z</time></trkpt><trkpt lat="44.454965" lon="11.4222847"><ele>73.0</ele><time>2026-03-30T09:32:29.868Z</time></trkpt><trkpt lat="44.4550051" lon="11.4223819"><ele>73.0</ele><time>2026-03-30T09:32:30.869Z</time></trkpt><trkpt lat="44.4550457" lon="11.4224828"><ele>72.83333333333333</ele><time>2026-03-30T09:32:31.863Z</time></trkpt><trkpt lat="44.4550735" lon="11.4225928"><ele>72.66666666666666</ele><time>2026-03-30T09:32:32.86Z</time></trkpt><trkpt lat="44.4550762" lon="11.4227075"><ele>72.5</ele><time>2026-03-30T09:32:33.844Z</time></trkpt><trkpt lat="44.4550629" lon="11.4228222"><ele>72.33333333333333</ele><time>2026-03-30T09:32:34.877Z</time></trkpt><trkpt lat="44.4550469" lon="11.4229344"><ele>72.16666666666667</ele><time>2026-03-30T09:32:35.866Z</time></trkpt><trkpt lat="44.4550322" lon="11.4230458"><ele>72.0</ele><time>2026-03-30T09:32:36.862Z</time></trkpt><trkpt lat="44.4550101" lon="11.4231555"><ele>71.66666666666667</ele><time>2026-03-30T09:32:37.876Z</time></trkpt><trkpt lat="44.4549687" lon="11.4232527"><ele>71.33333333333333</ele><time>2026-03-30T09:32:38.866Z</time></trkpt><trkpt lat="44.4549083" lon="11.4233273"><ele>71.0</ele><time>2026-03-30T09:32:39.861Z</time></trkpt><trkpt lat="44.4548408" lon="11.4233885"><ele>70.66666666666666</ele><time>2026-03-30T09:32:40.864Z</time></trkpt><trkpt lat="44.4547728" lon="11.4234477"><ele>70.33333333333333</ele><time>2026-03-30T09:32:41.873Z</time></trkpt><trkpt lat="44.454707" lon="11.4235072"><ele>70.0</ele><time>2026-03-30T09:32:42.859Z</time></trkpt><trkpt lat="44.4546408" lon="11.4235675"><ele>70.66666666666666</ele><time>2026-03-30T09:32:43.869Z</time></trkpt><trkpt lat="44.4545755" lon="11.4236287"><ele>71.33333333333333</ele><time>2026-03-30T09:32:44.861Z</time></trkpt><trkpt lat="44.4545103" lon="11.4236884"><ele>72.0</ele><time>2026-03-30T09:32:45.856Z</time></trkpt><trkpt lat="44.4544454" lon="11.4237468"><ele>72.66666666666667</ele><time>2026-03-30T09:32:46.872Z</time></trkpt><trkpt lat="44.454382" lon="11.423806"><ele>73.33333333333334</ele><time>2026-03-30T09:32:47.862Z</time></trkpt><trkpt lat="44.4543188" lon="11.4238655"><ele>74.0</ele><time>2026-03-30T09:32:48.858Z</time></trkpt><trkpt lat="44.4542559" lon="11.4239252"><ele>74.16666666666667</ele><time>2026-03-30T09:32:49.863Z</time></trkpt><trkpt lat="44.4541927" lon="11.4239845"><ele>74.33333333333334</ele><time>2026-03-30T09:32:50.858Z</time></trkpt><trkpt lat="44.4541294" lon="11.4240439"><ele>74.5</ele><time>2026-03-30T09:32:51.87Z</time></trkpt><trkpt lat="44.4540666" lon="11.4241029"><ele>74.66666666666667</ele><time>2026-03-30T09:32:52.865Z</time></trkpt><trkpt lat="44.4540039" lon="11.4241605"><ele>74.83333333333333</ele><time>2026-03-30T09:32:53.876Z</time></trkpt><trkpt lat="44.4539409" lon="11.4242176"><ele>75.0</ele><time>2026-03-30T09:32:54.866Z</time></trkpt><trkpt lat="44.453878" lon="11.4242754"><ele>74.99999999999999</ele><time>2026-03-30T09:32:55.854Z</time></trkpt><trkpt lat="44.4538159" lon="11.4243333"><ele>75.0</ele><time>2026-03-30T09:32:56.865Z</time></trkpt><trkpt lat="44.4537534" lon="11.4243914"><ele>75.0</ele><time>2026-03-30T09:32:57.87Z</time></trkpt><trkpt lat="44.4536907" lon="11.4244486"><ele>75.0</ele><time>2026-03-30T09:32:58.859Z</time></trkpt><trkpt lat="44.4536277" lon="11.424505"><ele>75.0</ele><time>2026-03-30T09:32:59.859Z</time></trkpt><trkpt lat="44.4535647" lon="11.4245598"><ele>74.99999999999999</ele><time>2026-03-30T09:33:00.866Z</time></trkpt><trkpt lat="44.4535015" lon="11.4246191"><ele>75.0</ele><time>2026-03-30T09:33:01.867Z</time></trkpt><trkpt lat="44.4534396" lon="11.4246753"><ele>74.85714285714285</ele><time>2026-03-30T09:33:02.862Z</time></trkpt><trkpt lat="44.453378" lon="11.424732"><ele>74.71428571428571</ele><time>2026-03-30T09:33:03.86Z</time></trkpt><trkpt lat="44.4533156" lon="11.4247876"><ele>74.57142857142857</ele><time>2026-03-30T09:33:04.862Z</time></trkpt><trkpt lat="44.453252" lon="11.4248397"><ele>74.42857142857142</ele><time>2026-03-30T09:33:05.863Z</time></trkpt><trkpt lat="44.4531865" lon="11.4248861"><ele>74.28571428571428</ele><time>2026-03-30T09:33:06.87Z</time></trkpt><trkpt lat="44.453121" lon="11.4249309"><ele>74.14285714285714</ele><time>2026-03-30T09:33:07.856Z</time></trkpt><trkpt lat="44.4530542" lon="11.4249717"><ele>74.0</ele><time>2026-03-30T09:33:08.88Z</time></trkpt><trkpt lat="44.4529866" lon="11.4250127"><ele>74.28571428571429</ele><time>2026-03-30T09:33:09.86Z</time></trkpt><trkpt lat="44.4529198" lon="11.4250486"><ele>74.57142857142857</ele><time>2026-03-30T09:33:10.87Z</time></trkpt><trkpt lat="44.4528531" lon="11.4250827"><ele>74.85714285714286</ele><time>2026-03-30T09:33:11.87Z</time></trkpt><trkpt lat="44.4527864" lon="11.4251155"><ele>75.14285714285714</ele><time>2026-03-30T09:33:12.866Z</time></trkpt><trkpt lat="44.4527198" lon="11.4251475"><ele>75.42857142857143</ele><time>2026-03-30T09:33:13.864Z</time></trkpt><trkpt lat="44.4526528" lon="11.4251792"><ele>75.71428571428571</ele><time>2026-03-30T09:33:14.865Z</time></trkpt><trkpt lat="44.4525863" lon="11.425209"><ele>76.0</ele><time>2026-03-30T09:33:15.867Z</time></trkpt><trkpt lat="44.4525203" lon="11.4252405"><ele>76.0</ele><time>2026-03-30T09:33:16.87Z</time></trkpt><trkpt lat="44.452454" lon="11.425271"><ele>76.0</ele><time>2026-03-30T09:33:17.875Z</time></trkpt><trkpt lat="44.4523892" lon="11.4252993"><ele>76.0</ele><time>2026-03-30T09:33:18.864Z</time></trkpt><trkpt lat="44.4523231" lon="11.4253259"><ele>76.0</ele><time>2026-03-30T09:33:19.872Z</time></trkpt><trkpt lat="44.452257" lon="11.4253539"><ele>76.0</ele><time>2026-03-30T09:33:20.863Z</time></trkpt><trkpt lat="44.4521913" lon="11.425382"><ele>76.0</ele><time>2026-03-30T09:33:21.858Z</time></trkpt><trkpt lat="44.4521296" lon="11.4254105"><ele>76.0</ele><time>2026-03-30T09:33:22.863Z</time></trkpt><trkpt lat="44.4520642" lon="11.425442"><ele>76.28571428571428</ele><time>2026-03-30T09:33:23.869Z</time></trkpt><trkpt lat="44.4519998" lon="11.4254738"><ele>76.57142857142858</ele><time>2026-03-30T09:33:24.873Z</time></trkpt><trkpt lat="44.4519353" lon="11.4255063"><ele>76.85714285714286</ele><time>2026-03-30T09:33:25.864Z</time></trkpt><trkpt lat="44.4518698" lon="11.4255403"><ele>77.14285714285714</ele><time>2026-03-30T09:33:26.864Z</time></trkpt><trkpt lat="44.4518048" lon="11.4255768"><ele>77.42857142857142</ele><time>2026-03-30T09:33:27.87Z</time></trkpt><trkpt lat="44.45174" lon="11.4256117"><ele>77.71428571428572</ele><time>2026-03-30T09:33:28.861Z</time></trkpt><trkpt lat="44.4516764" lon="11.4256561"><ele>78.0</ele><time>2026-03-30T09:33:29.857Z</time></trkpt><trkpt lat="44.4516132" lon="11.4256991"><ele>78.0</ele><time>2026-03-30T09:33:30.864Z</time></trkpt><trkpt lat="44.4515494" lon="11.4257429"><ele>78.0</ele><time>2026-03-30T09:33:31.856Z</time></trkpt><trkpt lat="44.4514871" lon="11.4257894"><ele>78.0</ele><time>2026-03-30T09:33:32.864Z</time></trkpt><trkpt lat="44.4514266" lon="11.425838"><ele>78.0</ele><time>2026-03-30T09:33:33.864Z</time></trkpt><trkpt lat="44.4513663" lon="11.4258894"><ele>78.0</ele><time>2026-03-30T09:33:34.852Z</time></trkpt><trkpt lat="44.451305" lon="11.4259414"><ele>78.0</ele><time>2026-03-30T09:33:35.867Z</time></trkpt><trkpt lat="44.451246" lon="11.4259915"><ele>78.0</ele><time>2026-03-30T09:33:36.847Z</time></trkpt><trkpt lat="44.4511864" lon="11.4260431"><ele>78.14285714285715</ele><time>2026-03-30T09:33:37.858Z</time></trkpt><trkpt lat="44.4511264" lon="11.4260954"><ele>78.28571428571428</ele><time>2026-03-30T09:33:38.877Z</time></trkpt><trkpt lat="44.4510671" lon="11.4261495"><ele>78.42857142857143</ele><time>2026-03-30T09:33:39.863Z</time></trkpt><trkpt lat="44.4510079" lon="11.4262089"><ele>78.57142857142858</ele><time>2026-03-30T09:33:40.866Z</time></trkpt><trkpt lat="44.4509498" lon="11.4262701"><ele>78.71428571428572</ele><time>2026-03-30T09:33:41.879Z</time></trkpt><trkpt lat="44.4508918" lon="11.4263319"><ele>78.85714285714286</ele><time>2026-03-30T09:33:42.871Z</time></trkpt><trkpt lat="44.4508329" lon="11.4263948"><ele>79.0</ele><time>2026-03-30T09:33:43.856Z</time></trkpt><trkpt lat="44.4507747" lon="11.4264578"><ele>78.85714285714286</ele><time>2026-03-30T09:33:44.876Z</time></trkpt><trkpt lat="44.4507167" lon="11.4265204"><ele>78.71428571428572</ele><time>2026-03-30T09:33:45.865Z</time></trkpt><trkpt lat="44.4506591" lon="11.4265837"><ele>78.57142857142858</ele><time>2026-03-30T09:33:46.856Z</time></trkpt><trkpt lat="44.4506018" lon="11.4266459"><ele>78.42857142857143</ele><time>2026-03-30T09:33:47.865Z</time></trkpt><trkpt lat="44.4505442" lon="11.4267089"><ele>78.28571428571428</ele><time>2026-03-30T09:33:48.866Z</time></trkpt><trkpt lat="44.4504871" lon="11.4267725"><ele>78.14285714285715</ele><time>2026-03-30T09:33:49.853Z</time></trkpt><trkpt lat="44.4504296" lon="11.4268368"><ele>78.0</ele><time>2026-03-30T09:33:50.862Z</time></trkpt><trkpt lat="44.4503712" lon="11.4269018"><ele>78.0</ele><time>2026-03-30T09:33:51.857Z</time></trkpt><trkpt lat="44.4503127" lon="11.4269664"><ele>78.0</ele><time>2026-03-30T09:33:52.866Z</time></trkpt><trkpt lat="44.4502554" lon="11.4270299"><ele>78.0</ele><time>2026-03-30T09:33:53.876Z</time></trkpt><trkpt lat="44.4501971" lon="11.4270942"><ele>78.0</ele><time>2026-03-30T09:33:54.858Z</time></trkpt><trkpt lat="44.4501371" lon="11.4271579"><ele>78.0</ele><time>2026-03-30T09:33:55.869Z</time></trkpt><trkpt lat="44.4500766" lon="11.4272212"><ele>78.0</ele><time>2026-03-30T09:33:56.865Z</time></trkpt><trkpt lat="44.4500154" lon="11.4272863"><ele>78.0</ele><time>2026-03-30T09:33:57.862Z</time></trkpt><trkpt lat="44.4499542" lon="11.4273522"><ele>77.5</ele><time>2026-03-30T09:33:58.857Z</time></trkpt><trkpt lat="44.4498935" lon="11.427418"><ele>77.0</ele><time>2026-03-30T09:33:59.858Z</time></trkpt><trkpt lat="44.4498336" lon="11.4274824"><ele>76.5</ele><time>2026-03-30T09:34:00.859Z</time></trkpt><trkpt lat="44.4497734" lon="11.4275495"><ele>76.0</ele><time>2026-03-30T09:34:01.855Z</time></trkpt><trkpt lat="44.4497121" lon="11.4276155"><ele>75.5</ele><time>2026-03-30T09:34:02.877Z</time></trkpt><trkpt lat="44.4496511" lon="11.4276828"><ele>75.0</ele><time>2026-03-30T09:34:03.86Z</time></trkpt><trkpt lat="44.4495939" lon="11.4277522"><ele>74.66666666666667</ele><time>2026-03-30T09:34:04.856Z</time></trkpt><trkpt lat="44.4495384" lon="11.4278251"><ele>74.33333333333333</ele><time>2026-03-30T09:34:05.869Z</time></trkpt><trkpt lat="44.4494868" lon="11.4279059"><ele>74.0</ele><time>2026-03-30T09:34:06.864Z</time></trkpt><trkpt lat="44.4494391" lon="11.4279934"><ele>73.66666666666666</ele><time>2026-03-30T09:34:07.861Z</time></trkpt><trkpt lat="44.4493982" lon="11.4280876"><ele>73.33333333333333</ele><time>2026-03-30T09:34:08.866Z</time></trkpt><trkpt lat="44.4493621" lon="11.4281883"><ele>73.0</ele><time>2026-03-30T09:34:09.861Z</time></trkpt><trkpt lat="44.4493299" lon="11.4282919"><ele>73.0</ele><time>2026-03-30T09:34:10.854Z</time></trkpt><trkpt lat="44.4493032" lon="11.4283987"><ele>73.0</ele><time>2026-03-30T09:34:11.867Z</time></trkpt><trkpt lat="44.4492742" lon="11.4285054"><ele>73.0</ele><time>2026-03-30T09:34:12.856Z</time></trkpt><trkpt lat="44.4492461" lon="11.428614"><ele>73.0</ele><time>2026-03-30T09:34:13.863Z</time></trkpt><trkpt lat="44.4492184" lon="11.4287237"><ele>73.0</ele><time>2026-03-30T09:34:14.862Z</time></trkpt><trkpt lat="44.4491897" lon="11.4288321"><ele>73.0</ele><time>2026-03-30T09:34:15.864Z</time></trkpt><trkpt lat="44.4491613" lon="11.4289425"><ele>72.83333333333333</ele><time>2026-03-30T09:34:16.845Z</time></trkpt><trkpt lat="44.4491327" lon="11.4290518"><ele>72.66666666666666</ele><time>2026-03-30T09:34:17.864Z</time></trkpt><trkpt lat="44.4491044" lon="11.4291612"><ele>72.5</ele><time>2026-03-30T09:34:18.873Z</time></trkpt><trkpt lat="44.4490758" lon="11.4292709"><ele>72.33333333333333</ele><time>2026-03-30T09:34:19.863Z</time></trkpt><trkpt lat="44.4490473" lon="11.42938"><ele>72.16666666666667</ele><time>2026-03-30T09:34:20.876Z</time></trkpt><trkpt lat="44.4490196" lon="11.4294866"><ele>72.0</ele><time>2026-03-30T09:34:21.852Z</time></trkpt><trkpt lat="44.4489914" lon="11.4295943"><ele>71.5</ele><time>2026-03-30T09:34:22.859Z</time></trkpt><trkpt lat="44.4489631" lon="11.4297031"><ele>71.0</ele><time>2026-03-30T09:34:23.859Z</time></trkpt><trkpt lat="44.4489351" lon="11.4298127"><ele>70.5</ele><time>2026-03-30T09:34:24.871Z</time></trkpt><trkpt lat="44.448906" lon="11.4299227"><ele>70.0</ele><time>2026-03-30T09:34:25.865Z</time></trkpt><trkpt lat="44.4488775" lon="11.4300311"><ele>69.5</ele><time>2026-03-30T09:34:26.859Z</time></trkpt><trkpt lat="44.4488486" lon="11.4301411"><ele>69.0</ele><time>2026-03-30T09:34:27.867Z</time></trkpt><trkpt lat="44.4488191" lon="11.430253"><ele>68.83333333333333</ele><time>2026-03-30T09:34:28.866Z</time></trkpt><trkpt lat="44.4487903" lon="11.430365"><ele>68.66666666666667</ele><time>2026-03-30T09:34:29.855Z</time></trkpt><trkpt lat="44.4487616" lon="11.4304765"><ele>68.5</ele><time>2026-03-30T09:34:30.859Z</time></trkpt><trkpt lat="44.4487346" lon="11.4305868"><ele>68.33333333333334</ele><time>2026-03-30T09:34:31.869Z</time></trkpt><trkpt lat="44.4487073" lon="11.4306955"><ele>68.16666666666667</ele><time>2026-03-30T09:34:32.866Z</time></trkpt><trkpt lat="44.448681" lon="11.4308029"><ele>68.0</ele><time>2026-03-30T09:34:33.86Z</time></trkpt><trkpt lat="44.4486533" lon="11.4309083"><ele>68.0</ele><time>2026-03-30T09:34:34.865Z</time></trkpt><trkpt lat="44.4486272" lon="11.4310137"><ele>68.0</ele><time>2026-03-30T09:34:35.863Z</time></trkpt><trkpt lat="44.4486009" lon="11.4311171"><ele>68.0</ele><time>2026-03-30T09:34:36.873Z</time></trkpt><trkpt lat="44.4485744" lon="11.4312194"><ele>68.0</ele><time>2026-03-30T09:34:37.859Z</time></trkpt><trkpt lat="44.448548" lon="11.4313211"><ele>68.0</ele><time>2026-03-30T09:34:38.866Z</time></trkpt><trkpt lat="44.4485206" lon="11.4314222"><ele>68.0</ele><time>2026-03-30T09:34:39.858Z</time></trkpt><trkpt lat="44.4484953" lon="11.4315169"><ele>68.14285714285714</ele><time>2026-03-30T09:34:40.875Z</time></trkpt><trkpt lat="44.448473" lon="11.4316061"><ele>68.28571428571428</ele><time>2026-03-30T09:34:41.86Z</time></trkpt><trkpt lat="44.4484496" lon="11.4316952"><ele>68.42857142857143</ele><time>2026-03-30T09:34:42.869Z</time></trkpt><trkpt lat="44.4484258" lon="11.4317843"><ele>68.57142857142857</ele><time>2026-03-30T09:34:43.862Z</time></trkpt><trkpt lat="44.4484024" lon="11.4318729"><ele>68.71428571428572</ele><time>2026-03-30T09:34:44.874Z</time></trkpt><trkpt lat="44.4483787" lon="11.4319607"><ele>68.85714285714286</ele><time>2026-03-30T09:34:45.864Z</time></trkpt><trkpt lat="44.4483552" lon="11.4320472"><ele>69.0</ele><time>2026-03-30T09:34:46.867Z</time></trkpt><trkpt lat="44.4483304" lon="11.4321358"><ele>68.85714285714286</ele><time>2026-03-30T09:34:47.869Z</time></trkpt><trkpt lat="44.4483063" lon="11.4322262"><ele>68.71428571428572</ele><time>2026-03-30T09:34:48.862Z</time></trkpt><trkpt lat="44.4482812" lon="11.4323175"><ele>68.57142857142857</ele><time>2026-03-30T09:34:49.859Z</time></trkpt><trkpt lat="44.4482556" lon="11.4324109"><ele>68.42857142857143</ele><time>2026-03-30T09:34:50.861Z</time></trkpt><trkpt lat="44.4482289" lon="11.432504"><ele>68.28571428571428</ele><time>2026-03-30T09:34:51.866Z</time></trkpt><trkpt lat="44.4482033" lon="11.4326015"><ele>68.14285714285714</ele><time>2026-03-30T09:34:52.855Z</time></trkpt><trkpt lat="44.4481798" lon="11.4327013"><ele>68.0</ele><time>2026-03-30T09:34:53.856Z</time></trkpt><trkpt lat="44.4481556" lon="11.4328019"><ele>68.0</ele><time>2026-03-30T09:34:54.861Z</time></trkpt><trkpt lat="44.4481302" lon="11.4329035"><ele>68.0</ele><time>2026-03-30T09:34:55.864Z</time></trkpt><trkpt lat="44.4481046" lon="11.4330059"><ele>68.0</ele><time>2026-03-30T09:34:56.869Z</time></trkpt><trkpt lat="44.448079" lon="11.4331094"><ele>68.0</ele><time>2026-03-30T09:34:57.864Z</time></trkpt><trkpt lat="44.4480522" lon="11.4332134"><ele>68.0</ele><time>2026-03-30T09:34:58.854Z</time></trkpt><trkpt lat="44.4480251" lon="11.4333177"><ele>68.0</ele><time>2026-03-30T09:34:59.858Z</time></trkpt><trkpt lat="44.447999" lon="11.4334232"><ele>67.83333333333334</ele><time>2026-03-30T09:35:00.86Z</time></trkpt><trkpt lat="44.4479737" lon="11.433527"><ele>67.66666666666667</ele><time>2026-03-30T09:35:01.873Z</time></trkpt><trkpt lat="44.4479473" lon="11.4336311"><ele>67.5</ele><time>2026-03-30T09:35:02.861Z</time></trkpt><trkpt lat="44.4479203" lon="11.4337342"><ele>67.33333333333333</ele><time>2026-03-30T09:35:03.847Z</time></trkpt><trkpt lat="44.4478928" lon="11.4338358"><ele>67.16666666666666</ele><time>2026-03-30T09:35:04.854Z</time></trkpt><trkpt lat="44.447866" lon="11.4339361"><ele>67.0</ele><time>2026-03-30T09:35:05.857Z</time></trkpt><trkpt lat="44.4478406" lon="11.4340345"><ele>67.0</ele><time>2026-03-30T09:35:06.854Z</time></trkpt><trkpt lat="44.4478156" lon="11.4341303"><ele>67.0</ele><time>2026-03-30T09:35:07.86Z</time></trkpt><trkpt lat="44.4477907" lon="11.4342242"><ele>67.0</ele><time>2026-03-30T09:35:08.867Z</time></trkpt><trkpt lat="44.4477676" lon="11.4343176"><ele>67.0</ele><time>2026-03-30T09:35:09.859Z</time></trkpt><trkpt lat="44.4477441" lon="11.4344098"><ele>67.0</ele><time>2026-03-30T09:35:10.874Z</time></trkpt><trkpt lat="44.44772" lon="11.4345003"><ele>67.0</ele><time>2026-03-30T09:35:11.856Z</time></trkpt><trkpt lat="44.4476967" lon="11.4345906"><ele>67.0</ele><time>2026-03-30T09:35:12.851Z</time></trkpt><trkpt lat="44.4476744" lon="11.43468"><ele>66.85714285714286</ele><time>2026-03-30T09:35:13.865Z</time></trkpt><trkpt lat="44.44765" lon="11.4347685"><ele>66.71428571428571</ele><time>2026-03-30T09:35:14.869Z</time></trkpt><trkpt lat="44.4476264" lon="11.4348569"><ele>66.57142857142857</ele><time>2026-03-30T09:35:15.86Z</time></trkpt><trkpt lat="44.4476039" lon="11.4349473"><ele>66.42857142857143</ele><time>2026-03-30T09:35:16.865Z</time></trkpt><trkpt lat="44.4475812" lon="11.4350375"><ele>66.28571428571429</ele><time>2026-03-30T09:35:17.854Z</time></trkpt><trkpt lat="44.4475576" lon="11.4351269"><ele>66.14285714285714</ele><time>2026-03-30T09:35:18.857Z</time></trkpt><trkpt lat="44.4475338" lon="11.4352169"><ele>66.0</ele><time>2026-03-30T09:35:19.859Z</time></trkpt><trkpt lat="44.4475112" lon="11.4353075"><ele>66.0</ele><time>2026-03-30T09:35:20.869Z</time></trkpt><trkpt lat="44.447489" lon="11.4353958"><ele>66.0</ele><time>2026-03-30T09:35:21.875Z</time></trkpt><trkpt lat="44.447466" lon="11.4354837"><ele>66.0</ele><time>2026-03-30T09:35:22.855Z</time></trkpt><trkpt lat="44.4474442" lon="11.4355737"><ele>66.0</ele><time>2026-03-30T09:35:23.861Z</time></trkpt><trkpt lat="44.4474212" lon="11.435666"><ele>66.0</ele><time>2026-03-30T09:35:24.868Z</time></trkpt><trkpt lat="44.4473989" lon="11.4357584"><ele>66.0</ele><time>2026-03-30T09:35:25.862Z</time></trkpt><trkpt lat="44.4473766" lon="11.4358504"><ele>66.0</ele><time>2026-03-30T09:35:26.868Z</time></trkpt><trkpt lat="44.447353" lon="11.435941"><ele>65.71428571428571</ele><time>2026-03-30T09:35:27.869Z</time></trkpt><trkpt lat="44.4473282" lon="11.4360349"><ele>65.42857142857143</ele><time>2026-03-30T09:35:28.86Z</time></trkpt><trkpt lat="44.4473037" lon="11.4361269"><ele>65.14285714285714</ele><time>2026-03-30T09:35:29.86Z</time></trkpt><trkpt lat="44.4472797" lon="11.4362201"><ele>64.85714285714286</ele><time>2026-03-30T09:35:30.865Z</time></trkpt><trkpt lat="44.4472537" lon="11.4363131"><ele>64.57142857142857</ele><time>2026-03-30T09:35:31.859Z</time></trkpt><trkpt lat="44.4472295" lon="11.436406"><ele>64.28571428571428</ele><time>2026-03-30T09:35:32.859Z</time></trkpt><trkpt lat="44.4472044" lon="11.4365016"><ele>64.0</ele><time>2026-03-30T09:35:33.864Z</time></trkpt><trkpt lat="44.44718" lon="11.4365984"><ele>63.99999999999999</ele><time>2026-03-30T09:35:34.861Z</time></trkpt><trkpt lat="44.4471564" lon="11.4366953"><ele>64.0</ele><time>2026-03-30T09:35:35.859Z</time></trkpt><trkpt lat="44.447131" lon="11.436793"><ele>64.0</ele><time>2026-03-30T09:35:36.868Z</time></trkpt><trkpt lat="44.447105" lon="11.4368912"><ele>64.0</ele><time>2026-03-30T09:35:37.846Z</time></trkpt><trkpt lat="44.4470786" lon="11.4369901"><ele>63.99999999999999</ele><time>2026-03-30T09:35:38.854Z</time></trkpt><trkpt lat="44.4470516" lon="11.4370904"><ele>64.0</ele><time>2026-03-30T09:35:39.862Z</time></trkpt><trkpt lat="44.4470249" lon="11.4371899"><ele>63.666666666666664</ele><time>2026-03-30T09:35:40.864Z</time></trkpt><trkpt lat="44.4469992" lon="11.4372919"><ele>63.33333333333333</ele><time>2026-03-30T09:35:41.871Z</time></trkpt><trkpt lat="44.4469725" lon="11.4373956"><ele>63.0</ele><time>2026-03-30T09:35:42.862Z</time></trkpt><trkpt lat="44.4469441" lon="11.4375014"><ele>62.66666666666667</ele><time>2026-03-30T09:35:43.868Z</time></trkpt><trkpt lat="44.4469165" lon="11.4376054"><ele>62.333333333333336</ele><time>2026-03-30T09:35:44.873Z</time></trkpt><trkpt lat="44.4468887" lon="11.4377132"><ele>62.0</ele><time>2026-03-30T09:35:45.88Z</time></trkpt><trkpt lat="44.4468597" lon="11.4378197"><ele>62.00000000000001</ele><time>2026-03-30T09:35:46.867Z</time></trkpt><trkpt lat="44.4468302" lon="11.4379264"><ele>62.0</ele><time>2026-03-30T09:35:47.869Z</time></trkpt><trkpt lat="44.4468024" lon="11.4380348"><ele>62.0</ele><time>2026-03-30T09:35:48.867Z</time></trkpt><trkpt lat="44.4467748" lon="11.4381457"><ele>62.0</ele><time>2026-03-30T09:35:49.869Z</time></trkpt><trkpt lat="44.4467486" lon="11.4382574"><ele>62.00000000000001</ele><time>2026-03-30T09:35:50.876Z</time></trkpt><trkpt lat="44.4467223" lon="11.4383693"><ele>62.0</ele><time>2026-03-30T09:35:51.87Z</time></trkpt><trkpt lat="44.4466983" lon="11.4384817"><ele>62.16666666666667</ele><time>2026-03-30T09:35:52.858Z</time></trkpt><trkpt lat="44.4466747" lon="11.4385952"><ele>62.333333333333336</ele><time>2026-03-30T09:35:53.876Z</time></trkpt><trkpt lat="44.4466547" lon="11.43871"><ele>62.5</ele><time>2026-03-30T09:35:54.865Z</time></trkpt><trkpt lat="44.4466388" lon="11.4388241"><ele>62.66666666666667</ele><time>2026-03-30T09:35:55.869Z</time></trkpt><trkpt lat="44.4466245" lon="11.4389377"><ele>62.833333333333336</ele><time>2026-03-30T09:35:56.871Z</time></trkpt><trkpt lat="44.4466104" lon="11.4390503"><ele>63.0</ele><time>2026-03-30T09:35:57.866Z</time></trkpt><trkpt lat="44.446596" lon="11.4391581"><ele>63.0</ele><time>2026-03-30T09:35:58.869Z</time></trkpt><trkpt lat="44.446585" lon="11.4392689"><ele>63.0</ele><time>2026-03-30T09:35:59.868Z</time></trkpt><trkpt lat="44.4465725" lon="11.4393773"><ele>63.0</ele><time>2026-03-30T09:36:00.867Z</time></trkpt><trkpt lat="44.4465642" lon="11.4394868"><ele>63.0</ele><time>2026-03-30T09:36:01.861Z</time></trkpt><trkpt lat="44.446554" lon="11.4395944"><ele>63.0</ele><time>2026-03-30T09:36:02.862Z</time></trkpt><trkpt lat="44.4465441" lon="11.4397007"><ele>63.0</ele><time>2026-03-30T09:36:03.861Z</time></trkpt><trkpt lat="44.4465344" lon="11.4398062"><ele>63.14285714285714</ele><time>2026-03-30T09:36:04.865Z</time></trkpt><trkpt lat="44.446524" lon="11.4399096"><ele>63.285714285714285</ele><time>2026-03-30T09:36:05.863Z</time></trkpt><trkpt lat="44.446516" lon="11.4400137"><ele>63.42857142857143</ele><time>2026-03-30T09:36:06.872Z</time></trkpt><trkpt lat="44.4465085" lon="11.4401177"><ele>63.57142857142857</ele><time>2026-03-30T09:36:07.872Z</time></trkpt><trkpt lat="44.4465003" lon="11.4402191"><ele>63.71428571428571</ele><time>2026-03-30T09:36:08.869Z</time></trkpt><trkpt lat="44.44649" lon="11.4403195"><ele>63.857142857142854</ele><time>2026-03-30T09:36:09.884Z</time></trkpt><trkpt lat="44.4464802" lon="11.4404192"><ele>64.0</ele><time>2026-03-30T09:36:10.87Z</time></trkpt><trkpt lat="44.4464713" lon="11.4405186"><ele>64.14285714285714</ele><time>2026-03-30T09:36:11.872Z</time></trkpt><trkpt lat="44.4464621" lon="11.4406182"><ele>64.28571428571428</ele><time>2026-03-30T09:36:12.872Z</time></trkpt><trkpt lat="44.4464544" lon="11.4407188"><ele>64.42857142857143</ele><time>2026-03-30T09:36:13.874Z</time></trkpt><trkpt lat="44.446447" lon="11.440819"><ele>64.57142857142857</ele><time>2026-03-30T09:36:14.864Z</time></trkpt><trkpt lat="44.4464374" lon="11.4409197"><ele>64.71428571428572</ele><time>2026-03-30T09:36:15.872Z</time></trkpt><trkpt lat="44.4464296" lon="11.4410205"><ele>64.85714285714286</ele><time>2026-03-30T09:36:16.868Z</time></trkpt><trkpt lat="44.4464208" lon="11.441121"><ele>65.0</ele><time>2026-03-30T09:36:17.87Z</time></trkpt><trkpt lat="44.4464121" lon="11.4412208"><ele>65.14285714285715</ele><time>2026-03-30T09:36:18.86Z</time></trkpt><trkpt lat="44.446403" lon="11.4413212"><ele>65.28571428571429</ele><time>2026-03-30T09:36:19.867Z</time></trkpt><trkpt lat="44.4463945" lon="11.4414193"><ele>65.42857142857143</ele><time>2026-03-30T09:36:20.868Z</time></trkpt><trkpt lat="44.4463857" lon="11.4415181"><ele>65.57142857142858</ele><time>2026-03-30T09:36:21.871Z</time></trkpt><trkpt lat="44.4463793" lon="11.4416148"><ele>65.71428571428572</ele><time>2026-03-30T09:36:22.867Z</time></trkpt><trkpt lat="44.44637" lon="11.4417126"><ele>65.85714285714286</ele><time>2026-03-30T09:36:23.869Z</time></trkpt><trkpt lat="44.4463621" lon="11.4418137"><ele>66.0</ele><time>2026-03-30T09:36:24.871Z</time></trkpt><trkpt lat="44.4463551" lon="11.4419151"><ele>66.0</ele><time>2026-03-30T09:36:25.864Z</time></trkpt><trkpt lat="44.4463472" lon="11.4420154"><ele>66.0</ele><time>2026-03-30T09:36:26.861Z</time></trkpt><trkpt lat="44.4463381" lon="11.4421164"><ele>66.0</ele><time>2026-03-30T09:36:27.856Z</time></trkpt><trkpt lat="44.4463301" lon="11.4422178"><ele>66.0</ele><time>2026-03-30T09:36:28.858Z</time></trkpt><trkpt lat="44.4463197" lon="11.4423163"><ele>66.0</ele><time>2026-03-30T09:36:29.871Z</time></trkpt><trkpt lat="44.4463121" lon="11.4424155"><ele>66.0</ele><time>2026-03-30T09:36:30.871Z</time></trkpt><trkpt lat="44.4463033" lon="11.4425136"><ele>66.0</ele><time>2026-03-30T09:36:31.869Z</time></trkpt><trkpt lat="44.4462943" lon="11.4426117"><ele>66.0</ele><time>2026-03-30T09:36:32.865Z</time></trkpt><trkpt lat="44.4462846" lon="11.4427095"><ele>66.0</ele><time>2026-03-30T09:36:33.868Z</time></trkpt><trkpt lat="44.4462751" lon="11.4428067"><ele>66.0</ele><time>2026-03-30T09:36:34.86Z</time></trkpt><trkpt lat="44.4462643" lon="11.4429048"><ele>66.0</ele><time>2026-03-30T09:36:35.864Z</time></trkpt><trkpt lat="44.4462539" lon="11.4430018"><ele>66.0</ele><time>2026-03-30T09:36:36.87Z</time></trkpt><trkpt lat="44.4462437" lon="11.4430999"><ele>66.0</ele><time>2026-03-30T09:36:37.861Z</time></trkpt><trkpt lat="44.4462316" lon="11.4431983"><ele>66.0</ele><time>2026-03-30T09:36:38.865Z</time></trkpt><trkpt lat="44.4462156" lon="11.4432949"><ele>66.28571428571428</ele><time>2026-03-30T09:36:39.87Z</time></trkpt><trkpt lat="44.4461996" lon="11.4433952"><ele>66.57142857142857</ele><time>2026-03-30T09:36:40.861Z</time></trkpt><trkpt lat="44.446183" lon="11.4434962"><ele>66.85714285714286</ele><time>2026-03-30T09:36:41.863Z</time></trkpt><trkpt lat="44.4461638" lon="11.4435947"><ele>67.14285714285714</ele><time>2026-03-30T09:36:42.864Z</time></trkpt><trkpt lat="44.4461416" lon="11.4436926"><ele>67.42857142857143</ele><time>2026-03-30T09:36:43.871Z</time></trkpt><trkpt lat="44.4461182" lon="11.4437896"><ele>67.71428571428571</ele><time>2026-03-30T09:36:44.861Z</time></trkpt><trkpt lat="44.4460933" lon="11.4438861"><ele>68.0</ele><time>2026-03-30T09:36:45.864Z</time></trkpt><trkpt lat="44.4460655" lon="11.4439822"><ele>68.0</ele><time>2026-03-30T09:36:46.864Z</time></trkpt><trkpt lat="44.4460358" lon="11.4440765"><ele>68.0</ele><time>2026-03-30T09:36:47.859Z</time></trkpt><trkpt lat="44.4460052" lon="11.4441721"><ele>68.0</ele><time>2026-03-30T09:36:48.861Z</time></trkpt><trkpt lat="44.4459715" lon="11.4442667"><ele>68.0</ele><time>2026-03-30T09:36:49.872Z</time></trkpt><trkpt lat="44.4459358" lon="11.4443589"><ele>68.0</ele><time>2026-03-30T09:36:50.862Z</time></trkpt><trkpt lat="44.4458974" lon="11.4444511"><ele>68.0</ele><time>2026-03-30T09:36:51.865Z</time></trkpt><trkpt lat="44.4458578" lon="11.4445413"><ele>67.99999999999999</ele><time>2026-03-30T09:36:52.863Z</time></trkpt><trkpt lat="44.4458163" lon="11.4446293"><ele>68.0</ele><time>2026-03-30T09:36:53.863Z</time></trkpt><trkpt lat="44.4457733" lon="11.4447158"><ele>68.0</ele><time>2026-03-30T09:36:54.871Z</time></trkpt><trkpt lat="44.4457293" lon="11.4447994"><ele>68.0</ele><time>2026-03-30T09:36:55.86Z</time></trkpt><trkpt lat="44.4456852" lon="11.4448825"><ele>68.0</ele><time>2026-03-30T09:36:56.855Z</time></trkpt><trkpt lat="44.4456396" lon="11.4449612"><ele>67.99999999999999</ele><time>2026-03-30T09:36:57.87Z</time></trkpt><trkpt lat="44.4455941" lon="11.4450357"><ele>68.0</ele><time>2026-03-30T09:36:58.866Z</time></trkpt><trkpt lat="44.4455482" lon="11.4451097"><ele>68.28571428571428</ele><time>2026-03-30T09:36:59.869Z</time></trkpt><trkpt lat="44.4455022" lon="11.4451817"><ele>68.57142857142857</ele><time>2026-03-30T09:37:00.861Z</time></trkpt><trkpt lat="44.4454559" lon="11.4452518"><ele>68.85714285714286</ele><time>2026-03-30T09:37:01.869Z</time></trkpt><trkpt lat="44.4454114" lon="11.4453209"><ele>69.14285714285714</ele><time>2026-03-30T09:37:02.868Z</time></trkpt><trkpt lat="44.445367" lon="11.4453888"><ele>69.42857142857143</ele><time>2026-03-30T09:37:03.862Z</time></trkpt><trkpt lat="44.4453233" lon="11.4454563"><ele>69.71428571428571</ele><time>2026-03-30T09:37:04.856Z</time></trkpt><trkpt lat="44.4452784" lon="11.4455212"><ele>70.0</ele><time>2026-03-30T09:37:05.873Z</time></trkpt><trkpt lat="44.4452347" lon="11.4455877"><ele>70.75</ele><time>2026-03-30T09:37:06.869Z</time></trkpt><trkpt lat="44.4451505" lon="11.4457136"><ele>71.5</ele><time>2026-03-30T09:37:08.861Z</time></trkpt><trkpt lat="44.4450683" lon="11.4458356"><ele>72.25</ele><time>2026-03-30T09:37:10.867Z</time></trkpt><trkpt lat="44.4449879" lon="11.4459534"><ele>73.0</ele><time>2026-03-30T09:37:12.87Z</time></trkpt><trkpt lat="44.4449077" lon="11.446071"><ele>73.0</ele><time>2026-03-30T09:37:14.869Z</time></trkpt><trkpt lat="44.444831" lon="11.4461859"><ele>73.0</ele><time>2026-03-30T09:37:16.865Z</time></trkpt><trkpt lat="44.4447569" lon="11.4462964"><ele>73.0</ele><time>2026-03-30T09:37:18.871Z</time></trkpt><trkpt lat="44.4446824" lon="11.4464006"><ele>73.0</ele><time>2026-03-30T09:37:20.873Z</time></trkpt><trkpt lat="44.4445864" lon="11.4464609"><ele>73.0</ele><time>2026-03-30T09:37:22.864Z</time></trkpt><trkpt lat="44.4444723" lon="11.4464425"><ele>73.25</ele><time>2026-03-30T09:37:24.871Z</time></trkpt><trkpt lat="44.4443573" lon="11.4464326"><ele>73.5</ele><time>2026-03-30T09:37:26.861Z</time></trkpt><trkpt lat="44.444244" lon="11.4464776"><ele>73.75</ele><time>2026-03-30T09:37:28.869Z</time></trkpt><trkpt lat="44.4441458" lon="11.4465653"><ele>74.0</ele><time>2026-03-30T09:37:30.875Z</time></trkpt><trkpt lat="44.444066" lon="11.4466836"><ele>74.0</ele><time>2026-03-30T09:37:32.862Z</time></trkpt><trkpt lat="44.4439891" lon="11.4468194"><ele>74.0</ele><time>2026-03-30T09:37:34.876Z</time></trkpt><trkpt lat="44.4439361" lon="11.4468734"><ele>74.0</ele><time>2026-03-30T09:37:35.863Z</time></trkpt><trkpt lat="44.4438833" lon="11.4469222"><ele>74.0</ele><time>2026-03-30T09:37:36.863Z</time></trkpt><trkpt lat="44.4438171" lon="11.4469391"><ele>74.0</ele><time>2026-03-30T09:37:37.879Z</time></trkpt><trkpt lat="44.4437503" lon="11.4469515"><ele>74.0</ele><time>2026-03-30T09:37:38.864Z</time></trkpt><trkpt lat="44.4436832" lon="11.4469614"><ele>74.125</ele><time>2026-03-30T09:37:39.854Z</time></trkpt><trkpt lat="44.4436199" lon="11.4469662"><ele>74.25</ele><time>2026-03-30T09:37:40.864Z</time></trkpt><trkpt lat="44.4435565" lon="11.4469753"><ele>74.375</ele><time>2026-03-30T09:37:41.867Z</time></trkpt><trkpt lat="44.4434925" lon="11.446987"><ele>74.5</ele><time>2026-03-30T09:37:42.874Z</time></trkpt><trkpt lat="44.443429" lon="11.4469966"><ele>74.625</ele><time>2026-03-30T09:37:43.881Z</time></trkpt><trkpt lat="44.4433649" lon="11.4470081"><ele>74.75</ele><time>2026-03-30T09:37:44.864Z</time></trkpt><trkpt lat="44.4433009" lon="11.447021"><ele>74.875</ele><time>2026-03-30T09:37:45.861Z</time></trkpt><trkpt lat="44.4432385" lon="11.4470339"><ele>75.0</ele><time>2026-03-30T09:37:46.876Z</time></trkpt><trkpt lat="44.4431753" lon="11.4470479"><ele>74.99999999999999</ele><time>2026-03-30T09:37:47.867Z</time></trkpt><trkpt lat="44.4431126" lon="11.4470617"><ele>75.0</ele><time>2026-03-30T09:37:48.859Z</time></trkpt><trkpt lat="44.4430498" lon="11.4470747"><ele>75.0</ele><time>2026-03-30T09:37:49.878Z</time></trkpt><trkpt lat="44.4429856" lon="11.4470869"><ele>75.0</ele><time>2026-03-30T09:37:50.864Z</time></trkpt><trkpt lat="44.4429203" lon="11.4470974"><ele>75.0</ele><time>2026-03-30T09:37:51.868Z</time></trkpt><trkpt lat="44.4428557" lon="11.4471058"><ele>74.99999999999999</ele><time>2026-03-30T09:37:52.874Z</time></trkpt><trkpt lat="44.4427897" lon="11.4471147"><ele>75.0</ele><time>2026-03-30T09:37:53.877Z</time></trkpt><trkpt lat="44.4427251" lon="11.447118"><ele>75.28571428571428</ele><time>2026-03-30T09:37:54.869Z</time></trkpt><trkpt lat="44.4426595" lon="11.4471188"><ele>75.57142857142857</ele><time>2026-03-30T09:37:55.859Z</time></trkpt><trkpt lat="44.4425936" lon="11.4471176"><ele>75.85714285714286</ele><time>2026-03-30T09:37:56.881Z</time></trkpt><trkpt lat="44.4425281" lon="11.4471132"><ele>76.14285714285714</ele><time>2026-03-30T09:37:57.873Z</time></trkpt><trkpt lat="44.4424627" lon="11.4471071"><ele>76.42857142857143</ele><time>2026-03-30T09:37:58.858Z</time></trkpt><trkpt lat="44.4423987" lon="11.4470961"><ele>76.71428571428571</ele><time>2026-03-30T09:37:59.855Z</time></trkpt><trkpt lat="44.4423353" lon="11.4470843"><ele>77.0</ele><time>2026-03-30T09:38:00.86Z</time></trkpt><trkpt lat="44.4422126" lon="11.4470506"><ele>77.83333333333334</ele><time>2026-03-30T09:38:02.869Z</time></trkpt><trkpt lat="44.4420908" lon="11.4470102"><ele>78.66666666666667</ele><time>2026-03-30T09:38:04.869Z</time></trkpt><trkpt lat="44.4419697" lon="11.4469681"><ele>79.5</ele><time>2026-03-30T09:38:06.862Z</time></trkpt><trkpt lat="44.4419079" lon="11.4469475"><ele>80.33333333333333</ele><time>2026-03-30T09:38:07.862Z</time></trkpt><trkpt lat="44.4418455" lon="11.4469229"><ele>81.16666666666666</ele><time>2026-03-30T09:38:08.863Z</time></trkpt><trkpt lat="44.4417824" lon="11.4468986"><ele>82.0</ele><time>2026-03-30T09:38:09.868Z</time></trkpt><trkpt lat="44.4416621" lon="11.4468507"><ele>82.0</ele><time>2026-03-30T09:38:11.872Z</time></trkpt><trkpt lat="44.441601" lon="11.4468277"><ele>82.0</ele><time>2026-03-30T09:38:12.866Z</time></trkpt><trkpt lat="44.4414798" lon="11.44678"><ele>82.0</ele><time>2026-03-30T09:38:14.866Z</time></trkpt><trkpt lat="44.4413612" lon="11.4467319"><ele>82.0</ele><time>2026-03-30T09:38:16.878Z</time></trkpt><trkpt lat="44.4412407" lon="11.4466849"><ele>82.0</ele><time>2026-03-30T09:38:18.874Z</time></trkpt><trkpt lat="44.441122" lon="11.4466411"><ele>81.25</ele><time>2026-03-30T09:38:20.864Z</time></trkpt><trkpt lat="44.4410027" lon="11.4465956"><ele>80.5</ele><time>2026-03-30T09:38:22.863Z</time></trkpt><trkpt lat="44.4408836" lon="11.4465461"><ele>79.75</ele><time>2026-03-30T09:38:24.867Z</time></trkpt><trkpt lat="44.4407644" lon="11.4464999"><ele>79.0</ele><time>2026-03-30T09:38:26.864Z</time></trkpt><trkpt lat="44.4406454" lon="11.4464559"><ele>79.0</ele><time>2026-03-30T09:38:28.87Z</time></trkpt><trkpt lat="44.4405248" lon="11.4464115"><ele>79.0</ele><time>2026-03-30T09:38:30.865Z</time></trkpt><trkpt lat="44.4404057" lon="11.4463662"><ele>79.0</ele><time>2026-03-30T09:38:32.873Z</time></trkpt><trkpt lat="44.4402864" lon="11.4463168"><ele>79.0</ele><time>2026-03-30T09:38:34.865Z</time></trkpt><trkpt lat="44.4402254" lon="11.4462937"><ele>79.0</ele><time>2026-03-30T09:38:35.869Z</time></trkpt><trkpt lat="44.4401642" lon="11.446272"><ele>78.60000000000001</ele><time>2026-03-30T09:38:36.878Z</time></trkpt><trkpt lat="44.4401031" lon="11.4462467"><ele>78.2</ele><time>2026-03-30T09:38:37.869Z</time></trkpt><trkpt lat="44.4399844" lon="11.4461952"><ele>77.80000000000001</ele><time>2026-03-30T09:38:39.869Z</time></trkpt><trkpt lat="44.4398645" lon="11.4461478"><ele>77.4</ele><time>2026-03-30T09:38:41.872Z</time></trkpt><trkpt lat="44.4397455" lon="11.4460974"><ele>77.0</ele><time>2026-03-30T09:38:43.876Z</time></trkpt><trkpt lat="44.4396269" lon="11.4460451"><ele>77.0</ele><time>2026-03-30T09:38:45.871Z</time></trkpt><trkpt lat="44.4395656" lon="11.4460199"><ele>77.0</ele><time>2026-03-30T09:38:46.876Z</time></trkpt><trkpt lat="44.439504" lon="11.4459947"><ele>77.0</ele><time>2026-03-30T09:38:47.865Z</time></trkpt><trkpt lat="44.4394435" lon="11.4459683"><ele>77.0</ele><time>2026-03-30T09:38:48.869Z</time></trkpt><trkpt lat="44.4393826" lon="11.4459424"><ele>77.0</ele><time>2026-03-30T09:38:49.874Z</time></trkpt><trkpt lat="44.4393218" lon="11.4459157"><ele>77.0</ele><time>2026-03-30T09:38:50.867Z</time></trkpt><trkpt lat="44.4392597" lon="11.44589"><ele>77.0</ele><time>2026-03-30T09:38:51.852Z</time></trkpt><trkpt lat="44.4391977" lon="11.4458632"><ele>77.0</ele><time>2026-03-30T09:38:52.864Z</time></trkpt><trkpt lat="44.4391353" lon="11.4458364"><ele>77.0</ele><time>2026-03-30T09:38:53.87Z</time></trkpt><trkpt lat="44.4390711" lon="11.4458089"><ele>77.0</ele><time>2026-03-30T09:38:54.868Z</time></trkpt><trkpt lat="44.4390074" lon="11.4457808"><ele>77.0</ele><time>2026-03-30T09:38:55.867Z</time></trkpt><trkpt lat="44.4389433" lon="11.4457539"><ele>77.0</ele><time>2026-03-30T09:38:56.856Z</time></trkpt><trkpt lat="44.4388785" lon="11.4457263"><ele>77.0</ele><time>2026-03-30T09:38:57.862Z</time></trkpt><trkpt lat="44.4388132" lon="11.4456997"><ele>77.0</ele><time>2026-03-30T09:38:58.876Z</time></trkpt><trkpt lat="44.438748" lon="11.4456715"><ele>77.0</ele><time>2026-03-30T09:38:59.864Z</time></trkpt><trkpt lat="44.4386819" lon="11.4456436"><ele>77.14285714285714</ele><time>2026-03-30T09:39:00.87Z</time></trkpt><trkpt lat="44.4386162" lon="11.4456152"><ele>77.28571428571428</ele><time>2026-03-30T09:39:01.866Z</time></trkpt><trkpt lat="44.43855" lon="11.4455879"><ele>77.42857142857143</ele><time>2026-03-30T09:39:02.861Z</time></trkpt><trkpt lat="44.438483" lon="11.445561"><ele>77.57142857142857</ele><time>2026-03-30T09:39:03.861Z</time></trkpt><trkpt lat="44.4384159" lon="11.4455331"><ele>77.71428571428571</ele><time>2026-03-30T09:39:04.865Z</time></trkpt><trkpt lat="44.4383493" lon="11.445504"><ele>77.85714285714286</ele><time>2026-03-30T09:39:05.864Z</time></trkpt><trkpt lat="44.4382815" lon="11.4454756"><ele>78.0</ele><time>2026-03-30T09:39:06.867Z</time></trkpt><trkpt lat="44.4382139" lon="11.4454473"><ele>77.71428571428572</ele><time>2026-03-30T09:39:07.87Z</time></trkpt><trkpt lat="44.4381464" lon="11.4454184"><ele>77.42857142857142</ele><time>2026-03-30T09:39:08.863Z</time></trkpt><trkpt lat="44.438078" lon="11.445389"><ele>77.14285714285714</ele><time>2026-03-30T09:39:09.87Z</time></trkpt><trkpt lat="44.4380095" lon="11.4453598"><ele>76.85714285714286</ele><time>2026-03-30T09:39:10.866Z</time></trkpt><trkpt lat="44.4379405" lon="11.4453302"><ele>76.57142857142858</ele><time>2026-03-30T09:39:11.864Z</time></trkpt><trkpt lat="44.4378686" lon="11.4452983"><ele>76.28571428571428</ele><time>2026-03-30T09:39:12.875Z</time></trkpt><trkpt lat="44.4377978" lon="11.4452664"><ele>76.0</ele><time>2026-03-30T09:39:13.867Z</time></trkpt><trkpt lat="44.4377253" lon="11.4452363"><ele>76.0</ele><time>2026-03-30T09:39:14.865Z</time></trkpt><trkpt lat="44.4376536" lon="11.4452063"><ele>76.0</ele><time>2026-03-30T09:39:15.872Z</time></trkpt><trkpt lat="44.4375811" lon="11.4451784"><ele>76.0</ele><time>2026-03-30T09:39:16.865Z</time></trkpt><trkpt lat="44.4375112" lon="11.4451529"><ele>76.0</ele><time>2026-03-30T09:39:17.871Z</time></trkpt><trkpt lat="44.4374396" lon="11.4451252"><ele>76.0</ele><time>2026-03-30T09:39:18.868Z</time></trkpt><trkpt lat="44.4373647" lon="11.4450961"><ele>76.0</ele><time>2026-03-30T09:39:19.862Z</time></trkpt><trkpt lat="44.4372931" lon="11.4450651"><ele>76.0</ele><time>2026-03-30T09:39:20.861Z</time></trkpt><trkpt lat="44.4372249" lon="11.4450398"><ele>76.0</ele><time>2026-03-30T09:39:21.859Z</time></trkpt><trkpt lat="44.4371548" lon="11.4450114"><ele>76.0</ele><time>2026-03-30T09:39:22.866Z</time></trkpt><trkpt lat="44.4370818" lon="11.4449774"><ele>76.0</ele><time>2026-03-30T09:39:23.86Z</time></trkpt><trkpt lat="44.4370122" lon="11.4449469"><ele>76.0</ele><time>2026-03-30T09:39:24.872Z</time></trkpt><trkpt lat="44.4369404" lon="11.4449151"><ele>76.0</ele><time>2026-03-30T09:39:25.864Z</time></trkpt><trkpt lat="44.4368709" lon="11.444882"><ele>76.0</ele><time>2026-03-30T09:39:26.862Z</time></trkpt><trkpt lat="44.4368015" lon="11.4448515"><ele>76.0</ele><time>2026-03-30T09:39:27.875Z</time></trkpt><trkpt lat="44.4367341" lon="11.4448215"><ele>76.71428571428571</ele><time>2026-03-30T09:39:28.863Z</time></trkpt><trkpt lat="44.4366666" lon="11.4447913"><ele>77.42857142857143</ele><time>2026-03-30T09:39:29.859Z</time></trkpt><trkpt lat="44.436599" lon="11.4447613"><ele>78.14285714285714</ele><time>2026-03-30T09:39:30.869Z</time></trkpt><trkpt lat="44.4365337" lon="11.4447323"><ele>78.85714285714286</ele><time>2026-03-30T09:39:31.87Z</time></trkpt><trkpt lat="44.4364681" lon="11.4447029"><ele>79.57142857142857</ele><time>2026-03-30T09:39:32.859Z</time></trkpt><trkpt lat="44.4364042" lon="11.4446735"><ele>80.28571428571429</ele><time>2026-03-30T09:39:33.872Z</time></trkpt><trkpt lat="44.4363393" lon="11.444648"><ele>81.0</ele><time>2026-03-30T09:39:34.864Z</time></trkpt><trkpt lat="44.4362752" lon="11.4446202"><ele>81.14285714285714</ele><time>2026-03-30T09:39:35.865Z</time></trkpt><trkpt lat="44.4362113" lon="11.444592"><ele>81.28571428571428</ele><time>2026-03-30T09:39:36.869Z</time></trkpt><trkpt lat="44.4361471" lon="11.4445667"><ele>81.42857142857142</ele><time>2026-03-30T09:39:37.866Z</time></trkpt><trkpt lat="44.4360836" lon="11.4445415"><ele>81.57142857142857</ele><time>2026-03-30T09:39:38.865Z</time></trkpt><trkpt lat="44.4360207" lon="11.444513"><ele>81.71428571428571</ele><time>2026-03-30T09:39:39.873Z</time></trkpt><trkpt lat="44.4359567" lon="11.4444839"><ele>81.85714285714285</ele><time>2026-03-30T09:39:40.878Z</time></trkpt><trkpt lat="44.4358942" lon="11.444457"><ele>82.0</ele><time>2026-03-30T09:39:41.862Z</time></trkpt><trkpt lat="44.435832" lon="11.4444312"><ele>81.99999999999999</ele><time>2026-03-30T09:39:42.863Z</time></trkpt><trkpt lat="44.4357689" lon="11.4444035"><ele>82.0</ele><time>2026-03-30T09:39:43.872Z</time></trkpt><trkpt lat="44.4357053" lon="11.444378"><ele>82.0</ele><time>2026-03-30T09:39:44.861Z</time></trkpt><trkpt lat="44.4356405" lon="11.4443537"><ele>82.0</ele><time>2026-03-30T09:39:45.872Z</time></trkpt><trkpt lat="44.4355777" lon="11.4443292"><ele>82.0</ele><time>2026-03-30T09:39:46.859Z</time></trkpt><trkpt lat="44.4355131" lon="11.4443067"><ele>81.99999999999999</ele><time>2026-03-30T09:39:47.874Z</time></trkpt><trkpt lat="44.4354463" lon="11.444289"><ele>82.0</ele><time>2026-03-30T09:39:48.875Z</time></trkpt><trkpt lat="44.4353785" lon="11.4442757"><ele>82.71428571428571</ele><time>2026-03-30T09:39:49.856Z</time></trkpt><trkpt lat="44.4353108" lon="11.4442653"><ele>83.42857142857143</ele><time>2026-03-30T09:39:50.867Z</time></trkpt><trkpt lat="44.4352434" lon="11.4442568"><ele>84.14285714285714</ele><time>2026-03-30T09:39:51.869Z</time></trkpt><trkpt lat="44.4351762" lon="11.4442506"><ele>84.85714285714286</ele><time>2026-03-30T09:39:52.871Z</time></trkpt><trkpt lat="44.4351087" lon="11.4442465"><ele>85.57142857142857</ele><time>2026-03-30T09:39:53.871Z</time></trkpt><trkpt lat="44.4350404" lon="11.4442443"><ele>86.28571428571428</ele><time>2026-03-30T09:39:54.867Z</time></trkpt><trkpt lat="44.4349733" lon="11.4442406"><ele>87.0</ele><time>2026-03-30T09:39:55.863Z</time></trkpt><trkpt lat="44.4349062" lon="11.4442379"><ele>87.0</ele><time>2026-03-30T09:39:56.869Z</time></trkpt><trkpt lat="44.4348356" lon="11.4442371"><ele>87.0</ele><time>2026-03-30T09:39:57.868Z</time></trkpt><trkpt lat="44.4347646" lon="11.4442327"><ele>87.0</ele><time>2026-03-30T09:39:58.873Z</time></trkpt><trkpt lat="44.4346946" lon="11.4442286"><ele>87.0</ele><time>2026-03-30T09:39:59.873Z</time></trkpt><trkpt lat="44.4346261" lon="11.44422"><ele>87.0</ele><time>2026-03-30T09:40:00.858Z</time></trkpt><trkpt lat="44.4345584" lon="11.4442123"><ele>87.0</ele><time>2026-03-30T09:40:01.866Z</time></trkpt><trkpt lat="44.4344905" lon="11.4442029"><ele>87.0</ele><time>2026-03-30T09:40:02.869Z</time></trkpt><trkpt lat="44.434425" lon="11.4441924"><ele>86.85714285714286</ele><time>2026-03-30T09:40:03.861Z</time></trkpt><trkpt lat="44.4343617" lon="11.4441798"><ele>86.71428571428572</ele><time>2026-03-30T09:40:04.864Z</time></trkpt><trkpt lat="44.4342982" lon="11.4441681"><ele>86.57142857142858</ele><time>2026-03-30T09:40:05.856Z</time></trkpt><trkpt lat="44.4342348" lon="11.444151"><ele>86.42857142857143</ele><time>2026-03-30T09:40:06.868Z</time></trkpt><trkpt lat="44.4341713" lon="11.4441354"><ele>86.28571428571429</ele><time>2026-03-30T09:40:07.875Z</time></trkpt><trkpt lat="44.4341092" lon="11.4441178"><ele>86.14285714285715</ele><time>2026-03-30T09:40:08.86Z</time></trkpt><trkpt lat="44.4340476" lon="11.4440985"><ele>86.0</ele><time>2026-03-30T09:40:09.864Z</time></trkpt><trkpt lat="44.433928" lon="11.4440495"><ele>86.0</ele><time>2026-03-30T09:40:11.86Z</time></trkpt><trkpt lat="44.433812" lon="11.4439956"><ele>86.0</ele><time>2026-03-30T09:40:13.869Z</time></trkpt><trkpt lat="44.4336977" lon="11.4439329"><ele>86.0</ele><time>2026-03-30T09:40:15.863Z</time></trkpt><trkpt lat="44.4335885" lon="11.4438602"><ele>86.0</ele><time>2026-03-30T09:40:17.863Z</time></trkpt><trkpt lat="44.4334807" lon="11.4437804"><ele>86.75</ele><time>2026-03-30T09:40:19.877Z</time></trkpt><trkpt lat="44.4333767" lon="11.4436917"><ele>87.5</ele><time>2026-03-30T09:40:21.868Z</time></trkpt><trkpt lat="44.4332756" lon="11.4435983"><ele>88.25</ele><time>2026-03-30T09:40:23.868Z</time></trkpt><trkpt lat="44.4331805" lon="11.44349"><ele>89.0</ele><time>2026-03-30T09:40:25.877Z</time></trkpt><trkpt lat="44.4330923" lon="11.4433756"><ele>89.0</ele><time>2026-03-30T09:40:27.87Z</time></trkpt><trkpt lat="44.4330044" lon="11.443267"><ele>89.0</ele><time>2026-03-30T09:40:29.875Z</time></trkpt><trkpt lat="44.432914" lon="11.4431594"><ele>89.0</ele><time>2026-03-30T09:40:31.862Z</time></trkpt><trkpt lat="44.4328241" lon="11.4430502"><ele>89.0</ele><time>2026-03-30T09:40:33.887Z</time></trkpt><trkpt lat="44.4327341" lon="11.4429378"><ele>88.5</ele><time>2026-03-30T09:40:35.866Z</time></trkpt><trkpt lat="44.4326485" lon="11.4428216"><ele>88.0</ele><time>2026-03-30T09:40:37.874Z</time></trkpt><trkpt lat="44.4325574" lon="11.442713"><ele>87.5</ele><time>2026-03-30T09:40:39.859Z</time></trkpt><trkpt lat="44.4324676" lon="11.4426064"><ele>87.0</ele><time>2026-03-30T09:40:41.856Z</time></trkpt><trkpt lat="44.4323745" lon="11.4425018"><ele>87.0</ele><time>2026-03-30T09:40:43.845Z</time></trkpt><trkpt lat="44.4322839" lon="11.4423877"><ele>87.0</ele><time>2026-03-30T09:40:45.869Z</time></trkpt><trkpt lat="44.4321936" lon="11.4422754"><ele>87.0</ele><time>2026-03-30T09:40:47.858Z</time></trkpt><trkpt lat="44.4321021" lon="11.4421663"><ele>87.0</ele><time>2026-03-30T09:40:49.86Z</time></trkpt><trkpt lat="44.4320092" lon="11.4420559"><ele>87.5</ele><time>2026-03-30T09:40:51.87Z</time></trkpt><trkpt lat="44.4319165" lon="11.4419447"><ele>88.0</ele><time>2026-03-30T09:40:53.87Z</time></trkpt><trkpt lat="44.4318261" lon="11.4418345"><ele>88.5</ele><time>2026-03-30T09:40:55.876Z</time></trkpt><trkpt lat="44.4317367" lon="11.4417254"><ele>89.0</ele><time>2026-03-30T09:40:57.87Z</time></trkpt><trkpt lat="44.4316467" lon="11.4416138"><ele>89.0</ele><time>2026-03-30T09:40:59.86Z</time></trkpt><trkpt lat="44.4315571" lon="11.4414976"><ele>89.0</ele><time>2026-03-30T09:41:01.859Z</time></trkpt><trkpt lat="44.4314729" lon="11.4413772"><ele>89.0</ele><time>2026-03-30T09:41:03.86Z</time></trkpt><trkpt lat="44.431394" lon="11.441255"><ele>89.0</ele><time>2026-03-30T09:41:05.861Z</time></trkpt><trkpt lat="44.4313219" lon="11.4411247"><ele>89.25</ele><time>2026-03-30T09:41:07.877Z</time></trkpt><trkpt lat="44.4312506" lon="11.440992"><ele>89.5</ele><time>2026-03-30T09:41:09.864Z</time></trkpt><trkpt lat="44.4311789" lon="11.4408564"><ele>89.75</ele><time>2026-03-30T09:41:11.865Z</time></trkpt><trkpt lat="44.4311091" lon="11.4407208"><ele>90.0</ele><time>2026-03-30T09:41:13.866Z</time></trkpt><trkpt lat="44.4310389" lon="11.4405854"><ele>90.25</ele><time>2026-03-30T09:41:15.86Z</time></trkpt><trkpt lat="44.4309699" lon="11.4404557"><ele>90.5</ele><time>2026-03-30T09:41:17.855Z</time></trkpt><trkpt lat="44.4308986" lon="11.4403279"><ele>90.75</ele><time>2026-03-30T09:41:19.865Z</time></trkpt><trkpt lat="44.4308272" lon="11.4402057"><ele>91.0</ele><time>2026-03-30T09:41:21.867Z</time></trkpt><trkpt lat="44.430751" lon="11.4400871"><ele>91.0</ele><time>2026-03-30T09:41:23.861Z</time></trkpt><trkpt lat="44.4306705" lon="11.4399733"><ele>91.0</ele><time>2026-03-30T09:41:25.869Z</time></trkpt><trkpt lat="44.4305854" lon="11.4398656"><ele>91.0</ele><time>2026-03-30T09:41:27.881Z</time></trkpt><trkpt lat="44.4305009" lon="11.4397601"><ele>91.0</ele><time>2026-03-30T09:41:29.87Z</time></trkpt><trkpt lat="44.430411" lon="11.4396578"><ele>91.5</ele><time>2026-03-30T09:41:31.862Z</time></trkpt><trkpt lat="44.4303217" lon="11.4395572"><ele>92.0</ele><time>2026-03-30T09:41:33.869Z</time></trkpt><trkpt lat="44.4302314" lon="11.4394567"><ele>92.5</ele><time>2026-03-30T09:41:35.857Z</time></trkpt><trkpt lat="44.4301417" lon="11.4393562"><ele>93.0</ele><time>2026-03-30T09:41:37.87Z</time></trkpt><trkpt lat="44.4300496" lon="11.4392562"><ele>93.0</ele><time>2026-03-30T09:41:39.866Z</time></trkpt><trkpt lat="44.4299571" lon="11.4391496"><ele>93.0</ele><time>2026-03-30T09:41:41.869Z</time></trkpt><trkpt lat="44.429862" lon="11.4390426"><ele>93.0</ele><time>2026-03-30T09:41:43.873Z</time></trkpt><trkpt lat="44.4297675" lon="11.4389383"><ele>93.0</ele><time>2026-03-30T09:41:45.86Z</time></trkpt><trkpt lat="44.4296756" lon="11.4388345"><ele>93.25</ele><time>2026-03-30T09:41:47.864Z</time></trkpt><trkpt lat="44.4295845" lon="11.4387319"><ele>93.5</ele><time>2026-03-30T09:41:49.871Z</time></trkpt><trkpt lat="44.4294949" lon="11.4386286"><ele>93.75</ele><time>2026-03-30T09:41:51.861Z</time></trkpt><trkpt lat="44.4294054" lon="11.4385222"><ele>94.0</ele><time>2026-03-30T09:41:53.865Z</time></trkpt><trkpt lat="44.4293165" lon="11.4384173"><ele>94.0</ele><time>2026-03-30T09:41:55.86Z</time></trkpt><trkpt lat="44.4292271" lon="11.4383144"><ele>94.0</ele><time>2026-03-30T09:41:57.868Z</time></trkpt><trkpt lat="44.4291408" lon="11.4382088"><ele>94.0</ele><time>2026-03-30T09:41:59.864Z</time></trkpt><trkpt lat="44.4290541" lon="11.4381029"><ele>94.0</ele><time>2026-03-30T09:42:01.864Z</time></trkpt><trkpt lat="44.4289721" lon="11.4379962"><ele>93.80000000000001</ele><time>2026-03-30T09:42:03.866Z</time></trkpt><trkpt lat="44.4288921" lon="11.4378875"><ele>93.60000000000001</ele><time>2026-03-30T09:42:05.861Z</time></trkpt><trkpt lat="44.4288173" lon="11.4377773"><ele>93.4</ele><time>2026-03-30T09:42:07.866Z</time></trkpt><trkpt lat="44.4287482" lon="11.4376627"><ele>93.2</ele><time>2026-03-30T09:42:09.841Z</time></trkpt><trkpt lat="44.4286819" lon="11.4375412"><ele>93.0</ele><time>2026-03-30T09:42:11.867Z</time></trkpt><trkpt lat="44.4286243" lon="11.4374117"><ele>94.0</ele><time>2026-03-30T09:42:13.862Z</time></trkpt><trkpt lat="44.4285721" lon="11.4372811"><ele>95.0</ele><time>2026-03-30T09:42:15.876Z</time></trkpt><trkpt lat="44.4285263" lon="11.4371481"><ele>96.0</ele><time>2026-03-30T09:42:17.872Z</time></trkpt><trkpt lat="44.4284829" lon="11.4370102"><ele>97.0</ele><time>2026-03-30T09:42:19.858Z</time></trkpt><trkpt lat="44.4284445" lon="11.4368713"><ele>98.0</ele><time>2026-03-30T09:42:21.859Z</time></trkpt><trkpt lat="44.4284105" lon="11.4367338"><ele>98.0</ele><time>2026-03-30T09:42:23.86Z</time></trkpt><trkpt lat="44.4283779" lon="11.4365887"><ele>98.0</ele><time>2026-03-30T09:42:25.882Z</time></trkpt><trkpt lat="44.4283419" lon="11.4364414"><ele>98.0</ele><time>2026-03-30T09:42:27.878Z</time></trkpt><trkpt lat="44.4283065" lon="11.4362946"><ele>98.0</ele><time>2026-03-30T09:42:29.865Z</time></trkpt><trkpt lat="44.4282704" lon="11.4361466"><ele>98.0</ele><time>2026-03-30T09:42:31.863Z</time></trkpt><trkpt lat="44.4282342" lon="11.4359957"><ele>97.0</ele><time>2026-03-30T09:42:33.864Z</time></trkpt><trkpt lat="44.428197" lon="11.4358452"><ele>96.0</ele><time>2026-03-30T09:42:35.86Z</time></trkpt><trkpt lat="44.4281578" lon="11.4356945"><ele>95.0</ele><time>2026-03-30T09:42:37.87Z</time></trkpt><trkpt lat="44.4281197" lon="11.4355396"><ele>94.0</ele><time>2026-03-30T09:42:39.859Z</time></trkpt><trkpt lat="44.4280815" lon="11.4353824"><ele>94.0</ele><time>2026-03-30T09:42:41.87Z</time></trkpt><trkpt lat="44.4280394" lon="11.4352255"><ele>94.0</ele><time>2026-03-30T09:42:43.856Z</time></trkpt><trkpt lat="44.4280024" lon="11.435064"><ele>94.0</ele><time>2026-03-30T09:42:45.849Z</time></trkpt><trkpt lat="44.4279619" lon="11.4349019"><ele>94.0</ele><time>2026-03-30T09:42:47.86Z</time></trkpt><trkpt lat="44.4279223" lon="11.4347374"><ele>95.25</ele><time>2026-03-30T09:42:49.865Z</time></trkpt><trkpt lat="44.4278795" lon="11.4345779"><ele>96.5</ele><time>2026-03-30T09:42:51.865Z</time></trkpt><trkpt lat="44.4278303" lon="11.4344221"><ele>97.75</ele><time>2026-03-30T09:42:53.861Z</time></trkpt><trkpt lat="44.4277759" lon="11.43427"><ele>99.0</ele><time>2026-03-30T09:42:55.871Z</time></trkpt><trkpt lat="44.4277101" lon="11.4341259"><ele>99.0</ele><time>2026-03-30T09:42:57.865Z</time></trkpt><trkpt lat="44.4276383" lon="11.4339885"><ele>99.0</ele><time>2026-03-30T09:42:59.861Z</time></trkpt><trkpt lat="44.4275593" lon="11.4338614"><ele>99.0</ele><time>2026-03-30T09:43:01.86Z</time></trkpt><trkpt lat="44.4274743" lon="11.4337412"><ele>99.0</ele><time>2026-03-30T09:43:03.858Z</time></trkpt><trkpt lat="44.4273893" lon="11.433622"><ele>98.83333333333333</ele><time>2026-03-30T09:43:05.863Z</time></trkpt><trkpt lat="44.4273014" lon="11.4335074"><ele>98.66666666666666</ele><time>2026-03-30T09:43:07.87Z</time></trkpt><trkpt lat="44.4272083" lon="11.4333924"><ele>98.5</ele><time>2026-03-30T09:43:09.862Z</time></trkpt><trkpt lat="44.42716" lon="11.4333351"><ele>98.33333333333333</ele><time>2026-03-30T09:43:10.863Z</time></trkpt><trkpt lat="44.4271117" lon="11.4332775"><ele>98.16666666666666</ele><time>2026-03-30T09:43:11.857Z</time></trkpt><trkpt lat="44.4270627" lon="11.4332215"><ele>98.0</ele><time>2026-03-30T09:43:12.861Z</time></trkpt><trkpt lat="44.4269652" lon="11.4331107"><ele>98.0</ele><time>2026-03-30T09:43:14.859Z</time></trkpt><trkpt lat="44.4269153" lon="11.4330561"><ele>98.0</ele><time>2026-03-30T09:43:15.86Z</time></trkpt><trkpt lat="44.4268643" lon="11.432998"><ele>98.0</ele><time>2026-03-30T09:43:16.862Z</time></trkpt><trkpt lat="44.4268132" lon="11.4329421"><ele>98.0</ele><time>2026-03-30T09:43:17.866Z</time></trkpt><trkpt lat="44.4267585" lon="11.4328922"><ele>98.0</ele><time>2026-03-30T09:43:18.867Z</time></trkpt><trkpt lat="44.4267025" lon="11.432842"><ele>98.0</ele><time>2026-03-30T09:43:19.859Z</time></trkpt><trkpt lat="44.4266448" lon="11.4327921"><ele>98.0</ele><time>2026-03-30T09:43:20.866Z</time></trkpt><trkpt lat="44.4265882" lon="11.4327437"><ele>98.0</ele><time>2026-03-30T09:43:21.867Z</time></trkpt><trkpt lat="44.4265284" lon="11.4327005"><ele>98.0</ele><time>2026-03-30T09:43:22.869Z</time></trkpt><trkpt lat="44.4264651" lon="11.4326603"><ele>98.0</ele><time>2026-03-30T09:43:23.859Z</time></trkpt><trkpt lat="44.4263971" lon="11.4326228"><ele>98.0</ele><time>2026-03-30T09:43:24.86Z</time></trkpt><trkpt lat="44.4263268" lon="11.4325916"><ele>98.0</ele><time>2026-03-30T09:43:25.86Z</time></trkpt><trkpt lat="44.4262522" lon="11.432562"><ele>98.0</ele><time>2026-03-30T09:43:26.861Z</time></trkpt><trkpt lat="44.4261748" lon="11.4325344"><ele>98.0</ele><time>2026-03-30T09:43:27.848Z</time></trkpt><trkpt lat="44.4260973" lon="11.4325007"><ele>97.99999999999999</ele><time>2026-03-30T09:43:28.868Z</time></trkpt><trkpt lat="44.4260163" lon="11.4324669"><ele>98.0</ele><time>2026-03-30T09:43:29.859Z</time></trkpt><trkpt lat="44.4259364" lon="11.432435"><ele>98.0</ele><time>2026-03-30T09:43:30.871Z</time></trkpt><trkpt lat="44.4258534" lon="11.4324032"><ele>98.0</ele><time>2026-03-30T09:43:31.864Z</time></trkpt><trkpt lat="44.4257637" lon="11.4323681"><ele>97.99999999999999</ele><time>2026-03-30T09:43:32.859Z</time></trkpt><trkpt lat="44.4256728" lon="11.4323356"><ele>98.0</ele><time>2026-03-30T09:43:33.854Z</time></trkpt><trkpt lat="44.4255812" lon="11.4323021"><ele>98.0</ele><time>2026-03-30T09:43:34.88Z</time></trkpt><trkpt lat="44.425487" lon="11.4322507"><ele>98.0</ele><time>2026-03-30T09:43:35.864Z</time></trkpt><trkpt lat="44.4253929" lon="11.4321962"><ele>98.0</ele><time>2026-03-30T09:43:36.866Z</time></trkpt><trkpt lat="44.4253053" lon="11.43211"><ele>98.0</ele><time>2026-03-30T09:43:37.867Z</time></trkpt><trkpt lat="44.4252228" lon="11.4320179"><ele>98.0</ele><time>2026-03-30T09:43:38.857Z</time></trkpt><trkpt lat="44.4251405" lon="11.4319218"><ele>95.80000000000001</ele><time>2026-03-30T09:43:39.862Z</time></trkpt><trkpt lat="44.4250606" lon="11.4318162"><ele>93.6</ele><time>2026-03-30T09:43:40.866Z</time></trkpt><trkpt lat="44.424984" lon="11.4317108"><ele>91.4</ele><time>2026-03-30T09:43:41.863Z</time></trkpt><trkpt lat="44.424905" lon="11.4316063"><ele>89.19999999999999</ele><time>2026-03-30T09:43:42.865Z</time></trkpt><trkpt lat="44.4248258" lon="11.4314991"><ele>87.0</ele><time>2026-03-30T09:43:43.857Z</time></trkpt><trkpt lat="44.4247494" lon="11.4313937"><ele>86.6</ele><time>2026-03-30T09:43:44.867Z</time></trkpt><trkpt lat="44.4246726" lon="11.4312922"><ele>86.19999999999999</ele><time>2026-03-30T09:43:45.878Z</time></trkpt><trkpt lat="44.4245962" lon="11.4311911"><ele>85.8</ele><time>2026-03-30T09:43:46.864Z</time></trkpt><trkpt lat="44.424521" lon="11.431095"><ele>85.4</ele><time>2026-03-30T09:43:47.862Z</time></trkpt><trkpt lat="44.4244454" lon="11.4310018"><ele>85.0</ele><time>2026-03-30T09:43:48.866Z</time></trkpt><trkpt lat="44.424371" lon="11.4309113"><ele>85.0</ele><time>2026-03-30T09:43:49.866Z</time></trkpt><trkpt lat="44.424298" lon="11.4308225"><ele>85.0</ele><time>2026-03-30T09:43:50.864Z</time></trkpt><trkpt lat="44.4242257" lon="11.4307388"><ele>85.0</ele><time>2026-03-30T09:43:51.873Z</time></trkpt><trkpt lat="44.4241584" lon="11.4306564"><ele>85.0</ele><time>2026-03-30T09:43:52.871Z</time></trkpt><trkpt lat="44.4240945" lon="11.4305807"><ele>85.0</ele><time>2026-03-30T09:43:53.86Z</time></trkpt><trkpt lat="44.4240325" lon="11.4305073"><ele>85.0</ele><time>2026-03-30T09:43:54.863Z</time></trkpt><trkpt lat="44.4239728" lon="11.4304356"><ele>84.83333333333333</ele><time>2026-03-30T09:43:55.861Z</time></trkpt><trkpt lat="44.423914" lon="11.4303674"><ele>84.66666666666666</ele><time>2026-03-30T09:43:56.857Z</time></trkpt><trkpt lat="44.423856" lon="11.4302969"><ele>84.5</ele><time>2026-03-30T09:43:57.867Z</time></trkpt><trkpt lat="44.4237964" lon="11.4302275"><ele>84.33333333333333</ele><time>2026-03-30T09:43:58.862Z</time></trkpt><trkpt lat="44.4237371" lon="11.4301583"><ele>84.16666666666667</ele><time>2026-03-30T09:43:59.86Z</time></trkpt><trkpt lat="44.4236792" lon="11.4300862"><ele>84.0</ele><time>2026-03-30T09:44:00.86Z</time></trkpt><trkpt lat="44.4236235" lon="11.4300152"><ele>84.0</ele><time>2026-03-30T09:44:01.866Z</time></trkpt><trkpt lat="44.4235672" lon="11.4299448"><ele>84.0</ele><time>2026-03-30T09:44:02.861Z</time></trkpt><trkpt lat="44.423509" lon="11.4298774"><ele>84.0</ele><time>2026-03-30T09:44:03.88Z</time></trkpt><trkpt lat="44.4234509" lon="11.4298032"><ele>84.0</ele><time>2026-03-30T09:44:04.856Z</time></trkpt><trkpt lat="44.4233943" lon="11.4297251"><ele>84.0</ele><time>2026-03-30T09:44:05.857Z</time></trkpt><trkpt lat="44.4233369" lon="11.4296423"><ele>84.0</ele><time>2026-03-30T09:44:06.859Z</time></trkpt><trkpt lat="44.4232833" lon="11.4295581"><ele>83.5</ele><time>2026-03-30T09:44:07.872Z</time></trkpt><trkpt lat="44.423231" lon="11.4294699"><ele>83.0</ele><time>2026-03-30T09:44:08.86Z</time></trkpt><trkpt lat="44.423183" lon="11.429378"><ele>82.5</ele><time>2026-03-30T09:44:09.862Z</time></trkpt><trkpt lat="44.4231382" lon="11.4292842"><ele>82.0</ele><time>2026-03-30T09:44:10.857Z</time></trkpt><trkpt lat="44.423097" lon="11.4291882"><ele>81.5</ele><time>2026-03-30T09:44:11.857Z</time></trkpt><trkpt lat="44.4230575" lon="11.4290921"><ele>81.0</ele><time>2026-03-30T09:44:12.861Z</time></trkpt><trkpt lat="44.4230216" lon="11.4289947"><ele>81.0</ele><time>2026-03-30T09:44:13.856Z</time></trkpt><trkpt lat="44.4229899" lon="11.4288958"><ele>81.0</ele><time>2026-03-30T09:44:14.858Z</time></trkpt><trkpt lat="44.4229582" lon="11.4287984"><ele>81.0</ele><time>2026-03-30T09:44:15.852Z</time></trkpt><trkpt lat="44.422929" lon="11.4287007"><ele>81.0</ele><time>2026-03-30T09:44:16.863Z</time></trkpt><trkpt lat="44.4229014" lon="11.4286044"><ele>81.0</ele><time>2026-03-30T09:44:17.859Z</time></trkpt><trkpt lat="44.4228733" lon="11.4285101"><ele>81.0</ele><time>2026-03-30T09:44:18.866Z</time></trkpt><trkpt lat="44.4228459" lon="11.4284173"><ele>81.0</ele><time>2026-03-30T09:44:19.867Z</time></trkpt><trkpt lat="44.422818" lon="11.4283271"><ele>81.5</ele><time>2026-03-30T09:44:20.863Z</time></trkpt><trkpt lat="44.4227924" lon="11.4282409"><ele>82.0</ele><time>2026-03-30T09:44:21.859Z</time></trkpt><trkpt lat="44.422764" lon="11.4281603"><ele>82.5</ele><time>2026-03-30T09:44:22.857Z</time></trkpt><trkpt lat="44.4227322" lon="11.4280806"><ele>83.0</ele><time>2026-03-30T09:44:23.862Z</time></trkpt><trkpt lat="44.4226675" lon="11.4279342"><ele>83.5</ele><time>2026-03-30T09:44:25.856Z</time></trkpt><trkpt lat="44.4225955" lon="11.4277981"><ele>84.0</ele><time>2026-03-30T09:44:27.859Z</time></trkpt><trkpt lat="44.4225134" lon="11.427676"><ele>84.0</ele><time>2026-03-30T09:44:29.863Z</time></trkpt><trkpt lat="44.4224293" lon="11.4275583"><ele>84.0</ele><time>2026-03-30T09:44:31.863Z</time></trkpt><trkpt lat="44.4223435" lon="11.4274403"><ele>84.0</ele><time>2026-03-30T09:44:33.866Z</time></trkpt><trkpt lat="44.4222594" lon="11.4273276"><ele>84.0</ele><time>2026-03-30T09:44:35.867Z</time></trkpt><trkpt lat="44.422174" lon="11.4272125"><ele>84.5</ele><time>2026-03-30T09:44:37.862Z</time></trkpt><trkpt lat="44.4220894" lon="11.4270995"><ele>85.0</ele><time>2026-03-30T09:44:39.866Z</time></trkpt><trkpt lat="44.4220059" lon="11.4269877"><ele>85.5</ele><time>2026-03-30T09:44:41.868Z</time></trkpt><trkpt lat="44.4219227" lon="11.4268775"><ele>86.0</ele><time>2026-03-30T09:44:43.866Z</time></trkpt><trkpt lat="44.4218376" lon="11.4267655"><ele>86.0</ele><time>2026-03-30T09:44:45.856Z</time></trkpt><trkpt lat="44.4217531" lon="11.4266558"><ele>86.0</ele><time>2026-03-30T09:44:47.855Z</time></trkpt><trkpt lat="44.4216672" lon="11.4265515"><ele>86.0</ele><time>2026-03-30T09:44:49.858Z</time></trkpt><trkpt lat="44.4215729" lon="11.4264563"><ele>86.0</ele><time>2026-03-30T09:44:51.866Z</time></trkpt><trkpt lat="44.4214724" lon="11.4263753"><ele>86.0</ele><time>2026-03-30T09:44:53.858Z</time></trkpt><trkpt lat="44.4213642" lon="11.4263087"><ele>86.0</ele><time>2026-03-30T09:44:55.858Z</time></trkpt><trkpt lat="44.4212509" lon="11.4262586"><ele>86.0</ele><time>2026-03-30T09:44:57.87Z</time></trkpt><trkpt lat="44.4211307" lon="11.426239"><ele>86.0</ele><time>2026-03-30T09:44:59.861Z</time></trkpt><trkpt lat="44.4210061" lon="11.4262366"><ele>86.0</ele><time>2026-03-30T09:45:01.861Z</time></trkpt><trkpt lat="44.4208839" lon="11.4262496"><ele>86.0</ele><time>2026-03-30T09:45:03.861Z</time></trkpt><trkpt lat="44.4207589" lon="11.426274"><ele>86.0</ele><time>2026-03-30T09:45:05.859Z</time></trkpt><trkpt lat="44.4206938" lon="11.426287"><ele>86.0</ele><time>2026-03-30T09:45:06.856Z</time></trkpt><trkpt lat="44.4206263" lon="11.4262997"><ele>86.0</ele><time>2026-03-30T09:45:07.856Z</time></trkpt><trkpt lat="44.4205587" lon="11.4263135"><ele>86.42857142857143</ele><time>2026-03-30T09:45:08.858Z</time></trkpt><trkpt lat="44.4204914" lon="11.4263283"><ele>86.85714285714286</ele><time>2026-03-30T09:45:09.856Z</time></trkpt><trkpt lat="44.4204243" lon="11.4263432"><ele>87.28571428571428</ele><time>2026-03-30T09:45:10.866Z</time></trkpt><trkpt lat="44.4203595" lon="11.4263585"><ele>87.71428571428572</ele><time>2026-03-30T09:45:11.857Z</time></trkpt><trkpt lat="44.4202946" lon="11.4263744"><ele>88.14285714285714</ele><time>2026-03-30T09:45:12.857Z</time></trkpt><trkpt lat="44.4202275" lon="11.4263926"><ele>88.57142857142857</ele><time>2026-03-30T09:45:13.859Z</time></trkpt><trkpt lat="44.4201627" lon="11.4264109"><ele>89.0</ele><time>2026-03-30T09:45:14.855Z</time></trkpt><trkpt lat="44.4200981" lon="11.426426"><ele>88.99999999999999</ele><time>2026-03-30T09:45:15.857Z</time></trkpt><trkpt lat="44.4200312" lon="11.4264413"><ele>89.0</ele><time>2026-03-30T09:45:16.862Z</time></trkpt><trkpt lat="44.419962" lon="11.4264577"><ele>89.0</ele><time>2026-03-30T09:45:17.857Z</time></trkpt><trkpt lat="44.4198862" lon="11.4264679"><ele>89.0</ele><time>2026-03-30T09:45:18.864Z</time></trkpt><trkpt lat="44.4198141" lon="11.4264781"><ele>89.0</ele><time>2026-03-30T09:45:19.863Z</time></trkpt><trkpt lat="44.4197456" lon="11.4264877"><ele>88.99999999999999</ele><time>2026-03-30T09:45:20.866Z</time></trkpt><trkpt lat="44.4196783" lon="11.4264975"><ele>89.0</ele><time>2026-03-30T09:45:21.865Z</time></trkpt><trkpt lat="44.4196109" lon="11.4265076"><ele>88.99999999999999</ele><time>2026-03-30T09:45:22.859Z</time></trkpt><trkpt lat="44.4195419" lon="11.4265186"><ele>89.0</ele><time>2026-03-30T09:45:23.871Z</time></trkpt><trkpt lat="44.4194739" lon="11.4265278"><ele>89.0</ele><time>2026-03-30T09:45:24.858Z</time></trkpt><trkpt lat="44.4194057" lon="11.4265364"><ele>89.0</ele><time>2026-03-30T09:45:25.865Z</time></trkpt><trkpt lat="44.4193379" lon="11.4265419"><ele>89.0</ele><time>2026-03-30T09:45:26.864Z</time></trkpt><trkpt lat="44.4192689" lon="11.4265497"><ele>88.99999999999999</ele><time>2026-03-30T09:45:27.868Z</time></trkpt><trkpt lat="44.4192012" lon="11.4265585"><ele>89.0</ele><time>2026-03-30T09:45:28.865Z</time></trkpt><trkpt lat="44.4191322" lon="11.4265664"><ele>88.99999999999999</ele><time>2026-03-30T09:45:29.865Z</time></trkpt><trkpt lat="44.4190654" lon="11.4265726"><ele>89.0</ele><time>2026-03-30T09:45:30.865Z</time></trkpt><trkpt lat="44.418998" lon="11.4265795"><ele>89.0</ele><time>2026-03-30T09:45:31.861Z</time></trkpt><trkpt lat="44.4189315" lon="11.4265871"><ele>89.0</ele><time>2026-03-30T09:45:32.864Z</time></trkpt><trkpt lat="44.4188656" lon="11.4265949"><ele>89.0</ele><time>2026-03-30T09:45:33.86Z</time></trkpt><trkpt lat="44.4188" lon="11.4266045"><ele>88.99999999999999</ele><time>2026-03-30T09:45:34.864Z</time></trkpt><trkpt lat="44.4187331" lon="11.4266101"><ele>89.0</ele><time>2026-03-30T09:45:35.859Z</time></trkpt><trkpt lat="44.4186662" lon="11.4266175"><ele>88.99999999999999</ele><time>2026-03-30T09:45:36.867Z</time></trkpt><trkpt lat="44.4185991" lon="11.4266258"><ele>89.0</ele><time>2026-03-30T09:45:37.872Z</time></trkpt><trkpt lat="44.418532" lon="11.4266311"><ele>89.0</ele><time>2026-03-30T09:45:38.855Z</time></trkpt><trkpt lat="44.4184637" lon="11.426639"><ele>89.0</ele><time>2026-03-30T09:45:39.879Z</time></trkpt><trkpt lat="44.4183957" lon="11.4266471"><ele>89.0</ele><time>2026-03-30T09:45:40.858Z</time></trkpt><trkpt lat="44.4183283" lon="11.4266541"><ele>88.99999999999999</ele><time>2026-03-30T09:45:41.868Z</time></trkpt><trkpt lat="44.4182605" lon="11.4266601"><ele>89.0</ele><time>2026-03-30T09:45:42.862Z</time></trkpt><trkpt lat="44.4181921" lon="11.4266665"><ele>88.99999999999999</ele><time>2026-03-30T09:45:43.859Z</time></trkpt><trkpt lat="44.4181246" lon="11.4266741"><ele>89.0</ele><time>2026-03-30T09:45:44.866Z</time></trkpt><trkpt lat="44.418057" lon="11.4266832"><ele>89.0</ele><time>2026-03-30T09:45:45.862Z</time></trkpt><trkpt lat="44.4179895" lon="11.4266917"><ele>89.0</ele><time>2026-03-30T09:45:46.866Z</time></trkpt><trkpt lat="44.4179225" lon="11.4266994"><ele>89.0</ele><time>2026-03-30T09:45:47.859Z</time></trkpt><trkpt lat="44.4178548" lon="11.426708"><ele>88.99999999999999</ele><time>2026-03-30T09:45:48.867Z</time></trkpt><trkpt lat="44.4177887" lon="11.426715"><ele>89.0</ele><time>2026-03-30T09:45:49.864Z</time></trkpt><trkpt lat="44.4177228" lon="11.4267219"><ele>89.14285714285714</ele><time>2026-03-30T09:45:50.865Z</time></trkpt><trkpt lat="44.4176574" lon="11.4267299"><ele>89.28571428571428</ele><time>2026-03-30T09:45:51.859Z</time></trkpt><trkpt lat="44.4175924" lon="11.4267395"><ele>89.42857142857142</ele><time>2026-03-30T09:45:52.865Z</time></trkpt><trkpt lat="44.4175274" lon="11.4267461"><ele>89.57142857142857</ele><time>2026-03-30T09:45:53.864Z</time></trkpt><trkpt lat="44.4174633" lon="11.4267519"><ele>89.71428571428572</ele><time>2026-03-30T09:45:54.865Z</time></trkpt><trkpt lat="44.4173995" lon="11.42676"><ele>89.85714285714285</ele><time>2026-03-30T09:45:55.869Z</time></trkpt><trkpt lat="44.4173362" lon="11.4267669"><ele>90.0</ele><time>2026-03-30T09:45:56.866Z</time></trkpt><trkpt lat="44.4172725" lon="11.4267738"><ele>90.2</ele><time>2026-03-30T09:45:57.86Z</time></trkpt><trkpt lat="44.4171459" lon="11.4267869"><ele>90.4</ele><time>2026-03-30T09:45:59.858Z</time></trkpt><trkpt lat="44.417083" lon="11.4267937"><ele>90.6</ele><time>2026-03-30T09:46:00.861Z</time></trkpt><trkpt lat="44.416957" lon="11.4268073"><ele>90.8</ele><time>2026-03-30T09:46:02.871Z</time></trkpt><trkpt lat="44.416831" lon="11.4268223"><ele>91.0</ele><time>2026-03-30T09:46:04.861Z</time></trkpt><trkpt lat="44.416767" lon="11.4268306"><ele>91.0</ele><time>2026-03-30T09:46:05.863Z</time></trkpt><trkpt lat="44.4167008" lon="11.4268387"><ele>91.0</ele><time>2026-03-30T09:46:06.871Z</time></trkpt><trkpt lat="44.4166364" lon="11.4268465"><ele>91.0</ele><time>2026-03-30T09:46:07.864Z</time></trkpt><trkpt lat="44.4165722" lon="11.4268542"><ele>91.0</ele><time>2026-03-30T09:46:08.855Z</time></trkpt><trkpt lat="44.4165061" lon="11.4268566"><ele>91.0</ele><time>2026-03-30T09:46:09.864Z</time></trkpt><trkpt lat="44.4164412" lon="11.426861"><ele>91.0</ele><time>2026-03-30T09:46:10.862Z</time></trkpt><trkpt lat="44.4163761" lon="11.4268678"><ele>91.0</ele><time>2026-03-30T09:46:11.863Z</time></trkpt><trkpt lat="44.4163094" lon="11.4268749"><ele>92.28571428571429</ele><time>2026-03-30T09:46:12.866Z</time></trkpt><trkpt lat="44.4162438" lon="11.4268817"><ele>93.57142857142857</ele><time>2026-03-30T09:46:13.86Z</time></trkpt><trkpt lat="44.4161764" lon="11.4268885"><ele>94.85714285714286</ele><time>2026-03-30T09:46:14.86Z</time></trkpt><trkpt lat="44.4161083" lon="11.426897"><ele>96.14285714285714</ele><time>2026-03-30T09:46:15.881Z</time></trkpt><trkpt lat="44.4160414" lon="11.4269043"><ele>97.42857142857143</ele><time>2026-03-30T09:46:16.866Z</time></trkpt><trkpt lat="44.4159745" lon="11.4269097"><ele>98.71428571428572</ele><time>2026-03-30T09:46:17.861Z</time></trkpt><trkpt lat="44.4159078" lon="11.4269169"><ele>100.0</ele><time>2026-03-30T09:46:18.859Z</time></trkpt><trkpt lat="44.4158403" lon="11.4269242"><ele>100.00000000000001</ele><time>2026-03-30T09:46:19.859Z</time></trkpt><trkpt lat="44.4157737" lon="11.4269311"><ele>100.0</ele><time>2026-03-30T09:46:20.857Z</time></trkpt><trkpt lat="44.4157066" lon="11.4269393"><ele>100.0</ele><time>2026-03-30T09:46:21.861Z</time></trkpt><trkpt lat="44.4156402" lon="11.4269463"><ele>100.0</ele><time>2026-03-30T09:46:22.867Z</time></trkpt><trkpt lat="44.4155727" lon="11.4269533"><ele>100.0</ele><time>2026-03-30T09:46:23.866Z</time></trkpt><trkpt lat="44.4155066" lon="11.4269601"><ele>100.00000000000001</ele><time>2026-03-30T09:46:24.864Z</time></trkpt><trkpt lat="44.41544" lon="11.426967"><ele>100.0</ele><time>2026-03-30T09:46:25.863Z</time></trkpt><trkpt lat="44.4153746" lon="11.4269735"><ele>99.14285714285715</ele><time>2026-03-30T09:46:26.868Z</time></trkpt><trkpt lat="44.4153086" lon="11.4269811"><ele>98.28571428571429</ele><time>2026-03-30T09:46:27.873Z</time></trkpt><trkpt lat="44.4152423" lon="11.4269892"><ele>97.42857142857143</ele><time>2026-03-30T09:46:28.86Z</time></trkpt><trkpt lat="44.4151758" lon="11.4269951"><ele>96.57142857142858</ele><time>2026-03-30T09:46:29.873Z</time></trkpt><trkpt lat="44.4151099" lon="11.4270025"><ele>95.71428571428571</ele><time>2026-03-30T09:46:30.863Z</time></trkpt><trkpt lat="44.4150427" lon="11.4270092"><ele>94.85714285714286</ele><time>2026-03-30T09:46:31.869Z</time></trkpt><trkpt lat="44.4149757" lon="11.4270166"><ele>94.0</ele><time>2026-03-30T09:46:32.863Z</time></trkpt><trkpt lat="44.4149101" lon="11.4270241"><ele>94.0</ele><time>2026-03-30T09:46:33.868Z</time></trkpt><trkpt lat="44.4148439" lon="11.4270313"><ele>94.0</ele><time>2026-03-30T09:46:34.867Z</time></trkpt><trkpt lat="44.4147779" lon="11.4270409"><ele>94.0</ele><time>2026-03-30T09:46:35.863Z</time></trkpt><trkpt lat="44.4147108" lon="11.4270489"><ele>94.0</ele><time>2026-03-30T09:46:36.87Z</time></trkpt><trkpt lat="44.4146442" lon="11.4270571"><ele>94.0</ele><time>2026-03-30T09:46:37.859Z</time></trkpt><trkpt lat="44.4145778" lon="11.4270639"><ele>94.0</ele><time>2026-03-30T09:46:38.866Z</time></trkpt><trkpt lat="44.4145099" lon="11.4270696"><ele>94.0</ele><time>2026-03-30T09:46:39.87Z</time></trkpt><trkpt lat="44.4144415" lon="11.4270762"><ele>93.28571428571428</ele><time>2026-03-30T09:46:40.859Z</time></trkpt><trkpt lat="44.4143746" lon="11.4270821"><ele>92.57142857142857</ele><time>2026-03-30T09:46:41.863Z</time></trkpt><trkpt lat="44.4143089" lon="11.4270903"><ele>91.85714285714286</ele><time>2026-03-30T09:46:42.864Z</time></trkpt><trkpt lat="44.4142441" lon="11.4270984"><ele>91.14285714285714</ele><time>2026-03-30T09:46:43.861Z</time></trkpt><trkpt lat="44.4141783" lon="11.4271067"><ele>90.42857142857143</ele><time>2026-03-30T09:46:44.866Z</time></trkpt><trkpt lat="44.4141127" lon="11.4271172"><ele>89.71428571428571</ele><time>2026-03-30T09:46:45.873Z</time></trkpt><trkpt lat="44.4140468" lon="11.427123"><ele>89.0</ele><time>2026-03-30T09:46:46.865Z</time></trkpt><trkpt lat="44.4139816" lon="11.4271305"><ele>88.99999999999999</ele><time>2026-03-30T09:46:47.877Z</time></trkpt><trkpt lat="44.4139146" lon="11.4271387"><ele>89.0</ele><time>2026-03-30T09:46:48.872Z</time></trkpt><trkpt lat="44.413849" lon="11.4271458"><ele>89.0</ele><time>2026-03-30T09:46:49.866Z</time></trkpt><trkpt lat="44.4137818" lon="11.4271545"><ele>89.0</ele><time>2026-03-30T09:46:50.875Z</time></trkpt><trkpt lat="44.4137157" lon="11.4271633"><ele>89.0</ele><time>2026-03-30T09:46:51.861Z</time></trkpt><trkpt lat="44.4136494" lon="11.4271699"><ele>88.99999999999999</ele><time>2026-03-30T09:46:52.862Z</time></trkpt><trkpt lat="44.4135832" lon="11.4271767"><ele>89.0</ele><time>2026-03-30T09:46:53.854Z</time></trkpt><trkpt lat="44.4135166" lon="11.4271859"><ele>89.71428571428571</ele><time>2026-03-30T09:46:54.867Z</time></trkpt><trkpt lat="44.4134508" lon="11.427194"><ele>90.42857142857143</ele><time>2026-03-30T09:46:55.862Z</time></trkpt><trkpt lat="44.4133859" lon="11.4272022"><ele>91.14285714285714</ele><time>2026-03-30T09:46:56.864Z</time></trkpt><trkpt lat="44.4133201" lon="11.4272109"><ele>91.85714285714286</ele><time>2026-03-30T09:46:57.866Z</time></trkpt><trkpt lat="44.4132551" lon="11.4272203"><ele>92.57142857142857</ele><time>2026-03-30T09:46:58.867Z</time></trkpt><trkpt lat="44.4131895" lon="11.4272286"><ele>93.28571428571428</ele><time>2026-03-30T09:46:59.871Z</time></trkpt><trkpt lat="44.413125" lon="11.4272369"><ele>94.0</ele><time>2026-03-30T09:47:00.866Z</time></trkpt><trkpt lat="44.4130611" lon="11.4272453"><ele>94.0</ele><time>2026-03-30T09:47:01.864Z</time></trkpt><trkpt lat="44.4129963" lon="11.4272527"><ele>94.0</ele><time>2026-03-30T09:47:02.861Z</time></trkpt><trkpt lat="44.412932" lon="11.4272601"><ele>94.0</ele><time>2026-03-30T09:47:03.862Z</time></trkpt><trkpt lat="44.4128672" lon="11.4272676"><ele>94.0</ele><time>2026-03-30T09:47:04.866Z</time></trkpt><trkpt lat="44.4128034" lon="11.4272746"><ele>94.0</ele><time>2026-03-30T09:47:05.861Z</time></trkpt><trkpt lat="44.4127396" lon="11.4272836"><ele>94.0</ele><time>2026-03-30T09:47:06.862Z</time></trkpt><trkpt lat="44.4126757" lon="11.4272917"><ele>94.0</ele><time>2026-03-30T09:47:07.867Z</time></trkpt><trkpt lat="44.4126112" lon="11.4273003"><ele>93.85714285714286</ele><time>2026-03-30T09:47:08.865Z</time></trkpt><trkpt lat="44.4125465" lon="11.4273075"><ele>93.71428571428571</ele><time>2026-03-30T09:47:09.872Z</time></trkpt><trkpt lat="44.4124815" lon="11.4273133"><ele>93.57142857142858</ele><time>2026-03-30T09:47:10.868Z</time></trkpt><trkpt lat="44.4124171" lon="11.4273201"><ele>93.42857142857143</ele><time>2026-03-30T09:47:11.861Z</time></trkpt><trkpt lat="44.4123519" lon="11.4273283"><ele>93.28571428571429</ele><time>2026-03-30T09:47:12.862Z</time></trkpt><trkpt lat="44.4122874" lon="11.4273367"><ele>93.14285714285715</ele><time>2026-03-30T09:47:13.872Z</time></trkpt><trkpt lat="44.4122228" lon="11.427346"><ele>93.0</ele><time>2026-03-30T09:47:14.86Z</time></trkpt><trkpt lat="44.4121595" lon="11.4273541"><ele>93.42857142857143</ele><time>2026-03-30T09:47:15.857Z</time></trkpt><trkpt lat="44.4120953" lon="11.4273622"><ele>93.85714285714286</ele><time>2026-03-30T09:47:16.865Z</time></trkpt><trkpt lat="44.4120307" lon="11.4273702"><ele>94.28571428571428</ele><time>2026-03-30T09:47:17.868Z</time></trkpt><trkpt lat="44.4119664" lon="11.4273778"><ele>94.71428571428572</ele><time>2026-03-30T09:47:18.863Z</time></trkpt><trkpt lat="44.4119023" lon="11.4273839"><ele>95.14285714285714</ele><time>2026-03-30T09:47:19.86Z</time></trkpt><trkpt lat="44.4118378" lon="11.427394"><ele>95.57142857142857</ele><time>2026-03-30T09:47:20.862Z</time></trkpt><trkpt lat="44.4117724" lon="11.4274033"><ele>96.0</ele><time>2026-03-30T09:47:21.865Z</time></trkpt><trkpt lat="44.4117091" lon="11.4274118"><ele>96.0</ele><time>2026-03-30T09:47:22.875Z</time></trkpt><trkpt lat="44.4115829" lon="11.4274273"><ele>96.0</ele><time>2026-03-30T09:47:24.859Z</time></trkpt><trkpt lat="44.4115197" lon="11.4274326"><ele>96.0</ele><time>2026-03-30T09:47:25.868Z</time></trkpt><trkpt lat="44.411455" lon="11.4274347"><ele>96.0</ele><time>2026-03-30T09:47:26.864Z</time></trkpt><trkpt lat="44.411389" lon="11.4274357"><ele>96.0</ele><time>2026-03-30T09:47:27.868Z</time></trkpt><trkpt lat="44.4113232" lon="11.4274328"><ele>96.0</ele><time>2026-03-30T09:47:28.868Z</time></trkpt><trkpt lat="44.4112594" lon="11.4274277"><ele>97.0</ele><time>2026-03-30T09:47:29.873Z</time></trkpt><trkpt lat="44.4111947" lon="11.4274219"><ele>98.0</ele><time>2026-03-30T09:47:30.862Z</time></trkpt><trkpt lat="44.4111314" lon="11.4274111"><ele>99.0</ele><time>2026-03-30T09:47:31.864Z</time></trkpt><trkpt lat="44.4110066" lon="11.4273923"><ele>100.0</ele><time>2026-03-30T09:47:33.858Z</time></trkpt><trkpt lat="44.410885" lon="11.4273752"><ele>101.0</ele><time>2026-03-30T09:47:35.865Z</time></trkpt><trkpt lat="44.4107606" lon="11.427358"><ele>101.0</ele><time>2026-03-30T09:47:37.865Z</time></trkpt><trkpt lat="44.4106968" lon="11.4273528"><ele>101.0</ele><time>2026-03-30T09:47:38.875Z</time></trkpt><trkpt lat="44.4105715" lon="11.4273426"><ele>101.0</ele><time>2026-03-30T09:47:40.865Z</time></trkpt><trkpt lat="44.4105085" lon="11.4273421"><ele>101.0</ele><time>2026-03-30T09:47:41.859Z</time></trkpt><trkpt lat="44.410445" lon="11.4273411"><ele>101.0</ele><time>2026-03-30T09:47:42.865Z</time></trkpt><trkpt lat="44.4103805" lon="11.427341"><ele>101.0</ele><time>2026-03-30T09:47:43.856Z</time></trkpt><trkpt lat="44.4103159" lon="11.4273425"><ele>101.0</ele><time>2026-03-30T09:47:44.858Z</time></trkpt><trkpt lat="44.4102515" lon="11.4273461"><ele>101.14285714285714</ele><time>2026-03-30T09:47:45.855Z</time></trkpt><trkpt lat="44.4101884" lon="11.4273483"><ele>101.28571428571428</ele><time>2026-03-30T09:47:46.867Z</time></trkpt><trkpt lat="44.4101247" lon="11.4273526"><ele>101.42857142857143</ele><time>2026-03-30T09:47:47.864Z</time></trkpt><trkpt lat="44.4100604" lon="11.4273585"><ele>101.57142857142857</ele><time>2026-03-30T09:47:48.864Z</time></trkpt><trkpt lat="44.4099965" lon="11.4273619"><ele>101.71428571428572</ele><time>2026-03-30T09:47:49.856Z</time></trkpt><trkpt lat="44.4099335" lon="11.4273629"><ele>101.85714285714286</ele><time>2026-03-30T09:47:50.872Z</time></trkpt><trkpt lat="44.4098074" lon="11.4273687"><ele>102.0</ele><time>2026-03-30T09:47:52.871Z</time></trkpt><trkpt lat="44.4096814" lon="11.4273817"><ele>101.66666666666667</ele><time>2026-03-30T09:47:54.854Z</time></trkpt><trkpt lat="44.4096186" lon="11.4273904"><ele>101.33333333333334</ele><time>2026-03-30T09:47:55.861Z</time></trkpt><trkpt lat="44.4095555" lon="11.4274024"><ele>101.0</ele><time>2026-03-30T09:47:56.861Z</time></trkpt><trkpt lat="44.4094928" lon="11.427417"><ele>100.66666666666667</ele><time>2026-03-30T09:47:57.866Z</time></trkpt><trkpt lat="44.4094301" lon="11.427432"><ele>100.33333333333334</ele><time>2026-03-30T09:47:58.857Z</time></trkpt><trkpt lat="44.4093054" lon="11.4274628"><ele>100.0</ele><time>2026-03-30T09:48:00.85Z</time></trkpt><trkpt lat="44.4091838" lon="11.4275011"><ele>100.0</ele><time>2026-03-30T09:48:02.863Z</time></trkpt><trkpt lat="44.4090631" lon="11.4275425"><ele>100.0</ele><time>2026-03-30T09:48:04.867Z</time></trkpt><trkpt lat="44.4089413" lon="11.4275875"><ele>100.0</ele><time>2026-03-30T09:48:06.861Z</time></trkpt><trkpt lat="44.408822" lon="11.4276338"><ele>100.0</ele><time>2026-03-30T09:48:08.858Z</time></trkpt><trkpt lat="44.4087032" lon="11.4276787"><ele>99.25</ele><time>2026-03-30T09:48:10.857Z</time></trkpt><trkpt lat="44.4085857" lon="11.427718"><ele>98.5</ele><time>2026-03-30T09:48:12.859Z</time></trkpt><trkpt lat="44.4084727" lon="11.4277607"><ele>97.75</ele><time>2026-03-30T09:48:14.868Z</time></trkpt><trkpt lat="44.4083625" lon="11.4278002"><ele>97.0</ele><time>2026-03-30T09:48:16.856Z</time></trkpt><trkpt lat="44.4082515" lon="11.4278322"><ele>97.0</ele><time>2026-03-30T09:48:18.865Z</time></trkpt><trkpt lat="44.4081403" lon="11.4278572"><ele>97.0</ele><time>2026-03-30T09:48:20.857Z</time></trkpt><trkpt lat="44.4080256" lon="11.4278573"><ele>97.0</ele><time>2026-03-30T09:48:22.865Z</time></trkpt><trkpt lat="44.4079098" lon="11.4278411"><ele>97.0</ele><time>2026-03-30T09:48:24.86Z</time></trkpt><trkpt lat="44.4077933" lon="11.4278061"><ele>97.75</ele><time>2026-03-30T09:48:26.872Z</time></trkpt><trkpt lat="44.4076813" lon="11.4277461"><ele>98.5</ele><time>2026-03-30T09:48:28.866Z</time></trkpt><trkpt lat="44.4075747" lon="11.427667"><ele>99.25</ele><time>2026-03-30T09:48:30.868Z</time></trkpt><trkpt lat="44.4074706" lon="11.4275751"><ele>100.0</ele><time>2026-03-30T09:48:32.853Z</time></trkpt><trkpt lat="44.4073782" lon="11.4274649"><ele>100.0</ele><time>2026-03-30T09:48:34.858Z</time></trkpt><trkpt lat="44.4072899" lon="11.427348"><ele>100.0</ele><time>2026-03-30T09:48:36.851Z</time></trkpt><trkpt lat="44.4072026" lon="11.4272311"><ele>100.0</ele><time>2026-03-30T09:48:38.859Z</time></trkpt><trkpt lat="44.4071557" lon="11.4271709"><ele>100.0</ele><time>2026-03-30T09:48:39.866Z</time></trkpt><trkpt lat="44.4070665" lon="11.4270533"><ele>100.0</ele><time>2026-03-30T09:48:41.865Z</time></trkpt><trkpt lat="44.4069759" lon="11.4269355"><ele>100.25</ele><time>2026-03-30T09:48:43.86Z</time></trkpt><trkpt lat="44.4068869" lon="11.4268206"><ele>100.5</ele><time>2026-03-30T09:48:45.857Z</time></trkpt><trkpt lat="44.4067986" lon="11.4267056"><ele>100.75</ele><time>2026-03-30T09:48:47.853Z</time></trkpt><trkpt lat="44.4067125" lon="11.4265956"><ele>101.0</ele><time>2026-03-30T09:48:49.853Z</time></trkpt><trkpt lat="44.4066264" lon="11.4264884"><ele>101.0</ele><time>2026-03-30T09:48:51.863Z</time></trkpt><trkpt lat="44.4065409" lon="11.4263927"><ele>101.0</ele><time>2026-03-30T09:48:53.862Z</time></trkpt><trkpt lat="44.4064519" lon="11.4263153"><ele>101.0</ele><time>2026-03-30T09:48:55.871Z</time></trkpt><trkpt lat="44.4063613" lon="11.4262483"><ele>101.0</ele><time>2026-03-30T09:48:57.853Z</time></trkpt><trkpt lat="44.4062615" lon="11.4261989"><ele>101.0</ele><time>2026-03-30T09:48:59.859Z</time></trkpt><trkpt lat="44.4061629" lon="11.4261665"><ele>101.8</ele><time>2026-03-30T09:49:01.868Z</time></trkpt><trkpt lat="44.4060622" lon="11.4261491"><ele>102.6</ele><time>2026-03-30T09:49:03.86Z</time></trkpt><trkpt lat="44.4059614" lon="11.4261481"><ele>103.4</ele><time>2026-03-30T09:49:05.861Z</time></trkpt><trkpt lat="44.4058637" lon="11.4261713"><ele>104.2</ele><time>2026-03-30T09:49:07.858Z</time></trkpt><trkpt lat="44.4057704" lon="11.4262197"><ele>105.0</ele><time>2026-03-30T09:49:09.869Z</time></trkpt><trkpt lat="44.4056801" lon="11.4262829"><ele>105.6</ele><time>2026-03-30T09:49:11.86Z</time></trkpt><trkpt lat="44.4055986" lon="11.4263729"><ele>106.2</ele><time>2026-03-30T09:49:13.854Z</time></trkpt><trkpt lat="44.4055258" lon="11.4264712"><ele>106.80000000000001</ele><time>2026-03-30T09:49:15.866Z</time></trkpt><trkpt lat="44.4054587" lon="11.426577"><ele>107.4</ele><time>2026-03-30T09:49:17.865Z</time></trkpt><trkpt lat="44.4053989" lon="11.4266821"><ele>108.0</ele><time>2026-03-30T09:49:19.859Z</time></trkpt><trkpt lat="44.4053414" lon="11.4267835"><ele>108.80000000000001</ele><time>2026-03-30T09:49:21.86Z</time></trkpt><trkpt lat="44.4052864" lon="11.4268926"><ele>109.60000000000001</ele><time>2026-03-30T09:49:23.862Z</time></trkpt><trkpt lat="44.4052242" lon="11.4269949"><ele>110.39999999999999</ele><time>2026-03-30T09:49:25.855Z</time></trkpt><trkpt lat="44.4051538" lon="11.4270878"><ele>111.19999999999999</ele><time>2026-03-30T09:49:27.858Z</time></trkpt><trkpt lat="44.4050738" lon="11.42718"><ele>112.0</ele><time>2026-03-30T09:49:29.861Z</time></trkpt><trkpt lat="44.4049899" lon="11.4272594"><ele>112.0</ele><time>2026-03-30T09:49:31.865Z</time></trkpt><trkpt lat="44.4048943" lon="11.4273285"><ele>111.99999999999999</ele><time>2026-03-30T09:49:33.864Z</time></trkpt><trkpt lat="44.4047932" lon="11.4273862"><ele>111.99999999999999</ele><time>2026-03-30T09:49:35.863Z</time></trkpt><trkpt lat="44.404689" lon="11.4274365"><ele>112.0</ele><time>2026-03-30T09:49:37.868Z</time></trkpt><trkpt lat="44.4045859" lon="11.4274797"><ele>112.0</ele><time>2026-03-30T09:49:39.853Z</time></trkpt><trkpt lat="44.4044796" lon="11.4275248"><ele>111.6</ele><time>2026-03-30T09:49:41.868Z</time></trkpt><trkpt lat="44.4043736" lon="11.4275702"><ele>111.19999999999999</ele><time>2026-03-30T09:49:43.865Z</time></trkpt><trkpt lat="44.4042706" lon="11.4276138"><ele>110.8</ele><time>2026-03-30T09:49:45.876Z</time></trkpt><trkpt lat="44.4041698" lon="11.4276569"><ele>110.4</ele><time>2026-03-30T09:49:47.864Z</time></trkpt><trkpt lat="44.4040695" lon="11.4277013"><ele>110.0</ele><time>2026-03-30T09:49:49.865Z</time></trkpt><trkpt lat="44.4039682" lon="11.4277461"><ele>110.0</ele><time>2026-03-30T09:49:51.863Z</time></trkpt><trkpt lat="44.4038656" lon="11.4277895"><ele>110.0</ele><time>2026-03-30T09:49:53.867Z</time></trkpt><trkpt lat="44.403762" lon="11.4278346"><ele>110.0</ele><time>2026-03-30T09:49:55.855Z</time></trkpt><trkpt lat="44.4036582" lon="11.4278794"><ele>110.0</ele><time>2026-03-30T09:49:57.876Z</time></trkpt><trkpt lat="44.4035545" lon="11.4279221"><ele>110.0</ele><time>2026-03-30T09:49:59.868Z</time></trkpt><trkpt lat="44.4034507" lon="11.4279661"><ele>110.2</ele><time>2026-03-30T09:50:01.865Z</time></trkpt><trkpt lat="44.4033466" lon="11.4280118"><ele>110.4</ele><time>2026-03-30T09:50:03.862Z</time></trkpt><trkpt lat="44.4032404" lon="11.4280565"><ele>110.6</ele><time>2026-03-30T09:50:05.861Z</time></trkpt><trkpt lat="44.4031323" lon="11.4281039"><ele>110.8</ele><time>2026-03-30T09:50:07.866Z</time></trkpt><trkpt lat="44.4030231" lon="11.4281539"><ele>111.0</ele><time>2026-03-30T09:50:09.867Z</time></trkpt><trkpt lat="44.4029118" lon="11.4282103"><ele>111.0</ele><time>2026-03-30T09:50:11.852Z</time></trkpt><trkpt lat="44.4027989" lon="11.4282728"><ele>111.0</ele><time>2026-03-30T09:50:13.87Z</time></trkpt><trkpt lat="44.4026825" lon="11.4283372"><ele>111.0</ele><time>2026-03-30T09:50:15.858Z</time></trkpt><trkpt lat="44.402568" lon="11.4284096"><ele>111.0</ele><time>2026-03-30T09:50:17.868Z</time></trkpt><trkpt lat="44.4024541" lon="11.4284817"><ele>111.0</ele><time>2026-03-30T09:50:19.86Z</time></trkpt><trkpt lat="44.4023408" lon="11.4285553"><ele>111.0</ele><time>2026-03-30T09:50:21.87Z</time></trkpt><trkpt lat="44.402282" lon="11.4285926"><ele>111.0</ele><time>2026-03-30T09:50:22.873Z</time></trkpt><trkpt lat="44.4022228" lon="11.4286288"><ele>111.0</ele><time>2026-03-30T09:50:23.867Z</time></trkpt><trkpt lat="44.4021137" lon="11.4287004"><ele>111.0</ele><time>2026-03-30T09:50:25.859Z</time></trkpt><trkpt lat="44.4020052" lon="11.4287639"><ele>111.25</ele><time>2026-03-30T09:50:27.871Z</time></trkpt><trkpt lat="44.4019017" lon="11.4288319"><ele>111.5</ele><time>2026-03-30T09:50:29.86Z</time></trkpt><trkpt lat="44.4017977" lon="11.4288963"><ele>111.75</ele><time>2026-03-30T09:50:31.868Z</time></trkpt><trkpt lat="44.4016929" lon="11.4289617"><ele>112.0</ele><time>2026-03-30T09:50:33.869Z</time></trkpt><trkpt lat="44.4015865" lon="11.4290288"><ele>112.0</ele><time>2026-03-30T09:50:35.86Z</time></trkpt><trkpt lat="44.4014788" lon="11.4290995"><ele>111.99999999999999</ele><time>2026-03-30T09:50:37.869Z</time></trkpt><trkpt lat="44.4013704" lon="11.4291725"><ele>111.99999999999999</ele><time>2026-03-30T09:50:39.858Z</time></trkpt><trkpt lat="44.4012594" lon="11.4292529"><ele>112.0</ele><time>2026-03-30T09:50:41.868Z</time></trkpt><trkpt lat="44.4012033" lon="11.4292935"><ele>112.0</ele><time>2026-03-30T09:50:42.875Z</time></trkpt><trkpt lat="44.4011458" lon="11.4293377"><ele>111.6</ele><time>2026-03-30T09:50:43.864Z</time></trkpt><trkpt lat="44.4010891" lon="11.4293846"><ele>111.19999999999999</ele><time>2026-03-30T09:50:44.866Z</time></trkpt><trkpt lat="44.4009828" lon="11.4294797"><ele>110.8</ele><time>2026-03-30T09:50:46.865Z</time></trkpt><trkpt lat="44.4008781" lon="11.4295796"><ele>110.4</ele><time>2026-03-30T09:50:48.871Z</time></trkpt><trkpt lat="44.4008263" lon="11.4296305"><ele>110.0</ele><time>2026-03-30T09:50:49.871Z</time></trkpt><trkpt lat="44.4007222" lon="11.4297325"><ele>109.49999999999999</ele><time>2026-03-30T09:50:51.872Z</time></trkpt><trkpt lat="44.4006695" lon="11.4297853"><ele>109.0</ele><time>2026-03-30T09:50:52.861Z</time></trkpt><trkpt lat="44.400616" lon="11.4298397"><ele>108.5</ele><time>2026-03-30T09:50:53.863Z</time></trkpt><trkpt lat="44.4005654" lon="11.4298945"><ele>108.0</ele><time>2026-03-30T09:50:54.876Z</time></trkpt><trkpt lat="44.400515" lon="11.4299473"><ele>107.49999999999999</ele><time>2026-03-30T09:50:55.856Z</time></trkpt><trkpt lat="44.4004155" lon="11.430047"><ele>107.0</ele><time>2026-03-30T09:50:57.871Z</time></trkpt><trkpt lat="44.4003179" lon="11.4301421"><ele>107.0</ele><time>2026-03-30T09:50:59.87Z</time></trkpt><trkpt lat="44.4002199" lon="11.4302335"><ele>106.99999999999999</ele><time>2026-03-30T09:51:01.868Z</time></trkpt><trkpt lat="44.4001172" lon="11.4303262"><ele>106.99999999999999</ele><time>2026-03-30T09:51:03.861Z</time></trkpt><trkpt lat="44.4000065" lon="11.4304083"><ele>107.0</ele><time>2026-03-30T09:51:05.879Z</time></trkpt><trkpt lat="44.3999485" lon="11.4304471"><ele>107.0</ele><time>2026-03-30T09:51:06.859Z</time></trkpt><trkpt lat="44.3998897" lon="11.430483"><ele>107.85714285714286</ele><time>2026-03-30T09:51:07.857Z</time></trkpt><trkpt lat="44.3998302" lon="11.4305186"><ele>108.71428571428572</ele><time>2026-03-30T09:51:08.862Z</time></trkpt><trkpt lat="44.3997698" lon="11.430553"><ele>109.57142857142858</ele><time>2026-03-30T09:51:09.862Z</time></trkpt><trkpt lat="44.3997085" lon="11.4305872"><ele>110.42857142857143</ele><time>2026-03-30T09:51:10.876Z</time></trkpt><trkpt lat="44.3996462" lon="11.4306189"><ele>111.28571428571428</ele><time>2026-03-30T09:51:11.863Z</time></trkpt><trkpt lat="44.3995839" lon="11.4306497"><ele>112.14285714285715</ele><time>2026-03-30T09:51:12.865Z</time></trkpt><trkpt lat="44.3995192" lon="11.4306814"><ele>113.0</ele><time>2026-03-30T09:51:13.863Z</time></trkpt><trkpt lat="44.3994518" lon="11.4307104"><ele>113.0</ele><time>2026-03-30T09:51:14.861Z</time></trkpt><trkpt lat="44.3993811" lon="11.4307313"><ele>113.0</ele><time>2026-03-30T09:51:15.872Z</time></trkpt><trkpt lat="44.3993088" lon="11.430741"><ele>113.0</ele><time>2026-03-30T09:51:16.853Z</time></trkpt><trkpt lat="44.3992363" lon="11.430742"><ele>113.0</ele><time>2026-03-30T09:51:17.867Z</time></trkpt><trkpt lat="44.3991639" lon="11.4307365"><ele>113.0</ele><time>2026-03-30T09:51:18.864Z</time></trkpt><trkpt lat="44.3990922" lon="11.4307273"><ele>113.0</ele><time>2026-03-30T09:51:19.86Z</time></trkpt><trkpt lat="44.3990212" lon="11.4307146"><ele>113.0</ele><time>2026-03-30T09:51:20.871Z</time></trkpt><trkpt lat="44.3989482" lon="11.4307012"><ele>113.0</ele><time>2026-03-30T09:51:21.862Z</time></trkpt><trkpt lat="44.3988787" lon="11.4306816"><ele>113.0</ele><time>2026-03-30T09:51:22.864Z</time></trkpt><trkpt lat="44.3988104" lon="11.4306631"><ele>113.0</ele><time>2026-03-30T09:51:23.86Z</time></trkpt><trkpt lat="44.3987403" lon="11.4306444"><ele>113.0</ele><time>2026-03-30T09:51:24.858Z</time></trkpt><trkpt lat="44.3986739" lon="11.4306278"><ele>113.0</ele><time>2026-03-30T09:51:25.869Z</time></trkpt><trkpt lat="44.3986058" lon="11.4306115"><ele>113.0</ele><time>2026-03-30T09:51:26.866Z</time></trkpt><trkpt lat="44.3985379" lon="11.4305945"><ele>113.0</ele><time>2026-03-30T09:51:27.869Z</time></trkpt><trkpt lat="44.3984699" lon="11.4305832"><ele>112.85714285714286</ele><time>2026-03-30T09:51:28.859Z</time></trkpt><trkpt lat="44.3984013" lon="11.4305756"><ele>112.71428571428571</ele><time>2026-03-30T09:51:29.863Z</time></trkpt><trkpt lat="44.3983339" lon="11.4305692"><ele>112.57142857142857</ele><time>2026-03-30T09:51:30.878Z</time></trkpt><trkpt lat="44.3982643" lon="11.4305583"><ele>112.42857142857143</ele><time>2026-03-30T09:51:31.875Z</time></trkpt><trkpt lat="44.3981969" lon="11.4305559"><ele>112.28571428571428</ele><time>2026-03-30T09:51:32.877Z</time></trkpt><trkpt lat="44.3981275" lon="11.430552"><ele>112.14285714285714</ele><time>2026-03-30T09:51:33.862Z</time></trkpt><trkpt lat="44.398058" lon="11.4305497"><ele>112.0</ele><time>2026-03-30T09:51:34.871Z</time></trkpt><trkpt lat="44.397989" lon="11.4305459"><ele>112.0</ele><time>2026-03-30T09:51:35.855Z</time></trkpt><trkpt lat="44.397919" lon="11.4305393"><ele>112.0</ele><time>2026-03-30T09:51:36.875Z</time></trkpt><trkpt lat="44.3978454" lon="11.4305348"><ele>112.0</ele><time>2026-03-30T09:51:37.855Z</time></trkpt><trkpt lat="44.397773" lon="11.4305269"><ele>112.0</ele><time>2026-03-30T09:51:38.861Z</time></trkpt><trkpt lat="44.3977009" lon="11.4305203"><ele>112.0</ele><time>2026-03-30T09:51:39.869Z</time></trkpt><trkpt lat="44.3976295" lon="11.4305133"><ele>112.0</ele><time>2026-03-30T09:51:40.865Z</time></trkpt><trkpt lat="44.3975597" lon="11.4305044"><ele>112.0</ele><time>2026-03-30T09:51:41.859Z</time></trkpt><trkpt lat="44.3974907" lon="11.4304962"><ele>112.0</ele><time>2026-03-30T09:51:42.867Z</time></trkpt><trkpt lat="44.3974211" lon="11.4304893"><ele>112.0</ele><time>2026-03-30T09:51:43.846Z</time></trkpt><trkpt lat="44.3973522" lon="11.4304819"><ele>112.0</ele><time>2026-03-30T09:51:44.869Z</time></trkpt><trkpt lat="44.3972829" lon="11.4304743"><ele>112.0</ele><time>2026-03-30T09:51:45.866Z</time></trkpt><trkpt lat="44.3972147" lon="11.4304674"><ele>112.0</ele><time>2026-03-30T09:51:46.865Z</time></trkpt><trkpt lat="44.3971475" lon="11.43046"><ele>112.0</ele><time>2026-03-30T09:51:47.863Z</time></trkpt><trkpt lat="44.3970789" lon="11.4304533"><ele>112.0</ele><time>2026-03-30T09:51:48.866Z</time></trkpt><trkpt lat="44.3970115" lon="11.4304466"><ele>111.14285714285714</ele><time>2026-03-30T09:51:49.863Z</time></trkpt><trkpt lat="44.3969455" lon="11.4304395"><ele>110.28571428571428</ele><time>2026-03-30T09:51:50.863Z</time></trkpt><trkpt lat="44.3968781" lon="11.4304332"><ele>109.42857142857143</ele><time>2026-03-30T09:51:51.872Z</time></trkpt><trkpt lat="44.396811" lon="11.4304261"><ele>108.57142857142857</ele><time>2026-03-30T09:51:52.859Z</time></trkpt><trkpt lat="44.3967442" lon="11.4304182"><ele>107.71428571428571</ele><time>2026-03-30T09:51:53.859Z</time></trkpt><trkpt lat="44.3966768" lon="11.4304113"><ele>106.85714285714286</ele><time>2026-03-30T09:51:54.866Z</time></trkpt><trkpt lat="44.3966097" lon="11.4304048"><ele>106.0</ele><time>2026-03-30T09:51:55.86Z</time></trkpt><trkpt lat="44.3965429" lon="11.4303988"><ele>106.0</ele><time>2026-03-30T09:51:56.872Z</time></trkpt><trkpt lat="44.3964742" lon="11.430392"><ele>106.0</ele><time>2026-03-30T09:51:57.859Z</time></trkpt><trkpt lat="44.3964087" lon="11.430384"><ele>106.0</ele><time>2026-03-30T09:51:58.87Z</time></trkpt><trkpt lat="44.3963432" lon="11.4303751"><ele>106.0</ele><time>2026-03-30T09:51:59.858Z</time></trkpt><trkpt lat="44.3962765" lon="11.4303694"><ele>106.0</ele><time>2026-03-30T09:52:00.856Z</time></trkpt><trkpt lat="44.3962089" lon="11.4303621"><ele>106.0</ele><time>2026-03-30T09:52:01.871Z</time></trkpt><trkpt lat="44.3961416" lon="11.4303543"><ele>106.0</ele><time>2026-03-30T09:52:02.86Z</time></trkpt><trkpt lat="44.396075" lon="11.4303433"><ele>106.57142857142857</ele><time>2026-03-30T09:52:03.865Z</time></trkpt><trkpt lat="44.3960079" lon="11.4303337"><ele>107.14285714285714</ele><time>2026-03-30T09:52:04.864Z</time></trkpt><trkpt lat="44.3959406" lon="11.4303253"><ele>107.71428571428571</ele><time>2026-03-30T09:52:05.867Z</time></trkpt><trkpt lat="44.3958728" lon="11.4303161"><ele>108.28571428571428</ele><time>2026-03-30T09:52:06.875Z</time></trkpt><trkpt lat="44.3958029" lon="11.4303068"><ele>108.85714285714286</ele><time>2026-03-30T09:52:07.864Z</time></trkpt><trkpt lat="44.3957365" lon="11.4302985"><ele>109.42857142857142</ele><time>2026-03-30T09:52:08.86Z</time></trkpt><trkpt lat="44.3956673" lon="11.4302887"><ele>110.0</ele><time>2026-03-30T09:52:09.861Z</time></trkpt><trkpt lat="44.3955994" lon="11.4302785"><ele>109.99999999999999</ele><time>2026-03-30T09:52:10.869Z</time></trkpt><trkpt lat="44.3955309" lon="11.430263"><ele>110.0</ele><time>2026-03-30T09:52:11.863Z</time></trkpt><trkpt lat="44.3954629" lon="11.4302427"><ele>110.0</ele><time>2026-03-30T09:52:12.866Z</time></trkpt><trkpt lat="44.3953945" lon="11.4302171"><ele>110.0</ele><time>2026-03-30T09:52:13.863Z</time></trkpt><trkpt lat="44.3953278" lon="11.4301839"><ele>110.0</ele><time>2026-03-30T09:52:14.867Z</time></trkpt><trkpt lat="44.3952617" lon="11.4301459"><ele>109.99999999999999</ele><time>2026-03-30T09:52:15.874Z</time></trkpt><trkpt lat="44.3951967" lon="11.4301049"><ele>110.0</ele><time>2026-03-30T09:52:16.86Z</time></trkpt><trkpt lat="44.3951344" lon="11.4300604"><ele>110.42857142857142</ele><time>2026-03-30T09:52:17.859Z</time></trkpt><trkpt lat="44.3950736" lon="11.430013"><ele>110.85714285714286</ele><time>2026-03-30T09:52:18.862Z</time></trkpt><trkpt lat="44.3950135" lon="11.4299646"><ele>111.28571428571428</ele><time>2026-03-30T09:52:19.864Z</time></trkpt><trkpt lat="44.3949538" lon="11.4299162"><ele>111.71428571428571</ele><time>2026-03-30T09:52:20.865Z</time></trkpt><trkpt lat="44.3948947" lon="11.4298678"><ele>112.14285714285714</ele><time>2026-03-30T09:52:21.871Z</time></trkpt><trkpt lat="44.3948349" lon="11.4298239"><ele>112.57142857142857</ele><time>2026-03-30T09:52:22.862Z</time></trkpt><trkpt lat="44.3947767" lon="11.4297796"><ele>113.0</ele><time>2026-03-30T09:52:23.857Z</time></trkpt><trkpt lat="44.3947186" lon="11.4297323"><ele>113.0</ele><time>2026-03-30T09:52:24.859Z</time></trkpt><trkpt lat="44.3946601" lon="11.429685"><ele>113.0</ele><time>2026-03-30T09:52:25.865Z</time></trkpt><trkpt lat="44.3946005" lon="11.4296372"><ele>113.0</ele><time>2026-03-30T09:52:26.857Z</time></trkpt><trkpt lat="44.3945395" lon="11.4295902"><ele>113.0</ele><time>2026-03-30T09:52:27.866Z</time></trkpt><trkpt lat="44.3944789" lon="11.4295429"><ele>113.0</ele><time>2026-03-30T09:52:28.867Z</time></trkpt><trkpt lat="44.3944181" lon="11.4294952"><ele>113.0</ele><time>2026-03-30T09:52:29.874Z</time></trkpt><trkpt lat="44.3943575" lon="11.4294476"><ele>113.0</ele><time>2026-03-30T09:52:30.867Z</time></trkpt><trkpt lat="44.3942968" lon="11.4294013"><ele>113.0</ele><time>2026-03-30T09:52:31.868Z</time></trkpt><trkpt lat="44.3942354" lon="11.429354"><ele>113.0</ele><time>2026-03-30T09:52:32.865Z</time></trkpt><trkpt lat="44.3941726" lon="11.429305"><ele>113.0</ele><time>2026-03-30T09:52:33.859Z</time></trkpt><trkpt lat="44.3941115" lon="11.4292544"><ele>113.0</ele><time>2026-03-30T09:52:34.858Z</time></trkpt><trkpt lat="44.3940506" lon="11.4292036"><ele>113.0</ele><time>2026-03-30T09:52:35.866Z</time></trkpt><trkpt lat="44.3939912" lon="11.4291548"><ele>113.0</ele><time>2026-03-30T09:52:36.866Z</time></trkpt><trkpt lat="44.3939308" lon="11.4291046"><ele>113.0</ele><time>2026-03-30T09:52:37.863Z</time></trkpt><trkpt lat="44.3938707" lon="11.4290577"><ele>113.14285714285714</ele><time>2026-03-30T09:52:38.857Z</time></trkpt><trkpt lat="44.393811" lon="11.4290109"><ele>113.28571428571428</ele><time>2026-03-30T09:52:39.86Z</time></trkpt><trkpt lat="44.3937505" lon="11.4289664"><ele>113.42857142857142</ele><time>2026-03-30T09:52:40.857Z</time></trkpt><trkpt lat="44.3936913" lon="11.428921"><ele>113.57142857142857</ele><time>2026-03-30T09:52:41.861Z</time></trkpt><trkpt lat="44.3936328" lon="11.4288762"><ele>113.7142857142857</ele><time>2026-03-30T09:52:42.863Z</time></trkpt><trkpt lat="44.3935742" lon="11.4288298"><ele>113.85714285714285</ele><time>2026-03-30T09:52:43.856Z</time></trkpt><trkpt lat="44.3935149" lon="11.428783"><ele>114.0</ele><time>2026-03-30T09:52:44.86Z</time></trkpt><trkpt lat="44.3934561" lon="11.4287374"><ele>113.57142857142857</ele><time>2026-03-30T09:52:45.856Z</time></trkpt><trkpt lat="44.3933978" lon="11.4286912"><ele>113.14285714285714</ele><time>2026-03-30T09:52:46.863Z</time></trkpt><trkpt lat="44.3933395" lon="11.4286459"><ele>112.71428571428571</ele><time>2026-03-30T09:52:47.85Z</time></trkpt><trkpt lat="44.3932807" lon="11.4286039"><ele>112.28571428571428</ele><time>2026-03-30T09:52:48.864Z</time></trkpt><trkpt lat="44.393221" lon="11.4285608"><ele>111.85714285714286</ele><time>2026-03-30T09:52:49.857Z</time></trkpt><trkpt lat="44.3931623" lon="11.4285188"><ele>111.42857142857142</ele><time>2026-03-30T09:52:50.85Z</time></trkpt><trkpt lat="44.3931021" lon="11.4284807"><ele>111.0</ele><time>2026-03-30T09:52:51.862Z</time></trkpt><trkpt lat="44.3930408" lon="11.4284488"><ele>111.14285714285714</ele><time>2026-03-30T09:52:52.85Z</time></trkpt><trkpt lat="44.3929789" lon="11.4284246"><ele>111.28571428571429</ele><time>2026-03-30T09:52:53.871Z</time></trkpt><trkpt lat="44.3929158" lon="11.4284112"><ele>111.42857142857143</ele><time>2026-03-30T09:52:54.869Z</time></trkpt><trkpt lat="44.3928521" lon="11.4284046"><ele>111.57142857142857</ele><time>2026-03-30T09:52:55.863Z</time></trkpt><trkpt lat="44.3927882" lon="11.4284045"><ele>111.71428571428572</ele><time>2026-03-30T09:52:56.86Z</time></trkpt><trkpt lat="44.3927243" lon="11.4284102"><ele>111.85714285714286</ele><time>2026-03-30T09:52:57.866Z</time></trkpt><trkpt lat="44.3926599" lon="11.4284226"><ele>112.0</ele><time>2026-03-30T09:52:58.86Z</time></trkpt><trkpt lat="44.3925953" lon="11.4284361"><ele>112.0</ele><time>2026-03-30T09:52:59.856Z</time></trkpt><trkpt lat="44.3925316" lon="11.4284548"><ele>112.0</ele><time>2026-03-30T09:53:00.875Z</time></trkpt><trkpt lat="44.3924683" lon="11.4284811"><ele>112.0</ele><time>2026-03-30T09:53:01.859Z</time></trkpt><trkpt lat="44.3924066" lon="11.4285127"><ele>112.0</ele><time>2026-03-30T09:53:02.864Z</time></trkpt><trkpt lat="44.3923459" lon="11.4285464"><ele>112.0</ele><time>2026-03-30T09:53:03.869Z</time></trkpt><trkpt lat="44.3922867" lon="11.4285866"><ele>112.0</ele><time>2026-03-30T09:53:04.862Z</time></trkpt><trkpt lat="44.3922258" lon="11.42863"><ele>112.0</ele><time>2026-03-30T09:53:05.87Z</time></trkpt><trkpt lat="44.3921653" lon="11.4286727"><ele>112.0</ele><time>2026-03-30T09:53:06.864Z</time></trkpt><trkpt lat="44.3921054" lon="11.4287151"><ele>112.0</ele><time>2026-03-30T09:53:07.862Z</time></trkpt><trkpt lat="44.3920472" lon="11.42876"><ele>112.0</ele><time>2026-03-30T09:53:08.861Z</time></trkpt><trkpt lat="44.3919888" lon="11.4288066"><ele>112.0</ele><time>2026-03-30T09:53:09.865Z</time></trkpt><trkpt lat="44.3919305" lon="11.4288517"><ele>112.0</ele><time>2026-03-30T09:53:10.872Z</time></trkpt><trkpt lat="44.3918724" lon="11.4288954"><ele>112.0</ele><time>2026-03-30T09:53:11.87Z</time></trkpt><trkpt lat="44.3918158" lon="11.428942"><ele>112.0</ele><time>2026-03-30T09:53:12.866Z</time></trkpt><trkpt lat="44.3917582" lon="11.4289895"><ele>112.28571428571428</ele><time>2026-03-30T09:53:13.861Z</time></trkpt><trkpt lat="44.3916966" lon="11.4290372"><ele>112.57142857142857</ele><time>2026-03-30T09:53:14.87Z</time></trkpt><trkpt lat="44.3916358" lon="11.4290936"><ele>112.85714285714286</ele><time>2026-03-30T09:53:15.861Z</time></trkpt><trkpt lat="44.3915779" lon="11.4291378"><ele>113.14285714285714</ele><time>2026-03-30T09:53:16.861Z</time></trkpt><trkpt lat="44.3915186" lon="11.4291814"><ele>113.42857142857142</ele><time>2026-03-30T09:53:17.855Z</time></trkpt><trkpt lat="44.3914617" lon="11.429227"><ele>113.71428571428571</ele><time>2026-03-30T09:53:18.866Z</time></trkpt><trkpt lat="44.3914051" lon="11.4292711"><ele>114.0</ele><time>2026-03-30T09:53:19.867Z</time></trkpt><trkpt lat="44.3913018" lon="11.4293544"><ele>114.0</ele><time>2026-03-30T09:53:21.867Z</time></trkpt><trkpt lat="44.391198" lon="11.4294516"><ele>114.0</ele><time>2026-03-30T09:53:23.872Z</time></trkpt><trkpt lat="44.3910993" lon="11.4295584"><ele>114.0</ele><time>2026-03-30T09:53:25.862Z</time></trkpt><trkpt lat="44.3910073" lon="11.4296658"><ele>114.0</ele><time>2026-03-30T09:53:27.858Z</time></trkpt><trkpt lat="44.3909223" lon="11.429783"><ele>114.4</ele><time>2026-03-30T09:53:29.863Z</time></trkpt><trkpt lat="44.390848" lon="11.4298936"><ele>114.80000000000001</ele><time>2026-03-30T09:53:31.867Z</time></trkpt><trkpt lat="44.3907815" lon="11.430012"><ele>115.19999999999999</ele><time>2026-03-30T09:53:33.854Z</time></trkpt><trkpt lat="44.3907291" lon="11.4301267"><ele>115.6</ele><time>2026-03-30T09:53:35.862Z</time></trkpt><trkpt lat="44.3906778" lon="11.4302447"><ele>116.0</ele><time>2026-03-30T09:53:37.861Z</time></trkpt><trkpt lat="44.3906344" lon="11.4303626"><ele>116.0</ele><time>2026-03-30T09:53:39.867Z</time></trkpt><trkpt lat="44.3905953" lon="11.4304672"><ele>116.0</ele><time>2026-03-30T09:53:41.863Z</time></trkpt><trkpt lat="44.3905525" lon="11.4305731"><ele>116.0</ele><time>2026-03-30T09:53:43.879Z</time></trkpt><trkpt lat="44.3905101" lon="11.4306902"><ele>116.0</ele><time>2026-03-30T09:53:45.87Z</time></trkpt><trkpt lat="44.3904578" lon="11.4308064"><ele>116.0</ele><time>2026-03-30T09:53:47.867Z</time></trkpt><trkpt lat="44.3904092" lon="11.4309203"><ele>116.6</ele><time>2026-03-30T09:53:49.863Z</time></trkpt><trkpt lat="44.3903583" lon="11.4310435"><ele>117.19999999999999</ele><time>2026-03-30T09:53:51.86Z</time></trkpt><trkpt lat="44.3903054" lon="11.4311646"><ele>117.80000000000001</ele><time>2026-03-30T09:53:53.868Z</time></trkpt><trkpt lat="44.390248" lon="11.4312806"><ele>118.4</ele><time>2026-03-30T09:53:55.868Z</time></trkpt><trkpt lat="44.3901852" lon="11.4313947"><ele>119.0</ele><time>2026-03-30T09:53:57.867Z</time></trkpt><trkpt lat="44.3901188" lon="11.4315065"><ele>120.4</ele><time>2026-03-30T09:53:59.866Z</time></trkpt><trkpt lat="44.3900542" lon="11.43161"><ele>121.80000000000001</ele><time>2026-03-30T09:54:01.857Z</time></trkpt><trkpt lat="44.3899889" lon="11.4317118"><ele>123.19999999999999</ele><time>2026-03-30T09:54:03.873Z</time></trkpt><trkpt lat="44.3899075" lon="11.4318244"><ele>124.6</ele><time>2026-03-30T09:54:05.87Z</time></trkpt><trkpt lat="44.3898299" lon="11.4319241"><ele>126.0</ele><time>2026-03-30T09:54:07.87Z</time></trkpt><trkpt lat="44.3897531" lon="11.4320261"><ele>126.0</ele><time>2026-03-30T09:54:09.86Z</time></trkpt><trkpt lat="44.389678" lon="11.4321264"><ele>126.0</ele><time>2026-03-30T09:54:11.864Z</time></trkpt><trkpt lat="44.3896027" lon="11.4322222"><ele>126.0</ele><time>2026-03-30T09:54:13.868Z</time></trkpt><trkpt lat="44.3895267" lon="11.4323176"><ele>126.0</ele><time>2026-03-30T09:54:15.864Z</time></trkpt><trkpt lat="44.3894476" lon="11.4324106"><ele>126.0</ele><time>2026-03-30T09:54:17.869Z</time></trkpt><trkpt lat="44.3893627" lon="11.4324899"><ele>126.6</ele><time>2026-03-30T09:54:19.857Z</time></trkpt><trkpt lat="44.389268" lon="11.4325643"><ele>127.19999999999999</ele><time>2026-03-30T09:54:21.861Z</time></trkpt><trkpt lat="44.3891671" lon="11.4326363"><ele>127.80000000000001</ele><time>2026-03-30T09:54:23.868Z</time></trkpt><trkpt lat="44.3890624" lon="11.4327084"><ele>128.4</ele><time>2026-03-30T09:54:25.863Z</time></trkpt><trkpt lat="44.3889947" lon="11.4327307"><ele>129.0</ele><time>2026-03-30T09:54:26.857Z</time></trkpt><trkpt lat="44.3889282" lon="11.4327462"><ele>128.99999999999997</ele><time>2026-03-30T09:54:27.879Z</time></trkpt><trkpt lat="44.3888633" lon="11.4327543"><ele>129.0</ele><time>2026-03-30T09:54:28.868Z</time></trkpt><trkpt lat="44.3887989" lon="11.4327602"><ele>129.0</ele><time>2026-03-30T09:54:29.873Z</time></trkpt><trkpt lat="44.3887342" lon="11.4327628"><ele>129.0</ele><time>2026-03-30T09:54:30.856Z</time></trkpt><trkpt lat="44.3886674" lon="11.4327588"><ele>129.0</ele><time>2026-03-30T09:54:31.86Z</time></trkpt><trkpt lat="44.3886009" lon="11.4327587"><ele>128.99999999999997</ele><time>2026-03-30T09:54:32.859Z</time></trkpt><trkpt lat="44.3885362" lon="11.4327654"><ele>129.0</ele><time>2026-03-30T09:54:33.867Z</time></trkpt><trkpt lat="44.3884685" lon="11.4327613"><ele>128.42857142857142</ele><time>2026-03-30T09:54:34.867Z</time></trkpt><trkpt lat="44.3884016" lon="11.4327563"><ele>127.85714285714286</ele><time>2026-03-30T09:54:35.859Z</time></trkpt><trkpt lat="44.3883342" lon="11.4327554"><ele>127.28571428571428</ele><time>2026-03-30T09:54:36.861Z</time></trkpt><trkpt lat="44.3882675" lon="11.4327483"><ele>126.71428571428571</ele><time>2026-03-30T09:54:37.862Z</time></trkpt><trkpt lat="44.3882014" lon="11.4327355"><ele>126.14285714285714</ele><time>2026-03-30T09:54:38.87Z</time></trkpt><trkpt lat="44.3881353" lon="11.4327203"><ele>125.57142857142857</ele><time>2026-03-30T09:54:39.871Z</time></trkpt><trkpt lat="44.3880706" lon="11.4327032"><ele>125.0</ele><time>2026-03-30T09:54:40.84Z</time></trkpt><trkpt lat="44.3880066" lon="11.4326749"><ele>125.0</ele><time>2026-03-30T09:54:41.876Z</time></trkpt><trkpt lat="44.3879464" lon="11.4326399"><ele>125.0</ele><time>2026-03-30T09:54:42.86Z</time></trkpt><trkpt lat="44.3878865" lon="11.4326056"><ele>125.0</ele><time>2026-03-30T09:54:43.871Z</time></trkpt><trkpt lat="44.3878257" lon="11.4325648"><ele>125.0</ele><time>2026-03-30T09:54:44.858Z</time></trkpt><trkpt lat="44.3877661" lon="11.4325242"><ele>125.0</ele><time>2026-03-30T09:54:45.864Z</time></trkpt><trkpt lat="44.3877059" lon="11.4324828"><ele>125.0</ele><time>2026-03-30T09:54:46.866Z</time></trkpt><trkpt lat="44.387645" lon="11.432444"><ele>125.0</ele><time>2026-03-30T09:54:47.864Z</time></trkpt><trkpt lat="44.3875841" lon="11.4324073"><ele>125.0</ele><time>2026-03-30T09:54:48.869Z</time></trkpt><trkpt lat="44.3875234" lon="11.4323732"><ele>125.0</ele><time>2026-03-30T09:54:49.861Z</time></trkpt><trkpt lat="44.3874617" lon="11.4323401"><ele>125.0</ele><time>2026-03-30T09:54:50.858Z</time></trkpt><trkpt lat="44.3873973" lon="11.4323116"><ele>125.0</ele><time>2026-03-30T09:54:51.856Z</time></trkpt><trkpt lat="44.3873314" lon="11.4322873"><ele>125.0</ele><time>2026-03-30T09:54:52.855Z</time></trkpt><trkpt lat="44.3872644" lon="11.432269"><ele>125.0</ele><time>2026-03-30T09:54:53.864Z</time></trkpt><trkpt lat="44.3871963" lon="11.4322611"><ele>125.0</ele><time>2026-03-30T09:54:54.872Z</time></trkpt><trkpt lat="44.3871275" lon="11.4322586"><ele>124.85714285714286</ele><time>2026-03-30T09:54:55.866Z</time></trkpt><trkpt lat="44.3870591" lon="11.4322636"><ele>124.71428571428572</ele><time>2026-03-30T09:54:56.86Z</time></trkpt><trkpt lat="44.3869911" lon="11.432275"><ele>124.57142857142858</ele><time>2026-03-30T09:54:57.869Z</time></trkpt><trkpt lat="44.3869242" lon="11.4322885"><ele>124.42857142857143</ele><time>2026-03-30T09:54:58.867Z</time></trkpt><trkpt lat="44.3868572" lon="11.432305"><ele>124.2857142857143</ele><time>2026-03-30T09:54:59.865Z</time></trkpt><trkpt lat="44.3867922" lon="11.4323193"><ele>124.14285714285715</ele><time>2026-03-30T09:55:00.868Z</time></trkpt><trkpt lat="44.3867271" lon="11.4323364"><ele>124.0</ele><time>2026-03-30T09:55:01.867Z</time></trkpt><trkpt lat="44.3866627" lon="11.4323549"><ele>124.0</ele><time>2026-03-30T09:55:02.86Z</time></trkpt><trkpt lat="44.3865973" lon="11.4323728"><ele>124.00000000000001</ele><time>2026-03-30T09:55:03.868Z</time></trkpt><trkpt lat="44.3865301" lon="11.4323877"><ele>124.0</ele><time>2026-03-30T09:55:04.873Z</time></trkpt><trkpt lat="44.386463" lon="11.4324028"><ele>124.0</ele><time>2026-03-30T09:55:05.864Z</time></trkpt><trkpt lat="44.3863949" lon="11.4324167"><ele>124.00000000000001</ele><time>2026-03-30T09:55:06.866Z</time></trkpt><trkpt lat="44.3863262" lon="11.4324296"><ele>124.0</ele><time>2026-03-30T09:55:07.866Z</time></trkpt><trkpt lat="44.3862569" lon="11.432443"><ele>124.0</ele><time>2026-03-30T09:55:08.863Z</time></trkpt><trkpt lat="44.3861874" lon="11.4324559"><ele>123.85714285714286</ele><time>2026-03-30T09:55:09.858Z</time></trkpt><trkpt lat="44.3861152" lon="11.4324673"><ele>123.71428571428572</ele><time>2026-03-30T09:55:10.864Z</time></trkpt><trkpt lat="44.3860423" lon="11.4324771"><ele>123.57142857142858</ele><time>2026-03-30T09:55:11.868Z</time></trkpt><trkpt lat="44.385969" lon="11.432485"><ele>123.42857142857144</ele><time>2026-03-30T09:55:12.87Z</time></trkpt><trkpt lat="44.3858962" lon="11.4324918"><ele>123.28571428571429</ele><time>2026-03-30T09:55:13.868Z</time></trkpt><trkpt lat="44.3858235" lon="11.4324985"><ele>123.14285714285717</ele><time>2026-03-30T09:55:14.866Z</time></trkpt><trkpt lat="44.3857514" lon="11.4325045"><ele>123.00000000000001</ele><time>2026-03-30T09:55:15.872Z</time></trkpt><trkpt lat="44.3856781" lon="11.4325131"><ele>123.00000000000001</ele><time>2026-03-30T09:55:16.867Z</time></trkpt><trkpt lat="44.3856049" lon="11.4325198"><ele>123.0</ele><time>2026-03-30T09:55:17.864Z</time></trkpt><trkpt lat="44.3855317" lon="11.4325267"><ele>123.00000000000001</ele><time>2026-03-30T09:55:18.863Z</time></trkpt><trkpt lat="44.3854585" lon="11.4325327"><ele>123.00000000000001</ele><time>2026-03-30T09:55:19.863Z</time></trkpt><trkpt lat="44.3853855" lon="11.432538"><ele>123.0</ele><time>2026-03-30T09:55:20.865Z</time></trkpt><trkpt lat="44.3853104" lon="11.4325456"><ele>123.00000000000001</ele><time>2026-03-30T09:55:21.868Z</time></trkpt><trkpt lat="44.3852358" lon="11.4325528"><ele>123.00000000000001</ele><time>2026-03-30T09:55:22.877Z</time></trkpt><trkpt lat="44.3851676" lon="11.432559"><ele>122.71428571428572</ele><time>2026-03-30T09:55:23.863Z</time></trkpt><trkpt lat="44.3850991" lon="11.4325689"><ele>122.42857142857143</ele><time>2026-03-30T09:55:24.866Z</time></trkpt><trkpt lat="44.3850298" lon="11.4325751"><ele>122.14285714285714</ele><time>2026-03-30T09:55:25.87Z</time></trkpt><trkpt lat="44.384963" lon="11.4325814"><ele>121.85714285714286</ele><time>2026-03-30T09:55:26.863Z</time></trkpt><trkpt lat="44.3848935" lon="11.4325859"><ele>121.57142857142856</ele><time>2026-03-30T09:55:27.859Z</time></trkpt><trkpt lat="44.3848224" lon="11.4325884"><ele>121.28571428571428</ele><time>2026-03-30T09:55:28.865Z</time></trkpt><trkpt lat="44.3847538" lon="11.4325864"><ele>121.0</ele><time>2026-03-30T09:55:29.875Z</time></trkpt><trkpt lat="44.3846878" lon="11.4325827"><ele>121.00000000000001</ele><time>2026-03-30T09:55:30.868Z</time></trkpt><trkpt lat="44.3846212" lon="11.4325748"><ele>121.0</ele><time>2026-03-30T09:55:31.872Z</time></trkpt><trkpt lat="44.3844954" lon="11.4325553"><ele>121.0</ele><time>2026-03-30T09:55:33.862Z</time></trkpt><trkpt lat="44.3844317" lon="11.4325392"><ele>121.0</ele><time>2026-03-30T09:55:34.87Z</time></trkpt><trkpt lat="44.3843675" lon="11.4325225"><ele>121.00000000000001</ele><time>2026-03-30T09:55:35.863Z</time></trkpt><trkpt lat="44.3843051" lon="11.4325024"><ele>121.0</ele><time>2026-03-30T09:55:36.864Z</time></trkpt><trkpt lat="44.3841869" lon="11.4324499"><ele>121.0</ele><time>2026-03-30T09:55:38.866Z</time></trkpt><trkpt lat="44.3840732" lon="11.4323866"><ele>121.0</ele><time>2026-03-30T09:55:40.873Z</time></trkpt><trkpt lat="44.3839645" lon="11.4323204"><ele>121.0</ele><time>2026-03-30T09:55:42.861Z</time></trkpt><trkpt lat="44.3838588" lon="11.4322419"><ele>121.0</ele><time>2026-03-30T09:55:44.876Z</time></trkpt><trkpt lat="44.3837538" lon="11.4321653"><ele>123.0</ele><time>2026-03-30T09:55:46.864Z</time></trkpt><trkpt lat="44.3836526" lon="11.432081"><ele>125.0</ele><time>2026-03-30T09:55:48.869Z</time></trkpt><trkpt lat="44.3835503" lon="11.4320007"><ele>127.0</ele><time>2026-03-30T09:55:50.867Z</time></trkpt><trkpt lat="44.3834521" lon="11.43192"><ele>129.0</ele><time>2026-03-30T09:55:52.86Z</time></trkpt><trkpt lat="44.3833573" lon="11.4318383"><ele>129.0</ele><time>2026-03-30T09:55:54.873Z</time></trkpt><trkpt lat="44.3832661" lon="11.4317584"><ele>129.0</ele><time>2026-03-30T09:55:56.863Z</time></trkpt><trkpt lat="44.3831774" lon="11.4316849"><ele>129.0</ele><time>2026-03-30T09:55:58.866Z</time></trkpt><trkpt lat="44.383093" lon="11.4316099"><ele>129.0</ele><time>2026-03-30T09:56:00.863Z</time></trkpt><trkpt lat="44.3830094" lon="11.4315413"><ele>129.0</ele><time>2026-03-30T09:56:02.867Z</time></trkpt><trkpt lat="44.3829296" lon="11.431476"><ele>129.2</ele><time>2026-03-30T09:56:04.869Z</time></trkpt><trkpt lat="44.382854" lon="11.4314154"><ele>129.4</ele><time>2026-03-30T09:56:06.86Z</time></trkpt><trkpt lat="44.3827773" lon="11.4313511"><ele>129.6</ele><time>2026-03-30T09:56:08.875Z</time></trkpt><trkpt lat="44.3826991" lon="11.4312851"><ele>129.8</ele><time>2026-03-30T09:56:10.861Z</time></trkpt><trkpt lat="44.3826201" lon="11.431221"><ele>130.0</ele><time>2026-03-30T09:56:12.855Z</time></trkpt><trkpt lat="44.3825409" lon="11.4311573"><ele>130.0</ele><time>2026-03-30T09:56:14.869Z</time></trkpt><trkpt lat="44.3824596" lon="11.4310924"><ele>130.0</ele><time>2026-03-30T09:56:16.862Z</time></trkpt><trkpt lat="44.382378" lon="11.4310266"><ele>130.0</ele><time>2026-03-30T09:56:18.874Z</time></trkpt><trkpt lat="44.3822965" lon="11.4309563"><ele>130.0</ele><time>2026-03-30T09:56:20.865Z</time></trkpt><trkpt lat="44.3822115" lon="11.4308834"><ele>130.0</ele><time>2026-03-30T09:56:22.872Z</time></trkpt><trkpt lat="44.3821284" lon="11.4308118"><ele>129.8</ele><time>2026-03-30T09:56:24.863Z</time></trkpt><trkpt lat="44.382046" lon="11.4307289"><ele>129.6</ele><time>2026-03-30T09:56:26.867Z</time></trkpt><trkpt lat="44.3819697" lon="11.430651"><ele>129.4</ele><time>2026-03-30T09:56:28.866Z</time></trkpt><trkpt lat="44.3818895" lon="11.4305692"><ele>129.2</ele><time>2026-03-30T09:56:30.867Z</time></trkpt><trkpt lat="44.3818119" lon="11.4304876"><ele>129.0</ele><time>2026-03-30T09:56:32.873Z</time></trkpt><trkpt lat="44.3817331" lon="11.4304052"><ele>129.0</ele><time>2026-03-30T09:56:34.866Z</time></trkpt><trkpt lat="44.3816526" lon="11.4303167"><ele>129.0</ele><time>2026-03-30T09:56:36.872Z</time></trkpt><trkpt lat="44.3815706" lon="11.4302328"><ele>129.0</ele><time>2026-03-30T09:56:38.87Z</time></trkpt><trkpt lat="44.3814883" lon="11.4301421"><ele>129.0</ele><time>2026-03-30T09:56:40.867Z</time></trkpt><trkpt lat="44.3814067" lon="11.4300435"><ele>129.0</ele><time>2026-03-30T09:56:42.868Z</time></trkpt><trkpt lat="44.3813253" lon="11.4299395"><ele>129.2</ele><time>2026-03-30T09:56:44.875Z</time></trkpt><trkpt lat="44.381247" lon="11.4298319"><ele>129.4</ele><time>2026-03-30T09:56:46.865Z</time></trkpt><trkpt lat="44.3811679" lon="11.4297195"><ele>129.6</ele><time>2026-03-30T09:56:48.873Z</time></trkpt><trkpt lat="44.3810922" lon="11.4296027"><ele>129.8</ele><time>2026-03-30T09:56:50.861Z</time></trkpt><trkpt lat="44.3810162" lon="11.4294848"><ele>130.0</ele><time>2026-03-30T09:56:52.866Z</time></trkpt><trkpt lat="44.3809415" lon="11.4293645"><ele>130.0</ele><time>2026-03-30T09:56:54.855Z</time></trkpt><trkpt lat="44.3808666" lon="11.4292402"><ele>130.0</ele><time>2026-03-30T09:56:56.874Z</time></trkpt><trkpt lat="44.3807884" lon="11.4291158"><ele>130.0</ele><time>2026-03-30T09:56:58.875Z</time></trkpt><trkpt lat="44.3807105" lon="11.4289834"><ele>130.0</ele><time>2026-03-30T09:57:00.864Z</time></trkpt><trkpt lat="44.3806349" lon="11.4288426"><ele>129.66666666666669</ele><time>2026-03-30T09:57:02.873Z</time></trkpt><trkpt lat="44.3806009" lon="11.4287681"><ele>129.33333333333334</ele><time>2026-03-30T09:57:03.871Z</time></trkpt><trkpt lat="44.3805377" lon="11.428616"><ele>129.0</ele><time>2026-03-30T09:57:05.869Z</time></trkpt><trkpt lat="44.380509" lon="11.4285372"><ele>128.66666666666666</ele><time>2026-03-30T09:57:06.869Z</time></trkpt><trkpt lat="44.3804541" lon="11.4283791"><ele>128.33333333333331</ele><time>2026-03-30T09:57:08.872Z</time></trkpt><trkpt lat="44.3804282" lon="11.4282976"><ele>128.0</ele><time>2026-03-30T09:57:09.857Z</time></trkpt><trkpt lat="44.3804015" lon="11.4282149"><ele>128.42857142857142</ele><time>2026-03-30T09:57:10.86Z</time></trkpt><trkpt lat="44.3803727" lon="11.4281346"><ele>128.85714285714283</ele><time>2026-03-30T09:57:11.856Z</time></trkpt><trkpt lat="44.3803445" lon="11.4280532"><ele>129.28571428571428</ele><time>2026-03-30T09:57:12.864Z</time></trkpt><trkpt lat="44.3803139" lon="11.4279731"><ele>129.71428571428572</ele><time>2026-03-30T09:57:13.858Z</time></trkpt><trkpt lat="44.38028" lon="11.4278966"><ele>130.14285714285717</ele><time>2026-03-30T09:57:14.856Z</time></trkpt><trkpt lat="44.3802411" lon="11.4278233"><ele>130.57142857142858</ele><time>2026-03-30T09:57:15.871Z</time></trkpt><trkpt lat="44.3801978" lon="11.4277555"><ele>131.0</ele><time>2026-03-30T09:57:16.872Z</time></trkpt><trkpt lat="44.3801506" lon="11.4276922"><ele>131.0</ele><time>2026-03-30T09:57:17.862Z</time></trkpt><trkpt lat="44.3800997" lon="11.4276361"><ele>131.0</ele><time>2026-03-30T09:57:18.87Z</time></trkpt><trkpt lat="44.3800461" lon="11.4275845"><ele>131.0</ele><time>2026-03-30T09:57:19.866Z</time></trkpt><trkpt lat="44.3799907" lon="11.4275387"><ele>131.0</ele><time>2026-03-30T09:57:20.866Z</time></trkpt><trkpt lat="44.3799351" lon="11.4274931"><ele>131.0</ele><time>2026-03-30T09:57:21.868Z</time></trkpt><trkpt lat="44.3798791" lon="11.4274523"><ele>131.0</ele><time>2026-03-30T09:57:22.873Z</time></trkpt><trkpt lat="44.3798212" lon="11.4274128"><ele>131.0</ele><time>2026-03-30T09:57:23.857Z</time></trkpt><trkpt lat="44.3797639" lon="11.4273742"><ele>131.75</ele><time>2026-03-30T09:57:24.863Z</time></trkpt><trkpt lat="44.3796512" lon="11.4273023"><ele>132.5</ele><time>2026-03-30T09:57:26.86Z</time></trkpt><trkpt lat="44.3795392" lon="11.4272323"><ele>133.25</ele><time>2026-03-30T09:57:28.864Z</time></trkpt><trkpt lat="44.3794313" lon="11.4271634"><ele>134.0</ele><time>2026-03-30T09:57:30.882Z</time></trkpt><trkpt lat="44.3793212" lon="11.4270975"><ele>132.25</ele><time>2026-03-30T09:57:32.872Z</time></trkpt><trkpt lat="44.3792122" lon="11.427036"><ele>130.5</ele><time>2026-03-30T09:57:34.862Z</time></trkpt><trkpt lat="44.3791033" lon="11.4269814"><ele>128.75</ele><time>2026-03-30T09:57:36.864Z</time></trkpt><trkpt lat="44.3789941" lon="11.426935"><ele>127.0</ele><time>2026-03-30T09:57:38.873Z</time></trkpt><trkpt lat="44.3788786" lon="11.4268915"><ele>127.75</ele><time>2026-03-30T09:57:40.868Z</time></trkpt><trkpt lat="44.378762" lon="11.4268518"><ele>128.5</ele><time>2026-03-30T09:57:42.867Z</time></trkpt><trkpt lat="44.3786435" lon="11.426811"><ele>129.25</ele><time>2026-03-30T09:57:44.865Z</time></trkpt><trkpt lat="44.378526" lon="11.4267655"><ele>130.0</ele><time>2026-03-30T09:57:46.868Z</time></trkpt><trkpt lat="44.3784101" lon="11.4267216"><ele>130.0</ele><time>2026-03-30T09:57:48.865Z</time></trkpt><trkpt lat="44.3782937" lon="11.4266754"><ele>130.0</ele><time>2026-03-30T09:57:50.862Z</time></trkpt><trkpt lat="44.3781782" lon="11.4266374"><ele>130.0</ele><time>2026-03-30T09:57:52.868Z</time></trkpt><trkpt lat="44.3780606" lon="11.4266058"><ele>130.0</ele><time>2026-03-30T09:57:54.873Z</time></trkpt><trkpt lat="44.3779458" lon="11.4265686"><ele>130.5</ele><time>2026-03-30T09:57:56.858Z</time></trkpt><trkpt lat="44.3778314" lon="11.4265291"><ele>131.0</ele><time>2026-03-30T09:57:58.872Z</time></trkpt><trkpt lat="44.3777166" lon="11.4264901"><ele>131.5</ele><time>2026-03-30T09:58:00.866Z</time></trkpt><trkpt lat="44.3776019" lon="11.4264552"><ele>132.0</ele><time>2026-03-30T09:58:02.865Z</time></trkpt><trkpt lat="44.377487" lon="11.4264174"><ele>132.0</ele><time>2026-03-30T09:58:04.863Z</time></trkpt><trkpt lat="44.3773769" lon="11.4263828"><ele>132.0</ele><time>2026-03-30T09:58:06.857Z</time></trkpt><trkpt lat="44.3772604" lon="11.4263597"><ele>132.0</ele><time>2026-03-30T09:58:08.862Z</time></trkpt><trkpt lat="44.3771412" lon="11.4263541"><ele>132.0</ele><time>2026-03-30T09:58:10.856Z</time></trkpt><trkpt lat="44.3770201" lon="11.426363"><ele>132.5</ele><time>2026-03-30T09:58:12.867Z</time></trkpt><trkpt lat="44.3769" lon="11.4263873"><ele>133.0</ele><time>2026-03-30T09:58:14.862Z</time></trkpt><trkpt lat="44.3767762" lon="11.4264089"><ele>133.5</ele><time>2026-03-30T09:58:16.865Z</time></trkpt><trkpt lat="44.3766541" lon="11.4264276"><ele>134.0</ele><time>2026-03-30T09:58:18.868Z</time></trkpt><trkpt lat="44.3765326" lon="11.4264478"><ele>134.0</ele><time>2026-03-30T09:58:20.872Z</time></trkpt><trkpt lat="44.3764131" lon="11.4264648"><ele>134.0</ele><time>2026-03-30T09:58:22.866Z</time></trkpt><trkpt lat="44.3762947" lon="11.4264798"><ele>134.0</ele><time>2026-03-30T09:58:24.868Z</time></trkpt><trkpt lat="44.3761728" lon="11.4264947"><ele>134.0</ele><time>2026-03-30T09:58:26.865Z</time></trkpt><trkpt lat="44.3760529" lon="11.4265224"><ele>134.0</ele><time>2026-03-30T09:58:28.865Z</time></trkpt><trkpt lat="44.3759325" lon="11.4265431"><ele>134.0</ele><time>2026-03-30T09:58:30.862Z</time></trkpt><trkpt lat="44.3758145" lon="11.4265648"><ele>134.0</ele><time>2026-03-30T09:58:32.864Z</time></trkpt><trkpt lat="44.3756994" lon="11.4265906"><ele>134.0</ele><time>2026-03-30T09:58:34.861Z</time></trkpt><trkpt lat="44.3755838" lon="11.4266192"><ele>134.5</ele><time>2026-03-30T09:58:36.865Z</time></trkpt><trkpt lat="44.3754688" lon="11.4266475"><ele>135.0</ele><time>2026-03-30T09:58:38.867Z</time></trkpt><trkpt lat="44.3753591" lon="11.4266781"><ele>135.5</ele><time>2026-03-30T09:58:40.863Z</time></trkpt><trkpt lat="44.3752428" lon="11.4267118"><ele>136.0</ele><time>2026-03-30T09:58:42.869Z</time></trkpt><trkpt lat="44.3751281" lon="11.4267451"><ele>136.0</ele><time>2026-03-30T09:58:44.868Z</time></trkpt><trkpt lat="44.3750152" lon="11.4267776"><ele>136.0</ele><time>2026-03-30T09:58:46.864Z</time></trkpt><trkpt lat="44.3749027" lon="11.4268052"><ele>136.0</ele><time>2026-03-30T09:58:48.867Z</time></trkpt><trkpt lat="44.3747884" lon="11.4268314"><ele>136.0</ele><time>2026-03-30T09:58:50.87Z</time></trkpt><trkpt lat="44.3746698" lon="11.42686"><ele>135.5</ele><time>2026-03-30T09:58:52.865Z</time></trkpt><trkpt lat="44.3745517" lon="11.4268933"><ele>135.0</ele><time>2026-03-30T09:58:54.874Z</time></trkpt><trkpt lat="44.3744358" lon="11.426937"><ele>134.5</ele><time>2026-03-30T09:58:56.875Z</time></trkpt><trkpt lat="44.3743192" lon="11.4269863"><ele>134.0</ele><time>2026-03-30T09:58:58.873Z</time></trkpt><trkpt lat="44.374206" lon="11.4270404"><ele>134.0</ele><time>2026-03-30T09:59:00.855Z</time></trkpt><trkpt lat="44.3740922" lon="11.4270963"><ele>134.0</ele><time>2026-03-30T09:59:02.865Z</time></trkpt><trkpt lat="44.3739821" lon="11.427154"><ele>134.0</ele><time>2026-03-30T09:59:04.865Z</time></trkpt><trkpt lat="44.3738743" lon="11.4272145"><ele>134.0</ele><time>2026-03-30T09:59:06.865Z</time></trkpt><trkpt lat="44.3737666" lon="11.4272704"><ele>135.25</ele><time>2026-03-30T09:59:08.867Z</time></trkpt><trkpt lat="44.3736577" lon="11.4273274"><ele>136.5</ele><time>2026-03-30T09:59:10.862Z</time></trkpt><trkpt lat="44.3735486" lon="11.4273853"><ele>137.75</ele><time>2026-03-30T09:59:12.866Z</time></trkpt><trkpt lat="44.3734404" lon="11.4274425"><ele>139.0</ele><time>2026-03-30T09:59:14.864Z</time></trkpt><trkpt lat="44.3733349" lon="11.4274971"><ele>139.0</ele><time>2026-03-30T09:59:16.859Z</time></trkpt><trkpt lat="44.3732282" lon="11.4275451"><ele>139.0</ele><time>2026-03-30T09:59:18.86Z</time></trkpt><trkpt lat="44.3731186" lon="11.4275807"><ele>139.0</ele><time>2026-03-30T09:59:20.875Z</time></trkpt><trkpt lat="44.3730083" lon="11.4275977"><ele>139.0</ele><time>2026-03-30T09:59:22.857Z</time></trkpt><trkpt lat="44.3728934" lon="11.4275989"><ele>139.6</ele><time>2026-03-30T09:59:24.866Z</time></trkpt><trkpt lat="44.3727806" lon="11.4275893"><ele>140.2</ele><time>2026-03-30T09:59:26.863Z</time></trkpt><trkpt lat="44.3726704" lon="11.4275685"><ele>140.79999999999998</ele><time>2026-03-30T09:59:28.862Z</time></trkpt><trkpt lat="44.3725659" lon="11.4275403"><ele>141.4</ele><time>2026-03-30T09:59:30.869Z</time></trkpt><trkpt lat="44.3724647" lon="11.4275086"><ele>142.0</ele><time>2026-03-30T09:59:32.86Z</time></trkpt><trkpt lat="44.3723701" lon="11.427473"><ele>142.0</ele><time>2026-03-30T09:59:34.864Z</time></trkpt><trkpt lat="44.3722824" lon="11.427437"><ele>142.0</ele><time>2026-03-30T09:59:36.865Z</time></trkpt><trkpt lat="44.3721961" lon="11.4273966"><ele>142.0</ele><time>2026-03-30T09:59:38.875Z</time></trkpt><trkpt lat="44.3721081" lon="11.4273571"><ele>142.0</ele><time>2026-03-30T09:59:40.857Z</time></trkpt><trkpt lat="44.3720231" lon="11.4273233"><ele>142.0</ele><time>2026-03-30T09:59:42.866Z</time></trkpt><trkpt lat="44.3719396" lon="11.4272852"><ele>142.0</ele><time>2026-03-30T09:59:44.859Z</time></trkpt><trkpt lat="44.3718554" lon="11.4272496"><ele>142.0</ele><time>2026-03-30T09:59:46.857Z</time></trkpt><trkpt lat="44.371773" lon="11.4272164"><ele>142.0</ele><time>2026-03-30T09:59:48.869Z</time></trkpt><trkpt lat="44.3716914" lon="11.4271816"><ele>142.0</ele><time>2026-03-30T09:59:50.865Z</time></trkpt><trkpt lat="44.3716119" lon="11.4271435"><ele>142.0</ele><time>2026-03-30T09:59:52.867Z</time></trkpt><trkpt lat="44.3715337" lon="11.4271081"><ele>142.0</ele><time>2026-03-30T09:59:54.861Z</time></trkpt><trkpt lat="44.371455" lon="11.4270764"><ele>142.0</ele><time>2026-03-30T09:59:56.867Z</time></trkpt><trkpt lat="44.3713794" lon="11.4270418"><ele>142.0</ele><time>2026-03-30T09:59:58.849Z</time></trkpt><trkpt lat="44.3713041" lon="11.427008"><ele>142.0</ele><time>2026-03-30T10:00:00.863Z</time></trkpt><trkpt lat="44.3712272" lon="11.4269746"><ele>142.0</ele><time>2026-03-30T10:00:02.856Z</time></trkpt><trkpt lat="44.3711503" lon="11.4269395"><ele>142.0</ele><time>2026-03-30T10:00:04.866Z</time></trkpt><trkpt lat="44.3710755" lon="11.4269011"><ele>142.0</ele><time>2026-03-30T10:00:06.867Z</time></trkpt><trkpt lat="44.3710002" lon="11.4268588"><ele>144.0</ele><time>2026-03-30T10:00:08.856Z</time></trkpt><trkpt lat="44.3709218" lon="11.4268173"><ele>146.0</ele><time>2026-03-30T10:00:10.86Z</time></trkpt><trkpt lat="44.3708423" lon="11.426767"><ele>148.0</ele><time>2026-03-30T10:00:12.877Z</time></trkpt><trkpt lat="44.370763" lon="11.4267126"><ele>150.0</ele><time>2026-03-30T10:00:14.856Z</time></trkpt><trkpt lat="44.3706812" lon="11.4266372"><ele>152.0</ele><time>2026-03-30T10:00:16.873Z</time></trkpt><trkpt lat="44.3706002" lon="11.4265603"><ele>152.6</ele><time>2026-03-30T10:00:18.864Z</time></trkpt><trkpt lat="44.3705182" lon="11.4264782"><ele>153.2</ele><time>2026-03-30T10:00:20.863Z</time></trkpt><trkpt lat="44.3704351" lon="11.426386"><ele>153.8</ele><time>2026-03-30T10:00:22.874Z</time></trkpt><trkpt lat="44.3703531" lon="11.426287"><ele>154.4</ele><time>2026-03-30T10:00:24.864Z</time></trkpt><trkpt lat="44.3702658" lon="11.426179"><ele>155.0</ele><time>2026-03-30T10:00:26.858Z</time></trkpt><trkpt lat="44.3701789" lon="11.4260628"><ele>153.5</ele><time>2026-03-30T10:00:28.865Z</time></trkpt><trkpt lat="44.3700949" lon="11.425945"><ele>152.0</ele><time>2026-03-30T10:00:30.869Z</time></trkpt><trkpt lat="44.3700106" lon="11.4258302"><ele>150.5</ele><time>2026-03-30T10:00:32.863Z</time></trkpt><trkpt lat="44.3699272" lon="11.4257106"><ele>149.0</ele><time>2026-03-30T10:00:34.865Z</time></trkpt><trkpt lat="44.369844" lon="11.4255955"><ele>150.0</ele><time>2026-03-30T10:00:36.862Z</time></trkpt><trkpt lat="44.369758" lon="11.4254762"><ele>151.0</ele><time>2026-03-30T10:00:38.867Z</time></trkpt><trkpt lat="44.3696709" lon="11.4253533"><ele>152.0</ele><time>2026-03-30T10:00:40.869Z</time></trkpt><trkpt lat="44.3696263" lon="11.4252908"><ele>153.0</ele><time>2026-03-30T10:00:41.865Z</time></trkpt><trkpt lat="44.3695395" lon="11.4251663"><ele>154.0</ele><time>2026-03-30T10:00:43.873Z</time></trkpt><trkpt lat="44.3694546" lon="11.4250459"><ele>154.0</ele><time>2026-03-30T10:00:45.87Z</time></trkpt><trkpt lat="44.3693665" lon="11.4249232"><ele>154.0</ele><time>2026-03-30T10:00:47.87Z</time></trkpt><trkpt lat="44.3692834" lon="11.4247997"><ele>154.0</ele><time>2026-03-30T10:00:49.864Z</time></trkpt><trkpt lat="44.3691979" lon="11.4246804"><ele>154.0</ele><time>2026-03-30T10:00:51.874Z</time></trkpt><trkpt lat="44.3691132" lon="11.4245661"><ele>151.0</ele><time>2026-03-30T10:00:53.868Z</time></trkpt><trkpt lat="44.3690314" lon="11.4244541"><ele>148.0</ele><time>2026-03-30T10:00:55.858Z</time></trkpt><trkpt lat="44.3689508" lon="11.4243422"><ele>145.0</ele><time>2026-03-30T10:00:57.855Z</time></trkpt><trkpt lat="44.3688702" lon="11.4242295"><ele>142.0</ele><time>2026-03-30T10:00:59.861Z</time></trkpt><trkpt lat="44.3687864" lon="11.4241153"><ele>143.75</ele><time>2026-03-30T10:01:01.858Z</time></trkpt><trkpt lat="44.3687006" lon="11.424003"><ele>145.5</ele><time>2026-03-30T10:01:03.856Z</time></trkpt><trkpt lat="44.3686168" lon="11.4238876"><ele>147.25</ele><time>2026-03-30T10:01:05.858Z</time></trkpt><trkpt lat="44.3685346" lon="11.4237713"><ele>149.0</ele><time>2026-03-30T10:01:07.851Z</time></trkpt><trkpt lat="44.3684495" lon="11.4236527"><ele>149.0</ele><time>2026-03-30T10:01:09.856Z</time></trkpt><trkpt lat="44.3683642" lon="11.4235307"><ele>149.0</ele><time>2026-03-30T10:01:11.868Z</time></trkpt><trkpt lat="44.3683187" lon="11.423469"><ele>149.0</ele><time>2026-03-30T10:01:12.862Z</time></trkpt><trkpt lat="44.3682753" lon="11.4234012"><ele>149.0</ele><time>2026-03-30T10:01:13.859Z</time></trkpt><trkpt lat="44.3682323" lon="11.4233286"><ele>149.0</ele><time>2026-03-30T10:01:14.86Z</time></trkpt><trkpt lat="44.3681916" lon="11.4232503"><ele>149.0</ele><time>2026-03-30T10:01:15.858Z</time></trkpt><trkpt lat="44.3681545" lon="11.4231648"><ele>149.0</ele><time>2026-03-30T10:01:16.862Z</time></trkpt><trkpt lat="44.3681258" lon="11.4230724"><ele>149.0</ele><time>2026-03-30T10:01:17.857Z</time></trkpt><trkpt lat="44.3681035" lon="11.4229763"><ele>149.0</ele><time>2026-03-30T10:01:18.862Z</time></trkpt><trkpt lat="44.3680886" lon="11.4228771"><ele>149.0</ele><time>2026-03-30T10:01:19.862Z</time></trkpt><trkpt lat="44.3680784" lon="11.4227792"><ele>149.0</ele><time>2026-03-30T10:01:20.865Z</time></trkpt><trkpt lat="44.3680676" lon="11.4226787"><ele>149.0</ele><time>2026-03-30T10:01:21.867Z</time></trkpt><trkpt lat="44.3680588" lon="11.4225813"><ele>149.0</ele><time>2026-03-30T10:01:22.861Z</time></trkpt><trkpt lat="44.3680532" lon="11.4224822"><ele>149.4</ele><time>2026-03-30T10:01:23.867Z</time></trkpt><trkpt lat="44.3680492" lon="11.4223853"><ele>149.8</ele><time>2026-03-30T10:01:24.86Z</time></trkpt><trkpt lat="44.3680443" lon="11.4222937"><ele>150.2</ele><time>2026-03-30T10:01:25.861Z</time></trkpt><trkpt lat="44.3680309" lon="11.4221197"><ele>150.6</ele><time>2026-03-30T10:01:27.865Z</time></trkpt><trkpt lat="44.3680161" lon="11.4219478"><ele>151.0</ele><time>2026-03-30T10:01:29.849Z</time></trkpt><trkpt lat="44.3679998" lon="11.4217836"><ele>151.0</ele><time>2026-03-30T10:01:31.869Z</time></trkpt><trkpt lat="44.3679714" lon="11.4216233"><ele>151.0</ele><time>2026-03-30T10:01:33.868Z</time></trkpt><trkpt lat="44.3679389" lon="11.421475"><ele>151.0</ele><time>2026-03-30T10:01:35.872Z</time></trkpt><trkpt lat="44.367897" lon="11.4213367"><ele>151.0</ele><time>2026-03-30T10:01:37.862Z</time></trkpt><trkpt lat="44.3678537" lon="11.4212059"><ele>151.0</ele><time>2026-03-30T10:01:39.867Z</time></trkpt><trkpt lat="44.3678043" lon="11.4210871"><ele>151.8</ele><time>2026-03-30T10:01:41.859Z</time></trkpt><trkpt lat="44.367752" lon="11.4209715"><ele>152.6</ele><time>2026-03-30T10:01:43.865Z</time></trkpt><trkpt lat="44.3676966" lon="11.4208653"><ele>153.4</ele><time>2026-03-30T10:01:45.863Z</time></trkpt><trkpt lat="44.3676363" lon="11.4207602"><ele>154.2</ele><time>2026-03-30T10:01:47.864Z</time></trkpt><trkpt lat="44.367578" lon="11.420659"><ele>155.0</ele><time>2026-03-30T10:01:49.86Z</time></trkpt><trkpt lat="44.3675205" lon="11.4205551"><ele>154.0</ele><time>2026-03-30T10:01:51.859Z</time></trkpt><trkpt lat="44.3674644" lon="11.4204457"><ele>153.0</ele><time>2026-03-30T10:01:53.853Z</time></trkpt><trkpt lat="44.3674077" lon="11.4203329"><ele>152.0</ele><time>2026-03-30T10:01:55.864Z</time></trkpt><trkpt lat="44.3673522" lon="11.4202181"><ele>151.0</ele><time>2026-03-30T10:01:57.871Z</time></trkpt><trkpt lat="44.3673013" lon="11.4201"><ele>150.0</ele><time>2026-03-30T10:01:59.863Z</time></trkpt><trkpt lat="44.367252" lon="11.4199779"><ele>150.0</ele><time>2026-03-30T10:02:01.861Z</time></trkpt><trkpt lat="44.3672048" lon="11.4198585"><ele>150.0</ele><time>2026-03-30T10:02:03.87Z</time></trkpt><trkpt lat="44.3671562" lon="11.4197399"><ele>150.0</ele><time>2026-03-30T10:02:05.864Z</time></trkpt><trkpt lat="44.3671102" lon="11.4196198"><ele>150.0</ele><time>2026-03-30T10:02:07.859Z</time></trkpt><trkpt lat="44.3670658" lon="11.4194957"><ele>150.0</ele><time>2026-03-30T10:02:09.868Z</time></trkpt><trkpt lat="44.3670196" lon="11.419368"><ele>150.8</ele><time>2026-03-30T10:02:11.869Z</time></trkpt><trkpt lat="44.3669757" lon="11.4192338"><ele>151.6</ele><time>2026-03-30T10:02:13.864Z</time></trkpt><trkpt lat="44.3669292" lon="11.4190974"><ele>152.4</ele><time>2026-03-30T10:02:15.865Z</time></trkpt><trkpt lat="44.366882" lon="11.4189571"><ele>153.2</ele><time>2026-03-30T10:02:17.872Z</time></trkpt><trkpt lat="44.3668339" lon="11.4188155"><ele>154.0</ele><time>2026-03-30T10:02:19.865Z</time></trkpt><trkpt lat="44.3667874" lon="11.4186774"><ele>154.0</ele><time>2026-03-30T10:02:21.875Z</time></trkpt><trkpt lat="44.3667412" lon="11.4185454"><ele>154.0</ele><time>2026-03-30T10:02:23.864Z</time></trkpt><trkpt lat="44.366688" lon="11.4184193"><ele>154.0</ele><time>2026-03-30T10:02:25.862Z</time></trkpt><trkpt lat="44.3666266" lon="11.4183024"><ele>154.0</ele><time>2026-03-30T10:02:27.859Z</time></trkpt><trkpt lat="44.3665613" lon="11.4181989"><ele>154.0</ele><time>2026-03-30T10:02:29.863Z</time></trkpt><trkpt lat="44.3664877" lon="11.4181031"><ele>154.0</ele><time>2026-03-30T10:02:31.864Z</time></trkpt><trkpt lat="44.3664091" lon="11.4180185"><ele>154.0</ele><time>2026-03-30T10:02:33.858Z</time></trkpt><trkpt lat="44.3663255" lon="11.417946"><ele>154.0</ele><time>2026-03-30T10:02:35.867Z</time></trkpt><trkpt lat="44.3662355" lon="11.4178852"><ele>154.0</ele><time>2026-03-30T10:02:37.858Z</time></trkpt><trkpt lat="44.3661418" lon="11.4178405"><ele>154.0</ele><time>2026-03-30T10:02:39.865Z</time></trkpt><trkpt lat="44.3660465" lon="11.4178047"><ele>154.0</ele><time>2026-03-30T10:02:41.855Z</time></trkpt><trkpt lat="44.365947" lon="11.4177853"><ele>154.0</ele><time>2026-03-30T10:02:43.872Z</time></trkpt><trkpt lat="44.3658466" lon="11.4177832"><ele>154.0</ele><time>2026-03-30T10:02:45.863Z</time></trkpt><trkpt lat="44.3657455" lon="11.4177826"><ele>154.0</ele><time>2026-03-30T10:02:47.878Z</time></trkpt><trkpt lat="44.3656427" lon="11.4177823"><ele>154.0</ele><time>2026-03-30T10:02:49.875Z</time></trkpt><trkpt lat="44.3655445" lon="11.4177907"><ele>154.5</ele><time>2026-03-30T10:02:51.86Z</time></trkpt><trkpt lat="44.3654381" lon="11.4178027"><ele>155.0</ele><time>2026-03-30T10:02:53.862Z</time></trkpt><trkpt lat="44.3653306" lon="11.4178198"><ele>155.5</ele><time>2026-03-30T10:02:55.867Z</time></trkpt><trkpt lat="44.3652182" lon="11.417832"><ele>156.0</ele><time>2026-03-30T10:02:57.872Z</time></trkpt><trkpt lat="44.3650965" lon="11.4178492"><ele>156.0</ele><time>2026-03-30T10:02:59.873Z</time></trkpt><trkpt lat="44.3650336" lon="11.4178583"><ele>156.0</ele><time>2026-03-30T10:03:00.875Z</time></trkpt><trkpt lat="44.3649699" lon="11.4178681"><ele>156.0</ele><time>2026-03-30T10:03:01.86Z</time></trkpt><trkpt lat="44.3649074" lon="11.4178791"><ele>156.0</ele><time>2026-03-30T10:03:02.873Z</time></trkpt><trkpt lat="44.364841" lon="11.4178909"><ele>156.0</ele><time>2026-03-30T10:03:03.858Z</time></trkpt><trkpt lat="44.3647773" lon="11.4178987"><ele>156.0</ele><time>2026-03-30T10:03:04.86Z</time></trkpt><trkpt lat="44.3647138" lon="11.4179045"><ele>156.0</ele><time>2026-03-30T10:03:05.862Z</time></trkpt><trkpt lat="44.3646482" lon="11.4179144"><ele>155.85714285714286</ele><time>2026-03-30T10:03:06.863Z</time></trkpt><trkpt lat="44.3645815" lon="11.4179236"><ele>155.7142857142857</ele><time>2026-03-30T10:03:07.861Z</time></trkpt><trkpt lat="44.3645134" lon="11.4179337"><ele>155.57142857142856</ele><time>2026-03-30T10:03:08.864Z</time></trkpt><trkpt lat="44.3644456" lon="11.4179431"><ele>155.42857142857144</ele><time>2026-03-30T10:03:09.878Z</time></trkpt><trkpt lat="44.3643773" lon="11.4179538"><ele>155.28571428571428</ele><time>2026-03-30T10:03:10.86Z</time></trkpt><trkpt lat="44.3643112" lon="11.4179655"><ele>155.14285714285714</ele><time>2026-03-30T10:03:11.871Z</time></trkpt><trkpt lat="44.3642468" lon="11.4179788"><ele>155.0</ele><time>2026-03-30T10:03:12.866Z</time></trkpt><trkpt lat="44.3641811" lon="11.4179954"><ele>154.85714285714286</ele><time>2026-03-30T10:03:13.87Z</time></trkpt><trkpt lat="44.3641148" lon="11.4180112"><ele>154.71428571428572</ele><time>2026-03-30T10:03:14.866Z</time></trkpt><trkpt lat="44.3640489" lon="11.4180262"><ele>154.57142857142856</ele><time>2026-03-30T10:03:15.87Z</time></trkpt><trkpt lat="44.3639834" lon="11.4180398"><ele>154.42857142857144</ele><time>2026-03-30T10:03:16.863Z</time></trkpt><trkpt lat="44.3639171" lon="11.4180532"><ele>154.28571428571428</ele><time>2026-03-30T10:03:17.867Z</time></trkpt><trkpt lat="44.3638524" lon="11.4180662"><ele>154.14285714285714</ele><time>2026-03-30T10:03:18.866Z</time></trkpt><trkpt lat="44.3637887" lon="11.4180788"><ele>154.0</ele><time>2026-03-30T10:03:19.864Z</time></trkpt><trkpt lat="44.3637235" lon="11.4180945"><ele>154.0</ele><time>2026-03-30T10:03:20.859Z</time></trkpt><trkpt lat="44.3636595" lon="11.418109"><ele>154.0</ele><time>2026-03-30T10:03:21.859Z</time></trkpt><trkpt lat="44.3635946" lon="11.4181228"><ele>154.0</ele><time>2026-03-30T10:03:22.859Z</time></trkpt><trkpt lat="44.3635292" lon="11.4181371"><ele>154.0</ele><time>2026-03-30T10:03:23.855Z</time></trkpt><trkpt lat="44.3634631" lon="11.4181512"><ele>154.0</ele><time>2026-03-30T10:03:24.866Z</time></trkpt><trkpt lat="44.3633972" lon="11.4181651"><ele>154.0</ele><time>2026-03-30T10:03:25.868Z</time></trkpt><trkpt lat="44.3633315" lon="11.4181788"><ele>154.0</ele><time>2026-03-30T10:03:26.864Z</time></trkpt><trkpt lat="44.3632625" lon="11.4181958"><ele>154.0</ele><time>2026-03-30T10:03:27.863Z</time></trkpt><trkpt lat="44.363194" lon="11.4182105"><ele>154.0</ele><time>2026-03-30T10:03:28.875Z</time></trkpt><trkpt lat="44.3631266" lon="11.418225"><ele>154.0</ele><time>2026-03-30T10:03:29.858Z</time></trkpt><trkpt lat="44.3630563" lon="11.4182391"><ele>154.0</ele><time>2026-03-30T10:03:30.861Z</time></trkpt><trkpt lat="44.3629853" lon="11.4182553"><ele>154.0</ele><time>2026-03-30T10:03:31.873Z</time></trkpt><trkpt lat="44.3629164" lon="11.4182717"><ele>154.0</ele><time>2026-03-30T10:03:32.864Z</time></trkpt><trkpt lat="44.3628472" lon="11.4182896"><ele>154.0</ele><time>2026-03-30T10:03:33.874Z</time></trkpt><trkpt lat="44.3627742" lon="11.4183065"><ele>154.0</ele><time>2026-03-30T10:03:34.867Z</time></trkpt><trkpt lat="44.3627009" lon="11.4183212"><ele>154.0</ele><time>2026-03-30T10:03:35.867Z</time></trkpt><trkpt lat="44.3626285" lon="11.4183408"><ele>154.0</ele><time>2026-03-30T10:03:36.877Z</time></trkpt><trkpt lat="44.3625553" lon="11.4183582"><ele>154.0</ele><time>2026-03-30T10:03:37.871Z</time></trkpt><trkpt lat="44.3624844" lon="11.4183745"><ele>154.0</ele><time>2026-03-30T10:03:38.87Z</time></trkpt><trkpt lat="44.3624102" lon="11.4183914"><ele>154.0</ele><time>2026-03-30T10:03:39.863Z</time></trkpt><trkpt lat="44.3623364" lon="11.4184102"><ele>154.0</ele><time>2026-03-30T10:03:40.858Z</time></trkpt><trkpt lat="44.3622615" lon="11.4184244"><ele>154.5</ele><time>2026-03-30T10:03:41.884Z</time></trkpt><trkpt lat="44.362185" lon="11.4184308"><ele>155.0</ele><time>2026-03-30T10:03:42.876Z</time></trkpt><trkpt lat="44.3621079" lon="11.4184331"><ele>155.5</ele><time>2026-03-30T10:03:43.876Z</time></trkpt><trkpt lat="44.3620291" lon="11.4184265"><ele>156.0</ele><time>2026-03-30T10:03:44.842Z</time></trkpt><trkpt lat="44.361952" lon="11.4184094"><ele>156.5</ele><time>2026-03-30T10:03:45.869Z</time></trkpt><trkpt lat="44.3618761" lon="11.4183809"><ele>157.0</ele><time>2026-03-30T10:03:46.871Z</time></trkpt><trkpt lat="44.3618029" lon="11.418342"><ele>157.0</ele><time>2026-03-30T10:03:47.869Z</time></trkpt><trkpt lat="44.3617319" lon="11.4182962"><ele>157.0</ele><time>2026-03-30T10:03:48.87Z</time></trkpt><trkpt lat="44.3616624" lon="11.4182483"><ele>157.0</ele><time>2026-03-30T10:03:49.875Z</time></trkpt><trkpt lat="44.3615933" lon="11.4181994"><ele>157.0</ele><time>2026-03-30T10:03:50.86Z</time></trkpt><trkpt lat="44.3615252" lon="11.4181507"><ele>157.0</ele><time>2026-03-30T10:03:51.858Z</time></trkpt><trkpt lat="44.3614573" lon="11.4181043"><ele>157.0</ele><time>2026-03-30T10:03:52.858Z</time></trkpt><trkpt lat="44.3613897" lon="11.4180597"><ele>157.28571428571428</ele><time>2026-03-30T10:03:53.853Z</time></trkpt><trkpt lat="44.3613232" lon="11.418016"><ele>157.57142857142856</ele><time>2026-03-30T10:03:54.868Z</time></trkpt><trkpt lat="44.3612557" lon="11.4179741"><ele>157.85714285714283</ele><time>2026-03-30T10:03:55.868Z</time></trkpt><trkpt lat="44.3611907" lon="11.417933"><ele>158.14285714285714</ele><time>2026-03-30T10:03:56.868Z</time></trkpt><trkpt lat="44.3611252" lon="11.4178895"><ele>158.42857142857144</ele><time>2026-03-30T10:03:57.869Z</time></trkpt><trkpt lat="44.3610603" lon="11.4178443"><ele>158.7142857142857</ele><time>2026-03-30T10:03:58.865Z</time></trkpt><trkpt lat="44.3609982" lon="11.4178026"><ele>159.0</ele><time>2026-03-30T10:03:59.866Z</time></trkpt><trkpt lat="44.3609356" lon="11.4177626"><ele>159.0</ele><time>2026-03-30T10:04:00.856Z</time></trkpt><trkpt lat="44.3608737" lon="11.4177222"><ele>159.0</ele><time>2026-03-30T10:04:01.875Z</time></trkpt><trkpt lat="44.3608124" lon="11.4176829"><ele>159.0</ele><time>2026-03-30T10:04:02.871Z</time></trkpt><trkpt lat="44.3607502" lon="11.4176453"><ele>159.0</ele><time>2026-03-30T10:04:03.862Z</time></trkpt><trkpt lat="44.3606892" lon="11.4176067"><ele>159.0</ele><time>2026-03-30T10:04:04.856Z</time></trkpt><trkpt lat="44.3606284" lon="11.41757"><ele>159.0</ele><time>2026-03-30T10:04:05.862Z</time></trkpt><trkpt lat="44.3605671" lon="11.4175303"><ele>159.0</ele><time>2026-03-30T10:04:06.868Z</time></trkpt><trkpt lat="44.3604553" lon="11.4174552"><ele>158.85714285714286</ele><time>2026-03-30T10:04:08.858Z</time></trkpt><trkpt lat="44.3603429" lon="11.4173757"><ele>158.71428571428572</ele><time>2026-03-30T10:04:10.854Z</time></trkpt><trkpt lat="44.3602878" lon="11.417332"><ele>158.57142857142858</ele><time>2026-03-30T10:04:11.873Z</time></trkpt><trkpt lat="44.360232" lon="11.4172893"><ele>158.42857142857144</ele><time>2026-03-30T10:04:12.875Z</time></trkpt><trkpt lat="44.3601781" lon="11.4172431"><ele>158.28571428571428</ele><time>2026-03-30T10:04:13.868Z</time></trkpt><trkpt lat="44.3601255" lon="11.4171943"><ele>158.14285714285717</ele><time>2026-03-30T10:04:14.864Z</time></trkpt><trkpt lat="44.3600736" lon="11.4171434"><ele>158.0</ele><time>2026-03-30T10:04:15.862Z</time></trkpt><trkpt lat="44.359976" lon="11.4170371"><ele>158.0</ele><time>2026-03-30T10:04:17.86Z</time></trkpt><trkpt lat="44.3598847" lon="11.4169238"><ele>158.0</ele><time>2026-03-30T10:04:19.877Z</time></trkpt><trkpt lat="44.3597916" lon="11.4168115"><ele>158.0</ele><time>2026-03-30T10:04:21.861Z</time></trkpt><trkpt lat="44.3597067" lon="11.4166814"><ele>158.0</ele><time>2026-03-30T10:04:23.87Z</time></trkpt><trkpt lat="44.3596687" lon="11.4166093"><ele>158.0</ele><time>2026-03-30T10:04:24.859Z</time></trkpt><trkpt lat="44.3596328" lon="11.4165331"><ele>159.0</ele><time>2026-03-30T10:04:25.872Z</time></trkpt><trkpt lat="44.3595987" lon="11.4164532"><ele>160.0</ele><time>2026-03-30T10:04:26.865Z</time></trkpt><trkpt lat="44.3595695" lon="11.4163706"><ele>161.0</ele><time>2026-03-30T10:04:27.88Z</time></trkpt><trkpt lat="44.3595398" lon="11.4162891"><ele>162.0</ele><time>2026-03-30T10:04:28.861Z</time></trkpt><trkpt lat="44.359511" lon="11.4162083"><ele>163.0</ele><time>2026-03-30T10:04:29.862Z</time></trkpt><trkpt lat="44.3594526" lon="11.4160511"><ele>164.0</ele><time>2026-03-30T10:04:31.858Z</time></trkpt><trkpt lat="44.3593955" lon="11.4159011"><ele>164.0</ele><time>2026-03-30T10:04:33.862Z</time></trkpt><trkpt lat="44.3593172" lon="11.415774"><ele>164.0</ele><time>2026-03-30T10:04:35.874Z</time></trkpt><trkpt lat="44.3592346" lon="11.4156614"><ele>164.0</ele><time>2026-03-30T10:04:37.868Z</time></trkpt><trkpt lat="44.3591473" lon="11.4155674"><ele>164.0</ele><time>2026-03-30T10:04:39.869Z</time></trkpt><trkpt lat="44.3590559" lon="11.4154879"><ele>163.2</ele><time>2026-03-30T10:04:41.859Z</time></trkpt><trkpt lat="44.3589668" lon="11.4154192"><ele>162.39999999999998</ele><time>2026-03-30T10:04:43.871Z</time></trkpt><trkpt lat="44.3588758" lon="11.4153536"><ele>161.6</ele><time>2026-03-30T10:04:45.863Z</time></trkpt><trkpt lat="44.358792" lon="11.4152876"><ele>160.8</ele><time>2026-03-30T10:04:47.865Z</time></trkpt><trkpt lat="44.3587073" lon="11.4152232"><ele>160.0</ele><time>2026-03-30T10:04:49.861Z</time></trkpt><trkpt lat="44.3586251" lon="11.4151615"><ele>161.8</ele><time>2026-03-30T10:04:51.866Z</time></trkpt><trkpt lat="44.3585429" lon="11.4150954"><ele>163.6</ele><time>2026-03-30T10:04:53.861Z</time></trkpt><trkpt lat="44.3584644" lon="11.4150307"><ele>165.39999999999998</ele><time>2026-03-30T10:04:55.868Z</time></trkpt><trkpt lat="44.3583864" lon="11.4149617"><ele>167.2</ele><time>2026-03-30T10:04:57.867Z</time></trkpt><trkpt lat="44.3583067" lon="11.4148951"><ele>169.0</ele><time>2026-03-30T10:04:59.859Z</time></trkpt><trkpt lat="44.3582288" lon="11.4148296"><ele>169.0</ele><time>2026-03-30T10:05:01.86Z</time></trkpt><trkpt lat="44.358151" lon="11.4147675"><ele>169.0</ele><time>2026-03-30T10:05:03.868Z</time></trkpt><trkpt lat="44.3580733" lon="11.4147073"><ele>169.0</ele><time>2026-03-30T10:05:05.866Z</time></trkpt><trkpt lat="44.3579984" lon="11.4146456"><ele>169.0</ele><time>2026-03-30T10:05:07.856Z</time></trkpt><trkpt lat="44.3579235" lon="11.4145819"><ele>169.0</ele><time>2026-03-30T10:05:09.871Z</time></trkpt><trkpt lat="44.3578486" lon="11.4145159"><ele>169.0</ele><time>2026-03-30T10:05:11.862Z</time></trkpt><trkpt lat="44.357776" lon="11.4144485"><ele>169.5</ele><time>2026-03-30T10:05:13.864Z</time></trkpt><trkpt lat="44.3577052" lon="11.4143798"><ele>170.0</ele><time>2026-03-30T10:05:15.863Z</time></trkpt><trkpt lat="44.3576351" lon="11.4143119"><ele>170.5</ele><time>2026-03-30T10:05:17.855Z</time></trkpt><trkpt lat="44.3575646" lon="11.414248"><ele>171.0</ele><time>2026-03-30T10:05:19.85Z</time></trkpt><trkpt lat="44.3574953" lon="11.4141893"><ele>171.5</ele><time>2026-03-30T10:05:21.863Z</time></trkpt><trkpt lat="44.357423" lon="11.4141301"><ele>172.0</ele><time>2026-03-30T10:05:23.876Z</time></trkpt><trkpt lat="44.3573517" lon="11.4140683"><ele>172.0</ele><time>2026-03-30T10:05:25.873Z</time></trkpt><trkpt lat="44.35728" lon="11.4140112"><ele>172.0</ele><time>2026-03-30T10:05:27.873Z</time></trkpt><trkpt lat="44.3572054" lon="11.4139611"><ele>172.0</ele><time>2026-03-30T10:05:29.873Z</time></trkpt><trkpt lat="44.3571299" lon="11.413921"><ele>172.0</ele><time>2026-03-30T10:05:31.855Z</time></trkpt><trkpt lat="44.3570526" lon="11.4138861"><ele>172.0</ele><time>2026-03-30T10:05:33.863Z</time></trkpt><trkpt lat="44.356973" lon="11.4138614"><ele>172.0</ele><time>2026-03-30T10:05:35.863Z</time></trkpt><trkpt lat="44.3568929" lon="11.4138495"><ele>173.33333333333334</ele><time>2026-03-30T10:05:37.868Z</time></trkpt><trkpt lat="44.3568119" lon="11.4138484"><ele>174.66666666666669</ele><time>2026-03-30T10:05:39.868Z</time></trkpt><trkpt lat="44.3567294" lon="11.4138565"><ele>176.0</ele><time>2026-03-30T10:05:41.871Z</time></trkpt><trkpt lat="44.3566508" lon="11.413879"><ele>177.33333333333334</ele><time>2026-03-30T10:05:43.867Z</time></trkpt><trkpt lat="44.356571" lon="11.4139095"><ele>178.66666666666666</ele><time>2026-03-30T10:05:45.866Z</time></trkpt><trkpt lat="44.3564895" lon="11.4139434"><ele>180.0</ele><time>2026-03-30T10:05:47.863Z</time></trkpt><trkpt lat="44.3564061" lon="11.4139863"><ele>178.8</ele><time>2026-03-30T10:05:49.869Z</time></trkpt><trkpt lat="44.3563224" lon="11.4140316"><ele>177.6</ele><time>2026-03-30T10:05:51.865Z</time></trkpt><trkpt lat="44.3562401" lon="11.4140808"><ele>176.39999999999998</ele><time>2026-03-30T10:05:53.863Z</time></trkpt><trkpt lat="44.3561551" lon="11.414131"><ele>175.2</ele><time>2026-03-30T10:05:55.88Z</time></trkpt><trkpt lat="44.3560704" lon="11.4141847"><ele>174.0</ele><time>2026-03-30T10:05:57.862Z</time></trkpt><trkpt lat="44.3559793" lon="11.4142325"><ele>174.0</ele><time>2026-03-30T10:05:59.857Z</time></trkpt><trkpt lat="44.3558836" lon="11.4142854"><ele>174.0</ele><time>2026-03-30T10:06:01.871Z</time></trkpt><trkpt lat="44.3557804" lon="11.4143347"><ele>174.0</ele><time>2026-03-30T10:06:03.864Z</time></trkpt><trkpt lat="44.355669" lon="11.4143836"><ele>174.0</ele><time>2026-03-30T10:06:05.861Z</time></trkpt><trkpt lat="44.3555518" lon="11.4144213"><ele>174.0</ele><time>2026-03-30T10:06:07.865Z</time></trkpt><trkpt lat="44.3554307" lon="11.4144565"><ele>173.2</ele><time>2026-03-30T10:06:09.862Z</time></trkpt><trkpt lat="44.3553682" lon="11.4144755"><ele>172.39999999999998</ele><time>2026-03-30T10:06:10.86Z</time></trkpt><trkpt lat="44.355245" lon="11.4145071"><ele>171.6</ele><time>2026-03-30T10:06:12.861Z</time></trkpt><trkpt lat="44.3551209" lon="11.4145428"><ele>170.8</ele><time>2026-03-30T10:06:14.86Z</time></trkpt><trkpt lat="44.3549952" lon="11.4145691"><ele>170.0</ele><time>2026-03-30T10:06:16.863Z</time></trkpt><trkpt lat="44.3549315" lon="11.414581"><ele>170.0</ele><time>2026-03-30T10:06:17.879Z</time></trkpt><trkpt lat="44.3548649" lon="11.4145876"><ele>170.0</ele><time>2026-03-30T10:06:18.861Z</time></trkpt><trkpt lat="44.3547985" lon="11.4145927"><ele>170.0</ele><time>2026-03-30T10:06:19.862Z</time></trkpt><trkpt lat="44.3547329" lon="11.4145962"><ele>170.0</ele><time>2026-03-30T10:06:20.861Z</time></trkpt><trkpt lat="44.3546686" lon="11.4145995"><ele>170.0</ele><time>2026-03-30T10:06:21.879Z</time></trkpt><trkpt lat="44.3546022" lon="11.414603"><ele>170.0</ele><time>2026-03-30T10:06:22.866Z</time></trkpt><trkpt lat="44.3544821" lon="11.4146166"><ele>170.0</ele><time>2026-03-30T10:06:24.863Z</time></trkpt><trkpt lat="44.3543666" lon="11.4146282"><ele>170.0</ele><time>2026-03-30T10:06:26.863Z</time></trkpt><trkpt lat="44.3542599" lon="11.414643"><ele>170.0</ele><time>2026-03-30T10:06:28.865Z</time></trkpt><trkpt lat="44.354134" lon="11.414646"><ele>170.0</ele><time>2026-03-30T10:06:30.861Z</time></trkpt><trkpt lat="44.3540673" lon="11.4146435"><ele>170.0</ele><time>2026-03-30T10:06:31.87Z</time></trkpt><trkpt lat="44.3540044" lon="11.4146125"><ele>170.0</ele><time>2026-03-30T10:06:32.869Z</time></trkpt><trkpt lat="44.3539369" lon="11.4145971"><ele>170.0</ele><time>2026-03-30T10:06:33.861Z</time></trkpt><trkpt lat="44.3538728" lon="11.4145765"><ele>170.0</ele><time>2026-03-30T10:06:34.87Z</time></trkpt><trkpt lat="44.3538076" lon="11.4145522"><ele>170.0</ele><time>2026-03-30T10:06:35.866Z</time></trkpt><trkpt lat="44.3537456" lon="11.414527"><ele>170.0</ele><time>2026-03-30T10:06:36.864Z</time></trkpt><trkpt lat="44.3536835" lon="11.4144976"><ele>170.0</ele><time>2026-03-30T10:06:37.872Z</time></trkpt><trkpt lat="44.3535672" lon="11.4144315"><ele>171.2</ele><time>2026-03-30T10:06:39.858Z</time></trkpt><trkpt lat="44.3534616" lon="11.4143417"><ele>172.4</ele><time>2026-03-30T10:06:41.86Z</time></trkpt><trkpt lat="44.353407" lon="11.4142943"><ele>173.60000000000002</ele><time>2026-03-30T10:06:42.868Z</time></trkpt><trkpt lat="44.3533048" lon="11.4141932"><ele>174.8</ele><time>2026-03-30T10:06:44.866Z</time></trkpt><trkpt lat="44.3532048" lon="11.4140883"><ele>176.0</ele><time>2026-03-30T10:06:46.868Z</time></trkpt><trkpt lat="44.3531044" lon="11.4139861"><ele>175.83333333333331</ele><time>2026-03-30T10:06:48.863Z</time></trkpt><trkpt lat="44.3530079" lon="11.4138832"><ele>175.66666666666666</ele><time>2026-03-30T10:06:50.855Z</time></trkpt><trkpt lat="44.3529077" lon="11.4137751"><ele>175.5</ele><time>2026-03-30T10:06:52.869Z</time></trkpt><trkpt lat="44.3528557" lon="11.4137191"><ele>175.33333333333334</ele><time>2026-03-30T10:06:53.874Z</time></trkpt><trkpt lat="44.3528048" lon="11.4136641"><ele>175.16666666666669</ele><time>2026-03-30T10:06:54.865Z</time></trkpt><trkpt lat="44.3527554" lon="11.4136057"><ele>175.0</ele><time>2026-03-30T10:06:55.866Z</time></trkpt><trkpt lat="44.3527061" lon="11.4135445"><ele>175.0</ele><time>2026-03-30T10:06:56.869Z</time></trkpt><trkpt lat="44.352659" lon="11.4134829"><ele>175.0</ele><time>2026-03-30T10:06:57.861Z</time></trkpt><trkpt lat="44.3526149" lon="11.4134173"><ele>175.0</ele><time>2026-03-30T10:06:58.86Z</time></trkpt><trkpt lat="44.3525704" lon="11.4133549"><ele>175.0</ele><time>2026-03-30T10:06:59.864Z</time></trkpt><trkpt lat="44.3524878" lon="11.4132319"><ele>175.0</ele><time>2026-03-30T10:07:01.866Z</time></trkpt><trkpt lat="44.3524122" lon="11.413094"><ele>175.0</ele><time>2026-03-30T10:07:03.868Z</time></trkpt><trkpt lat="44.3523346" lon="11.412957"><ele>175.4</ele><time>2026-03-30T10:07:05.865Z</time></trkpt><trkpt lat="44.352256" lon="11.4128215"><ele>175.8</ele><time>2026-03-30T10:07:07.858Z</time></trkpt><trkpt lat="44.3522151" lon="11.4127533"><ele>176.2</ele><time>2026-03-30T10:07:08.859Z</time></trkpt><trkpt lat="44.3521741" lon="11.4126846"><ele>176.6</ele><time>2026-03-30T10:07:09.864Z</time></trkpt><trkpt lat="44.3520948" lon="11.4125488"><ele>177.0</ele><time>2026-03-30T10:07:11.877Z</time></trkpt><trkpt lat="44.3520142" lon="11.4124121"><ele>177.0</ele><time>2026-03-30T10:07:13.864Z</time></trkpt><trkpt lat="44.3519734" lon="11.4123401"><ele>177.0</ele><time>2026-03-30T10:07:14.863Z</time></trkpt><trkpt lat="44.3519324" lon="11.4122685"><ele>177.0</ele><time>2026-03-30T10:07:15.866Z</time></trkpt><trkpt lat="44.3518916" lon="11.4121988"><ele>177.0</ele><time>2026-03-30T10:07:16.867Z</time></trkpt><trkpt lat="44.3518512" lon="11.4121295"><ele>177.0</ele><time>2026-03-30T10:07:17.875Z</time></trkpt><trkpt lat="44.3517713" lon="11.4119934"><ele>177.0</ele><time>2026-03-30T10:07:19.869Z</time></trkpt><trkpt lat="44.3516929" lon="11.4118596"><ele>175.0</ele><time>2026-03-30T10:07:21.871Z</time></trkpt><trkpt lat="44.351617" lon="11.4117255"><ele>173.0</ele><time>2026-03-30T10:07:23.862Z</time></trkpt><trkpt lat="44.3515407" lon="11.4115959"><ele>171.0</ele><time>2026-03-30T10:07:25.869Z</time></trkpt><trkpt lat="44.351466" lon="11.4114718"><ele>169.0</ele><time>2026-03-30T10:07:27.867Z</time></trkpt><trkpt lat="44.3513913" lon="11.4113429"><ele>170.25</ele><time>2026-03-30T10:07:29.875Z</time></trkpt><trkpt lat="44.3513136" lon="11.4112143"><ele>171.5</ele><time>2026-03-30T10:07:31.863Z</time></trkpt><trkpt lat="44.3512338" lon="11.4110831"><ele>172.75</ele><time>2026-03-30T10:07:33.875Z</time></trkpt><trkpt lat="44.3511536" lon="11.4109486"><ele>174.0</ele><time>2026-03-30T10:07:35.864Z</time></trkpt><trkpt lat="44.3510765" lon="11.4108094"><ele>174.0</ele><time>2026-03-30T10:07:37.863Z</time></trkpt><trkpt lat="44.3510406" lon="11.4107364"><ele>174.0</ele><time>2026-03-30T10:07:38.87Z</time></trkpt><trkpt lat="44.3509629" lon="11.4105987"><ele>174.0</ele><time>2026-03-30T10:07:40.868Z</time></trkpt><trkpt lat="44.3508846" lon="11.4104717"><ele>174.0</ele><time>2026-03-30T10:07:42.877Z</time></trkpt><trkpt lat="44.3508061" lon="11.4103471"><ele>174.0</ele><time>2026-03-30T10:07:44.867Z</time></trkpt><trkpt lat="44.3507319" lon="11.4102364"><ele>175.39999999999998</ele><time>2026-03-30T10:07:46.863Z</time></trkpt><trkpt lat="44.350668" lon="11.4101364"><ele>176.8</ele><time>2026-03-30T10:07:48.863Z</time></trkpt><trkpt lat="44.3506041" lon="11.4100333"><ele>178.2</ele><time>2026-03-30T10:07:50.863Z</time></trkpt><trkpt lat="44.3505446" lon="11.4099409"><ele>179.60000000000002</ele><time>2026-03-30T10:07:52.868Z</time></trkpt><trkpt lat="44.3504876" lon="11.4098597"><ele>181.0</ele><time>2026-03-30T10:07:54.838Z</time></trkpt><trkpt lat="44.3504254" lon="11.4097689"><ele>181.0</ele><time>2026-03-30T10:07:56.862Z</time></trkpt><trkpt lat="44.3503694" lon="11.409672"><ele>181.0</ele><time>2026-03-30T10:07:58.875Z</time></trkpt><trkpt lat="44.3503139" lon="11.409581"><ele>181.0</ele><time>2026-03-30T10:08:00.856Z</time></trkpt><trkpt lat="44.3502636" lon="11.4094782"><ele>181.0</ele><time>2026-03-30T10:08:02.87Z</time></trkpt><trkpt lat="44.3502273" lon="11.4093539"><ele>181.0</ele><time>2026-03-30T10:08:04.861Z</time></trkpt><trkpt lat="44.3501929" lon="11.4092349"><ele>180.83333333333334</ele><time>2026-03-30T10:08:06.862Z</time></trkpt><trkpt lat="44.3501629" lon="11.4091161"><ele>180.66666666666669</ele><time>2026-03-30T10:08:08.86Z</time></trkpt><trkpt lat="44.3501363" lon="11.408994"><ele>180.5</ele><time>2026-03-30T10:08:10.861Z</time></trkpt><trkpt lat="44.3501106" lon="11.4088738"><ele>180.33333333333334</ele><time>2026-03-30T10:08:12.873Z</time></trkpt><trkpt lat="44.3500804" lon="11.4087563"><ele>180.16666666666666</ele><time>2026-03-30T10:08:14.844Z</time></trkpt><trkpt lat="44.3500482" lon="11.4086464"><ele>180.0</ele><time>2026-03-30T10:08:16.866Z</time></trkpt><trkpt lat="44.3500079" lon="11.4085316"><ele>180.83333333333334</ele><time>2026-03-30T10:08:18.867Z</time></trkpt><trkpt lat="44.3499671" lon="11.4084268"><ele>181.66666666666666</ele><time>2026-03-30T10:08:20.869Z</time></trkpt><trkpt lat="44.3499249" lon="11.4083242"><ele>182.5</ele><time>2026-03-30T10:08:22.877Z</time></trkpt><trkpt lat="44.3498797" lon="11.4082313"><ele>183.33333333333331</ele><time>2026-03-30T10:08:24.855Z</time></trkpt><trkpt lat="44.349823" lon="11.4081286"><ele>184.16666666666666</ele><time>2026-03-30T10:08:26.875Z</time></trkpt><trkpt lat="44.3497581" lon="11.4080153"><ele>185.0</ele><time>2026-03-30T10:08:28.868Z</time></trkpt><trkpt lat="44.3496897" lon="11.4078945"><ele>185.0</ele><time>2026-03-30T10:08:30.866Z</time></trkpt><trkpt lat="44.349611" lon="11.4077726"><ele>185.0</ele><time>2026-03-30T10:08:32.861Z</time></trkpt><trkpt lat="44.3495105" lon="11.4076716"><ele>185.0</ele><time>2026-03-30T10:08:34.86Z</time></trkpt><trkpt lat="44.3493984" lon="11.4075905"><ele>185.0</ele><time>2026-03-30T10:08:36.861Z</time></trkpt><trkpt lat="44.3492828" lon="11.407526"><ele>185.0</ele><time>2026-03-30T10:08:38.866Z</time></trkpt><trkpt lat="44.3491712" lon="11.40748"><ele>185.0</ele><time>2026-03-30T10:08:40.868Z</time></trkpt><trkpt lat="44.3490659" lon="11.4074379"><ele>185.0</ele><time>2026-03-30T10:08:42.867Z</time></trkpt><trkpt lat="44.348962" lon="11.4073958"><ele>185.0</ele><time>2026-03-30T10:08:44.877Z</time></trkpt><trkpt lat="44.3488642" lon="11.4073578"><ele>185.0</ele><time>2026-03-30T10:08:46.866Z</time></trkpt><trkpt lat="44.3487696" lon="11.4073223"><ele>184.16666666666666</ele><time>2026-03-30T10:08:48.874Z</time></trkpt><trkpt lat="44.3486816" lon="11.4072832"><ele>183.33333333333331</ele><time>2026-03-30T10:08:50.866Z</time></trkpt><trkpt lat="44.3485967" lon="11.4072489"><ele>182.5</ele><time>2026-03-30T10:08:52.867Z</time></trkpt><trkpt lat="44.3485117" lon="11.407212"><ele>181.66666666666666</ele><time>2026-03-30T10:08:54.871Z</time></trkpt><trkpt lat="44.3484276" lon="11.4071792"><ele>180.83333333333334</ele><time>2026-03-30T10:08:56.873Z</time></trkpt><trkpt lat="44.3483426" lon="11.4071439"><ele>180.0</ele><time>2026-03-30T10:08:58.868Z</time></trkpt><trkpt lat="44.3482582" lon="11.4071056"><ele>181.0</ele><time>2026-03-30T10:09:00.863Z</time></trkpt><trkpt lat="44.3481747" lon="11.4070645"><ele>182.0</ele><time>2026-03-30T10:09:02.871Z</time></trkpt><trkpt lat="44.3480921" lon="11.407021"><ele>183.0</ele><time>2026-03-30T10:09:04.862Z</time></trkpt><trkpt lat="44.3480122" lon="11.4069761"><ele>184.0</ele><time>2026-03-30T10:09:06.871Z</time></trkpt><trkpt lat="44.3479324" lon="11.4069336"><ele>185.0</ele><time>2026-03-30T10:09:08.866Z</time></trkpt><trkpt lat="44.3478532" lon="11.4068882"><ele>186.0</ele><time>2026-03-30T10:09:10.864Z</time></trkpt><trkpt lat="44.3477748" lon="11.4068459"><ele>186.0</ele><time>2026-03-30T10:09:12.867Z</time></trkpt><trkpt lat="44.3476958" lon="11.4068084"><ele>186.0</ele><time>2026-03-30T10:09:14.874Z</time></trkpt><trkpt lat="44.3476142" lon="11.4067686"><ele>186.0</ele><time>2026-03-30T10:09:16.86Z</time></trkpt><trkpt lat="44.3475284" lon="11.4067462"><ele>186.0</ele><time>2026-03-30T10:09:18.859Z</time></trkpt><trkpt lat="44.3474447" lon="11.4067188"><ele>186.0</ele><time>2026-03-30T10:09:20.865Z</time></trkpt><trkpt lat="44.3473587" lon="11.4066967"><ele>186.0</ele><time>2026-03-30T10:09:22.858Z</time></trkpt><trkpt lat="44.3472724" lon="11.406672"><ele>186.60000000000002</ele><time>2026-03-30T10:09:24.877Z</time></trkpt><trkpt lat="44.3471895" lon="11.4066552"><ele>187.2</ele><time>2026-03-30T10:09:26.863Z</time></trkpt><trkpt lat="44.347106" lon="11.406644"><ele>187.8</ele><time>2026-03-30T10:09:28.864Z</time></trkpt><trkpt lat="44.3470174" lon="11.4066317"><ele>188.39999999999998</ele><time>2026-03-30T10:09:30.86Z</time></trkpt><trkpt lat="44.3469214" lon="11.406617"><ele>189.0</ele><time>2026-03-30T10:09:32.862Z</time></trkpt><trkpt lat="44.3468232" lon="11.4066024"><ele>189.0</ele><time>2026-03-30T10:09:34.866Z</time></trkpt><trkpt lat="44.3467198" lon="11.4065838"><ele>189.0</ele><time>2026-03-30T10:09:36.862Z</time></trkpt><trkpt lat="44.3466112" lon="11.4065625"><ele>189.0</ele><time>2026-03-30T10:09:38.866Z</time></trkpt><trkpt lat="44.3464959" lon="11.406533"><ele>189.0</ele><time>2026-03-30T10:09:40.857Z</time></trkpt><trkpt lat="44.3463745" lon="11.4064939"><ele>188.57142857142858</ele><time>2026-03-30T10:09:42.87Z</time></trkpt><trkpt lat="44.3463131" lon="11.4064744"><ele>188.14285714285714</ele><time>2026-03-30T10:09:43.863Z</time></trkpt><trkpt lat="44.3462485" lon="11.4064541"><ele>187.71428571428572</ele><time>2026-03-30T10:09:44.865Z</time></trkpt><trkpt lat="44.3461847" lon="11.4064332"><ele>187.28571428571428</ele><time>2026-03-30T10:09:45.862Z</time></trkpt><trkpt lat="44.3461173" lon="11.4064103"><ele>186.85714285714286</ele><time>2026-03-30T10:09:46.862Z</time></trkpt><trkpt lat="44.3460468" lon="11.4063874"><ele>186.42857142857144</ele><time>2026-03-30T10:09:47.86Z</time></trkpt><trkpt lat="44.3459761" lon="11.4063656"><ele>186.0</ele><time>2026-03-30T10:09:48.862Z</time></trkpt><trkpt lat="44.345903" lon="11.4063444"><ele>186.33333333333334</ele><time>2026-03-30T10:09:49.875Z</time></trkpt><trkpt lat="44.345828" lon="11.4063211"><ele>186.66666666666666</ele><time>2026-03-30T10:09:50.864Z</time></trkpt><trkpt lat="44.3457536" lon="11.4063025"><ele>187.0</ele><time>2026-03-30T10:09:51.866Z</time></trkpt><trkpt lat="44.3456777" lon="11.4062855"><ele>187.33333333333331</ele><time>2026-03-30T10:09:52.875Z</time></trkpt><trkpt lat="44.3456022" lon="11.4062698"><ele>187.66666666666666</ele><time>2026-03-30T10:09:53.869Z</time></trkpt><trkpt lat="44.3455276" lon="11.4062566"><ele>188.0</ele><time>2026-03-30T10:09:54.871Z</time></trkpt><trkpt lat="44.3454552" lon="11.4062429"><ele>187.14285714285714</ele><time>2026-03-30T10:09:55.869Z</time></trkpt><trkpt lat="44.3453862" lon="11.406232"><ele>186.28571428571428</ele><time>2026-03-30T10:09:56.87Z</time></trkpt><trkpt lat="44.3453163" lon="11.4062191"><ele>185.42857142857144</ele><time>2026-03-30T10:09:57.866Z</time></trkpt><trkpt lat="44.3452449" lon="11.4062054"><ele>184.57142857142856</ele><time>2026-03-30T10:09:58.878Z</time></trkpt><trkpt lat="44.3451713" lon="11.4061926"><ele>183.71428571428572</ele><time>2026-03-30T10:09:59.865Z</time></trkpt><trkpt lat="44.3450971" lon="11.4061841"><ele>182.85714285714286</ele><time>2026-03-30T10:10:00.868Z</time></trkpt><trkpt lat="44.3450233" lon="11.4061786"><ele>182.0</ele><time>2026-03-30T10:10:01.872Z</time></trkpt><trkpt lat="44.3449505" lon="11.4061757"><ele>182.0</ele><time>2026-03-30T10:10:02.869Z</time></trkpt><trkpt lat="44.3448776" lon="11.4061806"><ele>182.0</ele><time>2026-03-30T10:10:03.868Z</time></trkpt><trkpt lat="44.344807" lon="11.4061866"><ele>182.0</ele><time>2026-03-30T10:10:04.871Z</time></trkpt><trkpt lat="44.3447379" lon="11.406213"><ele>182.0</ele><time>2026-03-30T10:10:05.86Z</time></trkpt><trkpt lat="44.3446707" lon="11.4062409"><ele>182.0</ele><time>2026-03-30T10:10:06.868Z</time></trkpt><trkpt lat="44.3446016" lon="11.4062676"><ele>182.0</ele><time>2026-03-30T10:10:07.863Z</time></trkpt><trkpt lat="44.3445348" lon="11.4062998"><ele>182.0</ele><time>2026-03-30T10:10:08.87Z</time></trkpt><trkpt lat="44.344471" lon="11.4063332"><ele>183.6</ele><time>2026-03-30T10:10:09.869Z</time></trkpt><trkpt lat="44.3444084" lon="11.4063673"><ele>185.2</ele><time>2026-03-30T10:10:10.876Z</time></trkpt><trkpt lat="44.3443495" lon="11.4063986"><ele>186.8</ele><time>2026-03-30T10:10:11.864Z</time></trkpt><trkpt lat="44.3442391" lon="11.4064574"><ele>188.4</ele><time>2026-03-30T10:10:13.864Z</time></trkpt><trkpt lat="44.3441413" lon="11.4065123"><ele>190.0</ele><time>2026-03-30T10:10:15.867Z</time></trkpt><trkpt lat="44.3440502" lon="11.4065605"><ele>190.0</ele><time>2026-03-30T10:10:17.87Z</time></trkpt><trkpt lat="44.3439722" lon="11.4066055"><ele>190.0</ele><time>2026-03-30T10:10:19.859Z</time></trkpt><trkpt lat="44.3439052" lon="11.406646"><ele>190.0</ele><time>2026-03-30T10:10:21.872Z</time></trkpt><trkpt lat="44.3438228" lon="11.4066951"><ele>190.0</ele><time>2026-03-30T10:10:23.86Z</time></trkpt><trkpt lat="44.3437398" lon="11.406741"><ele>190.0</ele><time>2026-03-30T10:10:25.862Z</time></trkpt><trkpt lat="44.3436665" lon="11.4067844"><ele>190.0</ele><time>2026-03-30T10:10:27.86Z</time></trkpt><trkpt lat="44.3435841" lon="11.4068334"><ele>189.66666666666669</ele><time>2026-03-30T10:10:29.857Z</time></trkpt><trkpt lat="44.3435013" lon="11.4068799"><ele>189.33333333333334</ele><time>2026-03-30T10:10:31.865Z</time></trkpt><trkpt lat="44.3434259" lon="11.4069241"><ele>189.0</ele><time>2026-03-30T10:10:33.866Z</time></trkpt><trkpt lat="44.3433499" lon="11.4069668"><ele>188.66666666666666</ele><time>2026-03-30T10:10:35.867Z</time></trkpt><trkpt lat="44.3432736" lon="11.4069977"><ele>188.33333333333331</ele><time>2026-03-30T10:10:37.865Z</time></trkpt><trkpt lat="44.3431984" lon="11.4070276"><ele>188.0</ele><time>2026-03-30T10:10:39.87Z</time></trkpt><trkpt lat="44.3431195" lon="11.4070567"><ele>189.16666666666666</ele><time>2026-03-30T10:10:41.867Z</time></trkpt><trkpt lat="44.3430386" lon="11.4070791"><ele>190.33333333333331</ele><time>2026-03-30T10:10:43.866Z</time></trkpt><trkpt lat="44.3429606" lon="11.4070991"><ele>191.5</ele><time>2026-03-30T10:10:45.869Z</time></trkpt><trkpt lat="44.3428802" lon="11.4071087"><ele>192.66666666666666</ele><time>2026-03-30T10:10:47.865Z</time></trkpt><trkpt lat="44.3427936" lon="11.407106"><ele>193.83333333333334</ele><time>2026-03-30T10:10:49.866Z</time></trkpt><trkpt lat="44.3427075" lon="11.407095"><ele>195.0</ele><time>2026-03-30T10:10:51.86Z</time></trkpt><trkpt lat="44.3426177" lon="11.4070771"><ele>195.0</ele><time>2026-03-30T10:10:53.866Z</time></trkpt><trkpt lat="44.3425249" lon="11.4070416"><ele>195.0</ele><time>2026-03-30T10:10:55.863Z</time></trkpt><trkpt lat="44.3424288" lon="11.4069956"><ele>195.0</ele><time>2026-03-30T10:10:57.865Z</time></trkpt><trkpt lat="44.3423348" lon="11.4069334"><ele>195.0</ele><time>2026-03-30T10:10:59.866Z</time></trkpt><trkpt lat="44.3422452" lon="11.406861"><ele>195.0</ele><time>2026-03-30T10:11:01.872Z</time></trkpt><trkpt lat="44.3421523" lon="11.4067823"><ele>196.75</ele><time>2026-03-30T10:11:03.867Z</time></trkpt><trkpt lat="44.3420559" lon="11.406696"><ele>198.5</ele><time>2026-03-30T10:11:05.857Z</time></trkpt><trkpt lat="44.3419598" lon="11.4066105"><ele>200.25</ele><time>2026-03-30T10:11:07.857Z</time></trkpt><trkpt lat="44.3418634" lon="11.4065245"><ele>202.0</ele><time>2026-03-30T10:11:09.869Z</time></trkpt><trkpt lat="44.3417671" lon="11.4064368"><ele>202.0</ele><time>2026-03-30T10:11:11.865Z</time></trkpt><trkpt lat="44.3416696" lon="11.4063485"><ele>202.0</ele><time>2026-03-30T10:11:13.86Z</time></trkpt><trkpt lat="44.3415697" lon="11.4062617"><ele>202.0</ele><time>2026-03-30T10:11:15.863Z</time></trkpt><trkpt lat="44.3414698" lon="11.4061687"><ele>202.0</ele><time>2026-03-30T10:11:17.868Z</time></trkpt><trkpt lat="44.3413652" lon="11.4060815"><ele>200.49999999999997</ele><time>2026-03-30T10:11:19.867Z</time></trkpt><trkpt lat="44.3412559" lon="11.4060106"><ele>199.0</ele><time>2026-03-30T10:11:21.875Z</time></trkpt><trkpt lat="44.3411935" lon="11.4059804"><ele>197.5</ele><time>2026-03-30T10:11:22.87Z</time></trkpt><trkpt lat="44.3411291" lon="11.4059563"><ele>196.0</ele><time>2026-03-30T10:11:23.862Z</time></trkpt><trkpt lat="44.3410625" lon="11.4059416"><ele>194.49999999999997</ele><time>2026-03-30T10:11:24.864Z</time></trkpt><trkpt lat="44.3409965" lon="11.4059277"><ele>193.0</ele><time>2026-03-30T10:11:25.856Z</time></trkpt><trkpt lat="44.340926" lon="11.4059275"><ele>192.99999999999997</ele><time>2026-03-30T10:11:26.864Z</time></trkpt><trkpt lat="44.3408551" lon="11.405927"><ele>193.0</ele><time>2026-03-30T10:11:27.873Z</time></trkpt><trkpt lat="44.3407806" lon="11.4059385"><ele>193.0</ele><time>2026-03-30T10:11:28.875Z</time></trkpt><trkpt lat="44.3407042" lon="11.4059583"><ele>193.0</ele><time>2026-03-30T10:11:29.863Z</time></trkpt><trkpt lat="44.3406298" lon="11.4059878"><ele>192.99999999999997</ele><time>2026-03-30T10:11:30.86Z</time></trkpt><trkpt lat="44.3405566" lon="11.4060234"><ele>193.0</ele><time>2026-03-30T10:11:31.864Z</time></trkpt><trkpt lat="44.3404839" lon="11.4060664"><ele>192.66666666666666</ele><time>2026-03-30T10:11:32.864Z</time></trkpt><trkpt lat="44.3404145" lon="11.4061158"><ele>192.33333333333331</ele><time>2026-03-30T10:11:33.859Z</time></trkpt><trkpt lat="44.3403449" lon="11.4061751"><ele>192.0</ele><time>2026-03-30T10:11:34.859Z</time></trkpt><trkpt lat="44.3402758" lon="11.406237"><ele>191.66666666666666</ele><time>2026-03-30T10:11:35.862Z</time></trkpt><trkpt lat="44.3402059" lon="11.4062982"><ele>191.33333333333331</ele><time>2026-03-30T10:11:36.876Z</time></trkpt><trkpt lat="44.3401372" lon="11.4063598"><ele>191.0</ele><time>2026-03-30T10:11:37.871Z</time></trkpt><trkpt lat="44.3400699" lon="11.4064198"><ele>191.16666666666666</ele><time>2026-03-30T10:11:38.86Z</time></trkpt><trkpt lat="44.3400005" lon="11.4064762"><ele>191.33333333333331</ele><time>2026-03-30T10:11:39.861Z</time></trkpt><trkpt lat="44.3399293" lon="11.4065296"><ele>191.5</ele><time>2026-03-30T10:11:40.869Z</time></trkpt><trkpt lat="44.3398604" lon="11.4065819"><ele>191.66666666666666</ele><time>2026-03-30T10:11:41.86Z</time></trkpt><trkpt lat="44.3397914" lon="11.4066341"><ele>191.83333333333334</ele><time>2026-03-30T10:11:42.86Z</time></trkpt><trkpt lat="44.3397235" lon="11.4066835"><ele>192.0</ele><time>2026-03-30T10:11:43.866Z</time></trkpt><trkpt lat="44.3396574" lon="11.4067328"><ele>191.99999999999997</ele><time>2026-03-30T10:11:44.866Z</time></trkpt><trkpt lat="44.3395926" lon="11.4067808"><ele>192.0</ele><time>2026-03-30T10:11:45.86Z</time></trkpt><trkpt lat="44.3395287" lon="11.4068273"><ele>192.0</ele><time>2026-03-30T10:11:46.853Z</time></trkpt><trkpt lat="44.3394638" lon="11.4068743"><ele>192.0</ele><time>2026-03-30T10:11:47.867Z</time></trkpt><trkpt lat="44.3394023" lon="11.4069189"><ele>192.0</ele><time>2026-03-30T10:11:48.874Z</time></trkpt><trkpt lat="44.3393385" lon="11.4069632"><ele>191.99999999999997</ele><time>2026-03-30T10:11:49.861Z</time></trkpt><trkpt lat="44.3392682" lon="11.4069959"><ele>192.0</ele><time>2026-03-30T10:11:50.862Z</time></trkpt><trkpt lat="44.3391908" lon="11.4070142"><ele>192.0</ele><time>2026-03-30T10:11:51.864Z</time></trkpt><trkpt lat="44.3391129" lon="11.4070108"><ele>192.0</ele><time>2026-03-30T10:11:52.867Z</time></trkpt><trkpt lat="44.3390372" lon="11.4069828"><ele>192.0</ele><time>2026-03-30T10:11:53.868Z</time></trkpt><trkpt lat="44.338964" lon="11.4069373"><ele>192.0</ele><time>2026-03-30T10:11:54.859Z</time></trkpt><trkpt lat="44.3388997" lon="11.4068734"><ele>192.0</ele><time>2026-03-30T10:11:55.873Z</time></trkpt><trkpt lat="44.3388432" lon="11.4067971"><ele>192.0</ele><time>2026-03-30T10:11:56.862Z</time></trkpt><trkpt lat="44.3387909" lon="11.4067155"><ele>192.5</ele><time>2026-03-30T10:11:57.869Z</time></trkpt><trkpt lat="44.338742" lon="11.4066313"><ele>193.0</ele><time>2026-03-30T10:11:58.871Z</time></trkpt><trkpt lat="44.3386916" lon="11.4065445"><ele>193.5</ele><time>2026-03-30T10:11:59.865Z</time></trkpt><trkpt lat="44.3386405" lon="11.4064602"><ele>194.0</ele><time>2026-03-30T10:12:00.869Z</time></trkpt><trkpt lat="44.3385922" lon="11.4063701"><ele>194.5</ele><time>2026-03-30T10:12:01.866Z</time></trkpt><trkpt lat="44.3385471" lon="11.4062848"><ele>195.0</ele><time>2026-03-30T10:12:02.859Z</time></trkpt><trkpt lat="44.338501" lon="11.406203"><ele>195.0</ele><time>2026-03-30T10:12:03.863Z</time></trkpt><trkpt lat="44.3384581" lon="11.4061248"><ele>195.0</ele><time>2026-03-30T10:12:04.853Z</time></trkpt><trkpt lat="44.3384132" lon="11.4060466"><ele>195.0</ele><time>2026-03-30T10:12:05.863Z</time></trkpt><trkpt lat="44.3383699" lon="11.4059682"><ele>195.0</ele><time>2026-03-30T10:12:06.863Z</time></trkpt><trkpt lat="44.3383282" lon="11.405892"><ele>195.0</ele><time>2026-03-30T10:12:07.853Z</time></trkpt><trkpt lat="44.3382863" lon="11.4058146"><ele>195.0</ele><time>2026-03-30T10:12:08.866Z</time></trkpt><trkpt lat="44.338243" lon="11.4057334"><ele>195.0</ele><time>2026-03-30T10:12:09.871Z</time></trkpt><trkpt lat="44.3381995" lon="11.4056544"><ele>195.0</ele><time>2026-03-30T10:12:10.852Z</time></trkpt><trkpt lat="44.338157" lon="11.4055759"><ele>195.0</ele><time>2026-03-30T10:12:11.868Z</time></trkpt><trkpt lat="44.3381154" lon="11.4054975"><ele>195.0</ele><time>2026-03-30T10:12:12.859Z</time></trkpt><trkpt lat="44.3380732" lon="11.4054192"><ele>195.0</ele><time>2026-03-30T10:12:13.86Z</time></trkpt><trkpt lat="44.3380324" lon="11.4053446"><ele>195.0</ele><time>2026-03-30T10:12:14.87Z</time></trkpt><trkpt lat="44.3379925" lon="11.4052697"><ele>195.0</ele><time>2026-03-30T10:12:15.877Z</time></trkpt><trkpt lat="44.3379517" lon="11.405193"><ele>195.0</ele><time>2026-03-30T10:12:16.867Z</time></trkpt><trkpt lat="44.3379133" lon="11.4051137"><ele>195.0</ele><time>2026-03-30T10:12:17.872Z</time></trkpt><trkpt lat="44.3378712" lon="11.405038"><ele>195.0</ele><time>2026-03-30T10:12:18.865Z</time></trkpt><trkpt lat="44.3378301" lon="11.4049636"><ele>195.0</ele><time>2026-03-30T10:12:19.852Z</time></trkpt><trkpt lat="44.3377898" lon="11.4048873"><ele>195.0</ele><time>2026-03-30T10:12:20.861Z</time></trkpt><trkpt lat="44.33775" lon="11.4048145"><ele>195.0</ele><time>2026-03-30T10:12:21.869Z</time></trkpt><trkpt lat="44.3377079" lon="11.4047422"><ele>195.0</ele><time>2026-03-30T10:12:22.863Z</time></trkpt><trkpt lat="44.3376674" lon="11.4046693"><ele>195.0</ele><time>2026-03-30T10:12:23.866Z</time></trkpt><trkpt lat="44.3376242" lon="11.4045993"><ele>195.14285714285714</ele><time>2026-03-30T10:12:24.86Z</time></trkpt><trkpt lat="44.3375832" lon="11.4045298"><ele>195.28571428571428</ele><time>2026-03-30T10:12:25.864Z</time></trkpt><trkpt lat="44.3375397" lon="11.4044624"><ele>195.42857142857144</ele><time>2026-03-30T10:12:26.861Z</time></trkpt><trkpt lat="44.3374939" lon="11.4043988"><ele>195.57142857142856</ele><time>2026-03-30T10:12:27.863Z</time></trkpt><trkpt lat="44.3374469" lon="11.4043351"><ele>195.71428571428572</ele><time>2026-03-30T10:12:28.862Z</time></trkpt><trkpt lat="44.3373981" lon="11.4042748"><ele>195.85714285714286</ele><time>2026-03-30T10:12:29.879Z</time></trkpt><trkpt lat="44.3373473" lon="11.4042162"><ele>196.0</ele><time>2026-03-30T10:12:30.861Z</time></trkpt><trkpt lat="44.3372961" lon="11.4041546"><ele>196.0</ele><time>2026-03-30T10:12:31.867Z</time></trkpt><trkpt lat="44.3372426" lon="11.404102"><ele>196.0</ele><time>2026-03-30T10:12:32.869Z</time></trkpt><trkpt lat="44.3371868" lon="11.4040522"><ele>196.0</ele><time>2026-03-30T10:12:33.862Z</time></trkpt><trkpt lat="44.3371285" lon="11.4040059"><ele>196.0</ele><time>2026-03-30T10:12:34.861Z</time></trkpt><trkpt lat="44.3370705" lon="11.403963"><ele>196.0</ele><time>2026-03-30T10:12:35.862Z</time></trkpt><trkpt lat="44.3370134" lon="11.4039217"><ele>196.0</ele><time>2026-03-30T10:12:36.865Z</time></trkpt><trkpt lat="44.3369554" lon="11.403882"><ele>196.0</ele><time>2026-03-30T10:12:37.865Z</time></trkpt><trkpt lat="44.336896" lon="11.4038445"><ele>197.57142857142858</ele><time>2026-03-30T10:12:38.863Z</time></trkpt><trkpt lat="44.336836" lon="11.4038073"><ele>199.14285714285714</ele><time>2026-03-30T10:12:39.868Z</time></trkpt><trkpt lat="44.336777" lon="11.4037723"><ele>200.71428571428572</ele><time>2026-03-30T10:12:40.862Z</time></trkpt><trkpt lat="44.3367163" lon="11.403742"><ele>202.28571428571428</ele><time>2026-03-30T10:12:41.864Z</time></trkpt><trkpt lat="44.3366547" lon="11.403715"><ele>203.85714285714286</ele><time>2026-03-30T10:12:42.865Z</time></trkpt><trkpt lat="44.3365944" lon="11.4036881"><ele>205.42857142857144</ele><time>2026-03-30T10:12:43.865Z</time></trkpt><trkpt lat="44.3364769" lon="11.4036609"><ele>207.0</ele><time>2026-03-30T10:12:45.848Z</time></trkpt><trkpt lat="44.3363517" lon="11.4036765"><ele>207.0</ele><time>2026-03-30T10:12:47.854Z</time></trkpt><trkpt lat="44.3362904" lon="11.4037038"><ele>207.0</ele><time>2026-03-30T10:12:48.871Z</time></trkpt><trkpt lat="44.3362293" lon="11.4037348"><ele>207.0</ele><time>2026-03-30T10:12:49.869Z</time></trkpt><trkpt lat="44.3361721" lon="11.4037746"><ele>207.0</ele><time>2026-03-30T10:12:50.868Z</time></trkpt><trkpt lat="44.3361158" lon="11.4038205"><ele>207.0</ele><time>2026-03-30T10:12:51.862Z</time></trkpt><trkpt lat="44.3360112" lon="11.4039237"><ele>207.0</ele><time>2026-03-30T10:12:53.871Z</time></trkpt><trkpt lat="44.3359605" lon="11.4039766"><ele>205.0</ele><time>2026-03-30T10:12:54.867Z</time></trkpt><trkpt lat="44.3359133" lon="11.4040362"><ele>203.0</ele><time>2026-03-30T10:12:55.87Z</time></trkpt><trkpt lat="44.335822" lon="11.4041512"><ele>201.0</ele><time>2026-03-30T10:12:57.874Z</time></trkpt><trkpt lat="44.3357303" lon="11.4042704"><ele>199.0</ele><time>2026-03-30T10:12:59.865Z</time></trkpt><trkpt lat="44.3356374" lon="11.4043854"><ele>197.0</ele><time>2026-03-30T10:13:01.862Z</time></trkpt><trkpt lat="44.3355915" lon="11.4044463"><ele>197.00000000000003</ele><time>2026-03-30T10:13:02.867Z</time></trkpt><trkpt lat="44.3355012" lon="11.4045673"><ele>197.0</ele><time>2026-03-30T10:13:04.867Z</time></trkpt><trkpt lat="44.3354528" lon="11.4046245"><ele>197.0</ele><time>2026-03-30T10:13:05.873Z</time></trkpt><trkpt lat="44.335404" lon="11.4046838"><ele>197.0</ele><time>2026-03-30T10:13:06.863Z</time></trkpt><trkpt lat="44.3353564" lon="11.4047442"><ele>197.00000000000003</ele><time>2026-03-30T10:13:07.874Z</time></trkpt><trkpt lat="44.3352644" lon="11.4048629"><ele>197.0</ele><time>2026-03-30T10:13:09.862Z</time></trkpt><trkpt lat="44.3351751" lon="11.4049815"><ele>197.0</ele><time>2026-03-30T10:13:11.874Z</time></trkpt><trkpt lat="44.3350939" lon="11.4051063"><ele>197.0</ele><time>2026-03-30T10:13:13.869Z</time></trkpt><trkpt lat="44.3350127" lon="11.4052303"><ele>197.0</ele><time>2026-03-30T10:13:15.858Z</time></trkpt><trkpt lat="44.3349319" lon="11.4053605"><ele>197.0</ele><time>2026-03-30T10:13:17.851Z</time></trkpt><trkpt lat="44.3348532" lon="11.4054944"><ele>197.39999999999998</ele><time>2026-03-30T10:13:19.865Z</time></trkpt><trkpt lat="44.3347767" lon="11.4056216"><ele>197.79999999999998</ele><time>2026-03-30T10:13:21.857Z</time></trkpt><trkpt lat="44.3346923" lon="11.4057418"><ele>198.2</ele><time>2026-03-30T10:13:23.867Z</time></trkpt><trkpt lat="44.3345969" lon="11.4058571"><ele>198.6</ele><time>2026-03-30T10:13:25.866Z</time></trkpt><trkpt lat="44.3345428" lon="11.4059101"><ele>199.0</ele><time>2026-03-30T10:13:26.854Z</time></trkpt><trkpt lat="44.3344872" lon="11.4059568"><ele>199.0</ele><time>2026-03-30T10:13:27.871Z</time></trkpt><trkpt lat="44.3343714" lon="11.4060354"><ele>199.0</ele><time>2026-03-30T10:13:29.865Z</time></trkpt><trkpt lat="44.3343138" lon="11.4060751"><ele>199.0</ele><time>2026-03-30T10:13:30.868Z</time></trkpt><trkpt lat="44.3342511" lon="11.4061095"><ele>199.0</ele><time>2026-03-30T10:13:31.867Z</time></trkpt><trkpt lat="44.3341365" lon="11.4061657"><ele>199.0</ele><time>2026-03-30T10:13:33.865Z</time></trkpt><trkpt lat="44.3340204" lon="11.4062304"><ele>199.0</ele><time>2026-03-30T10:13:35.853Z</time></trkpt><trkpt lat="44.333914" lon="11.4063045"><ele>199.0</ele><time>2026-03-30T10:13:37.863Z</time></trkpt><trkpt lat="44.3338601" lon="11.4063557"><ele>199.0</ele><time>2026-03-30T10:13:38.868Z</time></trkpt><trkpt lat="44.3337671" lon="11.4064396"><ele>199.0</ele><time>2026-03-30T10:13:40.869Z</time></trkpt><trkpt lat="44.3336612" lon="11.4065278"><ele>199.0</ele><time>2026-03-30T10:13:42.868Z</time></trkpt><trkpt lat="44.3335982" lon="11.4065479"><ele>199.7142857142857</ele><time>2026-03-30T10:13:43.871Z</time></trkpt><trkpt lat="44.3335349" lon="11.4065556"><ele>200.42857142857142</ele><time>2026-03-30T10:13:44.87Z</time></trkpt><trkpt lat="44.3334663" lon="11.4065482"><ele>201.14285714285714</ele><time>2026-03-30T10:13:45.864Z</time></trkpt><trkpt lat="44.3334012" lon="11.4065295"><ele>201.85714285714283</ele><time>2026-03-30T10:13:46.87Z</time></trkpt><trkpt lat="44.3333366" lon="11.4064968"><ele>202.57142857142858</ele><time>2026-03-30T10:13:47.877Z</time></trkpt><trkpt lat="44.3332789" lon="11.4064523"><ele>203.28571428571428</ele><time>2026-03-30T10:13:48.869Z</time></trkpt><trkpt lat="44.333225" lon="11.4064015"><ele>204.0</ele><time>2026-03-30T10:13:49.866Z</time></trkpt><trkpt lat="44.3331742" lon="11.4063481"><ele>202.79999999999998</ele><time>2026-03-30T10:13:50.87Z</time></trkpt><trkpt lat="44.333123" lon="11.4062938"><ele>201.6</ele><time>2026-03-30T10:13:51.864Z</time></trkpt><trkpt lat="44.3330737" lon="11.406239"><ele>200.4</ele><time>2026-03-30T10:13:52.864Z</time></trkpt><trkpt lat="44.3329792" lon="11.4061274"><ele>199.2</ele><time>2026-03-30T10:13:54.863Z</time></trkpt><trkpt lat="44.3328827" lon="11.4060208"><ele>198.0</ele><time>2026-03-30T10:13:56.873Z</time></trkpt><trkpt lat="44.3327788" lon="11.405931"><ele>198.0</ele><time>2026-03-30T10:13:58.854Z</time></trkpt><trkpt lat="44.3326713" lon="11.4058581"><ele>198.0</ele><time>2026-03-30T10:14:00.863Z</time></trkpt><trkpt lat="44.3325536" lon="11.4058084"><ele>198.0</ele><time>2026-03-30T10:14:02.871Z</time></trkpt><trkpt lat="44.3324362" lon="11.4057725"><ele>198.0</ele><time>2026-03-30T10:14:04.856Z</time></trkpt><trkpt lat="44.3323207" lon="11.4057447"><ele>198.0</ele><time>2026-03-30T10:14:06.857Z</time></trkpt><trkpt lat="44.332205" lon="11.4057165"><ele>198.0</ele><time>2026-03-30T10:14:08.868Z</time></trkpt><trkpt lat="44.3320915" lon="11.4056926"><ele>198.0</ele><time>2026-03-30T10:14:10.868Z</time></trkpt><trkpt lat="44.3319772" lon="11.4056734"><ele>198.0</ele><time>2026-03-30T10:14:12.866Z</time></trkpt><trkpt lat="44.3318657" lon="11.4056782"><ele>198.0</ele><time>2026-03-30T10:14:14.869Z</time></trkpt><trkpt lat="44.3317579" lon="11.4057096"><ele>198.0</ele><time>2026-03-30T10:14:16.88Z</time></trkpt><trkpt lat="44.3316561" lon="11.4057739"><ele>198.0</ele><time>2026-03-30T10:14:18.851Z</time></trkpt><trkpt lat="44.3315682" lon="11.4058687"><ele>198.0</ele><time>2026-03-30T10:14:20.86Z</time></trkpt><trkpt lat="44.3314974" lon="11.4059838"><ele>198.0</ele><time>2026-03-30T10:14:22.864Z</time></trkpt><trkpt lat="44.3314476" lon="11.4061182"><ele>198.0</ele><time>2026-03-30T10:14:24.861Z</time></trkpt><trkpt lat="44.3314053" lon="11.4062445"><ele>198.0</ele><time>2026-03-30T10:14:26.87Z</time></trkpt><trkpt lat="44.3313616" lon="11.4063728"><ele>198.0</ele><time>2026-03-30T10:14:28.863Z</time></trkpt><trkpt lat="44.3313104" lon="11.4065007"><ele>198.0</ele><time>2026-03-30T10:14:30.865Z</time></trkpt><trkpt lat="44.3312489" lon="11.4066201"><ele>198.0</ele><time>2026-03-30T10:14:32.875Z</time></trkpt><trkpt lat="44.3311775" lon="11.4067276"><ele>198.5</ele><time>2026-03-30T10:14:34.874Z</time></trkpt><trkpt lat="44.3310966" lon="11.4068274"><ele>199.0</ele><time>2026-03-30T10:14:36.869Z</time></trkpt><trkpt lat="44.330999" lon="11.4069099"><ele>199.5</ele><time>2026-03-30T10:14:38.866Z</time></trkpt><trkpt lat="44.3308977" lon="11.4069952"><ele>200.0</ele><time>2026-03-30T10:14:40.849Z</time></trkpt><trkpt lat="44.3307971" lon="11.4070853"><ele>200.25</ele><time>2026-03-30T10:14:42.866Z</time></trkpt><trkpt lat="44.3306991" lon="11.4071708"><ele>200.5</ele><time>2026-03-30T10:14:44.859Z</time></trkpt><trkpt lat="44.3305989" lon="11.4072598"><ele>200.75</ele><time>2026-03-30T10:14:46.865Z</time></trkpt><trkpt lat="44.3304967" lon="11.4073482"><ele>201.0</ele><time>2026-03-30T10:14:48.852Z</time></trkpt><trkpt lat="44.3303953" lon="11.4074352"><ele>201.0</ele><time>2026-03-30T10:14:50.863Z</time></trkpt><trkpt lat="44.3302942" lon="11.4075243"><ele>201.0</ele><time>2026-03-30T10:14:52.865Z</time></trkpt><trkpt lat="44.3301906" lon="11.4076091"><ele>201.0</ele><time>2026-03-30T10:14:54.868Z</time></trkpt><trkpt lat="44.3300838" lon="11.4076919"><ele>201.0</ele><time>2026-03-30T10:14:56.86Z</time></trkpt><trkpt lat="44.3299708" lon="11.4077526"><ele>201.0</ele><time>2026-03-30T10:14:58.872Z</time></trkpt><trkpt lat="44.3298541" lon="11.4077978"><ele>201.0</ele><time>2026-03-30T10:15:00.87Z</time></trkpt><trkpt lat="44.3297342" lon="11.4078255"><ele>201.0</ele><time>2026-03-30T10:15:02.873Z</time></trkpt><trkpt lat="44.3296094" lon="11.4078289"><ele>201.0</ele><time>2026-03-30T10:15:04.861Z</time></trkpt><trkpt lat="44.3295461" lon="11.4078241"><ele>201.0</ele><time>2026-03-30T10:15:05.861Z</time></trkpt><trkpt lat="44.329483" lon="11.4078113"><ele>201.16666666666666</ele><time>2026-03-30T10:15:06.867Z</time></trkpt><trkpt lat="44.3294214" lon="11.4077904"><ele>201.33333333333331</ele><time>2026-03-30T10:15:07.869Z</time></trkpt><trkpt lat="44.3293024" lon="11.4077334"><ele>201.5</ele><time>2026-03-30T10:15:09.867Z</time></trkpt><trkpt lat="44.3291904" lon="11.4076624"><ele>201.66666666666666</ele><time>2026-03-30T10:15:11.85Z</time></trkpt><trkpt lat="44.3291343" lon="11.4076211"><ele>201.83333333333331</ele><time>2026-03-30T10:15:12.866Z</time></trkpt><trkpt lat="44.3290797" lon="11.4075769"><ele>202.0</ele><time>2026-03-30T10:15:13.852Z</time></trkpt><trkpt lat="44.3289703" lon="11.4074801"><ele>202.0</ele><time>2026-03-30T10:15:15.872Z</time></trkpt><trkpt lat="44.3289192" lon="11.4074252"><ele>202.0</ele><time>2026-03-30T10:15:16.868Z</time></trkpt><trkpt lat="44.3288689" lon="11.4073681"><ele>202.0</ele><time>2026-03-30T10:15:17.855Z</time></trkpt><trkpt lat="44.3288216" lon="11.4073053"><ele>202.0</ele><time>2026-03-30T10:15:18.861Z</time></trkpt><trkpt lat="44.3287784" lon="11.4072318"><ele>202.0</ele><time>2026-03-30T10:15:19.866Z</time></trkpt><trkpt lat="44.3287402" lon="11.4071527"><ele>202.0</ele><time>2026-03-30T10:15:20.866Z</time></trkpt><trkpt lat="44.3287042" lon="11.4070757"><ele>202.0</ele><time>2026-03-30T10:15:21.867Z</time></trkpt><trkpt lat="44.3286739" lon="11.4069919"><ele>202.57142857142856</ele><time>2026-03-30T10:15:22.861Z</time></trkpt><trkpt lat="44.3286447" lon="11.4069074"><ele>203.14285714285714</ele><time>2026-03-30T10:15:23.867Z</time></trkpt><trkpt lat="44.3286185" lon="11.4068214"><ele>203.71428571428572</ele><time>2026-03-30T10:15:24.876Z</time></trkpt><trkpt lat="44.3285935" lon="11.4067372"><ele>204.28571428571428</ele><time>2026-03-30T10:15:25.863Z</time></trkpt><trkpt lat="44.3285689" lon="11.4066432"><ele>204.85714285714286</ele><time>2026-03-30T10:15:26.858Z</time></trkpt><trkpt lat="44.3285478" lon="11.4065527"><ele>205.42857142857142</ele><time>2026-03-30T10:15:27.868Z</time></trkpt><trkpt lat="44.3285273" lon="11.4064681"><ele>206.0</ele><time>2026-03-30T10:15:28.865Z</time></trkpt><trkpt lat="44.328507" lon="11.4063813"><ele>205.8</ele><time>2026-03-30T10:15:29.858Z</time></trkpt><trkpt lat="44.3284856" lon="11.4062976"><ele>205.60000000000002</ele><time>2026-03-30T10:15:30.861Z</time></trkpt><trkpt lat="44.3284458" lon="11.4061294"><ele>205.4</ele><time>2026-03-30T10:15:32.863Z</time></trkpt><trkpt lat="44.3284271" lon="11.4060446"><ele>205.2</ele><time>2026-03-30T10:15:33.865Z</time></trkpt><trkpt lat="44.328381" lon="11.4058862"><ele>205.0</ele><time>2026-03-30T10:15:35.87Z</time></trkpt><trkpt lat="44.3283327" lon="11.4057308"><ele>205.0</ele><time>2026-03-30T10:15:37.856Z</time></trkpt><trkpt lat="44.3282713" lon="11.4055816"><ele>205.0</ele><time>2026-03-30T10:15:39.866Z</time></trkpt><trkpt lat="44.3281964" lon="11.4054445"><ele>205.0</ele><time>2026-03-30T10:15:41.86Z</time></trkpt><trkpt lat="44.3281175" lon="11.405311"><ele>205.0</ele><time>2026-03-30T10:15:43.867Z</time></trkpt><trkpt lat="44.3280383" lon="11.405191"><ele>205.0</ele><time>2026-03-30T10:15:45.865Z</time></trkpt><trkpt lat="44.3279471" lon="11.4050764"><ele>205.0</ele><time>2026-03-30T10:15:47.875Z</time></trkpt><trkpt lat="44.3278522" lon="11.4049793"><ele>205.0</ele><time>2026-03-30T10:15:49.861Z</time></trkpt><trkpt lat="44.3277469" lon="11.4048972"><ele>205.0</ele><time>2026-03-30T10:15:51.867Z</time></trkpt><trkpt lat="44.327632" lon="11.4048463"><ele>205.0</ele><time>2026-03-30T10:15:53.872Z</time></trkpt><trkpt lat="44.3275128" lon="11.4048261"><ele>205.0</ele><time>2026-03-30T10:15:55.857Z</time></trkpt><trkpt lat="44.3273963" lon="11.4048126"><ele>205.0</ele><time>2026-03-30T10:15:57.863Z</time></trkpt><trkpt lat="44.3272807" lon="11.4047988"><ele>205.0</ele><time>2026-03-30T10:15:59.871Z</time></trkpt><trkpt lat="44.3271678" lon="11.4047833"><ele>206.25</ele><time>2026-03-30T10:16:01.859Z</time></trkpt><trkpt lat="44.3270557" lon="11.4047748"><ele>207.5</ele><time>2026-03-30T10:16:03.874Z</time></trkpt><trkpt lat="44.3269412" lon="11.4047699"><ele>208.75</ele><time>2026-03-30T10:16:05.87Z</time></trkpt><trkpt lat="44.3268278" lon="11.4047671"><ele>210.0</ele><time>2026-03-30T10:16:07.864Z</time></trkpt><trkpt lat="44.3267159" lon="11.4047663"><ele>210.0</ele><time>2026-03-30T10:16:09.871Z</time></trkpt><trkpt lat="44.326604" lon="11.4047649"><ele>210.0</ele><time>2026-03-30T10:16:11.867Z</time></trkpt><trkpt lat="44.3264899" lon="11.4047694"><ele>210.0</ele><time>2026-03-30T10:16:13.862Z</time></trkpt><trkpt lat="44.3263768" lon="11.4047686"><ele>210.0</ele><time>2026-03-30T10:16:15.865Z</time></trkpt><trkpt lat="44.326265" lon="11.4047697"><ele>210.0</ele><time>2026-03-30T10:16:17.865Z</time></trkpt><trkpt lat="44.326152" lon="11.4047721"><ele>210.0</ele><time>2026-03-30T10:16:19.868Z</time></trkpt><trkpt lat="44.3260435" lon="11.404777"><ele>210.0</ele><time>2026-03-30T10:16:21.861Z</time></trkpt><trkpt lat="44.3259252" lon="11.4047821"><ele>210.0</ele><time>2026-03-30T10:16:23.862Z</time></trkpt><trkpt lat="44.3258045" lon="11.4047766"><ele>210.0</ele><time>2026-03-30T10:16:25.867Z</time></trkpt><trkpt lat="44.3256827" lon="11.4047644"><ele>210.0</ele><time>2026-03-30T10:16:27.86Z</time></trkpt><trkpt lat="44.3255652" lon="11.4047488"><ele>210.0</ele><time>2026-03-30T10:16:29.868Z</time></trkpt><trkpt lat="44.3255008" lon="11.4047336"><ele>210.0</ele><time>2026-03-30T10:16:30.856Z</time></trkpt><trkpt lat="44.325434" lon="11.4047166"><ele>210.0</ele><time>2026-03-30T10:16:31.862Z</time></trkpt><trkpt lat="44.3253684" lon="11.4046962"><ele>210.0</ele><time>2026-03-30T10:16:32.874Z</time></trkpt><trkpt lat="44.325302" lon="11.4046738"><ele>209.6</ele><time>2026-03-30T10:16:33.866Z</time></trkpt><trkpt lat="44.3252384" lon="11.4046544"><ele>209.2</ele><time>2026-03-30T10:16:34.868Z</time></trkpt><trkpt lat="44.3251156" lon="11.4046207"><ele>208.8</ele><time>2026-03-30T10:16:36.868Z</time></trkpt><trkpt lat="44.3249979" lon="11.4045743"><ele>208.4</ele><time>2026-03-30T10:16:38.853Z</time></trkpt><trkpt lat="44.3248811" lon="11.4045408"><ele>208.0</ele><time>2026-03-30T10:16:40.873Z</time></trkpt><trkpt lat="44.324767" lon="11.4045168"><ele>208.0</ele><time>2026-03-30T10:16:42.861Z</time></trkpt><trkpt lat="44.3246526" lon="11.4045134"><ele>208.0</ele><time>2026-03-30T10:16:44.862Z</time></trkpt><trkpt lat="44.3245342" lon="11.4045266"><ele>208.0</ele><time>2026-03-30T10:16:46.869Z</time></trkpt><trkpt lat="44.3244156" lon="11.4045523"><ele>208.0</ele><time>2026-03-30T10:16:48.876Z</time></trkpt><trkpt lat="44.3242948" lon="11.4045916"><ele>208.0</ele><time>2026-03-30T10:16:50.865Z</time></trkpt><trkpt lat="44.3241759" lon="11.4046395"><ele>208.0</ele><time>2026-03-30T10:16:52.858Z</time></trkpt><trkpt lat="44.3240586" lon="11.4046949"><ele>208.0</ele><time>2026-03-30T10:16:54.865Z</time></trkpt><trkpt lat="44.3239421" lon="11.4047489"><ele>208.0</ele><time>2026-03-30T10:16:56.87Z</time></trkpt><trkpt lat="44.3238301" lon="11.4048115"><ele>210.25</ele><time>2026-03-30T10:16:58.867Z</time></trkpt><trkpt lat="44.3237235" lon="11.4048885"><ele>212.5</ele><time>2026-03-30T10:17:00.87Z</time></trkpt><trkpt lat="44.3236286" lon="11.4049718"><ele>214.75</ele><time>2026-03-30T10:17:02.858Z</time></trkpt><trkpt lat="44.3235295" lon="11.4050662"><ele>217.0</ele><time>2026-03-30T10:17:04.863Z</time></trkpt><trkpt lat="44.3234293" lon="11.4051626"><ele>217.0</ele><time>2026-03-30T10:17:06.865Z</time></trkpt><trkpt lat="44.3233264" lon="11.4052547"><ele>217.0</ele><time>2026-03-30T10:17:08.862Z</time></trkpt><trkpt lat="44.3232718" lon="11.4052988"><ele>217.0</ele><time>2026-03-30T10:17:09.872Z</time></trkpt><trkpt lat="44.3231584" lon="11.4053713"><ele>217.0</ele><time>2026-03-30T10:17:11.86Z</time></trkpt><trkpt lat="44.3230407" lon="11.4054285"><ele>217.0</ele><time>2026-03-30T10:17:13.868Z</time></trkpt><trkpt lat="44.3229194" lon="11.4054634"><ele>216.0</ele><time>2026-03-30T10:17:15.864Z</time></trkpt><trkpt lat="44.3228568" lon="11.405474"><ele>215.0</ele><time>2026-03-30T10:17:16.864Z</time></trkpt><trkpt lat="44.3227377" lon="11.4054919"><ele>214.0</ele><time>2026-03-30T10:17:18.874Z</time></trkpt><trkpt lat="44.3226241" lon="11.4055043"><ele>213.0</ele><time>2026-03-30T10:17:20.861Z</time></trkpt><trkpt lat="44.3225175" lon="11.4055162"><ele>212.0</ele><time>2026-03-30T10:17:22.866Z</time></trkpt><trkpt lat="44.3224108" lon="11.4055351"><ele>214.2</ele><time>2026-03-30T10:17:24.875Z</time></trkpt><trkpt lat="44.3223" lon="11.4055554"><ele>216.39999999999998</ele><time>2026-03-30T10:17:26.855Z</time></trkpt><trkpt lat="44.3221969" lon="11.4055686"><ele>218.60000000000002</ele><time>2026-03-30T10:17:28.859Z</time></trkpt><trkpt lat="44.3220987" lon="11.4055998"><ele>220.8</ele><time>2026-03-30T10:17:30.86Z</time></trkpt><trkpt lat="44.3220014" lon="11.4056298"><ele>223.0</ele><time>2026-03-30T10:17:32.862Z</time></trkpt><trkpt lat="44.3219069" lon="11.405662"><ele>223.0</ele><time>2026-03-30T10:17:34.876Z</time></trkpt><trkpt lat="44.3218154" lon="11.4057048"><ele>223.0</ele><time>2026-03-30T10:17:36.863Z</time></trkpt><trkpt lat="44.3217153" lon="11.4057543"><ele>223.0</ele><time>2026-03-30T10:17:38.861Z</time></trkpt><trkpt lat="44.3216175" lon="11.4057945"><ele>223.0</ele><time>2026-03-30T10:17:40.862Z</time></trkpt><trkpt lat="44.3215132" lon="11.4058284"><ele>223.0</ele><time>2026-03-30T10:17:42.864Z</time></trkpt><trkpt lat="44.3214088" lon="11.4058467"><ele>224.8</ele><time>2026-03-30T10:17:44.865Z</time></trkpt><trkpt lat="44.3213011" lon="11.4058358"><ele>226.60000000000002</ele><time>2026-03-30T10:17:46.87Z</time></trkpt><trkpt lat="44.3211991" lon="11.4058271"><ele>228.39999999999998</ele><time>2026-03-30T10:17:48.863Z</time></trkpt><trkpt lat="44.3210945" lon="11.4058062"><ele>230.2</ele><time>2026-03-30T10:17:50.859Z</time></trkpt><trkpt lat="44.3209846" lon="11.4057589"><ele>232.0</ele><time>2026-03-30T10:17:52.869Z</time></trkpt><trkpt lat="44.3208822" lon="11.4056989"><ele>232.0</ele><time>2026-03-30T10:17:54.871Z</time></trkpt><trkpt lat="44.3207887" lon="11.4056299"><ele>232.0</ele><time>2026-03-30T10:17:56.859Z</time></trkpt><trkpt lat="44.3207035" lon="11.4055451"><ele>232.0</ele><time>2026-03-30T10:17:58.865Z</time></trkpt><trkpt lat="44.3206296" lon="11.405448"><ele>232.0</ele><time>2026-03-30T10:18:00.859Z</time></trkpt><trkpt lat="44.320564" lon="11.40534"><ele>232.0</ele><time>2026-03-30T10:18:02.86Z</time></trkpt><trkpt lat="44.3204995" lon="11.4052369"><ele>232.83333333333331</ele><time>2026-03-30T10:18:04.865Z</time></trkpt><trkpt lat="44.3204427" lon="11.4051348"><ele>233.66666666666666</ele><time>2026-03-30T10:18:06.866Z</time></trkpt><trkpt lat="44.3203902" lon="11.4050399"><ele>234.5</ele><time>2026-03-30T10:18:08.865Z</time></trkpt><trkpt lat="44.3203372" lon="11.4049311"><ele>235.33333333333331</ele><time>2026-03-30T10:18:10.859Z</time></trkpt><trkpt lat="44.320284" lon="11.404831"><ele>236.16666666666666</ele><time>2026-03-30T10:18:12.869Z</time></trkpt><trkpt lat="44.3202335" lon="11.4047337"><ele>237.0</ele><time>2026-03-30T10:18:14.86Z</time></trkpt><trkpt lat="44.3201868" lon="11.4046308"><ele>233.5</ele><time>2026-03-30T10:18:16.863Z</time></trkpt><trkpt lat="44.3201369" lon="11.4045311"><ele>230.0</ele><time>2026-03-30T10:18:18.856Z</time></trkpt><trkpt lat="44.320088" lon="11.4044289"><ele>226.5</ele><time>2026-03-30T10:18:20.862Z</time></trkpt><trkpt lat="44.3200382" lon="11.4043325"><ele>223.0</ele><time>2026-03-30T10:18:22.865Z</time></trkpt><trkpt lat="44.3199903" lon="11.4042339"><ele>219.5</ele><time>2026-03-30T10:18:24.857Z</time></trkpt><trkpt lat="44.3199404" lon="11.4041392"><ele>216.0</ele><time>2026-03-30T10:18:26.87Z</time></trkpt><trkpt lat="44.3198945" lon="11.4040499"><ele>216.0</ele><time>2026-03-30T10:18:28.861Z</time></trkpt><trkpt lat="44.3198428" lon="11.4039515"><ele>216.0</ele><time>2026-03-30T10:18:30.859Z</time></trkpt><trkpt lat="44.3197906" lon="11.4038467"><ele>216.0</ele><time>2026-03-30T10:18:32.866Z</time></trkpt><trkpt lat="44.3197393" lon="11.403745"><ele>216.0</ele><time>2026-03-30T10:18:34.856Z</time></trkpt><trkpt lat="44.3196868" lon="11.4036512"><ele>216.0</ele><time>2026-03-30T10:18:36.863Z</time></trkpt><trkpt lat="44.3196336" lon="11.4035463"><ele>216.0</ele><time>2026-03-30T10:18:38.862Z</time></trkpt><trkpt lat="44.3195733" lon="11.4034525"><ele>218.20000000000002</ele><time>2026-03-30T10:18:40.867Z</time></trkpt><trkpt lat="44.3195051" lon="11.4033688"><ele>220.40000000000003</ele><time>2026-03-30T10:18:42.859Z</time></trkpt><trkpt lat="44.3194288" lon="11.4032967"><ele>222.6</ele><time>2026-03-30T10:18:44.867Z</time></trkpt><trkpt lat="44.3193455" lon="11.4032419"><ele>224.8</ele><time>2026-03-30T10:18:46.861Z</time></trkpt><trkpt lat="44.3192563" lon="11.403207"><ele>227.0</ele><time>2026-03-30T10:18:48.872Z</time></trkpt><trkpt lat="44.3191643" lon="11.4031722"><ele>227.0</ele><time>2026-03-30T10:18:50.861Z</time></trkpt><trkpt lat="44.3190659" lon="11.4031462"><ele>227.0</ele><time>2026-03-30T10:18:52.866Z</time></trkpt><trkpt lat="44.318964" lon="11.4031192"><ele>227.0</ele><time>2026-03-30T10:18:54.866Z</time></trkpt><trkpt lat="44.3188603" lon="11.4030921"><ele>227.0</ele><time>2026-03-30T10:18:56.864Z</time></trkpt><trkpt lat="44.3187548" lon="11.4030621"><ele>227.0</ele><time>2026-03-30T10:18:58.874Z</time></trkpt><trkpt lat="44.3186471" lon="11.4030311"><ele>227.75</ele><time>2026-03-30T10:19:00.868Z</time></trkpt><trkpt lat="44.3185351" lon="11.4030088"><ele>228.5</ele><time>2026-03-30T10:19:02.862Z</time></trkpt><trkpt lat="44.3184224" lon="11.4029998"><ele>229.25</ele><time>2026-03-30T10:19:04.87Z</time></trkpt><trkpt lat="44.3183097" lon="11.403021"><ele>230.0</ele><time>2026-03-30T10:19:06.864Z</time></trkpt><trkpt lat="44.3181984" lon="11.4030761"><ele>230.00000000000003</ele><time>2026-03-30T10:19:08.871Z</time></trkpt><trkpt lat="44.318141" lon="11.4031127"><ele>230.0</ele><time>2026-03-30T10:19:09.868Z</time></trkpt><trkpt lat="44.3180264" lon="11.4031902"><ele>230.0</ele><time>2026-03-30T10:19:11.864Z</time></trkpt><trkpt lat="44.3179687" lon="11.4032319"><ele>230.0</ele><time>2026-03-30T10:19:12.864Z</time></trkpt><trkpt lat="44.317907" lon="11.4032708"><ele>230.00000000000003</ele><time>2026-03-30T10:19:13.862Z</time></trkpt><trkpt lat="44.317839" lon="11.4032897"><ele>230.0</ele><time>2026-03-30T10:19:14.874Z</time></trkpt><trkpt lat="44.3177669" lon="11.4033017"><ele>229.71428571428567</ele><time>2026-03-30T10:19:15.874Z</time></trkpt><trkpt lat="44.3177016" lon="11.4033169"><ele>229.42857142857142</ele><time>2026-03-30T10:19:16.864Z</time></trkpt><trkpt lat="44.317634" lon="11.4033233"><ele>229.1428571428571</ele><time>2026-03-30T10:19:17.866Z</time></trkpt><trkpt lat="44.3175645" lon="11.403319"><ele>228.85714285714283</ele><time>2026-03-30T10:19:18.871Z</time></trkpt><trkpt lat="44.317499" lon="11.4033175"><ele>228.57142857142856</ele><time>2026-03-30T10:19:19.865Z</time></trkpt><trkpt lat="44.3174305" lon="11.4033279"><ele>228.28571428571428</ele><time>2026-03-30T10:19:20.865Z</time></trkpt><trkpt lat="44.3173651" lon="11.4033376"><ele>228.0</ele><time>2026-03-30T10:19:21.869Z</time></trkpt><trkpt lat="44.3173007" lon="11.4033557"><ele>227.66666666666666</ele><time>2026-03-30T10:19:22.862Z</time></trkpt><trkpt lat="44.3172352" lon="11.4033782"><ele>227.33333333333331</ele><time>2026-03-30T10:19:23.867Z</time></trkpt><trkpt lat="44.3171705" lon="11.4034033"><ele>227.0</ele><time>2026-03-30T10:19:24.858Z</time></trkpt><trkpt lat="44.3171035" lon="11.4034272"><ele>226.66666666666666</ele><time>2026-03-30T10:19:25.859Z</time></trkpt><trkpt lat="44.3170343" lon="11.4034515"><ele>226.33333333333331</ele><time>2026-03-30T10:19:26.875Z</time></trkpt><trkpt lat="44.3169684" lon="11.4034744"><ele>226.0</ele><time>2026-03-30T10:19:27.865Z</time></trkpt><trkpt lat="44.3168477" lon="11.4035301"><ele>226.0</ele><time>2026-03-30T10:19:29.864Z</time></trkpt><trkpt lat="44.3167749" lon="11.4035561"><ele>226.0</ele><time>2026-03-30T10:19:30.861Z</time></trkpt><trkpt lat="44.3167107" lon="11.4035848"><ele>226.0</ele><time>2026-03-30T10:19:31.87Z</time></trkpt><trkpt lat="44.316646" lon="11.4036057"><ele>226.0</ele><time>2026-03-30T10:19:32.866Z</time></trkpt><trkpt lat="44.3165779" lon="11.403631"><ele>226.0</ele><time>2026-03-30T10:19:33.859Z</time></trkpt><trkpt lat="44.3165104" lon="11.4036486"><ele>226.0</ele><time>2026-03-30T10:19:34.87Z</time></trkpt><trkpt lat="44.3164442" lon="11.403664"><ele>226.0</ele><time>2026-03-30T10:19:35.863Z</time></trkpt><trkpt lat="44.3163689" lon="11.4036505"><ele>227.83333333333331</ele><time>2026-03-30T10:19:36.866Z</time></trkpt><trkpt lat="44.3162989" lon="11.4036207"><ele>229.66666666666666</ele><time>2026-03-30T10:19:37.879Z</time></trkpt><trkpt lat="44.316229" lon="11.403584"><ele>231.5</ele><time>2026-03-30T10:19:38.866Z</time></trkpt><trkpt lat="44.3161594" lon="11.4035184"><ele>233.33333333333331</ele><time>2026-03-30T10:19:39.86Z</time></trkpt><trkpt lat="44.3160925" lon="11.4034492"><ele>235.16666666666666</ele><time>2026-03-30T10:19:40.867Z</time></trkpt><trkpt lat="44.3160331" lon="11.4033678"><ele>237.0</ele><time>2026-03-30T10:19:41.864Z</time></trkpt><trkpt lat="44.3159809" lon="11.4032901"><ele>237.0</ele><time>2026-03-30T10:19:42.872Z</time></trkpt><trkpt lat="44.3159315" lon="11.4032179"><ele>237.0</ele><time>2026-03-30T10:19:43.86Z</time></trkpt><trkpt lat="44.3158815" lon="11.4031438"><ele>237.0</ele><time>2026-03-30T10:19:44.869Z</time></trkpt><trkpt lat="44.3158351" lon="11.4030718"><ele>237.0</ele><time>2026-03-30T10:19:45.857Z</time></trkpt><trkpt lat="44.3157873" lon="11.4030038"><ele>237.0</ele><time>2026-03-30T10:19:46.87Z</time></trkpt><trkpt lat="44.3157008" lon="11.4028832"><ele>237.0</ele><time>2026-03-30T10:19:48.866Z</time></trkpt><trkpt lat="44.3156125" lon="11.402775"><ele>235.16666666666666</ele><time>2026-03-30T10:19:50.854Z</time></trkpt><trkpt lat="44.3155594" lon="11.4027198"><ele>233.33333333333331</ele><time>2026-03-30T10:19:51.859Z</time></trkpt><trkpt lat="44.3154543" lon="11.4026155"><ele>231.5</ele><time>2026-03-30T10:19:53.873Z</time></trkpt><trkpt lat="44.3154007" lon="11.4025614"><ele>229.66666666666666</ele><time>2026-03-30T10:19:54.86Z</time></trkpt><trkpt lat="44.3153466" lon="11.4025086"><ele>227.83333333333331</ele><time>2026-03-30T10:19:55.859Z</time></trkpt><trkpt lat="44.3152469" lon="11.4024142"><ele>226.0</ele><time>2026-03-30T10:19:57.869Z</time></trkpt><trkpt lat="44.3151268" lon="11.4023538"><ele>226.0</ele><time>2026-03-30T10:19:59.863Z</time></trkpt><trkpt lat="44.3150613" lon="11.4023315"><ele>226.0</ele><time>2026-03-30T10:20:00.863Z</time></trkpt><trkpt lat="44.3149937" lon="11.402333"><ele>226.0</ele><time>2026-03-30T10:20:01.86Z</time></trkpt><trkpt lat="44.3149275" lon="11.4023297"><ele>226.0</ele><time>2026-03-30T10:20:02.867Z</time></trkpt><trkpt lat="44.3148598" lon="11.4023334"><ele>226.0</ele><time>2026-03-30T10:20:03.861Z</time></trkpt><trkpt lat="44.3147885" lon="11.402337"><ele>226.0</ele><time>2026-03-30T10:20:04.864Z</time></trkpt><trkpt lat="44.3147179" lon="11.4023438"><ele>226.0</ele><time>2026-03-30T10:20:05.862Z</time></trkpt><trkpt lat="44.3146491" lon="11.4023536"><ele>225.71428571428572</ele><time>2026-03-30T10:20:06.864Z</time></trkpt><trkpt lat="44.314582" lon="11.4023631"><ele>225.42857142857142</ele><time>2026-03-30T10:20:07.869Z</time></trkpt><trkpt lat="44.3145139" lon="11.4023657"><ele>225.14285714285714</ele><time>2026-03-30T10:20:08.872Z</time></trkpt><trkpt lat="44.3144454" lon="11.4023697"><ele>224.85714285714286</ele><time>2026-03-30T10:20:09.871Z</time></trkpt><trkpt lat="44.3143791" lon="11.402369"><ele>224.57142857142856</ele><time>2026-03-30T10:20:10.876Z</time></trkpt><trkpt lat="44.3143112" lon="11.4023625"><ele>224.28571428571428</ele><time>2026-03-30T10:20:11.867Z</time></trkpt><trkpt lat="44.3142456" lon="11.4023532"><ele>224.0</ele><time>2026-03-30T10:20:12.86Z</time></trkpt><trkpt lat="44.3141801" lon="11.4023364"><ele>224.0</ele><time>2026-03-30T10:20:13.86Z</time></trkpt><trkpt lat="44.3141158" lon="11.4023137"><ele>224.0</ele><time>2026-03-30T10:20:14.863Z</time></trkpt><trkpt lat="44.3140497" lon="11.4022867"><ele>224.0</ele><time>2026-03-30T10:20:15.859Z</time></trkpt><trkpt lat="44.3139865" lon="11.4022538"><ele>224.0</ele><time>2026-03-30T10:20:16.875Z</time></trkpt><trkpt lat="44.3139218" lon="11.4022163"><ele>224.0</ele><time>2026-03-30T10:20:17.871Z</time></trkpt><trkpt lat="44.3138592" lon="11.4021752"><ele>224.0</ele><time>2026-03-30T10:20:18.87Z</time></trkpt><trkpt lat="44.3137991" lon="11.4021314"><ele>224.0</ele><time>2026-03-30T10:20:19.871Z</time></trkpt><trkpt lat="44.3137399" lon="11.4020835"><ele>224.14285714285714</ele><time>2026-03-30T10:20:20.868Z</time></trkpt><trkpt lat="44.3136816" lon="11.4020356"><ele>224.28571428571428</ele><time>2026-03-30T10:20:21.864Z</time></trkpt><trkpt lat="44.3136273" lon="11.4019782"><ele>224.42857142857144</ele><time>2026-03-30T10:20:22.871Z</time></trkpt><trkpt lat="44.3135724" lon="11.4019127"><ele>224.57142857142858</ele><time>2026-03-30T10:20:23.867Z</time></trkpt><trkpt lat="44.3135216" lon="11.4018444"><ele>224.71428571428572</ele><time>2026-03-30T10:20:24.874Z</time></trkpt><trkpt lat="44.3134739" lon="11.401771"><ele>224.8571428571429</ele><time>2026-03-30T10:20:25.868Z</time></trkpt><trkpt lat="44.3134304" lon="11.4016957"><ele>225.00000000000003</ele><time>2026-03-30T10:20:26.866Z</time></trkpt><trkpt lat="44.3133919" lon="11.4016174"><ele>225.00000000000003</ele><time>2026-03-30T10:20:27.86Z</time></trkpt><trkpt lat="44.3133559" lon="11.4015381"><ele>225.0</ele><time>2026-03-30T10:20:28.856Z</time></trkpt><trkpt lat="44.3133188" lon="11.4014598"><ele>225.00000000000003</ele><time>2026-03-30T10:20:29.854Z</time></trkpt><trkpt lat="44.3132826" lon="11.4013835"><ele>225.00000000000003</ele><time>2026-03-30T10:20:30.865Z</time></trkpt><trkpt lat="44.3132456" lon="11.4013078"><ele>225.0</ele><time>2026-03-30T10:20:31.868Z</time></trkpt><trkpt lat="44.3132054" lon="11.4012399"><ele>225.00000000000003</ele><time>2026-03-30T10:20:32.867Z</time></trkpt><trkpt lat="44.3131601" lon="11.4011785"><ele>225.00000000000003</ele><time>2026-03-30T10:20:33.869Z</time></trkpt><trkpt lat="44.3131086" lon="11.4011243"><ele>225.2</ele><time>2026-03-30T10:20:34.867Z</time></trkpt><trkpt lat="44.3130552" lon="11.4010772"><ele>225.4</ele><time>2026-03-30T10:20:35.864Z</time></trkpt><trkpt lat="44.3129429" lon="11.4010012"><ele>225.60000000000002</ele><time>2026-03-30T10:20:37.865Z</time></trkpt><trkpt lat="44.3128309" lon="11.4009327"><ele>225.8</ele><time>2026-03-30T10:20:39.863Z</time></trkpt><trkpt lat="44.3127164" lon="11.4008732"><ele>226.0</ele><time>2026-03-30T10:20:41.855Z</time></trkpt><trkpt lat="44.3126053" lon="11.4008185"><ele>226.0</ele><time>2026-03-30T10:20:43.865Z</time></trkpt><trkpt lat="44.3124983" lon="11.4007621"><ele>226.0</ele><time>2026-03-30T10:20:45.859Z</time></trkpt><trkpt lat="44.312392" lon="11.4007071"><ele>226.0</ele><time>2026-03-30T10:20:47.858Z</time></trkpt><trkpt lat="44.3122866" lon="11.4006528"><ele>226.0</ele><time>2026-03-30T10:20:49.862Z</time></trkpt><trkpt lat="44.3121837" lon="11.4005975"><ele>225.8</ele><time>2026-03-30T10:20:51.868Z</time></trkpt><trkpt lat="44.3120802" lon="11.4005517"><ele>225.60000000000002</ele><time>2026-03-30T10:20:53.858Z</time></trkpt><trkpt lat="44.3119743" lon="11.4005102"><ele>225.4</ele><time>2026-03-30T10:20:55.862Z</time></trkpt><trkpt lat="44.3118687" lon="11.4004923"><ele>225.2</ele><time>2026-03-30T10:20:57.858Z</time></trkpt><trkpt lat="44.311763" lon="11.4004891"><ele>225.0</ele><time>2026-03-30T10:20:59.873Z</time></trkpt><trkpt lat="44.3116622" lon="11.4004991"><ele>227.6</ele><time>2026-03-30T10:21:01.868Z</time></trkpt><trkpt lat="44.3115568" lon="11.4005219"><ele>230.2</ele><time>2026-03-30T10:21:03.861Z</time></trkpt><trkpt lat="44.3114506" lon="11.400542"><ele>232.8</ele><time>2026-03-30T10:21:05.874Z</time></trkpt><trkpt lat="44.3113402" lon="11.400557"><ele>235.4</ele><time>2026-03-30T10:21:07.865Z</time></trkpt><trkpt lat="44.3112324" lon="11.4005659"><ele>238.0</ele><time>2026-03-30T10:21:09.858Z</time></trkpt><trkpt lat="44.3111234" lon="11.4005643"><ele>238.0</ele><time>2026-03-30T10:21:11.866Z</time></trkpt><trkpt lat="44.3110182" lon="11.4005567"><ele>238.0</ele><time>2026-03-30T10:21:13.864Z</time></trkpt><trkpt lat="44.3109122" lon="11.4005418"><ele>238.0</ele><time>2026-03-30T10:21:15.869Z</time></trkpt><trkpt lat="44.3108075" lon="11.4005236"><ele>238.0</ele><time>2026-03-30T10:21:17.868Z</time></trkpt><trkpt lat="44.3106968" lon="11.4005062"><ele>238.0</ele><time>2026-03-30T10:21:19.862Z</time></trkpt><trkpt lat="44.3105768" lon="11.4004973"><ele>235.75</ele><time>2026-03-30T10:21:21.87Z</time></trkpt><trkpt lat="44.3104598" lon="11.4004815"><ele>233.5</ele><time>2026-03-30T10:21:23.859Z</time></trkpt><trkpt lat="44.3103432" lon="11.4004585"><ele>231.25</ele><time>2026-03-30T10:21:25.865Z</time></trkpt><trkpt lat="44.3102288" lon="11.40043"><ele>229.0</ele><time>2026-03-30T10:21:27.866Z</time></trkpt><trkpt lat="44.310117" lon="11.4004026"><ele>228.99999999999997</ele><time>2026-03-30T10:21:29.855Z</time></trkpt><trkpt lat="44.3100077" lon="11.4003595"><ele>229.0</ele><time>2026-03-30T10:21:31.859Z</time></trkpt><trkpt lat="44.3099481" lon="11.4003262"><ele>229.0</ele><time>2026-03-30T10:21:32.859Z</time></trkpt><trkpt lat="44.3098844" lon="11.4002921"><ele>229.0</ele><time>2026-03-30T10:21:33.861Z</time></trkpt><trkpt lat="44.30977" lon="11.4002261"><ele>228.99999999999997</ele><time>2026-03-30T10:21:35.866Z</time></trkpt><trkpt lat="44.3097107" lon="11.4001887"><ele>229.0</ele><time>2026-03-30T10:21:36.872Z</time></trkpt><trkpt lat="44.3096517" lon="11.4001527"><ele>230.57142857142856</ele><time>2026-03-30T10:21:37.873Z</time></trkpt><trkpt lat="44.3095382" lon="11.4000802"><ele>232.14285714285717</ele><time>2026-03-30T10:21:39.855Z</time></trkpt><trkpt lat="44.3094791" lon="11.4000411"><ele>233.71428571428572</ele><time>2026-03-30T10:21:40.857Z</time></trkpt><trkpt lat="44.3094227" lon="11.3999974"><ele>235.28571428571428</ele><time>2026-03-30T10:21:41.867Z</time></trkpt><trkpt lat="44.3093663" lon="11.3999438"><ele>236.85714285714283</ele><time>2026-03-30T10:21:42.861Z</time></trkpt><trkpt lat="44.3093151" lon="11.399892"><ele>238.42857142857144</ele><time>2026-03-30T10:21:43.861Z</time></trkpt><trkpt lat="44.309266" lon="11.3998362"><ele>240.0</ele><time>2026-03-30T10:21:44.867Z</time></trkpt><trkpt lat="44.3091692" lon="11.3997189"><ele>238.25</ele><time>2026-03-30T10:21:46.854Z</time></trkpt><trkpt lat="44.309077" lon="11.3996059"><ele>236.5</ele><time>2026-03-30T10:21:48.857Z</time></trkpt><trkpt lat="44.3089776" lon="11.399501"><ele>234.75</ele><time>2026-03-30T10:21:50.868Z</time></trkpt><trkpt lat="44.308881" lon="11.3994063"><ele>233.0</ele><time>2026-03-30T10:21:52.866Z</time></trkpt><trkpt lat="44.3087767" lon="11.3993226"><ele>233.0</ele><time>2026-03-30T10:21:54.87Z</time></trkpt><trkpt lat="44.3086627" lon="11.3992574"><ele>233.0</ele><time>2026-03-30T10:21:56.872Z</time></trkpt><trkpt lat="44.3085999" lon="11.3992325"><ele>233.0</ele><time>2026-03-30T10:21:57.866Z</time></trkpt><trkpt lat="44.3085356" lon="11.3992084"><ele>233.0</ele><time>2026-03-30T10:21:58.856Z</time></trkpt><trkpt lat="44.308472" lon="11.3991849"><ele>233.0</ele><time>2026-03-30T10:21:59.871Z</time></trkpt><trkpt lat="44.3084095" lon="11.3991656"><ele>233.0</ele><time>2026-03-30T10:22:00.868Z</time></trkpt><trkpt lat="44.3083478" lon="11.399146"><ele>233.0</ele><time>2026-03-30T10:22:01.866Z</time></trkpt><trkpt lat="44.3082844" lon="11.399126"><ele>233.00000000000003</ele><time>2026-03-30T10:22:02.858Z</time></trkpt><trkpt lat="44.3082217" lon="11.3991078"><ele>233.0</ele><time>2026-03-30T10:22:03.869Z</time></trkpt><trkpt lat="44.3081583" lon="11.3990921"><ele>233.0</ele><time>2026-03-30T10:22:04.872Z</time></trkpt><trkpt lat="44.3080332" lon="11.3990647"><ele>233.0</ele><time>2026-03-30T10:22:06.862Z</time></trkpt><trkpt lat="44.307969" lon="11.3990504"><ele>233.00000000000003</ele><time>2026-03-30T10:22:07.865Z</time></trkpt><trkpt lat="44.3079045" lon="11.3990412"><ele>233.0</ele><time>2026-03-30T10:22:08.867Z</time></trkpt><trkpt lat="44.3078387" lon="11.3990325"><ele>233.85714285714286</ele><time>2026-03-30T10:22:09.87Z</time></trkpt><trkpt lat="44.307773" lon="11.3990269"><ele>234.71428571428572</ele><time>2026-03-30T10:22:10.859Z</time></trkpt><trkpt lat="44.3077069" lon="11.399023"><ele>235.57142857142858</ele><time>2026-03-30T10:22:11.863Z</time></trkpt><trkpt lat="44.3076404" lon="11.3990184"><ele>236.42857142857144</ele><time>2026-03-30T10:22:12.871Z</time></trkpt><trkpt lat="44.3075756" lon="11.3990135"><ele>237.28571428571428</ele><time>2026-03-30T10:22:13.858Z</time></trkpt><trkpt lat="44.3075088" lon="11.3990057"><ele>238.14285714285717</ele><time>2026-03-30T10:22:14.855Z</time></trkpt><trkpt lat="44.3074417" lon="11.3989991"><ele>239.00000000000003</ele><time>2026-03-30T10:22:15.869Z</time></trkpt><trkpt lat="44.3073752" lon="11.3989929"><ele>239.00000000000003</ele><time>2026-03-30T10:22:16.857Z</time></trkpt><trkpt lat="44.3073092" lon="11.3989874"><ele>239.0</ele><time>2026-03-30T10:22:17.855Z</time></trkpt><trkpt lat="44.3072426" lon="11.3989823"><ele>239.00000000000003</ele><time>2026-03-30T10:22:18.861Z</time></trkpt><trkpt lat="44.3071731" lon="11.3989757"><ele>239.00000000000003</ele><time>2026-03-30T10:22:19.86Z</time></trkpt><trkpt lat="44.3071043" lon="11.3989662"><ele>239.0</ele><time>2026-03-30T10:22:20.866Z</time></trkpt><trkpt lat="44.307037" lon="11.3989575"><ele>239.00000000000003</ele><time>2026-03-30T10:22:21.857Z</time></trkpt><trkpt lat="44.3069722" lon="11.3989502"><ele>239.00000000000003</ele><time>2026-03-30T10:22:22.854Z</time></trkpt><trkpt lat="44.3069058" lon="11.3989416"><ele>239.33333333333334</ele><time>2026-03-30T10:22:23.864Z</time></trkpt><trkpt lat="44.3068389" lon="11.3989357"><ele>239.66666666666669</ele><time>2026-03-30T10:22:24.866Z</time></trkpt><trkpt lat="44.3067733" lon="11.398929"><ele>240.0</ele><time>2026-03-30T10:22:25.861Z</time></trkpt><trkpt lat="44.3067081" lon="11.3989187"><ele>240.33333333333331</ele><time>2026-03-30T10:22:26.86Z</time></trkpt><trkpt lat="44.3065855" lon="11.3989038"><ele>240.66666666666666</ele><time>2026-03-30T10:22:28.867Z</time></trkpt><trkpt lat="44.306463" lon="11.3988905"><ele>241.0</ele><time>2026-03-30T10:22:30.859Z</time></trkpt><trkpt lat="44.3063428" lon="11.3988823"><ele>241.0</ele><time>2026-03-30T10:22:32.869Z</time></trkpt><trkpt lat="44.3062196" lon="11.3988772"><ele>241.0</ele><time>2026-03-30T10:22:34.862Z</time></trkpt><trkpt lat="44.3060972" lon="11.3988794"><ele>241.0</ele><time>2026-03-30T10:22:36.867Z</time></trkpt><trkpt lat="44.3059819" lon="11.39889"><ele>241.0</ele><time>2026-03-30T10:22:38.867Z</time></trkpt><trkpt lat="44.3058702" lon="11.3989027"><ele>241.0</ele><time>2026-03-30T10:22:40.863Z</time></trkpt><trkpt lat="44.3058059" lon="11.3989097"><ele>241.00000000000003</ele><time>2026-03-30T10:22:41.857Z</time></trkpt><trkpt lat="44.3056852" lon="11.3989268"><ele>241.00000000000003</ele><time>2026-03-30T10:22:43.852Z</time></trkpt><trkpt lat="44.3055711" lon="11.3989452"><ele>241.0</ele><time>2026-03-30T10:22:45.872Z</time></trkpt><trkpt lat="44.3054599" lon="11.3989645"><ele>241.0</ele><time>2026-03-30T10:22:47.861Z</time></trkpt><trkpt lat="44.3053456" lon="11.3989826"><ele>239.0</ele><time>2026-03-30T10:22:49.86Z</time></trkpt><trkpt lat="44.30523" lon="11.3989984"><ele>237.0</ele><time>2026-03-30T10:22:51.868Z</time></trkpt><trkpt lat="44.3051132" lon="11.3990089"><ele>235.0</ele><time>2026-03-30T10:22:53.869Z</time></trkpt><trkpt lat="44.3049895" lon="11.3990164"><ele>233.0</ele><time>2026-03-30T10:22:55.864Z</time></trkpt><trkpt lat="44.3048661" lon="11.3990274"><ele>233.0</ele><time>2026-03-30T10:22:57.868Z</time></trkpt><trkpt lat="44.304742" lon="11.3990383"><ele>233.0</ele><time>2026-03-30T10:22:59.872Z</time></trkpt><trkpt lat="44.3046791" lon="11.3990431"><ele>233.0</ele><time>2026-03-30T10:23:00.863Z</time></trkpt><trkpt lat="44.3046159" lon="11.3990478"><ele>233.0</ele><time>2026-03-30T10:23:01.867Z</time></trkpt><trkpt lat="44.3044919" lon="11.3990596"><ele>233.0</ele><time>2026-03-30T10:23:03.865Z</time></trkpt><trkpt lat="44.3043677" lon="11.3990714"><ele>233.0</ele><time>2026-03-30T10:23:05.868Z</time></trkpt><trkpt lat="44.3042456" lon="11.3990828"><ele>233.0</ele><time>2026-03-30T10:23:07.855Z</time></trkpt><trkpt lat="44.3041236" lon="11.3990942"><ele>233.0</ele><time>2026-03-30T10:23:09.857Z</time></trkpt><trkpt lat="44.3039994" lon="11.3991051"><ele>233.0</ele><time>2026-03-30T10:23:11.863Z</time></trkpt><trkpt lat="44.3039363" lon="11.3991097"><ele>233.0</ele><time>2026-03-30T10:23:12.867Z</time></trkpt><trkpt lat="44.3038725" lon="11.3991152"><ele>233.57142857142858</ele><time>2026-03-30T10:23:13.86Z</time></trkpt><trkpt lat="44.3038065" lon="11.3991198"><ele>234.1428571428571</ele><time>2026-03-30T10:23:14.861Z</time></trkpt><trkpt lat="44.3037409" lon="11.3991228"><ele>234.7142857142857</ele><time>2026-03-30T10:23:15.868Z</time></trkpt><trkpt lat="44.3036744" lon="11.3991235"><ele>235.28571428571428</ele><time>2026-03-30T10:23:16.86Z</time></trkpt><trkpt lat="44.3036074" lon="11.399122"><ele>235.85714285714283</ele><time>2026-03-30T10:23:17.868Z</time></trkpt><trkpt lat="44.3035398" lon="11.3991145"><ele>236.4285714285714</ele><time>2026-03-30T10:23:18.857Z</time></trkpt><trkpt lat="44.3034741" lon="11.3991067"><ele>236.99999999999997</ele><time>2026-03-30T10:23:19.864Z</time></trkpt><trkpt lat="44.3034077" lon="11.3990933"><ele>236.99999999999997</ele><time>2026-03-30T10:23:20.867Z</time></trkpt><trkpt lat="44.3033445" lon="11.3990809"><ele>237.0</ele><time>2026-03-30T10:23:21.866Z</time></trkpt><trkpt lat="44.3032761" lon="11.3990644"><ele>236.99999999999997</ele><time>2026-03-30T10:23:22.866Z</time></trkpt><trkpt lat="44.3032122" lon="11.3990453"><ele>236.99999999999997</ele><time>2026-03-30T10:23:23.865Z</time></trkpt><trkpt lat="44.3031449" lon="11.3990245"><ele>237.0</ele><time>2026-03-30T10:23:24.869Z</time></trkpt><trkpt lat="44.3030819" lon="11.3990035"><ele>236.99999999999997</ele><time>2026-03-30T10:23:25.866Z</time></trkpt><trkpt lat="44.3030162" lon="11.3989843"><ele>236.99999999999997</ele><time>2026-03-30T10:23:26.862Z</time></trkpt><trkpt lat="44.3029523" lon="11.3989653"><ele>236.2</ele><time>2026-03-30T10:23:27.861Z</time></trkpt><trkpt lat="44.3028893" lon="11.3989458"><ele>235.39999999999998</ele><time>2026-03-30T10:23:28.877Z</time></trkpt><trkpt lat="44.3028278" lon="11.3989252"><ele>234.60000000000002</ele><time>2026-03-30T10:23:29.876Z</time></trkpt><trkpt lat="44.3027065" lon="11.3988862"><ele>233.8</ele><time>2026-03-30T10:23:31.858Z</time></trkpt><trkpt lat="44.3025895" lon="11.3988465"><ele>233.0</ele><time>2026-03-30T10:23:33.86Z</time></trkpt><trkpt lat="44.3024705" lon="11.3988078"><ele>233.0</ele><time>2026-03-30T10:23:35.855Z</time></trkpt><trkpt lat="44.302353" lon="11.3987697"><ele>233.0</ele><time>2026-03-30T10:23:37.86Z</time></trkpt><trkpt lat="44.3022374" lon="11.398732"><ele>233.0</ele><time>2026-03-30T10:23:39.863Z</time></trkpt><trkpt lat="44.3021259" lon="11.398694"><ele>233.0</ele><time>2026-03-30T10:23:41.861Z</time></trkpt><trkpt lat="44.3020153" lon="11.3986557"><ele>233.4</ele><time>2026-03-30T10:23:43.87Z</time></trkpt><trkpt lat="44.3019077" lon="11.3986204"><ele>233.8</ele><time>2026-03-30T10:23:45.858Z</time></trkpt><trkpt lat="44.3018007" lon="11.3985853"><ele>234.2</ele><time>2026-03-30T10:23:47.852Z</time></trkpt><trkpt lat="44.3016933" lon="11.3985468"><ele>234.6</ele><time>2026-03-30T10:23:49.872Z</time></trkpt><trkpt lat="44.301586" lon="11.3985129"><ele>235.0</ele><time>2026-03-30T10:23:51.865Z</time></trkpt><trkpt lat="44.3014788" lon="11.3984766"><ele>235.4</ele><time>2026-03-30T10:23:53.862Z</time></trkpt><trkpt lat="44.3013742" lon="11.3984412"><ele>235.8</ele><time>2026-03-30T10:23:55.869Z</time></trkpt><trkpt lat="44.30127" lon="11.3984063"><ele>236.2</ele><time>2026-03-30T10:23:57.858Z</time></trkpt><trkpt lat="44.3011667" lon="11.3983739"><ele>236.6</ele><time>2026-03-30T10:23:59.874Z</time></trkpt><trkpt lat="44.3010628" lon="11.3983398"><ele>237.0</ele><time>2026-03-30T10:24:01.866Z</time></trkpt><trkpt lat="44.3009557" lon="11.3983048"><ele>237.0</ele><time>2026-03-30T10:24:03.877Z</time></trkpt><trkpt lat="44.3008476" lon="11.3982702"><ele>237.0</ele><time>2026-03-30T10:24:05.867Z</time></trkpt><trkpt lat="44.3007389" lon="11.3982343"><ele>237.0</ele><time>2026-03-30T10:24:07.863Z</time></trkpt><trkpt lat="44.3006315" lon="11.398204"><ele>237.0</ele><time>2026-03-30T10:24:09.86Z</time></trkpt><trkpt lat="44.3005265" lon="11.3981668"><ele>237.0</ele><time>2026-03-30T10:24:11.875Z</time></trkpt><trkpt lat="44.3004204" lon="11.3981306"><ele>237.2</ele><time>2026-03-30T10:24:13.865Z</time></trkpt><trkpt lat="44.3003221" lon="11.3981028"><ele>237.39999999999998</ele><time>2026-03-30T10:24:15.868Z</time></trkpt><trkpt lat="44.3002151" lon="11.398069"><ele>237.60000000000002</ele><time>2026-03-30T10:24:17.865Z</time></trkpt><trkpt lat="44.3001083" lon="11.3980439"><ele>237.8</ele><time>2026-03-30T10:24:19.864Z</time></trkpt><trkpt lat="44.3000053" lon="11.3980127"><ele>238.0</ele><time>2026-03-30T10:24:21.853Z</time></trkpt><trkpt lat="44.2999061" lon="11.397977"><ele>238.0</ele><time>2026-03-30T10:24:23.864Z</time></trkpt><trkpt lat="44.2998124" lon="11.3979453"><ele>238.0</ele><time>2026-03-30T10:24:25.86Z</time></trkpt><trkpt lat="44.2997157" lon="11.39792"><ele>238.0</ele><time>2026-03-30T10:24:27.862Z</time></trkpt><trkpt lat="44.2996201" lon="11.3979009"><ele>238.0</ele><time>2026-03-30T10:24:29.862Z</time></trkpt><trkpt lat="44.2995258" lon="11.3978961"><ele>238.0</ele><time>2026-03-30T10:24:31.868Z</time></trkpt><trkpt lat="44.2994303" lon="11.3979003"><ele>238.4</ele><time>2026-03-30T10:24:33.867Z</time></trkpt><trkpt lat="44.2993338" lon="11.3979114"><ele>238.8</ele><time>2026-03-30T10:24:35.866Z</time></trkpt><trkpt lat="44.2992397" lon="11.3979376"><ele>239.2</ele><time>2026-03-30T10:24:37.854Z</time></trkpt><trkpt lat="44.2991494" lon="11.3979899"><ele>239.6</ele><time>2026-03-30T10:24:39.863Z</time></trkpt><trkpt lat="44.2990628" lon="11.3980535"><ele>240.0</ele><time>2026-03-30T10:24:41.862Z</time></trkpt><trkpt lat="44.2989814" lon="11.3981268"><ele>240.6</ele><time>2026-03-30T10:24:43.861Z</time></trkpt><trkpt lat="44.2988996" lon="11.3982064"><ele>241.2</ele><time>2026-03-30T10:24:45.873Z</time></trkpt><trkpt lat="44.2988167" lon="11.3982844"><ele>241.8</ele><time>2026-03-30T10:24:47.865Z</time></trkpt><trkpt lat="44.29873" lon="11.3983612"><ele>242.4</ele><time>2026-03-30T10:24:49.856Z</time></trkpt><trkpt lat="44.2986417" lon="11.3984348"><ele>243.0</ele><time>2026-03-30T10:24:51.859Z</time></trkpt><trkpt lat="44.2985513" lon="11.3984961"><ele>243.0</ele><time>2026-03-30T10:24:53.851Z</time></trkpt><trkpt lat="44.2984568" lon="11.3985496"><ele>243.0</ele><time>2026-03-30T10:24:55.87Z</time></trkpt><trkpt lat="44.2983633" lon="11.3985957"><ele>243.0</ele><time>2026-03-30T10:24:57.855Z</time></trkpt><trkpt lat="44.2982658" lon="11.3986348"><ele>243.0</ele><time>2026-03-30T10:24:59.874Z</time></trkpt><trkpt lat="44.2981652" lon="11.3986645"><ele>243.0</ele><time>2026-03-30T10:25:01.854Z</time></trkpt><trkpt lat="44.2980641" lon="11.3986871"><ele>243.2</ele><time>2026-03-30T10:25:03.878Z</time></trkpt><trkpt lat="44.2979617" lon="11.3987017"><ele>243.4</ele><time>2026-03-30T10:25:05.865Z</time></trkpt><trkpt lat="44.2978606" lon="11.398704"><ele>243.59999999999997</ele><time>2026-03-30T10:25:07.859Z</time></trkpt><trkpt lat="44.2977606" lon="11.3986937"><ele>243.79999999999998</ele><time>2026-03-30T10:25:09.851Z</time></trkpt><trkpt lat="44.2976643" lon="11.3986666"><ele>244.0</ele><time>2026-03-30T10:25:11.86Z</time></trkpt><trkpt lat="44.2975627" lon="11.3986485"><ele>244.0</ele><time>2026-03-30T10:25:13.86Z</time></trkpt><trkpt lat="44.2974619" lon="11.3986248"><ele>243.99999999999997</ele><time>2026-03-30T10:25:15.861Z</time></trkpt><trkpt lat="44.2973641" lon="11.3986015"><ele>243.99999999999997</ele><time>2026-03-30T10:25:17.859Z</time></trkpt><trkpt lat="44.297264" lon="11.3985803"><ele>244.0</ele><time>2026-03-30T10:25:19.867Z</time></trkpt><trkpt lat="44.2971627" lon="11.398557"><ele>244.0</ele><time>2026-03-30T10:25:21.863Z</time></trkpt><trkpt lat="44.2970633" lon="11.3985316"><ele>244.6</ele><time>2026-03-30T10:25:23.869Z</time></trkpt><trkpt lat="44.2969607" lon="11.3985045"><ele>245.2</ele><time>2026-03-30T10:25:25.855Z</time></trkpt><trkpt lat="44.2968648" lon="11.3984816"><ele>245.79999999999998</ele><time>2026-03-30T10:25:27.853Z</time></trkpt><trkpt lat="44.2967679" lon="11.398462"><ele>246.39999999999998</ele><time>2026-03-30T10:25:29.875Z</time></trkpt><trkpt lat="44.2966668" lon="11.3984397"><ele>247.0</ele><time>2026-03-30T10:25:31.864Z</time></trkpt><trkpt lat="44.2965639" lon="11.3984154"><ele>247.0</ele><time>2026-03-30T10:25:33.857Z</time></trkpt><trkpt lat="44.296461" lon="11.3983866"><ele>247.0</ele><time>2026-03-30T10:25:35.868Z</time></trkpt><trkpt lat="44.2963566" lon="11.3983643"><ele>247.0</ele><time>2026-03-30T10:25:37.869Z</time></trkpt><trkpt lat="44.2962523" lon="11.3983474"><ele>247.0</ele><time>2026-03-30T10:25:39.869Z</time></trkpt><trkpt lat="44.2961471" lon="11.3983419"><ele>247.0</ele><time>2026-03-30T10:25:41.871Z</time></trkpt><trkpt lat="44.2960415" lon="11.3983422"><ele>247.6</ele><time>2026-03-30T10:25:43.861Z</time></trkpt><trkpt lat="44.2959337" lon="11.3983538"><ele>248.2</ele><time>2026-03-30T10:25:45.863Z</time></trkpt><trkpt lat="44.2958283" lon="11.3983705"><ele>248.8</ele><time>2026-03-30T10:25:47.865Z</time></trkpt><trkpt lat="44.2957253" lon="11.3983945"><ele>249.4</ele><time>2026-03-30T10:25:49.854Z</time></trkpt><trkpt lat="44.2956225" lon="11.3984245"><ele>250.0</ele><time>2026-03-30T10:25:51.87Z</time></trkpt><trkpt lat="44.2955222" lon="11.3984622"><ele>250.4</ele><time>2026-03-30T10:25:53.866Z</time></trkpt><trkpt lat="44.2954314" lon="11.3984995"><ele>250.8</ele><time>2026-03-30T10:25:55.862Z</time></trkpt><trkpt lat="44.2953271" lon="11.3984962"><ele>251.2</ele><time>2026-03-30T10:25:57.867Z</time></trkpt><trkpt lat="44.2952528" lon="11.3983675"><ele>251.6</ele><time>2026-03-30T10:25:59.857Z</time></trkpt><trkpt lat="44.2952227" lon="11.398191"><ele>252.0</ele><time>2026-03-30T10:26:01.862Z</time></trkpt><trkpt lat="44.2952181" lon="11.3980184"><ele>250.0</ele><time>2026-03-30T10:26:03.863Z</time></trkpt><trkpt lat="44.2952201" lon="11.3978477"><ele>248.0</ele><time>2026-03-30T10:26:05.857Z</time></trkpt><trkpt lat="44.2952244" lon="11.3976801"><ele>246.0</ele><time>2026-03-30T10:26:07.847Z</time></trkpt><trkpt lat="44.2952259" lon="11.397512"><ele>244.0</ele><time>2026-03-30T10:26:09.865Z</time></trkpt><trkpt lat="44.295208" lon="11.3973473"><ele>243.99999999999997</ele><time>2026-03-30T10:26:11.862Z</time></trkpt><trkpt lat="44.2951582" lon="11.3971853"><ele>244.0</ele><time>2026-03-30T10:26:13.867Z</time></trkpt><trkpt lat="44.2951223" lon="11.3971087"><ele>244.0</ele><time>2026-03-30T10:26:14.863Z</time></trkpt><trkpt lat="44.2950755" lon="11.3970417"><ele>244.0</ele><time>2026-03-30T10:26:15.865Z</time></trkpt><trkpt lat="44.2950176" lon="11.3969859"><ele>243.99999999999997</ele><time>2026-03-30T10:26:16.864Z</time></trkpt><trkpt lat="44.2949537" lon="11.3969425"><ele>244.0</ele><time>2026-03-30T10:26:17.87Z</time></trkpt><trkpt lat="44.2948833" lon="11.3969134"><ele>244.33333333333331</ele><time>2026-03-30T10:26:18.871Z</time></trkpt><trkpt lat="44.2948096" lon="11.3968959"><ele>244.66666666666666</ele><time>2026-03-30T10:26:19.854Z</time></trkpt><trkpt lat="44.2947404" lon="11.3968811"><ele>245.0</ele><time>2026-03-30T10:26:20.855Z</time></trkpt><trkpt lat="44.2946668" lon="11.3968679"><ele>245.33333333333331</ele><time>2026-03-30T10:26:21.872Z</time></trkpt><trkpt lat="44.2945912" lon="11.3968565"><ele>245.66666666666666</ele><time>2026-03-30T10:26:22.86Z</time></trkpt><trkpt lat="44.2945121" lon="11.3968446"><ele>246.0</ele><time>2026-03-30T10:26:23.859Z</time></trkpt><trkpt lat="44.2944331" lon="11.3968336"><ele>246.00000000000003</ele><time>2026-03-30T10:26:24.863Z</time></trkpt><trkpt lat="44.2943568" lon="11.3968242"><ele>246.0</ele><time>2026-03-30T10:26:25.86Z</time></trkpt><trkpt lat="44.2942803" lon="11.3968166"><ele>246.00000000000003</ele><time>2026-03-30T10:26:26.861Z</time></trkpt><trkpt lat="44.294205" lon="11.3968046"><ele>246.00000000000003</ele><time>2026-03-30T10:26:27.864Z</time></trkpt><trkpt lat="44.2941315" lon="11.3967857"><ele>246.0</ele><time>2026-03-30T10:26:28.866Z</time></trkpt><trkpt lat="44.2940638" lon="11.3967743"><ele>246.00000000000003</ele><time>2026-03-30T10:26:29.862Z</time></trkpt><trkpt lat="44.2939978" lon="11.3967577"><ele>246.00000000000003</ele><time>2026-03-30T10:26:30.858Z</time></trkpt><trkpt lat="44.29393" lon="11.3967439"><ele>245.5</ele><time>2026-03-30T10:26:31.857Z</time></trkpt><trkpt lat="44.2938631" lon="11.3967265"><ele>245.0</ele><time>2026-03-30T10:26:32.86Z</time></trkpt><trkpt lat="44.2937963" lon="11.3967024"><ele>244.5</ele><time>2026-03-30T10:26:33.859Z</time></trkpt><trkpt lat="44.2937335" lon="11.39668"><ele>244.0</ele><time>2026-03-30T10:26:34.855Z</time></trkpt><trkpt lat="44.2936191" lon="11.3966354"><ele>243.5</ele><time>2026-03-30T10:26:36.86Z</time></trkpt><trkpt lat="44.293555" lon="11.3965948"><ele>243.0</ele><time>2026-03-30T10:26:37.869Z</time></trkpt><trkpt lat="44.2934961" lon="11.3965584"><ele>243.0</ele><time>2026-03-30T10:26:38.859Z</time></trkpt><trkpt lat="44.2933849" lon="11.3965041"><ele>243.0</ele><time>2026-03-30T10:26:40.856Z</time></trkpt><trkpt lat="44.2932723" lon="11.3964438"><ele>243.0</ele><time>2026-03-30T10:26:42.864Z</time></trkpt><trkpt lat="44.293165" lon="11.3963817"><ele>243.0</ele><time>2026-03-30T10:26:44.858Z</time></trkpt><trkpt lat="44.2930634" lon="11.3963279"><ele>244.60000000000002</ele><time>2026-03-30T10:26:46.86Z</time></trkpt><trkpt lat="44.2929576" lon="11.396278"><ele>246.20000000000002</ele><time>2026-03-30T10:26:48.862Z</time></trkpt><trkpt lat="44.2928542" lon="11.3962247"><ele>247.8</ele><time>2026-03-30T10:26:50.867Z</time></trkpt><trkpt lat="44.2927497" lon="11.396172"><ele>249.4</ele><time>2026-03-30T10:26:52.863Z</time></trkpt><trkpt lat="44.2926521" lon="11.3961232"><ele>251.0</ele><time>2026-03-30T10:26:54.858Z</time></trkpt><trkpt lat="44.2925483" lon="11.3960755"><ele>251.0</ele><time>2026-03-30T10:26:56.858Z</time></trkpt><trkpt lat="44.2924448" lon="11.3960197"><ele>251.00000000000003</ele><time>2026-03-30T10:26:58.861Z</time></trkpt><trkpt lat="44.292338" lon="11.3959626"><ele>251.00000000000003</ele><time>2026-03-30T10:27:00.861Z</time></trkpt><trkpt lat="44.2922311" lon="11.3958981"><ele>251.0</ele><time>2026-03-30T10:27:02.865Z</time></trkpt><trkpt lat="44.2921331" lon="11.3958414"><ele>251.0</ele><time>2026-03-30T10:27:04.861Z</time></trkpt><trkpt lat="44.2920294" lon="11.3957843"><ele>250.60000000000002</ele><time>2026-03-30T10:27:06.855Z</time></trkpt><trkpt lat="44.2919314" lon="11.3957415"><ele>250.20000000000002</ele><time>2026-03-30T10:27:08.864Z</time></trkpt><trkpt lat="44.2918302" lon="11.395697"><ele>249.79999999999998</ele><time>2026-03-30T10:27:10.863Z</time></trkpt><trkpt lat="44.2917377" lon="11.395653"><ele>249.39999999999998</ele><time>2026-03-30T10:27:12.863Z</time></trkpt><trkpt lat="44.2916355" lon="11.3955968"><ele>249.0</ele><time>2026-03-30T10:27:14.876Z</time></trkpt><trkpt lat="44.2915368" lon="11.395542"><ele>249.0</ele><time>2026-03-30T10:27:16.861Z</time></trkpt><trkpt lat="44.291432" lon="11.3955046"><ele>248.99999999999997</ele><time>2026-03-30T10:27:18.856Z</time></trkpt><trkpt lat="44.2913354" lon="11.3954694"><ele>248.99999999999997</ele><time>2026-03-30T10:27:20.863Z</time></trkpt><trkpt lat="44.2912316" lon="11.3954381"><ele>249.0</ele><time>2026-03-30T10:27:22.863Z</time></trkpt><trkpt lat="44.2911336" lon="11.3954048"><ele>249.0</ele><time>2026-03-30T10:27:24.858Z</time></trkpt><trkpt lat="44.2910403" lon="11.3953712"><ele>250.2</ele><time>2026-03-30T10:27:26.861Z</time></trkpt><trkpt lat="44.2909476" lon="11.3953361"><ele>251.39999999999998</ele><time>2026-03-30T10:27:28.866Z</time></trkpt><trkpt lat="44.2908549" lon="11.3953048"><ele>252.6</ele><time>2026-03-30T10:27:30.868Z</time></trkpt><trkpt lat="44.2907623" lon="11.395271"><ele>253.8</ele><time>2026-03-30T10:27:32.861Z</time></trkpt><trkpt lat="44.2906709" lon="11.3952352"><ele>255.0</ele><time>2026-03-30T10:27:34.857Z</time></trkpt><trkpt lat="44.2905803" lon="11.3952003"><ele>255.0</ele><time>2026-03-30T10:27:36.869Z</time></trkpt><trkpt lat="44.2904901" lon="11.3951657"><ele>255.0</ele><time>2026-03-30T10:27:38.86Z</time></trkpt><trkpt lat="44.2903984" lon="11.3951289"><ele>255.0</ele><time>2026-03-30T10:27:40.863Z</time></trkpt><trkpt lat="44.2903084" lon="11.3950926"><ele>255.0</ele><time>2026-03-30T10:27:42.864Z</time></trkpt><trkpt lat="44.2902205" lon="11.3950594"><ele>255.0</ele><time>2026-03-30T10:27:44.869Z</time></trkpt><trkpt lat="44.2901335" lon="11.3950324"><ele>255.0</ele><time>2026-03-30T10:27:46.866Z</time></trkpt><trkpt lat="44.2900416" lon="11.3950084"><ele>255.0</ele><time>2026-03-30T10:27:48.86Z</time></trkpt><trkpt lat="44.289955" lon="11.3949913"><ele>255.0</ele><time>2026-03-30T10:27:50.859Z</time></trkpt><trkpt lat="44.2898677" lon="11.3949789"><ele>255.0</ele><time>2026-03-30T10:27:52.871Z</time></trkpt><trkpt lat="44.2897755" lon="11.394967"><ele>255.0</ele><time>2026-03-30T10:27:54.856Z</time></trkpt><trkpt lat="44.2896793" lon="11.3949577"><ele>255.0</ele><time>2026-03-30T10:27:56.864Z</time></trkpt><trkpt lat="44.2895804" lon="11.3949492"><ele>255.0</ele><time>2026-03-30T10:27:58.858Z</time></trkpt><trkpt lat="44.2894856" lon="11.3949411"><ele>255.0</ele><time>2026-03-30T10:28:00.86Z</time></trkpt><trkpt lat="44.289385" lon="11.3949316"><ele>255.0</ele><time>2026-03-30T10:28:02.845Z</time></trkpt><trkpt lat="44.2892844" lon="11.3949144"><ele>255.0</ele><time>2026-03-30T10:28:04.861Z</time></trkpt><trkpt lat="44.2891828" lon="11.3948966"><ele>255.0</ele><time>2026-03-30T10:28:06.873Z</time></trkpt><trkpt lat="44.2890819" lon="11.3948687"><ele>255.0</ele><time>2026-03-30T10:28:08.866Z</time></trkpt><trkpt lat="44.2889772" lon="11.394826"><ele>255.0</ele><time>2026-03-30T10:28:10.862Z</time></trkpt><trkpt lat="44.2888728" lon="11.394793"><ele>255.0</ele><time>2026-03-30T10:28:12.863Z</time></trkpt><trkpt lat="44.2887684" lon="11.3947477"><ele>255.0</ele><time>2026-03-30T10:28:14.861Z</time></trkpt><trkpt lat="44.2886627" lon="11.3947018"><ele>257.4</ele><time>2026-03-30T10:28:16.859Z</time></trkpt><trkpt lat="44.2885625" lon="11.3946602"><ele>259.8</ele><time>2026-03-30T10:28:18.851Z</time></trkpt><trkpt lat="44.2884589" lon="11.3946225"><ele>262.2</ele><time>2026-03-30T10:28:20.86Z</time></trkpt><trkpt lat="44.2883564" lon="11.3945915"><ele>264.6</ele><time>2026-03-30T10:28:22.855Z</time></trkpt><trkpt lat="44.2882533" lon="11.3945712"><ele>267.0</ele><time>2026-03-30T10:28:24.871Z</time></trkpt><trkpt lat="44.2881476" lon="11.3945693"><ele>266.8</ele><time>2026-03-30T10:28:26.859Z</time></trkpt><trkpt lat="44.2880426" lon="11.3945746"><ele>266.6</ele><time>2026-03-30T10:28:28.867Z</time></trkpt><trkpt lat="44.2879411" lon="11.3945901"><ele>266.40000000000003</ele><time>2026-03-30T10:28:30.862Z</time></trkpt><trkpt lat="44.2878394" lon="11.3946005"><ele>266.2</ele><time>2026-03-30T10:28:32.857Z</time></trkpt><trkpt lat="44.287746" lon="11.3946113"><ele>266.0</ele><time>2026-03-30T10:28:34.861Z</time></trkpt><trkpt lat="44.2876498" lon="11.3946225"><ele>266.0</ele><time>2026-03-30T10:28:36.861Z</time></trkpt><trkpt lat="44.2875543" lon="11.3946234"><ele>266.0</ele><time>2026-03-30T10:28:38.858Z</time></trkpt><trkpt lat="44.2874609" lon="11.394622"><ele>266.0</ele><time>2026-03-30T10:28:40.868Z</time></trkpt><trkpt lat="44.2873662" lon="11.3946181"><ele>266.0</ele><time>2026-03-30T10:28:42.853Z</time></trkpt><trkpt lat="44.2872747" lon="11.394606"><ele>266.0</ele><time>2026-03-30T10:28:44.861Z</time></trkpt><trkpt lat="44.2871817" lon="11.3945947"><ele>265.0</ele><time>2026-03-30T10:28:46.864Z</time></trkpt><trkpt lat="44.2870905" lon="11.3945844"><ele>264.0</ele><time>2026-03-30T10:28:48.852Z</time></trkpt><trkpt lat="44.2870002" lon="11.3945671"><ele>263.0</ele><time>2026-03-30T10:28:50.87Z</time></trkpt><trkpt lat="44.2869101" lon="11.3945389"><ele>262.0</ele><time>2026-03-30T10:28:52.855Z</time></trkpt><trkpt lat="44.2868202" lon="11.3945036"><ele>261.0</ele><time>2026-03-30T10:28:54.864Z</time></trkpt><trkpt lat="44.2867333" lon="11.3944543"><ele>261.0</ele><time>2026-03-30T10:28:56.855Z</time></trkpt><trkpt lat="44.286647" lon="11.3943979"><ele>261.0</ele><time>2026-03-30T10:28:58.857Z</time></trkpt><trkpt lat="44.2865586" lon="11.3943379"><ele>261.0</ele><time>2026-03-30T10:29:00.863Z</time></trkpt><trkpt lat="44.2864706" lon="11.3942733"><ele>261.0</ele><time>2026-03-30T10:29:02.861Z</time></trkpt><trkpt lat="44.2863802" lon="11.3942102"><ele>261.0</ele><time>2026-03-30T10:29:04.858Z</time></trkpt><trkpt lat="44.2862941" lon="11.3941492"><ele>260.8</ele><time>2026-03-30T10:29:06.874Z</time></trkpt><trkpt lat="44.2862124" lon="11.3940897"><ele>260.6</ele><time>2026-03-30T10:29:08.868Z</time></trkpt><trkpt lat="44.2861354" lon="11.3940194"><ele>260.4</ele><time>2026-03-30T10:29:10.858Z</time></trkpt><trkpt lat="44.2860606" lon="11.3939363"><ele>260.2</ele><time>2026-03-30T10:29:12.865Z</time></trkpt><trkpt lat="44.2859899" lon="11.3938393"><ele>260.0</ele><time>2026-03-30T10:29:14.856Z</time></trkpt><trkpt lat="44.2859243" lon="11.3937284"><ele>260.8</ele><time>2026-03-30T10:29:16.857Z</time></trkpt><trkpt lat="44.2858653" lon="11.3936119"><ele>261.6</ele><time>2026-03-30T10:29:18.87Z</time></trkpt><trkpt lat="44.2858085" lon="11.3934985"><ele>262.4</ele><time>2026-03-30T10:29:20.864Z</time></trkpt><trkpt lat="44.2857525" lon="11.3933823"><ele>263.2</ele><time>2026-03-30T10:29:22.861Z</time></trkpt><trkpt lat="44.2856971" lon="11.3932683"><ele>264.0</ele><time>2026-03-30T10:29:24.872Z</time></trkpt><trkpt lat="44.2856392" lon="11.3931622"><ele>264.1666666666667</ele><time>2026-03-30T10:29:26.853Z</time></trkpt><trkpt lat="44.2855781" lon="11.3930574"><ele>264.3333333333333</ele><time>2026-03-30T10:29:28.869Z</time></trkpt><trkpt lat="44.2855175" lon="11.3929645"><ele>264.5</ele><time>2026-03-30T10:29:30.86Z</time></trkpt><trkpt lat="44.2854557" lon="11.3928795"><ele>264.66666666666663</ele><time>2026-03-30T10:29:32.861Z</time></trkpt><trkpt lat="44.2853912" lon="11.3928086"><ele>264.8333333333333</ele><time>2026-03-30T10:29:34.861Z</time></trkpt><trkpt lat="44.2853279" lon="11.3927426"><ele>265.0</ele><time>2026-03-30T10:29:36.861Z</time></trkpt><trkpt lat="44.2852646" lon="11.3926824"><ele>265.0</ele><time>2026-03-30T10:29:38.856Z</time></trkpt><trkpt lat="44.285208" lon="11.3926358"><ele>265.0</ele><time>2026-03-30T10:29:40.855Z</time></trkpt><trkpt lat="44.2851496" lon="11.392558"><ele>265.0</ele><time>2026-03-30T10:29:43.853Z</time></trkpt><trkpt lat="44.2851143" lon="11.3924619"><ele>265.0</ele><time>2026-03-30T10:29:46.859Z</time></trkpt><trkpt lat="44.2850844" lon="11.3923609"><ele>265.0</ele><time>2026-03-30T10:29:50.86Z</time></trkpt><trkpt lat="44.2846562" lon="11.3932824"><ele>265.0</ele><time>2026-03-30T10:31:14.856Z</time></trkpt><trkpt lat="44.2846692" lon="11.3931838"><ele>265.0</ele><time>2026-03-30T10:31:19.857Z</time></trkpt><trkpt lat="44.2846871" lon="11.3930775"><ele>265.0</ele><time>2026-03-30T10:31:32.866Z</time></trkpt><trkpt lat="44.2849068" lon="11.3927531"><ele>265.0</ele><time>2026-03-30T10:32:30.861Z</time></trkpt><trkpt lat="44.2850416" lon="11.3924534"><ele>265.0</ele><time>2026-03-30T10:32:31.858Z</time></trkpt><trkpt lat="44.2850857" lon="11.3923543"><ele>265.0</ele><time>2026-03-30T10:32:32.847Z</time></trkpt><trkpt lat="44.285151" lon="11.3923098"><ele>265.0</ele><time>2026-03-30T10:34:55.862Z</time></trkpt><trkpt lat="44.2851235" lon="11.3923896"><ele>264.99999999999994</ele><time>2026-03-30T10:35:30.872Z</time></trkpt><trkpt lat="44.2850918" lon="11.3923116"><ele>265.0</ele><time>2026-03-30T10:35:41.87Z</time></trkpt><trkpt lat="44.285142" lon="11.3923941"><ele>265.0</ele><time>2026-03-30T10:36:12.861Z</time></trkpt><trkpt lat="44.285104" lon="11.3923097"><ele>265.0</ele><time>2026-03-30T10:36:18.871Z</time></trkpt><trkpt lat="44.2850498" lon="11.3922572"><ele>265.0</ele><time>2026-03-30T10:36:22.86Z</time></trkpt><trkpt lat="44.2849904" lon="11.3922205"><ele>264.99999999999994</ele><time>2026-03-30T10:36:26.857Z</time></trkpt><trkpt lat="44.2849324" lon="11.3921814"><ele>265.0</ele><time>2026-03-30T10:36:30.856Z</time></trkpt><trkpt lat="44.2848594" lon="11.392141"><ele>267.85714285714283</ele><time>2026-03-30T10:36:35.861Z</time></trkpt><trkpt lat="44.2847966" lon="11.3921056"><ele>270.7142857142857</ele><time>2026-03-30T10:36:39.862Z</time></trkpt><trkpt lat="44.2847285" lon="11.3920717"><ele>273.57142857142856</ele><time>2026-03-30T10:36:43.867Z</time></trkpt><trkpt lat="44.2846602" lon="11.3920362"><ele>276.42857142857144</ele><time>2026-03-30T10:36:47.855Z</time></trkpt><trkpt lat="44.2845918" lon="11.3919967"><ele>279.2857142857143</ele><time>2026-03-30T10:36:51.858Z</time></trkpt><trkpt lat="44.2845233" lon="11.391969"><ele>282.1428571428571</ele><time>2026-03-30T10:36:55.857Z</time></trkpt><trkpt lat="44.2844571" lon="11.3919293"><ele>285.0</ele><time>2026-03-30T10:36:59.868Z</time></trkpt><trkpt lat="44.2843913" lon="11.3919035"><ele>285.0</ele><time>2026-03-30T10:37:03.872Z</time></trkpt><trkpt lat="44.2843226" lon="11.3918697"><ele>285.0</ele><time>2026-03-30T10:37:07.866Z</time></trkpt><trkpt lat="44.2842582" lon="11.3918416"><ele>285.0</ele><time>2026-03-30T10:37:11.866Z</time></trkpt><trkpt lat="44.2841872" lon="11.3918079"><ele>285.0</ele><time>2026-03-30T10:37:15.871Z</time></trkpt><trkpt lat="44.2841184" lon="11.3917771"><ele>285.0</ele><time>2026-03-30T10:37:19.86Z</time></trkpt><trkpt lat="44.2840527" lon="11.3917494"><ele>285.0</ele><time>2026-03-30T10:37:23.864Z</time></trkpt><trkpt lat="44.2839835" lon="11.3917237"><ele>285.0</ele><time>2026-03-30T10:37:28.865Z</time></trkpt><trkpt lat="44.283917" lon="11.3916978"><ele>283.85714285714283</ele><time>2026-03-30T10:37:32.866Z</time></trkpt><trkpt lat="44.2838498" lon="11.3916791"><ele>282.7142857142857</ele><time>2026-03-30T10:37:36.858Z</time></trkpt><trkpt lat="44.2837895" lon="11.3916499"><ele>281.57142857142856</ele><time>2026-03-30T10:37:39.855Z</time></trkpt><trkpt lat="44.2837162" lon="11.3916214"><ele>280.42857142857144</ele><time>2026-03-30T10:37:44.855Z</time></trkpt><trkpt lat="44.2836445" lon="11.3915914"><ele>279.2857142857143</ele><time>2026-03-30T10:37:49.87Z</time></trkpt><trkpt lat="44.2835805" lon="11.3915791"><ele>278.1428571428571</ele><time>2026-03-30T10:37:53.868Z</time></trkpt><trkpt lat="44.2835037" lon="11.3915606"><ele>277.0</ele><time>2026-03-30T10:37:58.867Z</time></trkpt><trkpt lat="44.2834189" lon="11.3915245"><ele>277.0</ele><time>2026-03-30T10:38:03.861Z</time></trkpt><trkpt lat="44.2833559" lon="11.3914874"><ele>277.0</ele><time>2026-03-30T10:38:07.861Z</time></trkpt><trkpt lat="44.2832973" lon="11.3914067"><ele>277.0</ele><time>2026-03-30T10:38:10.848Z</time></trkpt><trkpt lat="44.2832519" lon="11.3913309"><ele>277.0</ele><time>2026-03-30T10:38:14.868Z</time></trkpt><trkpt lat="44.2832204" lon="11.3912525"><ele>277.0</ele><time>2026-03-30T10:38:18.866Z</time></trkpt><trkpt lat="44.2831974" lon="11.3911634"><ele>277.0</ele><time>2026-03-30T10:38:22.857Z</time></trkpt><trkpt lat="44.283193" lon="11.3910654"><ele>277.0</ele><time>2026-03-30T10:38:27.857Z</time></trkpt><trkpt lat="44.2831822" lon="11.3909781"><ele>280.7142857142857</ele><time>2026-03-30T10:38:31.86Z</time></trkpt><trkpt lat="44.2831954" lon="11.3908839"><ele>284.4285714285714</ele><time>2026-03-30T10:38:36.731Z</time></trkpt><trkpt lat="44.283222" lon="11.3908037"><ele>288.1428571428571</ele><time>2026-03-30T10:38:40.867Z</time></trkpt><trkpt lat="44.2832719" lon="11.390739"><ele>291.85714285714283</ele><time>2026-03-30T10:38:45.863Z</time></trkpt><trkpt lat="44.2833336" lon="11.3906933"><ele>295.57142857142856</ele><time>2026-03-30T10:38:50.883Z</time></trkpt><trkpt lat="44.2834002" lon="11.3906652"><ele>299.2857142857143</ele><time>2026-03-30T10:38:56.864Z</time></trkpt><trkpt lat="44.2834807" lon="11.3906773"><ele>303.0</ele><time>2026-03-30T10:39:02.851Z</time></trkpt><trkpt lat="44.2835502" lon="11.3906907"><ele>303.0</ele><time>2026-03-30T10:39:06.866Z</time></trkpt><trkpt lat="44.2836148" lon="11.3906786"><ele>303.0</ele><time>2026-03-30T10:39:11.863Z</time></trkpt><trkpt lat="44.2836774" lon="11.3906935"><ele>303.0</ele><time>2026-03-30T10:39:16.861Z</time></trkpt><trkpt lat="44.283753" lon="11.3906716"><ele>303.0</ele><time>2026-03-30T10:39:21.877Z</time></trkpt><trkpt lat="44.2837012" lon="11.3906189"><ele>303.0</ele><time>2026-03-30T10:39:39.86Z</time></trkpt><trkpt lat="44.2836292" lon="11.3906015"><ele>303.0</ele><time>2026-03-30T10:39:46.862Z</time></trkpt><trkpt lat="44.2835537" lon="11.3905718"><ele>303.0</ele><time>2026-03-30T10:39:52.863Z</time></trkpt><trkpt lat="44.2834809" lon="11.3905356"><ele>306.14285714285717</ele><time>2026-03-30T10:39:56.874Z</time></trkpt><trkpt lat="44.2834156" lon="11.3904823"><ele>309.2857142857143</ele><time>2026-03-30T10:40:02.867Z</time></trkpt><trkpt lat="44.2833492" lon="11.3904449"><ele>312.42857142857144</ele><time>2026-03-30T10:40:07.871Z</time></trkpt><trkpt lat="44.2832957" lon="11.3903726"><ele>315.57142857142856</ele><time>2026-03-30T10:40:11.867Z</time></trkpt><trkpt lat="44.2832547" lon="11.3902888"><ele>318.7142857142857</ele><time>2026-03-30T10:40:16.86Z</time></trkpt><trkpt lat="44.2832228" lon="11.390204"><ele>321.85714285714283</ele><time>2026-03-30T10:40:20.857Z</time></trkpt><trkpt lat="44.2831957" lon="11.3901239"><ele>325.0</ele><time>2026-03-30T10:40:24.87Z</time></trkpt><trkpt lat="44.2831685" lon="11.3900212"><ele>325.0</ele><time>2026-03-30T10:40:29.866Z</time></trkpt><trkpt lat="44.2831476" lon="11.3899361"><ele>325.0</ele><time>2026-03-30T10:40:33.868Z</time></trkpt><trkpt lat="44.283132" lon="11.3898311"><ele>325.0</ele><time>2026-03-30T10:40:38.861Z</time></trkpt><trkpt lat="44.2831127" lon="11.3897314"><ele>325.0</ele><time>2026-03-30T10:40:44.859Z</time></trkpt><trkpt lat="44.2831052" lon="11.3896375"><ele>325.0</ele><time>2026-03-30T10:40:49.854Z</time></trkpt><trkpt lat="44.2830908" lon="11.3895283"><ele>325.0</ele><time>2026-03-30T10:40:54.866Z</time></trkpt><trkpt lat="44.2830828" lon="11.3894394"><ele>325.0</ele><time>2026-03-30T10:40:58.865Z</time></trkpt><trkpt lat="44.2830762" lon="11.3893506"><ele>327.0</ele><time>2026-03-30T10:41:02.855Z</time></trkpt><trkpt lat="44.2830536" lon="11.3892629"><ele>329.0</ele><time>2026-03-30T10:41:06.859Z</time></trkpt><trkpt lat="44.2830057" lon="11.3891907"><ele>331.0</ele><time>2026-03-30T10:41:12.866Z</time></trkpt><trkpt lat="44.2829387" lon="11.3891911"><ele>333.0</ele><time>2026-03-30T10:41:19.859Z</time></trkpt><trkpt lat="44.2828716" lon="11.3892165"><ele>335.0</ele><time>2026-03-30T10:41:25.862Z</time></trkpt><trkpt lat="44.2828151" lon="11.3892567"><ele>337.0</ele><time>2026-03-30T10:41:30.868Z</time></trkpt><trkpt lat="44.2827585" lon="11.3892979"><ele>339.0</ele><time>2026-03-30T10:41:35.848Z</time></trkpt><trkpt lat="44.2826907" lon="11.3893371"><ele>339.0</ele><time>2026-03-30T10:41:40.859Z</time></trkpt><trkpt lat="44.2826253" lon="11.389354"><ele>339.0</ele><time>2026-03-30T10:41:45.861Z</time></trkpt><trkpt lat="44.2825573" lon="11.3893616"><ele>339.0</ele><time>2026-03-30T10:41:49.864Z</time></trkpt><trkpt lat="44.2824908" lon="11.3893411"><ele>339.0</ele><time>2026-03-30T10:41:53.862Z</time></trkpt><trkpt lat="44.2824216" lon="11.3893026"><ele>339.0</ele><time>2026-03-30T10:41:57.868Z</time></trkpt><trkpt lat="44.2823567" lon="11.3892621"><ele>339.0</ele><time>2026-03-30T10:42:01.864Z</time></trkpt><trkpt lat="44.2822973" lon="11.3892013"><ele>339.0</ele><time>2026-03-30T10:42:06.872Z</time></trkpt><trkpt lat="44.2822497" lon="11.3891374"><ele>338.7142857142857</ele><time>2026-03-30T10:42:11.86Z</time></trkpt><trkpt lat="44.2822107" lon="11.3890554"><ele>338.42857142857144</ele><time>2026-03-30T10:42:16.867Z</time></trkpt><trkpt lat="44.2821887" lon="11.3889579"><ele>338.14285714285717</ele><time>2026-03-30T10:42:21.684Z</time></trkpt><trkpt lat="44.2821755" lon="11.3888491"><ele>337.8571428571429</ele><time>2026-03-30T10:42:25.863Z</time></trkpt><trkpt lat="44.2821677" lon="11.3887412"><ele>337.57142857142856</ele><time>2026-03-30T10:42:29.859Z</time></trkpt><trkpt lat="44.2821626" lon="11.3886468"><ele>337.28571428571433</ele><time>2026-03-30T10:42:32.838Z</time></trkpt><trkpt lat="44.2821851" lon="11.3885594"><ele>337.0</ele><time>2026-03-30T10:42:35.848Z</time></trkpt><trkpt lat="44.2822132" lon="11.3884794"><ele>337.00000000000006</ele><time>2026-03-30T10:42:39.867Z</time></trkpt><trkpt lat="44.2822571" lon="11.3883972"><ele>337.0</ele><time>2026-03-30T10:42:43.865Z</time></trkpt><trkpt lat="44.2823078" lon="11.3883286"><ele>337.0</ele><time>2026-03-30T10:42:46.861Z</time></trkpt><trkpt lat="44.2823695" lon="11.3882541"><ele>337.0</ele><time>2026-03-30T10:42:49.864Z</time></trkpt><trkpt lat="44.2824308" lon="11.3882006"><ele>337.0</ele><time>2026-03-30T10:42:52.862Z</time></trkpt><trkpt lat="44.2824877" lon="11.3881601"><ele>337.00000000000006</ele><time>2026-03-30T10:42:55.863Z</time></trkpt><trkpt lat="44.2825506" lon="11.3881095"><ele>337.0</ele><time>2026-03-30T10:42:59.86Z</time></trkpt><trkpt lat="44.2826137" lon="11.3880624"><ele>337.7142857142857</ele><time>2026-03-30T10:43:04.864Z</time></trkpt><trkpt lat="44.2826675" lon="11.3880118"><ele>338.42857142857144</ele><time>2026-03-30T10:43:09.875Z</time></trkpt><trkpt lat="44.2827173" lon="11.3879519"><ele>339.1428571428571</ele><time>2026-03-30T10:43:15.865Z</time></trkpt><trkpt lat="44.2827745" lon="11.3878909"><ele>339.8571428571429</ele><time>2026-03-30T10:43:21.86Z</time></trkpt><trkpt lat="44.2828342" lon="11.3878331"><ele>340.57142857142856</ele><time>2026-03-30T10:43:26.863Z</time></trkpt><trkpt lat="44.2828925" lon="11.3877916"><ele>341.2857142857143</ele><time>2026-03-30T10:43:31.867Z</time></trkpt><trkpt lat="44.2829617" lon="11.3877709"><ele>342.0</ele><time>2026-03-30T10:43:35.883Z</time></trkpt><trkpt lat="44.2830307" lon="11.3877697"><ele>344.85714285714283</ele><time>2026-03-30T10:43:39.867Z</time></trkpt><trkpt lat="44.2830995" lon="11.3877669"><ele>347.7142857142857</ele><time>2026-03-30T10:43:43.869Z</time></trkpt><trkpt lat="44.283168" lon="11.3877816"><ele>350.57142857142856</ele><time>2026-03-30T10:43:47.863Z</time></trkpt><trkpt lat="44.2832419" lon="11.3878062"><ele>353.42857142857144</ele><time>2026-03-30T10:43:51.864Z</time></trkpt><trkpt lat="44.2833092" lon="11.3878453"><ele>356.2857142857143</ele><time>2026-03-30T10:43:55.861Z</time></trkpt><trkpt lat="44.2833731" lon="11.3879043"><ele>359.1428571428571</ele><time>2026-03-30T10:43:59.858Z</time></trkpt><trkpt lat="44.2834424" lon="11.3879529"><ele>362.0</ele><time>2026-03-30T10:44:04.856Z</time></trkpt><trkpt lat="44.2835177" lon="11.3879974"><ele>361.2857142857143</ele><time>2026-03-30T10:44:09.868Z</time></trkpt><trkpt lat="44.2835884" lon="11.3880375"><ele>360.57142857142856</ele><time>2026-03-30T10:44:13.865Z</time></trkpt><trkpt lat="44.2836551" lon="11.388093"><ele>359.8571428571429</ele><time>2026-03-30T10:44:17.858Z</time></trkpt><trkpt lat="44.2837137" lon="11.3881495"><ele>359.1428571428571</ele><time>2026-03-30T10:44:21.86Z</time></trkpt><trkpt lat="44.2837616" lon="11.3882131"><ele>358.42857142857144</ele><time>2026-03-30T10:44:24.852Z</time></trkpt><trkpt lat="44.2838103" lon="11.388279"><ele>357.7142857142857</ele><time>2026-03-30T10:44:27.865Z</time></trkpt><trkpt lat="44.283849" lon="11.3883582"><ele>357.0</ele><time>2026-03-30T10:44:30.862Z</time></trkpt><trkpt lat="44.2838794" lon="11.3884376"><ele>357.0</ele><time>2026-03-30T10:44:33.862Z</time></trkpt><trkpt lat="44.2838973" lon="11.3885271"><ele>357.0</ele><time>2026-03-30T10:44:36.859Z</time></trkpt><trkpt lat="44.2839118" lon="11.3886197"><ele>357.0</ele><time>2026-03-30T10:44:39.868Z</time></trkpt><trkpt lat="44.2839209" lon="11.3887106"><ele>357.0</ele><time>2026-03-30T10:44:42.867Z</time></trkpt><trkpt lat="44.2839368" lon="11.388797"><ele>357.0</ele><time>2026-03-30T10:44:45.864Z</time></trkpt><trkpt lat="44.2839537" lon="11.3888826"><ele>357.0</ele><time>2026-03-30T10:44:48.865Z</time></trkpt><trkpt lat="44.2839913" lon="11.3889661"><ele>357.0</ele><time>2026-03-30T10:44:52.863Z</time></trkpt><trkpt lat="44.2840411" lon="11.3890259"><ele>358.14285714285717</ele><time>2026-03-30T10:44:56.87Z</time></trkpt><trkpt lat="44.2841108" lon="11.3890373"><ele>359.2857142857143</ele><time>2026-03-30T10:45:01.855Z</time></trkpt><trkpt lat="44.2841757" lon="11.3890248"><ele>360.42857142857144</ele><time>2026-03-30T10:45:05.866Z</time></trkpt><trkpt lat="44.2842374" lon="11.388999"><ele>361.57142857142856</ele><time>2026-03-30T10:45:09.861Z</time></trkpt><trkpt lat="44.2843148" lon="11.3889696"><ele>362.7142857142857</ele><time>2026-03-30T10:45:14.856Z</time></trkpt><trkpt lat="44.2843869" lon="11.3889277"><ele>363.8571428571429</ele><time>2026-03-30T10:45:19.87Z</time></trkpt><trkpt lat="44.2844525" lon="11.3888898"><ele>365.0</ele><time>2026-03-30T10:45:24.877Z</time></trkpt><trkpt lat="44.2845106" lon="11.3888494"><ele>366.5714285714286</ele><time>2026-03-30T10:45:29.858Z</time></trkpt><trkpt lat="44.2845711" lon="11.3887902"><ele>368.14285714285717</ele><time>2026-03-30T10:45:34.864Z</time></trkpt><trkpt lat="44.2846038" lon="11.3886997"><ele>369.7142857142857</ele><time>2026-03-30T10:45:39.863Z</time></trkpt><trkpt lat="44.284606" lon="11.3885942"><ele>371.28571428571433</ele><time>2026-03-30T10:45:45.861Z</time></trkpt><trkpt lat="44.2845812" lon="11.3885046"><ele>372.85714285714283</ele><time>2026-03-30T10:45:50.869Z</time></trkpt><trkpt lat="44.284546" lon="11.3884192"><ele>374.42857142857144</ele><time>2026-03-30T10:45:55.856Z</time></trkpt><trkpt lat="44.2845084" lon="11.3883286"><ele>376.0</ele><time>2026-03-30T10:46:00.85Z</time></trkpt><trkpt lat="44.2844838" lon="11.3882447"><ele>376.0</ele><time>2026-03-30T10:46:04.874Z</time></trkpt><trkpt lat="44.2844684" lon="11.3881505"><ele>376.0</ele><time>2026-03-30T10:46:08.858Z</time></trkpt><trkpt lat="44.2844584" lon="11.3880474"><ele>376.0</ele><time>2026-03-30T10:46:12.866Z</time></trkpt><trkpt lat="44.284462" lon="11.3879471"><ele>376.0</ele><time>2026-03-30T10:46:16.872Z</time></trkpt><trkpt lat="44.2844742" lon="11.387854"><ele>376.0</ele><time>2026-03-30T10:46:20.861Z</time></trkpt><trkpt lat="44.2844947" lon="11.3877602"><ele>376.0</ele><time>2026-03-30T10:46:24.861Z</time></trkpt><trkpt lat="44.2845264" lon="11.3876725"><ele>376.0</ele><time>2026-03-30T10:46:28.874Z</time></trkpt><trkpt lat="44.2845612" lon="11.3875831"><ele>376.57142857142856</ele><time>2026-03-30T10:46:32.861Z</time></trkpt><trkpt lat="44.2846064" lon="11.387506"><ele>377.1428571428571</ele><time>2026-03-30T10:46:36.868Z</time></trkpt><trkpt lat="44.2846457" lon="11.387418"><ele>377.7142857142857</ele><time>2026-03-30T10:46:40.858Z</time></trkpt><trkpt lat="44.2846955" lon="11.3873512"><ele>378.2857142857143</ele><time>2026-03-30T10:46:44.862Z</time></trkpt><trkpt lat="44.2847424" lon="11.3872833"><ele>378.8571428571429</ele><time>2026-03-30T10:46:48.863Z</time></trkpt><trkpt lat="44.284788" lon="11.3872149"><ele>379.42857142857144</ele><time>2026-03-30T10:46:52.863Z</time></trkpt><trkpt lat="44.2848324" lon="11.3871474"><ele>380.0</ele><time>2026-03-30T10:46:56.867Z</time></trkpt><trkpt lat="44.2848866" lon="11.3870713"><ele>382.2857142857143</ele><time>2026-03-30T10:47:01.862Z</time></trkpt><trkpt lat="44.2849315" lon="11.3870054"><ele>384.57142857142856</ele><time>2026-03-30T10:47:05.86Z</time></trkpt><trkpt lat="44.2849858" lon="11.386938"><ele>386.8571428571429</ele><time>2026-03-30T10:47:10.865Z</time></trkpt><trkpt lat="44.2850352" lon="11.3868765"><ele>389.1428571428571</ele><time>2026-03-30T10:47:14.869Z</time></trkpt><trkpt lat="44.2850825" lon="11.3868136"><ele>391.4285714285714</ele><time>2026-03-30T10:47:18.86Z</time></trkpt><trkpt lat="44.2851396" lon="11.3867405"><ele>393.7142857142857</ele><time>2026-03-30T10:47:23.865Z</time></trkpt><trkpt lat="44.285194" lon="11.3866691"><ele>396.0</ele><time>2026-03-30T10:47:28.848Z</time></trkpt><trkpt lat="44.2852473" lon="11.3866028"><ele>396.0</ele><time>2026-03-30T10:47:33.861Z</time></trkpt><trkpt lat="44.2852945" lon="11.3865345"><ele>396.0</ele><time>2026-03-30T10:47:38.862Z</time></trkpt><trkpt lat="44.2853621" lon="11.3864738"><ele>396.0</ele><time>2026-03-30T10:47:43.854Z</time></trkpt><trkpt lat="44.2854216" lon="11.3864071"><ele>396.0</ele><time>2026-03-30T10:47:48.863Z</time></trkpt><trkpt lat="44.2854826" lon="11.3863415"><ele>396.0</ele><time>2026-03-30T10:47:53.868Z</time></trkpt><trkpt lat="44.2855412" lon="11.386284"><ele>396.0</ele><time>2026-03-30T10:47:58.863Z</time></trkpt><trkpt lat="44.2855939" lon="11.3862293"><ele>396.0</ele><time>2026-03-30T10:48:02.86Z</time></trkpt><trkpt lat="44.2856424" lon="11.3861701"><ele>397.14285714285717</ele><time>2026-03-30T10:48:06.862Z</time></trkpt><trkpt lat="44.2856997" lon="11.3861206"><ele>398.2857142857143</ele><time>2026-03-30T10:48:10.858Z</time></trkpt><trkpt lat="44.2857639" lon="11.3860576"><ele>399.42857142857144</ele><time>2026-03-30T10:48:15.867Z</time></trkpt><trkpt lat="44.2858124" lon="11.3859968"><ele>400.57142857142856</ele><time>2026-03-30T10:48:19.86Z</time></trkpt><trkpt lat="44.2858602" lon="11.385937"><ele>401.71428571428567</ele><time>2026-03-30T10:48:23.859Z</time></trkpt><trkpt lat="44.2859077" lon="11.385872"><ele>402.85714285714283</ele><time>2026-03-30T10:48:27.863Z</time></trkpt><trkpt lat="44.285965" lon="11.385817"><ele>404.0</ele><time>2026-03-30T10:48:30.853Z</time></trkpt><trkpt lat="44.2860212" lon="11.385762"><ele>403.99999999999994</ele><time>2026-03-30T10:48:32.859Z</time></trkpt><trkpt lat="44.2860942" lon="11.385694"><ele>404.0</ele><time>2026-03-30T10:48:34.867Z</time></trkpt><trkpt lat="44.286192" lon="11.3855903"><ele>404.0</ele><time>2026-03-30T10:48:36.86Z</time></trkpt><trkpt lat="44.2862386" lon="11.3855282"><ele>404.0</ele><time>2026-03-30T10:48:37.858Z</time></trkpt><trkpt lat="44.2862795" lon="11.385455"><ele>403.99999999999994</ele><time>2026-03-30T10:48:38.844Z</time></trkpt><trkpt lat="44.2863213" lon="11.3853774"><ele>404.0</ele><time>2026-03-30T10:48:39.869Z</time></trkpt><trkpt lat="44.2863617" lon="11.3852941"><ele>403.99999999999994</ele><time>2026-03-30T10:48:40.864Z</time></trkpt><trkpt lat="44.2864047" lon="11.3852075"><ele>404.0</ele><time>2026-03-30T10:48:41.853Z</time></trkpt><trkpt lat="44.2864475" lon="11.385128"><ele>404.0</ele><time>2026-03-30T10:48:42.869Z</time></trkpt><trkpt lat="44.2864913" lon="11.3850432"><ele>404.0</ele><time>2026-03-30T10:48:43.861Z</time></trkpt><trkpt lat="44.2865336" lon="11.3849536"><ele>403.99999999999994</ele><time>2026-03-30T10:48:44.868Z</time></trkpt><trkpt lat="44.2865809" lon="11.3848553"><ele>404.0</ele><time>2026-03-30T10:48:45.865Z</time></trkpt><trkpt lat="44.2866348" lon="11.384758"><ele>403.8333333333333</ele><time>2026-03-30T10:48:46.865Z</time></trkpt><trkpt lat="44.2866905" lon="11.3846594"><ele>403.66666666666663</ele><time>2026-03-30T10:48:47.852Z</time></trkpt><trkpt lat="44.2867461" lon="11.384579"><ele>403.5</ele><time>2026-03-30T10:48:48.86Z</time></trkpt><trkpt lat="44.2867994" lon="11.3845087"><ele>403.33333333333337</ele><time>2026-03-30T10:48:49.868Z</time></trkpt><trkpt lat="44.286849" lon="11.3844488"><ele>403.1666666666667</ele><time>2026-03-30T10:48:50.86Z</time></trkpt><trkpt lat="44.2869012" lon="11.384387"><ele>403.0</ele><time>2026-03-30T10:48:51.875Z</time></trkpt><trkpt lat="44.2869871" lon="11.3842823"><ele>403.00000000000006</ele><time>2026-03-30T10:48:53.876Z</time></trkpt><trkpt lat="44.2870513" lon="11.3842061"><ele>403.0</ele><time>2026-03-30T10:48:55.845Z</time></trkpt><trkpt lat="44.2871099" lon="11.3841248"><ele>403.0</ele><time>2026-03-30T10:48:58.869Z</time></trkpt><trkpt lat="44.2871524" lon="11.3840536"><ele>403.0</ele><time>2026-03-30T10:49:01.861Z</time></trkpt><trkpt lat="44.2872031" lon="11.383984"><ele>403.00000000000006</ele><time>2026-03-30T10:49:04.86Z</time></trkpt><trkpt lat="44.2872535" lon="11.3838953"><ele>403.0</ele><time>2026-03-30T10:49:08.867Z</time></trkpt><trkpt lat="44.2873002" lon="11.3838329"><ele>404.5714285714286</ele><time>2026-03-30T10:49:11.861Z</time></trkpt><trkpt lat="44.2873551" lon="11.3837602"><ele>406.1428571428571</ele><time>2026-03-30T10:49:15.867Z</time></trkpt><trkpt lat="44.2874126" lon="11.3836927"><ele>407.7142857142857</ele><time>2026-03-30T10:49:19.862Z</time></trkpt><trkpt lat="44.2874696" lon="11.3836267"><ele>409.28571428571433</ele><time>2026-03-30T10:49:23.871Z</time></trkpt><trkpt lat="44.287532" lon="11.3835656"><ele>410.8571428571429</ele><time>2026-03-30T10:49:27.859Z</time></trkpt><trkpt lat="44.2875796" lon="11.3835076"><ele>412.42857142857144</ele><time>2026-03-30T10:49:31.848Z</time></trkpt><trkpt lat="44.2876376" lon="11.3834515"><ele>414.0</ele><time>2026-03-30T10:49:36.865Z</time></trkpt><trkpt lat="44.2877053" lon="11.3834046"><ele>414.00000000000006</ele><time>2026-03-30T10:49:41.866Z</time></trkpt><trkpt lat="44.2877758" lon="11.3833722"><ele>414.0</ele><time>2026-03-30T10:49:46.866Z</time></trkpt><trkpt lat="44.2878491" lon="11.3833641"><ele>414.0</ele><time>2026-03-30T10:49:51.87Z</time></trkpt><trkpt lat="44.2879155" lon="11.3833726"><ele>414.0</ele><time>2026-03-30T10:49:55.871Z</time></trkpt><trkpt lat="44.2879865" lon="11.3833948"><ele>414.0</ele><time>2026-03-30T10:50:00.875Z</time></trkpt><trkpt lat="44.2880441" lon="11.3834434"><ele>414.00000000000006</ele><time>2026-03-30T10:50:04.863Z</time></trkpt><trkpt lat="44.2881008" lon="11.3834876"><ele>414.0</ele><time>2026-03-30T10:50:09.864Z</time></trkpt><trkpt lat="44.288165" lon="11.3835153"><ele>417.00000000000006</ele><time>2026-03-30T10:50:14.869Z</time></trkpt><trkpt lat="44.2882232" lon="11.383563"><ele>420.0</ele><time>2026-03-30T10:50:19.871Z</time></trkpt><trkpt lat="44.2882755" lon="11.3836424"><ele>423.0</ele><time>2026-03-30T10:50:23.848Z</time></trkpt><trkpt lat="44.2883106" lon="11.3837302"><ele>426.0</ele><time>2026-03-30T10:50:27.864Z</time></trkpt><trkpt lat="44.2883377" lon="11.3838115"><ele>429.0</ele><time>2026-03-30T10:50:31.859Z</time></trkpt><trkpt lat="44.2883684" lon="11.3838941"><ele>432.00000000000006</ele><time>2026-03-30T10:50:35.862Z</time></trkpt><trkpt lat="44.2884137" lon="11.3838244"><ele>435.0</ele><time>2026-03-30T10:50:47.864Z</time></trkpt><trkpt lat="44.2883894" lon="11.3837365"><ele>436.14285714285717</ele><time>2026-03-30T10:50:52.863Z</time></trkpt><trkpt lat="44.2883609" lon="11.3836475"><ele>437.2857142857143</ele><time>2026-03-30T10:50:57.878Z</time></trkpt><trkpt lat="44.2883623" lon="11.3835423"><ele>438.42857142857144</ele><time>2026-03-30T10:51:02.863Z</time></trkpt><trkpt lat="44.2883798" lon="11.3834407"><ele>439.57142857142856</ele><time>2026-03-30T10:51:07.858Z</time></trkpt><trkpt lat="44.2884031" lon="11.383338"><ele>440.7142857142857</ele><time>2026-03-30T10:51:12.872Z</time></trkpt><trkpt lat="44.2884226" lon="11.3832522"><ele>441.8571428571429</ele><time>2026-03-30T10:51:16.86Z</time></trkpt><trkpt lat="44.2884367" lon="11.3831465"><ele>443.0</ele><time>2026-03-30T10:51:21.859Z</time></trkpt><trkpt lat="44.2884519" lon="11.383047"><ele>442.7142857142857</ele><time>2026-03-30T10:51:26.845Z</time></trkpt><trkpt lat="44.2884746" lon="11.3829468"><ele>442.42857142857144</ele><time>2026-03-30T10:51:31.859Z</time></trkpt><trkpt lat="44.2884983" lon="11.3828488"><ele>442.1428571428571</ele><time>2026-03-30T10:51:36.871Z</time></trkpt><trkpt lat="44.2885163" lon="11.3827513"><ele>441.8571428571429</ele><time>2026-03-30T10:51:41.871Z</time></trkpt><trkpt lat="44.2885325" lon="11.3826632"><ele>441.57142857142856</ele><time>2026-03-30T10:51:45.862Z</time></trkpt><trkpt lat="44.2885586" lon="11.3825685"><ele>441.2857142857143</ele><time>2026-03-30T10:51:50.86Z</time></trkpt><trkpt lat="44.2885702" lon="11.382466"><ele>441.0</ele><time>2026-03-30T10:51:54.872Z</time></trkpt><trkpt lat="44.2885894" lon="11.3823675"><ele>441.0</ele><time>2026-03-30T10:51:59.864Z</time></trkpt><trkpt lat="44.2886039" lon="11.3822678"><ele>441.0</ele><time>2026-03-30T10:52:04.859Z</time></trkpt><trkpt lat="44.2886188" lon="11.3821663"><ele>441.0</ele><time>2026-03-30T10:52:09.873Z</time></trkpt><trkpt lat="44.2886303" lon="11.3820668"><ele>441.0</ele><time>2026-03-30T10:52:14.858Z</time></trkpt><trkpt lat="44.2886409" lon="11.3819679"><ele>441.0</ele><time>2026-03-30T10:52:19.871Z</time></trkpt><trkpt lat="44.288647" lon="11.3818697"><ele>441.0</ele><time>2026-03-30T10:52:24.867Z</time></trkpt><trkpt lat="44.2886482" lon="11.3817707"><ele>441.0</ele><time>2026-03-30T10:52:29.858Z</time></trkpt><trkpt lat="44.2886409" lon="11.381676"><ele>442.0</ele><time>2026-03-30T10:52:34.867Z</time></trkpt><trkpt lat="44.2886359" lon="11.3815852"><ele>443.0</ele><time>2026-03-30T10:52:39.878Z</time></trkpt><trkpt lat="44.2886277" lon="11.3814957"><ele>444.0</ele><time>2026-03-30T10:52:44.859Z</time></trkpt><trkpt lat="44.2886277" lon="11.3814077"><ele>445.0</ele><time>2026-03-30T10:52:49.862Z</time></trkpt><trkpt lat="44.2886274" lon="11.3813067"><ele>446.0</ele><time>2026-03-30T10:52:54.87Z</time></trkpt><trkpt lat="44.2886401" lon="11.3812133"><ele>447.0</ele><time>2026-03-30T10:52:58.863Z</time></trkpt><trkpt lat="44.2886513" lon="11.3811129"><ele>448.0</ele><time>2026-03-30T10:53:03.866Z</time></trkpt><trkpt lat="44.2886655" lon="11.3810081"><ele>449.0</ele><time>2026-03-30T10:53:09.864Z</time></trkpt><trkpt lat="44.2886735" lon="11.3809149"><ele>450.0</ele><time>2026-03-30T10:53:14.849Z</time></trkpt><trkpt lat="44.2887134" lon="11.3808109"><ele>451.0</ele><time>2026-03-30T10:53:20.86Z</time></trkpt><trkpt lat="44.2887785" lon="11.3807727"><ele>452.0</ele><time>2026-03-30T10:53:24.852Z</time></trkpt><trkpt lat="44.2888418" lon="11.3807467"><ele>453.0</ele><time>2026-03-30T10:53:28.86Z</time></trkpt><trkpt lat="44.2889119" lon="11.3807209"><ele>454.0</ele><time>2026-03-30T10:53:32.862Z</time></trkpt><trkpt lat="44.2889905" lon="11.3807343"><ele>455.0</ele><time>2026-03-30T10:53:37.869Z</time></trkpt><trkpt lat="44.2890596" lon="11.3808006"><ele>455.0</ele><time>2026-03-30T10:53:42.855Z</time></trkpt><trkpt lat="44.2890033" lon="11.3808611"><ele>455.0</ele><time>2026-03-30T10:53:48.863Z</time></trkpt><trkpt lat="44.2889555" lon="11.3807802"><ele>455.0</ele><time>2026-03-30T10:53:53.866Z</time></trkpt><trkpt lat="44.2888767" lon="11.3807783"><ele>455.0</ele><time>2026-03-30T10:53:57.866Z</time></trkpt><trkpt lat="44.288817" lon="11.380829"><ele>455.0</ele><time>2026-03-30T10:54:00.866Z</time></trkpt><trkpt lat="44.2887421" lon="11.3808337"><ele>455.0</ele><time>2026-03-30T10:54:03.871Z</time></trkpt><trkpt lat="44.2886877" lon="11.3807729"><ele>455.0</ele><time>2026-03-30T10:54:05.858Z</time></trkpt><trkpt lat="44.2886543" lon="11.380651"><ele>454.99999999999994</ele><time>2026-03-30T10:54:08.865Z</time></trkpt><trkpt lat="44.2886244" lon="11.3805417"><ele>455.0</ele><time>2026-03-30T10:54:11.862Z</time></trkpt><trkpt lat="44.288588" lon="11.3804449"><ele>455.0</ele><time>2026-03-30T10:54:14.868Z</time></trkpt><trkpt lat="44.2885559" lon="11.3803498"><ele>455.0</ele><time>2026-03-30T10:54:17.869Z</time></trkpt><trkpt lat="44.2885118" lon="11.3802781"><ele>454.99999999999994</ele><time>2026-03-30T10:54:20.865Z</time></trkpt><trkpt lat="44.2884582" lon="11.3802234"><ele>455.0</ele><time>2026-03-30T10:54:23.867Z</time></trkpt><trkpt lat="44.2884017" lon="11.3801322"><ele>456.42857142857144</ele><time>2026-03-30T10:54:26.869Z</time></trkpt><trkpt lat="44.2883544" lon="11.3800698"><ele>457.8571428571429</ele><time>2026-03-30T10:54:28.864Z</time></trkpt><trkpt lat="44.2883052" lon="11.380005"><ele>459.2857142857143</ele><time>2026-03-30T10:54:30.869Z</time></trkpt><trkpt lat="44.2882578" lon="11.3799324"><ele>460.7142857142857</ele><time>2026-03-30T10:54:32.87Z</time></trkpt><trkpt lat="44.2882214" lon="11.3798486"><ele>462.14285714285717</ele><time>2026-03-30T10:54:34.85Z</time></trkpt><trkpt lat="44.2881952" lon="11.3797503"><ele>463.57142857142856</ele><time>2026-03-30T10:54:36.872Z</time></trkpt><trkpt lat="44.2881886" lon="11.37964"><ele>465.0</ele><time>2026-03-30T10:54:38.855Z</time></trkpt><trkpt lat="44.288188" lon="11.3795229"><ele>465.8</ele><time>2026-03-30T10:54:40.865Z</time></trkpt><trkpt lat="44.2881905" lon="11.379405"><ele>466.6</ele><time>2026-03-30T10:54:42.87Z</time></trkpt><trkpt lat="44.2881952" lon="11.3792849"><ele>467.4</ele><time>2026-03-30T10:54:44.864Z</time></trkpt><trkpt lat="44.2881839" lon="11.3791615"><ele>468.2</ele><time>2026-03-30T10:54:46.87Z</time></trkpt><trkpt lat="44.2881493" lon="11.3790209"><ele>469.0</ele><time>2026-03-30T10:54:48.855Z</time></trkpt><trkpt lat="44.2881022" lon="11.3788577"><ele>466.00000000000006</ele><time>2026-03-30T10:54:50.865Z</time></trkpt><trkpt lat="44.2880775" lon="11.3787699"><ele>463.0</ele><time>2026-03-30T10:54:51.865Z</time></trkpt><trkpt lat="44.2880583" lon="11.3786695"><ele>460.0</ele><time>2026-03-30T10:54:52.856Z</time></trkpt><trkpt lat="44.2880474" lon="11.3785592"><ele>457.0</ele><time>2026-03-30T10:54:53.858Z</time></trkpt><trkpt lat="44.2880306" lon="11.3784445"><ele>454.00000000000006</ele><time>2026-03-30T10:54:54.856Z</time></trkpt><trkpt lat="44.2880013" lon="11.3783348"><ele>451.0</ele><time>2026-03-30T10:54:55.863Z</time></trkpt><trkpt lat="44.2879711" lon="11.3782271"><ele>451.00000000000006</ele><time>2026-03-30T10:54:56.866Z</time></trkpt><trkpt lat="44.2879058" lon="11.3781488"><ele>451.0</ele><time>2026-03-30T10:54:57.866Z</time></trkpt><trkpt lat="44.287828" lon="11.3780853"><ele>451.0</ele><time>2026-03-30T10:54:58.862Z</time></trkpt><trkpt lat="44.2877489" lon="11.3780295"><ele>451.0</ele><time>2026-03-30T10:54:59.866Z</time></trkpt><trkpt lat="44.2876782" lon="11.3779561"><ele>451.00000000000006</ele><time>2026-03-30T10:55:00.874Z</time></trkpt><trkpt lat="44.2876264" lon="11.3778661"><ele>451.0</ele><time>2026-03-30T10:55:01.871Z</time></trkpt><trkpt lat="44.2875941" lon="11.3777548"><ele>451.83333333333337</ele><time>2026-03-30T10:55:02.872Z</time></trkpt><trkpt lat="44.2875805" lon="11.3776286"><ele>452.6666666666667</ele><time>2026-03-30T10:55:03.862Z</time></trkpt><trkpt lat="44.2875697" lon="11.3775103"><ele>453.5</ele><time>2026-03-30T10:55:04.859Z</time></trkpt><trkpt lat="44.2875425" lon="11.3774082"><ele>454.33333333333337</ele><time>2026-03-30T10:55:05.863Z</time></trkpt><trkpt lat="44.2874929" lon="11.3773248"><ele>455.1666666666667</ele><time>2026-03-30T10:55:06.866Z</time></trkpt><trkpt lat="44.2874268" lon="11.3772693"><ele>456.0</ele><time>2026-03-30T10:55:07.86Z</time></trkpt><trkpt lat="44.2873513" lon="11.3772546"><ele>456.0</ele><time>2026-03-30T10:55:08.865Z</time></trkpt><trkpt lat="44.2872761" lon="11.3772789"><ele>456.0</ele><time>2026-03-30T10:55:09.851Z</time></trkpt><trkpt lat="44.2872098" lon="11.377339"><ele>456.0</ele><time>2026-03-30T10:55:10.866Z</time></trkpt><trkpt lat="44.2871513" lon="11.3774208"><ele>456.0</ele><time>2026-03-30T10:55:11.863Z</time></trkpt><trkpt lat="44.2870934" lon="11.377502"><ele>456.0</ele><time>2026-03-30T10:55:12.864Z</time></trkpt><trkpt lat="44.2870425" lon="11.3775977"><ele>456.0</ele><time>2026-03-30T10:55:13.856Z</time></trkpt><trkpt lat="44.2869862" lon="11.3776792"><ele>454.2857142857143</ele><time>2026-03-30T10:55:14.862Z</time></trkpt><trkpt lat="44.2869225" lon="11.3777299"><ele>452.57142857142856</ele><time>2026-03-30T10:55:15.853Z</time></trkpt><trkpt lat="44.2868556" lon="11.3777532"><ele>450.85714285714283</ele><time>2026-03-30T10:55:16.856Z</time></trkpt><trkpt lat="44.286782" lon="11.3777481"><ele>449.1428571428571</ele><time>2026-03-30T10:55:17.877Z</time></trkpt><trkpt lat="44.2867144" lon="11.3777439"><ele>447.42857142857144</ele><time>2026-03-30T10:55:18.862Z</time></trkpt><trkpt lat="44.2866468" lon="11.3776922"><ele>445.71428571428567</ele><time>2026-03-30T10:55:19.87Z</time></trkpt><trkpt lat="44.2866039" lon="11.377584"><ele>444.0</ele><time>2026-03-30T10:55:20.879Z</time></trkpt><trkpt lat="44.2865629" lon="11.377473"><ele>444.0</ele><time>2026-03-30T10:55:21.86Z</time></trkpt><trkpt lat="44.2865803" lon="11.3773362"><ele>444.0</ele><time>2026-03-30T10:55:22.861Z</time></trkpt><trkpt lat="44.2865989" lon="11.3771942"><ele>444.0</ele><time>2026-03-30T10:55:23.867Z</time></trkpt><trkpt lat="44.2866592" lon="11.3771029"><ele>444.0</ele><time>2026-03-30T10:55:24.863Z</time></trkpt><trkpt lat="44.2867376" lon="11.3770369"><ele>444.0</ele><time>2026-03-30T10:55:25.872Z</time></trkpt><trkpt lat="44.2868242" lon="11.3769769"><ele>443.6</ele><time>2026-03-30T10:55:26.864Z</time></trkpt><trkpt lat="44.2869204" lon="11.3769558"><ele>443.2</ele><time>2026-03-30T10:55:27.86Z</time></trkpt><trkpt lat="44.287021" lon="11.3769154"><ele>442.80000000000007</ele><time>2026-03-30T10:55:28.868Z</time></trkpt><trkpt lat="44.2871141" lon="11.3768569"><ele>442.40000000000003</ele><time>2026-03-30T10:55:29.864Z</time></trkpt><trkpt lat="44.2872019" lon="11.3767828"><ele>442.0</ele><time>2026-03-30T10:55:30.86Z</time></trkpt><trkpt lat="44.2872828" lon="11.3766961"><ele>442.0</ele><time>2026-03-30T10:55:31.866Z</time></trkpt><trkpt lat="44.2873566" lon="11.3766105"><ele>442.00000000000006</ele><time>2026-03-30T10:55:32.864Z</time></trkpt><trkpt lat="44.2874338" lon="11.3765308"><ele>442.00000000000006</ele><time>2026-03-30T10:55:33.859Z</time></trkpt><trkpt lat="44.2875193" lon="11.3764686"><ele>442.0</ele><time>2026-03-30T10:55:34.862Z</time></trkpt><trkpt lat="44.2876164" lon="11.3764301"><ele>442.0</ele><time>2026-03-30T10:55:35.878Z</time></trkpt><trkpt lat="44.2877215" lon="11.3764115"><ele>442.0</ele><time>2026-03-30T10:55:36.869Z</time></trkpt><trkpt lat="44.2878304" lon="11.3764085"><ele>442.00000000000006</ele><time>2026-03-30T10:55:37.861Z</time></trkpt><trkpt lat="44.2879422" lon="11.376412"><ele>442.00000000000006</ele><time>2026-03-30T10:55:38.86Z</time></trkpt><trkpt lat="44.2880554" lon="11.3764177"><ele>442.0</ele><time>2026-03-30T10:55:39.861Z</time></trkpt><trkpt lat="44.2881673" lon="11.3764189"><ele>442.0</ele><time>2026-03-30T10:55:40.867Z</time></trkpt><trkpt lat="44.2882808" lon="11.3764139"><ele>441.20000000000005</ele><time>2026-03-30T10:55:41.867Z</time></trkpt><trkpt lat="44.28839" lon="11.3764042"><ele>440.40000000000003</ele><time>2026-03-30T10:55:42.864Z</time></trkpt><trkpt lat="44.2884912" lon="11.3764023"><ele>439.59999999999997</ele><time>2026-03-30T10:55:43.866Z</time></trkpt><trkpt lat="44.2885748" lon="11.3764346"><ele>438.79999999999995</ele><time>2026-03-30T10:55:44.866Z</time></trkpt><trkpt lat="44.2886439" lon="11.3764958"><ele>438.0</ele><time>2026-03-30T10:55:45.871Z</time></trkpt><trkpt lat="44.2887154" lon="11.3766089"><ele>438.0</ele><time>2026-03-30T10:55:46.867Z</time></trkpt><trkpt lat="44.2887821" lon="11.3766968"><ele>437.99999999999994</ele><time>2026-03-30T10:55:47.871Z</time></trkpt><trkpt lat="44.2888322" lon="11.3767557"><ele>437.99999999999994</ele><time>2026-03-30T10:55:48.862Z</time></trkpt><trkpt lat="44.2889124" lon="11.3767164"><ele>438.0</ele><time>2026-03-30T10:55:50.868Z</time></trkpt><trkpt lat="44.2888935" lon="11.3765858"><ele>438.0</ele><time>2026-03-30T10:55:52.86Z</time></trkpt><trkpt lat="44.2887904" lon="11.3765132"><ele>438.0</ele><time>2026-03-30T10:55:54.87Z</time></trkpt><trkpt lat="44.2887316" lon="11.3764679"><ele>438.0</ele><time>2026-03-30T10:55:55.862Z</time></trkpt><trkpt lat="44.2886707" lon="11.3764172"><ele>438.0</ele><time>2026-03-30T10:55:56.87Z</time></trkpt><trkpt lat="44.2886029" lon="11.3763604"><ele>438.0</ele><time>2026-03-30T10:55:57.856Z</time></trkpt><trkpt lat="44.2885315" lon="11.3762949"><ele>438.0</ele><time>2026-03-30T10:55:58.864Z</time></trkpt><trkpt lat="44.2884568" lon="11.3762236"><ele>438.0</ele><time>2026-03-30T10:55:59.864Z</time></trkpt><trkpt lat="44.2883789" lon="11.3761533"><ele>434.79999999999995</ele><time>2026-03-30T10:56:00.859Z</time></trkpt><trkpt lat="44.2882962" lon="11.3760747"><ele>431.59999999999997</ele><time>2026-03-30T10:56:01.86Z</time></trkpt><trkpt lat="44.2882154" lon="11.3759997"><ele>428.4</ele><time>2026-03-30T10:56:02.863Z</time></trkpt><trkpt lat="44.2881311" lon="11.375921"><ele>425.20000000000005</ele><time>2026-03-30T10:56:03.867Z</time></trkpt><trkpt lat="44.288046" lon="11.375852"><ele>422.0</ele><time>2026-03-30T10:56:04.854Z</time></trkpt><trkpt lat="44.2879546" lon="11.3758082"><ele>421.99999999999994</ele><time>2026-03-30T10:56:05.867Z</time></trkpt><trkpt lat="44.2878701" lon="11.3757711"><ele>422.0</ele><time>2026-03-30T10:56:06.858Z</time></trkpt><trkpt lat="44.2877939" lon="11.3757644"><ele>422.0</ele><time>2026-03-30T10:56:07.855Z</time></trkpt><trkpt lat="44.2877223" lon="11.3757481"><ele>422.0</ele><time>2026-03-30T10:56:08.86Z</time></trkpt><trkpt lat="44.2876634" lon="11.375714"><ele>421.99999999999994</ele><time>2026-03-30T10:56:09.86Z</time></trkpt><trkpt lat="44.2875743" lon="11.3756291"><ele>422.0</ele><time>2026-03-30T10:56:11.853Z</time></trkpt><trkpt lat="44.287469" lon="11.3756157"><ele>422.0</ele><time>2026-03-30T10:56:13.878Z</time></trkpt><trkpt lat="44.2873621" lon="11.375646"><ele>422.0</ele><time>2026-03-30T10:56:15.871Z</time></trkpt><trkpt lat="44.2872582" lon="11.3756878"><ele>422.0</ele><time>2026-03-30T10:56:17.869Z</time></trkpt><trkpt lat="44.2871542" lon="11.375726"><ele>422.0</ele><time>2026-03-30T10:56:19.86Z</time></trkpt><trkpt lat="44.2870528" lon="11.3757631"><ele>422.0</ele><time>2026-03-30T10:56:21.862Z</time></trkpt><trkpt lat="44.2869517" lon="11.3757972"><ele>420.8</ele><time>2026-03-30T10:56:23.863Z</time></trkpt><trkpt lat="44.2868502" lon="11.3758302"><ele>419.6</ele><time>2026-03-30T10:56:25.864Z</time></trkpt><trkpt lat="44.2867445" lon="11.3758601"><ele>418.40000000000003</ele><time>2026-03-30T10:56:27.866Z</time></trkpt><trkpt lat="44.2866433" lon="11.3758953"><ele>417.20000000000005</ele><time>2026-03-30T10:56:29.858Z</time></trkpt><trkpt lat="44.2865456" lon="11.3759282"><ele>416.0</ele><time>2026-03-30T10:56:31.868Z</time></trkpt><trkpt lat="44.2864439" lon="11.3759546"><ele>417.5</ele><time>2026-03-30T10:56:33.865Z</time></trkpt><trkpt lat="44.2863357" lon="11.3759858"><ele>419.0</ele><time>2026-03-30T10:56:35.867Z</time></trkpt><trkpt lat="44.2862267" lon="11.3760092"><ele>420.5</ele><time>2026-03-30T10:56:37.871Z</time></trkpt><trkpt lat="44.2861102" lon="11.3760092"><ele>422.0</ele><time>2026-03-30T10:56:39.867Z</time></trkpt><trkpt lat="44.285996" lon="11.3759611"><ele>422.0</ele><time>2026-03-30T10:56:41.858Z</time></trkpt><trkpt lat="44.2858951" lon="11.3758735"><ele>422.0</ele><time>2026-03-30T10:56:43.873Z</time></trkpt><trkpt lat="44.2858176" lon="11.3757504"><ele>422.0</ele><time>2026-03-30T10:56:45.865Z</time></trkpt><trkpt lat="44.2857687" lon="11.3756048"><ele>422.0</ele><time>2026-03-30T10:56:47.861Z</time></trkpt><trkpt lat="44.2857356" lon="11.3754428"><ele>420.20000000000005</ele><time>2026-03-30T10:56:49.867Z</time></trkpt><trkpt lat="44.2857238" lon="11.3753536"><ele>418.4</ele><time>2026-03-30T10:56:50.857Z</time></trkpt><trkpt lat="44.2857125" lon="11.375184"><ele>416.6</ele><time>2026-03-30T10:56:52.869Z</time></trkpt><trkpt lat="44.2857005" lon="11.3750318"><ele>414.79999999999995</ele><time>2026-03-30T10:56:54.866Z</time></trkpt><trkpt lat="44.2856785" lon="11.3748875"><ele>413.0</ele><time>2026-03-30T10:56:56.864Z</time></trkpt><trkpt lat="44.2856439" lon="11.3747486"><ele>414.4</ele><time>2026-03-30T10:56:58.852Z</time></trkpt><trkpt lat="44.2855919" lon="11.3746258"><ele>415.79999999999995</ele><time>2026-03-30T10:57:00.877Z</time></trkpt><trkpt lat="44.2855276" lon="11.3745269"><ele>417.2</ele><time>2026-03-30T10:57:02.865Z</time></trkpt><trkpt lat="44.2854526" lon="11.3744511"><ele>418.6</ele><time>2026-03-30T10:57:04.866Z</time></trkpt><trkpt lat="44.2853696" lon="11.3744023"><ele>420.0</ele><time>2026-03-30T10:57:06.865Z</time></trkpt><trkpt lat="44.2852776" lon="11.3743738"><ele>420.0</ele><time>2026-03-30T10:57:08.861Z</time></trkpt><trkpt lat="44.285181" lon="11.3743526"><ele>420.0</ele><time>2026-03-30T10:57:10.859Z</time></trkpt><trkpt lat="44.2850816" lon="11.374345"><ele>420.0</ele><time>2026-03-30T10:57:12.862Z</time></trkpt><trkpt lat="44.2849821" lon="11.3743413"><ele>420.0</ele><time>2026-03-30T10:57:14.862Z</time></trkpt><trkpt lat="44.2848826" lon="11.3743332"><ele>420.0</ele><time>2026-03-30T10:57:16.866Z</time></trkpt><trkpt lat="44.2847807" lon="11.3743269"><ele>419.6</ele><time>2026-03-30T10:57:18.873Z</time></trkpt><trkpt lat="44.2846793" lon="11.3743178"><ele>419.2</ele><time>2026-03-30T10:57:20.856Z</time></trkpt><trkpt lat="44.2845787" lon="11.3743092"><ele>418.79999999999995</ele><time>2026-03-30T10:57:22.864Z</time></trkpt><trkpt lat="44.2844717" lon="11.3743"><ele>418.4</ele><time>2026-03-30T10:57:24.858Z</time></trkpt><trkpt lat="44.2843792" lon="11.374294"><ele>418.0</ele><time>2026-03-30T10:57:26.865Z</time></trkpt><trkpt lat="44.2842782" lon="11.3742922"><ele>418.0</ele><time>2026-03-30T10:57:28.864Z</time></trkpt><trkpt lat="44.2841708" lon="11.3742845"><ele>418.0</ele><time>2026-03-30T10:57:30.867Z</time></trkpt><trkpt lat="44.2840612" lon="11.3742639"><ele>418.0</ele><time>2026-03-30T10:57:32.877Z</time></trkpt><trkpt lat="44.2839585" lon="11.3742557"><ele>418.0</ele><time>2026-03-30T10:57:34.862Z</time></trkpt><trkpt lat="44.2838545" lon="11.3742454"><ele>418.0</ele><time>2026-03-30T10:57:36.864Z</time></trkpt><trkpt lat="44.2837455" lon="11.3742317"><ele>418.4</ele><time>2026-03-30T10:57:38.863Z</time></trkpt><trkpt lat="44.2836393" lon="11.3742206"><ele>418.79999999999995</ele><time>2026-03-30T10:57:40.864Z</time></trkpt><trkpt lat="44.2835342" lon="11.37421"><ele>419.2</ele><time>2026-03-30T10:57:42.863Z</time></trkpt><trkpt lat="44.28343" lon="11.3742005"><ele>419.6</ele><time>2026-03-30T10:57:44.861Z</time></trkpt><trkpt lat="44.2833273" lon="11.3741944"><ele>420.0</ele><time>2026-03-30T10:57:46.867Z</time></trkpt><trkpt lat="44.2832351" lon="11.3741847"><ele>420.0</ele><time>2026-03-30T10:57:48.861Z</time></trkpt><trkpt lat="44.2831413" lon="11.3741714"><ele>420.0</ele><time>2026-03-30T10:57:50.866Z</time></trkpt><trkpt lat="44.283052" lon="11.3741573"><ele>420.0</ele><time>2026-03-30T10:57:52.864Z</time></trkpt><trkpt lat="44.2829599" lon="11.3741423"><ele>420.0</ele><time>2026-03-30T10:57:54.86Z</time></trkpt><trkpt lat="44.28287" lon="11.374133"><ele>420.0</ele><time>2026-03-30T10:57:56.867Z</time></trkpt><trkpt lat="44.282785" lon="11.3741239"><ele>421.0</ele><time>2026-03-30T10:57:58.868Z</time></trkpt><trkpt lat="44.282701" lon="11.3741177"><ele>422.0</ele><time>2026-03-30T10:58:00.857Z</time></trkpt><trkpt lat="44.2826223" lon="11.3741046"><ele>423.0</ele><time>2026-03-30T10:58:02.862Z</time></trkpt><trkpt lat="44.2825401" lon="11.3740924"><ele>424.0</ele><time>2026-03-30T10:58:04.861Z</time></trkpt><trkpt lat="44.2824581" lon="11.3740836"><ele>425.0</ele><time>2026-03-30T10:58:06.861Z</time></trkpt><trkpt lat="44.2823742" lon="11.3740769"><ele>426.0</ele><time>2026-03-30T10:58:08.857Z</time></trkpt><trkpt lat="44.2822903" lon="11.3740685"><ele>426.1666666666667</ele><time>2026-03-30T10:58:10.857Z</time></trkpt><trkpt lat="44.2822061" lon="11.3740563"><ele>426.33333333333337</ele><time>2026-03-30T10:58:12.868Z</time></trkpt><trkpt lat="44.28212" lon="11.3740516"><ele>426.5</ele><time>2026-03-30T10:58:14.852Z</time></trkpt><trkpt lat="44.2820344" lon="11.3740518"><ele>426.6666666666667</ele><time>2026-03-30T10:58:16.86Z</time></trkpt><trkpt lat="44.2819434" lon="11.3740563"><ele>426.83333333333337</ele><time>2026-03-30T10:58:18.861Z</time></trkpt><trkpt lat="44.2818504" lon="11.3740654"><ele>427.0</ele><time>2026-03-30T10:58:20.86Z</time></trkpt><trkpt lat="44.2817512" lon="11.3740801"><ele>427.0</ele><time>2026-03-30T10:58:22.853Z</time></trkpt><trkpt lat="44.281642" lon="11.3741013"><ele>427.00000000000006</ele><time>2026-03-30T10:58:24.868Z</time></trkpt><trkpt lat="44.2815274" lon="11.3741355"><ele>427.00000000000006</ele><time>2026-03-30T10:58:26.863Z</time></trkpt><trkpt lat="44.281406" lon="11.3741788"><ele>427.0</ele><time>2026-03-30T10:58:28.862Z</time></trkpt><trkpt lat="44.2813438" lon="11.3742035"><ele>427.0</ele><time>2026-03-30T10:58:29.862Z</time></trkpt><trkpt lat="44.2812813" lon="11.3742316"><ele>425.85714285714283</ele><time>2026-03-30T10:58:30.866Z</time></trkpt><trkpt lat="44.2812187" lon="11.3742634"><ele>424.7142857142857</ele><time>2026-03-30T10:58:31.87Z</time></trkpt><trkpt lat="44.2811554" lon="11.3742937"><ele>423.57142857142856</ele><time>2026-03-30T10:58:32.864Z</time></trkpt><trkpt lat="44.2810932" lon="11.3743243"><ele>422.42857142857144</ele><time>2026-03-30T10:58:33.855Z</time></trkpt><trkpt lat="44.2810287" lon="11.3743522"><ele>421.2857142857143</ele><time>2026-03-30T10:58:34.865Z</time></trkpt><trkpt lat="44.2809623" lon="11.3743724"><ele>420.1428571428571</ele><time>2026-03-30T10:58:35.862Z</time></trkpt><trkpt lat="44.2808962" lon="11.3743919"><ele>419.0</ele><time>2026-03-30T10:58:36.867Z</time></trkpt><trkpt lat="44.2808304" lon="11.3744104"><ele>418.99999999999994</ele><time>2026-03-30T10:58:37.85Z</time></trkpt><trkpt lat="44.2807645" lon="11.3744199"><ele>419.0</ele><time>2026-03-30T10:58:38.868Z</time></trkpt><trkpt lat="44.2806997" lon="11.3744223"><ele>419.0</ele><time>2026-03-30T10:58:39.862Z</time></trkpt><trkpt lat="44.2806358" lon="11.3744176"><ele>419.0</ele><time>2026-03-30T10:58:40.863Z</time></trkpt><trkpt lat="44.2805199" lon="11.3743857"><ele>418.99999999999994</ele><time>2026-03-30T10:58:42.855Z</time></trkpt><trkpt lat="44.2804173" lon="11.3743339"><ele>419.0</ele><time>2026-03-30T10:58:44.866Z</time></trkpt><trkpt lat="44.2803283" lon="11.374262"><ele>419.66666666666663</ele><time>2026-03-30T10:58:46.866Z</time></trkpt><trkpt lat="44.2802535" lon="11.3741766"><ele>420.3333333333333</ele><time>2026-03-30T10:58:48.864Z</time></trkpt><trkpt lat="44.2801836" lon="11.3740834"><ele>421.0</ele><time>2026-03-30T10:58:50.867Z</time></trkpt><trkpt lat="44.280128" lon="11.3739781"><ele>421.66666666666663</ele><time>2026-03-30T10:58:52.894Z</time></trkpt><trkpt lat="44.2800869" lon="11.3738779"><ele>422.3333333333333</ele><time>2026-03-30T10:58:54.861Z</time></trkpt><trkpt lat="44.2800559" lon="11.3737809"><ele>423.0</ele><time>2026-03-30T10:58:56.865Z</time></trkpt><trkpt lat="44.2800344" lon="11.3736846"><ele>423.4285714285714</ele><time>2026-03-30T10:58:58.866Z</time></trkpt><trkpt lat="44.280016" lon="11.3735888"><ele>423.8571428571429</ele><time>2026-03-30T10:59:00.876Z</time></trkpt><trkpt lat="44.2799945" lon="11.3734948"><ele>424.2857142857143</ele><time>2026-03-30T10:59:02.864Z</time></trkpt><trkpt lat="44.2799757" lon="11.3734024"><ele>424.71428571428567</ele><time>2026-03-30T10:59:04.861Z</time></trkpt><trkpt lat="44.2799554" lon="11.3733065"><ele>425.1428571428571</ele><time>2026-03-30T10:59:06.867Z</time></trkpt><trkpt lat="44.2799337" lon="11.3732062"><ele>425.57142857142856</ele><time>2026-03-30T10:59:08.85Z</time></trkpt><trkpt lat="44.2799126" lon="11.373108"><ele>426.0</ele><time>2026-03-30T10:59:10.86Z</time></trkpt><trkpt lat="44.2798951" lon="11.373016"><ele>426.0</ele><time>2026-03-30T10:59:12.867Z</time></trkpt><trkpt lat="44.2798756" lon="11.3729235"><ele>426.0</ele><time>2026-03-30T10:59:14.858Z</time></trkpt><trkpt lat="44.2798508" lon="11.3728306"><ele>426.0</ele><time>2026-03-30T10:59:16.864Z</time></trkpt><trkpt lat="44.2798067" lon="11.3727157"><ele>426.0</ele><time>2026-03-30T10:59:19.857Z</time></trkpt><trkpt lat="44.2797704" lon="11.3726419"><ele>426.0</ele><time>2026-03-30T10:59:21.86Z</time></trkpt><trkpt lat="44.2797154" lon="11.3725692"><ele>426.0</ele><time>2026-03-30T10:59:23.876Z</time></trkpt><trkpt lat="44.2796582" lon="11.3724892"><ele>427.6666666666667</ele><time>2026-03-30T10:59:25.855Z</time></trkpt><trkpt lat="44.2795914" lon="11.3724147"><ele>429.33333333333337</ele><time>2026-03-30T10:59:27.861Z</time></trkpt><trkpt lat="44.2795251" lon="11.3723472"><ele>431.0</ele><time>2026-03-30T10:59:29.854Z</time></trkpt><trkpt lat="44.2794569" lon="11.3722803"><ele>432.6666666666667</ele><time>2026-03-30T10:59:31.857Z</time></trkpt><trkpt lat="44.2793882" lon="11.3722072"><ele>434.33333333333337</ele><time>2026-03-30T10:59:33.855Z</time></trkpt><trkpt lat="44.2793277" lon="11.3721218"><ele>436.0</ele><time>2026-03-30T10:59:35.881Z</time></trkpt><trkpt lat="44.2792684" lon="11.372032"><ele>436.0</ele><time>2026-03-30T10:59:37.87Z</time></trkpt><trkpt lat="44.2792188" lon="11.3719249"><ele>436.0</ele><time>2026-03-30T10:59:39.854Z</time></trkpt><trkpt lat="44.2791768" lon="11.3718029"><ele>436.0</ele><time>2026-03-30T10:59:41.865Z</time></trkpt><trkpt lat="44.2791411" lon="11.3716823"><ele>436.0</ele><time>2026-03-30T10:59:43.86Z</time></trkpt><trkpt lat="44.2791061" lon="11.3715696"><ele>436.0</ele><time>2026-03-30T10:59:45.847Z</time></trkpt><trkpt lat="44.279073" lon="11.3714633"><ele>434.83333333333337</ele><time>2026-03-30T10:59:47.86Z</time></trkpt><trkpt lat="44.2790402" lon="11.3713549"><ele>433.6666666666667</ele><time>2026-03-30T10:59:49.857Z</time></trkpt><trkpt lat="44.2790117" lon="11.3712476"><ele>432.5</ele><time>2026-03-30T10:59:51.861Z</time></trkpt><trkpt lat="44.2789817" lon="11.371143"><ele>431.33333333333337</ele><time>2026-03-30T10:59:53.864Z</time></trkpt><trkpt lat="44.2789518" lon="11.3710374"><ele>430.1666666666667</ele><time>2026-03-30T10:59:55.87Z</time></trkpt><trkpt lat="44.2789189" lon="11.3709295"><ele>429.0</ele><time>2026-03-30T10:59:57.859Z</time></trkpt><trkpt lat="44.2788908" lon="11.3708245"><ele>432.3333333333333</ele><time>2026-03-30T10:59:59.878Z</time></trkpt><trkpt lat="44.2788649" lon="11.3707184"><ele>435.66666666666663</ele><time>2026-03-30T11:00:01.856Z</time></trkpt><trkpt lat="44.2788371" lon="11.3706176"><ele>439.0</ele><time>2026-03-30T11:00:03.863Z</time></trkpt><trkpt lat="44.278808" lon="11.3705141"><ele>442.3333333333333</ele><time>2026-03-30T11:00:05.862Z</time></trkpt><trkpt lat="44.2787794" lon="11.3704218"><ele>445.66666666666663</ele><time>2026-03-30T11:00:07.859Z</time></trkpt><trkpt lat="44.2787495" lon="11.3703291"><ele>449.0</ele><time>2026-03-30T11:00:09.863Z</time></trkpt><trkpt lat="44.2787162" lon="11.3702444"><ele>449.0</ele><time>2026-03-30T11:00:11.867Z</time></trkpt><trkpt lat="44.2786817" lon="11.3701622"><ele>448.99999999999994</ele><time>2026-03-30T11:00:13.863Z</time></trkpt><trkpt lat="44.2786409" lon="11.3700823"><ele>449.0</ele><time>2026-03-30T11:00:15.866Z</time></trkpt><trkpt lat="44.2785927" lon="11.3700149"><ele>449.0</ele><time>2026-03-30T11:00:17.856Z</time></trkpt><trkpt lat="44.278545" lon="11.3699541"><ele>448.99999999999994</ele><time>2026-03-30T11:00:19.861Z</time></trkpt><trkpt lat="44.2784742" lon="11.3698873"><ele>449.0</ele><time>2026-03-30T11:00:22.859Z</time></trkpt><trkpt lat="44.2783971" lon="11.3698234"><ele>449.0</ele><time>2026-03-30T11:00:25.862Z</time></trkpt><trkpt lat="44.2783174" lon="11.3697729"><ele>449.0</ele><time>2026-03-30T11:00:28.85Z</time></trkpt><trkpt lat="44.2782344" lon="11.3697122"><ele>449.0</ele><time>2026-03-30T11:00:31.874Z</time></trkpt><trkpt lat="44.2781465" lon="11.3696642"><ele>449.0</ele><time>2026-03-30T11:00:34.856Z</time></trkpt><trkpt lat="44.2780622" lon="11.3696109"><ele>449.0</ele><time>2026-03-30T11:00:37.853Z</time></trkpt><trkpt lat="44.2779799" lon="11.369565"><ele>449.0</ele><time>2026-03-30T11:00:40.859Z</time></trkpt><trkpt lat="44.2778977" lon="11.3695196"><ele>447.49999999999994</ele><time>2026-03-30T11:00:43.863Z</time></trkpt><trkpt lat="44.2778125" lon="11.3694806"><ele>446.0</ele><time>2026-03-30T11:00:46.86Z</time></trkpt><trkpt lat="44.2777283" lon="11.3694515"><ele>444.5</ele><time>2026-03-30T11:00:49.858Z</time></trkpt><trkpt lat="44.2776454" lon="11.3694261"><ele>443.0</ele><time>2026-03-30T11:00:52.855Z</time></trkpt><trkpt lat="44.2775652" lon="11.3694059"><ele>441.49999999999994</ele><time>2026-03-30T11:00:55.86Z</time></trkpt><trkpt lat="44.2774913" lon="11.3693951"><ele>440.0</ele><time>2026-03-30T11:00:58.863Z</time></trkpt><trkpt lat="44.2774224" lon="11.3693938"><ele>439.99999999999994</ele><time>2026-03-30T11:01:01.854Z</time></trkpt><trkpt lat="44.2773365" lon="11.3693898"><ele>440.0</ele><time>2026-03-30T11:01:04.855Z</time></trkpt><trkpt lat="44.2772461" lon="11.3693818"><ele>440.0</ele><time>2026-03-30T11:01:07.855Z</time></trkpt><trkpt lat="44.2771501" lon="11.3693739"><ele>440.0</ele><time>2026-03-30T11:01:10.854Z</time></trkpt><trkpt lat="44.2770625" lon="11.3693775"><ele>439.99999999999994</ele><time>2026-03-30T11:01:13.854Z</time></trkpt><trkpt lat="44.276978" lon="11.3693783"><ele>440.0</ele><time>2026-03-30T11:01:16.862Z</time></trkpt><trkpt lat="44.2769016" lon="11.3693763"><ele>439.49999999999994</ele><time>2026-03-30T11:01:19.862Z</time></trkpt><trkpt lat="44.2768252" lon="11.3693778"><ele>439.0</ele><time>2026-03-30T11:01:22.864Z</time></trkpt><trkpt lat="44.2767436" lon="11.3693675"><ele>438.5</ele><time>2026-03-30T11:01:25.859Z</time></trkpt><trkpt lat="44.2766687" lon="11.3693653"><ele>438.0</ele><time>2026-03-30T11:01:28.853Z</time></trkpt><trkpt lat="44.2765864" lon="11.3693626"><ele>437.49999999999994</ele><time>2026-03-30T11:01:31.859Z</time></trkpt><trkpt lat="44.2765038" lon="11.3693648"><ele>437.0</ele><time>2026-03-30T11:01:34.854Z</time></trkpt><trkpt lat="44.2764267" lon="11.3693837"><ele>436.99999999999994</ele><time>2026-03-30T11:01:37.864Z</time></trkpt><trkpt lat="44.2763517" lon="11.3694185"><ele>437.0</ele><time>2026-03-30T11:01:40.841Z</time></trkpt><trkpt lat="44.2762835" lon="11.3694736"><ele>437.0</ele><time>2026-03-30T11:01:43.848Z</time></trkpt><trkpt lat="44.2762195" lon="11.3695456"><ele>437.0</ele><time>2026-03-30T11:01:46.859Z</time></trkpt><trkpt lat="44.2761706" lon="11.3696205"><ele>436.99999999999994</ele><time>2026-03-30T11:01:49.851Z</time></trkpt><trkpt lat="44.276135" lon="11.369715"><ele>437.0</ele><time>2026-03-30T11:01:52.848Z</time></trkpt><trkpt lat="44.2761031" lon="11.3698128"><ele>438.8333333333333</ele><time>2026-03-30T11:01:55.855Z</time></trkpt><trkpt lat="44.276091" lon="11.3699198"><ele>440.66666666666663</ele><time>2026-03-30T11:01:58.871Z</time></trkpt><trkpt lat="44.2760826" lon="11.3700222"><ele>442.5</ele><time>2026-03-30T11:02:01.856Z</time></trkpt><trkpt lat="44.2760929" lon="11.3701316"><ele>444.33333333333337</ele><time>2026-03-30T11:02:04.845Z</time></trkpt><trkpt lat="44.2760944" lon="11.3702453"><ele>446.1666666666667</ele><time>2026-03-30T11:02:07.859Z</time></trkpt><trkpt lat="44.2760876" lon="11.3703562"><ele>448.0</ele><time>2026-03-30T11:02:10.851Z</time></trkpt><trkpt lat="44.2760653" lon="11.3704697"><ele>450.1666666666667</ele><time>2026-03-30T11:02:13.861Z</time></trkpt><trkpt lat="44.2760213" lon="11.3705729"><ele>452.33333333333337</ele><time>2026-03-30T11:02:16.855Z</time></trkpt><trkpt lat="44.2759653" lon="11.3706752"><ele>454.5</ele><time>2026-03-30T11:02:19.864Z</time></trkpt><trkpt lat="44.2758947" lon="11.370763"><ele>456.66666666666663</ele><time>2026-03-30T11:02:22.845Z</time></trkpt><trkpt lat="44.2758389" lon="11.3708073"><ele>458.8333333333333</ele><time>2026-03-30T11:02:24.861Z</time></trkpt><trkpt lat="44.2757787" lon="11.3708412"><ele>461.0</ele><time>2026-03-30T11:02:26.857Z</time></trkpt><trkpt lat="44.2757114" lon="11.370863"><ele>460.99999999999994</ele><time>2026-03-30T11:02:28.864Z</time></trkpt><trkpt lat="44.275619" lon="11.3708681"><ele>461.0</ele><time>2026-03-30T11:02:31.851Z</time></trkpt><trkpt lat="44.2755366" lon="11.3708602"><ele>461.0</ele><time>2026-03-30T11:02:34.861Z</time></trkpt><trkpt lat="44.2754623" lon="11.3708486"><ele>461.0</ele><time>2026-03-30T11:02:37.857Z</time></trkpt><trkpt lat="44.275373" lon="11.3708301"><ele>460.99999999999994</ele><time>2026-03-30T11:02:40.854Z</time></trkpt><trkpt lat="44.2752913" lon="11.3708179"><ele>461.0</ele><time>2026-03-30T11:02:43.866Z</time></trkpt><trkpt lat="44.2752055" lon="11.3707944"><ele>463.28571428571433</ele><time>2026-03-30T11:02:46.859Z</time></trkpt><trkpt lat="44.2751229" lon="11.3707706"><ele>465.5714285714286</ele><time>2026-03-30T11:02:49.847Z</time></trkpt><trkpt lat="44.2750353" lon="11.3707421"><ele>467.8571428571429</ele><time>2026-03-30T11:02:52.858Z</time></trkpt><trkpt lat="44.2749673" lon="11.370726"><ele>470.1428571428571</ele><time>2026-03-30T11:02:54.878Z</time></trkpt><trkpt lat="44.2749029" lon="11.3707018"><ele>472.4285714285714</ele><time>2026-03-30T11:02:56.859Z</time></trkpt><trkpt lat="44.2748408" lon="11.3706704"><ele>474.71428571428567</ele><time>2026-03-30T11:02:58.843Z</time></trkpt><trkpt lat="44.2747809" lon="11.3706208"><ele>477.0</ele><time>2026-03-30T11:03:00.857Z</time></trkpt><trkpt lat="44.274726" lon="11.3705731"><ele>478.3333333333333</ele><time>2026-03-30T11:03:02.851Z</time></trkpt><trkpt lat="44.2746544" lon="11.3704951"><ele>479.66666666666663</ele><time>2026-03-30T11:03:05.86Z</time></trkpt><trkpt lat="44.2745944" lon="11.3703993"><ele>481.0</ele><time>2026-03-30T11:03:08.859Z</time></trkpt><trkpt lat="44.2745552" lon="11.3703278"><ele>482.3333333333333</ele><time>2026-03-30T11:03:10.846Z</time></trkpt><trkpt lat="44.2745" lon="11.3702345"><ele>483.66666666666663</ele><time>2026-03-30T11:03:13.844Z</time></trkpt><trkpt lat="44.274448" lon="11.3701695"><ele>485.0</ele><time>2026-03-30T11:03:16.854Z</time></trkpt><trkpt lat="44.2743917" lon="11.3700841"><ele>485.00000000000006</ele><time>2026-03-30T11:03:19.857Z</time></trkpt><trkpt lat="44.2743429" lon="11.3700205"><ele>485.0</ele><time>2026-03-30T11:03:22.86Z</time></trkpt><trkpt lat="44.2742942" lon="11.3699544"><ele>485.00000000000006</ele><time>2026-03-30T11:03:25.868Z</time></trkpt><trkpt lat="44.274253" lon="11.3698815"><ele>485.00000000000006</ele><time>2026-03-30T11:03:27.859Z</time></trkpt><trkpt lat="44.2741928" lon="11.3697906"><ele>485.0</ele><time>2026-03-30T11:03:30.859Z</time></trkpt><trkpt lat="44.2741339" lon="11.369714"><ele>485.00000000000006</ele><time>2026-03-30T11:03:33.864Z</time></trkpt><trkpt lat="44.2740785" lon="11.3696418"><ele>485.00000000000006</ele><time>2026-03-30T11:03:36.861Z</time></trkpt><trkpt lat="44.2740116" lon="11.3695785"><ele>483.66666666666663</ele><time>2026-03-30T11:03:39.866Z</time></trkpt><trkpt lat="44.2739481" lon="11.3695237"><ele>482.3333333333333</ele><time>2026-03-30T11:03:42.861Z</time></trkpt><trkpt lat="44.2738837" lon="11.3694744"><ele>481.0</ele><time>2026-03-30T11:03:45.864Z</time></trkpt><trkpt lat="44.2738118" lon="11.3694332"><ele>479.66666666666663</ele><time>2026-03-30T11:03:48.856Z</time></trkpt><trkpt lat="44.2737384" lon="11.3694041"><ele>478.3333333333333</ele><time>2026-03-30T11:03:51.865Z</time></trkpt><trkpt lat="44.2736648" lon="11.3693713"><ele>477.0</ele><time>2026-03-30T11:03:54.862Z</time></trkpt><trkpt lat="44.2735949" lon="11.369352"><ele>477.0</ele><time>2026-03-30T11:03:57.862Z</time></trkpt><trkpt lat="44.2735243" lon="11.3693277"><ele>477.0</ele><time>2026-03-30T11:04:00.857Z</time></trkpt><trkpt lat="44.2734524" lon="11.369305"><ele>477.0</ele><time>2026-03-30T11:04:03.859Z</time></trkpt><trkpt lat="44.2733795" lon="11.3692794"><ele>477.0</ele><time>2026-03-30T11:04:06.855Z</time></trkpt><trkpt lat="44.273296" lon="11.3692626"><ele>477.0</ele><time>2026-03-30T11:04:10.858Z</time></trkpt><trkpt lat="44.2732182" lon="11.3692331"><ele>477.0</ele><time>2026-03-30T11:04:13.865Z</time></trkpt><trkpt lat="44.2731471" lon="11.3692089"><ele>481.0</ele><time>2026-03-30T11:04:16.863Z</time></trkpt><trkpt lat="44.2730726" lon="11.3691989"><ele>485.0</ele><time>2026-03-30T11:04:19.865Z</time></trkpt><trkpt lat="44.2729986" lon="11.3691806"><ele>489.0</ele><time>2026-03-30T11:04:22.855Z</time></trkpt><trkpt lat="44.2729158" lon="11.3691527"><ele>493.0</ele><time>2026-03-30T11:04:25.862Z</time></trkpt><trkpt lat="44.2728372" lon="11.36913"><ele>497.0</ele><time>2026-03-30T11:04:28.854Z</time></trkpt><trkpt lat="44.2727612" lon="11.369096"><ele>501.0</ele><time>2026-03-30T11:04:31.877Z</time></trkpt><trkpt lat="44.2726882" lon="11.3690517"><ele>501.0</ele><time>2026-03-30T11:04:34.861Z</time></trkpt><trkpt lat="44.2726306" lon="11.3690017"><ele>501.0</ele><time>2026-03-30T11:04:37.862Z</time></trkpt><trkpt lat="44.272564" lon="11.3689425"><ele>501.0</ele><time>2026-03-30T11:04:40.857Z</time></trkpt><trkpt lat="44.2725008" lon="11.3688605"><ele>501.0</ele><time>2026-03-30T11:04:43.848Z</time></trkpt><trkpt lat="44.2724375" lon="11.3687702"><ele>501.0</ele><time>2026-03-30T11:04:46.859Z</time></trkpt><trkpt lat="44.2723818" lon="11.3686831"><ele>501.0</ele><time>2026-03-30T11:04:49.852Z</time></trkpt><trkpt lat="44.2723341" lon="11.3686192"><ele>503.8333333333333</ele><time>2026-03-30T11:04:51.858Z</time></trkpt><trkpt lat="44.2722703" lon="11.3685317"><ele>506.66666666666663</ele><time>2026-03-30T11:04:54.856Z</time></trkpt><trkpt lat="44.2722069" lon="11.368441"><ele>509.5</ele><time>2026-03-30T11:04:57.858Z</time></trkpt><trkpt lat="44.2721453" lon="11.3683723"><ele>512.3333333333333</ele><time>2026-03-30T11:05:00.859Z</time></trkpt><trkpt lat="44.272079" lon="11.3683031"><ele>515.1666666666666</ele><time>2026-03-30T11:05:03.863Z</time></trkpt><trkpt lat="44.272011" lon="11.3682487"><ele>518.0</ele><time>2026-03-30T11:05:06.862Z</time></trkpt><trkpt lat="44.2719441" lon="11.3682054"><ele>518.0</ele><time>2026-03-30T11:05:09.856Z</time></trkpt><trkpt lat="44.271875" lon="11.3681752"><ele>518.0</ele><time>2026-03-30T11:05:12.864Z</time></trkpt><trkpt lat="44.271804" lon="11.3681496"><ele>518.0</ele><time>2026-03-30T11:05:15.859Z</time></trkpt><trkpt lat="44.271731" lon="11.3681153"><ele>518.0</ele><time>2026-03-30T11:05:18.846Z</time></trkpt><trkpt lat="44.2716614" lon="11.3680789"><ele>518.0</ele><time>2026-03-30T11:05:21.857Z</time></trkpt><trkpt lat="44.2715938" lon="11.3680237"><ele>518.0</ele><time>2026-03-30T11:05:24.858Z</time></trkpt><trkpt lat="44.2715316" lon="11.3679421"><ele>520.0</ele><time>2026-03-30T11:05:27.853Z</time></trkpt><trkpt lat="44.2714817" lon="11.3678704"><ele>522.0</ele><time>2026-03-30T11:05:30.86Z</time></trkpt><trkpt lat="44.2714343" lon="11.367789"><ele>524.0</ele><time>2026-03-30T11:05:33.869Z</time></trkpt><trkpt lat="44.2713897" lon="11.3677048"><ele>526.0</ele><time>2026-03-30T11:05:36.858Z</time></trkpt><trkpt lat="44.2713494" lon="11.3676137"><ele>528.0</ele><time>2026-03-30T11:05:39.858Z</time></trkpt><trkpt lat="44.2713217" lon="11.3675156"><ele>530.0</ele><time>2026-03-30T11:05:42.856Z</time></trkpt><trkpt lat="44.2712871" lon="11.3674035"><ele>530.0</ele><time>2026-03-30T11:05:45.864Z</time></trkpt><trkpt lat="44.2712461" lon="11.3673009"><ele>530.0</ele><time>2026-03-30T11:05:48.85Z</time></trkpt><trkpt lat="44.2712056" lon="11.3672034"><ele>530.0</ele><time>2026-03-30T11:05:51.859Z</time></trkpt><trkpt lat="44.271161" lon="11.3671281"><ele>530.0</ele><time>2026-03-30T11:05:54.861Z</time></trkpt><trkpt lat="44.271117" lon="11.3670567"><ele>530.0</ele><time>2026-03-30T11:05:57.851Z</time></trkpt><trkpt lat="44.2710526" lon="11.366982"><ele>530.0</ele><time>2026-03-30T11:06:01.857Z</time></trkpt><trkpt lat="44.270996" lon="11.3669283"><ele>529.0</ele><time>2026-03-30T11:06:04.856Z</time></trkpt><trkpt lat="44.2709262" lon="11.3668831"><ele>528.0</ele><time>2026-03-30T11:06:07.849Z</time></trkpt><trkpt lat="44.2708457" lon="11.3668384"><ele>527.0</ele><time>2026-03-30T11:06:10.859Z</time></trkpt><trkpt lat="44.2707828" lon="11.3668067"><ele>526.0</ele><time>2026-03-30T11:06:12.859Z</time></trkpt><trkpt lat="44.270706" lon="11.366763"><ele>525.0</ele><time>2026-03-30T11:06:14.859Z</time></trkpt><trkpt lat="44.2706171" lon="11.3666872"><ele>524.0</ele><time>2026-03-30T11:06:16.857Z</time></trkpt><trkpt lat="44.2705348" lon="11.3665664"><ele>524.0</ele><time>2026-03-30T11:06:18.849Z</time></trkpt><trkpt lat="44.2705022" lon="11.3664908"><ele>524.0</ele><time>2026-03-30T11:06:19.853Z</time></trkpt><trkpt lat="44.270476" lon="11.3664057"><ele>524.0</ele><time>2026-03-30T11:06:20.87Z</time></trkpt><trkpt lat="44.2704491" lon="11.3663189"><ele>524.0</ele><time>2026-03-30T11:06:21.856Z</time></trkpt><trkpt lat="44.2704202" lon="11.3662279"><ele>524.0</ele><time>2026-03-30T11:06:22.871Z</time></trkpt><trkpt lat="44.2704021" lon="11.3661182"><ele>524.0</ele><time>2026-03-30T11:06:23.858Z</time></trkpt><trkpt lat="44.2703804" lon="11.3660032"><ele>524.0</ele><time>2026-03-30T11:06:24.865Z</time></trkpt><trkpt lat="44.2703521" lon="11.3658879"><ele>518.8333333333333</ele><time>2026-03-30T11:06:25.865Z</time></trkpt><trkpt lat="44.2703143" lon="11.3657834"><ele>513.6666666666666</ele><time>2026-03-30T11:06:26.858Z</time></trkpt><trkpt lat="44.2702572" lon="11.3656997"><ele>508.5</ele><time>2026-03-30T11:06:27.861Z</time></trkpt><trkpt lat="44.2701841" lon="11.3656447"><ele>503.33333333333337</ele><time>2026-03-30T11:06:28.861Z</time></trkpt><trkpt lat="44.2701001" lon="11.36562"><ele>498.1666666666667</ele><time>2026-03-30T11:06:29.858Z</time></trkpt><trkpt lat="44.2700164" lon="11.3655966"><ele>493.0</ele><time>2026-03-30T11:06:30.858Z</time></trkpt><trkpt lat="44.2699298" lon="11.3656435"><ele>493.0</ele><time>2026-03-30T11:06:31.877Z</time></trkpt><trkpt lat="44.2698518" lon="11.3657075"><ele>492.99999999999994</ele><time>2026-03-30T11:06:32.864Z</time></trkpt><trkpt lat="44.2697748" lon="11.3657851"><ele>492.99999999999994</ele><time>2026-03-30T11:06:33.851Z</time></trkpt><trkpt lat="44.2696983" lon="11.3658684"><ele>493.0</ele><time>2026-03-30T11:06:34.864Z</time></trkpt><trkpt lat="44.2696218" lon="11.3659513"><ele>493.0</ele><time>2026-03-30T11:06:35.866Z</time></trkpt><trkpt lat="44.2695429" lon="11.3660363"><ele>494.0</ele><time>2026-03-30T11:06:36.869Z</time></trkpt><trkpt lat="44.2694645" lon="11.3661163"><ele>494.99999999999994</ele><time>2026-03-30T11:06:37.871Z</time></trkpt><trkpt lat="44.269382" lon="11.3661963"><ele>495.99999999999994</ele><time>2026-03-30T11:06:38.875Z</time></trkpt><trkpt lat="44.2692983" lon="11.3662768"><ele>497.0</ele><time>2026-03-30T11:06:39.866Z</time></trkpt><trkpt lat="44.2692082" lon="11.3663536"><ele>498.0</ele><time>2026-03-30T11:06:40.862Z</time></trkpt><trkpt lat="44.2691103" lon="11.3664173"><ele>498.0</ele><time>2026-03-30T11:06:41.861Z</time></trkpt><trkpt lat="44.2690133" lon="11.366482"><ele>497.99999999999994</ele><time>2026-03-30T11:06:42.863Z</time></trkpt><trkpt lat="44.2689156" lon="11.3665321"><ele>497.99999999999994</ele><time>2026-03-30T11:06:43.852Z</time></trkpt><trkpt lat="44.2688205" lon="11.3665958"><ele>498.0</ele><time>2026-03-30T11:06:44.858Z</time></trkpt><trkpt lat="44.2687464" lon="11.3666807"><ele>498.0</ele><time>2026-03-30T11:06:45.878Z</time></trkpt><trkpt lat="44.2686758" lon="11.3667754"><ele>497.2</ele><time>2026-03-30T11:06:46.861Z</time></trkpt><trkpt lat="44.2686124" lon="11.3668885"><ele>496.4</ele><time>2026-03-30T11:06:47.865Z</time></trkpt><trkpt lat="44.2685347" lon="11.3669998"><ele>495.59999999999997</ele><time>2026-03-30T11:06:48.872Z</time></trkpt><trkpt lat="44.268442" lon="11.367085"><ele>494.79999999999995</ele><time>2026-03-30T11:06:49.851Z</time></trkpt><trkpt lat="44.2683458" lon="11.3671654"><ele>494.0</ele><time>2026-03-30T11:06:50.868Z</time></trkpt><trkpt lat="44.2682452" lon="11.3672421"><ele>494.0</ele><time>2026-03-30T11:06:51.855Z</time></trkpt><trkpt lat="44.2681446" lon="11.3673166"><ele>494.0</ele><time>2026-03-30T11:06:52.856Z</time></trkpt><trkpt lat="44.2680439" lon="11.3673897"><ele>494.0</ele><time>2026-03-30T11:06:53.86Z</time></trkpt><trkpt lat="44.2679441" lon="11.3674615"><ele>494.0</ele><time>2026-03-30T11:06:54.854Z</time></trkpt><trkpt lat="44.2678446" lon="11.3675355"><ele>490.0</ele><time>2026-03-30T11:06:55.86Z</time></trkpt><trkpt lat="44.2677443" lon="11.3676079"><ele>486.0</ele><time>2026-03-30T11:06:56.868Z</time></trkpt><trkpt lat="44.2676429" lon="11.3676772"><ele>482.0</ele><time>2026-03-30T11:06:57.859Z</time></trkpt><trkpt lat="44.2675393" lon="11.3677478"><ele>478.0</ele><time>2026-03-30T11:06:58.861Z</time></trkpt><trkpt lat="44.2674299" lon="11.367799"><ele>478.0</ele><time>2026-03-30T11:06:59.867Z</time></trkpt><trkpt lat="44.2673215" lon="11.3678521"><ele>478.0</ele><time>2026-03-30T11:07:00.863Z</time></trkpt><trkpt lat="44.2672081" lon="11.36789"><ele>478.0</ele><time>2026-03-30T11:07:01.858Z</time></trkpt><trkpt lat="44.2670945" lon="11.3679261"><ele>478.0</ele><time>2026-03-30T11:07:02.862Z</time></trkpt><trkpt lat="44.2669908" lon="11.3679431"><ele>479.00000000000006</ele><time>2026-03-30T11:07:03.868Z</time></trkpt><trkpt lat="44.266892" lon="11.3679598"><ele>480.0</ele><time>2026-03-30T11:07:04.858Z</time></trkpt><trkpt lat="44.2667994" lon="11.3679824"><ele>481.0</ele><time>2026-03-30T11:07:05.856Z</time></trkpt><trkpt lat="44.2667159" lon="11.3680141"><ele>482.0</ele><time>2026-03-30T11:07:06.856Z</time></trkpt><trkpt lat="44.266639" lon="11.3680533"><ele>483.00000000000006</ele><time>2026-03-30T11:07:07.864Z</time></trkpt><trkpt lat="44.2665652" lon="11.3680957"><ele>484.0</ele><time>2026-03-30T11:07:08.869Z</time></trkpt><trkpt lat="44.2664968" lon="11.3681418"><ele>484.4285714285714</ele><time>2026-03-30T11:07:09.851Z</time></trkpt><trkpt lat="44.266431" lon="11.3681873"><ele>484.8571428571428</ele><time>2026-03-30T11:07:10.864Z</time></trkpt><trkpt lat="44.2663683" lon="11.3682344"><ele>485.2857142857143</ele><time>2026-03-30T11:07:11.861Z</time></trkpt><trkpt lat="44.2663057" lon="11.368278"><ele>485.71428571428567</ele><time>2026-03-30T11:07:12.86Z</time></trkpt><trkpt lat="44.2662465" lon="11.3683205"><ele>486.1428571428571</ele><time>2026-03-30T11:07:13.86Z</time></trkpt><trkpt lat="44.2661842" lon="11.3683581"><ele>486.57142857142856</ele><time>2026-03-30T11:07:14.851Z</time></trkpt><trkpt lat="44.2661233" lon="11.3683953"><ele>487.0</ele><time>2026-03-30T11:07:15.869Z</time></trkpt><trkpt lat="44.2660645" lon="11.3684353"><ele>487.00000000000006</ele><time>2026-03-30T11:07:16.86Z</time></trkpt><trkpt lat="44.2660067" lon="11.3684748"><ele>487.0</ele><time>2026-03-30T11:07:17.866Z</time></trkpt><trkpt lat="44.2658905" lon="11.368551"><ele>487.0</ele><time>2026-03-30T11:07:19.857Z</time></trkpt><trkpt lat="44.2658323" lon="11.3685922"><ele>487.0</ele><time>2026-03-30T11:07:20.865Z</time></trkpt><trkpt lat="44.2657253" lon="11.3686702"><ele>487.00000000000006</ele><time>2026-03-30T11:07:22.855Z</time></trkpt><trkpt lat="44.2656672" lon="11.3687047"><ele>487.0</ele><time>2026-03-30T11:07:23.863Z</time></trkpt><trkpt lat="44.2655579" lon="11.3687741"><ele>485.40000000000003</ele><time>2026-03-30T11:07:25.857Z</time></trkpt><trkpt lat="44.2654465" lon="11.368836"><ele>483.80000000000007</ele><time>2026-03-30T11:07:27.859Z</time></trkpt><trkpt lat="44.265338" lon="11.3688816"><ele>482.2</ele><time>2026-03-30T11:07:29.864Z</time></trkpt><trkpt lat="44.2652319" lon="11.3689057"><ele>480.6</ele><time>2026-03-30T11:07:31.865Z</time></trkpt><trkpt lat="44.2651287" lon="11.3689144"><ele>479.0</ele><time>2026-03-30T11:07:33.866Z</time></trkpt><trkpt lat="44.2650294" lon="11.3689095"><ele>479.0</ele><time>2026-03-30T11:07:35.868Z</time></trkpt><trkpt lat="44.264932" lon="11.3688816"><ele>479.0</ele><time>2026-03-30T11:07:37.859Z</time></trkpt><trkpt lat="44.264838" lon="11.3688546"><ele>479.0</ele><time>2026-03-30T11:07:39.875Z</time></trkpt><trkpt lat="44.2647411" lon="11.3688218"><ele>479.0</ele><time>2026-03-30T11:07:41.878Z</time></trkpt><trkpt lat="44.264657" lon="11.3687935"><ele>479.0</ele><time>2026-03-30T11:07:43.877Z</time></trkpt><trkpt lat="44.2645739" lon="11.368759"><ele>480.16666666666663</ele><time>2026-03-30T11:07:45.862Z</time></trkpt><trkpt lat="44.2644934" lon="11.3687253"><ele>481.3333333333333</ele><time>2026-03-30T11:07:47.86Z</time></trkpt><trkpt lat="44.2644146" lon="11.3686921"><ele>482.5</ele><time>2026-03-30T11:07:49.854Z</time></trkpt><trkpt lat="44.2643395" lon="11.3686652"><ele>483.66666666666663</ele><time>2026-03-30T11:07:51.863Z</time></trkpt><trkpt lat="44.2642642" lon="11.3686368"><ele>484.8333333333333</ele><time>2026-03-30T11:07:53.856Z</time></trkpt><trkpt lat="44.2641882" lon="11.36861"><ele>486.0</ele><time>2026-03-30T11:07:55.862Z</time></trkpt><trkpt lat="44.2641158" lon="11.3685779"><ele>486.0</ele><time>2026-03-30T11:07:57.862Z</time></trkpt><trkpt lat="44.2640415" lon="11.3685518"><ele>486.0</ele><time>2026-03-30T11:07:59.866Z</time></trkpt><trkpt lat="44.2639684" lon="11.3685331"><ele>486.0</ele><time>2026-03-30T11:08:01.868Z</time></trkpt><trkpt lat="44.2638995" lon="11.3685075"><ele>486.0</ele><time>2026-03-30T11:08:03.859Z</time></trkpt><trkpt lat="44.2638326" lon="11.3684792"><ele>486.0</ele><time>2026-03-30T11:08:05.868Z</time></trkpt><trkpt lat="44.263766" lon="11.3684561"><ele>486.0</ele><time>2026-03-30T11:08:07.866Z</time></trkpt><trkpt lat="44.2636985" lon="11.3684313"><ele>486.0</ele><time>2026-03-30T11:08:09.862Z</time></trkpt><trkpt lat="44.26363" lon="11.3684091"><ele>485.71428571428567</ele><time>2026-03-30T11:08:11.855Z</time></trkpt><trkpt lat="44.2635378" lon="11.3683792"><ele>485.42857142857144</ele><time>2026-03-30T11:08:14.862Z</time></trkpt><trkpt lat="44.2634752" lon="11.3683527"><ele>485.1428571428571</ele><time>2026-03-30T11:08:16.849Z</time></trkpt><trkpt lat="44.2634142" lon="11.3683285"><ele>484.85714285714283</ele><time>2026-03-30T11:08:18.854Z</time></trkpt><trkpt lat="44.2633242" lon="11.3682999"><ele>484.57142857142856</ele><time>2026-03-30T11:08:21.861Z</time></trkpt><trkpt lat="44.2632641" lon="11.3682717"><ele>484.2857142857143</ele><time>2026-03-30T11:08:23.863Z</time></trkpt><trkpt lat="44.2632016" lon="11.3682453"><ele>484.0</ele><time>2026-03-30T11:08:25.861Z</time></trkpt><trkpt lat="44.2631352" lon="11.3682171"><ele>483.85714285714283</ele><time>2026-03-30T11:08:27.853Z</time></trkpt><trkpt lat="44.2630486" lon="11.3681718"><ele>483.71428571428567</ele><time>2026-03-30T11:08:30.856Z</time></trkpt><trkpt lat="44.2629835" lon="11.3681288"><ele>483.57142857142856</ele><time>2026-03-30T11:08:32.864Z</time></trkpt><trkpt lat="44.26292" lon="11.3680836"><ele>483.42857142857144</ele><time>2026-03-30T11:08:34.86Z</time></trkpt><trkpt lat="44.2628565" lon="11.3680316"><ele>483.2857142857143</ele><time>2026-03-30T11:08:36.858Z</time></trkpt><trkpt lat="44.2627987" lon="11.3679882"><ele>483.1428571428571</ele><time>2026-03-30T11:08:38.864Z</time></trkpt><trkpt lat="44.2627367" lon="11.3679315"><ele>483.0</ele><time>2026-03-30T11:08:40.863Z</time></trkpt><trkpt lat="44.262678" lon="11.3678791"><ele>484.1666666666667</ele><time>2026-03-30T11:08:42.867Z</time></trkpt><trkpt lat="44.2626201" lon="11.3678202"><ele>485.33333333333337</ele><time>2026-03-30T11:08:44.855Z</time></trkpt><trkpt lat="44.2625601" lon="11.3677494"><ele>486.5</ele><time>2026-03-30T11:08:46.866Z</time></trkpt><trkpt lat="44.2624992" lon="11.3676721"><ele>487.6666666666667</ele><time>2026-03-30T11:08:48.86Z</time></trkpt><trkpt lat="44.2624384" lon="11.3675924"><ele>488.83333333333337</ele><time>2026-03-30T11:08:50.853Z</time></trkpt><trkpt lat="44.2623782" lon="11.3675113"><ele>490.0</ele><time>2026-03-30T11:08:52.855Z</time></trkpt><trkpt lat="44.2623171" lon="11.3674264"><ele>490.1666666666667</ele><time>2026-03-30T11:08:54.866Z</time></trkpt><trkpt lat="44.2622537" lon="11.3673443"><ele>490.33333333333337</ele><time>2026-03-30T11:08:56.865Z</time></trkpt><trkpt lat="44.2621933" lon="11.3672605"><ele>490.5</ele><time>2026-03-30T11:08:58.852Z</time></trkpt><trkpt lat="44.262131" lon="11.3671786"><ele>490.66666666666663</ele><time>2026-03-30T11:09:00.845Z</time></trkpt><trkpt lat="44.2620647" lon="11.3670908"><ele>490.8333333333333</ele><time>2026-03-30T11:09:02.857Z</time></trkpt><trkpt lat="44.2619956" lon="11.3669997"><ele>491.0</ele><time>2026-03-30T11:09:04.862Z</time></trkpt><trkpt lat="44.2619248" lon="11.3669101"><ele>490.99999999999994</ele><time>2026-03-30T11:09:06.863Z</time></trkpt><trkpt lat="44.2618502" lon="11.3668316"><ele>491.0</ele><time>2026-03-30T11:09:08.879Z</time></trkpt><trkpt lat="44.2617858" lon="11.3667414"><ele>491.0</ele><time>2026-03-30T11:09:10.87Z</time></trkpt><trkpt lat="44.2617227" lon="11.3666538"><ele>491.0</ele><time>2026-03-30T11:09:12.858Z</time></trkpt><trkpt lat="44.261656" lon="11.3665718"><ele>490.99999999999994</ele><time>2026-03-30T11:09:14.865Z</time></trkpt><trkpt lat="44.2615978" lon="11.3664893"><ele>491.0</ele><time>2026-03-30T11:09:16.87Z</time></trkpt><trkpt lat="44.2615402" lon="11.3664143"><ele>490.99999999999994</ele><time>2026-03-30T11:09:18.854Z</time></trkpt><trkpt lat="44.2614814" lon="11.3663714"><ele>491.0</ele><time>2026-03-30T11:09:20.861Z</time></trkpt><trkpt lat="44.2613976" lon="11.366387"><ele>491.0</ele><time>2026-03-30T11:09:23.859Z</time></trkpt><trkpt lat="44.2613249" lon="11.3664242"><ele>491.0</ele><time>2026-03-30T11:09:26.86Z</time></trkpt><trkpt lat="44.261276" lon="11.3663239"><ele>490.99999999999994</ele><time>2026-03-30T11:09:29.859Z</time></trkpt><trkpt lat="44.2612677" lon="11.3661988"><ele>491.0</ele><time>2026-03-30T11:09:31.86Z</time></trkpt><trkpt lat="44.2612863" lon="11.3660802"><ele>490.8333333333333</ele><time>2026-03-30T11:09:33.857Z</time></trkpt><trkpt lat="44.2612844" lon="11.3659789"><ele>490.66666666666663</ele><time>2026-03-30T11:09:35.865Z</time></trkpt><trkpt lat="44.2612678" lon="11.3658481"><ele>490.5</ele><time>2026-03-30T11:09:38.872Z</time></trkpt><trkpt lat="44.2612653" lon="11.3657515"><ele>490.33333333333337</ele><time>2026-03-30T11:09:40.844Z</time></trkpt><trkpt lat="44.261254" lon="11.3656577"><ele>490.1666666666667</ele><time>2026-03-30T11:09:42.861Z</time></trkpt><trkpt lat="44.2612345" lon="11.3655577"><ele>490.0</ele><time>2026-03-30T11:09:45.862Z</time></trkpt><trkpt lat="44.261194" lon="11.3654749"><ele>490.00000000000006</ele><time>2026-03-30T11:09:49.864Z</time></trkpt><trkpt lat="44.2612585" lon="11.3655111"><ele>490.0</ele><time>2026-03-30T11:10:14.856Z</time></trkpt><trkpt lat="44.2612806" lon="11.3656182"><ele>490.0</ele><time>2026-03-30T11:10:19.853Z</time></trkpt><trkpt lat="44.2612956" lon="11.3657136"><ele>490.0</ele><time>2026-03-30T11:10:22.856Z</time></trkpt><trkpt lat="44.2612773" lon="11.3658298"><ele>490.00000000000006</ele><time>2026-03-30T11:10:25.858Z</time></trkpt><trkpt lat="44.2612515" lon="11.365946"><ele>490.0</ele><time>2026-03-30T11:10:28.868Z</time></trkpt><trkpt lat="44.2612347" lon="11.3660606"><ele>491.00000000000006</ele><time>2026-03-30T11:10:31.858Z</time></trkpt><trkpt lat="44.2612222" lon="11.3661744"><ele>492.0</ele><time>2026-03-30T11:10:34.868Z</time></trkpt><trkpt lat="44.26119" lon="11.3662966"><ele>493.0</ele><time>2026-03-30T11:10:37.858Z</time></trkpt><trkpt lat="44.261186" lon="11.3664143"><ele>494.0</ele><time>2026-03-30T11:10:40.857Z</time></trkpt><trkpt lat="44.2611588" lon="11.3665062"><ele>495.00000000000006</ele><time>2026-03-30T11:10:43.867Z</time></trkpt><trkpt lat="44.2611238" lon="11.3665973"><ele>496.0</ele><time>2026-03-30T11:10:47.852Z</time></trkpt><trkpt lat="44.2611481" lon="11.3664922"><ele>496.00000000000006</ele><time>2026-03-30T11:12:21.867Z</time></trkpt><trkpt lat="44.261176" lon="11.3663868"><ele>496.0</ele><time>2026-03-30T11:12:24.858Z</time></trkpt><trkpt lat="44.2611892" lon="11.366296"><ele>496.0</ele><time>2026-03-30T11:12:27.859Z</time></trkpt><trkpt lat="44.261211" lon="11.3661957"><ele>496.0</ele><time>2026-03-30T11:12:30.861Z</time></trkpt><trkpt lat="44.2612019" lon="11.3660736"><ele>496.00000000000006</ele><time>2026-03-30T11:12:33.861Z</time></trkpt><trkpt lat="44.261193" lon="11.3659724"><ele>496.0</ele><time>2026-03-30T11:12:36.862Z</time></trkpt><trkpt lat="44.2611687" lon="11.3658786"><ele>496.0</ele><time>2026-03-30T11:12:40.88Z</time></trkpt><trkpt lat="44.2611268" lon="11.3658115"><ele>496.00000000000006</ele><time>2026-03-30T11:12:49.873Z</time></trkpt><trkpt lat="44.2611497" lon="11.3657231"><ele>496.0</ele><time>2026-03-30T11:12:55.856Z</time></trkpt><trkpt lat="44.2611716" lon="11.3656347"><ele>496.0</ele><time>2026-03-30T11:22:51.868Z</time></trkpt><trkpt lat="44.2611568" lon="11.3657447"><ele>496.00000000000006</ele><time>2026-03-30T11:23:40.874Z</time></trkpt><trkpt lat="44.2611964" lon="11.3658245"><ele>496.0</ele><time>2026-03-30T11:23:41.863Z</time></trkpt><trkpt lat="44.2612311" lon="11.3658982"><ele>496.0</ele><time>2026-03-30T11:23:45.867Z</time></trkpt><trkpt lat="44.2612577" lon="11.3660102"><ele>496.00000000000006</ele><time>2026-03-30T11:23:49.862Z</time></trkpt><trkpt lat="44.2612835" lon="11.366107"><ele>496.0</ele><time>2026-03-30T11:23:52.866Z</time></trkpt><trkpt lat="44.2613083" lon="11.3662132"><ele>496.0</ele><time>2026-03-30T11:23:55.868Z</time></trkpt><trkpt lat="44.2613401" lon="11.3663189"><ele>496.0</ele><time>2026-03-30T11:23:58.88Z</time></trkpt><trkpt lat="44.2613471" lon="11.3664531"><ele>496.00000000000006</ele><time>2026-03-30T11:24:01.863Z</time></trkpt><trkpt lat="44.2613157" lon="11.3665397"><ele>496.0</ele><time>2026-03-30T11:24:03.859Z</time></trkpt><trkpt lat="44.26127" lon="11.3666077"><ele>496.14285714285717</ele><time>2026-03-30T11:24:05.869Z</time></trkpt><trkpt lat="44.2612212" lon="11.3666718"><ele>496.28571428571433</ele><time>2026-03-30T11:24:07.861Z</time></trkpt><trkpt lat="44.2611718" lon="11.3667401"><ele>496.42857142857144</ele><time>2026-03-30T11:24:09.862Z</time></trkpt><trkpt lat="44.261123" lon="11.3668018"><ele>496.57142857142856</ele><time>2026-03-30T11:24:11.867Z</time></trkpt><trkpt lat="44.2610756" lon="11.3668657"><ele>496.7142857142857</ele><time>2026-03-30T11:24:13.861Z</time></trkpt><trkpt lat="44.2610275" lon="11.3669324"><ele>496.8571428571429</ele><time>2026-03-30T11:24:15.867Z</time></trkpt><trkpt lat="44.2609757" lon="11.3669945"><ele>497.0</ele><time>2026-03-30T11:24:17.871Z</time></trkpt><trkpt lat="44.2609283" lon="11.3670548"><ele>496.99999999999994</ele><time>2026-03-30T11:24:19.869Z</time></trkpt><trkpt lat="44.2608665" lon="11.367139"><ele>497.0</ele><time>2026-03-30T11:24:22.868Z</time></trkpt><trkpt lat="44.260804" lon="11.3672121"><ele>497.0</ele><time>2026-03-30T11:24:25.862Z</time></trkpt><trkpt lat="44.2607295" lon="11.3672737"><ele>497.0</ele><time>2026-03-30T11:24:28.861Z</time></trkpt><trkpt lat="44.2606399" lon="11.3673204"><ele>496.99999999999994</ele><time>2026-03-30T11:24:31.851Z</time></trkpt><trkpt lat="44.2605586" lon="11.3673303"><ele>497.0</ele><time>2026-03-30T11:24:33.861Z</time></trkpt><trkpt lat="44.2604536" lon="11.3673103"><ele>496.40000000000003</ele><time>2026-03-30T11:24:35.872Z</time></trkpt><trkpt lat="44.2603273" lon="11.3672679"><ele>495.80000000000007</ele><time>2026-03-30T11:24:37.874Z</time></trkpt><trkpt lat="44.2602567" lon="11.3672322"><ele>495.2</ele><time>2026-03-30T11:24:38.859Z</time></trkpt><trkpt lat="44.2601837" lon="11.3671951"><ele>494.6</ele><time>2026-03-30T11:24:39.849Z</time></trkpt><trkpt lat="44.2601034" lon="11.367157"><ele>494.0</ele><time>2026-03-30T11:24:40.863Z</time></trkpt><trkpt lat="44.2600177" lon="11.3671172"><ele>493.99999999999994</ele><time>2026-03-30T11:24:41.852Z</time></trkpt><trkpt lat="44.2599313" lon="11.3670765"><ele>494.0</ele><time>2026-03-30T11:24:42.873Z</time></trkpt><trkpt lat="44.25985" lon="11.3670381"><ele>494.0</ele><time>2026-03-30T11:24:43.866Z</time></trkpt><trkpt lat="44.2597693" lon="11.3669994"><ele>494.0</ele><time>2026-03-30T11:24:44.868Z</time></trkpt><trkpt lat="44.2596829" lon="11.3669653"><ele>493.99999999999994</ele><time>2026-03-30T11:24:45.871Z</time></trkpt><trkpt lat="44.2596008" lon="11.3669398"><ele>494.0</ele><time>2026-03-30T11:24:46.872Z</time></trkpt><trkpt lat="44.2595213" lon="11.3669198"><ele>491.3333333333333</ele><time>2026-03-30T11:24:47.862Z</time></trkpt><trkpt lat="44.2594384" lon="11.3669049"><ele>488.66666666666663</ele><time>2026-03-30T11:24:48.87Z</time></trkpt><trkpt lat="44.2593532" lon="11.3668931"><ele>486.0</ele><time>2026-03-30T11:24:49.872Z</time></trkpt><trkpt lat="44.2592679" lon="11.3668845"><ele>483.33333333333337</ele><time>2026-03-30T11:24:50.865Z</time></trkpt><trkpt lat="44.2591826" lon="11.3668799"><ele>480.6666666666667</ele><time>2026-03-30T11:24:51.881Z</time></trkpt><trkpt lat="44.2590975" lon="11.366877"><ele>478.0</ele><time>2026-03-30T11:24:52.875Z</time></trkpt><trkpt lat="44.2590132" lon="11.3668723"><ele>477.50000000000006</ele><time>2026-03-30T11:24:53.861Z</time></trkpt><trkpt lat="44.2589286" lon="11.3668716"><ele>477.0</ele><time>2026-03-30T11:24:54.871Z</time></trkpt><trkpt lat="44.2588435" lon="11.3668727"><ele>476.5</ele><time>2026-03-30T11:24:55.869Z</time></trkpt><trkpt lat="44.2587596" lon="11.366875"><ele>476.0</ele><time>2026-03-30T11:24:56.864Z</time></trkpt><trkpt lat="44.2586733" lon="11.3668801"><ele>475.50000000000006</ele><time>2026-03-30T11:24:57.862Z</time></trkpt><trkpt lat="44.2585839" lon="11.3668879"><ele>475.0</ele><time>2026-03-30T11:24:58.858Z</time></trkpt><trkpt lat="44.258494" lon="11.3669015"><ele>475.0</ele><time>2026-03-30T11:24:59.871Z</time></trkpt><trkpt lat="44.2584063" lon="11.3669197"><ele>475.0</ele><time>2026-03-30T11:25:00.865Z</time></trkpt><trkpt lat="44.2583179" lon="11.3669405"><ele>475.0</ele><time>2026-03-30T11:25:01.86Z</time></trkpt><trkpt lat="44.2582274" lon="11.3669652"><ele>475.0</ele><time>2026-03-30T11:25:02.87Z</time></trkpt><trkpt lat="44.2581358" lon="11.3669969"><ele>475.0</ele><time>2026-03-30T11:25:03.868Z</time></trkpt><trkpt lat="44.2580435" lon="11.3670287"><ele>474.2</ele><time>2026-03-30T11:25:04.861Z</time></trkpt><trkpt lat="44.2579512" lon="11.3670668"><ele>473.4</ele><time>2026-03-30T11:25:05.866Z</time></trkpt><trkpt lat="44.2578616" lon="11.3671174"><ele>472.6</ele><time>2026-03-30T11:25:06.871Z</time></trkpt><trkpt lat="44.2577743" lon="11.3671714"><ele>471.8</ele><time>2026-03-30T11:25:07.868Z</time></trkpt><trkpt lat="44.2576889" lon="11.3672269"><ele>471.0</ele><time>2026-03-30T11:25:08.872Z</time></trkpt><trkpt lat="44.257605" lon="11.3672881"><ele>471.20000000000005</ele><time>2026-03-30T11:25:09.874Z</time></trkpt><trkpt lat="44.2575218" lon="11.3673601"><ele>471.40000000000003</ele><time>2026-03-30T11:25:10.868Z</time></trkpt><trkpt lat="44.2574387" lon="11.3674398"><ele>471.6</ele><time>2026-03-30T11:25:11.881Z</time></trkpt><trkpt lat="44.2573601" lon="11.3675252"><ele>471.8</ele><time>2026-03-30T11:25:12.879Z</time></trkpt><trkpt lat="44.2572892" lon="11.3676201"><ele>472.0</ele><time>2026-03-30T11:25:13.872Z</time></trkpt><trkpt lat="44.2572215" lon="11.3677173"><ele>472.0</ele><time>2026-03-30T11:25:14.872Z</time></trkpt><trkpt lat="44.2571521" lon="11.3678102"><ele>472.00000000000006</ele><time>2026-03-30T11:25:15.862Z</time></trkpt><trkpt lat="44.2570764" lon="11.3678869"><ele>472.00000000000006</ele><time>2026-03-30T11:25:16.872Z</time></trkpt><trkpt lat="44.2570015" lon="11.3679575"><ele>472.0</ele><time>2026-03-30T11:25:17.865Z</time></trkpt><trkpt lat="44.2569282" lon="11.3680286"><ele>472.0</ele><time>2026-03-30T11:25:18.86Z</time></trkpt><trkpt lat="44.2568578" lon="11.368101"><ele>468.6</ele><time>2026-03-30T11:25:19.869Z</time></trkpt><trkpt lat="44.2567876" lon="11.3681737"><ele>465.20000000000005</ele><time>2026-03-30T11:25:20.87Z</time></trkpt><trkpt lat="44.256717" lon="11.3682488"><ele>461.8</ele><time>2026-03-30T11:25:21.873Z</time></trkpt><trkpt lat="44.2566403" lon="11.3683241"><ele>458.4</ele><time>2026-03-30T11:25:22.873Z</time></trkpt><trkpt lat="44.2565609" lon="11.3683973"><ele>455.0</ele><time>2026-03-30T11:25:23.868Z</time></trkpt><trkpt lat="44.2564786" lon="11.3684726"><ele>454.4</ele><time>2026-03-30T11:25:24.852Z</time></trkpt><trkpt lat="44.2563988" lon="11.3685479"><ele>453.8</ele><time>2026-03-30T11:25:25.874Z</time></trkpt><trkpt lat="44.2563187" lon="11.3686265"><ele>453.20000000000005</ele><time>2026-03-30T11:25:26.847Z</time></trkpt><trkpt lat="44.2562356" lon="11.3687089"><ele>452.6</ele><time>2026-03-30T11:25:27.872Z</time></trkpt><trkpt lat="44.2561491" lon="11.3687913"><ele>452.0</ele><time>2026-03-30T11:25:28.863Z</time></trkpt><trkpt lat="44.2560646" lon="11.3688686"><ele>450.3333333333333</ele><time>2026-03-30T11:25:29.863Z</time></trkpt><trkpt lat="44.2559825" lon="11.3689432"><ele>448.66666666666663</ele><time>2026-03-30T11:25:30.859Z</time></trkpt><trkpt lat="44.2559042" lon="11.3690156"><ele>447.0</ele><time>2026-03-30T11:25:31.868Z</time></trkpt><trkpt lat="44.2558333" lon="11.3690897"><ele>445.33333333333337</ele><time>2026-03-30T11:25:32.867Z</time></trkpt><trkpt lat="44.2557727" lon="11.3691722"><ele>443.6666666666667</ele><time>2026-03-30T11:25:33.864Z</time></trkpt><trkpt lat="44.2557221" lon="11.3692665"><ele>442.0</ele><time>2026-03-30T11:25:34.865Z</time></trkpt><trkpt lat="44.2556798" lon="11.3693754"><ele>442.00000000000006</ele><time>2026-03-30T11:25:35.865Z</time></trkpt><trkpt lat="44.2556478" lon="11.369495"><ele>442.0</ele><time>2026-03-30T11:25:36.868Z</time></trkpt><trkpt lat="44.2556295" lon="11.3696145"><ele>442.0</ele><time>2026-03-30T11:25:37.863Z</time></trkpt><trkpt lat="44.2556253" lon="11.3697256"><ele>442.0</ele><time>2026-03-30T11:25:38.863Z</time></trkpt><trkpt lat="44.2556259" lon="11.3698318"><ele>442.00000000000006</ele><time>2026-03-30T11:25:39.86Z</time></trkpt><trkpt lat="44.255627" lon="11.3699366"><ele>442.0</ele><time>2026-03-30T11:25:40.869Z</time></trkpt><trkpt lat="44.2556147" lon="11.3700417"><ele>439.5714285714286</ele><time>2026-03-30T11:25:41.863Z</time></trkpt><trkpt lat="44.2555836" lon="11.3701312"><ele>437.14285714285717</ele><time>2026-03-30T11:25:42.866Z</time></trkpt><trkpt lat="44.2555309" lon="11.3701953"><ele>434.7142857142857</ele><time>2026-03-30T11:25:43.864Z</time></trkpt><trkpt lat="44.2554622" lon="11.3702153"><ele>432.28571428571433</ele><time>2026-03-30T11:25:44.86Z</time></trkpt><trkpt lat="44.2553947" lon="11.3701832"><ele>429.85714285714283</ele><time>2026-03-30T11:25:45.857Z</time></trkpt><trkpt lat="44.2553408" lon="11.3701091"><ele>427.42857142857144</ele><time>2026-03-30T11:25:46.863Z</time></trkpt><trkpt lat="44.2552959" lon="11.3700122"><ele>425.0</ele><time>2026-03-30T11:25:47.868Z</time></trkpt><trkpt lat="44.2552513" lon="11.3699051"><ele>424.99999999999994</ele><time>2026-03-30T11:25:48.859Z</time></trkpt><trkpt lat="44.2551974" lon="11.3697996"><ele>425.0</ele><time>2026-03-30T11:25:49.865Z</time></trkpt><trkpt lat="44.2551226" lon="11.3697419"><ele>425.0</ele><time>2026-03-30T11:25:50.868Z</time></trkpt><trkpt lat="44.2550391" lon="11.3697267"><ele>425.0</ele><time>2026-03-30T11:25:51.866Z</time></trkpt><trkpt lat="44.2549605" lon="11.3697542"><ele>424.99999999999994</ele><time>2026-03-30T11:25:52.871Z</time></trkpt><trkpt lat="44.254897" lon="11.3698211"><ele>425.0</ele><time>2026-03-30T11:25:53.867Z</time></trkpt><trkpt lat="44.25486" lon="11.3699188"><ele>424.99999999999994</ele><time>2026-03-30T11:25:54.867Z</time></trkpt><trkpt lat="44.2548569" lon="11.3700267"><ele>425.0</ele><time>2026-03-30T11:25:55.871Z</time></trkpt><trkpt lat="44.2548755" lon="11.3701331"><ele>425.0</ele><time>2026-03-30T11:25:56.862Z</time></trkpt><trkpt lat="44.2548939" lon="11.3702233"><ele>425.0</ele><time>2026-03-30T11:25:57.862Z</time></trkpt><trkpt lat="44.2549425" lon="11.3703177"><ele>424.99999999999994</ele><time>2026-03-30T11:25:58.867Z</time></trkpt><trkpt lat="44.2549954" lon="11.370408"><ele>425.0</ele><time>2026-03-30T11:25:59.866Z</time></trkpt><trkpt lat="44.2550453" lon="11.3704969"><ele>422.99999999999994</ele><time>2026-03-30T11:26:00.87Z</time></trkpt><trkpt lat="44.2551006" lon="11.3705849"><ele>421.0</ele><time>2026-03-30T11:26:01.866Z</time></trkpt><trkpt lat="44.2551634" lon="11.3706618"><ele>419.0</ele><time>2026-03-30T11:26:02.873Z</time></trkpt><trkpt lat="44.2552285" lon="11.3707339"><ele>417.0</ele><time>2026-03-30T11:26:03.865Z</time></trkpt><trkpt lat="44.2552983" lon="11.3708051"><ele>414.99999999999994</ele><time>2026-03-30T11:26:04.866Z</time></trkpt><trkpt lat="44.2553707" lon="11.3708781"><ele>413.0</ele><time>2026-03-30T11:26:05.871Z</time></trkpt><trkpt lat="44.2554452" lon="11.3709544"><ele>412.99999999999994</ele><time>2026-03-30T11:26:06.869Z</time></trkpt><trkpt lat="44.2555184" lon="11.3710312"><ele>413.0</ele><time>2026-03-30T11:26:07.865Z</time></trkpt><trkpt lat="44.25559" lon="11.3711035"><ele>413.0</ele><time>2026-03-30T11:26:08.869Z</time></trkpt><trkpt lat="44.2556623" lon="11.3711749"><ele>413.0</ele><time>2026-03-30T11:26:09.868Z</time></trkpt><trkpt lat="44.2557324" lon="11.3712438"><ele>412.99999999999994</ele><time>2026-03-30T11:26:10.872Z</time></trkpt><trkpt lat="44.2558028" lon="11.3713112"><ele>413.0</ele><time>2026-03-30T11:26:11.857Z</time></trkpt><trkpt lat="44.2558694" lon="11.3713773"><ele>412.14285714285717</ele><time>2026-03-30T11:26:12.855Z</time></trkpt><trkpt lat="44.2559327" lon="11.3714452"><ele>411.2857142857143</ele><time>2026-03-30T11:26:13.873Z</time></trkpt><trkpt lat="44.2559926" lon="11.3715108"><ele>410.42857142857144</ele><time>2026-03-30T11:26:14.872Z</time></trkpt><trkpt lat="44.2560384" lon="11.3715876"><ele>409.57142857142856</ele><time>2026-03-30T11:26:15.865Z</time></trkpt><trkpt lat="44.2560628" lon="11.3716789"><ele>408.7142857142857</ele><time>2026-03-30T11:26:16.871Z</time></trkpt><trkpt lat="44.2560591" lon="11.3717797"><ele>407.8571428571429</ele><time>2026-03-30T11:26:17.876Z</time></trkpt><trkpt lat="44.2560244" lon="11.3718697"><ele>407.0</ele><time>2026-03-30T11:26:18.873Z</time></trkpt><trkpt lat="44.2559666" lon="11.3719355"><ele>406.99999999999994</ele><time>2026-03-30T11:26:19.875Z</time></trkpt><trkpt lat="44.2558901" lon="11.3719656"><ele>407.0</ele><time>2026-03-30T11:26:20.863Z</time></trkpt><trkpt lat="44.2558087" lon="11.3719959"><ele>407.0</ele><time>2026-03-30T11:26:21.866Z</time></trkpt><trkpt lat="44.2557225" lon="11.3719973"><ele>407.0</ele><time>2026-03-30T11:26:22.868Z</time></trkpt><trkpt lat="44.2556397" lon="11.3720013"><ele>406.99999999999994</ele><time>2026-03-30T11:26:23.858Z</time></trkpt><trkpt lat="44.2555592" lon="11.3720214"><ele>407.0</ele><time>2026-03-30T11:26:24.861Z</time></trkpt><trkpt lat="44.255488" lon="11.3720727"><ele>405.8333333333333</ele><time>2026-03-30T11:26:25.875Z</time></trkpt><trkpt lat="44.2554309" lon="11.3721533"><ele>404.66666666666663</ele><time>2026-03-30T11:26:26.86Z</time></trkpt><trkpt lat="44.2553965" lon="11.3722524"><ele>403.5</ele><time>2026-03-30T11:26:27.871Z</time></trkpt><trkpt lat="44.2553913" lon="11.372355"><ele>402.33333333333337</ele><time>2026-03-30T11:26:28.872Z</time></trkpt><trkpt lat="44.2554126" lon="11.3724674"><ele>401.1666666666667</ele><time>2026-03-30T11:26:29.879Z</time></trkpt><trkpt lat="44.2554418" lon="11.3725792"><ele>400.0</ele><time>2026-03-30T11:26:30.868Z</time></trkpt><trkpt lat="44.2554747" lon="11.3726904"><ele>398.33333333333337</ele><time>2026-03-30T11:26:31.879Z</time></trkpt><trkpt lat="44.2555065" lon="11.3727995"><ele>396.6666666666667</ele><time>2026-03-30T11:26:32.875Z</time></trkpt><trkpt lat="44.2555328" lon="11.3729048"><ele>395.0</ele><time>2026-03-30T11:26:33.867Z</time></trkpt><trkpt lat="44.255557" lon="11.3730083"><ele>393.33333333333337</ele><time>2026-03-30T11:26:34.875Z</time></trkpt><trkpt lat="44.2555808" lon="11.3731097"><ele>391.6666666666667</ele><time>2026-03-30T11:26:35.885Z</time></trkpt><trkpt lat="44.255596" lon="11.3732143"><ele>390.0</ele><time>2026-03-30T11:26:36.86Z</time></trkpt><trkpt lat="44.2555912" lon="11.3733178"><ele>388.7142857142857</ele><time>2026-03-30T11:26:37.879Z</time></trkpt><trkpt lat="44.255569" lon="11.3734121"><ele>387.42857142857144</ele><time>2026-03-30T11:26:38.867Z</time></trkpt><trkpt lat="44.2555307" lon="11.3734961"><ele>386.1428571428571</ele><time>2026-03-30T11:26:39.869Z</time></trkpt><trkpt lat="44.2554821" lon="11.3735654"><ele>384.8571428571429</ele><time>2026-03-30T11:26:40.868Z</time></trkpt><trkpt lat="44.2554254" lon="11.373619"><ele>383.5714285714286</ele><time>2026-03-30T11:26:41.874Z</time></trkpt><trkpt lat="44.2553618" lon="11.3736597"><ele>382.2857142857143</ele><time>2026-03-30T11:26:42.875Z</time></trkpt><trkpt lat="44.2552987" lon="11.373696"><ele>381.0</ele><time>2026-03-30T11:26:43.871Z</time></trkpt><trkpt lat="44.2552368" lon="11.3737361"><ele>381.0</ele><time>2026-03-30T11:26:44.873Z</time></trkpt><trkpt lat="44.2551805" lon="11.373782"><ele>381.0</ele><time>2026-03-30T11:26:45.857Z</time></trkpt><trkpt lat="44.2551265" lon="11.3738313"><ele>381.0</ele><time>2026-03-30T11:26:46.877Z</time></trkpt><trkpt lat="44.2550762" lon="11.3738883"><ele>381.0</ele><time>2026-03-30T11:26:47.869Z</time></trkpt><trkpt lat="44.2549932" lon="11.3740107"><ele>381.0</ele><time>2026-03-30T11:26:49.871Z</time></trkpt><trkpt lat="44.2549318" lon="11.3741242"><ele>381.0</ele><time>2026-03-30T11:26:51.865Z</time></trkpt><trkpt lat="44.2548863" lon="11.3742192"><ele>379.6666666666667</ele><time>2026-03-30T11:26:53.854Z</time></trkpt><trkpt lat="44.2548476" lon="11.3742956"><ele>378.3333333333333</ele><time>2026-03-30T11:26:55.87Z</time></trkpt><trkpt lat="44.2547985" lon="11.3744002"><ele>377.0</ele><time>2026-03-30T11:26:58.867Z</time></trkpt><trkpt lat="44.2547496" lon="11.3745015"><ele>375.66666666666663</ele><time>2026-03-30T11:27:01.857Z</time></trkpt><trkpt lat="44.2547047" lon="11.3745999"><ele>374.3333333333333</ele><time>2026-03-30T11:27:04.858Z</time></trkpt><trkpt lat="44.2546486" lon="11.3746984"><ele>373.0</ele><time>2026-03-30T11:27:07.866Z</time></trkpt><trkpt lat="44.2546078" lon="11.37478"><ele>370.8333333333333</ele><time>2026-03-30T11:27:09.857Z</time></trkpt><trkpt lat="44.2545593" lon="11.3748727"><ele>368.66666666666663</ele><time>2026-03-30T11:27:11.865Z</time></trkpt><trkpt lat="44.2544927" lon="11.3749973"><ele>366.5</ele><time>2026-03-30T11:27:13.874Z</time></trkpt><trkpt lat="44.2544543" lon="11.3750734"><ele>364.3333333333333</ele><time>2026-03-30T11:27:14.872Z</time></trkpt><trkpt lat="44.2544155" lon="11.3751541"><ele>362.1666666666667</ele><time>2026-03-30T11:27:15.865Z</time></trkpt><trkpt lat="44.2543766" lon="11.3752369"><ele>360.0</ele><time>2026-03-30T11:27:16.859Z</time></trkpt><trkpt lat="44.2543507" lon="11.3753264"><ele>360.0</ele><time>2026-03-30T11:27:17.874Z</time></trkpt><trkpt lat="44.2543428" lon="11.375426"><ele>360.0</ele><time>2026-03-30T11:27:18.863Z</time></trkpt><trkpt lat="44.2543437" lon="11.3755336"><ele>360.0</ele><time>2026-03-30T11:27:19.864Z</time></trkpt><trkpt lat="44.2543453" lon="11.375638"><ele>360.0</ele><time>2026-03-30T11:27:20.866Z</time></trkpt><trkpt lat="44.2543623" lon="11.3757402"><ele>360.0</ele><time>2026-03-30T11:27:21.87Z</time></trkpt><trkpt lat="44.2543869" lon="11.3758284"><ele>360.0</ele><time>2026-03-30T11:27:22.867Z</time></trkpt><trkpt lat="44.2544095" lon="11.3759136"><ele>360.0</ele><time>2026-03-30T11:27:23.866Z</time></trkpt><trkpt lat="44.2544631" lon="11.3760659"><ele>359.1666666666667</ele><time>2026-03-30T11:27:25.878Z</time></trkpt><trkpt lat="44.2544938" lon="11.3761428"><ele>358.3333333333333</ele><time>2026-03-30T11:27:26.865Z</time></trkpt><trkpt lat="44.2545673" lon="11.3762755"><ele>357.5</ele><time>2026-03-30T11:27:28.864Z</time></trkpt><trkpt lat="44.2546643" lon="11.3763836"><ele>356.66666666666663</ele><time>2026-03-30T11:27:30.869Z</time></trkpt><trkpt lat="44.2547196" lon="11.3764313"><ele>355.8333333333333</ele><time>2026-03-30T11:27:31.862Z</time></trkpt><trkpt lat="44.2547782" lon="11.3764703"><ele>355.0</ele><time>2026-03-30T11:27:32.869Z</time></trkpt><trkpt lat="44.2548416" lon="11.3764998"><ele>354.1428571428571</ele><time>2026-03-30T11:27:33.859Z</time></trkpt><trkpt lat="44.2549071" lon="11.3765223"><ele>353.2857142857143</ele><time>2026-03-30T11:27:34.869Z</time></trkpt><trkpt lat="44.2549709" lon="11.3765413"><ele>352.42857142857144</ele><time>2026-03-30T11:27:35.861Z</time></trkpt><trkpt lat="44.2550352" lon="11.3765583"><ele>351.57142857142856</ele><time>2026-03-30T11:27:36.87Z</time></trkpt><trkpt lat="44.2550987" lon="11.3765771"><ele>350.7142857142857</ele><time>2026-03-30T11:27:37.857Z</time></trkpt><trkpt lat="44.255164" lon="11.376593"><ele>349.85714285714283</ele><time>2026-03-30T11:27:38.864Z</time></trkpt><trkpt lat="44.2552308" lon="11.376607"><ele>349.0</ele><time>2026-03-30T11:27:39.872Z</time></trkpt><trkpt lat="44.2552971" lon="11.3766197"><ele>349.0</ele><time>2026-03-30T11:27:40.875Z</time></trkpt><trkpt lat="44.2553615" lon="11.3766308"><ele>349.0</ele><time>2026-03-30T11:27:41.871Z</time></trkpt><trkpt lat="44.2554261" lon="11.3766408"><ele>349.0</ele><time>2026-03-30T11:27:42.868Z</time></trkpt><trkpt lat="44.255544" lon="11.3766592"><ele>349.0</ele><time>2026-03-30T11:27:44.862Z</time></trkpt><trkpt lat="44.2556514" lon="11.3766729"><ele>349.0</ele><time>2026-03-30T11:27:46.864Z</time></trkpt><trkpt lat="44.2557684" lon="11.376687"><ele>349.8333333333333</ele><time>2026-03-30T11:27:48.865Z</time></trkpt><trkpt lat="44.2558935" lon="11.376706"><ele>350.66666666666663</ele><time>2026-03-30T11:27:50.862Z</time></trkpt><trkpt lat="44.2559606" lon="11.3767221"><ele>351.5</ele><time>2026-03-30T11:27:51.865Z</time></trkpt><trkpt lat="44.2560257" lon="11.3767561"><ele>352.3333333333333</ele><time>2026-03-30T11:27:52.872Z</time></trkpt><trkpt lat="44.2560842" lon="11.3768263"><ele>353.1666666666667</ele><time>2026-03-30T11:27:53.858Z</time></trkpt><trkpt lat="44.2561481" lon="11.3769059"><ele>354.0</ele><time>2026-03-30T11:27:54.868Z</time></trkpt><trkpt lat="44.2561838" lon="11.3770303"><ele>354.0</ele><time>2026-03-30T11:27:55.873Z</time></trkpt><trkpt lat="44.2562206" lon="11.3771579"><ele>354.0</ele><time>2026-03-30T11:27:56.861Z</time></trkpt><trkpt lat="44.2562555" lon="11.3772932"><ele>354.0</ele><time>2026-03-30T11:27:57.868Z</time></trkpt><trkpt lat="44.2562918" lon="11.3774293"><ele>354.0</ele><time>2026-03-30T11:27:58.871Z</time></trkpt><trkpt lat="44.25633" lon="11.377571"><ele>354.0</ele><time>2026-03-30T11:27:59.866Z</time></trkpt><trkpt lat="44.2563644" lon="11.3777121"><ele>352.8333333333333</ele><time>2026-03-30T11:28:00.854Z</time></trkpt><trkpt lat="44.2564" lon="11.3778464"><ele>351.6666666666667</ele><time>2026-03-30T11:28:01.868Z</time></trkpt><trkpt lat="44.2564286" lon="11.377971"><ele>350.5</ele><time>2026-03-30T11:28:02.868Z</time></trkpt><trkpt lat="44.2564594" lon="11.3780914"><ele>349.33333333333337</ele><time>2026-03-30T11:28:03.867Z</time></trkpt><trkpt lat="44.2564878" lon="11.3782008"><ele>348.1666666666667</ele><time>2026-03-30T11:28:04.873Z</time></trkpt><trkpt lat="44.2564986" lon="11.3783005"><ele>347.0</ele><time>2026-03-30T11:28:05.873Z</time></trkpt><trkpt lat="44.2564832" lon="11.3783861"><ele>345.0</ele><time>2026-03-30T11:28:06.859Z</time></trkpt><trkpt lat="44.2563745" lon="11.3784302"><ele>343.0</ele><time>2026-03-30T11:28:08.864Z</time></trkpt><trkpt lat="44.2562726" lon="11.3783683"><ele>341.0</ele><time>2026-03-30T11:28:10.865Z</time></trkpt><trkpt lat="44.2561755" lon="11.3783182"><ele>339.0</ele><time>2026-03-30T11:28:12.864Z</time></trkpt><trkpt lat="44.25608" lon="11.3782749"><ele>337.0</ele><time>2026-03-30T11:28:14.867Z</time></trkpt><trkpt lat="44.2559931" lon="11.3782338"><ele>337.0</ele><time>2026-03-30T11:28:16.863Z</time></trkpt><trkpt lat="44.2559093" lon="11.3781888"><ele>337.0</ele><time>2026-03-30T11:28:18.878Z</time></trkpt><trkpt lat="44.2558195" lon="11.3781496"><ele>337.0</ele><time>2026-03-30T11:28:20.872Z</time></trkpt><trkpt lat="44.2557171" lon="11.378108"><ele>337.0</ele><time>2026-03-30T11:28:22.865Z</time></trkpt><trkpt lat="44.2556189" lon="11.3780747"><ele>337.0</ele><time>2026-03-30T11:28:24.864Z</time></trkpt><trkpt lat="44.2555204" lon="11.3780304"><ele>338.20000000000005</ele><time>2026-03-30T11:28:26.863Z</time></trkpt><trkpt lat="44.2554256" lon="11.3779883"><ele>339.4</ele><time>2026-03-30T11:28:28.88Z</time></trkpt><trkpt lat="44.2553336" lon="11.3779484"><ele>340.6</ele><time>2026-03-30T11:28:30.875Z</time></trkpt><trkpt lat="44.2552387" lon="11.3779065"><ele>341.79999999999995</ele><time>2026-03-30T11:28:32.87Z</time></trkpt><trkpt lat="44.2551436" lon="11.3778609"><ele>343.0</ele><time>2026-03-30T11:28:34.862Z</time></trkpt><trkpt lat="44.2550478" lon="11.3778222"><ele>343.0</ele><time>2026-03-30T11:28:36.869Z</time></trkpt><trkpt lat="44.2549548" lon="11.3777847"><ele>343.0</ele><time>2026-03-30T11:28:38.866Z</time></trkpt><trkpt lat="44.2548637" lon="11.3777485"><ele>343.0</ele><time>2026-03-30T11:28:40.871Z</time></trkpt><trkpt lat="44.2547719" lon="11.3777116"><ele>343.0</ele><time>2026-03-30T11:28:42.862Z</time></trkpt><trkpt lat="44.2546795" lon="11.3776696"><ele>343.0</ele><time>2026-03-30T11:28:44.867Z</time></trkpt><trkpt lat="44.2545881" lon="11.3776235"><ele>341.59999999999997</ele><time>2026-03-30T11:28:46.858Z</time></trkpt><trkpt lat="44.2544969" lon="11.3775706"><ele>340.2</ele><time>2026-03-30T11:28:48.872Z</time></trkpt><trkpt lat="44.2544012" lon="11.3775156"><ele>338.8</ele><time>2026-03-30T11:28:50.866Z</time></trkpt><trkpt lat="44.2543017" lon="11.3774585"><ele>337.4</ele><time>2026-03-30T11:28:52.871Z</time></trkpt><trkpt lat="44.2542029" lon="11.3774113"><ele>336.0</ele><time>2026-03-30T11:28:54.862Z</time></trkpt><trkpt lat="44.2541038" lon="11.3773822"><ele>336.0</ele><time>2026-03-30T11:28:56.875Z</time></trkpt><trkpt lat="44.2540017" lon="11.3773655"><ele>336.0</ele><time>2026-03-30T11:28:58.879Z</time></trkpt><trkpt lat="44.2538946" lon="11.3773644"><ele>336.0</ele><time>2026-03-30T11:29:00.872Z</time></trkpt><trkpt lat="44.2537856" lon="11.377368"><ele>336.0</ele><time>2026-03-30T11:29:02.874Z</time></trkpt><trkpt lat="44.2536716" lon="11.3773765"><ele>336.0</ele><time>2026-03-30T11:29:04.866Z</time></trkpt><trkpt lat="44.2535552" lon="11.377388"><ele>335.0</ele><time>2026-03-30T11:29:06.873Z</time></trkpt><trkpt lat="44.2534394" lon="11.3774008"><ele>334.0</ele><time>2026-03-30T11:29:08.864Z</time></trkpt><trkpt lat="44.2533231" lon="11.3774079"><ele>333.0</ele><time>2026-03-30T11:29:10.865Z</time></trkpt><trkpt lat="44.2532073" lon="11.3774045"><ele>332.0</ele><time>2026-03-30T11:29:12.86Z</time></trkpt><trkpt lat="44.2530892" lon="11.3773971"><ele>332.1666666666667</ele><time>2026-03-30T11:29:14.867Z</time></trkpt><trkpt lat="44.2529693" lon="11.3773608"><ele>332.33333333333337</ele><time>2026-03-30T11:29:16.867Z</time></trkpt><trkpt lat="44.2529103" lon="11.3773287"><ele>332.5</ele><time>2026-03-30T11:29:17.877Z</time></trkpt><trkpt lat="44.2528485" lon="11.3772943"><ele>332.6666666666667</ele><time>2026-03-30T11:29:18.866Z</time></trkpt><trkpt lat="44.2527905" lon="11.3772432"><ele>332.8333333333333</ele><time>2026-03-30T11:29:19.866Z</time></trkpt><trkpt lat="44.2527346" lon="11.3771886"><ele>333.0</ele><time>2026-03-30T11:29:20.871Z</time></trkpt><trkpt lat="44.2526798" lon="11.3771338"><ele>333.0</ele><time>2026-03-30T11:29:21.875Z</time></trkpt><trkpt lat="44.2526306" lon="11.3770711"><ele>333.0</ele><time>2026-03-30T11:29:22.871Z</time></trkpt><trkpt lat="44.2525809" lon="11.3770071"><ele>333.0</ele><time>2026-03-30T11:29:23.868Z</time></trkpt><trkpt lat="44.2525365" lon="11.3769357"><ele>333.0</ele><time>2026-03-30T11:29:24.878Z</time></trkpt><trkpt lat="44.2524994" lon="11.376862"><ele>333.0</ele><time>2026-03-30T11:29:25.866Z</time></trkpt><trkpt lat="44.2524655" lon="11.3767871"><ele>333.0</ele><time>2026-03-30T11:29:26.871Z</time></trkpt><trkpt lat="44.2524297" lon="11.3767111"><ele>333.0</ele><time>2026-03-30T11:29:27.874Z</time></trkpt><trkpt lat="44.2523932" lon="11.3766379"><ele>333.0</ele><time>2026-03-30T11:29:28.866Z</time></trkpt><trkpt lat="44.2523556" lon="11.3765659"><ele>333.0</ele><time>2026-03-30T11:29:29.858Z</time></trkpt><trkpt lat="44.2523181" lon="11.3764949"><ele>333.0</ele><time>2026-03-30T11:29:30.876Z</time></trkpt><trkpt lat="44.2522413" lon="11.3763659"><ele>333.0</ele><time>2026-03-30T11:29:32.85Z</time></trkpt><trkpt lat="44.2521552" lon="11.3762531"><ele>333.0</ele><time>2026-03-30T11:29:34.867Z</time></trkpt><trkpt lat="44.2520572" lon="11.3761631"><ele>334.2</ele><time>2026-03-30T11:29:36.866Z</time></trkpt><trkpt lat="44.2519465" lon="11.3761085"><ele>335.4</ele><time>2026-03-30T11:29:38.858Z</time></trkpt><trkpt lat="44.2518292" lon="11.3761082"><ele>336.59999999999997</ele><time>2026-03-30T11:29:40.868Z</time></trkpt><trkpt lat="44.2517075" lon="11.3761451"><ele>337.79999999999995</ele><time>2026-03-30T11:29:42.865Z</time></trkpt><trkpt lat="44.2516456" lon="11.3761679"><ele>339.0</ele><time>2026-03-30T11:29:43.866Z</time></trkpt><trkpt lat="44.2515832" lon="11.3761918"><ele>339.0</ele><time>2026-03-30T11:29:44.872Z</time></trkpt><trkpt lat="44.2515197" lon="11.3762143"><ele>339.0</ele><time>2026-03-30T11:29:45.865Z</time></trkpt><trkpt lat="44.2514544" lon="11.3762342"><ele>339.0</ele><time>2026-03-30T11:29:46.869Z</time></trkpt><trkpt lat="44.2513875" lon="11.3762491"><ele>339.0</ele><time>2026-03-30T11:29:47.857Z</time></trkpt><trkpt lat="44.2513184" lon="11.3762603"><ele>339.0</ele><time>2026-03-30T11:29:48.881Z</time></trkpt><trkpt lat="44.251248" lon="11.3762651"><ele>339.0</ele><time>2026-03-30T11:29:49.88Z</time></trkpt><trkpt lat="44.2511766" lon="11.3762664"><ele>339.0</ele><time>2026-03-30T11:29:50.868Z</time></trkpt><trkpt lat="44.2511053" lon="11.3762641"><ele>339.0</ele><time>2026-03-30T11:29:51.865Z</time></trkpt><trkpt lat="44.2510347" lon="11.3762617"><ele>339.0</ele><time>2026-03-30T11:29:52.88Z</time></trkpt><trkpt lat="44.2509645" lon="11.3762566"><ele>339.0</ele><time>2026-03-30T11:29:53.871Z</time></trkpt><trkpt lat="44.2508956" lon="11.3762499"><ele>339.0</ele><time>2026-03-30T11:29:54.868Z</time></trkpt><trkpt lat="44.2508262" lon="11.3762452"><ele>339.0</ele><time>2026-03-30T11:29:55.876Z</time></trkpt><trkpt lat="44.2507567" lon="11.3762397"><ele>339.0</ele><time>2026-03-30T11:29:56.87Z</time></trkpt><trkpt lat="44.2506877" lon="11.3762352"><ele>339.0</ele><time>2026-03-30T11:29:57.863Z</time></trkpt><trkpt lat="44.2506177" lon="11.3762315"><ele>338.57142857142856</ele><time>2026-03-30T11:29:58.853Z</time></trkpt><trkpt lat="44.2505488" lon="11.3762285"><ele>338.14285714285717</ele><time>2026-03-30T11:29:59.86Z</time></trkpt><trkpt lat="44.2504798" lon="11.376225"><ele>337.7142857142857</ele><time>2026-03-30T11:30:00.869Z</time></trkpt><trkpt lat="44.2504108" lon="11.3762215"><ele>337.2857142857143</ele><time>2026-03-30T11:30:01.874Z</time></trkpt><trkpt lat="44.2503414" lon="11.3762173"><ele>336.8571428571429</ele><time>2026-03-30T11:30:02.866Z</time></trkpt><trkpt lat="44.2502717" lon="11.3762136"><ele>336.42857142857144</ele><time>2026-03-30T11:30:03.87Z</time></trkpt><trkpt lat="44.2502015" lon="11.3762106"><ele>336.0</ele><time>2026-03-30T11:30:04.867Z</time></trkpt><trkpt lat="44.2501314" lon="11.3762058"><ele>336.0</ele><time>2026-03-30T11:30:05.863Z</time></trkpt><trkpt lat="44.2500608" lon="11.3762014"><ele>336.0</ele><time>2026-03-30T11:30:06.868Z</time></trkpt><trkpt lat="44.2499895" lon="11.376198"><ele>336.0</ele><time>2026-03-30T11:30:07.871Z</time></trkpt><trkpt lat="44.2499175" lon="11.3761956"><ele>336.0</ele><time>2026-03-30T11:30:08.862Z</time></trkpt><trkpt lat="44.249846" lon="11.376192"><ele>336.0</ele><time>2026-03-30T11:30:09.872Z</time></trkpt><trkpt lat="44.2497732" lon="11.3761871"><ele>336.0</ele><time>2026-03-30T11:30:10.873Z</time></trkpt><trkpt lat="44.2497003" lon="11.3761829"><ele>336.0</ele><time>2026-03-30T11:30:11.869Z</time></trkpt><trkpt lat="44.2496278" lon="11.3761783"><ele>335.0</ele><time>2026-03-30T11:30:12.875Z</time></trkpt><trkpt lat="44.2495548" lon="11.3761714"><ele>334.0</ele><time>2026-03-30T11:30:13.87Z</time></trkpt><trkpt lat="44.2494813" lon="11.3761618"><ele>333.0</ele><time>2026-03-30T11:30:14.868Z</time></trkpt><trkpt lat="44.2494087" lon="11.3761469"><ele>332.0</ele><time>2026-03-30T11:30:15.877Z</time></trkpt><trkpt lat="44.2493373" lon="11.3761245"><ele>331.0</ele><time>2026-03-30T11:30:16.88Z</time></trkpt><trkpt lat="44.2492666" lon="11.3760971"><ele>330.0</ele><time>2026-03-30T11:30:17.872Z</time></trkpt><trkpt lat="44.2491958" lon="11.3760637"><ele>329.0</ele><time>2026-03-30T11:30:18.861Z</time></trkpt><trkpt lat="44.2491291" lon="11.3760257"><ele>329.0</ele><time>2026-03-30T11:30:19.863Z</time></trkpt><trkpt lat="44.2490634" lon="11.375985"><ele>329.0</ele><time>2026-03-30T11:30:20.86Z</time></trkpt><trkpt lat="44.2489979" lon="11.3759451"><ele>329.0</ele><time>2026-03-30T11:30:21.874Z</time></trkpt><trkpt lat="44.2489336" lon="11.3759023"><ele>329.0</ele><time>2026-03-30T11:30:22.86Z</time></trkpt><trkpt lat="44.24887" lon="11.3758566"><ele>329.0</ele><time>2026-03-30T11:30:23.867Z</time></trkpt><trkpt lat="44.2488045" lon="11.3758131"><ele>329.0</ele><time>2026-03-30T11:30:24.868Z</time></trkpt><trkpt lat="44.2487413" lon="11.3757703"><ele>329.0</ele><time>2026-03-30T11:30:25.866Z</time></trkpt><trkpt lat="44.2486802" lon="11.3757271"><ele>329.2857142857143</ele><time>2026-03-30T11:30:26.88Z</time></trkpt><trkpt lat="44.2486209" lon="11.3756844"><ele>329.57142857142856</ele><time>2026-03-30T11:30:27.878Z</time></trkpt><trkpt lat="44.2485615" lon="11.3756405"><ele>329.8571428571429</ele><time>2026-03-30T11:30:28.86Z</time></trkpt><trkpt lat="44.2485038" lon="11.3755916"><ele>330.1428571428571</ele><time>2026-03-30T11:30:29.864Z</time></trkpt><trkpt lat="44.2484485" lon="11.375537"><ele>330.42857142857144</ele><time>2026-03-30T11:30:30.871Z</time></trkpt><trkpt lat="44.2483966" lon="11.3754796"><ele>330.7142857142857</ele><time>2026-03-30T11:30:31.866Z</time></trkpt><trkpt lat="44.2483458" lon="11.3754196"><ele>331.0</ele><time>2026-03-30T11:30:32.879Z</time></trkpt><trkpt lat="44.2482974" lon="11.3753564"><ele>331.0</ele><time>2026-03-30T11:30:33.868Z</time></trkpt><trkpt lat="44.2482524" lon="11.3752891"><ele>331.0</ele><time>2026-03-30T11:30:34.866Z</time></trkpt><trkpt lat="44.2482086" lon="11.3752231"><ele>331.0</ele><time>2026-03-30T11:30:35.865Z</time></trkpt><trkpt lat="44.2481249" lon="11.3750937"><ele>331.0</ele><time>2026-03-30T11:30:37.866Z</time></trkpt><trkpt lat="44.2480488" lon="11.3749654"><ele>331.0</ele><time>2026-03-30T11:30:39.859Z</time></trkpt><trkpt lat="44.2479825" lon="11.3748359"><ele>330.8</ele><time>2026-03-30T11:30:41.867Z</time></trkpt><trkpt lat="44.2479186" lon="11.3747101"><ele>330.6</ele><time>2026-03-30T11:30:43.862Z</time></trkpt><trkpt lat="44.2478621" lon="11.3745809"><ele>330.4</ele><time>2026-03-30T11:30:45.874Z</time></trkpt><trkpt lat="44.2478055" lon="11.3744538"><ele>330.2</ele><time>2026-03-30T11:30:47.861Z</time></trkpt><trkpt lat="44.2477428" lon="11.374333"><ele>330.0</ele><time>2026-03-30T11:30:49.868Z</time></trkpt><trkpt lat="44.2476716" lon="11.3742246"><ele>330.0</ele><time>2026-03-30T11:30:51.866Z</time></trkpt><trkpt lat="44.2475876" lon="11.37413"><ele>330.0</ele><time>2026-03-30T11:30:53.855Z</time></trkpt><trkpt lat="44.2474983" lon="11.3740451"><ele>330.0</ele><time>2026-03-30T11:30:55.87Z</time></trkpt><trkpt lat="44.2474064" lon="11.3739672"><ele>330.0</ele><time>2026-03-30T11:30:57.866Z</time></trkpt><trkpt lat="44.2473148" lon="11.3738928"><ele>330.0</ele><time>2026-03-30T11:30:59.853Z</time></trkpt><trkpt lat="44.2472233" lon="11.3738168"><ele>331.0</ele><time>2026-03-30T11:31:01.873Z</time></trkpt><trkpt lat="44.2471309" lon="11.3737423"><ele>332.0</ele><time>2026-03-30T11:31:03.87Z</time></trkpt><trkpt lat="44.2470385" lon="11.3736693"><ele>333.0</ele><time>2026-03-30T11:31:05.867Z</time></trkpt><trkpt lat="44.2469486" lon="11.3735978"><ele>334.0</ele><time>2026-03-30T11:31:07.879Z</time></trkpt><trkpt lat="44.2468626" lon="11.3735259"><ele>335.0</ele><time>2026-03-30T11:31:09.857Z</time></trkpt><trkpt lat="44.2467808" lon="11.3734582"><ele>335.0</ele><time>2026-03-30T11:31:11.865Z</time></trkpt><trkpt lat="44.2467064" lon="11.3733963"><ele>335.0</ele><time>2026-03-30T11:31:13.857Z</time></trkpt><trkpt lat="44.2466416" lon="11.3733414"><ele>335.0</ele><time>2026-03-30T11:31:15.879Z</time></trkpt><trkpt lat="44.2465774" lon="11.3732897"><ele>335.0</ele><time>2026-03-30T11:31:17.872Z</time></trkpt><trkpt lat="44.2465136" lon="11.3732376"><ele>335.0</ele><time>2026-03-30T11:31:19.865Z</time></trkpt><trkpt lat="44.2464507" lon="11.3731846"><ele>335.0</ele><time>2026-03-30T11:31:21.868Z</time></trkpt><trkpt lat="44.2463862" lon="11.3731323"><ele>334.85714285714283</ele><time>2026-03-30T11:31:23.881Z</time></trkpt><trkpt lat="44.2463269" lon="11.3730817"><ele>334.7142857142857</ele><time>2026-03-30T11:31:25.871Z</time></trkpt><trkpt lat="44.2462741" lon="11.3730306"><ele>334.57142857142856</ele><time>2026-03-30T11:31:27.858Z</time></trkpt><trkpt lat="44.2462187" lon="11.3729835"><ele>334.42857142857144</ele><time>2026-03-30T11:31:29.869Z</time></trkpt><trkpt lat="44.2461611" lon="11.3729388"><ele>334.2857142857143</ele><time>2026-03-30T11:31:31.864Z</time></trkpt><trkpt lat="44.2461044" lon="11.3728958"><ele>334.1428571428571</ele><time>2026-03-30T11:31:33.856Z</time></trkpt><trkpt lat="44.2460483" lon="11.3728516"><ele>334.0</ele><time>2026-03-30T11:31:35.862Z</time></trkpt><trkpt lat="44.2459925" lon="11.3728078"><ele>334.57142857142856</ele><time>2026-03-30T11:31:37.859Z</time></trkpt><trkpt lat="44.2459362" lon="11.3727614"><ele>335.14285714285717</ele><time>2026-03-30T11:31:39.86Z</time></trkpt><trkpt lat="44.2458801" lon="11.3727153"><ele>335.7142857142857</ele><time>2026-03-30T11:31:41.863Z</time></trkpt><trkpt lat="44.2458251" lon="11.3726686"><ele>336.2857142857143</ele><time>2026-03-30T11:31:43.844Z</time></trkpt><trkpt lat="44.2457703" lon="11.3726233"><ele>336.85714285714283</ele><time>2026-03-30T11:31:45.869Z</time></trkpt><trkpt lat="44.2456902" lon="11.3725561"><ele>337.42857142857144</ele><time>2026-03-30T11:31:48.868Z</time></trkpt><trkpt lat="44.2456119" lon="11.3724915"><ele>338.0</ele><time>2026-03-30T11:31:51.859Z</time></trkpt><trkpt lat="44.2455359" lon="11.3724269"><ele>338.0</ele><time>2026-03-30T11:31:54.865Z</time></trkpt><trkpt lat="44.2454595" lon="11.3723618"><ele>338.0</ele><time>2026-03-30T11:31:57.871Z</time></trkpt><trkpt lat="44.2453836" lon="11.372298"><ele>338.0</ele><time>2026-03-30T11:32:00.866Z</time></trkpt><trkpt lat="44.2453116" lon="11.372223"><ele>338.0</ele><time>2026-03-30T11:32:03.86Z</time></trkpt><trkpt lat="44.2452485" lon="11.3721384"><ele>338.0</ele><time>2026-03-30T11:32:06.862Z</time></trkpt><trkpt lat="44.2451901" lon="11.3720443"><ele>338.0</ele><time>2026-03-30T11:32:09.849Z</time></trkpt><trkpt lat="44.2451386" lon="11.3719406"><ele>338.57142857142856</ele><time>2026-03-30T11:32:12.86Z</time></trkpt><trkpt lat="44.2451048" lon="11.3718664"><ele>339.1428571428571</ele><time>2026-03-30T11:32:14.865Z</time></trkpt><trkpt lat="44.2450741" lon="11.3717887"><ele>339.71428571428567</ele><time>2026-03-30T11:32:16.873Z</time></trkpt><trkpt lat="44.24503" lon="11.3716732"><ele>340.2857142857143</ele><time>2026-03-30T11:32:19.862Z</time></trkpt><trkpt lat="44.2450015" lon="11.3715941"><ele>340.85714285714283</ele><time>2026-03-30T11:32:21.855Z</time></trkpt><trkpt lat="44.2449724" lon="11.3715152"><ele>341.4285714285714</ele><time>2026-03-30T11:32:23.85Z</time></trkpt><trkpt lat="44.2449428" lon="11.3714363"><ele>342.0</ele><time>2026-03-30T11:32:25.862Z</time></trkpt><trkpt lat="44.2449006" lon="11.3713204"><ele>341.8</ele><time>2026-03-30T11:32:28.854Z</time></trkpt><trkpt lat="44.2448583" lon="11.3712052"><ele>341.6</ele><time>2026-03-30T11:32:31.865Z</time></trkpt><trkpt lat="44.2448143" lon="11.371095"><ele>341.40000000000003</ele><time>2026-03-30T11:32:34.873Z</time></trkpt><trkpt lat="44.2447666" lon="11.3709907"><ele>341.20000000000005</ele><time>2026-03-30T11:32:37.875Z</time></trkpt><trkpt lat="44.2447114" lon="11.3708906"><ele>341.0</ele><time>2026-03-30T11:32:40.861Z</time></trkpt><trkpt lat="44.2446517" lon="11.370793"><ele>341.0</ele><time>2026-03-30T11:32:43.87Z</time></trkpt><trkpt lat="44.2445863" lon="11.3706997"><ele>341.0</ele><time>2026-03-30T11:32:46.865Z</time></trkpt><trkpt lat="44.2445171" lon="11.3706169"><ele>341.0</ele><time>2026-03-30T11:32:49.855Z</time></trkpt><trkpt lat="44.2444494" lon="11.3705345"><ele>341.0</ele><time>2026-03-30T11:32:52.871Z</time></trkpt><trkpt lat="44.244384" lon="11.3704476"><ele>341.0</ele><time>2026-03-30T11:32:55.872Z</time></trkpt><trkpt lat="44.2443281" lon="11.3703522"><ele>342.0</ele><time>2026-03-30T11:32:58.866Z</time></trkpt><trkpt lat="44.2442784" lon="11.3702472"><ele>343.0</ele><time>2026-03-30T11:33:01.865Z</time></trkpt><trkpt lat="44.2442393" lon="11.3701367"><ele>344.0</ele><time>2026-03-30T11:33:04.863Z</time></trkpt><trkpt lat="44.2442021" lon="11.3700247"><ele>345.0</ele><time>2026-03-30T11:33:07.868Z</time></trkpt><trkpt lat="44.2441663" lon="11.3699159"><ele>346.0</ele><time>2026-03-30T11:33:10.853Z</time></trkpt><trkpt lat="44.244128" lon="11.3698032"><ele>347.0</ele><time>2026-03-30T11:33:13.864Z</time></trkpt><trkpt lat="44.2440814" lon="11.369696"><ele>347.5</ele><time>2026-03-30T11:33:16.869Z</time></trkpt><trkpt lat="44.2440338" lon="11.3695917"><ele>348.0</ele><time>2026-03-30T11:33:19.864Z</time></trkpt><trkpt lat="44.2439847" lon="11.3694925"><ele>348.5</ele><time>2026-03-30T11:33:22.887Z</time></trkpt><trkpt lat="44.2439341" lon="11.3693956"><ele>349.0</ele><time>2026-03-30T11:33:25.869Z</time></trkpt><trkpt lat="44.243887" lon="11.3692998"><ele>349.5</ele><time>2026-03-30T11:33:28.871Z</time></trkpt><trkpt lat="44.24384" lon="11.3692065"><ele>350.0</ele><time>2026-03-30T11:33:31.865Z</time></trkpt><trkpt lat="44.2437904" lon="11.3691123"><ele>350.0</ele><time>2026-03-30T11:33:34.855Z</time></trkpt><trkpt lat="44.2437436" lon="11.3690183"><ele>350.0</ele><time>2026-03-30T11:33:37.866Z</time></trkpt><trkpt lat="44.2436974" lon="11.3689229"><ele>350.0</ele><time>2026-03-30T11:33:40.865Z</time></trkpt><trkpt lat="44.243646" lon="11.3688276"><ele>350.0</ele><time>2026-03-30T11:33:43.873Z</time></trkpt><trkpt lat="44.2436007" lon="11.3687292"><ele>350.0</ele><time>2026-03-30T11:33:46.867Z</time></trkpt><trkpt lat="44.2435549" lon="11.3686314"><ele>350.0</ele><time>2026-03-30T11:33:49.865Z</time></trkpt><trkpt lat="44.2435089" lon="11.3685366"><ele>352.0</ele><time>2026-03-30T11:33:52.872Z</time></trkpt><trkpt lat="44.2434612" lon="11.368444"><ele>354.0</ele><time>2026-03-30T11:33:55.859Z</time></trkpt><trkpt lat="44.2434136" lon="11.3683489"><ele>356.0</ele><time>2026-03-30T11:33:58.869Z</time></trkpt><trkpt lat="44.2433629" lon="11.3682607"><ele>358.0</ele><time>2026-03-30T11:34:01.866Z</time></trkpt><trkpt lat="44.2433097" lon="11.3681895"><ele>360.0</ele><time>2026-03-30T11:34:04.858Z</time></trkpt><trkpt lat="44.2432554" lon="11.3681297"><ele>362.0</ele><time>2026-03-30T11:34:07.864Z</time></trkpt><trkpt lat="44.2431888" lon="11.3680921"><ele>361.33333333333337</ele><time>2026-03-30T11:34:10.863Z</time></trkpt><trkpt lat="44.2431135" lon="11.368071"><ele>360.6666666666667</ele><time>2026-03-30T11:34:13.864Z</time></trkpt><trkpt lat="44.2430345" lon="11.3680667"><ele>360.0</ele><time>2026-03-30T11:34:16.871Z</time></trkpt><trkpt lat="44.242954" lon="11.3680855"><ele>359.3333333333333</ele><time>2026-03-30T11:34:19.851Z</time></trkpt><trkpt lat="44.2428722" lon="11.3681079"><ele>358.66666666666663</ele><time>2026-03-30T11:34:22.868Z</time></trkpt><trkpt lat="44.2427912" lon="11.3681211"><ele>358.0</ele><time>2026-03-30T11:34:25.871Z</time></trkpt><trkpt lat="44.2427118" lon="11.3681191"><ele>358.0</ele><time>2026-03-30T11:34:28.864Z</time></trkpt><trkpt lat="44.2426314" lon="11.3681049"><ele>358.0</ele><time>2026-03-30T11:34:31.868Z</time></trkpt><trkpt lat="44.2425532" lon="11.3680794"><ele>358.0</ele><time>2026-03-30T11:34:34.864Z</time></trkpt><trkpt lat="44.2424739" lon="11.3680434"><ele>358.0</ele><time>2026-03-30T11:34:37.862Z</time></trkpt><trkpt lat="44.2423991" lon="11.3679998"><ele>358.0</ele><time>2026-03-30T11:34:40.871Z</time></trkpt><trkpt lat="44.2423313" lon="11.3679474"><ele>358.0</ele><time>2026-03-30T11:34:43.875Z</time></trkpt><trkpt lat="44.2422666" lon="11.3678925"><ele>359.8333333333333</ele><time>2026-03-30T11:34:46.868Z</time></trkpt><trkpt lat="44.2421974" lon="11.3678384"><ele>361.66666666666663</ele><time>2026-03-30T11:34:49.868Z</time></trkpt><trkpt lat="44.2421288" lon="11.3677875"><ele>363.5</ele><time>2026-03-30T11:34:52.873Z</time></trkpt><trkpt lat="44.2420617" lon="11.3677333"><ele>365.3333333333333</ele><time>2026-03-30T11:34:55.874Z</time></trkpt><trkpt lat="44.2419913" lon="11.367679"><ele>367.1666666666667</ele><time>2026-03-30T11:34:58.873Z</time></trkpt><trkpt lat="44.2419255" lon="11.3676095"><ele>369.0</ele><time>2026-03-30T11:35:01.864Z</time></trkpt><trkpt lat="44.2418631" lon="11.3675338"><ele>369.0</ele><time>2026-03-30T11:35:04.871Z</time></trkpt><trkpt lat="44.2418126" lon="11.3674365"><ele>369.0</ele><time>2026-03-30T11:35:07.879Z</time></trkpt><trkpt lat="44.2417733" lon="11.3673588"><ele>369.0</ele><time>2026-03-30T11:35:09.871Z</time></trkpt><trkpt lat="44.2417389" lon="11.3672813"><ele>369.0</ele><time>2026-03-30T11:35:11.87Z</time></trkpt><trkpt lat="44.241702" lon="11.3671628"><ele>369.0</ele><time>2026-03-30T11:35:14.867Z</time></trkpt><trkpt lat="44.241673" lon="11.3670386"><ele>369.0</ele><time>2026-03-30T11:35:17.876Z</time></trkpt><trkpt lat="44.2416522" lon="11.3669153"><ele>370.7142857142857</ele><time>2026-03-30T11:35:20.868Z</time></trkpt><trkpt lat="44.2416376" lon="11.3668291"><ele>372.42857142857144</ele><time>2026-03-30T11:35:22.863Z</time></trkpt><trkpt lat="44.2416235" lon="11.3667164"><ele>374.1428571428571</ele><time>2026-03-30T11:35:25.878Z</time></trkpt><trkpt lat="44.2416128" lon="11.3666208"><ele>375.8571428571429</ele><time>2026-03-30T11:35:28.859Z</time></trkpt><trkpt lat="44.2415971" lon="11.366519"><ele>377.5714285714286</ele><time>2026-03-30T11:35:31.873Z</time></trkpt><trkpt lat="44.2415755" lon="11.3664124"><ele>379.2857142857143</ele><time>2026-03-30T11:35:34.868Z</time></trkpt><trkpt lat="44.2415398" lon="11.3663152"><ele>381.0</ele><time>2026-03-30T11:35:37.88Z</time></trkpt><trkpt lat="44.241494" lon="11.3662405"><ele>382.5</ele><time>2026-03-30T11:35:40.87Z</time></trkpt><trkpt lat="44.2414188" lon="11.3661811"><ele>384.0</ele><time>2026-03-30T11:35:44.868Z</time></trkpt><trkpt lat="44.2413396" lon="11.3661424"><ele>385.5</ele><time>2026-03-30T11:35:47.865Z</time></trkpt><trkpt lat="44.2412721" lon="11.3661363"><ele>387.0</ele><time>2026-03-30T11:35:50.87Z</time></trkpt><trkpt lat="44.2411969" lon="11.3661452"><ele>388.5</ele><time>2026-03-30T11:35:53.87Z</time></trkpt><trkpt lat="44.2411134" lon="11.3661552"><ele>390.0</ele><time>2026-03-30T11:35:56.882Z</time></trkpt><trkpt lat="44.2410302" lon="11.3661698"><ele>390.0</ele><time>2026-03-30T11:35:59.86Z</time></trkpt><trkpt lat="44.2409505" lon="11.3661787"><ele>390.0</ele><time>2026-03-30T11:36:02.87Z</time></trkpt><trkpt lat="44.2408701" lon="11.3661953"><ele>390.0</ele><time>2026-03-30T11:36:05.875Z</time></trkpt><trkpt lat="44.2407851" lon="11.3662056"><ele>390.0</ele><time>2026-03-30T11:36:08.861Z</time></trkpt><trkpt lat="44.2406992" lon="11.3661986"><ele>390.0</ele><time>2026-03-30T11:36:11.872Z</time></trkpt><trkpt lat="44.2406173" lon="11.3661564"><ele>390.0</ele><time>2026-03-30T11:36:14.861Z</time></trkpt><trkpt lat="44.2405413" lon="11.3660811"><ele>389.6666666666667</ele><time>2026-03-30T11:36:17.887Z</time></trkpt><trkpt lat="44.2404722" lon="11.3659962"><ele>389.33333333333337</ele><time>2026-03-30T11:36:20.859Z</time></trkpt><trkpt lat="44.2404227" lon="11.3659325"><ele>389.0</ele><time>2026-03-30T11:36:22.865Z</time></trkpt><trkpt lat="44.2403506" lon="11.3658558"><ele>388.6666666666667</ele><time>2026-03-30T11:36:25.864Z</time></trkpt><trkpt lat="44.240283" lon="11.365795"><ele>388.33333333333337</ele><time>2026-03-30T11:36:28.87Z</time></trkpt><trkpt lat="44.2402072" lon="11.3657527"><ele>388.0</ele><time>2026-03-30T11:36:31.866Z</time></trkpt><trkpt lat="44.2401278" lon="11.3657266"><ele>388.00000000000006</ele><time>2026-03-30T11:36:34.867Z</time></trkpt><trkpt lat="44.2400502" lon="11.3657169"><ele>388.0</ele><time>2026-03-30T11:36:37.86Z</time></trkpt><trkpt lat="44.2399763" lon="11.3657189"><ele>388.0</ele><time>2026-03-30T11:36:40.871Z</time></trkpt><trkpt lat="44.2399041" lon="11.3657164"><ele>388.0</ele><time>2026-03-30T11:36:43.873Z</time></trkpt><trkpt lat="44.2398216" lon="11.3657001"><ele>388.00000000000006</ele><time>2026-03-30T11:36:46.867Z</time></trkpt><trkpt lat="44.2397468" lon="11.3656656"><ele>388.0</ele><time>2026-03-30T11:36:49.865Z</time></trkpt><trkpt lat="44.2396758" lon="11.3656032"><ele>389.50000000000006</ele><time>2026-03-30T11:36:52.863Z</time></trkpt><trkpt lat="44.2396079" lon="11.365521"><ele>391.0</ele><time>2026-03-30T11:36:55.868Z</time></trkpt><trkpt lat="44.2395476" lon="11.365433"><ele>392.5</ele><time>2026-03-30T11:36:58.868Z</time></trkpt><trkpt lat="44.239491" lon="11.3653374"><ele>394.0</ele><time>2026-03-30T11:37:01.861Z</time></trkpt><trkpt lat="44.2394302" lon="11.3652504"><ele>395.50000000000006</ele><time>2026-03-30T11:37:04.861Z</time></trkpt><trkpt lat="44.2393681" lon="11.3651658"><ele>397.0</ele><time>2026-03-30T11:37:07.866Z</time></trkpt><trkpt lat="44.2393032" lon="11.3650857"><ele>397.00000000000006</ele><time>2026-03-30T11:37:10.867Z</time></trkpt><trkpt lat="44.2392339" lon="11.3650127"><ele>397.0</ele><time>2026-03-30T11:37:13.861Z</time></trkpt><trkpt lat="44.2391589" lon="11.3649473"><ele>397.0</ele><time>2026-03-30T11:37:16.867Z</time></trkpt><trkpt lat="44.2390789" lon="11.3648911"><ele>397.0</ele><time>2026-03-30T11:37:19.861Z</time></trkpt><trkpt lat="44.2389961" lon="11.3648456"><ele>397.00000000000006</ele><time>2026-03-30T11:37:22.863Z</time></trkpt><trkpt lat="44.2389112" lon="11.3648104"><ele>397.0</ele><time>2026-03-30T11:37:25.863Z</time></trkpt><trkpt lat="44.2388213" lon="11.3647807"><ele>395.83333333333337</ele><time>2026-03-30T11:37:28.872Z</time></trkpt><trkpt lat="44.2387307" lon="11.3647676"><ele>394.6666666666667</ele><time>2026-03-30T11:37:31.868Z</time></trkpt><trkpt lat="44.2386666" lon="11.3647547"><ele>393.5</ele><time>2026-03-30T11:37:33.865Z</time></trkpt><trkpt lat="44.2386006" lon="11.3647462"><ele>392.33333333333337</ele><time>2026-03-30T11:37:35.873Z</time></trkpt><trkpt lat="44.2385068" lon="11.3647342"><ele>391.1666666666667</ele><time>2026-03-30T11:37:38.867Z</time></trkpt><trkpt lat="44.2384165" lon="11.364717"><ele>390.0</ele><time>2026-03-30T11:37:41.877Z</time></trkpt><trkpt lat="44.2383537" lon="11.364702"><ele>391.57142857142856</ele><time>2026-03-30T11:37:43.867Z</time></trkpt><trkpt lat="44.2382897" lon="11.3646842"><ele>393.1428571428571</ele><time>2026-03-30T11:37:45.854Z</time></trkpt><trkpt lat="44.238227" lon="11.3646555"><ele>394.7142857142857</ele><time>2026-03-30T11:37:47.875Z</time></trkpt><trkpt lat="44.2381645" lon="11.3646228"><ele>396.2857142857143</ele><time>2026-03-30T11:37:49.865Z</time></trkpt><trkpt lat="44.2381011" lon="11.3645829"><ele>397.8571428571429</ele><time>2026-03-30T11:37:51.866Z</time></trkpt><trkpt lat="44.2380393" lon="11.3645409"><ele>399.42857142857144</ele><time>2026-03-30T11:37:53.867Z</time></trkpt><trkpt lat="44.2379813" lon="11.3644947"><ele>401.0</ele><time>2026-03-30T11:37:55.867Z</time></trkpt><trkpt lat="44.2379238" lon="11.3644508"><ele>401.0</ele><time>2026-03-30T11:37:57.873Z</time></trkpt><trkpt lat="44.2378675" lon="11.3644058"><ele>401.0</ele><time>2026-03-30T11:37:59.867Z</time></trkpt><trkpt lat="44.2378111" lon="11.36436"><ele>401.0</ele><time>2026-03-30T11:38:01.872Z</time></trkpt><trkpt lat="44.2377548" lon="11.3643181"><ele>401.0</ele><time>2026-03-30T11:38:03.857Z</time></trkpt><trkpt lat="44.2376993" lon="11.3642765"><ele>401.0</ele><time>2026-03-30T11:38:05.866Z</time></trkpt><trkpt lat="44.2376178" lon="11.3642127"><ele>401.0</ele><time>2026-03-30T11:38:08.876Z</time></trkpt><trkpt lat="44.2375375" lon="11.364151"><ele>401.0</ele><time>2026-03-30T11:38:11.884Z</time></trkpt><trkpt lat="44.2374572" lon="11.3640893"><ele>400.99999999999994</ele><time>2026-03-30T11:38:14.864Z</time></trkpt><trkpt lat="44.2374016" lon="11.3640478"><ele>401.0</ele><time>2026-03-30T11:38:16.875Z</time></trkpt><trkpt lat="44.2373455" lon="11.3640077"><ele>401.0</ele><time>2026-03-30T11:38:18.86Z</time></trkpt><trkpt lat="44.2372638" lon="11.3639517"><ele>401.0</ele><time>2026-03-30T11:38:21.861Z</time></trkpt><trkpt lat="44.237181" lon="11.3638985"><ele>400.99999999999994</ele><time>2026-03-30T11:38:24.86Z</time></trkpt><trkpt lat="44.2370956" lon="11.3638541"><ele>401.0</ele><time>2026-03-30T11:38:27.876Z</time></trkpt><trkpt lat="44.2370087" lon="11.3638214"><ele>403.3333333333333</ele><time>2026-03-30T11:38:30.858Z</time></trkpt><trkpt lat="44.2369474" lon="11.3637988"><ele>405.66666666666663</ele><time>2026-03-30T11:38:32.867Z</time></trkpt><trkpt lat="44.2368562" lon="11.3637761"><ele>408.0</ele><time>2026-03-30T11:38:35.851Z</time></trkpt><trkpt lat="44.2367931" lon="11.3637586"><ele>410.33333333333337</ele><time>2026-03-30T11:38:37.866Z</time></trkpt><trkpt lat="44.236702" lon="11.3637279"><ele>412.6666666666667</ele><time>2026-03-30T11:38:40.867Z</time></trkpt><trkpt lat="44.2366089" lon="11.3637007"><ele>415.0</ele><time>2026-03-30T11:38:43.873Z</time></trkpt><trkpt lat="44.2365153" lon="11.3636742"><ele>413.8571428571429</ele><time>2026-03-30T11:38:46.865Z</time></trkpt><trkpt lat="44.2364506" lon="11.3636435"><ele>412.7142857142857</ele><time>2026-03-30T11:38:48.866Z</time></trkpt><trkpt lat="44.2363828" lon="11.3636087"><ele>411.57142857142856</ele><time>2026-03-30T11:38:50.873Z</time></trkpt><trkpt lat="44.2363119" lon="11.3635689"><ele>410.42857142857144</ele><time>2026-03-30T11:38:52.867Z</time></trkpt><trkpt lat="44.2362432" lon="11.3635218"><ele>409.2857142857143</ele><time>2026-03-30T11:38:54.873Z</time></trkpt><trkpt lat="44.2361843" lon="11.3634844"><ele>408.14285714285717</ele><time>2026-03-30T11:38:56.883Z</time></trkpt><trkpt lat="44.2361134" lon="11.3634349"><ele>407.0</ele><time>2026-03-30T11:38:58.858Z</time></trkpt><trkpt lat="44.2360429" lon="11.363382"><ele>406.99999999999994</ele><time>2026-03-30T11:39:00.866Z</time></trkpt><trkpt lat="44.2359759" lon="11.3633362"><ele>407.0</ele><time>2026-03-30T11:39:02.868Z</time></trkpt><trkpt lat="44.2359141" lon="11.3632884"><ele>407.0</ele><time>2026-03-30T11:39:04.87Z</time></trkpt><trkpt lat="44.2358497" lon="11.3632431"><ele>407.0</ele><time>2026-03-30T11:39:06.864Z</time></trkpt><trkpt lat="44.2357822" lon="11.3631956"><ele>406.99999999999994</ele><time>2026-03-30T11:39:08.869Z</time></trkpt><trkpt lat="44.2357086" lon="11.3631402"><ele>407.0</ele><time>2026-03-30T11:39:10.872Z</time></trkpt><trkpt lat="44.2356307" lon="11.3630892"><ele>406.8</ele><time>2026-03-30T11:39:12.864Z</time></trkpt><trkpt lat="44.2355522" lon="11.3630347"><ele>406.6</ele><time>2026-03-30T11:39:14.87Z</time></trkpt><trkpt lat="44.2354602" lon="11.3629741"><ele>406.40000000000003</ele><time>2026-03-30T11:39:16.873Z</time></trkpt><trkpt lat="44.235362" lon="11.3629063"><ele>406.20000000000005</ele><time>2026-03-30T11:39:18.874Z</time></trkpt><trkpt lat="44.2352547" lon="11.3628425"><ele>406.0</ele><time>2026-03-30T11:39:20.872Z</time></trkpt><trkpt lat="44.2351442" lon="11.3627737"><ele>406.00000000000006</ele><time>2026-03-30T11:39:22.869Z</time></trkpt><trkpt lat="44.2350849" lon="11.3627409"><ele>406.0</ele><time>2026-03-30T11:39:23.861Z</time></trkpt><trkpt lat="44.2349621" lon="11.3626797"><ele>406.0</ele><time>2026-03-30T11:39:25.867Z</time></trkpt><trkpt lat="44.2348934" lon="11.3626455"><ele>406.0</ele><time>2026-03-30T11:39:26.87Z</time></trkpt><trkpt lat="44.2348245" lon="11.3626082"><ele>406.00000000000006</ele><time>2026-03-30T11:39:27.865Z</time></trkpt><trkpt lat="44.2347538" lon="11.3625743"><ele>406.0</ele><time>2026-03-30T11:39:28.865Z</time></trkpt><trkpt lat="44.2346811" lon="11.3625416"><ele>404.6666666666667</ele><time>2026-03-30T11:39:29.873Z</time></trkpt><trkpt lat="44.2346068" lon="11.3625079"><ele>403.33333333333337</ele><time>2026-03-30T11:39:30.874Z</time></trkpt><trkpt lat="44.2345294" lon="11.3624725"><ele>402.0</ele><time>2026-03-30T11:39:31.874Z</time></trkpt><trkpt lat="44.2344497" lon="11.3624361"><ele>400.66666666666663</ele><time>2026-03-30T11:39:32.877Z</time></trkpt><trkpt lat="44.2343663" lon="11.3624005"><ele>399.3333333333333</ele><time>2026-03-30T11:39:33.872Z</time></trkpt><trkpt lat="44.2342813" lon="11.3623636"><ele>398.0</ele><time>2026-03-30T11:39:34.872Z</time></trkpt><trkpt lat="44.234195" lon="11.362323"><ele>398.0</ele><time>2026-03-30T11:39:35.868Z</time></trkpt><trkpt lat="44.2341051" lon="11.3622842"><ele>398.0</ele><time>2026-03-30T11:39:36.865Z</time></trkpt><trkpt lat="44.2340148" lon="11.3622437"><ele>398.0</ele><time>2026-03-30T11:39:37.865Z</time></trkpt><trkpt lat="44.233922" lon="11.362203"><ele>398.0</ele><time>2026-03-30T11:39:38.871Z</time></trkpt><trkpt lat="44.233828" lon="11.3621605"><ele>398.0</ele><time>2026-03-30T11:39:39.876Z</time></trkpt><trkpt lat="44.2337321" lon="11.3621201"><ele>398.0</ele><time>2026-03-30T11:39:40.871Z</time></trkpt><trkpt lat="44.2336372" lon="11.3620745"><ele>398.0</ele><time>2026-03-30T11:39:41.866Z</time></trkpt><trkpt lat="44.2335438" lon="11.3620293"><ele>398.0</ele><time>2026-03-30T11:39:42.873Z</time></trkpt><trkpt lat="44.2334527" lon="11.3619856"><ele>398.0</ele><time>2026-03-30T11:39:43.87Z</time></trkpt><trkpt lat="44.2333616" lon="11.3619365"><ele>398.0</ele><time>2026-03-30T11:39:44.874Z</time></trkpt><trkpt lat="44.2332736" lon="11.3618848"><ele>398.0</ele><time>2026-03-30T11:39:45.873Z</time></trkpt><trkpt lat="44.2331873" lon="11.3618264"><ele>398.0</ele><time>2026-03-30T11:39:46.873Z</time></trkpt><trkpt lat="44.2330978" lon="11.3617668"><ele>398.0</ele><time>2026-03-30T11:39:47.874Z</time></trkpt><trkpt lat="44.2330123" lon="11.3617016"><ele>398.0</ele><time>2026-03-30T11:39:48.877Z</time></trkpt><trkpt lat="44.232929" lon="11.3616386"><ele>398.0</ele><time>2026-03-30T11:39:49.861Z</time></trkpt><trkpt lat="44.2328453" lon="11.3615725"><ele>397.16666666666663</ele><time>2026-03-30T11:39:50.871Z</time></trkpt><trkpt lat="44.2327686" lon="11.3615037"><ele>396.3333333333333</ele><time>2026-03-30T11:39:51.861Z</time></trkpt><trkpt lat="44.2326985" lon="11.3614336"><ele>395.5</ele><time>2026-03-30T11:39:52.873Z</time></trkpt><trkpt lat="44.2326273" lon="11.361358"><ele>394.66666666666663</ele><time>2026-03-30T11:39:53.87Z</time></trkpt><trkpt lat="44.232563" lon="11.3612803"><ele>393.8333333333333</ele><time>2026-03-30T11:39:54.871Z</time></trkpt><trkpt lat="44.2324962" lon="11.361205"><ele>393.0</ele><time>2026-03-30T11:39:55.856Z</time></trkpt><trkpt lat="44.2324301" lon="11.3611285"><ele>393.0</ele><time>2026-03-30T11:39:56.871Z</time></trkpt><trkpt lat="44.2323666" lon="11.361052"><ele>393.0</ele><time>2026-03-30T11:39:57.869Z</time></trkpt><trkpt lat="44.2323041" lon="11.3609757"><ele>393.0</ele><time>2026-03-30T11:39:58.867Z</time></trkpt><trkpt lat="44.2322409" lon="11.3609021"><ele>393.0</ele><time>2026-03-30T11:39:59.871Z</time></trkpt><trkpt lat="44.2321781" lon="11.3608299"><ele>393.0</ele><time>2026-03-30T11:40:00.867Z</time></trkpt><trkpt lat="44.2321142" lon="11.3607631"><ele>393.0</ele><time>2026-03-30T11:40:01.869Z</time></trkpt><trkpt lat="44.2320486" lon="11.3607037"><ele>391.3333333333333</ele><time>2026-03-30T11:40:02.88Z</time></trkpt><trkpt lat="44.2319823" lon="11.3606517"><ele>389.6666666666667</ele><time>2026-03-30T11:40:03.87Z</time></trkpt><trkpt lat="44.231911" lon="11.360613"><ele>388.0</ele><time>2026-03-30T11:40:04.865Z</time></trkpt><trkpt lat="44.2318365" lon="11.3605877"><ele>386.33333333333337</ele><time>2026-03-30T11:40:05.875Z</time></trkpt><trkpt lat="44.2317615" lon="11.360569"><ele>384.6666666666667</ele><time>2026-03-30T11:40:06.864Z</time></trkpt><trkpt lat="44.2316861" lon="11.3605613"><ele>383.0</ele><time>2026-03-30T11:40:07.874Z</time></trkpt><trkpt lat="44.2316099" lon="11.3605612"><ele>383.0</ele><time>2026-03-30T11:40:08.881Z</time></trkpt><trkpt lat="44.2315346" lon="11.3605686"><ele>383.0</ele><time>2026-03-30T11:40:09.867Z</time></trkpt><trkpt lat="44.2314618" lon="11.3605829"><ele>383.0</ele><time>2026-03-30T11:40:10.87Z</time></trkpt><trkpt lat="44.2313908" lon="11.3605998"><ele>383.0</ele><time>2026-03-30T11:40:11.871Z</time></trkpt><trkpt lat="44.2313219" lon="11.3606186"><ele>383.0</ele><time>2026-03-30T11:40:12.867Z</time></trkpt><trkpt lat="44.2312538" lon="11.3606332"><ele>383.0</ele><time>2026-03-30T11:40:13.873Z</time></trkpt><trkpt lat="44.2311882" lon="11.3606464"><ele>383.0</ele><time>2026-03-30T11:40:14.865Z</time></trkpt><trkpt lat="44.2311251" lon="11.3606541"><ele>384.79999999999995</ele><time>2026-03-30T11:40:15.877Z</time></trkpt><trkpt lat="44.2310056" lon="11.3606267"><ele>386.6</ele><time>2026-03-30T11:40:17.878Z</time></trkpt><trkpt lat="44.2309047" lon="11.3605568"><ele>388.4</ele><time>2026-03-30T11:40:19.859Z</time></trkpt><trkpt lat="44.2308233" lon="11.3604757"><ele>390.20000000000005</ele><time>2026-03-30T11:40:21.87Z</time></trkpt><trkpt lat="44.2307657" lon="11.3603968"><ele>392.0</ele><time>2026-03-30T11:40:23.868Z</time></trkpt><trkpt lat="44.2307082" lon="11.3603133"><ele>392.0</ele><time>2026-03-30T11:40:25.878Z</time></trkpt><trkpt lat="44.2306489" lon="11.3602353"><ele>392.0</ele><time>2026-03-30T11:40:27.869Z</time></trkpt><trkpt lat="44.2306027" lon="11.3601675"><ele>392.0</ele><time>2026-03-30T11:40:29.87Z</time></trkpt><trkpt lat="44.230547" lon="11.3600884"><ele>392.0</ele><time>2026-03-30T11:40:31.873Z</time></trkpt><trkpt lat="44.230497" lon="11.3600184"><ele>392.0</ele><time>2026-03-30T11:40:33.88Z</time></trkpt><trkpt lat="44.2304524" lon="11.3599491"><ele>392.0</ele><time>2026-03-30T11:40:35.883Z</time></trkpt><trkpt lat="44.230412" lon="11.3598753"><ele>392.0</ele><time>2026-03-30T11:40:37.867Z</time></trkpt><trkpt lat="44.2303683" lon="11.3598091"><ele>393.14285714285717</ele><time>2026-03-30T11:40:39.865Z</time></trkpt><trkpt lat="44.2303248" lon="11.3597397"><ele>394.2857142857143</ele><time>2026-03-30T11:40:41.865Z</time></trkpt><trkpt lat="44.2302802" lon="11.3596724"><ele>395.42857142857144</ele><time>2026-03-30T11:40:43.87Z</time></trkpt><trkpt lat="44.2302381" lon="11.3596043"><ele>396.57142857142856</ele><time>2026-03-30T11:40:45.868Z</time></trkpt><trkpt lat="44.2301953" lon="11.359536"><ele>397.7142857142857</ele><time>2026-03-30T11:40:47.869Z</time></trkpt><trkpt lat="44.2301302" lon="11.359446"><ele>398.8571428571429</ele><time>2026-03-30T11:40:50.866Z</time></trkpt><trkpt lat="44.230064" lon="11.3593581"><ele>400.0</ele><time>2026-03-30T11:40:53.85Z</time></trkpt><trkpt lat="44.2299958" lon="11.3592738"><ele>400.00000000000006</ele><time>2026-03-30T11:40:56.878Z</time></trkpt><trkpt lat="44.2299248" lon="11.3591978"><ele>400.0</ele><time>2026-03-30T11:40:59.866Z</time></trkpt><trkpt lat="44.229851" lon="11.3591282"><ele>400.0</ele><time>2026-03-30T11:41:02.861Z</time></trkpt><trkpt lat="44.2297749" lon="11.3590754"><ele>400.0</ele><time>2026-03-30T11:41:05.86Z</time></trkpt><trkpt lat="44.2296954" lon="11.3590206"><ele>400.00000000000006</ele><time>2026-03-30T11:41:08.888Z</time></trkpt><trkpt lat="44.2296251" lon="11.3589894"><ele>400.0</ele><time>2026-03-30T11:41:11.879Z</time></trkpt><trkpt lat="44.2295469" lon="11.3589591"><ele>402.1666666666667</ele><time>2026-03-30T11:41:14.862Z</time></trkpt><trkpt lat="44.2294635" lon="11.3589393"><ele>404.33333333333337</ele><time>2026-03-30T11:41:17.865Z</time></trkpt><trkpt lat="44.2293798" lon="11.3589194"><ele>406.5</ele><time>2026-03-30T11:41:20.88Z</time></trkpt><trkpt lat="44.2292993" lon="11.3589097"><ele>408.66666666666663</ele><time>2026-03-30T11:41:23.873Z</time></trkpt><trkpt lat="44.2292155" lon="11.3588989"><ele>410.8333333333333</ele><time>2026-03-30T11:41:26.856Z</time></trkpt><trkpt lat="44.2291342" lon="11.3588963"><ele>413.0</ele><time>2026-03-30T11:41:29.856Z</time></trkpt><trkpt lat="44.2290507" lon="11.3589022"><ele>413.8333333333333</ele><time>2026-03-30T11:41:32.893Z</time></trkpt><trkpt lat="44.2289654" lon="11.358914"><ele>414.66666666666663</ele><time>2026-03-30T11:41:35.861Z</time></trkpt><trkpt lat="44.228883" lon="11.3589151"><ele>415.5</ele><time>2026-03-30T11:41:38.861Z</time></trkpt><trkpt lat="44.228793" lon="11.3589162"><ele>416.33333333333337</ele><time>2026-03-30T11:41:41.867Z</time></trkpt><trkpt lat="44.2287049" lon="11.3589228"><ele>417.1666666666667</ele><time>2026-03-30T11:41:44.858Z</time></trkpt><trkpt lat="44.2286157" lon="11.3589281"><ele>418.0</ele><time>2026-03-30T11:41:47.861Z</time></trkpt><trkpt lat="44.2285247" lon="11.3589348"><ele>418.00000000000006</ele><time>2026-03-30T11:41:50.871Z</time></trkpt><trkpt lat="44.2284387" lon="11.3589416"><ele>418.0</ele><time>2026-03-30T11:41:53.884Z</time></trkpt><trkpt lat="44.2283516" lon="11.3589466"><ele>418.0</ele><time>2026-03-30T11:41:56.859Z</time></trkpt><trkpt lat="44.2282656" lon="11.358952"><ele>418.0</ele><time>2026-03-30T11:41:59.866Z</time></trkpt><trkpt lat="44.2281769" lon="11.3589554"><ele>418.00000000000006</ele><time>2026-03-30T11:42:02.855Z</time></trkpt><trkpt lat="44.2280901" lon="11.3589591"><ele>418.0</ele><time>2026-03-30T11:42:05.868Z</time></trkpt><trkpt lat="44.2280068" lon="11.3589649"><ele>419.00000000000006</ele><time>2026-03-30T11:42:08.86Z</time></trkpt><trkpt lat="44.2279205" lon="11.3589693"><ele>420.0</ele><time>2026-03-30T11:42:11.864Z</time></trkpt><trkpt lat="44.2278332" lon="11.3589711"><ele>421.0</ele><time>2026-03-30T11:42:14.864Z</time></trkpt><trkpt lat="44.2277439" lon="11.3589738"><ele>422.0</ele><time>2026-03-30T11:42:17.864Z</time></trkpt><trkpt lat="44.2276563" lon="11.3589737"><ele>423.00000000000006</ele><time>2026-03-30T11:42:20.855Z</time></trkpt><trkpt lat="44.2275708" lon="11.3589764"><ele>424.0</ele><time>2026-03-30T11:42:23.868Z</time></trkpt><trkpt lat="44.2274857" lon="11.3589757"><ele>424.00000000000006</ele><time>2026-03-30T11:42:26.864Z</time></trkpt><trkpt lat="44.2273982" lon="11.3589747"><ele>424.0</ele><time>2026-03-30T11:42:29.867Z</time></trkpt><trkpt lat="44.2273109" lon="11.358975"><ele>424.0</ele><time>2026-03-30T11:42:32.873Z</time></trkpt><trkpt lat="44.2272236" lon="11.3589726"><ele>424.0</ele><time>2026-03-30T11:42:35.861Z</time></trkpt><trkpt lat="44.2271364" lon="11.3589699"><ele>424.00000000000006</ele><time>2026-03-30T11:42:38.868Z</time></trkpt><trkpt lat="44.2270514" lon="11.3589657"><ele>424.0</ele><time>2026-03-30T11:42:41.866Z</time></trkpt><trkpt lat="44.2269663" lon="11.3589651"><ele>424.50000000000006</ele><time>2026-03-30T11:42:44.862Z</time></trkpt><trkpt lat="44.2268768" lon="11.3589688"><ele>425.0</ele><time>2026-03-30T11:42:47.867Z</time></trkpt><trkpt lat="44.2267865" lon="11.3589698"><ele>425.5</ele><time>2026-03-30T11:42:50.855Z</time></trkpt><trkpt lat="44.2266989" lon="11.3589721"><ele>426.0</ele><time>2026-03-30T11:42:53.872Z</time></trkpt><trkpt lat="44.2266126" lon="11.3589733"><ele>426.50000000000006</ele><time>2026-03-30T11:42:56.867Z</time></trkpt><trkpt lat="44.2265252" lon="11.3589756"><ele>427.0</ele><time>2026-03-30T11:42:59.867Z</time></trkpt><trkpt lat="44.2264359" lon="11.3589829"><ele>427.1666666666667</ele><time>2026-03-30T11:43:02.864Z</time></trkpt><trkpt lat="44.2263496" lon="11.3589868"><ele>427.33333333333337</ele><time>2026-03-30T11:43:05.871Z</time></trkpt><trkpt lat="44.2262615" lon="11.3589795"><ele>427.5</ele><time>2026-03-30T11:43:08.862Z</time></trkpt><trkpt lat="44.226171" lon="11.3589429"><ele>427.66666666666663</ele><time>2026-03-30T11:43:11.883Z</time></trkpt><trkpt lat="44.2261111" lon="11.3588937"><ele>427.8333333333333</ele><time>2026-03-30T11:43:13.871Z</time></trkpt><trkpt lat="44.2260587" lon="11.3588181"><ele>428.0</ele><time>2026-03-30T11:43:15.859Z</time></trkpt><trkpt lat="44.2260203" lon="11.3587255"><ele>427.99999999999994</ele><time>2026-03-30T11:43:17.87Z</time></trkpt><trkpt lat="44.2259991" lon="11.358627"><ele>428.0</ele><time>2026-03-30T11:43:19.869Z</time></trkpt><trkpt lat="44.2259815" lon="11.3585262"><ele>428.0</ele><time>2026-03-30T11:43:21.883Z</time></trkpt><trkpt lat="44.22597" lon="11.3584132"><ele>428.0</ele><time>2026-03-30T11:43:23.87Z</time></trkpt><trkpt lat="44.225969" lon="11.3582969"><ele>427.99999999999994</ele><time>2026-03-30T11:43:25.874Z</time></trkpt><trkpt lat="44.225979" lon="11.3581756"><ele>428.0</ele><time>2026-03-30T11:43:27.866Z</time></trkpt><trkpt lat="44.226017" lon="11.3580669"><ele>430.8333333333333</ele><time>2026-03-30T11:43:29.863Z</time></trkpt><trkpt lat="44.2260612" lon="11.3579647"><ele>433.66666666666663</ele><time>2026-03-30T11:43:31.861Z</time></trkpt><trkpt lat="44.2261271" lon="11.3578851"><ele>436.5</ele><time>2026-03-30T11:43:33.877Z</time></trkpt><trkpt lat="44.2261905" lon="11.3578192"><ele>439.33333333333337</ele><time>2026-03-30T11:43:35.864Z</time></trkpt><trkpt lat="44.2262495" lon="11.3577689"><ele>442.1666666666667</ele><time>2026-03-30T11:43:37.865Z</time></trkpt><trkpt lat="44.2263104" lon="11.3577341"><ele>445.0</ele><time>2026-03-30T11:43:39.863Z</time></trkpt><trkpt lat="44.2263798" lon="11.3576993"><ele>445.00000000000006</ele><time>2026-03-30T11:43:41.877Z</time></trkpt><trkpt lat="44.2264548" lon="11.3576765"><ele>445.0</ele><time>2026-03-30T11:43:43.863Z</time></trkpt><trkpt lat="44.2265418" lon="11.3576493"><ele>445.0</ele><time>2026-03-30T11:43:46.868Z</time></trkpt><trkpt lat="44.2266254" lon="11.3576177"><ele>445.0</ele><time>2026-03-30T11:43:49.86Z</time></trkpt><trkpt lat="44.2267044" lon="11.3575674"><ele>445.00000000000006</ele><time>2026-03-30T11:43:52.868Z</time></trkpt><trkpt lat="44.2267753" lon="11.3575016"><ele>445.0</ele><time>2026-03-30T11:43:55.867Z</time></trkpt><trkpt lat="44.2268405" lon="11.3574159"><ele>444.33333333333337</ele><time>2026-03-30T11:43:58.855Z</time></trkpt><trkpt lat="44.2268768" lon="11.357344"><ele>443.6666666666667</ele><time>2026-03-30T11:44:00.863Z</time></trkpt><trkpt lat="44.2269195" lon="11.3572324"><ele>443.0</ele><time>2026-03-30T11:44:03.868Z</time></trkpt><trkpt lat="44.2269456" lon="11.3571109"><ele>442.33333333333337</ele><time>2026-03-30T11:44:06.879Z</time></trkpt><trkpt lat="44.2269598" lon="11.356986"><ele>441.6666666666667</ele><time>2026-03-30T11:44:09.874Z</time></trkpt><trkpt lat="44.2269533" lon="11.3568605"><ele>441.0</ele><time>2026-03-30T11:44:12.867Z</time></trkpt><trkpt lat="44.2269313" lon="11.3567345"><ele>441.0</ele><time>2026-03-30T11:44:15.873Z</time></trkpt><trkpt lat="44.2269081" lon="11.3566496"><ele>441.0</ele><time>2026-03-30T11:44:17.881Z</time></trkpt><trkpt lat="44.2268792" lon="11.3565678"><ele>441.0</ele><time>2026-03-30T11:44:19.874Z</time></trkpt><trkpt lat="44.22683" lon="11.3564786"><ele>441.0</ele><time>2026-03-30T11:44:22.861Z</time></trkpt><trkpt lat="44.2267721" lon="11.3564209"><ele>441.0</ele><time>2026-03-30T11:44:25.861Z</time></trkpt><trkpt lat="44.2267169" lon="11.3563711"><ele>441.0</ele><time>2026-03-30T11:44:27.865Z</time></trkpt><trkpt lat="44.2266522" lon="11.3563352"><ele>441.0</ele><time>2026-03-30T11:44:29.877Z</time></trkpt><trkpt lat="44.2265858" lon="11.3563048"><ele>439.57142857142856</ele><time>2026-03-30T11:44:31.868Z</time></trkpt><trkpt lat="44.2265166" lon="11.3562852"><ele>438.1428571428571</ele><time>2026-03-30T11:44:33.851Z</time></trkpt><trkpt lat="44.2264465" lon="11.3562714"><ele>436.7142857142857</ele><time>2026-03-30T11:44:35.853Z</time></trkpt><trkpt lat="44.226378" lon="11.3562637"><ele>435.2857142857143</ele><time>2026-03-30T11:44:37.868Z</time></trkpt><trkpt lat="44.2263066" lon="11.3562513"><ele>433.85714285714283</ele><time>2026-03-30T11:44:39.868Z</time></trkpt><trkpt lat="44.2262355" lon="11.3562375"><ele>432.42857142857144</ele><time>2026-03-30T11:44:41.872Z</time></trkpt><trkpt lat="44.2261631" lon="11.3562207"><ele>431.0</ele><time>2026-03-30T11:44:43.869Z</time></trkpt><trkpt lat="44.2260874" lon="11.3562003"><ele>431.0</ele><time>2026-03-30T11:44:45.876Z</time></trkpt><trkpt lat="44.2260131" lon="11.3561804"><ele>431.0</ele><time>2026-03-30T11:44:47.873Z</time></trkpt><trkpt lat="44.2259395" lon="11.3561587"><ele>431.0</ele><time>2026-03-30T11:44:49.868Z</time></trkpt><trkpt lat="44.225867" lon="11.3561357"><ele>431.0</ele><time>2026-03-30T11:44:51.873Z</time></trkpt><trkpt lat="44.2257947" lon="11.3561161"><ele>431.0</ele><time>2026-03-30T11:44:53.866Z</time></trkpt><trkpt lat="44.2257218" lon="11.3560948"><ele>431.0</ele><time>2026-03-30T11:44:55.874Z</time></trkpt><trkpt lat="44.2256497" lon="11.3560735"><ele>431.0</ele><time>2026-03-30T11:44:57.871Z</time></trkpt><trkpt lat="44.2255771" lon="11.3560488"><ele>433.99999999999994</ele><time>2026-03-30T11:44:59.877Z</time></trkpt><trkpt lat="44.225501" lon="11.3560233"><ele>437.0</ele><time>2026-03-30T11:45:01.866Z</time></trkpt><trkpt lat="44.2254265" lon="11.3559965"><ele>440.0</ele><time>2026-03-30T11:45:03.869Z</time></trkpt><trkpt lat="44.2253525" lon="11.3559669"><ele>443.0</ele><time>2026-03-30T11:45:05.868Z</time></trkpt><trkpt lat="44.225279" lon="11.3559425"><ele>445.99999999999994</ele><time>2026-03-30T11:45:07.863Z</time></trkpt><trkpt lat="44.2251977" lon="11.3559124"><ele>449.0</ele><time>2026-03-30T11:45:09.872Z</time></trkpt><trkpt lat="44.2251126" lon="11.3558778"><ele>448.99999999999994</ele><time>2026-03-30T11:45:11.868Z</time></trkpt><trkpt lat="44.2250312" lon="11.3558496"><ele>449.0</ele><time>2026-03-30T11:45:13.867Z</time></trkpt><trkpt lat="44.2249436" lon="11.3558215"><ele>449.0</ele><time>2026-03-30T11:45:15.868Z</time></trkpt><trkpt lat="44.2248639" lon="11.3557829"><ele>449.0</ele><time>2026-03-30T11:45:17.858Z</time></trkpt><trkpt lat="44.224788" lon="11.3557314"><ele>448.99999999999994</ele><time>2026-03-30T11:45:19.865Z</time></trkpt><trkpt lat="44.224716" lon="11.3556712"><ele>449.0</ele><time>2026-03-30T11:45:21.874Z</time></trkpt><trkpt lat="44.2246494" lon="11.3555965"><ele>449.16666666666663</ele><time>2026-03-30T11:45:23.865Z</time></trkpt><trkpt lat="44.2245846" lon="11.3555075"><ele>449.3333333333333</ele><time>2026-03-30T11:45:25.868Z</time></trkpt><trkpt lat="44.2245219" lon="11.3554189"><ele>449.5</ele><time>2026-03-30T11:45:27.875Z</time></trkpt><trkpt lat="44.2244604" lon="11.3553312"><ele>449.66666666666663</ele><time>2026-03-30T11:45:29.873Z</time></trkpt><trkpt lat="44.2244042" lon="11.355253"><ele>449.8333333333333</ele><time>2026-03-30T11:45:31.876Z</time></trkpt><trkpt lat="44.2243463" lon="11.3551847"><ele>450.0</ele><time>2026-03-30T11:45:33.863Z</time></trkpt><trkpt lat="44.2242874" lon="11.3551064"><ele>450.0</ele><time>2026-03-30T11:45:35.863Z</time></trkpt><trkpt lat="44.2242308" lon="11.35501"><ele>450.0</ele><time>2026-03-30T11:45:37.876Z</time></trkpt><trkpt lat="44.2241777" lon="11.3549447"><ele>450.0</ele><time>2026-03-30T11:45:39.866Z</time></trkpt><trkpt lat="44.2241359" lon="11.3548709"><ele>450.0</ele><time>2026-03-30T11:45:41.852Z</time></trkpt><trkpt lat="44.2240897" lon="11.3548019"><ele>450.0</ele><time>2026-03-30T11:45:43.866Z</time></trkpt><trkpt lat="44.2240312" lon="11.3546954"><ele>450.0</ele><time>2026-03-30T11:45:46.869Z</time></trkpt><trkpt lat="44.2239899" lon="11.3546285"><ele>449.5</ele><time>2026-03-30T11:45:48.861Z</time></trkpt><trkpt lat="44.2239178" lon="11.3545695"><ele>449.0</ele><time>2026-03-30T11:45:51.87Z</time></trkpt><trkpt lat="44.2238416" lon="11.3545409"><ele>448.5</ele><time>2026-03-30T11:45:54.869Z</time></trkpt><trkpt lat="44.2237538" lon="11.354531"><ele>448.0</ele><time>2026-03-30T11:45:57.871Z</time></trkpt><trkpt lat="44.2236599" lon="11.3545322"><ele>447.5</ele><time>2026-03-30T11:46:00.873Z</time></trkpt><trkpt lat="44.2235747" lon="11.3545332"><ele>447.0</ele><time>2026-03-30T11:46:03.878Z</time></trkpt><trkpt lat="44.2234834" lon="11.3545171"><ele>447.0</ele><time>2026-03-30T11:46:06.865Z</time></trkpt><trkpt lat="44.2233962" lon="11.354472"><ele>447.0</ele><time>2026-03-30T11:46:09.879Z</time></trkpt><trkpt lat="44.223313" lon="11.3544145"><ele>447.0</ele><time>2026-03-30T11:46:12.86Z</time></trkpt><trkpt lat="44.2232558" lon="11.3543685"><ele>447.0</ele><time>2026-03-30T11:46:14.865Z</time></trkpt><trkpt lat="44.2232033" lon="11.3543147"><ele>447.0</ele><time>2026-03-30T11:46:16.874Z</time></trkpt><trkpt lat="44.22314" lon="11.3542405"><ele>447.0</ele><time>2026-03-30T11:46:18.868Z</time></trkpt><trkpt lat="44.2230902" lon="11.3541741"><ele>449.0</ele><time>2026-03-30T11:46:20.871Z</time></trkpt><trkpt lat="44.2230354" lon="11.354099"><ele>451.0</ele><time>2026-03-30T11:46:22.863Z</time></trkpt><trkpt lat="44.2229987" lon="11.3540016"><ele>453.0</ele><time>2026-03-30T11:46:24.869Z</time></trkpt><trkpt lat="44.2229661" lon="11.3539165"><ele>455.0</ele><time>2026-03-30T11:46:26.868Z</time></trkpt><trkpt lat="44.2229127" lon="11.3538153"><ele>457.0</ele><time>2026-03-30T11:46:29.866Z</time></trkpt><trkpt lat="44.2228653" lon="11.353745"><ele>459.0</ele><time>2026-03-30T11:46:32.868Z</time></trkpt><trkpt lat="44.222809" lon="11.3536823"><ele>459.0</ele><time>2026-03-30T11:46:36.868Z</time></trkpt><trkpt lat="44.222747" lon="11.353651"><ele>459.0</ele><time>2026-03-30T11:46:39.861Z</time></trkpt><trkpt lat="44.2226735" lon="11.3536338"><ele>459.0</ele><time>2026-03-30T11:46:42.87Z</time></trkpt><trkpt lat="44.2226104" lon="11.3536261"><ele>459.0</ele><time>2026-03-30T11:46:44.87Z</time></trkpt><trkpt lat="44.222547" lon="11.3536212"><ele>459.0</ele><time>2026-03-30T11:46:46.871Z</time></trkpt><trkpt lat="44.2224834" lon="11.3536137"><ele>459.0</ele><time>2026-03-30T11:46:48.868Z</time></trkpt><trkpt lat="44.2224188" lon="11.353595"><ele>459.0</ele><time>2026-03-30T11:46:50.863Z</time></trkpt><trkpt lat="44.2223566" lon="11.3535626"><ele>461.1666666666667</ele><time>2026-03-30T11:46:52.864Z</time></trkpt><trkpt lat="44.2222745" lon="11.3534981"><ele>463.33333333333337</ele><time>2026-03-30T11:46:55.861Z</time></trkpt><trkpt lat="44.2222319" lon="11.3534334"><ele>465.5</ele><time>2026-03-30T11:46:57.867Z</time></trkpt><trkpt lat="44.2221995" lon="11.3533564"><ele>467.6666666666667</ele><time>2026-03-30T11:46:59.865Z</time></trkpt><trkpt lat="44.2221564" lon="11.3532423"><ele>469.83333333333337</ele><time>2026-03-30T11:47:02.874Z</time></trkpt><trkpt lat="44.2221292" lon="11.3531582"><ele>472.0</ele><time>2026-03-30T11:47:04.847Z</time></trkpt><trkpt lat="44.2221099" lon="11.3530477"><ele>470.6666666666667</ele><time>2026-03-30T11:47:06.875Z</time></trkpt><trkpt lat="44.222114" lon="11.3528973"><ele>469.33333333333337</ele><time>2026-03-30T11:47:08.869Z</time></trkpt><trkpt lat="44.2221227" lon="11.35281"><ele>468.0</ele><time>2026-03-30T11:47:09.867Z</time></trkpt><trkpt lat="44.2221273" lon="11.3527158"><ele>466.66666666666663</ele><time>2026-03-30T11:47:10.871Z</time></trkpt><trkpt lat="44.2221267" lon="11.3526162"><ele>465.3333333333333</ele><time>2026-03-30T11:47:11.862Z</time></trkpt><trkpt lat="44.2221175" lon="11.3525139"><ele>464.0</ele><time>2026-03-30T11:47:12.874Z</time></trkpt><trkpt lat="44.2221018" lon="11.3524081"><ele>463.99999999999994</ele><time>2026-03-30T11:47:13.867Z</time></trkpt><trkpt lat="44.2220761" lon="11.3523015"><ele>464.0</ele><time>2026-03-30T11:47:14.863Z</time></trkpt><trkpt lat="44.2220473" lon="11.3521911"><ele>464.0</ele><time>2026-03-30T11:47:15.871Z</time></trkpt><trkpt lat="44.2220178" lon="11.3520766"><ele>464.0</ele><time>2026-03-30T11:47:16.863Z</time></trkpt><trkpt lat="44.2219975" lon="11.3519523"><ele>463.99999999999994</ele><time>2026-03-30T11:47:17.872Z</time></trkpt><trkpt lat="44.2219962" lon="11.3518218"><ele>464.0</ele><time>2026-03-30T11:47:18.862Z</time></trkpt><trkpt lat="44.2219964" lon="11.351689"><ele>462.2</ele><time>2026-03-30T11:47:19.864Z</time></trkpt><trkpt lat="44.2219953" lon="11.3515576"><ele>460.4</ele><time>2026-03-30T11:47:20.866Z</time></trkpt><trkpt lat="44.2219947" lon="11.3514271"><ele>458.6</ele><time>2026-03-30T11:47:21.871Z</time></trkpt><trkpt lat="44.2220106" lon="11.3513313"><ele>456.8</ele><time>2026-03-30T11:47:22.864Z</time></trkpt><trkpt lat="44.2221038" lon="11.3512289"><ele>455.0</ele><time>2026-03-30T11:47:24.87Z</time></trkpt><trkpt lat="44.2222006" lon="11.3513223"><ele>455.0</ele><time>2026-03-30T11:47:26.864Z</time></trkpt><trkpt lat="44.2222191" lon="11.3514116"><ele>455.0</ele><time>2026-03-30T11:47:27.88Z</time></trkpt><trkpt lat="44.2222294" lon="11.3515071"><ele>455.0</ele><time>2026-03-30T11:47:28.873Z</time></trkpt><trkpt lat="44.2222426" lon="11.3516022"><ele>455.0</ele><time>2026-03-30T11:47:29.863Z</time></trkpt><trkpt lat="44.2222624" lon="11.3517035"><ele>455.0</ele><time>2026-03-30T11:47:30.87Z</time></trkpt><trkpt lat="44.2222906" lon="11.3518063"><ele>455.0</ele><time>2026-03-30T11:47:31.869Z</time></trkpt><trkpt lat="44.2223293" lon="11.3519105"><ele>455.0</ele><time>2026-03-30T11:47:32.869Z</time></trkpt><trkpt lat="44.2223854" lon="11.3520039"><ele>452.8</ele><time>2026-03-30T11:47:33.855Z</time></trkpt><trkpt lat="44.2224577" lon="11.3520787"><ele>450.6</ele><time>2026-03-30T11:47:34.868Z</time></trkpt><trkpt lat="44.2225428" lon="11.3521334"><ele>448.4</ele><time>2026-03-30T11:47:35.861Z</time></trkpt><trkpt lat="44.2226361" lon="11.3521792"><ele>446.2</ele><time>2026-03-30T11:47:36.869Z</time></trkpt><trkpt lat="44.2227349" lon="11.352221"><ele>444.0</ele><time>2026-03-30T11:47:37.872Z</time></trkpt><trkpt lat="44.2228365" lon="11.3522622"><ele>444.0</ele><time>2026-03-30T11:47:38.86Z</time></trkpt><trkpt lat="44.2229393" lon="11.3523055"><ele>444.0</ele><time>2026-03-30T11:47:39.867Z</time></trkpt><trkpt lat="44.2230412" lon="11.3523632"><ele>444.0</ele><time>2026-03-30T11:47:40.865Z</time></trkpt><trkpt lat="44.2231329" lon="11.3524528"><ele>444.0</ele><time>2026-03-30T11:47:41.864Z</time></trkpt><trkpt lat="44.223214" lon="11.3525635"><ele>444.0</ele><time>2026-03-30T11:47:42.873Z</time></trkpt><trkpt lat="44.2232918" lon="11.3526816"><ele>442.25</ele><time>2026-03-30T11:47:43.867Z</time></trkpt><trkpt lat="44.2233709" lon="11.3528034"><ele>440.5</ele><time>2026-03-30T11:47:44.873Z</time></trkpt><trkpt lat="44.2234496" lon="11.3529253"><ele>438.75</ele><time>2026-03-30T11:47:45.865Z</time></trkpt><trkpt lat="44.2235331" lon="11.3530419"><ele>437.0</ele><time>2026-03-30T11:47:46.863Z</time></trkpt><trkpt lat="44.2236241" lon="11.3531319"><ele>437.0</ele><time>2026-03-30T11:47:47.862Z</time></trkpt><trkpt lat="44.2237282" lon="11.3531788"><ele>437.00000000000006</ele><time>2026-03-30T11:47:48.868Z</time></trkpt><trkpt lat="44.2238392" lon="11.3531804"><ele>437.00000000000006</ele><time>2026-03-30T11:47:49.861Z</time></trkpt><trkpt lat="44.2239476" lon="11.3531388"><ele>437.0</ele><time>2026-03-30T11:47:50.858Z</time></trkpt><trkpt lat="44.2240359" lon="11.3530531"><ele>437.0</ele><time>2026-03-30T11:47:51.873Z</time></trkpt><trkpt lat="44.2241104" lon="11.3529459"><ele>434.40000000000003</ele><time>2026-03-30T11:47:52.871Z</time></trkpt><trkpt lat="44.224194" lon="11.3528555"><ele>431.80000000000007</ele><time>2026-03-30T11:47:53.873Z</time></trkpt><trkpt lat="44.2242918" lon="11.3528158"><ele>429.2</ele><time>2026-03-30T11:47:54.866Z</time></trkpt><trkpt lat="44.224386" lon="11.3528345"><ele>426.6</ele><time>2026-03-30T11:47:55.876Z</time></trkpt><trkpt lat="44.2244632" lon="11.352893"><ele>424.0</ele><time>2026-03-30T11:47:56.863Z</time></trkpt><trkpt lat="44.2245261" lon="11.3529583"><ele>424.0</ele><time>2026-03-30T11:47:57.885Z</time></trkpt><trkpt lat="44.2245816" lon="11.3530181"><ele>424.0</ele><time>2026-03-30T11:47:58.884Z</time></trkpt><trkpt lat="44.2246795" lon="11.3531161"><ele>424.0</ele><time>2026-03-30T11:48:00.866Z</time></trkpt><trkpt lat="44.2247633" lon="11.3531954"><ele>424.0</ele><time>2026-03-30T11:48:02.866Z</time></trkpt><trkpt lat="44.224836" lon="11.3532629"><ele>424.0</ele><time>2026-03-30T11:48:04.876Z</time></trkpt><trkpt lat="44.2248997" lon="11.3533135"><ele>425.50000000000006</ele><time>2026-03-30T11:48:06.862Z</time></trkpt><trkpt lat="44.2249589" lon="11.353366"><ele>427.0</ele><time>2026-03-30T11:48:08.865Z</time></trkpt><trkpt lat="44.2250121" lon="11.3534213"><ele>428.5</ele><time>2026-03-30T11:48:10.855Z</time></trkpt><trkpt lat="44.2250652" lon="11.3534739"><ele>430.0</ele><time>2026-03-30T11:48:12.871Z</time></trkpt><trkpt lat="44.2251418" lon="11.3535439"><ele>431.50000000000006</ele><time>2026-03-30T11:48:15.873Z</time></trkpt><trkpt lat="44.2252157" lon="11.3536102"><ele>433.0</ele><time>2026-03-30T11:48:18.881Z</time></trkpt><trkpt lat="44.2252869" lon="11.3536841"><ele>433.00000000000006</ele><time>2026-03-30T11:48:21.863Z</time></trkpt><trkpt lat="44.2253349" lon="11.3537432"><ele>433.0</ele><time>2026-03-30T11:48:23.863Z</time></trkpt><trkpt lat="44.225393" lon="11.3538307"><ele>433.0</ele><time>2026-03-30T11:48:26.875Z</time></trkpt><trkpt lat="44.2254528" lon="11.3539318"><ele>433.0</ele><time>2026-03-30T11:48:29.867Z</time></trkpt><trkpt lat="44.2254919" lon="11.3540009"><ele>433.00000000000006</ele><time>2026-03-30T11:48:31.863Z</time></trkpt><trkpt lat="44.2255426" lon="11.3540834"><ele>433.0</ele><time>2026-03-30T11:48:34.873Z</time></trkpt><trkpt lat="44.2255925" lon="11.3541614"><ele>433.85714285714283</ele><time>2026-03-30T11:48:37.879Z</time></trkpt><trkpt lat="44.2256482" lon="11.3542274"><ele>434.7142857142857</ele><time>2026-03-30T11:48:41.875Z</time></trkpt><trkpt lat="44.2257246" lon="11.3542621"><ele>435.57142857142856</ele><time>2026-03-30T11:48:44.86Z</time></trkpt><trkpt lat="44.2258001" lon="11.3542398"><ele>436.42857142857144</ele><time>2026-03-30T11:48:47.863Z</time></trkpt><trkpt lat="44.2258315" lon="11.3541404"><ele>437.2857142857143</ele><time>2026-03-30T11:48:51.87Z</time></trkpt><trkpt lat="44.2258144" lon="11.3540531"><ele>438.1428571428571</ele><time>2026-03-30T11:48:54.876Z</time></trkpt><trkpt lat="44.2257817" lon="11.353974"><ele>439.0</ele><time>2026-03-30T11:48:57.855Z</time></trkpt><trkpt lat="44.2257345" lon="11.3539067"><ele>438.1428571428571</ele><time>2026-03-30T11:49:00.869Z</time></trkpt><trkpt lat="44.2256906" lon="11.3538357"><ele>437.2857142857143</ele><time>2026-03-30T11:49:03.884Z</time></trkpt><trkpt lat="44.2256529" lon="11.3537534"><ele>436.42857142857144</ele><time>2026-03-30T11:49:06.867Z</time></trkpt><trkpt lat="44.2256301" lon="11.3536597"><ele>435.57142857142856</ele><time>2026-03-30T11:49:09.861Z</time></trkpt><trkpt lat="44.2256224" lon="11.3535506"><ele>434.7142857142857</ele><time>2026-03-30T11:49:13.875Z</time></trkpt><trkpt lat="44.2256401" lon="11.353442"><ele>433.85714285714283</ele><time>2026-03-30T11:49:17.874Z</time></trkpt><trkpt lat="44.225672" lon="11.3533606"><ele>433.0</ele><time>2026-03-30T11:49:19.862Z</time></trkpt><trkpt lat="44.2257125" lon="11.3532622"><ele>435.1428571428571</ele><time>2026-03-30T11:49:22.869Z</time></trkpt><trkpt lat="44.2257416" lon="11.3531756"><ele>437.2857142857143</ele><time>2026-03-30T11:49:25.878Z</time></trkpt><trkpt lat="44.2257672" lon="11.3530798"><ele>439.42857142857144</ele><time>2026-03-30T11:49:28.87Z</time></trkpt><trkpt lat="44.2257842" lon="11.3529778"><ele>441.57142857142856</ele><time>2026-03-30T11:49:31.867Z</time></trkpt><trkpt lat="44.225792" lon="11.3528764"><ele>443.7142857142857</ele><time>2026-03-30T11:49:34.866Z</time></trkpt><trkpt lat="44.2257894" lon="11.3527808"><ele>445.85714285714283</ele><time>2026-03-30T11:49:37.873Z</time></trkpt><trkpt lat="44.2257786" lon="11.3526826"><ele>448.0</ele><time>2026-03-30T11:49:40.87Z</time></trkpt><trkpt lat="44.2257629" lon="11.3525934"><ele>448.57142857142856</ele><time>2026-03-30T11:49:43.864Z</time></trkpt><trkpt lat="44.2257552" lon="11.3524805"><ele>449.1428571428571</ele><time>2026-03-30T11:49:47.869Z</time></trkpt><trkpt lat="44.2257437" lon="11.3523931"><ele>449.7142857142857</ele><time>2026-03-30T11:49:50.877Z</time></trkpt><trkpt lat="44.2257314" lon="11.3523011"><ele>450.2857142857143</ele><time>2026-03-30T11:49:53.856Z</time></trkpt><trkpt lat="44.2257233" lon="11.3522116"><ele>450.85714285714283</ele><time>2026-03-30T11:49:56.873Z</time></trkpt><trkpt lat="44.2257135" lon="11.3521236"><ele>451.42857142857144</ele><time>2026-03-30T11:49:59.875Z</time></trkpt><trkpt lat="44.2257004" lon="11.3520125"><ele>452.0</ele><time>2026-03-30T11:50:03.854Z</time></trkpt><trkpt lat="44.2256803" lon="11.351928"><ele>451.2857142857143</ele><time>2026-03-30T11:50:06.868Z</time></trkpt><trkpt lat="44.2256628" lon="11.3518432"><ele>450.57142857142856</ele><time>2026-03-30T11:50:09.886Z</time></trkpt><trkpt lat="44.2256374" lon="11.3517617"><ele>449.85714285714283</ele><time>2026-03-30T11:50:12.871Z</time></trkpt><trkpt lat="44.2256148" lon="11.351679"><ele>449.1428571428571</ele><time>2026-03-30T11:50:15.862Z</time></trkpt><trkpt lat="44.2255778" lon="11.3515755"><ele>448.42857142857144</ele><time>2026-03-30T11:50:19.857Z</time></trkpt><trkpt lat="44.2255313" lon="11.3514809"><ele>447.71428571428567</ele><time>2026-03-30T11:50:23.877Z</time></trkpt><trkpt lat="44.2254757" lon="11.3513997"><ele>447.0</ele><time>2026-03-30T11:50:27.865Z</time></trkpt><trkpt lat="44.2254144" lon="11.3513278"><ele>449.4285714285714</ele><time>2026-03-30T11:50:31.854Z</time></trkpt><trkpt lat="44.2253507" lon="11.3512602"><ele>451.8571428571429</ele><time>2026-03-30T11:50:35.865Z</time></trkpt><trkpt lat="44.2253002" lon="11.3512014"><ele>454.28571428571433</ele><time>2026-03-30T11:50:38.871Z</time></trkpt><trkpt lat="44.2252504" lon="11.3511415"><ele>456.7142857142857</ele><time>2026-03-30T11:50:41.861Z</time></trkpt><trkpt lat="44.225198" lon="11.351083"><ele>459.14285714285717</ele><time>2026-03-30T11:50:44.879Z</time></trkpt><trkpt lat="44.225141" lon="11.3510251"><ele>461.5714285714286</ele><time>2026-03-30T11:50:47.87Z</time></trkpt><trkpt lat="44.2250867" lon="11.3509793"><ele>464.00000000000006</ele><time>2026-03-30T11:50:50.87Z</time></trkpt><trkpt lat="44.2250382" lon="11.3509206"><ele>464.00000000000006</ele><time>2026-03-30T11:50:53.875Z</time></trkpt><trkpt lat="44.2249881" lon="11.3508626"><ele>464.0</ele><time>2026-03-30T11:50:56.875Z</time></trkpt><trkpt lat="44.2249385" lon="11.3508039"><ele>464.00000000000006</ele><time>2026-03-30T11:50:59.868Z</time></trkpt><trkpt lat="44.2248869" lon="11.3507486"><ele>464.00000000000006</ele><time>2026-03-30T11:51:02.881Z</time></trkpt><trkpt lat="44.2248382" lon="11.3506902"><ele>464.0</ele><time>2026-03-30T11:51:05.868Z</time></trkpt><trkpt lat="44.2247843" lon="11.35063"><ele>464.00000000000006</ele><time>2026-03-30T11:51:08.875Z</time></trkpt><trkpt lat="44.2247345" lon="11.3505659"><ele>464.00000000000006</ele><time>2026-03-30T11:51:11.871Z</time></trkpt><trkpt lat="44.224688" lon="11.3504936"><ele>463.8571428571429</ele><time>2026-03-30T11:51:14.864Z</time></trkpt><trkpt lat="44.2246445" lon="11.3504135"><ele>463.7142857142857</ele><time>2026-03-30T11:51:17.865Z</time></trkpt><trkpt lat="44.2246074" lon="11.3503341"><ele>463.57142857142856</ele><time>2026-03-30T11:51:20.867Z</time></trkpt><trkpt lat="44.2245689" lon="11.3502604"><ele>463.42857142857144</ele><time>2026-03-30T11:51:23.872Z</time></trkpt><trkpt lat="44.2245275" lon="11.3501854"><ele>463.2857142857142</ele><time>2026-03-30T11:51:26.871Z</time></trkpt><trkpt lat="44.2244759" lon="11.3501167"><ele>463.1428571428571</ele><time>2026-03-30T11:51:29.871Z</time></trkpt><trkpt lat="44.2244334" lon="11.3500497"><ele>463.0</ele><time>2026-03-30T11:51:32.864Z</time></trkpt><trkpt lat="44.2243897" lon="11.34997"><ele>463.00000000000006</ele><time>2026-03-30T11:51:35.877Z</time></trkpt><trkpt lat="44.2243435" lon="11.3498772"><ele>463.0</ele><time>2026-03-30T11:51:38.858Z</time></trkpt><trkpt lat="44.2243051" lon="11.3497825"><ele>463.0</ele><time>2026-03-30T11:51:41.877Z</time></trkpt><trkpt lat="44.2242822" lon="11.3496823"><ele>463.0</ele><time>2026-03-30T11:51:44.867Z</time></trkpt><trkpt lat="44.2242751" lon="11.3495621"><ele>463.00000000000006</ele><time>2026-03-30T11:51:47.868Z</time></trkpt><trkpt lat="44.2242714" lon="11.3494607"><ele>463.0</ele><time>2026-03-30T11:51:50.857Z</time></trkpt><trkpt lat="44.2242768" lon="11.3493626"><ele>465.0</ele><time>2026-03-30T11:51:53.865Z</time></trkpt><trkpt lat="44.2242762" lon="11.3492653"><ele>466.99999999999994</ele><time>2026-03-30T11:51:56.852Z</time></trkpt><trkpt lat="44.2242782" lon="11.3491665"><ele>469.0</ele><time>2026-03-30T11:51:59.87Z</time></trkpt><trkpt lat="44.2242707" lon="11.3490707"><ele>471.0</ele><time>2026-03-30T11:52:02.873Z</time></trkpt><trkpt lat="44.2242579" lon="11.3489804"><ele>472.99999999999994</ele><time>2026-03-30T11:52:05.866Z</time></trkpt><trkpt lat="44.2242401" lon="11.3488893"><ele>475.0</ele><time>2026-03-30T11:52:08.874Z</time></trkpt><trkpt lat="44.224214" lon="11.3488013"><ele>477.0</ele><time>2026-03-30T11:52:11.875Z</time></trkpt><trkpt lat="44.2241783" lon="11.3487181"><ele>477.4285714285714</ele><time>2026-03-30T11:52:14.874Z</time></trkpt><trkpt lat="44.2241375" lon="11.3486365"><ele>477.8571428571428</ele><time>2026-03-30T11:52:17.858Z</time></trkpt><trkpt lat="44.224093" lon="11.3485541"><ele>478.2857142857143</ele><time>2026-03-30T11:52:21.873Z</time></trkpt><trkpt lat="44.22405" lon="11.3484758"><ele>478.71428571428567</ele><time>2026-03-30T11:52:24.867Z</time></trkpt><trkpt lat="44.224006" lon="11.3483966"><ele>479.1428571428571</ele><time>2026-03-30T11:52:27.885Z</time></trkpt><trkpt lat="44.223958" lon="11.3483201"><ele>479.57142857142856</ele><time>2026-03-30T11:52:30.87Z</time></trkpt><trkpt lat="44.2239058" lon="11.3482513"><ele>480.0</ele><time>2026-03-30T11:52:33.867Z</time></trkpt><trkpt lat="44.2238566" lon="11.3481877"><ele>480.0</ele><time>2026-03-30T11:52:36.865Z</time></trkpt><trkpt lat="44.2237959" lon="11.3481356"><ele>480.0</ele><time>2026-03-30T11:52:39.871Z</time></trkpt><trkpt lat="44.2237341" lon="11.3480911"><ele>480.0</ele><time>2026-03-30T11:52:42.875Z</time></trkpt><trkpt lat="44.2236691" lon="11.3480701"><ele>480.0</ele><time>2026-03-30T11:52:45.854Z</time></trkpt><trkpt lat="44.2236021" lon="11.3480487"><ele>480.0</ele><time>2026-03-30T11:52:48.865Z</time></trkpt><trkpt lat="44.2235341" lon="11.3480383"><ele>480.0</ele><time>2026-03-30T11:52:51.869Z</time></trkpt><trkpt lat="44.2234546" lon="11.3480285"><ele>480.0</ele><time>2026-03-30T11:52:55.864Z</time></trkpt><trkpt lat="44.2233875" lon="11.3480189"><ele>481.0</ele><time>2026-03-30T11:52:58.869Z</time></trkpt><trkpt lat="44.2233134" lon="11.3480015"><ele>482.0</ele><time>2026-03-30T11:53:01.868Z</time></trkpt><trkpt lat="44.2232437" lon="11.3479851"><ele>483.0</ele><time>2026-03-30T11:53:04.87Z</time></trkpt><trkpt lat="44.2231762" lon="11.3479727"><ele>484.0</ele><time>2026-03-30T11:53:07.868Z</time></trkpt><trkpt lat="44.2231122" lon="11.3479577"><ele>485.0</ele><time>2026-03-30T11:53:10.85Z</time></trkpt><trkpt lat="44.2230477" lon="11.3479363"><ele>486.0</ele><time>2026-03-30T11:53:13.87Z</time></trkpt><trkpt lat="44.2229857" lon="11.3478713"><ele>487.0</ele><time>2026-03-30T11:53:16.876Z</time></trkpt><trkpt lat="44.2229864" lon="11.3477742"><ele>487.00000000000006</ele><time>2026-03-30T11:53:19.868Z</time></trkpt><trkpt lat="44.223031" lon="11.3476789"><ele>487.0</ele><time>2026-03-30T11:53:22.865Z</time></trkpt><trkpt lat="44.2231245" lon="11.347613"><ele>487.0</ele><time>2026-03-30T11:53:26.879Z</time></trkpt><trkpt lat="44.2232035" lon="11.3475748"><ele>487.0</ele><time>2026-03-30T11:53:29.869Z</time></trkpt><trkpt lat="44.2232797" lon="11.3475412"><ele>487.00000000000006</ele><time>2026-03-30T11:53:32.873Z</time></trkpt><trkpt lat="44.2233478" lon="11.3475168"><ele>487.0</ele><time>2026-03-30T11:53:35.87Z</time></trkpt><trkpt lat="44.2234193" lon="11.347479"><ele>488.00000000000006</ele><time>2026-03-30T11:53:38.866Z</time></trkpt><trkpt lat="44.2234872" lon="11.3474457"><ele>489.0</ele><time>2026-03-30T11:53:41.864Z</time></trkpt><trkpt lat="44.2235703" lon="11.3474126"><ele>490.0</ele><time>2026-03-30T11:53:44.862Z</time></trkpt><trkpt lat="44.2236473" lon="11.3473751"><ele>491.0</ele><time>2026-03-30T11:53:47.872Z</time></trkpt><trkpt lat="44.2237254" lon="11.3473428"><ele>492.00000000000006</ele><time>2026-03-30T11:53:50.859Z</time></trkpt><trkpt lat="44.2237975" lon="11.347315"><ele>493.0</ele><time>2026-03-30T11:53:53.869Z</time></trkpt><trkpt lat="44.2238692" lon="11.3472876"><ele>493.0</ele><time>2026-03-30T11:53:56.86Z</time></trkpt><trkpt lat="44.2239404" lon="11.34727"><ele>493.0</ele><time>2026-03-30T11:53:59.867Z</time></trkpt><trkpt lat="44.2240113" lon="11.347246"><ele>493.0</ele><time>2026-03-30T11:54:02.868Z</time></trkpt><trkpt lat="44.2240829" lon="11.3472227"><ele>493.0</ele><time>2026-03-30T11:54:05.857Z</time></trkpt><trkpt lat="44.2241579" lon="11.3472027"><ele>493.0</ele><time>2026-03-30T11:54:08.868Z</time></trkpt><trkpt lat="44.224228" lon="11.3471808"><ele>493.0</ele><time>2026-03-30T11:54:11.866Z</time></trkpt><trkpt lat="44.2243001" lon="11.3471696"><ele>493.0</ele><time>2026-03-30T11:54:14.867Z</time></trkpt><trkpt lat="44.2243791" lon="11.347166"><ele>493.6666666666667</ele><time>2026-03-30T11:54:17.87Z</time></trkpt><trkpt lat="44.2244619" lon="11.3471885"><ele>494.33333333333337</ele><time>2026-03-30T11:54:20.861Z</time></trkpt><trkpt lat="44.2245367" lon="11.3472345"><ele>495.0</ele><time>2026-03-30T11:54:23.869Z</time></trkpt><trkpt lat="44.2245882" lon="11.3472882"><ele>495.66666666666663</ele><time>2026-03-30T11:54:25.865Z</time></trkpt><trkpt lat="44.2246492" lon="11.347385"><ele>496.3333333333333</ele><time>2026-03-30T11:54:28.867Z</time></trkpt><trkpt lat="44.22469" lon="11.3474927"><ele>497.0</ele><time>2026-03-30T11:54:31.869Z</time></trkpt><trkpt lat="44.2247192" lon="11.3476085"><ele>496.99999999999994</ele><time>2026-03-30T11:54:34.868Z</time></trkpt><trkpt lat="44.2247209" lon="11.3476968"><ele>497.0</ele><time>2026-03-30T11:54:36.874Z</time></trkpt><trkpt lat="44.2247081" lon="11.3478229"><ele>497.0</ele><time>2026-03-30T11:54:39.862Z</time></trkpt><trkpt lat="44.2246913" lon="11.3479446"><ele>497.0</ele><time>2026-03-30T11:54:42.868Z</time></trkpt><trkpt lat="44.2246723" lon="11.3480632"><ele>496.99999999999994</ele><time>2026-03-30T11:54:45.869Z</time></trkpt><trkpt lat="44.2246568" lon="11.348186"><ele>497.0</ele><time>2026-03-30T11:54:48.883Z</time></trkpt><trkpt lat="44.2246486" lon="11.3482974"><ele>495.3333333333333</ele><time>2026-03-30T11:54:51.867Z</time></trkpt><trkpt lat="44.2246663" lon="11.3484048"><ele>493.66666666666663</ele><time>2026-03-30T11:54:54.854Z</time></trkpt><trkpt lat="44.2247043" lon="11.3484998"><ele>492.0</ele><time>2026-03-30T11:54:57.85Z</time></trkpt><trkpt lat="44.2247783" lon="11.3485594"><ele>490.33333333333337</ele><time>2026-03-30T11:55:00.874Z</time></trkpt><trkpt lat="44.2248637" lon="11.3485703"><ele>488.6666666666667</ele><time>2026-03-30T11:55:03.859Z</time></trkpt><trkpt lat="44.2249452" lon="11.3485391"><ele>487.0</ele><time>2026-03-30T11:55:06.856Z</time></trkpt><trkpt lat="44.2250259" lon="11.3485066"><ele>490.50000000000006</ele><time>2026-03-30T11:55:09.874Z</time></trkpt><trkpt lat="44.2251083" lon="11.3484815"><ele>494.0</ele><time>2026-03-30T11:55:12.886Z</time></trkpt><trkpt lat="44.2251918" lon="11.3484471"><ele>497.5</ele><time>2026-03-30T11:55:15.869Z</time></trkpt><trkpt lat="44.2252605" lon="11.3484199"><ele>501.0</ele><time>2026-03-30T11:55:18.871Z</time></trkpt><trkpt lat="44.2253402" lon="11.3484157"><ele>504.50000000000006</ele><time>2026-03-30T11:55:21.862Z</time></trkpt><trkpt lat="44.2254195" lon="11.34841"><ele>508.0</ele><time>2026-03-30T11:55:24.873Z</time></trkpt><trkpt lat="44.2255042" lon="11.3484226"><ele>508.00000000000006</ele><time>2026-03-30T11:55:27.856Z</time></trkpt><trkpt lat="44.2255911" lon="11.3484316"><ele>508.0</ele><time>2026-03-30T11:55:30.871Z</time></trkpt><trkpt lat="44.2256553" lon="11.3484312"><ele>508.0</ele><time>2026-03-30T11:55:32.864Z</time></trkpt><trkpt lat="44.2257479" lon="11.3484442"><ele>508.0</ele><time>2026-03-30T11:55:35.884Z</time></trkpt><trkpt lat="44.2258192" lon="11.3484571"><ele>508.00000000000006</ele><time>2026-03-30T11:55:37.86Z</time></trkpt><trkpt lat="44.2259037" lon="11.3484705"><ele>508.0</ele><time>2026-03-30T11:55:40.855Z</time></trkpt><trkpt lat="44.2259866" lon="11.3485117"><ele>506.50000000000006</ele><time>2026-03-30T11:55:43.864Z</time></trkpt><trkpt lat="44.2260585" lon="11.3485863"><ele>505.0</ele><time>2026-03-30T11:55:46.851Z</time></trkpt><trkpt lat="44.2261226" lon="11.3486688"><ele>503.5</ele><time>2026-03-30T11:55:49.853Z</time></trkpt><trkpt lat="44.226178" lon="11.348745"><ele>502.0</ele><time>2026-03-30T11:55:52.868Z</time></trkpt><trkpt lat="44.2262306" lon="11.3488487"><ele>500.50000000000006</ele><time>2026-03-30T11:55:55.867Z</time></trkpt><trkpt lat="44.2262668" lon="11.3489527"><ele>499.0</ele><time>2026-03-30T11:55:58.879Z</time></trkpt><trkpt lat="44.2263042" lon="11.3490329"><ele>499.00000000000006</ele><time>2026-03-30T11:56:01.871Z</time></trkpt><trkpt lat="44.226347" lon="11.3491205"><ele>499.0</ele><time>2026-03-30T11:56:05.858Z</time></trkpt><trkpt lat="44.226401" lon="11.3491759"><ele>499.00000000000006</ele><time>2026-03-30T11:56:08.867Z</time></trkpt><trkpt lat="44.2264544" lon="11.3492272"><ele>499.00000000000006</ele><time>2026-03-30T11:56:11.88Z</time></trkpt><trkpt lat="44.226525" lon="11.3492306"><ele>499.0</ele><time>2026-03-30T11:56:14.857Z</time></trkpt><trkpt lat="44.2265929" lon="11.3492002"><ele>499.00000000000006</ele><time>2026-03-30T11:56:17.859Z</time></trkpt><trkpt lat="44.2266587" lon="11.3491568"><ele>499.00000000000006</ele><time>2026-03-30T11:56:20.864Z</time></trkpt><trkpt lat="44.2266826" lon="11.3490655"><ele>501.33333333333337</ele><time>2026-03-30T11:56:25.858Z</time></trkpt><trkpt lat="44.2266981" lon="11.3489558"><ele>503.6666666666667</ele><time>2026-03-30T11:56:29.867Z</time></trkpt><trkpt lat="44.2267254" lon="11.3488689"><ele>506.0</ele><time>2026-03-30T11:56:32.869Z</time></trkpt><trkpt lat="44.2267729" lon="11.348782"><ele>508.33333333333337</ele><time>2026-03-30T11:56:35.875Z</time></trkpt><trkpt lat="44.226842" lon="11.3487274"><ele>510.6666666666667</ele><time>2026-03-30T11:56:38.876Z</time></trkpt><trkpt lat="44.2269185" lon="11.3487043"><ele>513.0</ele><time>2026-03-30T11:56:41.867Z</time></trkpt><trkpt lat="44.2270013" lon="11.3487103"><ele>514.1666666666666</ele><time>2026-03-30T11:56:44.867Z</time></trkpt><trkpt lat="44.2270824" lon="11.3487526"><ele>515.3333333333334</ele><time>2026-03-30T11:56:47.866Z</time></trkpt><trkpt lat="44.2271599" lon="11.3487894"><ele>516.5</ele><time>2026-03-30T11:56:50.855Z</time></trkpt><trkpt lat="44.2272359" lon="11.34883"><ele>517.6666666666667</ele><time>2026-03-30T11:56:53.869Z</time></trkpt><trkpt lat="44.2273093" lon="11.3488613"><ele>518.8333333333334</ele><time>2026-03-30T11:56:56.867Z</time></trkpt><trkpt lat="44.2273773" lon="11.3489005"><ele>520.0</ele><time>2026-03-30T11:56:59.873Z</time></trkpt><trkpt lat="44.2274472" lon="11.3489311"><ele>520.0000000000001</ele><time>2026-03-30T11:57:02.874Z</time></trkpt><trkpt lat="44.227518" lon="11.3489702"><ele>520.0</ele><time>2026-03-30T11:57:05.883Z</time></trkpt><trkpt lat="44.2275878" lon="11.3490021"><ele>520.0</ele><time>2026-03-30T11:57:08.867Z</time></trkpt><trkpt lat="44.227659" lon="11.3490387"><ele>520.0</ele><time>2026-03-30T11:57:11.874Z</time></trkpt><trkpt lat="44.227729" lon="11.3490741"><ele>520.0</ele><time>2026-03-30T11:57:14.866Z</time></trkpt><trkpt lat="44.227804" lon="11.3490745"><ele>520.0000000000001</ele><time>2026-03-30T11:57:17.866Z</time></trkpt><trkpt lat="44.2278708" lon="11.3490402"><ele>520.0</ele><time>2026-03-30T11:57:20.862Z</time></trkpt><trkpt lat="44.2279106" lon="11.3489659"><ele>523.0</ele><time>2026-03-30T11:57:24.869Z</time></trkpt><trkpt lat="44.2279018" lon="11.3488535"><ele>526.0</ele><time>2026-03-30T11:57:28.867Z</time></trkpt><trkpt lat="44.2278494" lon="11.348774"><ele>529.0</ele><time>2026-03-30T11:57:32.863Z</time></trkpt><trkpt lat="44.2277843" lon="11.3487406"><ele>532.0</ele><time>2026-03-30T11:57:35.867Z</time></trkpt><trkpt lat="44.2277195" lon="11.3487069"><ele>535.0</ele><time>2026-03-30T11:57:38.876Z</time></trkpt><trkpt lat="44.2276383" lon="11.3486739"><ele>538.0</ele><time>2026-03-30T11:57:42.867Z</time></trkpt><trkpt lat="44.2275584" lon="11.3486387"><ele>538.0</ele><time>2026-03-30T11:57:46.865Z</time></trkpt><trkpt lat="44.2274925" lon="11.3486062"><ele>538.0</ele><time>2026-03-30T11:57:49.868Z</time></trkpt><trkpt lat="44.2274274" lon="11.3485708"><ele>538.0</ele><time>2026-03-30T11:57:52.873Z</time></trkpt><trkpt lat="44.227359" lon="11.3485337"><ele>538.0</ele><time>2026-03-30T11:57:55.876Z</time></trkpt><trkpt lat="44.2272851" lon="11.3484956"><ele>538.0</ele><time>2026-03-30T11:57:58.876Z</time></trkpt><trkpt lat="44.2272156" lon="11.3484387"><ele>538.0</ele><time>2026-03-30T11:58:01.871Z</time></trkpt><trkpt lat="44.2271535" lon="11.3483667"><ele>537.0</ele><time>2026-03-30T11:58:04.87Z</time></trkpt><trkpt lat="44.2270918" lon="11.3482934"><ele>536.0</ele><time>2026-03-30T11:58:07.869Z</time></trkpt><trkpt lat="44.2270314" lon="11.3482174"><ele>535.0</ele><time>2026-03-30T11:58:10.871Z</time></trkpt><trkpt lat="44.2269688" lon="11.3481377"><ele>534.0</ele><time>2026-03-30T11:58:13.859Z</time></trkpt><trkpt lat="44.2269112" lon="11.3480659"><ele>533.0</ele><time>2026-03-30T11:58:16.87Z</time></trkpt><trkpt lat="44.2268403" lon="11.3479911"><ele>532.0</ele><time>2026-03-30T11:58:19.87Z</time></trkpt><trkpt lat="44.2267727" lon="11.3479294"><ele>533.4285714285714</ele><time>2026-03-30T11:58:22.86Z</time></trkpt><trkpt lat="44.2266996" lon="11.3479038"><ele>534.8571428571429</ele><time>2026-03-30T11:58:26.88Z</time></trkpt><trkpt lat="44.2266173" lon="11.3479019"><ele>536.2857142857142</ele><time>2026-03-30T11:58:30.877Z</time></trkpt><trkpt lat="44.2265561" lon="11.3479246"><ele>537.7142857142858</ele><time>2026-03-30T11:58:33.86Z</time></trkpt><trkpt lat="44.2264914" lon="11.3479444"><ele>539.1428571428571</ele><time>2026-03-30T11:58:36.863Z</time></trkpt><trkpt lat="44.2264249" lon="11.3479758"><ele>540.5714285714286</ele><time>2026-03-30T11:58:39.864Z</time></trkpt><trkpt lat="44.2263571" lon="11.3480202"><ele>542.0</ele><time>2026-03-30T11:58:42.863Z</time></trkpt><trkpt lat="44.2262817" lon="11.3480443"><ele>542.0</ele><time>2026-03-30T11:58:45.862Z</time></trkpt><trkpt lat="44.2261995" lon="11.3480269"><ele>542.0</ele><time>2026-03-30T11:58:48.868Z</time></trkpt><trkpt lat="44.2261247" lon="11.347982"><ele>542.0</ele><time>2026-03-30T11:58:51.864Z</time></trkpt><trkpt lat="44.2260681" lon="11.3479017"><ele>542.0</ele><time>2026-03-30T11:58:54.872Z</time></trkpt><trkpt lat="44.2260474" lon="11.3477807"><ele>542.0</ele><time>2026-03-30T11:58:57.87Z</time></trkpt><trkpt lat="44.2260525" lon="11.3476613"><ele>542.0</ele><time>2026-03-30T11:59:00.873Z</time></trkpt><trkpt lat="44.2260837" lon="11.3475393"><ele>542.0</ele><time>2026-03-30T11:59:03.867Z</time></trkpt><trkpt lat="44.226112" lon="11.3474282"><ele>542.0</ele><time>2026-03-30T11:59:06.866Z</time></trkpt><trkpt lat="44.2261264" lon="11.347314"><ele>542.0</ele><time>2026-03-30T11:59:09.871Z</time></trkpt><trkpt lat="44.2261354" lon="11.347201"><ele>542.0</ele><time>2026-03-30T11:59:12.873Z</time></trkpt><trkpt lat="44.2261494" lon="11.34709"><ele>542.0</ele><time>2026-03-30T11:59:15.865Z</time></trkpt><trkpt lat="44.2261544" lon="11.3469785"><ele>542.0</ele><time>2026-03-30T11:59:18.863Z</time></trkpt><trkpt lat="44.2261481" lon="11.3468682"><ele>543.1428571428571</ele><time>2026-03-30T11:59:21.876Z</time></trkpt><trkpt lat="44.2261338" lon="11.3467661"><ele>544.2857142857143</ele><time>2026-03-30T11:59:24.869Z</time></trkpt><trkpt lat="44.2261065" lon="11.3466641"><ele>545.4285714285714</ele><time>2026-03-30T11:59:27.858Z</time></trkpt><trkpt lat="44.2260689" lon="11.3465722"><ele>546.5714285714286</ele><time>2026-03-30T11:59:30.874Z</time></trkpt><trkpt lat="44.2260245" lon="11.3464953"><ele>547.7142857142857</ele><time>2026-03-30T11:59:33.861Z</time></trkpt><trkpt lat="44.2259806" lon="11.3464212"><ele>548.8571428571429</ele><time>2026-03-30T11:59:36.869Z</time></trkpt><trkpt lat="44.2259311" lon="11.3463518"><ele>550.0</ele><time>2026-03-30T11:59:39.864Z</time></trkpt><trkpt lat="44.2258905" lon="11.3462744"><ele>552.0</ele><time>2026-03-30T11:59:42.866Z</time></trkpt><trkpt lat="44.2258583" lon="11.3461759"><ele>554.0</ele><time>2026-03-30T11:59:45.889Z</time></trkpt><trkpt lat="44.2258383" lon="11.3460709"><ele>556.0</ele><time>2026-03-30T11:59:48.868Z</time></trkpt><trkpt lat="44.2258259" lon="11.3459598"><ele>558.0</ele><time>2026-03-30T11:59:51.857Z</time></trkpt><trkpt lat="44.2258143" lon="11.3458548"><ele>560.0</ele><time>2026-03-30T11:59:54.864Z</time></trkpt><trkpt lat="44.2258024" lon="11.3457414"><ele>562.0</ele><time>2026-03-30T11:59:57.876Z</time></trkpt><trkpt lat="44.2257898" lon="11.3456401"><ele>564.1666666666667</ele><time>2026-03-30T12:00:00.864Z</time></trkpt><trkpt lat="44.2257774" lon="11.3455333"><ele>566.3333333333334</ele><time>2026-03-30T12:00:03.87Z</time></trkpt><trkpt lat="44.2257636" lon="11.3454249"><ele>568.5</ele><time>2026-03-30T12:00:06.866Z</time></trkpt><trkpt lat="44.2257459" lon="11.3453157"><ele>570.6666666666666</ele><time>2026-03-30T12:00:09.854Z</time></trkpt><trkpt lat="44.2257311" lon="11.3452065"><ele>572.8333333333333</ele><time>2026-03-30T12:00:12.864Z</time></trkpt><trkpt lat="44.2257117" lon="11.3450983"><ele>575.0</ele><time>2026-03-30T12:00:15.862Z</time></trkpt><trkpt lat="44.2256892" lon="11.3449912"><ele>575.0</ele><time>2026-03-30T12:00:18.855Z</time></trkpt><trkpt lat="44.2256661" lon="11.3448877"><ele>575.0</ele><time>2026-03-30T12:00:21.864Z</time></trkpt><trkpt lat="44.2256384" lon="11.3447931"><ele>575.0</ele><time>2026-03-30T12:00:24.872Z</time></trkpt><trkpt lat="44.2256008" lon="11.3446985"><ele>575.0</ele><time>2026-03-30T12:00:27.874Z</time></trkpt><trkpt lat="44.225561" lon="11.3446035"><ele>575.0</ele><time>2026-03-30T12:00:30.865Z</time></trkpt><trkpt lat="44.2255242" lon="11.3445091"><ele>575.0</ele><time>2026-03-30T12:00:33.883Z</time></trkpt><trkpt lat="44.2254827" lon="11.3444161"><ele>573.5</ele><time>2026-03-30T12:00:36.868Z</time></trkpt><trkpt lat="44.2254303" lon="11.3443352"><ele>572.0</ele><time>2026-03-30T12:00:39.875Z</time></trkpt><trkpt lat="44.2253803" lon="11.344255"><ele>570.5</ele><time>2026-03-30T12:00:42.872Z</time></trkpt><trkpt lat="44.2253241" lon="11.3441856"><ele>569.0</ele><time>2026-03-30T12:00:45.87Z</time></trkpt><trkpt lat="44.2252634" lon="11.3441204"><ele>567.5</ele><time>2026-03-30T12:00:48.856Z</time></trkpt><trkpt lat="44.2252083" lon="11.3440679"><ele>566.0</ele><time>2026-03-30T12:00:51.868Z</time></trkpt><trkpt lat="44.2251356" lon="11.3440138"><ele>566.0</ele><time>2026-03-30T12:00:55.871Z</time></trkpt><trkpt lat="44.2250722" lon="11.3439761"><ele>566.0</ele><time>2026-03-30T12:00:58.869Z</time></trkpt><trkpt lat="44.2250018" lon="11.3439468"><ele>566.0</ele><time>2026-03-30T12:01:01.871Z</time></trkpt><trkpt lat="44.2249308" lon="11.3439152"><ele>566.0</ele><time>2026-03-30T12:01:04.869Z</time></trkpt><trkpt lat="44.2248593" lon="11.3438996"><ele>566.0</ele><time>2026-03-30T12:01:07.876Z</time></trkpt><trkpt lat="44.2247866" lon="11.3438826"><ele>566.0</ele><time>2026-03-30T12:01:10.868Z</time></trkpt><trkpt lat="44.2247171" lon="11.3438727"><ele>566.0</ele><time>2026-03-30T12:01:13.879Z</time></trkpt><trkpt lat="44.224648" lon="11.3438618"><ele>566.8333333333333</ele><time>2026-03-30T12:01:16.862Z</time></trkpt><trkpt lat="44.2245852" lon="11.3438445"><ele>567.6666666666666</ele><time>2026-03-30T12:01:19.869Z</time></trkpt><trkpt lat="44.2244993" lon="11.3438258"><ele>568.5</ele><time>2026-03-30T12:01:22.872Z</time></trkpt><trkpt lat="44.2244179" lon="11.3438006"><ele>569.3333333333334</ele><time>2026-03-30T12:01:25.87Z</time></trkpt><trkpt lat="44.2243388" lon="11.3437582"><ele>570.1666666666667</ele><time>2026-03-30T12:01:28.881Z</time></trkpt><trkpt lat="44.2242694" lon="11.3437059"><ele>571.0</ele><time>2026-03-30T12:01:31.871Z</time></trkpt><trkpt lat="44.2241987" lon="11.3436484"><ele>571.0</ele><time>2026-03-30T12:01:34.883Z</time></trkpt><trkpt lat="44.2241394" lon="11.3435703"><ele>571.0</ele><time>2026-03-30T12:01:37.875Z</time></trkpt><trkpt lat="44.2240867" lon="11.3434829"><ele>571.0</ele><time>2026-03-30T12:01:40.885Z</time></trkpt><trkpt lat="44.224041" lon="11.3433851"><ele>571.0</ele><time>2026-03-30T12:01:43.862Z</time></trkpt><trkpt lat="44.2240008" lon="11.3432836"><ele>571.0</ele><time>2026-03-30T12:01:46.882Z</time></trkpt><trkpt lat="44.2239711" lon="11.3431756"><ele>571.0</ele><time>2026-03-30T12:01:49.859Z</time></trkpt><trkpt lat="44.2239514" lon="11.3430706"><ele>570.2857142857143</ele><time>2026-03-30T12:01:52.866Z</time></trkpt><trkpt lat="44.2239395" lon="11.3429688"><ele>569.5714285714286</ele><time>2026-03-30T12:01:55.878Z</time></trkpt><trkpt lat="44.2239312" lon="11.3428602"><ele>568.8571428571429</ele><time>2026-03-30T12:01:58.876Z</time></trkpt><trkpt lat="44.2239191" lon="11.3427589"><ele>568.1428571428571</ele><time>2026-03-30T12:02:01.874Z</time></trkpt><trkpt lat="44.223912" lon="11.3426579"><ele>567.4285714285714</ele><time>2026-03-30T12:02:04.863Z</time></trkpt><trkpt lat="44.2238973" lon="11.3425528"><ele>566.7142857142858</ele><time>2026-03-30T12:02:07.856Z</time></trkpt><trkpt lat="44.2238875" lon="11.3424524"><ele>566.0</ele><time>2026-03-30T12:02:10.867Z</time></trkpt><trkpt lat="44.2238698" lon="11.3423655"><ele>566.0</ele><time>2026-03-30T12:02:13.865Z</time></trkpt><trkpt lat="44.2238484" lon="11.3422798"><ele>566.0</ele><time>2026-03-30T12:02:16.878Z</time></trkpt><trkpt lat="44.2238208" lon="11.3421985"><ele>566.0</ele><time>2026-03-30T12:02:19.868Z</time></trkpt><trkpt lat="44.2237888" lon="11.3421192"><ele>566.0</ele><time>2026-03-30T12:02:22.884Z</time></trkpt><trkpt lat="44.2237509" lon="11.3420435"><ele>566.0</ele><time>2026-03-30T12:02:25.864Z</time></trkpt><trkpt lat="44.2237101" lon="11.3419693"><ele>566.0</ele><time>2026-03-30T12:02:28.877Z</time></trkpt><trkpt lat="44.2236617" lon="11.3418951"><ele>566.0</ele><time>2026-03-30T12:02:32.861Z</time></trkpt><trkpt lat="44.223604" lon="11.3418375"><ele>568.4285714285714</ele><time>2026-03-30T12:02:36.872Z</time></trkpt><trkpt lat="44.2235286" lon="11.341806"><ele>570.8571428571429</ele><time>2026-03-30T12:02:41.873Z</time></trkpt><trkpt lat="44.2234604" lon="11.3417497"><ele>573.2857142857143</ele><time>2026-03-30T12:02:44.862Z</time></trkpt><trkpt lat="44.2234003" lon="11.3416912"><ele>575.7142857142858</ele><time>2026-03-30T12:02:48.871Z</time></trkpt><trkpt lat="44.2233308" lon="11.3416413"><ele>578.1428571428571</ele><time>2026-03-30T12:02:52.864Z</time></trkpt><trkpt lat="44.2232755" lon="11.3415939"><ele>580.5714285714287</ele><time>2026-03-30T12:02:55.879Z</time></trkpt><trkpt lat="44.2232134" lon="11.3415456"><ele>583.0</ele><time>2026-03-30T12:02:58.869Z</time></trkpt><trkpt lat="44.2231435" lon="11.3414914"><ele>583.0</ele><time>2026-03-30T12:03:01.871Z</time></trkpt><trkpt lat="44.2230652" lon="11.3414446"><ele>583.0</ele><time>2026-03-30T12:03:04.855Z</time></trkpt><trkpt lat="44.2229922" lon="11.3414247"><ele>583.0</ele><time>2026-03-30T12:03:08.867Z</time></trkpt><trkpt lat="44.2229189" lon="11.3413967"><ele>583.0</ele><time>2026-03-30T12:03:11.868Z</time></trkpt><trkpt lat="44.2228489" lon="11.3413609"><ele>583.0</ele><time>2026-03-30T12:03:14.873Z</time></trkpt><trkpt lat="44.2227835" lon="11.3413131"><ele>583.0</ele><time>2026-03-30T12:03:17.872Z</time></trkpt><trkpt lat="44.2227221" lon="11.3412701"><ele>584.4285714285714</ele><time>2026-03-30T12:03:20.872Z</time></trkpt><trkpt lat="44.2226656" lon="11.3412236"><ele>585.8571428571429</ele><time>2026-03-30T12:03:23.876Z</time></trkpt><trkpt lat="44.222612" lon="11.3411642"><ele>587.2857142857142</ele><time>2026-03-30T12:03:26.872Z</time></trkpt><trkpt lat="44.2225615" lon="11.3410953"><ele>588.7142857142858</ele><time>2026-03-30T12:03:29.873Z</time></trkpt><trkpt lat="44.2225174" lon="11.3410157"><ele>590.1428571428571</ele><time>2026-03-30T12:03:32.869Z</time></trkpt><trkpt lat="44.222492" lon="11.3409137"><ele>591.5714285714286</ele><time>2026-03-30T12:03:35.87Z</time></trkpt><trkpt lat="44.2224746" lon="11.3407931"><ele>593.0</ele><time>2026-03-30T12:03:38.865Z</time></trkpt><trkpt lat="44.2224701" lon="11.3406811"><ele>592.9999999999999</ele><time>2026-03-30T12:03:41.874Z</time></trkpt><trkpt lat="44.2224689" lon="11.3405735"><ele>593.0</ele><time>2026-03-30T12:03:44.862Z</time></trkpt><trkpt lat="44.2224692" lon="11.3404703"><ele>593.0</ele><time>2026-03-30T12:03:47.875Z</time></trkpt><trkpt lat="44.2224728" lon="11.3403657"><ele>593.0</ele><time>2026-03-30T12:03:50.87Z</time></trkpt><trkpt lat="44.2224823" lon="11.3402644"><ele>593.0</ele><time>2026-03-30T12:03:53.87Z</time></trkpt><trkpt lat="44.2224927" lon="11.3401603"><ele>592.9999999999999</ele><time>2026-03-30T12:03:56.875Z</time></trkpt><trkpt lat="44.2225018" lon="11.3400634"><ele>593.0</ele><time>2026-03-30T12:03:59.869Z</time></trkpt><trkpt lat="44.2225116" lon="11.3399587"><ele>594.1428571428571</ele><time>2026-03-30T12:04:02.868Z</time></trkpt><trkpt lat="44.2225193" lon="11.339862"><ele>595.2857142857142</ele><time>2026-03-30T12:04:05.876Z</time></trkpt><trkpt lat="44.2225269" lon="11.33977"><ele>596.4285714285713</ele><time>2026-03-30T12:04:08.873Z</time></trkpt><trkpt lat="44.2225325" lon="11.3396787"><ele>597.5714285714286</ele><time>2026-03-30T12:04:11.853Z</time></trkpt><trkpt lat="44.2225403" lon="11.3395866"><ele>598.7142857142858</ele><time>2026-03-30T12:04:14.872Z</time></trkpt><trkpt lat="44.2225517" lon="11.3394805"><ele>599.8571428571428</ele><time>2026-03-30T12:04:18.866Z</time></trkpt><trkpt lat="44.222567" lon="11.339367"><ele>601.0</ele><time>2026-03-30T12:04:22.866Z</time></trkpt><trkpt lat="44.2225731" lon="11.339267"><ele>602.0</ele><time>2026-03-30T12:04:26.873Z</time></trkpt><trkpt lat="44.2225796" lon="11.3391773"><ele>603.0</ele><time>2026-03-30T12:04:29.867Z</time></trkpt><trkpt lat="44.2225836" lon="11.3390703"><ele>604.0</ele><time>2026-03-30T12:04:32.876Z</time></trkpt><trkpt lat="44.2225718" lon="11.3389544"><ele>605.0</ele><time>2026-03-30T12:04:36.878Z</time></trkpt><trkpt lat="44.2225582" lon="11.3388671"><ele>606.0</ele><time>2026-03-30T12:04:39.857Z</time></trkpt><trkpt lat="44.2225208" lon="11.3387648"><ele>607.0</ele><time>2026-03-30T12:04:43.866Z</time></trkpt><trkpt lat="44.2224758" lon="11.3386776"><ele>608.0</ele><time>2026-03-30T12:04:47.868Z</time></trkpt><trkpt lat="44.2224241" lon="11.3386039"><ele>608.5</ele><time>2026-03-30T12:04:51.865Z</time></trkpt><trkpt lat="44.2223685" lon="11.3385295"><ele>609.0</ele><time>2026-03-30T12:04:55.874Z</time></trkpt><trkpt lat="44.2223086" lon="11.3384498"><ele>609.5</ele><time>2026-03-30T12:04:59.883Z</time></trkpt><trkpt lat="44.2222528" lon="11.3383812"><ele>610.0</ele><time>2026-03-30T12:05:03.865Z</time></trkpt><trkpt lat="44.2222006" lon="11.3383074"><ele>610.5</ele><time>2026-03-30T12:05:07.863Z</time></trkpt><trkpt lat="44.2221392" lon="11.3382294"><ele>611.0</ele><time>2026-03-30T12:05:11.866Z</time></trkpt><trkpt lat="44.2220947" lon="11.3381664"><ele>611.0</ele><time>2026-03-30T12:05:14.871Z</time></trkpt><trkpt lat="44.2220411" lon="11.3380872"><ele>611.0</ele><time>2026-03-30T12:05:18.862Z</time></trkpt><trkpt lat="44.2219779" lon="11.3380258"><ele>611.0</ele><time>2026-03-30T12:05:22.879Z</time></trkpt><trkpt lat="44.2219085" lon="11.3379751"><ele>611.0</ele><time>2026-03-30T12:05:26.875Z</time></trkpt><trkpt lat="44.2218321" lon="11.3379373"><ele>611.0</ele><time>2026-03-30T12:05:30.862Z</time></trkpt><trkpt lat="44.2217681" lon="11.3379078"><ele>611.0</ele><time>2026-03-30T12:05:33.874Z</time></trkpt><trkpt lat="44.2216992" lon="11.3378855"><ele>612.0000000000001</ele><time>2026-03-30T12:05:36.866Z</time></trkpt><trkpt lat="44.2216222" lon="11.3378787"><ele>613.0</ele><time>2026-03-30T12:05:39.873Z</time></trkpt><trkpt lat="44.2215566" lon="11.3378731"><ele>614.0</ele><time>2026-03-30T12:05:42.874Z</time></trkpt><trkpt lat="44.2214899" lon="11.3378708"><ele>615.0</ele><time>2026-03-30T12:05:45.859Z</time></trkpt><trkpt lat="44.2214224" lon="11.3378611"><ele>616.0</ele><time>2026-03-30T12:05:48.874Z</time></trkpt><trkpt lat="44.2213531" lon="11.3378577"><ele>617.0000000000001</ele><time>2026-03-30T12:05:51.878Z</time></trkpt><trkpt lat="44.2212829" lon="11.3378477"><ele>618.0</ele><time>2026-03-30T12:05:54.873Z</time></trkpt><trkpt lat="44.221211" lon="11.3378317"><ele>618.0</ele><time>2026-03-30T12:05:57.867Z</time></trkpt><trkpt lat="44.2211406" lon="11.337797"><ele>618.0</ele><time>2026-03-30T12:06:00.865Z</time></trkpt><trkpt lat="44.2210695" lon="11.3377453"><ele>618.0</ele><time>2026-03-30T12:06:03.853Z</time></trkpt><trkpt lat="44.2210129" lon="11.3376697"><ele>618.0</ele><time>2026-03-30T12:06:06.859Z</time></trkpt><trkpt lat="44.2209661" lon="11.33759"><ele>618.0</ele><time>2026-03-30T12:06:09.87Z</time></trkpt><trkpt lat="44.2209243" lon="11.3375032"><ele>618.0</ele><time>2026-03-30T12:06:12.882Z</time></trkpt><trkpt lat="44.2208853" lon="11.3374128"><ele>618.0000000000001</ele><time>2026-03-30T12:06:15.876Z</time></trkpt><trkpt lat="44.2208477" lon="11.3373282"><ele>618.0</ele><time>2026-03-30T12:06:18.873Z</time></trkpt><trkpt lat="44.2208064" lon="11.3372387"><ele>618.0</ele><time>2026-03-30T12:06:21.87Z</time></trkpt><trkpt lat="44.220763" lon="11.3371606"><ele>618.0</ele><time>2026-03-30T12:06:24.867Z</time></trkpt><trkpt lat="44.2207194" lon="11.33708"><ele>618.0</ele><time>2026-03-30T12:06:27.866Z</time></trkpt><trkpt lat="44.2206633" lon="11.3370195"><ele>618.0000000000001</ele><time>2026-03-30T12:06:30.88Z</time></trkpt><trkpt lat="44.2206043" lon="11.3369727"><ele>618.0</ele><time>2026-03-30T12:06:33.873Z</time></trkpt><trkpt lat="44.2205324" lon="11.3369318"><ele>620.8333333333334</ele><time>2026-03-30T12:06:37.878Z</time></trkpt><trkpt lat="44.2204598" lon="11.3369522"><ele>623.6666666666666</ele><time>2026-03-30T12:06:41.871Z</time></trkpt><trkpt lat="44.2203863" lon="11.3369705"><ele>626.5</ele><time>2026-03-30T12:06:45.879Z</time></trkpt><trkpt lat="44.2203016" lon="11.3369727"><ele>629.3333333333333</ele><time>2026-03-30T12:06:49.869Z</time></trkpt><trkpt lat="44.2202304" lon="11.336984"><ele>632.1666666666666</ele><time>2026-03-30T12:06:52.875Z</time></trkpt><trkpt lat="44.2201552" lon="11.3369884"><ele>635.0</ele><time>2026-03-30T12:06:56.867Z</time></trkpt><trkpt lat="44.220077" lon="11.336985"><ele>634.9999999999999</ele><time>2026-03-30T12:06:59.877Z</time></trkpt><trkpt lat="44.2199989" lon="11.3369747"><ele>635.0</ele><time>2026-03-30T12:07:02.877Z</time></trkpt><trkpt lat="44.2199383" lon="11.3369422"><ele>635.0</ele><time>2026-03-30T12:07:04.863Z</time></trkpt><trkpt lat="44.2198706" lon="11.3368912"><ele>635.0</ele><time>2026-03-30T12:07:07.87Z</time></trkpt><trkpt lat="44.2198205" lon="11.3368199"><ele>635.0</ele><time>2026-03-30T12:07:10.869Z</time></trkpt><trkpt lat="44.2197779" lon="11.3367444"><ele>634.9999999999999</ele><time>2026-03-30T12:07:13.878Z</time></trkpt><trkpt lat="44.219745" lon="11.3366481"><ele>635.0</ele><time>2026-03-30T12:07:16.873Z</time></trkpt><trkpt lat="44.2197254" lon="11.336556"><ele>633.7142857142857</ele><time>2026-03-30T12:07:19.876Z</time></trkpt><trkpt lat="44.2197093" lon="11.3364693"><ele>632.4285714285714</ele><time>2026-03-30T12:07:22.859Z</time></trkpt><trkpt lat="44.2196902" lon="11.3363854"><ele>631.1428571428571</ele><time>2026-03-30T12:07:25.858Z</time></trkpt><trkpt lat="44.2196628" lon="11.3362775"><ele>629.8571428571429</ele><time>2026-03-30T12:07:29.867Z</time></trkpt><trkpt lat="44.2196396" lon="11.3361721"><ele>628.5714285714286</ele><time>2026-03-30T12:07:33.867Z</time></trkpt><trkpt lat="44.2196081" lon="11.3360686"><ele>627.2857142857142</ele><time>2026-03-30T12:07:37.873Z</time></trkpt><trkpt lat="44.219587" lon="11.3359856"><ele>626.0</ele><time>2026-03-30T12:07:40.878Z</time></trkpt><trkpt lat="44.2195664" lon="11.3358983"><ele>626.0</ele><time>2026-03-30T12:07:43.865Z</time></trkpt><trkpt lat="44.2195485" lon="11.3358114"><ele>626.0</ele><time>2026-03-30T12:07:46.866Z</time></trkpt><trkpt lat="44.2195403" lon="11.3357243"><ele>626.0</ele><time>2026-03-30T12:07:49.869Z</time></trkpt><trkpt lat="44.2195411" lon="11.3356267"><ele>626.0</ele><time>2026-03-30T12:07:52.866Z</time></trkpt><trkpt lat="44.2195558" lon="11.3355397"><ele>626.0</ele><time>2026-03-30T12:07:54.864Z</time></trkpt><trkpt lat="44.2195835" lon="11.3354337"><ele>626.0</ele><time>2026-03-30T12:07:57.865Z</time></trkpt><trkpt lat="44.2196225" lon="11.3353355"><ele>626.0</ele><time>2026-03-30T12:08:00.876Z</time></trkpt><trkpt lat="44.219661" lon="11.3352502"><ele>625.8571428571429</ele><time>2026-03-30T12:08:03.86Z</time></trkpt><trkpt lat="44.2197101" lon="11.3351593"><ele>625.7142857142858</ele><time>2026-03-30T12:08:06.87Z</time></trkpt><trkpt lat="44.2197577" lon="11.335087"><ele>625.5714285714287</ele><time>2026-03-30T12:08:09.867Z</time></trkpt><trkpt lat="44.2198244" lon="11.3350013"><ele>625.4285714285714</ele><time>2026-03-30T12:08:13.877Z</time></trkpt><trkpt lat="44.2198721" lon="11.3349422"><ele>625.2857142857143</ele><time>2026-03-30T12:08:16.873Z</time></trkpt><trkpt lat="44.219916" lon="11.3348786"><ele>625.1428571428572</ele><time>2026-03-30T12:08:19.87Z</time></trkpt><trkpt lat="44.2199713" lon="11.3348095"><ele>625.0</ele><time>2026-03-30T12:08:22.873Z</time></trkpt><trkpt lat="44.2200215" lon="11.334752"><ele>628.5714285714287</ele><time>2026-03-30T12:08:25.857Z</time></trkpt><trkpt lat="44.2200632" lon="11.3346801"><ele>632.1428571428571</ele><time>2026-03-30T12:08:28.871Z</time></trkpt><trkpt lat="44.220102" lon="11.3346051"><ele>635.7142857142858</ele><time>2026-03-30T12:08:31.871Z</time></trkpt><trkpt lat="44.220136" lon="11.3345215"><ele>639.2857142857143</ele><time>2026-03-30T12:08:35.867Z</time></trkpt><trkpt lat="44.2201519" lon="11.3344287"><ele>642.8571428571429</ele><time>2026-03-30T12:08:39.86Z</time></trkpt><trkpt lat="44.2201497" lon="11.3343187"><ele>646.4285714285714</ele><time>2026-03-30T12:08:43.863Z</time></trkpt><trkpt lat="44.2201285" lon="11.3342285"><ele>650.0</ele><time>2026-03-30T12:08:47.869Z</time></trkpt><trkpt lat="44.2200949" lon="11.3341479"><ele>650.0</ele><time>2026-03-30T12:08:50.869Z</time></trkpt><trkpt lat="44.2200534" lon="11.3340605"><ele>650.0</ele><time>2026-03-30T12:08:54.872Z</time></trkpt><trkpt lat="44.2200093" lon="11.3339808"><ele>650.0</ele><time>2026-03-30T12:08:58.872Z</time></trkpt><trkpt lat="44.2199698" lon="11.3339006"><ele>650.0</ele><time>2026-03-30T12:09:02.868Z</time></trkpt><trkpt lat="44.2199437" lon="11.3338073"><ele>650.0</ele><time>2026-03-30T12:09:05.873Z</time></trkpt><trkpt lat="44.2199272" lon="11.3337117"><ele>650.0</ele><time>2026-03-30T12:09:08.87Z</time></trkpt><trkpt lat="44.2199159" lon="11.3336186"><ele>650.0</ele><time>2026-03-30T12:09:11.866Z</time></trkpt><trkpt lat="44.2199115" lon="11.3335184"><ele>651.7142857142857</ele><time>2026-03-30T12:09:14.863Z</time></trkpt><trkpt lat="44.2199039" lon="11.333413"><ele>653.4285714285714</ele><time>2026-03-30T12:09:17.868Z</time></trkpt><trkpt lat="44.2199047" lon="11.3333088"><ele>655.1428571428571</ele><time>2026-03-30T12:09:20.871Z</time></trkpt><trkpt lat="44.2199053" lon="11.3332006"><ele>656.8571428571429</ele><time>2026-03-30T12:09:23.87Z</time></trkpt><trkpt lat="44.2199052" lon="11.3331026"><ele>658.5714285714286</ele><time>2026-03-30T12:09:26.872Z</time></trkpt><trkpt lat="44.2199081" lon="11.3329982"><ele>660.2857142857143</ele><time>2026-03-30T12:09:29.873Z</time></trkpt><trkpt lat="44.2199125" lon="11.3328958"><ele>662.0</ele><time>2026-03-30T12:09:32.873Z</time></trkpt><trkpt lat="44.219915" lon="11.3327857"><ele>662.1428571428571</ele><time>2026-03-30T12:09:35.864Z</time></trkpt><trkpt lat="44.2199202" lon="11.332682"><ele>662.2857142857142</ele><time>2026-03-30T12:09:38.868Z</time></trkpt><trkpt lat="44.2199219" lon="11.332581"><ele>662.4285714285713</ele><time>2026-03-30T12:09:41.862Z</time></trkpt><trkpt lat="44.2199285" lon="11.3324832"><ele>662.5714285714286</ele><time>2026-03-30T12:09:44.876Z</time></trkpt><trkpt lat="44.2199352" lon="11.3323842"><ele>662.7142857142857</ele><time>2026-03-30T12:09:47.875Z</time></trkpt><trkpt lat="44.2199459" lon="11.3322857"><ele>662.8571428571428</ele><time>2026-03-30T12:09:50.87Z</time></trkpt><trkpt lat="44.2199659" lon="11.3321792"><ele>663.0</ele><time>2026-03-30T12:09:53.868Z</time></trkpt><trkpt lat="44.2199947" lon="11.332068"><ele>662.0</ele><time>2026-03-30T12:09:56.866Z</time></trkpt><trkpt lat="44.220022" lon="11.3319622"><ele>661.0</ele><time>2026-03-30T12:09:59.866Z</time></trkpt><trkpt lat="44.2200538" lon="11.3318525"><ele>660.0</ele><time>2026-03-30T12:10:02.866Z</time></trkpt><trkpt lat="44.2200668" lon="11.33176"><ele>659.0</ele><time>2026-03-30T12:10:04.876Z</time></trkpt><trkpt lat="44.2200818" lon="11.3316623"><ele>658.0</ele><time>2026-03-30T12:10:06.867Z</time></trkpt><trkpt lat="44.2201027" lon="11.3315607"><ele>657.0</ele><time>2026-03-30T12:10:08.883Z</time></trkpt><trkpt lat="44.2201143" lon="11.3314385"><ele>657.6666666666666</ele><time>2026-03-30T12:10:10.86Z</time></trkpt><trkpt lat="44.2201094" lon="11.3313248"><ele>658.3333333333334</ele><time>2026-03-30T12:10:12.859Z</time></trkpt><trkpt lat="44.2200935" lon="11.3312127"><ele>659.0</ele><time>2026-03-30T12:10:14.872Z</time></trkpt><trkpt lat="44.2200722" lon="11.331097"><ele>659.6666666666667</ele><time>2026-03-30T12:10:16.862Z</time></trkpt><trkpt lat="44.2200409" lon="11.3309852"><ele>660.3333333333334</ele><time>2026-03-30T12:10:18.857Z</time></trkpt><trkpt lat="44.2200061" lon="11.3308752"><ele>661.0</ele><time>2026-03-30T12:10:20.876Z</time></trkpt><trkpt lat="44.2199752" lon="11.3307667"><ele>661.0</ele><time>2026-03-30T12:10:22.873Z</time></trkpt><trkpt lat="44.2199399" lon="11.3306495"><ele>661.0</ele><time>2026-03-30T12:10:24.88Z</time></trkpt><trkpt lat="44.2199136" lon="11.3305166"><ele>661.0</ele><time>2026-03-30T12:10:26.868Z</time></trkpt><trkpt lat="44.219897" lon="11.3303745"><ele>661.0</ele><time>2026-03-30T12:10:28.876Z</time></trkpt><trkpt lat="44.2198998" lon="11.3302235"><ele>661.0</ele><time>2026-03-30T12:10:30.874Z</time></trkpt><trkpt lat="44.2199046" lon="11.3300687"><ele>663.0</ele><time>2026-03-30T12:10:32.87Z</time></trkpt><trkpt lat="44.2199262" lon="11.3299101"><ele>665.0</ele><time>2026-03-30T12:10:34.878Z</time></trkpt><trkpt lat="44.2199555" lon="11.3297464"><ele>667.0</ele><time>2026-03-30T12:10:36.873Z</time></trkpt><trkpt lat="44.219971" lon="11.3295825"><ele>669.0</ele><time>2026-03-30T12:10:38.882Z</time></trkpt><trkpt lat="44.2199584" lon="11.3294212"><ele>669.8000000000001</ele><time>2026-03-30T12:10:40.876Z</time></trkpt><trkpt lat="44.2199179" lon="11.3292688"><ele>670.6</ele><time>2026-03-30T12:10:42.869Z</time></trkpt><trkpt lat="44.2198536" lon="11.3291426"><ele>671.4</ele><time>2026-03-30T12:10:44.877Z</time></trkpt><trkpt lat="44.2197753" lon="11.3290322"><ele>672.2</ele><time>2026-03-30T12:10:46.886Z</time></trkpt><trkpt lat="44.2196949" lon="11.3289323"><ele>673.0</ele><time>2026-03-30T12:10:48.872Z</time></trkpt><trkpt lat="44.2196199" lon="11.3288439"><ele>670.1666666666667</ele><time>2026-03-30T12:10:50.878Z</time></trkpt><trkpt lat="44.2195541" lon="11.3287722"><ele>667.3333333333334</ele><time>2026-03-30T12:10:52.874Z</time></trkpt><trkpt lat="44.2195044" lon="11.3287068"><ele>664.5</ele><time>2026-03-30T12:10:54.88Z</time></trkpt><trkpt lat="44.2194581" lon="11.3286265"><ele>661.6666666666666</ele><time>2026-03-30T12:10:56.869Z</time></trkpt><trkpt lat="44.2194169" lon="11.3285389"><ele>658.8333333333333</ele><time>2026-03-30T12:10:58.876Z</time></trkpt><trkpt lat="44.2193783" lon="11.3284451"><ele>656.0</ele><time>2026-03-30T12:11:00.875Z</time></trkpt><trkpt lat="44.2193316" lon="11.3283547"><ele>655.9999999999999</ele><time>2026-03-30T12:11:02.88Z</time></trkpt><trkpt lat="44.219289" lon="11.3282614"><ele>656.0</ele><time>2026-03-30T12:11:04.878Z</time></trkpt><trkpt lat="44.2192437" lon="11.3281733"><ele>656.0</ele><time>2026-03-30T12:11:06.867Z</time></trkpt><trkpt lat="44.2192026" lon="11.3280927"><ele>656.0</ele><time>2026-03-30T12:11:08.867Z</time></trkpt><trkpt lat="44.2191642" lon="11.3280172"><ele>656.0</ele><time>2026-03-30T12:11:11.881Z</time></trkpt><trkpt lat="44.2191388" lon="11.3279359"><ele>655.9999999999999</ele><time>2026-03-30T12:11:34.865Z</time></trkpt><trkpt lat="44.2192095" lon="11.3279212"><ele>656.0</ele><time>2026-03-30T12:14:07.881Z</time></trkpt><trkpt lat="44.219154" lon="11.3279857"><ele>657.6666666666666</ele><time>2026-03-30T12:15:18.874Z</time></trkpt><trkpt lat="44.2191079" lon="11.3279137"><ele>659.3333333333333</ele><time>2026-03-30T12:15:22.866Z</time></trkpt><trkpt lat="44.2190712" lon="11.3278212"><ele>661.0</ele><time>2026-03-30T12:15:25.872Z</time></trkpt><trkpt lat="44.2190254" lon="11.3277229"><ele>662.6666666666666</ele><time>2026-03-30T12:15:28.879Z</time></trkpt><trkpt lat="44.2189734" lon="11.3276191"><ele>664.3333333333334</ele><time>2026-03-30T12:15:31.876Z</time></trkpt><trkpt lat="44.218921" lon="11.3275193"><ele>666.0</ele><time>2026-03-30T12:15:34.875Z</time></trkpt><trkpt lat="44.2188665" lon="11.3274319"><ele>666.0</ele><time>2026-03-30T12:15:37.868Z</time></trkpt><trkpt lat="44.2188066" lon="11.3273569"><ele>666.0</ele><time>2026-03-30T12:15:40.868Z</time></trkpt><trkpt lat="44.2187479" lon="11.3272933"><ele>666.0</ele><time>2026-03-30T12:15:43.862Z</time></trkpt><trkpt lat="44.2186812" lon="11.3272384"><ele>666.0</ele><time>2026-03-30T12:15:46.859Z</time></trkpt><trkpt lat="44.2186099" lon="11.327204"><ele>666.0</ele><time>2026-03-30T12:15:49.872Z</time></trkpt><trkpt lat="44.218542" lon="11.3271796"><ele>666.0</ele><time>2026-03-30T12:15:52.872Z</time></trkpt><trkpt lat="44.2184705" lon="11.3271681"><ele>670.7142857142858</ele><time>2026-03-30T12:15:55.874Z</time></trkpt><trkpt lat="44.2183974" lon="11.3271708"><ele>675.4285714285713</ele><time>2026-03-30T12:15:58.865Z</time></trkpt><trkpt lat="44.218326" lon="11.3271766"><ele>680.1428571428571</ele><time>2026-03-30T12:16:01.872Z</time></trkpt><trkpt lat="44.2182602" lon="11.3271809"><ele>684.8571428571429</ele><time>2026-03-30T12:16:04.853Z</time></trkpt><trkpt lat="44.2182009" lon="11.3272125"><ele>689.5714285714287</ele><time>2026-03-30T12:16:07.862Z</time></trkpt><trkpt lat="44.2181372" lon="11.3272455"><ele>694.2857142857142</ele><time>2026-03-30T12:16:11.898Z</time></trkpt><trkpt lat="44.2180709" lon="11.327278"><ele>699.0</ele><time>2026-03-30T12:16:14.871Z</time></trkpt><trkpt lat="44.218014" lon="11.3273575"><ele>699.0</ele><time>2026-03-30T12:16:18.874Z</time></trkpt><trkpt lat="44.2179696" lon="11.3274289"><ele>699.0</ele><time>2026-03-30T12:16:21.877Z</time></trkpt><trkpt lat="44.217924" lon="11.327515"><ele>699.0</ele><time>2026-03-30T12:16:25.87Z</time></trkpt><trkpt lat="44.2178868" lon="11.3276138"><ele>699.0</ele><time>2026-03-30T12:16:29.865Z</time></trkpt><trkpt lat="44.2178517" lon="11.3277184"><ele>699.0</ele><time>2026-03-30T12:16:33.866Z</time></trkpt><trkpt lat="44.217813" lon="11.3278183"><ele>699.0</ele><time>2026-03-30T12:16:37.864Z</time></trkpt><trkpt lat="44.2177766" lon="11.3278979"><ele>699.0</ele><time>2026-03-30T12:16:40.859Z</time></trkpt><trkpt lat="44.2177246" lon="11.3279913"><ele>699.0</ele><time>2026-03-30T12:16:44.873Z</time></trkpt><trkpt lat="44.217681" lon="11.3280671"><ele>699.0</ele><time>2026-03-30T12:16:47.86Z</time></trkpt><trkpt lat="44.2176375" lon="11.3281312"><ele>699.0</ele><time>2026-03-30T12:16:50.86Z</time></trkpt><trkpt lat="44.2175834" lon="11.3282006"><ele>699.0</ele><time>2026-03-30T12:16:53.866Z</time></trkpt><trkpt lat="44.2175267" lon="11.3282623"><ele>699.0</ele><time>2026-03-30T12:16:56.877Z</time></trkpt><trkpt lat="44.217465" lon="11.3283247"><ele>699.0</ele><time>2026-03-30T12:16:59.864Z</time></trkpt><trkpt lat="44.2173979" lon="11.3283785"><ele>699.8333333333334</ele><time>2026-03-30T12:17:02.87Z</time></trkpt><trkpt lat="44.2173321" lon="11.3284269"><ele>700.6666666666666</ele><time>2026-03-30T12:17:05.868Z</time></trkpt><trkpt lat="44.2172619" lon="11.3284668"><ele>701.5</ele><time>2026-03-30T12:17:08.866Z</time></trkpt><trkpt lat="44.2171891" lon="11.3284995"><ele>702.3333333333333</ele><time>2026-03-30T12:17:11.867Z</time></trkpt><trkpt lat="44.2171143" lon="11.3285309"><ele>703.1666666666666</ele><time>2026-03-30T12:17:14.879Z</time></trkpt><trkpt lat="44.2170329" lon="11.3285564"><ele>704.0</ele><time>2026-03-30T12:17:17.869Z</time></trkpt><trkpt lat="44.2169548" lon="11.328577"><ele>704.0</ele><time>2026-03-30T12:17:20.868Z</time></trkpt><trkpt lat="44.2168792" lon="11.3285894"><ele>704.0</ele><time>2026-03-30T12:17:23.865Z</time></trkpt><trkpt lat="44.2168011" lon="11.3285936"><ele>704.0</ele><time>2026-03-30T12:17:26.862Z</time></trkpt><trkpt lat="44.2167215" lon="11.3286042"><ele>704.0</ele><time>2026-03-30T12:17:29.866Z</time></trkpt><trkpt lat="44.216642" lon="11.3286068"><ele>704.0</ele><time>2026-03-30T12:17:32.865Z</time></trkpt><trkpt lat="44.2165663" lon="11.3286172"><ele>704.0</ele><time>2026-03-30T12:17:35.868Z</time></trkpt><trkpt lat="44.2164938" lon="11.3286365"><ele>704.8571428571429</ele><time>2026-03-30T12:17:38.869Z</time></trkpt><trkpt lat="44.2164271" lon="11.3286681"><ele>705.7142857142857</ele><time>2026-03-30T12:17:41.863Z</time></trkpt><trkpt lat="44.2163571" lon="11.3287046"><ele>706.5714285714286</ele><time>2026-03-30T12:17:44.87Z</time></trkpt><trkpt lat="44.2162887" lon="11.3287428"><ele>707.4285714285714</ele><time>2026-03-30T12:17:47.867Z</time></trkpt><trkpt lat="44.2162202" lon="11.3287833"><ele>708.2857142857143</ele><time>2026-03-30T12:17:50.871Z</time></trkpt><trkpt lat="44.2161594" lon="11.3288349"><ele>709.1428571428571</ele><time>2026-03-30T12:17:53.861Z</time></trkpt><trkpt lat="44.2161049" lon="11.3288962"><ele>710.0</ele><time>2026-03-30T12:17:56.865Z</time></trkpt><trkpt lat="44.2160627" lon="11.3289682"><ele>710.0</ele><time>2026-03-30T12:17:59.868Z</time></trkpt><trkpt lat="44.2160266" lon="11.3290464"><ele>710.0</ele><time>2026-03-30T12:18:02.867Z</time></trkpt><trkpt lat="44.2160018" lon="11.3291281"><ele>710.0</ele><time>2026-03-30T12:18:05.863Z</time></trkpt><trkpt lat="44.215974" lon="11.3292104"><ele>710.0</ele><time>2026-03-30T12:18:08.866Z</time></trkpt><trkpt lat="44.2159511" lon="11.3292987"><ele>710.0</ele><time>2026-03-30T12:18:11.869Z</time></trkpt><trkpt lat="44.2159323" lon="11.3293938"><ele>710.0</ele><time>2026-03-30T12:18:14.858Z</time></trkpt><trkpt lat="44.2159108" lon="11.3294851"><ele>710.0</ele><time>2026-03-30T12:18:17.859Z</time></trkpt><trkpt lat="44.2158932" lon="11.3295715"><ele>710.0</ele><time>2026-03-30T12:18:20.849Z</time></trkpt><trkpt lat="44.2158759" lon="11.329671"><ele>710.0</ele><time>2026-03-30T12:18:24.862Z</time></trkpt><trkpt lat="44.2158565" lon="11.3297793"><ele>710.0</ele><time>2026-03-30T12:18:28.861Z</time></trkpt><trkpt lat="44.2158389" lon="11.3298658"><ele>710.0</ele><time>2026-03-30T12:18:31.855Z</time></trkpt><trkpt lat="44.2158121" lon="11.3299572"><ele>710.0</ele><time>2026-03-30T12:18:34.873Z</time></trkpt><trkpt lat="44.2157842" lon="11.3300413"><ele>710.0</ele><time>2026-03-30T12:18:37.868Z</time></trkpt><trkpt lat="44.2157547" lon="11.3301317"><ele>710.0</ele><time>2026-03-30T12:18:40.86Z</time></trkpt><trkpt lat="44.2157196" lon="11.3302123"><ele>712.0</ele><time>2026-03-30T12:18:43.864Z</time></trkpt><trkpt lat="44.215681" lon="11.3302928"><ele>714.0</ele><time>2026-03-30T12:18:46.856Z</time></trkpt><trkpt lat="44.2156061" lon="11.330372"><ele>716.0</ele><time>2026-03-30T12:18:49.858Z</time></trkpt><trkpt lat="44.2155479" lon="11.3304108"><ele>718.0</ele><time>2026-03-30T12:18:51.866Z</time></trkpt><trkpt lat="44.2154608" lon="11.3304524"><ele>720.0</ele><time>2026-03-30T12:18:54.854Z</time></trkpt><trkpt lat="44.2153774" lon="11.3304675"><ele>722.0</ele><time>2026-03-30T12:18:57.86Z</time></trkpt><trkpt lat="44.2152959" lon="11.3304738"><ele>722.0</ele><time>2026-03-30T12:19:00.865Z</time></trkpt><trkpt lat="44.2152161" lon="11.3304817"><ele>722.0</ele><time>2026-03-30T12:19:03.867Z</time></trkpt><trkpt lat="44.2151352" lon="11.3305017"><ele>722.0</ele><time>2026-03-30T12:19:06.857Z</time></trkpt><trkpt lat="44.2150566" lon="11.3305195"><ele>722.0</ele><time>2026-03-30T12:19:09.866Z</time></trkpt><trkpt lat="44.214982" lon="11.3305419"><ele>722.0</ele><time>2026-03-30T12:19:12.87Z</time></trkpt><trkpt lat="44.2149149" lon="11.3305759"><ele>722.0</ele><time>2026-03-30T12:19:15.862Z</time></trkpt><trkpt lat="44.214861" lon="11.3306269"><ele>725.0</ele><time>2026-03-30T12:19:18.867Z</time></trkpt><trkpt lat="44.2148082" lon="11.3306971"><ele>728.0</ele><time>2026-03-30T12:19:23.862Z</time></trkpt><trkpt lat="44.2147742" lon="11.3307823"><ele>731.0</ele><time>2026-03-30T12:19:27.865Z</time></trkpt><trkpt lat="44.2147504" lon="11.3308807"><ele>734.0</ele><time>2026-03-30T12:19:31.867Z</time></trkpt><trkpt lat="44.2147459" lon="11.3309962"><ele>737.0</ele><time>2026-03-30T12:19:35.866Z</time></trkpt><trkpt lat="44.2147539" lon="11.3310978"><ele>740.0</ele><time>2026-03-30T12:19:40.866Z</time></trkpt><trkpt lat="44.2147489" lon="11.3312238"><ele>739.9999999999999</ele><time>2026-03-30T12:19:43.867Z</time></trkpt><trkpt lat="44.2147456" lon="11.3313173"><ele>740.0</ele><time>2026-03-30T12:19:46.871Z</time></trkpt><trkpt lat="44.2147254" lon="11.3314159"><ele>740.0</ele><time>2026-03-30T12:19:49.869Z</time></trkpt><trkpt lat="44.2146947" lon="11.3314958"><ele>740.0</ele><time>2026-03-30T12:19:52.861Z</time></trkpt><trkpt lat="44.2146543" lon="11.3315726"><ele>740.0</ele><time>2026-03-30T12:19:55.869Z</time></trkpt><trkpt lat="44.2145919" lon="11.3316587"><ele>739.9999999999999</ele><time>2026-03-30T12:19:58.865Z</time></trkpt><trkpt lat="44.2145315" lon="11.3317393"><ele>740.0</ele><time>2026-03-30T12:20:01.865Z</time></trkpt><trkpt lat="44.2144813" lon="11.3318151"><ele>738.6666666666666</ele><time>2026-03-30T12:20:04.869Z</time></trkpt><trkpt lat="44.214432" lon="11.3319021"><ele>737.3333333333333</ele><time>2026-03-30T12:20:07.862Z</time></trkpt><trkpt lat="44.2143846" lon="11.3320013"><ele>736.0</ele><time>2026-03-30T12:20:11.864Z</time></trkpt><trkpt lat="44.2143558" lon="11.3321076"><ele>734.6666666666666</ele><time>2026-03-30T12:20:15.873Z</time></trkpt><trkpt lat="44.2143608" lon="11.3322037"><ele>733.3333333333334</ele><time>2026-03-30T12:20:20.87Z</time></trkpt><trkpt lat="44.214351" lon="11.3323036"><ele>732.0</ele><time>2026-03-30T12:20:23.863Z</time></trkpt><trkpt lat="44.2143331" lon="11.3324143"><ele>730.4285714285714</ele><time>2026-03-30T12:20:27.871Z</time></trkpt><trkpt lat="44.2143064" lon="11.3325082"><ele>728.8571428571429</ele><time>2026-03-30T12:20:30.869Z</time></trkpt><trkpt lat="44.21427" lon="11.3326022"><ele>727.2857142857142</ele><time>2026-03-30T12:20:33.859Z</time></trkpt><trkpt lat="44.2142306" lon="11.3326775"><ele>725.7142857142858</ele><time>2026-03-30T12:20:36.867Z</time></trkpt><trkpt lat="44.2141921" lon="11.3327516"><ele>724.1428571428571</ele><time>2026-03-30T12:20:39.866Z</time></trkpt><trkpt lat="44.214154" lon="11.3328338"><ele>722.5714285714286</ele><time>2026-03-30T12:20:42.87Z</time></trkpt><trkpt lat="44.2141224" lon="11.3329275"><ele>721.0</ele><time>2026-03-30T12:20:45.874Z</time></trkpt><trkpt lat="44.2140963" lon="11.3330189"><ele>720.0</ele><time>2026-03-30T12:20:48.871Z</time></trkpt><trkpt lat="44.2140711" lon="11.3331065"><ele>719.0</ele><time>2026-03-30T12:20:51.877Z</time></trkpt><trkpt lat="44.2140455" lon="11.3331946"><ele>718.0</ele><time>2026-03-30T12:20:54.865Z</time></trkpt><trkpt lat="44.2140138" lon="11.3332779"><ele>717.0</ele><time>2026-03-30T12:20:57.861Z</time></trkpt><trkpt lat="44.2139802" lon="11.3333575"><ele>716.0</ele><time>2026-03-30T12:21:00.865Z</time></trkpt><trkpt lat="44.2139413" lon="11.3334316"><ele>715.0</ele><time>2026-03-30T12:21:03.858Z</time></trkpt><trkpt lat="44.2139002" lon="11.3334991"><ele>714.0</ele><time>2026-03-30T12:21:06.864Z</time></trkpt><trkpt lat="44.213852" lon="11.3335629"><ele>716.8571428571429</ele><time>2026-03-30T12:21:09.868Z</time></trkpt><trkpt lat="44.2137962" lon="11.3336275"><ele>719.7142857142858</ele><time>2026-03-30T12:21:12.865Z</time></trkpt><trkpt lat="44.2137373" lon="11.3336892"><ele>722.5714285714286</ele><time>2026-03-30T12:21:15.874Z</time></trkpt><trkpt lat="44.2136717" lon="11.3337373"><ele>725.4285714285714</ele><time>2026-03-30T12:21:18.873Z</time></trkpt><trkpt lat="44.2136029" lon="11.3337817"><ele>728.2857142857143</ele><time>2026-03-30T12:21:21.859Z</time></trkpt><trkpt lat="44.2135425" lon="11.3338082"><ele>731.1428571428571</ele><time>2026-03-30T12:21:23.873Z</time></trkpt><trkpt lat="44.2134556" lon="11.3338385"><ele>734.0</ele><time>2026-03-30T12:21:26.876Z</time></trkpt><trkpt lat="44.2133761" lon="11.3338413"><ele>734.0</ele><time>2026-03-30T12:21:29.867Z</time></trkpt><trkpt lat="44.2132985" lon="11.3338264"><ele>734.0</ele><time>2026-03-30T12:21:32.876Z</time></trkpt><trkpt lat="44.2132206" lon="11.3338029"><ele>734.0</ele><time>2026-03-30T12:21:35.871Z</time></trkpt><trkpt lat="44.2131491" lon="11.3337631"><ele>734.0</ele><time>2026-03-30T12:21:38.854Z</time></trkpt><trkpt lat="44.2130751" lon="11.3337163"><ele>734.0</ele><time>2026-03-30T12:21:41.87Z</time></trkpt><trkpt lat="44.2130096" lon="11.3336621"><ele>734.0</ele><time>2026-03-30T12:21:44.865Z</time></trkpt><trkpt lat="44.2129488" lon="11.3336064"><ele>734.0</ele><time>2026-03-30T12:21:47.869Z</time></trkpt><trkpt lat="44.2128917" lon="11.3335454"><ele>734.0</ele><time>2026-03-30T12:21:50.858Z</time></trkpt><trkpt lat="44.2128367" lon="11.3334807"><ele>734.0</ele><time>2026-03-30T12:21:53.863Z</time></trkpt><trkpt lat="44.2127819" lon="11.3334171"><ele>734.0</ele><time>2026-03-30T12:21:56.873Z</time></trkpt><trkpt lat="44.2127319" lon="11.3333434"><ele>734.0</ele><time>2026-03-30T12:21:59.864Z</time></trkpt><trkpt lat="44.2126925" lon="11.3332503"><ele>734.0</ele><time>2026-03-30T12:22:02.865Z</time></trkpt><trkpt lat="44.212669" lon="11.3331554"><ele>734.0</ele><time>2026-03-30T12:22:05.876Z</time></trkpt><trkpt lat="44.2126678" lon="11.3330389"><ele>733.8333333333333</ele><time>2026-03-30T12:22:08.877Z</time></trkpt><trkpt lat="44.2126875" lon="11.3329498"><ele>733.6666666666666</ele><time>2026-03-30T12:22:10.879Z</time></trkpt><trkpt lat="44.2127268" lon="11.3328418"><ele>733.5</ele><time>2026-03-30T12:22:13.87Z</time></trkpt><trkpt lat="44.2127816" lon="11.3327667"><ele>733.3333333333334</ele><time>2026-03-30T12:22:16.867Z</time></trkpt><trkpt lat="44.2128442" lon="11.3326985"><ele>733.1666666666667</ele><time>2026-03-30T12:22:19.869Z</time></trkpt><trkpt lat="44.2129139" lon="11.332638"><ele>733.0</ele><time>2026-03-30T12:22:22.867Z</time></trkpt><trkpt lat="44.2129827" lon="11.3325779"><ele>732.9999999999999</ele><time>2026-03-30T12:22:25.869Z</time></trkpt><trkpt lat="44.2130456" lon="11.3325175"><ele>733.0</ele><time>2026-03-30T12:22:28.862Z</time></trkpt><trkpt lat="44.2131059" lon="11.3324638"><ele>733.0</ele><time>2026-03-30T12:22:31.864Z</time></trkpt><trkpt lat="44.2131688" lon="11.332418"><ele>733.0</ele><time>2026-03-30T12:22:34.868Z</time></trkpt><trkpt lat="44.2132257" lon="11.3323609"><ele>733.0</ele><time>2026-03-30T12:22:37.878Z</time></trkpt><trkpt lat="44.2132824" lon="11.3323017"><ele>732.9999999999999</ele><time>2026-03-30T12:22:40.866Z</time></trkpt><trkpt lat="44.2133385" lon="11.3322333"><ele>733.0</ele><time>2026-03-30T12:22:43.88Z</time></trkpt><trkpt lat="44.213391" lon="11.3321619"><ele>735.5714285714286</ele><time>2026-03-30T12:22:46.865Z</time></trkpt><trkpt lat="44.2134356" lon="11.3320803"><ele>738.1428571428571</ele><time>2026-03-30T12:22:49.868Z</time></trkpt><trkpt lat="44.2134792" lon="11.3319974"><ele>740.7142857142858</ele><time>2026-03-30T12:22:52.862Z</time></trkpt><trkpt lat="44.2135161" lon="11.331898"><ele>743.2857142857142</ele><time>2026-03-30T12:22:56.865Z</time></trkpt><trkpt lat="44.2135398" lon="11.3318139"><ele>745.8571428571429</ele><time>2026-03-30T12:22:59.868Z</time></trkpt><trkpt lat="44.2135642" lon="11.3317255"><ele>748.4285714285714</ele><time>2026-03-30T12:23:02.873Z</time></trkpt><trkpt lat="44.2135932" lon="11.331634"><ele>751.0</ele><time>2026-03-30T12:23:05.876Z</time></trkpt><trkpt lat="44.2136116" lon="11.3315294"><ele>751.0000000000001</ele><time>2026-03-30T12:23:09.873Z</time></trkpt><trkpt lat="44.2136194" lon="11.3314384"><ele>751.0</ele><time>2026-03-30T12:23:13.852Z</time></trkpt><trkpt lat="44.2136297" lon="11.3313498"><ele>751.0</ele><time>2026-03-30T12:23:16.869Z</time></trkpt><trkpt lat="44.2136357" lon="11.3312389"><ele>751.0</ele><time>2026-03-30T12:23:21.865Z</time></trkpt><trkpt lat="44.2136435" lon="11.3311443"><ele>751.0</ele><time>2026-03-30T12:23:24.862Z</time></trkpt><trkpt lat="44.2136592" lon="11.3310463"><ele>751.0000000000001</ele><time>2026-03-30T12:23:27.876Z</time></trkpt><trkpt lat="44.2136765" lon="11.3309582"><ele>751.0</ele><time>2026-03-30T12:23:30.873Z</time></trkpt><trkpt lat="44.2137066" lon="11.3308392"><ele>752.2857142857143</ele><time>2026-03-30T12:23:33.885Z</time></trkpt><trkpt lat="44.2137266" lon="11.3307505"><ele>753.5714285714286</ele><time>2026-03-30T12:23:35.879Z</time></trkpt><trkpt lat="44.2137466" lon="11.3306573"><ele>754.8571428571429</ele><time>2026-03-30T12:23:39.869Z</time></trkpt><trkpt lat="44.2137685" lon="11.330547"><ele>756.1428571428571</ele><time>2026-03-30T12:23:42.866Z</time></trkpt><trkpt lat="44.2137888" lon="11.3304619"><ele>757.4285714285714</ele><time>2026-03-30T12:23:44.869Z</time></trkpt><trkpt lat="44.2138167" lon="11.3303604"><ele>758.7142857142858</ele><time>2026-03-30T12:23:47.867Z</time></trkpt><trkpt lat="44.2138454" lon="11.3302664"><ele>760.0</ele><time>2026-03-30T12:23:50.869Z</time></trkpt><trkpt lat="44.2138741" lon="11.3301493"><ele>760.7142857142858</ele><time>2026-03-30T12:23:53.859Z</time></trkpt><trkpt lat="44.2138925" lon="11.3300635"><ele>761.4285714285714</ele><time>2026-03-30T12:23:56.862Z</time></trkpt><trkpt lat="44.213916" lon="11.3299584"><ele>762.1428571428571</ele><time>2026-03-30T12:23:59.868Z</time></trkpt><trkpt lat="44.2139384" lon="11.3298693"><ele>762.8571428571429</ele><time>2026-03-30T12:24:02.86Z</time></trkpt><trkpt lat="44.2139612" lon="11.3297806"><ele>763.5714285714286</ele><time>2026-03-30T12:24:05.865Z</time></trkpt><trkpt lat="44.2139902" lon="11.3296828"><ele>764.2857142857143</ele><time>2026-03-30T12:24:08.877Z</time></trkpt><trkpt lat="44.2140107" lon="11.3295904"><ele>765.0</ele><time>2026-03-30T12:24:11.867Z</time></trkpt><trkpt lat="44.2140345" lon="11.329489"><ele>765.0</ele><time>2026-03-30T12:24:15.868Z</time></trkpt><trkpt lat="44.2140455" lon="11.329369"><ele>765.0</ele><time>2026-03-30T12:24:20.866Z</time></trkpt><trkpt lat="44.2140578" lon="11.329264"><ele>765.0</ele><time>2026-03-30T12:24:23.867Z</time></trkpt><trkpt lat="44.214071" lon="11.3291607"><ele>765.0</ele><time>2026-03-30T12:24:26.867Z</time></trkpt><trkpt lat="44.2140942" lon="11.3290443"><ele>765.0</ele><time>2026-03-30T12:24:29.873Z</time></trkpt><trkpt lat="44.2141113" lon="11.3289555"><ele>765.0</ele><time>2026-03-30T12:24:32.863Z</time></trkpt><trkpt lat="44.2141369" lon="11.3288585"><ele>767.6666666666666</ele><time>2026-03-30T12:24:35.87Z</time></trkpt><trkpt lat="44.2141662" lon="11.3287685"><ele>770.3333333333333</ele><time>2026-03-30T12:24:38.876Z</time></trkpt><trkpt lat="44.2141988" lon="11.3286836"><ele>773.0</ele><time>2026-03-30T12:24:41.87Z</time></trkpt><trkpt lat="44.2142452" lon="11.3285996"><ele>775.6666666666666</ele><time>2026-03-30T12:24:44.872Z</time></trkpt><trkpt lat="44.2142942" lon="11.3285057"><ele>778.3333333333333</ele><time>2026-03-30T12:24:47.879Z</time></trkpt><trkpt lat="44.2143556" lon="11.3284282"><ele>781.0</ele><time>2026-03-30T12:24:50.87Z</time></trkpt><trkpt lat="44.2144164" lon="11.3283735"><ele>780.9999999999999</ele><time>2026-03-30T12:24:53.871Z</time></trkpt><trkpt lat="44.214492" lon="11.3283355"><ele>781.0</ele><time>2026-03-30T12:24:56.865Z</time></trkpt><trkpt lat="44.2145669" lon="11.3283266"><ele>781.0</ele><time>2026-03-30T12:24:59.877Z</time></trkpt><trkpt lat="44.2146434" lon="11.3283163"><ele>781.0</ele><time>2026-03-30T12:25:02.872Z</time></trkpt><trkpt lat="44.2147146" lon="11.3283231"><ele>780.9999999999999</ele><time>2026-03-30T12:25:05.877Z</time></trkpt><trkpt lat="44.2147862" lon="11.3283432"><ele>781.0</ele><time>2026-03-30T12:25:08.868Z</time></trkpt><trkpt lat="44.2148609" lon="11.3283606"><ele>781.4285714285714</ele><time>2026-03-30T12:25:11.869Z</time></trkpt><trkpt lat="44.21493" lon="11.3283701"><ele>781.8571428571429</ele><time>2026-03-30T12:25:14.87Z</time></trkpt><trkpt lat="44.2150046" lon="11.3283638"><ele>782.2857142857142</ele><time>2026-03-30T12:25:17.868Z</time></trkpt><trkpt lat="44.2150755" lon="11.3283296"><ele>782.7142857142858</ele><time>2026-03-30T12:25:20.868Z</time></trkpt><trkpt lat="44.2151283" lon="11.3282809"><ele>783.1428571428571</ele><time>2026-03-30T12:25:22.87Z</time></trkpt><trkpt lat="44.2151798" lon="11.3282078"><ele>783.5714285714286</ele><time>2026-03-30T12:25:25.876Z</time></trkpt><trkpt lat="44.2152044" lon="11.3281263"><ele>784.0</ele><time>2026-03-30T12:25:28.885Z</time></trkpt><trkpt lat="44.2152123" lon="11.3280131"><ele>784.0</ele><time>2026-03-30T12:25:32.864Z</time></trkpt><trkpt lat="44.2152052" lon="11.3279258"><ele>784.0</ele><time>2026-03-30T12:25:36.873Z</time></trkpt><trkpt lat="44.2151897" lon="11.3278369"><ele>784.0</ele><time>2026-03-30T12:25:39.875Z</time></trkpt><trkpt lat="44.2151748" lon="11.3277374"><ele>784.0</ele><time>2026-03-30T12:25:43.868Z</time></trkpt><trkpt lat="44.2151543" lon="11.3276501"><ele>784.0</ele><time>2026-03-30T12:25:47.869Z</time></trkpt><trkpt lat="44.2151318" lon="11.3275503"><ele>784.0</ele><time>2026-03-30T12:25:51.865Z</time></trkpt><trkpt lat="44.2151204" lon="11.3274525"><ele>784.0</ele><time>2026-03-30T12:25:55.868Z</time></trkpt><trkpt lat="44.2151226" lon="11.3273398"><ele>785.8571428571429</ele><time>2026-03-30T12:25:59.875Z</time></trkpt><trkpt lat="44.2151264" lon="11.3272235"><ele>787.7142857142858</ele><time>2026-03-30T12:26:02.868Z</time></trkpt><trkpt lat="44.2151316" lon="11.3271154"><ele>789.5714285714286</ele><time>2026-03-30T12:26:05.859Z</time></trkpt><trkpt lat="44.2151382" lon="11.3270203"><ele>791.4285714285714</ele><time>2026-03-30T12:26:08.873Z</time></trkpt><trkpt lat="44.2151449" lon="11.3269177"><ele>793.2857142857143</ele><time>2026-03-30T12:26:11.876Z</time></trkpt><trkpt lat="44.2151445" lon="11.3268061"><ele>795.1428571428571</ele><time>2026-03-30T12:26:14.874Z</time></trkpt><trkpt lat="44.2151309" lon="11.3267176"><ele>797.0</ele><time>2026-03-30T12:26:18.862Z</time></trkpt><trkpt lat="44.2151327" lon="11.3265986"><ele>797.0000000000001</ele><time>2026-03-30T12:26:21.883Z</time></trkpt><trkpt lat="44.215123" lon="11.3264941"><ele>797.0</ele><time>2026-03-30T12:26:25.87Z</time></trkpt><trkpt lat="44.2151267" lon="11.3263832"><ele>797.0</ele><time>2026-03-30T12:26:28.863Z</time></trkpt><trkpt lat="44.2151307" lon="11.3262954"><ele>797.0</ele><time>2026-03-30T12:26:31.882Z</time></trkpt><trkpt lat="44.2151435" lon="11.3261731"><ele>797.0000000000001</ele><time>2026-03-30T12:26:35.877Z</time></trkpt><trkpt lat="44.2151645" lon="11.3260745"><ele>797.0</ele><time>2026-03-30T12:26:38.871Z</time></trkpt><trkpt lat="44.2151998" lon="11.325976"><ele>799.0</ele><time>2026-03-30T12:26:41.855Z</time></trkpt><trkpt lat="44.2152425" lon="11.3259032"><ele>801.0</ele><time>2026-03-30T12:26:43.874Z</time></trkpt><trkpt lat="44.2152896" lon="11.3258298"><ele>803.0</ele><time>2026-03-30T12:26:46.864Z</time></trkpt><trkpt lat="44.2153531" lon="11.3257758"><ele>805.0</ele><time>2026-03-30T12:26:49.87Z</time></trkpt><trkpt lat="44.2154216" lon="11.3257513"><ele>807.0</ele><time>2026-03-30T12:26:52.869Z</time></trkpt><trkpt lat="44.2154921" lon="11.3257346"><ele>809.0</ele><time>2026-03-30T12:26:55.866Z</time></trkpt><trkpt lat="44.2155606" lon="11.3257303"><ele>811.0</ele><time>2026-03-30T12:26:58.871Z</time></trkpt><trkpt lat="44.2156222" lon="11.3257116"><ele>809.7142857142857</ele><time>2026-03-30T12:27:01.865Z</time></trkpt><trkpt lat="44.2157013" lon="11.325703"><ele>808.4285714285714</ele><time>2026-03-30T12:27:04.868Z</time></trkpt><trkpt lat="44.2157832" lon="11.32567"><ele>807.1428571428571</ele><time>2026-03-30T12:27:07.862Z</time></trkpt><trkpt lat="44.2158504" lon="11.3256174"><ele>805.8571428571429</ele><time>2026-03-30T12:27:10.869Z</time></trkpt><trkpt lat="44.2159044" lon="11.3255518"><ele>804.5714285714287</ele><time>2026-03-30T12:27:13.871Z</time></trkpt><trkpt lat="44.21594" lon="11.3254676"><ele>803.2857142857143</ele><time>2026-03-30T12:27:17.863Z</time></trkpt><trkpt lat="44.2159529" lon="11.3253784"><ele>802.0</ele><time>2026-03-30T12:27:21.868Z</time></trkpt><trkpt lat="44.2159419" lon="11.325271"><ele>801.9999999999999</ele><time>2026-03-30T12:27:25.877Z</time></trkpt><trkpt lat="44.2159189" lon="11.3251832"><ele>802.0</ele><time>2026-03-30T12:27:28.864Z</time></trkpt><trkpt lat="44.215882" lon="11.325079"><ele>802.0</ele><time>2026-03-30T12:27:32.844Z</time></trkpt><trkpt lat="44.2158489" lon="11.3249704"><ele>802.0</ele><time>2026-03-30T12:27:36.867Z</time></trkpt><trkpt lat="44.2158327" lon="11.3248764"><ele>801.9999999999999</ele><time>2026-03-30T12:27:39.869Z</time></trkpt><trkpt lat="44.2158374" lon="11.324766"><ele>802.0</ele><time>2026-03-30T12:27:42.864Z</time></trkpt><trkpt lat="44.2158504" lon="11.3246627"><ele>803.9999999999999</ele><time>2026-03-30T12:27:45.864Z</time></trkpt><trkpt lat="44.2158713" lon="11.3245463"><ele>806.0</ele><time>2026-03-30T12:27:48.871Z</time></trkpt><trkpt lat="44.2158934" lon="11.3244476"><ele>808.0</ele><time>2026-03-30T12:27:51.862Z</time></trkpt><trkpt lat="44.2159118" lon="11.3243583"><ele>810.0</ele><time>2026-03-30T12:27:54.878Z</time></trkpt><trkpt lat="44.2159331" lon="11.3242454"><ele>811.9999999999999</ele><time>2026-03-30T12:27:57.869Z</time></trkpt><trkpt lat="44.2159478" lon="11.3241557"><ele>814.0</ele><time>2026-03-30T12:28:00.867Z</time></trkpt><trkpt lat="44.2159621" lon="11.3240498"><ele>814.0000000000001</ele><time>2026-03-30T12:28:04.875Z</time></trkpt><trkpt lat="44.2159716" lon="11.3239492"><ele>814.0</ele><time>2026-03-30T12:28:08.866Z</time></trkpt><trkpt lat="44.2159923" lon="11.3238465"><ele>814.0</ele><time>2026-03-30T12:28:11.864Z</time></trkpt><trkpt lat="44.2160153" lon="11.3237584"><ele>814.0</ele><time>2026-03-30T12:28:14.871Z</time></trkpt><trkpt lat="44.2160486" lon="11.3236709"><ele>814.0</ele><time>2026-03-30T12:28:17.864Z</time></trkpt><trkpt lat="44.2161028" lon="11.3236033"><ele>814.0000000000001</ele><time>2026-03-30T12:28:20.861Z</time></trkpt><trkpt lat="44.2161747" lon="11.3235647"><ele>814.0</ele><time>2026-03-30T12:28:23.874Z</time></trkpt><trkpt lat="44.21624" lon="11.3235143"><ele>812.4999999999999</ele><time>2026-03-30T12:28:26.86Z</time></trkpt><trkpt lat="44.2163079" lon="11.3234488"><ele>811.0</ele><time>2026-03-30T12:28:29.862Z</time></trkpt><trkpt lat="44.2163763" lon="11.3233855"><ele>809.5</ele><time>2026-03-30T12:28:32.876Z</time></trkpt><trkpt lat="44.2164248" lon="11.3233279"><ele>808.0</ele><time>2026-03-30T12:28:35.868Z</time></trkpt><trkpt lat="44.216469" lon="11.3232584"><ele>806.4999999999999</ele><time>2026-03-30T12:28:38.872Z</time></trkpt><trkpt lat="44.216514" lon="11.3231844"><ele>805.0</ele><time>2026-03-30T12:28:42.862Z</time></trkpt><trkpt lat="44.2165862" lon="11.3231097"><ele>807.4285714285714</ele><time>2026-03-30T12:28:47.86Z</time></trkpt><trkpt lat="44.2166541" lon="11.3230496"><ele>809.8571428571429</ele><time>2026-03-30T12:28:50.855Z</time></trkpt><trkpt lat="44.2167145" lon="11.3230087"><ele>812.2857142857142</ele><time>2026-03-30T12:28:53.871Z</time></trkpt><trkpt lat="44.216775" lon="11.3229536"><ele>814.7142857142858</ele><time>2026-03-30T12:28:56.869Z</time></trkpt><trkpt lat="44.2168349" lon="11.3228655"><ele>817.1428571428571</ele><time>2026-03-30T12:28:59.861Z</time></trkpt><trkpt lat="44.2168736" lon="11.3227853"><ele>819.5714285714286</ele><time>2026-03-30T12:29:02.868Z</time></trkpt><trkpt lat="44.2169047" lon="11.3227087"><ele>822.0</ele><time>2026-03-30T12:29:05.855Z</time></trkpt><trkpt lat="44.2169226" lon="11.3226174"><ele>822.0</ele><time>2026-03-30T12:29:09.862Z</time></trkpt><trkpt lat="44.216955" lon="11.322508"><ele>822.0</ele><time>2026-03-30T12:29:13.856Z</time></trkpt><trkpt lat="44.2170029" lon="11.3224274"><ele>822.0</ele><time>2026-03-30T12:29:16.875Z</time></trkpt><trkpt lat="44.2170509" lon="11.3223643"><ele>822.0</ele><time>2026-03-30T12:29:19.871Z</time></trkpt><trkpt lat="44.217105" lon="11.3223074"><ele>822.0</ele><time>2026-03-30T12:29:22.858Z</time></trkpt><trkpt lat="44.217166" lon="11.3222371"><ele>822.0</ele><time>2026-03-30T12:29:25.868Z</time></trkpt><trkpt lat="44.2172125" lon="11.3221555"><ele>822.0</ele><time>2026-03-30T12:29:28.864Z</time></trkpt><trkpt lat="44.2172553" lon="11.3220748"><ele>821.4285714285714</ele><time>2026-03-30T12:29:31.859Z</time></trkpt><trkpt lat="44.2172924" lon="11.3219955"><ele>820.8571428571429</ele><time>2026-03-30T12:29:34.877Z</time></trkpt><trkpt lat="44.21733" lon="11.3218977"><ele>820.2857142857142</ele><time>2026-03-30T12:29:38.855Z</time></trkpt><trkpt lat="44.2173593" lon="11.3218159"><ele>819.7142857142858</ele><time>2026-03-30T12:29:41.861Z</time></trkpt><trkpt lat="44.2173966" lon="11.3217149"><ele>819.1428571428572</ele><time>2026-03-30T12:29:45.868Z</time></trkpt><trkpt lat="44.2174188" lon="11.3216156"><ele>818.5714285714286</ele><time>2026-03-30T12:29:48.873Z</time></trkpt><trkpt lat="44.2174341" lon="11.3215175"><ele>818.0</ele><time>2026-03-30T12:29:51.872Z</time></trkpt><trkpt lat="44.2174566" lon="11.3214207"><ele>817.5000000000001</ele><time>2026-03-30T12:29:54.877Z</time></trkpt><trkpt lat="44.2174884" lon="11.3213214"><ele>817.0</ele><time>2026-03-30T12:29:57.872Z</time></trkpt><trkpt lat="44.2175248" lon="11.3212214"><ele>816.5</ele><time>2026-03-30T12:30:00.866Z</time></trkpt><trkpt lat="44.2175574" lon="11.3211269"><ele>816.0</ele><time>2026-03-30T12:30:03.867Z</time></trkpt><trkpt lat="44.2175838" lon="11.3210423"><ele>815.5000000000001</ele><time>2026-03-30T12:30:06.878Z</time></trkpt><trkpt lat="44.2176109" lon="11.3209468"><ele>815.0</ele><time>2026-03-30T12:30:09.869Z</time></trkpt><trkpt lat="44.2176448" lon="11.3208498"><ele>815.0000000000001</ele><time>2026-03-30T12:30:12.867Z</time></trkpt><trkpt lat="44.2176985" lon="11.3207573"><ele>815.0</ele><time>2026-03-30T12:30:15.876Z</time></trkpt><trkpt lat="44.2177642" lon="11.3206756"><ele>815.0</ele><time>2026-03-30T12:30:18.877Z</time></trkpt><trkpt lat="44.2178286" lon="11.3206072"><ele>815.0</ele><time>2026-03-30T12:30:21.87Z</time></trkpt><trkpt lat="44.2178967" lon="11.3205313"><ele>815.0000000000001</ele><time>2026-03-30T12:30:24.865Z</time></trkpt><trkpt lat="44.2179607" lon="11.3204573"><ele>815.0</ele><time>2026-03-30T12:30:27.865Z</time></trkpt><trkpt lat="44.2180195" lon="11.3203739"><ele>813.8333333333334</ele><time>2026-03-30T12:30:30.866Z</time></trkpt><trkpt lat="44.2180777" lon="11.3202988"><ele>812.6666666666667</ele><time>2026-03-30T12:30:33.855Z</time></trkpt><trkpt lat="44.2181316" lon="11.320222"><ele>811.5</ele><time>2026-03-30T12:30:36.858Z</time></trkpt><trkpt lat="44.2181783" lon="11.3201398"><ele>810.3333333333333</ele><time>2026-03-30T12:30:39.874Z</time></trkpt><trkpt lat="44.218223" lon="11.3200603"><ele>809.1666666666666</ele><time>2026-03-30T12:30:42.872Z</time></trkpt><trkpt lat="44.2182691" lon="11.3199791"><ele>808.0</ele><time>2026-03-30T12:30:45.866Z</time></trkpt><trkpt lat="44.2183178" lon="11.319895"><ele>810.2857142857142</ele><time>2026-03-30T12:30:48.866Z</time></trkpt><trkpt lat="44.2183587" lon="11.3198267"><ele>812.5714285714286</ele><time>2026-03-30T12:30:51.868Z</time></trkpt><trkpt lat="44.2184038" lon="11.319749"><ele>814.8571428571429</ele><time>2026-03-30T12:30:54.875Z</time></trkpt><trkpt lat="44.2184514" lon="11.3196602"><ele>817.1428571428571</ele><time>2026-03-30T12:30:57.87Z</time></trkpt><trkpt lat="44.2184967" lon="11.3195767"><ele>819.4285714285714</ele><time>2026-03-30T12:31:00.884Z</time></trkpt><trkpt lat="44.2185432" lon="11.3194866"><ele>821.7142857142857</ele><time>2026-03-30T12:31:03.868Z</time></trkpt><trkpt lat="44.2186035" lon="11.3194137"><ele>824.0</ele><time>2026-03-30T12:31:06.866Z</time></trkpt><trkpt lat="44.2186551" lon="11.319334"><ele>823.9999999999999</ele><time>2026-03-30T12:31:09.869Z</time></trkpt><trkpt lat="44.2187053" lon="11.3192582"><ele>824.0</ele><time>2026-03-30T12:31:12.871Z</time></trkpt><trkpt lat="44.2187598" lon="11.3191875"><ele>824.0</ele><time>2026-03-30T12:31:15.858Z</time></trkpt><trkpt lat="44.218818" lon="11.3191295"><ele>824.0</ele><time>2026-03-30T12:31:18.877Z</time></trkpt><trkpt lat="44.2188766" lon="11.3190787"><ele>824.0</ele><time>2026-03-30T12:31:21.867Z</time></trkpt><trkpt lat="44.2189407" lon="11.3190153"><ele>823.9999999999999</ele><time>2026-03-30T12:31:24.881Z</time></trkpt><trkpt lat="44.2190011" lon="11.3189523"><ele>824.0</ele><time>2026-03-30T12:31:27.877Z</time></trkpt><trkpt lat="44.219066" lon="11.3188779"><ele>826.7142857142857</ele><time>2026-03-30T12:31:30.876Z</time></trkpt><trkpt lat="44.2191204" lon="11.3188018"><ele>829.4285714285714</ele><time>2026-03-30T12:31:33.874Z</time></trkpt><trkpt lat="44.2191697" lon="11.31872"><ele>832.1428571428571</ele><time>2026-03-30T12:31:36.886Z</time></trkpt><trkpt lat="44.2192091" lon="11.3186396"><ele>834.8571428571429</ele><time>2026-03-30T12:31:39.872Z</time></trkpt><trkpt lat="44.2192439" lon="11.3185559"><ele>837.5714285714286</ele><time>2026-03-30T12:31:42.87Z</time></trkpt><trkpt lat="44.2192858" lon="11.3184689"><ele>840.2857142857142</ele><time>2026-03-30T12:31:45.869Z</time></trkpt><trkpt lat="44.2193373" lon="11.3183869"><ele>843.0</ele><time>2026-03-30T12:31:49.866Z</time></trkpt><trkpt lat="44.2193926" lon="11.3183239"><ele>843.0</ele><time>2026-03-30T12:31:52.873Z</time></trkpt><trkpt lat="44.2194467" lon="11.3182379"><ele>843.0</ele><time>2026-03-30T12:31:56.867Z</time></trkpt><trkpt lat="44.2194257" lon="11.318138"><ele>843.0</ele><time>2026-03-30T12:32:00.887Z</time></trkpt><trkpt lat="44.2193725" lon="11.3180725"><ele>843.0</ele><time>2026-03-30T12:32:03.877Z</time></trkpt><trkpt lat="44.2193274" lon="11.3179951"><ele>843.0</ele><time>2026-03-30T12:32:06.869Z</time></trkpt><trkpt lat="44.2192797" lon="11.3179169"><ele>843.0</ele><time>2026-03-30T12:32:09.869Z</time></trkpt><trkpt lat="44.2192445" lon="11.3178284"><ele>843.0</ele><time>2026-03-30T12:32:12.89Z</time></trkpt><trkpt lat="44.2192094" lon="11.3177293"><ele>842.5</ele><time>2026-03-30T12:32:15.871Z</time></trkpt><trkpt lat="44.2191778" lon="11.3176518"><ele>842.0</ele><time>2026-03-30T12:32:18.868Z</time></trkpt><trkpt lat="44.2191331" lon="11.3175462"><ele>841.5</ele><time>2026-03-30T12:32:21.876Z</time></trkpt><trkpt lat="44.2190945" lon="11.3174765"><ele>841.0</ele><time>2026-03-30T12:32:23.87Z</time></trkpt><trkpt lat="44.2190536" lon="11.3173707"><ele>840.5</ele><time>2026-03-30T12:32:26.866Z</time></trkpt><trkpt lat="44.219009" lon="11.317276"><ele>840.0</ele><time>2026-03-30T12:32:29.874Z</time></trkpt><trkpt lat="44.218957" lon="11.317189"><ele>840.0</ele><time>2026-03-30T12:32:32.865Z</time></trkpt><trkpt lat="44.2188983" lon="11.31712"><ele>840.0</ele><time>2026-03-30T12:32:35.881Z</time></trkpt><trkpt lat="44.2188325" lon="11.3170601"><ele>840.0</ele><time>2026-03-30T12:32:38.867Z</time></trkpt><trkpt lat="44.2187657" lon="11.3169888"><ele>840.0</ele><time>2026-03-30T12:32:41.876Z</time></trkpt><trkpt lat="44.2187192" lon="11.3169037"><ele>840.0</ele><time>2026-03-30T12:32:44.868Z</time></trkpt><trkpt lat="44.2186634" lon="11.316856"><ele>840.0</ele><time>2026-03-30T12:32:48.867Z</time></trkpt><trkpt lat="44.2186822" lon="11.3169421"><ele>840.0</ele><time>2026-03-30T12:32:53.875Z</time></trkpt><trkpt lat="44.2187557" lon="11.3169461"><ele>840.0</ele><time>2026-03-30T12:32:57.878Z</time></trkpt><trkpt lat="44.218688" lon="11.3169457"><ele>840.0</ele><time>2026-03-30T12:33:27.865Z</time></trkpt><trkpt lat="44.2186994" lon="11.3168412"><ele>840.0</ele><time>2026-03-30T12:34:08.864Z</time></trkpt><trkpt lat="44.2187317" lon="11.3167408"><ele>840.0</ele><time>2026-03-30T12:34:59.869Z</time></trkpt><trkpt lat="44.2186927" lon="11.3166555"><ele>840.0</ele><time>2026-03-30T12:35:26.863Z</time></trkpt><trkpt lat="44.2186581" lon="11.3167515"><ele>840.0</ele><time>2026-03-30T12:36:38.853Z</time></trkpt><trkpt lat="44.2186896" lon="11.3168283"><ele>840.0</ele><time>2026-03-30T12:41:32.848Z</time></trkpt><trkpt lat="44.2187115" lon="11.3167149"><ele>840.0</ele><time>2026-03-30T12:42:57.883Z</time></trkpt><trkpt lat="44.2186131" lon="11.3167027"><ele>840.0</ele><time>2026-03-30T12:45:26.861Z</time></trkpt><trkpt lat="44.218646" lon="11.3168572"><ele>840.0</ele><time>2026-03-30T12:54:58.879Z</time></trkpt><trkpt lat="44.2187184" lon="11.3169404"><ele>840.0</ele><time>2026-03-30T12:55:56.869Z</time></trkpt><trkpt lat="44.2187363" lon="11.3168508"><ele>840.0</ele><time>2026-03-30T12:56:06.861Z</time></trkpt><trkpt lat="44.2187912" lon="11.3167679"><ele>840.0</ele><time>2026-03-30T12:56:15.87Z</time></trkpt><trkpt lat="44.2188186" lon="11.3165179"><ele>840.0</ele><time>2026-03-30T12:56:30.868Z</time></trkpt><trkpt lat="44.2188367" lon="11.3163733"><ele>840.0</ele><time>2026-03-30T12:56:32.872Z</time></trkpt><trkpt lat="44.218846" lon="11.3162763"><ele>840.0</ele><time>2026-03-30T12:56:33.867Z</time></trkpt><trkpt lat="44.2188624" lon="11.3161681"><ele>840.0</ele><time>2026-03-30T12:56:34.867Z</time></trkpt><trkpt lat="44.2188733" lon="11.3160692"><ele>839.1666666666666</ele><time>2026-03-30T12:56:35.866Z</time></trkpt><trkpt lat="44.2188746" lon="11.3159684"><ele>838.3333333333333</ele><time>2026-03-30T12:56:36.875Z</time></trkpt><trkpt lat="44.2188844" lon="11.3158739"><ele>837.5</ele><time>2026-03-30T12:56:37.87Z</time></trkpt><trkpt lat="44.2188983" lon="11.315764"><ele>836.6666666666666</ele><time>2026-03-30T12:56:38.865Z</time></trkpt><trkpt lat="44.2189146" lon="11.3156644"><ele>835.8333333333333</ele><time>2026-03-30T12:56:39.877Z</time></trkpt><trkpt lat="44.2189295" lon="11.3155445"><ele>835.0</ele><time>2026-03-30T12:56:40.868Z</time></trkpt><trkpt lat="44.2189398" lon="11.3154254"><ele>834.9999999999999</ele><time>2026-03-30T12:56:41.869Z</time></trkpt><trkpt lat="44.2189515" lon="11.3153044"><ele>835.0</ele><time>2026-03-30T12:56:42.863Z</time></trkpt><trkpt lat="44.2189656" lon="11.3151852"><ele>835.0</ele><time>2026-03-30T12:56:43.874Z</time></trkpt><trkpt lat="44.2189807" lon="11.315067"><ele>835.0</ele><time>2026-03-30T12:56:44.872Z</time></trkpt><trkpt lat="44.2189945" lon="11.3149572"><ele>834.9999999999999</ele><time>2026-03-30T12:56:45.878Z</time></trkpt><trkpt lat="44.2190096" lon="11.3148527"><ele>835.0</ele><time>2026-03-30T12:56:46.868Z</time></trkpt><trkpt lat="44.2190257" lon="11.3147505"><ele>834.1666666666666</ele><time>2026-03-30T12:56:47.858Z</time></trkpt><trkpt lat="44.2190397" lon="11.3146606"><ele>833.3333333333333</ele><time>2026-03-30T12:56:48.857Z</time></trkpt><trkpt lat="44.2190692" lon="11.3145772"><ele>832.5</ele><time>2026-03-30T12:56:49.871Z</time></trkpt><trkpt lat="44.2191076" lon="11.3144932"><ele>831.6666666666667</ele><time>2026-03-30T12:56:50.856Z</time></trkpt><trkpt lat="44.2191606" lon="11.3144091"><ele>830.8333333333334</ele><time>2026-03-30T12:56:51.861Z</time></trkpt><trkpt lat="44.2192233" lon="11.3143366"><ele>830.0</ele><time>2026-03-30T12:56:52.87Z</time></trkpt><trkpt lat="44.2192902" lon="11.3142597"><ele>830.0000000000001</ele><time>2026-03-30T12:56:53.876Z</time></trkpt><trkpt lat="44.2193576" lon="11.3141807"><ele>830.0</ele><time>2026-03-30T12:56:54.871Z</time></trkpt><trkpt lat="44.219422" lon="11.3140939"><ele>830.0</ele><time>2026-03-30T12:56:55.858Z</time></trkpt><trkpt lat="44.2194748" lon="11.314007"><ele>830.0</ele><time>2026-03-30T12:56:56.871Z</time></trkpt><trkpt lat="44.2195172" lon="11.3139115"><ele>830.0000000000001</ele><time>2026-03-30T12:56:57.871Z</time></trkpt><trkpt lat="44.2195506" lon="11.3138038"><ele>830.0</ele><time>2026-03-30T12:56:58.862Z</time></trkpt><trkpt lat="44.2195739" lon="11.3136901"><ele>828.8333333333334</ele><time>2026-03-30T12:56:59.864Z</time></trkpt><trkpt lat="44.2195915" lon="11.3135737"><ele>827.6666666666667</ele><time>2026-03-30T12:57:00.875Z</time></trkpt><trkpt lat="44.2196014" lon="11.3134556"><ele>826.5</ele><time>2026-03-30T12:57:01.879Z</time></trkpt><trkpt lat="44.2196116" lon="11.3133408"><ele>825.3333333333333</ele><time>2026-03-30T12:57:02.872Z</time></trkpt><trkpt lat="44.2196323" lon="11.3132321"><ele>824.1666666666666</ele><time>2026-03-30T12:57:03.881Z</time></trkpt><trkpt lat="44.2196707" lon="11.313134"><ele>823.0</ele><time>2026-03-30T12:57:04.874Z</time></trkpt><trkpt lat="44.2197249" lon="11.3130622"><ele>821.8333333333333</ele><time>2026-03-30T12:57:05.868Z</time></trkpt><trkpt lat="44.2197815" lon="11.3129859"><ele>820.6666666666666</ele><time>2026-03-30T12:57:06.884Z</time></trkpt><trkpt lat="44.2198483" lon="11.3129413"><ele>819.5</ele><time>2026-03-30T12:57:07.874Z</time></trkpt><trkpt lat="44.2199148" lon="11.3129069"><ele>818.3333333333333</ele><time>2026-03-30T12:57:08.869Z</time></trkpt><trkpt lat="44.2199783" lon="11.3128766"><ele>817.1666666666666</ele><time>2026-03-30T12:57:09.869Z</time></trkpt><trkpt lat="44.22004" lon="11.3128447"><ele>816.0</ele><time>2026-03-30T12:57:10.874Z</time></trkpt><trkpt lat="44.2201613" lon="11.3127903"><ele>816.0</ele><time>2026-03-30T12:57:12.878Z</time></trkpt><trkpt lat="44.2202239" lon="11.3127651"><ele>816.0</ele><time>2026-03-30T12:57:13.879Z</time></trkpt><trkpt lat="44.2203395" lon="11.3127051"><ele>816.0</ele><time>2026-03-30T12:57:15.875Z</time></trkpt><trkpt lat="44.2203944" lon="11.3126583"><ele>816.0</ele><time>2026-03-30T12:57:16.865Z</time></trkpt><trkpt lat="44.2204522" lon="11.3126067"><ele>816.0</ele><time>2026-03-30T12:57:17.872Z</time></trkpt><trkpt lat="44.2205127" lon="11.3125514"><ele>816.0</ele><time>2026-03-30T12:57:18.866Z</time></trkpt><trkpt lat="44.2205732" lon="11.3124985"><ele>816.0</ele><time>2026-03-30T12:57:19.86Z</time></trkpt><trkpt lat="44.2206293" lon="11.3124459"><ele>816.0</ele><time>2026-03-30T12:57:20.87Z</time></trkpt><trkpt lat="44.2206823" lon="11.3123935"><ele>816.0</ele><time>2026-03-30T12:57:21.864Z</time></trkpt><trkpt lat="44.2207707" lon="11.3122872"><ele>816.0</ele><time>2026-03-30T12:57:23.868Z</time></trkpt><trkpt lat="44.22083" lon="11.3122171"><ele>816.0</ele><time>2026-03-30T12:57:25.869Z</time></trkpt><trkpt lat="44.2209024" lon="11.3121974"><ele>816.0</ele><time>2026-03-30T12:57:29.861Z</time></trkpt><trkpt lat="44.2209838" lon="11.3121251"><ele>814.8333333333334</ele><time>2026-03-30T12:58:58.867Z</time></trkpt><trkpt lat="44.2210514" lon="11.312042"><ele>813.6666666666667</ele><time>2026-03-30T12:59:00.873Z</time></trkpt><trkpt lat="44.2211421" lon="11.3119378"><ele>812.5</ele><time>2026-03-30T12:59:02.875Z</time></trkpt><trkpt lat="44.2211946" lon="11.3118854"><ele>811.3333333333334</ele><time>2026-03-30T12:59:03.878Z</time></trkpt><trkpt lat="44.2212533" lon="11.3118351"><ele>810.1666666666667</ele><time>2026-03-30T12:59:04.875Z</time></trkpt><trkpt lat="44.2213159" lon="11.3117844"><ele>809.0</ele><time>2026-03-30T12:59:05.86Z</time></trkpt><trkpt lat="44.221376" lon="11.3117276"><ele>809.0000000000001</ele><time>2026-03-30T12:59:06.873Z</time></trkpt><trkpt lat="44.2214333" lon="11.3116637"><ele>809.0</ele><time>2026-03-30T12:59:07.871Z</time></trkpt><trkpt lat="44.2214868" lon="11.3115862"><ele>809.0</ele><time>2026-03-30T12:59:08.872Z</time></trkpt><trkpt lat="44.2215289" lon="11.311484"><ele>809.0</ele><time>2026-03-30T12:59:09.877Z</time></trkpt><trkpt lat="44.2215723" lon="11.3113763"><ele>809.0000000000001</ele><time>2026-03-30T12:59:10.879Z</time></trkpt><trkpt lat="44.2215803" lon="11.311246"><ele>809.0</ele><time>2026-03-30T12:59:11.888Z</time></trkpt><trkpt lat="44.221582" lon="11.311108"><ele>807.8000000000001</ele><time>2026-03-30T12:59:12.875Z</time></trkpt><trkpt lat="44.2215794" lon="11.3109707"><ele>806.6</ele><time>2026-03-30T12:59:13.878Z</time></trkpt><trkpt lat="44.2215701" lon="11.3108288"><ele>805.4</ele><time>2026-03-30T12:59:14.878Z</time></trkpt><trkpt lat="44.2215629" lon="11.3106781"><ele>804.2</ele><time>2026-03-30T12:59:15.862Z</time></trkpt><trkpt lat="44.2215567" lon="11.3105198"><ele>803.0</ele><time>2026-03-30T12:59:16.86Z</time></trkpt><trkpt lat="44.2215579" lon="11.3103592"><ele>801.75</ele><time>2026-03-30T12:59:17.864Z</time></trkpt><trkpt lat="44.2215653" lon="11.3101953"><ele>800.5</ele><time>2026-03-30T12:59:18.877Z</time></trkpt><trkpt lat="44.2215804" lon="11.3100328"><ele>799.25</ele><time>2026-03-30T12:59:19.863Z</time></trkpt><trkpt lat="44.2216012" lon="11.3098682"><ele>798.0</ele><time>2026-03-30T12:59:20.873Z</time></trkpt><trkpt lat="44.2216224" lon="11.3096956"><ele>797.25</ele><time>2026-03-30T12:59:21.867Z</time></trkpt><trkpt lat="44.2216408" lon="11.3095264"><ele>796.5</ele><time>2026-03-30T12:59:22.877Z</time></trkpt><trkpt lat="44.2216567" lon="11.309361"><ele>795.75</ele><time>2026-03-30T12:59:23.87Z</time></trkpt><trkpt lat="44.2216607" lon="11.3092071"><ele>795.0</ele><time>2026-03-30T12:59:24.863Z</time></trkpt><trkpt lat="44.2216469" lon="11.3090689"><ele>795.0</ele><time>2026-03-30T12:59:25.864Z</time></trkpt><trkpt lat="44.2216162" lon="11.3089395"><ele>795.0</ele><time>2026-03-30T12:59:26.871Z</time></trkpt><trkpt lat="44.2215808" lon="11.3088183"><ele>795.0</ele><time>2026-03-30T12:59:27.864Z</time></trkpt><trkpt lat="44.22154" lon="11.3087007"><ele>795.0</ele><time>2026-03-30T12:59:28.862Z</time></trkpt><trkpt lat="44.2214928" lon="11.3085903"><ele>795.0</ele><time>2026-03-30T12:59:29.861Z</time></trkpt><trkpt lat="44.2214504" lon="11.3084911"><ele>794.1666666666666</ele><time>2026-03-30T12:59:30.871Z</time></trkpt><trkpt lat="44.2214008" lon="11.3084051"><ele>793.3333333333333</ele><time>2026-03-30T12:59:31.865Z</time></trkpt><trkpt lat="44.2213459" lon="11.3083185"><ele>792.5</ele><time>2026-03-30T12:59:32.866Z</time></trkpt><trkpt lat="44.221292" lon="11.3082308"><ele>791.6666666666666</ele><time>2026-03-30T12:59:33.879Z</time></trkpt><trkpt lat="44.2212342" lon="11.3081344"><ele>790.8333333333333</ele><time>2026-03-30T12:59:34.869Z</time></trkpt><trkpt lat="44.2211746" lon="11.3080401"><ele>790.0</ele><time>2026-03-30T12:59:35.869Z</time></trkpt><trkpt lat="44.2211179" lon="11.3079448"><ele>790.0</ele><time>2026-03-30T12:59:36.876Z</time></trkpt><trkpt lat="44.2210575" lon="11.3078447"><ele>790.0</ele><time>2026-03-30T12:59:37.861Z</time></trkpt><trkpt lat="44.220996" lon="11.3077437"><ele>790.0</ele><time>2026-03-30T12:59:38.872Z</time></trkpt><trkpt lat="44.2209308" lon="11.3076469"><ele>790.0</ele><time>2026-03-30T12:59:39.866Z</time></trkpt><trkpt lat="44.2208591" lon="11.307555"><ele>790.0</ele><time>2026-03-30T12:59:40.878Z</time></trkpt><trkpt lat="44.2207823" lon="11.3074744"><ele>790.0</ele><time>2026-03-30T12:59:41.861Z</time></trkpt><trkpt lat="44.2206981" lon="11.3074039"><ele>790.0</ele><time>2026-03-30T12:59:42.867Z</time></trkpt><trkpt lat="44.2206104" lon="11.3073426"><ele>790.0</ele><time>2026-03-30T12:59:43.866Z</time></trkpt><trkpt lat="44.2205242" lon="11.307286"><ele>790.0</ele><time>2026-03-30T12:59:44.873Z</time></trkpt><trkpt lat="44.2204401" lon="11.3072347"><ele>790.0</ele><time>2026-03-30T12:59:45.871Z</time></trkpt><trkpt lat="44.2203609" lon="11.3071808"><ele>789.1666666666666</ele><time>2026-03-30T12:59:46.863Z</time></trkpt><trkpt lat="44.2202875" lon="11.3071205"><ele>788.3333333333333</ele><time>2026-03-30T12:59:47.877Z</time></trkpt><trkpt lat="44.2202198" lon="11.3070551"><ele>787.5</ele><time>2026-03-30T12:59:48.866Z</time></trkpt><trkpt lat="44.2201574" lon="11.3069862"><ele>786.6666666666667</ele><time>2026-03-30T12:59:49.872Z</time></trkpt><trkpt lat="44.2200999" lon="11.30691"><ele>785.8333333333334</ele><time>2026-03-30T12:59:50.867Z</time></trkpt><trkpt lat="44.2200448" lon="11.3068268"><ele>785.0</ele><time>2026-03-30T12:59:51.862Z</time></trkpt><trkpt lat="44.2199957" lon="11.3067396"><ele>785.0000000000001</ele><time>2026-03-30T12:59:52.865Z</time></trkpt><trkpt lat="44.219951" lon="11.3066485"><ele>785.0</ele><time>2026-03-30T12:59:53.866Z</time></trkpt><trkpt lat="44.2199145" lon="11.306551"><ele>785.0</ele><time>2026-03-30T12:59:54.875Z</time></trkpt><trkpt lat="44.2198782" lon="11.3064529"><ele>785.0</ele><time>2026-03-30T12:59:55.871Z</time></trkpt><trkpt lat="44.2198466" lon="11.3063473"><ele>785.0000000000001</ele><time>2026-03-30T12:59:56.869Z</time></trkpt><trkpt lat="44.2198197" lon="11.3062498"><ele>785.0</ele><time>2026-03-30T12:59:57.875Z</time></trkpt><trkpt lat="44.2197865" lon="11.3061588"><ele>784.7142857142858</ele><time>2026-03-30T12:59:58.869Z</time></trkpt><trkpt lat="44.219752" lon="11.3060692"><ele>784.4285714285713</ele><time>2026-03-30T12:59:59.865Z</time></trkpt><trkpt lat="44.2196954" lon="11.306005"><ele>784.1428571428571</ele><time>2026-03-30T13:00:00.867Z</time></trkpt><trkpt lat="44.2196359" lon="11.3059515"><ele>783.8571428571429</ele><time>2026-03-30T13:00:01.88Z</time></trkpt><trkpt lat="44.2195736" lon="11.3059087"><ele>783.5714285714287</ele><time>2026-03-30T13:00:02.859Z</time></trkpt><trkpt lat="44.2195031" lon="11.3058648"><ele>783.2857142857142</ele><time>2026-03-30T13:00:03.874Z</time></trkpt><trkpt lat="44.2194364" lon="11.3058249"><ele>783.0</ele><time>2026-03-30T13:00:04.853Z</time></trkpt><trkpt lat="44.219376" lon="11.3057972"><ele>783.0</ele><time>2026-03-30T13:00:05.868Z</time></trkpt><trkpt lat="44.2193158" lon="11.305761"><ele>783.0</ele><time>2026-03-30T13:00:06.87Z</time></trkpt><trkpt lat="44.2192571" lon="11.3057124"><ele>783.0</ele><time>2026-03-30T13:00:07.863Z</time></trkpt><trkpt lat="44.2192061" lon="11.3056531"><ele>783.0</ele><time>2026-03-30T13:00:08.862Z</time></trkpt><trkpt lat="44.2191633" lon="11.305579"><ele>783.0</ele><time>2026-03-30T13:00:09.862Z</time></trkpt><trkpt lat="44.2190971" lon="11.3054206"><ele>783.0</ele><time>2026-03-30T13:00:11.872Z</time></trkpt><trkpt lat="44.2190589" lon="11.3052455"><ele>782.2</ele><time>2026-03-30T13:00:13.884Z</time></trkpt><trkpt lat="44.2190016" lon="11.3051065"><ele>781.4</ele><time>2026-03-30T13:00:15.884Z</time></trkpt><trkpt lat="44.2189227" lon="11.3049877"><ele>780.6</ele><time>2026-03-30T13:00:17.859Z</time></trkpt><trkpt lat="44.2188288" lon="11.3049053"><ele>779.8000000000001</ele><time>2026-03-30T13:00:19.856Z</time></trkpt><trkpt lat="44.2187443" lon="11.3048403"><ele>779.0</ele><time>2026-03-30T13:00:21.867Z</time></trkpt><trkpt lat="44.2186999" lon="11.3047128"><ele>779.0</ele><time>2026-03-30T13:00:23.862Z</time></trkpt><trkpt lat="44.2186715" lon="11.3045547"><ele>779.0</ele><time>2026-03-30T13:00:25.853Z</time></trkpt><trkpt lat="44.2186841" lon="11.3044069"><ele>779.0</ele><time>2026-03-30T13:00:27.875Z</time></trkpt><trkpt lat="44.2186906" lon="11.3042603"><ele>779.0</ele><time>2026-03-30T13:00:29.85Z</time></trkpt><trkpt lat="44.218677" lon="11.3041062"><ele>779.0</ele><time>2026-03-30T13:00:31.87Z</time></trkpt><trkpt lat="44.2186475" lon="11.3039692"><ele>781.8000000000001</ele><time>2026-03-30T13:00:33.859Z</time></trkpt><trkpt lat="44.2186026" lon="11.3038424"><ele>784.6</ele><time>2026-03-30T13:00:35.859Z</time></trkpt><trkpt lat="44.2185498" lon="11.3037185"><ele>787.4</ele><time>2026-03-30T13:00:37.868Z</time></trkpt><trkpt lat="44.2184905" lon="11.3036166"><ele>790.2</ele><time>2026-03-30T13:00:39.859Z</time></trkpt><trkpt lat="44.2184103" lon="11.3035498"><ele>793.0</ele><time>2026-03-30T13:00:41.87Z</time></trkpt><trkpt lat="44.2183233" lon="11.3035169"><ele>793.0</ele><time>2026-03-30T13:00:43.874Z</time></trkpt><trkpt lat="44.2182284" lon="11.3035186"><ele>793.0</ele><time>2026-03-30T13:00:45.875Z</time></trkpt><trkpt lat="44.2181479" lon="11.3035406"><ele>793.0</ele><time>2026-03-30T13:00:47.877Z</time></trkpt><trkpt lat="44.218051" lon="11.3035358"><ele>793.0</ele><time>2026-03-30T13:00:49.873Z</time></trkpt><trkpt lat="44.2179654" lon="11.3034941"><ele>793.0</ele><time>2026-03-30T13:00:51.874Z</time></trkpt><trkpt lat="44.2178945" lon="11.3034194"><ele>791.2857142857143</ele><time>2026-03-30T13:00:53.868Z</time></trkpt><trkpt lat="44.2178435" lon="11.3033316"><ele>789.5714285714286</ele><time>2026-03-30T13:00:55.871Z</time></trkpt><trkpt lat="44.2178033" lon="11.3032354"><ele>787.8571428571429</ele><time>2026-03-30T13:00:57.873Z</time></trkpt><trkpt lat="44.2177775" lon="11.3031399"><ele>786.1428571428571</ele><time>2026-03-30T13:00:59.875Z</time></trkpt><trkpt lat="44.2177553" lon="11.3030466"><ele>784.4285714285714</ele><time>2026-03-30T13:01:01.867Z</time></trkpt><trkpt lat="44.2177228" lon="11.3029602"><ele>782.7142857142858</ele><time>2026-03-30T13:01:03.872Z</time></trkpt><trkpt lat="44.2176747" lon="11.302886"><ele>781.0</ele><time>2026-03-30T13:01:05.871Z</time></trkpt><trkpt lat="44.2176205" lon="11.3028196"><ele>780.7142857142858</ele><time>2026-03-30T13:01:07.87Z</time></trkpt><trkpt lat="44.2175621" lon="11.302758"><ele>780.4285714285714</ele><time>2026-03-30T13:01:09.871Z</time></trkpt><trkpt lat="44.2175001" lon="11.3026999"><ele>780.1428571428571</ele><time>2026-03-30T13:01:11.864Z</time></trkpt><trkpt lat="44.2174383" lon="11.3026487"><ele>779.8571428571429</ele><time>2026-03-30T13:01:13.866Z</time></trkpt><trkpt lat="44.2173745" lon="11.3025995"><ele>779.5714285714286</ele><time>2026-03-30T13:01:15.87Z</time></trkpt><trkpt lat="44.217312" lon="11.3025618"><ele>779.2857142857143</ele><time>2026-03-30T13:01:17.869Z</time></trkpt><trkpt lat="44.2172492" lon="11.3025202"><ele>779.0</ele><time>2026-03-30T13:01:19.859Z</time></trkpt><trkpt lat="44.2171919" lon="11.3024808"><ele>779.0000000000001</ele><time>2026-03-30T13:01:21.857Z</time></trkpt><trkpt lat="44.2171326" lon="11.3024277"><ele>779.0</ele><time>2026-03-30T13:01:23.877Z</time></trkpt><trkpt lat="44.2170797" lon="11.3023593"><ele>779.0</ele><time>2026-03-30T13:01:25.874Z</time></trkpt><trkpt lat="44.2170339" lon="11.3022756"><ele>779.0</ele><time>2026-03-30T13:01:27.862Z</time></trkpt><trkpt lat="44.2169937" lon="11.3021872"><ele>779.0</ele><time>2026-03-30T13:01:29.87Z</time></trkpt><trkpt lat="44.2169635" lon="11.3020893"><ele>779.0000000000001</ele><time>2026-03-30T13:01:31.87Z</time></trkpt><trkpt lat="44.2169284" lon="11.3019961"><ele>779.0</ele><time>2026-03-30T13:01:33.872Z</time></trkpt><trkpt lat="44.2168859" lon="11.3019062"><ele>782.5000000000001</ele><time>2026-03-30T13:01:35.874Z</time></trkpt><trkpt lat="44.2168394" lon="11.3018147"><ele>786.0</ele><time>2026-03-30T13:01:37.866Z</time></trkpt><trkpt lat="44.2167868" lon="11.3017341"><ele>789.5</ele><time>2026-03-30T13:01:39.882Z</time></trkpt><trkpt lat="44.2167238" lon="11.3016564"><ele>793.0</ele><time>2026-03-30T13:01:41.866Z</time></trkpt><trkpt lat="44.2166503" lon="11.3015811"><ele>796.5000000000001</ele><time>2026-03-30T13:01:43.879Z</time></trkpt><trkpt lat="44.2165788" lon="11.3015132"><ele>800.0</ele><time>2026-03-30T13:01:45.875Z</time></trkpt><trkpt lat="44.2165023" lon="11.3014442"><ele>799.6</ele><time>2026-03-30T13:01:47.879Z</time></trkpt><trkpt lat="44.216424" lon="11.3013779"><ele>799.2</ele><time>2026-03-30T13:01:49.879Z</time></trkpt><trkpt lat="44.2163464" lon="11.3013061"><ele>798.8</ele><time>2026-03-30T13:01:51.872Z</time></trkpt><trkpt lat="44.216268" lon="11.3012277"><ele>798.4</ele><time>2026-03-30T13:01:53.868Z</time></trkpt><trkpt lat="44.216189" lon="11.3011518"><ele>798.0</ele><time>2026-03-30T13:01:55.901Z</time></trkpt><trkpt lat="44.2161052" lon="11.3010751"><ele>798.0</ele><time>2026-03-30T13:01:57.866Z</time></trkpt><trkpt lat="44.2160186" lon="11.3010064"><ele>798.0</ele><time>2026-03-30T13:01:59.891Z</time></trkpt><trkpt lat="44.2159297" lon="11.3009435"><ele>798.0</ele><time>2026-03-30T13:02:01.873Z</time></trkpt><trkpt lat="44.2158388" lon="11.3008836"><ele>798.0</ele><time>2026-03-30T13:02:03.871Z</time></trkpt><trkpt lat="44.2157477" lon="11.3008232"><ele>798.0</ele><time>2026-03-30T13:02:05.866Z</time></trkpt><trkpt lat="44.2156551" lon="11.3007589"><ele>796.5999999999999</ele><time>2026-03-30T13:02:07.865Z</time></trkpt><trkpt lat="44.215562" lon="11.3006895"><ele>795.1999999999999</ele><time>2026-03-30T13:02:09.867Z</time></trkpt><trkpt lat="44.2154727" lon="11.3006078"><ele>793.8</ele><time>2026-03-30T13:02:11.871Z</time></trkpt><trkpt lat="44.2153925" lon="11.3005037"><ele>792.4</ele><time>2026-03-30T13:02:13.865Z</time></trkpt><trkpt lat="44.2153323" lon="11.3003657"><ele>791.0</ele><time>2026-03-30T13:02:15.876Z</time></trkpt><trkpt lat="44.2152816" lon="11.3002084"><ele>791.0</ele><time>2026-03-30T13:02:17.866Z</time></trkpt><trkpt lat="44.2152436" lon="11.3001371"><ele>791.0</ele><time>2026-03-30T13:02:18.862Z</time></trkpt><trkpt lat="44.2152014" lon="11.3000673"><ele>791.0</ele><time>2026-03-30T13:02:19.874Z</time></trkpt><trkpt lat="44.2151615" lon="11.2999951"><ele>791.0</ele><time>2026-03-30T13:02:20.877Z</time></trkpt><trkpt lat="44.2151009" lon="11.2999328"><ele>791.0</ele><time>2026-03-30T13:02:21.871Z</time></trkpt><trkpt lat="44.2150383" lon="11.2998888"><ele>791.0</ele><time>2026-03-30T13:02:22.86Z</time></trkpt><trkpt lat="44.2149727" lon="11.2998676"><ele>791.0</ele><time>2026-03-30T13:02:23.865Z</time></trkpt><trkpt lat="44.2149036" lon="11.2998634"><ele>791.0</ele><time>2026-03-30T13:02:24.871Z</time></trkpt><trkpt lat="44.2148345" lon="11.2998761"><ele>791.0</ele><time>2026-03-30T13:02:25.86Z</time></trkpt><trkpt lat="44.2147645" lon="11.2999021"><ele>791.0</ele><time>2026-03-30T13:02:26.875Z</time></trkpt><trkpt lat="44.2146927" lon="11.2999292"><ele>791.0</ele><time>2026-03-30T13:02:27.877Z</time></trkpt><trkpt lat="44.2146178" lon="11.2999526"><ele>791.0</ele><time>2026-03-30T13:02:28.864Z</time></trkpt><trkpt lat="44.2145423" lon="11.2999796"><ele>791.0</ele><time>2026-03-30T13:02:29.866Z</time></trkpt><trkpt lat="44.2144745" lon="11.3000084"><ele>791.0</ele><time>2026-03-30T13:02:30.889Z</time></trkpt><trkpt lat="44.2144025" lon="11.3000411"><ele>791.8333333333334</ele><time>2026-03-30T13:02:31.875Z</time></trkpt><trkpt lat="44.2143335" lon="11.3000712"><ele>792.6666666666667</ele><time>2026-03-30T13:02:32.865Z</time></trkpt><trkpt lat="44.2142679" lon="11.3001212"><ele>793.5</ele><time>2026-03-30T13:02:33.874Z</time></trkpt><trkpt lat="44.2142095" lon="11.3001823"><ele>794.3333333333333</ele><time>2026-03-30T13:02:34.872Z</time></trkpt><trkpt lat="44.2141572" lon="11.3002452"><ele>795.1666666666666</ele><time>2026-03-30T13:02:35.872Z</time></trkpt><trkpt lat="44.2140755" lon="11.3003602"><ele>796.0</ele><time>2026-03-30T13:02:37.87Z</time></trkpt><trkpt lat="44.2139905" lon="11.3004608"><ele>795.8</ele><time>2026-03-30T13:02:39.871Z</time></trkpt><trkpt lat="44.2138877" lon="11.300523"><ele>795.5999999999999</ele><time>2026-03-30T13:02:41.865Z</time></trkpt><trkpt lat="44.213775" lon="11.3005427"><ele>795.4</ele><time>2026-03-30T13:02:43.877Z</time></trkpt><trkpt lat="44.2136539" lon="11.3005781"><ele>795.2</ele><time>2026-03-30T13:02:45.868Z</time></trkpt><trkpt lat="44.2135939" lon="11.3006099"><ele>795.0</ele><time>2026-03-30T13:02:46.868Z</time></trkpt><trkpt lat="44.2135338" lon="11.3006494"><ele>792.0</ele><time>2026-03-30T13:02:47.868Z</time></trkpt><trkpt lat="44.213473" lon="11.3006935"><ele>789.0</ele><time>2026-03-30T13:02:48.89Z</time></trkpt><trkpt lat="44.2134124" lon="11.300739"><ele>786.0</ele><time>2026-03-30T13:02:49.863Z</time></trkpt><trkpt lat="44.2133421" lon="11.300771"><ele>783.0</ele><time>2026-03-30T13:02:50.877Z</time></trkpt><trkpt lat="44.2132658" lon="11.3007768"><ele>780.0</ele><time>2026-03-30T13:02:51.862Z</time></trkpt><trkpt lat="44.2131852" lon="11.3007676"><ele>777.0</ele><time>2026-03-30T13:02:52.863Z</time></trkpt><trkpt lat="44.2131051" lon="11.3007496"><ele>777.1666666666666</ele><time>2026-03-30T13:02:53.869Z</time></trkpt><trkpt lat="44.2130243" lon="11.3007343"><ele>777.3333333333333</ele><time>2026-03-30T13:02:54.871Z</time></trkpt><trkpt lat="44.2129432" lon="11.3007146"><ele>777.5</ele><time>2026-03-30T13:02:55.881Z</time></trkpt><trkpt lat="44.2128567" lon="11.3006924"><ele>777.6666666666666</ele><time>2026-03-30T13:02:56.876Z</time></trkpt><trkpt lat="44.2127691" lon="11.3006621"><ele>777.8333333333333</ele><time>2026-03-30T13:02:57.865Z</time></trkpt><trkpt lat="44.2126867" lon="11.3006213"><ele>778.0</ele><time>2026-03-30T13:02:58.884Z</time></trkpt><trkpt lat="44.2126129" lon="11.3005709"><ele>777.9999999999999</ele><time>2026-03-30T13:02:59.87Z</time></trkpt><trkpt lat="44.2125353" lon="11.3005136"><ele>778.0</ele><time>2026-03-30T13:03:00.867Z</time></trkpt><trkpt lat="44.2124841" lon="11.3004392"><ele>778.0</ele><time>2026-03-30T13:03:01.862Z</time></trkpt><trkpt lat="44.2124638" lon="11.3003282"><ele>778.0</ele><time>2026-03-30T13:03:02.876Z</time></trkpt><trkpt lat="44.2124783" lon="11.3002236"><ele>777.9999999999999</ele><time>2026-03-30T13:03:03.883Z</time></trkpt><trkpt lat="44.2125351" lon="11.3001342"><ele>778.0</ele><time>2026-03-30T13:03:04.874Z</time></trkpt><trkpt lat="44.2126124" lon="11.3000774"><ele>777.9999999999999</ele><time>2026-03-30T13:03:05.868Z</time></trkpt><trkpt lat="44.212689" lon="11.3000394"><ele>778.0</ele><time>2026-03-30T13:03:06.862Z</time></trkpt><trkpt lat="44.2127699" lon="11.2999935"><ele>778.0</ele><time>2026-03-30T13:03:07.87Z</time></trkpt><trkpt lat="44.212845" lon="11.2999281"><ele>778.0</ele><time>2026-03-30T13:03:08.87Z</time></trkpt><trkpt lat="44.2129127" lon="11.2998464"><ele>777.9999999999999</ele><time>2026-03-30T13:03:09.878Z</time></trkpt><trkpt lat="44.2129725" lon="11.2997492"><ele>778.0</ele><time>2026-03-30T13:03:10.867Z</time></trkpt><trkpt lat="44.2130209" lon="11.2996393"><ele>780.0</ele><time>2026-03-30T13:03:11.869Z</time></trkpt><trkpt lat="44.2130741" lon="11.2995013"><ele>782.0</ele><time>2026-03-30T13:03:12.86Z</time></trkpt><trkpt lat="44.2131182" lon="11.2993635"><ele>784.0</ele><time>2026-03-30T13:03:13.87Z</time></trkpt><trkpt lat="44.2131515" lon="11.2992305"><ele>786.0</ele><time>2026-03-30T13:03:14.878Z</time></trkpt><trkpt lat="44.2131712" lon="11.2991019"><ele>788.0</ele><time>2026-03-30T13:03:15.871Z</time></trkpt><trkpt lat="44.2131758" lon="11.2989726"><ele>786.0</ele><time>2026-03-30T13:03:16.865Z</time></trkpt><trkpt lat="44.2131702" lon="11.29884"><ele>784.0</ele><time>2026-03-30T13:03:17.857Z</time></trkpt><trkpt lat="44.2131602" lon="11.2987013"><ele>782.0</ele><time>2026-03-30T13:03:18.871Z</time></trkpt><trkpt lat="44.2131367" lon="11.29857"><ele>780.0</ele><time>2026-03-30T13:03:19.875Z</time></trkpt><trkpt lat="44.2131225" lon="11.2984356"><ele>778.0</ele><time>2026-03-30T13:03:20.868Z</time></trkpt><trkpt lat="44.2131082" lon="11.2982929"><ele>775.5999999999999</ele><time>2026-03-30T13:03:21.875Z</time></trkpt><trkpt lat="44.2131164" lon="11.2981428"><ele>773.1999999999999</ele><time>2026-03-30T13:03:22.867Z</time></trkpt><trkpt lat="44.2131261" lon="11.2979953"><ele>770.8</ele><time>2026-03-30T13:03:23.869Z</time></trkpt><trkpt lat="44.2131553" lon="11.2978517"><ele>768.4</ele><time>2026-03-30T13:03:24.877Z</time></trkpt><trkpt lat="44.2131871" lon="11.2977161"><ele>766.0</ele><time>2026-03-30T13:03:25.866Z</time></trkpt><trkpt lat="44.2132172" lon="11.2975762"><ele>766.0</ele><time>2026-03-30T13:03:26.869Z</time></trkpt><trkpt lat="44.2132496" lon="11.2974396"><ele>766.0</ele><time>2026-03-30T13:03:27.87Z</time></trkpt><trkpt lat="44.2132871" lon="11.2972999"><ele>766.0</ele><time>2026-03-30T13:03:28.872Z</time></trkpt><trkpt lat="44.2133257" lon="11.2971587"><ele>766.0</ele><time>2026-03-30T13:03:29.855Z</time></trkpt><trkpt lat="44.21337" lon="11.2970297"><ele>766.0</ele><time>2026-03-30T13:03:30.864Z</time></trkpt><trkpt lat="44.2134073" lon="11.2968945"><ele>764.4</ele><time>2026-03-30T13:03:31.874Z</time></trkpt><trkpt lat="44.213435" lon="11.2967548"><ele>762.8</ele><time>2026-03-30T13:03:32.871Z</time></trkpt><trkpt lat="44.2134687" lon="11.2966201"><ele>761.1999999999999</ele><time>2026-03-30T13:03:33.877Z</time></trkpt><trkpt lat="44.2135266" lon="11.2965007"><ele>759.5999999999999</ele><time>2026-03-30T13:03:34.865Z</time></trkpt><trkpt lat="44.2136106" lon="11.2964178"><ele>758.0</ele><time>2026-03-30T13:03:35.876Z</time></trkpt><trkpt lat="44.2137089" lon="11.2963751"><ele>760.0</ele><time>2026-03-30T13:03:36.872Z</time></trkpt><trkpt lat="44.2138144" lon="11.2963746"><ele>762.0</ele><time>2026-03-30T13:03:37.867Z</time></trkpt><trkpt lat="44.2139209" lon="11.2963779"><ele>764.0</ele><time>2026-03-30T13:03:38.872Z</time></trkpt><trkpt lat="44.2140363" lon="11.2964141"><ele>766.0</ele><time>2026-03-30T13:03:39.875Z</time></trkpt><trkpt lat="44.2141548" lon="11.2964558"><ele>766.0</ele><time>2026-03-30T13:03:40.876Z</time></trkpt><trkpt lat="44.2142744" lon="11.2965055"><ele>766.0</ele><time>2026-03-30T13:03:41.872Z</time></trkpt><trkpt lat="44.2143995" lon="11.2965509"><ele>766.0</ele><time>2026-03-30T13:03:42.875Z</time></trkpt><trkpt lat="44.2145195" lon="11.2965969"><ele>766.0</ele><time>2026-03-30T13:03:43.868Z</time></trkpt><trkpt lat="44.2146425" lon="11.2966423"><ele>766.0</ele><time>2026-03-30T13:03:44.87Z</time></trkpt><trkpt lat="44.214762" lon="11.2966967"><ele>766.0</ele><time>2026-03-30T13:03:45.871Z</time></trkpt><trkpt lat="44.2148847" lon="11.296758"><ele>766.0</ele><time>2026-03-30T13:03:46.867Z</time></trkpt><trkpt lat="44.215008" lon="11.2968295"><ele>766.0</ele><time>2026-03-30T13:03:47.867Z</time></trkpt><trkpt lat="44.2151257" lon="11.2969103"><ele>762.75</ele><time>2026-03-30T13:03:48.877Z</time></trkpt><trkpt lat="44.2152409" lon="11.2969966"><ele>759.5</ele><time>2026-03-30T13:03:49.89Z</time></trkpt><trkpt lat="44.215357" lon="11.2970841"><ele>756.25</ele><time>2026-03-30T13:03:50.877Z</time></trkpt><trkpt lat="44.2154774" lon="11.2971572"><ele>753.0</ele><time>2026-03-30T13:03:51.875Z</time></trkpt><trkpt lat="44.2156052" lon="11.2971991"><ele>749.75</ele><time>2026-03-30T13:03:52.865Z</time></trkpt><trkpt lat="44.2157392" lon="11.2972439"><ele>746.5</ele><time>2026-03-30T13:03:53.872Z</time></trkpt><trkpt lat="44.2158595" lon="11.2972079"><ele>743.25</ele><time>2026-03-30T13:03:54.877Z</time></trkpt><trkpt lat="44.2159773" lon="11.2971483"><ele>740.0</ele><time>2026-03-30T13:03:55.872Z</time></trkpt><trkpt lat="44.2160896" lon="11.2970787"><ele>740.0</ele><time>2026-03-30T13:03:56.87Z</time></trkpt><trkpt lat="44.2162008" lon="11.2970155"><ele>740.0</ele><time>2026-03-30T13:03:57.867Z</time></trkpt><trkpt lat="44.2163109" lon="11.2969518"><ele>740.0</ele><time>2026-03-30T13:03:58.871Z</time></trkpt><trkpt lat="44.2164179" lon="11.2968809"><ele>740.0</ele><time>2026-03-30T13:03:59.869Z</time></trkpt><trkpt lat="44.2165174" lon="11.2968014"><ele>740.0</ele><time>2026-03-30T13:04:00.866Z</time></trkpt><trkpt lat="44.2166019" lon="11.2967014"><ele>740.0</ele><time>2026-03-30T13:04:01.873Z</time></trkpt><trkpt lat="44.2166656" lon="11.2965801"><ele>740.0</ele><time>2026-03-30T13:04:02.873Z</time></trkpt><trkpt lat="44.2167129" lon="11.2964431"><ele>740.0</ele><time>2026-03-30T13:04:03.859Z</time></trkpt><trkpt lat="44.2167512" lon="11.2963003"><ele>740.0</ele><time>2026-03-30T13:04:04.869Z</time></trkpt><trkpt lat="44.2167908" lon="11.2961594"><ele>740.0</ele><time>2026-03-30T13:04:05.88Z</time></trkpt><trkpt lat="44.2168304" lon="11.2960208"><ele>740.0</ele><time>2026-03-30T13:04:06.868Z</time></trkpt><trkpt lat="44.2168679" lon="11.2958791"><ele>740.0</ele><time>2026-03-30T13:04:07.867Z</time></trkpt><trkpt lat="44.2169031" lon="11.2957366"><ele>740.0</ele><time>2026-03-30T13:04:08.859Z</time></trkpt><trkpt lat="44.2169348" lon="11.295592"><ele>740.0</ele><time>2026-03-30T13:04:09.857Z</time></trkpt><trkpt lat="44.2169691" lon="11.2954471"><ele>737.8</ele><time>2026-03-30T13:04:10.869Z</time></trkpt><trkpt lat="44.2170079" lon="11.2953047"><ele>735.6</ele><time>2026-03-30T13:04:11.872Z</time></trkpt><trkpt lat="44.2170509" lon="11.2951643"><ele>733.4000000000001</ele><time>2026-03-30T13:04:12.874Z</time></trkpt><trkpt lat="44.2170905" lon="11.2950229"><ele>731.2</ele><time>2026-03-30T13:04:13.865Z</time></trkpt><trkpt lat="44.2171325" lon="11.2948803"><ele>729.0</ele><time>2026-03-30T13:04:14.875Z</time></trkpt><trkpt lat="44.2171774" lon="11.2947387"><ele>729.75</ele><time>2026-03-30T13:04:15.862Z</time></trkpt><trkpt lat="44.2172232" lon="11.2945946"><ele>730.5</ele><time>2026-03-30T13:04:16.869Z</time></trkpt><trkpt lat="44.2172726" lon="11.2944514"><ele>731.25</ele><time>2026-03-30T13:04:17.865Z</time></trkpt><trkpt lat="44.2173251" lon="11.2943083"><ele>732.0</ele><time>2026-03-30T13:04:18.874Z</time></trkpt><trkpt lat="44.2173825" lon="11.2941698"><ele>732.0</ele><time>2026-03-30T13:04:19.871Z</time></trkpt><trkpt lat="44.2174325" lon="11.2940258"><ele>732.0</ele><time>2026-03-30T13:04:20.865Z</time></trkpt><trkpt lat="44.2174821" lon="11.2938794"><ele>732.0</ele><time>2026-03-30T13:04:21.864Z</time></trkpt><trkpt lat="44.2175172" lon="11.2937239"><ele>732.0</ele><time>2026-03-30T13:04:22.879Z</time></trkpt><trkpt lat="44.2175467" lon="11.2935687"><ele>729.6</ele><time>2026-03-30T13:04:23.871Z</time></trkpt><trkpt lat="44.2175736" lon="11.2934101"><ele>727.2</ele><time>2026-03-30T13:04:24.882Z</time></trkpt><trkpt lat="44.2175953" lon="11.2932546"><ele>724.8</ele><time>2026-03-30T13:04:25.871Z</time></trkpt><trkpt lat="44.2176268" lon="11.2931194"><ele>722.4</ele><time>2026-03-30T13:04:26.885Z</time></trkpt><trkpt lat="44.2176804" lon="11.2930143"><ele>720.0</ele><time>2026-03-30T13:04:27.868Z</time></trkpt><trkpt lat="44.2177656" lon="11.2929419"><ele>719.0</ele><time>2026-03-30T13:04:28.865Z</time></trkpt><trkpt lat="44.2178641" lon="11.2929101"><ele>718.0</ele><time>2026-03-30T13:04:29.877Z</time></trkpt><trkpt lat="44.2179661" lon="11.292917"><ele>717.0</ele><time>2026-03-30T13:04:30.873Z</time></trkpt><trkpt lat="44.218069" lon="11.2929581"><ele>716.0</ele><time>2026-03-30T13:04:31.871Z</time></trkpt><trkpt lat="44.2181807" lon="11.293007"><ele>715.0</ele><time>2026-03-30T13:04:32.866Z</time></trkpt><trkpt lat="44.2182914" lon="11.2930771"><ele>715.0</ele><time>2026-03-30T13:04:33.867Z</time></trkpt><trkpt lat="44.2184009" lon="11.2931441"><ele>715.0</ele><time>2026-03-30T13:04:34.87Z</time></trkpt><trkpt lat="44.218489" lon="11.2931403"><ele>715.0</ele><time>2026-03-30T13:04:35.877Z</time></trkpt><trkpt lat="44.2185628" lon="11.2930834"><ele>715.0</ele><time>2026-03-30T13:04:36.858Z</time></trkpt><trkpt lat="44.2186025" lon="11.2929882"><ele>715.0</ele><time>2026-03-30T13:04:37.863Z</time></trkpt><trkpt lat="44.2186099" lon="11.2928706"><ele>715.0</ele><time>2026-03-30T13:04:38.877Z</time></trkpt><trkpt lat="44.2185875" lon="11.2927516"><ele>715.0</ele><time>2026-03-30T13:04:39.886Z</time></trkpt><trkpt lat="44.2185776" lon="11.2926579"><ele>715.0</ele><time>2026-03-30T13:04:40.871Z</time></trkpt><trkpt lat="44.2185438" lon="11.2925557"><ele>715.0</ele><time>2026-03-30T13:04:41.863Z</time></trkpt><trkpt lat="44.2185138" lon="11.2924537"><ele>715.0</ele><time>2026-03-30T13:04:42.862Z</time></trkpt><trkpt lat="44.2184737" lon="11.2923449"><ele>715.0</ele><time>2026-03-30T13:04:43.872Z</time></trkpt><trkpt lat="44.2184427" lon="11.2922306"><ele>715.0</ele><time>2026-03-30T13:04:44.866Z</time></trkpt><trkpt lat="44.2184077" lon="11.2921127"><ele>715.0</ele><time>2026-03-30T13:04:45.875Z</time></trkpt><trkpt lat="44.2183706" lon="11.2919898"><ele>715.0</ele><time>2026-03-30T13:04:46.865Z</time></trkpt><trkpt lat="44.2183375" lon="11.2918655"><ele>715.0</ele><time>2026-03-30T13:04:47.863Z</time></trkpt><trkpt lat="44.2183038" lon="11.2917366"><ele>715.0</ele><time>2026-03-30T13:04:48.873Z</time></trkpt><trkpt lat="44.2182868" lon="11.2915957"><ele>715.0</ele><time>2026-03-30T13:04:49.867Z</time></trkpt><trkpt lat="44.2182962" lon="11.2914493"><ele>715.0</ele><time>2026-03-30T13:04:50.859Z</time></trkpt><trkpt lat="44.218333" lon="11.2913082"><ele>715.0</ele><time>2026-03-30T13:04:51.882Z</time></trkpt><trkpt lat="44.2183622" lon="11.2911675"><ele>715.0</ele><time>2026-03-30T13:04:52.868Z</time></trkpt><trkpt lat="44.2183839" lon="11.291023"><ele>715.0</ele><time>2026-03-30T13:04:53.871Z</time></trkpt><trkpt lat="44.218398" lon="11.2908796"><ele>713.8</ele><time>2026-03-30T13:04:54.859Z</time></trkpt><trkpt lat="44.2184105" lon="11.2907363"><ele>712.6</ele><time>2026-03-30T13:04:55.88Z</time></trkpt><trkpt lat="44.2184287" lon="11.2905918"><ele>711.4000000000001</ele><time>2026-03-30T13:04:56.87Z</time></trkpt><trkpt lat="44.2184502" lon="11.290449"><ele>710.2</ele><time>2026-03-30T13:04:57.878Z</time></trkpt><trkpt lat="44.2184672" lon="11.2903042"><ele>709.0</ele><time>2026-03-30T13:04:58.873Z</time></trkpt><trkpt lat="44.2184786" lon="11.2901571"><ele>707.2</ele><time>2026-03-30T13:04:59.876Z</time></trkpt><trkpt lat="44.2184875" lon="11.2900116"><ele>705.4000000000001</ele><time>2026-03-30T13:05:00.878Z</time></trkpt><trkpt lat="44.2184953" lon="11.2898661"><ele>703.6</ele><time>2026-03-30T13:05:01.881Z</time></trkpt><trkpt lat="44.2185092" lon="11.2897208"><ele>701.8</ele><time>2026-03-30T13:05:02.865Z</time></trkpt><trkpt lat="44.2185255" lon="11.2895744"><ele>700.0</ele><time>2026-03-30T13:05:03.877Z</time></trkpt><trkpt lat="44.2185375" lon="11.2894286"><ele>699.2</ele><time>2026-03-30T13:05:04.872Z</time></trkpt><trkpt lat="44.2185397" lon="11.2892836"><ele>698.4</ele><time>2026-03-30T13:05:05.866Z</time></trkpt><trkpt lat="44.2185292" lon="11.2891344"><ele>697.5999999999999</ele><time>2026-03-30T13:05:06.879Z</time></trkpt><trkpt lat="44.2185165" lon="11.2889844"><ele>696.8</ele><time>2026-03-30T13:05:07.877Z</time></trkpt><trkpt lat="44.2185064" lon="11.2888325"><ele>696.0</ele><time>2026-03-30T13:05:08.874Z</time></trkpt><trkpt lat="44.218494" lon="11.2886816"><ele>695.75</ele><time>2026-03-30T13:05:09.865Z</time></trkpt><trkpt lat="44.2184814" lon="11.2885317"><ele>695.5</ele><time>2026-03-30T13:05:10.877Z</time></trkpt><trkpt lat="44.2184718" lon="11.2883736"><ele>695.25</ele><time>2026-03-30T13:05:11.868Z</time></trkpt><trkpt lat="44.2184771" lon="11.2882119"><ele>695.0</ele><time>2026-03-30T13:05:12.88Z</time></trkpt><trkpt lat="44.2185113" lon="11.288056"><ele>693.75</ele><time>2026-03-30T13:05:13.873Z</time></trkpt><trkpt lat="44.2185719" lon="11.2879148"><ele>692.5</ele><time>2026-03-30T13:05:14.877Z</time></trkpt><trkpt lat="44.218657" lon="11.2877979"><ele>691.25</ele><time>2026-03-30T13:05:15.876Z</time></trkpt><trkpt lat="44.2187536" lon="11.2876975"><ele>690.0</ele><time>2026-03-30T13:05:16.868Z</time></trkpt><trkpt lat="44.2188503" lon="11.2875983"><ele>690.0</ele><time>2026-03-30T13:05:17.876Z</time></trkpt><trkpt lat="44.2189477" lon="11.2874985"><ele>690.0</ele><time>2026-03-30T13:05:18.872Z</time></trkpt><trkpt lat="44.219047" lon="11.2873964"><ele>690.0</ele><time>2026-03-30T13:05:19.869Z</time></trkpt><trkpt lat="44.2191457" lon="11.2872942"><ele>690.0</ele><time>2026-03-30T13:05:20.877Z</time></trkpt><trkpt lat="44.2192429" lon="11.2871924"><ele>687.75</ele><time>2026-03-30T13:05:21.89Z</time></trkpt><trkpt lat="44.2193417" lon="11.2870948"><ele>685.5</ele><time>2026-03-30T13:05:22.883Z</time></trkpt><trkpt lat="44.2194359" lon="11.2869972"><ele>683.25</ele><time>2026-03-30T13:05:23.867Z</time></trkpt><trkpt lat="44.2195324" lon="11.2869008"><ele>681.0</ele><time>2026-03-30T13:05:24.869Z</time></trkpt><trkpt lat="44.2196304" lon="11.2868059"><ele>681.0</ele><time>2026-03-30T13:05:25.879Z</time></trkpt><trkpt lat="44.2197281" lon="11.2867078"><ele>681.0</ele><time>2026-03-30T13:05:26.873Z</time></trkpt><trkpt lat="44.2198278" lon="11.2866076"><ele>681.0</ele><time>2026-03-30T13:05:27.871Z</time></trkpt><trkpt lat="44.21993" lon="11.2865031"><ele>681.0</ele><time>2026-03-30T13:05:28.859Z</time></trkpt><trkpt lat="44.2200321" lon="11.2864002"><ele>679.25</ele><time>2026-03-30T13:05:29.871Z</time></trkpt><trkpt lat="44.2201341" lon="11.2862963"><ele>677.5</ele><time>2026-03-30T13:05:30.865Z</time></trkpt><trkpt lat="44.2202341" lon="11.286189"><ele>675.75</ele><time>2026-03-30T13:05:31.873Z</time></trkpt><trkpt lat="44.2203337" lon="11.2860784"><ele>674.0</ele><time>2026-03-30T13:05:32.878Z</time></trkpt><trkpt lat="44.2204324" lon="11.2859688"><ele>674.0</ele><time>2026-03-30T13:05:33.882Z</time></trkpt><trkpt lat="44.2205235" lon="11.2858636"><ele>674.0</ele><time>2026-03-30T13:05:34.882Z</time></trkpt><trkpt lat="44.2205827" lon="11.2857302"><ele>674.0</ele><time>2026-03-30T13:05:35.874Z</time></trkpt><trkpt lat="44.2206158" lon="11.2855818"><ele>674.0</ele><time>2026-03-30T13:05:36.854Z</time></trkpt><trkpt lat="44.2206354" lon="11.2854267"><ele>674.0</ele><time>2026-03-30T13:05:37.864Z</time></trkpt><trkpt lat="44.2206505" lon="11.2852731"><ele>674.0</ele><time>2026-03-30T13:05:38.876Z</time></trkpt><trkpt lat="44.2206651" lon="11.2851194"><ele>674.0</ele><time>2026-03-30T13:05:39.878Z</time></trkpt><trkpt lat="44.220678" lon="11.284969"><ele>674.0</ele><time>2026-03-30T13:05:40.875Z</time></trkpt><trkpt lat="44.2206906" lon="11.284825"><ele>674.0</ele><time>2026-03-30T13:05:41.863Z</time></trkpt><trkpt lat="44.2207009" lon="11.284683"><ele>674.0</ele><time>2026-03-30T13:05:42.869Z</time></trkpt><trkpt lat="44.2207141" lon="11.284547"><ele>674.0</ele><time>2026-03-30T13:05:43.873Z</time></trkpt><trkpt lat="44.2207278" lon="11.2844144"><ele>674.0</ele><time>2026-03-30T13:05:44.875Z</time></trkpt><trkpt lat="44.2207422" lon="11.2842779"><ele>674.0</ele><time>2026-03-30T13:05:45.867Z</time></trkpt><trkpt lat="44.2207588" lon="11.2841368"><ele>674.0</ele><time>2026-03-30T13:05:46.863Z</time></trkpt><trkpt lat="44.2207774" lon="11.2839899"><ele>671.75</ele><time>2026-03-30T13:05:47.872Z</time></trkpt><trkpt lat="44.2207967" lon="11.2838381"><ele>669.5</ele><time>2026-03-30T13:05:48.876Z</time></trkpt><trkpt lat="44.220824" lon="11.2836843"><ele>667.25</ele><time>2026-03-30T13:05:49.875Z</time></trkpt><trkpt lat="44.2208563" lon="11.2835294"><ele>665.0</ele><time>2026-03-30T13:05:50.876Z</time></trkpt><trkpt lat="44.2209002" lon="11.283376"><ele>665.0</ele><time>2026-03-30T13:05:51.878Z</time></trkpt><trkpt lat="44.2209507" lon="11.2832251"><ele>665.0</ele><time>2026-03-30T13:05:52.888Z</time></trkpt><trkpt lat="44.2210026" lon="11.2830696"><ele>665.0</ele><time>2026-03-30T13:05:53.869Z</time></trkpt><trkpt lat="44.2210584" lon="11.2829163"><ele>665.0</ele><time>2026-03-30T13:05:54.864Z</time></trkpt><trkpt lat="44.2211139" lon="11.2827599"><ele>662.75</ele><time>2026-03-30T13:05:55.864Z</time></trkpt><trkpt lat="44.221167" lon="11.2825998"><ele>660.5</ele><time>2026-03-30T13:05:56.867Z</time></trkpt><trkpt lat="44.2212203" lon="11.2824383"><ele>658.25</ele><time>2026-03-30T13:05:57.864Z</time></trkpt><trkpt lat="44.221275" lon="11.2822761"><ele>656.0</ele><time>2026-03-30T13:05:58.878Z</time></trkpt><trkpt lat="44.2213285" lon="11.2821124"><ele>657.25</ele><time>2026-03-30T13:05:59.879Z</time></trkpt><trkpt lat="44.2213888" lon="11.28195"><ele>658.5</ele><time>2026-03-30T13:06:00.871Z</time></trkpt><trkpt lat="44.2214655" lon="11.2818049"><ele>659.75</ele><time>2026-03-30T13:06:01.882Z</time></trkpt><trkpt lat="44.221561" lon="11.2816806"><ele>661.0</ele><time>2026-03-30T13:06:02.881Z</time></trkpt><trkpt lat="44.2216726" lon="11.281581"><ele>661.0</ele><time>2026-03-30T13:06:03.873Z</time></trkpt><trkpt lat="44.2217922" lon="11.2814923"><ele>661.0</ele><time>2026-03-30T13:06:04.878Z</time></trkpt><trkpt lat="44.2219142" lon="11.2814076"><ele>661.0</ele><time>2026-03-30T13:06:05.868Z</time></trkpt><trkpt lat="44.2220367" lon="11.2813232"><ele>661.0</ele><time>2026-03-30T13:06:06.873Z</time></trkpt><trkpt lat="44.2221598" lon="11.2812382"><ele>656.75</ele><time>2026-03-30T13:06:07.867Z</time></trkpt><trkpt lat="44.2222821" lon="11.2811527"><ele>652.5</ele><time>2026-03-30T13:06:08.867Z</time></trkpt><trkpt lat="44.2224061" lon="11.2810693"><ele>648.25</ele><time>2026-03-30T13:06:09.871Z</time></trkpt><trkpt lat="44.2225327" lon="11.2810028"><ele>644.0</ele><time>2026-03-30T13:06:10.88Z</time></trkpt><trkpt lat="44.2226661" lon="11.2809699"><ele>644.0</ele><time>2026-03-30T13:06:11.876Z</time></trkpt><trkpt lat="44.2228015" lon="11.2809763"><ele>644.0</ele><time>2026-03-30T13:06:12.871Z</time></trkpt><trkpt lat="44.2229225" lon="11.2810119"><ele>644.0</ele><time>2026-03-30T13:06:13.872Z</time></trkpt><trkpt lat="44.2230318" lon="11.2810639"><ele>644.0</ele><time>2026-03-30T13:06:14.865Z</time></trkpt><trkpt lat="44.2231377" lon="11.2811067"><ele>644.2</ele><time>2026-03-30T13:06:15.877Z</time></trkpt><trkpt lat="44.223246" lon="11.2811217"><ele>644.4000000000001</ele><time>2026-03-30T13:06:16.871Z</time></trkpt><trkpt lat="44.2233482" lon="11.2811009"><ele>644.6</ele><time>2026-03-30T13:06:17.869Z</time></trkpt><trkpt lat="44.2234399" lon="11.2810394"><ele>644.8</ele><time>2026-03-30T13:06:18.877Z</time></trkpt><trkpt lat="44.2235146" lon="11.2809347"><ele>645.0</ele><time>2026-03-30T13:06:19.88Z</time></trkpt><trkpt lat="44.2235661" lon="11.2808028"><ele>645.0</ele><time>2026-03-30T13:06:20.873Z</time></trkpt><trkpt lat="44.223616" lon="11.2806701"><ele>645.0</ele><time>2026-03-30T13:06:21.866Z</time></trkpt><trkpt lat="44.223602" lon="11.2805229"><ele>645.0</ele><time>2026-03-30T13:06:22.888Z</time></trkpt><trkpt lat="44.2235615" lon="11.2803865"><ele>645.0</ele><time>2026-03-30T13:06:23.868Z</time></trkpt><trkpt lat="44.2234931" lon="11.2802711"><ele>645.0</ele><time>2026-03-30T13:06:24.879Z</time></trkpt><trkpt lat="44.2234045" lon="11.2801874"><ele>642.6</ele><time>2026-03-30T13:06:25.865Z</time></trkpt><trkpt lat="44.2233022" lon="11.2801522"><ele>640.2</ele><time>2026-03-30T13:06:26.877Z</time></trkpt><trkpt lat="44.2231927" lon="11.2801455"><ele>637.8</ele><time>2026-03-30T13:06:27.863Z</time></trkpt><trkpt lat="44.2230837" lon="11.280147"><ele>635.4</ele><time>2026-03-30T13:06:28.863Z</time></trkpt><trkpt lat="44.2229754" lon="11.2801497"><ele>633.0</ele><time>2026-03-30T13:06:29.877Z</time></trkpt><trkpt lat="44.2228662" lon="11.2801573"><ele>631.1999999999999</ele><time>2026-03-30T13:06:30.873Z</time></trkpt><trkpt lat="44.2227573" lon="11.2801633"><ele>629.4</ele><time>2026-03-30T13:06:31.866Z</time></trkpt><trkpt lat="44.2226481" lon="11.2801707"><ele>627.5999999999999</ele><time>2026-03-30T13:06:32.874Z</time></trkpt><trkpt lat="44.2225392" lon="11.2801798"><ele>625.8</ele><time>2026-03-30T13:06:33.869Z</time></trkpt><trkpt lat="44.2224302" lon="11.2801837"><ele>624.0</ele><time>2026-03-30T13:06:34.864Z</time></trkpt><trkpt lat="44.2223223" lon="11.2801963"><ele>623.6</ele><time>2026-03-30T13:06:35.889Z</time></trkpt><trkpt lat="44.2222113" lon="11.2802117"><ele>623.2</ele><time>2026-03-30T13:06:36.868Z</time></trkpt><trkpt lat="44.2221002" lon="11.2802249"><ele>622.8000000000001</ele><time>2026-03-30T13:06:37.875Z</time></trkpt><trkpt lat="44.2219964" lon="11.2802462"><ele>622.4</ele><time>2026-03-30T13:06:38.858Z</time></trkpt><trkpt lat="44.2218948" lon="11.2802675"><ele>622.0</ele><time>2026-03-30T13:06:39.874Z</time></trkpt><trkpt lat="44.2217906" lon="11.2802807"><ele>622.0</ele><time>2026-03-30T13:06:40.875Z</time></trkpt><trkpt lat="44.2216826" lon="11.2802929"><ele>622.0</ele><time>2026-03-30T13:06:41.868Z</time></trkpt><trkpt lat="44.2215702" lon="11.2803028"><ele>622.0</ele><time>2026-03-30T13:06:42.869Z</time></trkpt><trkpt lat="44.2214591" lon="11.280309"><ele>622.0</ele><time>2026-03-30T13:06:43.87Z</time></trkpt><trkpt lat="44.2213471" lon="11.2803195"><ele>622.0</ele><time>2026-03-30T13:06:44.871Z</time></trkpt><trkpt lat="44.2212343" lon="11.28033"><ele>620.4</ele><time>2026-03-30T13:06:45.861Z</time></trkpt><trkpt lat="44.2211228" lon="11.2803404"><ele>618.8000000000001</ele><time>2026-03-30T13:06:46.866Z</time></trkpt><trkpt lat="44.2210118" lon="11.2803532"><ele>617.2</ele><time>2026-03-30T13:06:47.877Z</time></trkpt><trkpt lat="44.2208999" lon="11.2803692"><ele>615.6</ele><time>2026-03-30T13:06:48.877Z</time></trkpt><trkpt lat="44.22079" lon="11.2803924"><ele>614.0</ele><time>2026-03-30T13:06:49.881Z</time></trkpt><trkpt lat="44.2206808" lon="11.2804286"><ele>613.25</ele><time>2026-03-30T13:06:50.867Z</time></trkpt><trkpt lat="44.2205725" lon="11.2804739"><ele>612.5</ele><time>2026-03-30T13:06:51.871Z</time></trkpt><trkpt lat="44.2204649" lon="11.2805287"><ele>611.75</ele><time>2026-03-30T13:06:52.873Z</time></trkpt><trkpt lat="44.2203566" lon="11.2805901"><ele>611.0</ele><time>2026-03-30T13:06:53.867Z</time></trkpt><trkpt lat="44.2202491" lon="11.2806573"><ele>611.0</ele><time>2026-03-30T13:06:54.868Z</time></trkpt><trkpt lat="44.2201435" lon="11.2807284"><ele>611.0</ele><time>2026-03-30T13:06:55.861Z</time></trkpt><trkpt lat="44.220043" lon="11.2808109"><ele>611.0</ele><time>2026-03-30T13:06:56.879Z</time></trkpt><trkpt lat="44.2199497" lon="11.2809124"><ele>611.0</ele><time>2026-03-30T13:06:57.876Z</time></trkpt><trkpt lat="44.2198655" lon="11.2810263"><ele>609.75</ele><time>2026-03-30T13:06:58.866Z</time></trkpt><trkpt lat="44.2197897" lon="11.2811535"><ele>608.5</ele><time>2026-03-30T13:06:59.861Z</time></trkpt><trkpt lat="44.2197247" lon="11.2812922"><ele>607.25</ele><time>2026-03-30T13:07:00.865Z</time></trkpt><trkpt lat="44.2196678" lon="11.2814315"><ele>606.0</ele><time>2026-03-30T13:07:01.867Z</time></trkpt><trkpt lat="44.219607" lon="11.2815718"><ele>606.0</ele><time>2026-03-30T13:07:02.882Z</time></trkpt><trkpt lat="44.2195408" lon="11.281698"><ele>606.0</ele><time>2026-03-30T13:07:03.869Z</time></trkpt><trkpt lat="44.2194617" lon="11.2817894"><ele>606.0</ele><time>2026-03-30T13:07:04.874Z</time></trkpt><trkpt lat="44.2193644" lon="11.2818496"><ele>606.0</ele><time>2026-03-30T13:07:05.858Z</time></trkpt><trkpt lat="44.2192603" lon="11.2818672"><ele>606.0</ele><time>2026-03-30T13:07:06.864Z</time></trkpt><trkpt lat="44.219158" lon="11.2818398"><ele>606.0</ele><time>2026-03-30T13:07:07.86Z</time></trkpt><trkpt lat="44.2190677" lon="11.2817696"><ele>606.0</ele><time>2026-03-30T13:07:08.875Z</time></trkpt><trkpt lat="44.2189986" lon="11.2816629"><ele>606.0</ele><time>2026-03-30T13:07:09.877Z</time></trkpt><trkpt lat="44.2189659" lon="11.2815412"><ele>606.0</ele><time>2026-03-30T13:07:10.873Z</time></trkpt><trkpt lat="44.2189703" lon="11.2814202"><ele>606.0</ele><time>2026-03-30T13:07:11.878Z</time></trkpt><trkpt lat="44.2190153" lon="11.2813223"><ele>603.8333333333334</ele><time>2026-03-30T13:07:12.883Z</time></trkpt><trkpt lat="44.219067" lon="11.2812109"><ele>601.6666666666666</ele><time>2026-03-30T13:07:13.879Z</time></trkpt><trkpt lat="44.2191421" lon="11.2811741"><ele>599.5</ele><time>2026-03-30T13:07:14.869Z</time></trkpt><trkpt lat="44.2192195" lon="11.2811414"><ele>597.3333333333333</ele><time>2026-03-30T13:07:15.862Z</time></trkpt><trkpt lat="44.2193057" lon="11.2810939"><ele>595.1666666666666</ele><time>2026-03-30T13:07:16.864Z</time></trkpt><trkpt lat="44.2193909" lon="11.2810229"><ele>593.0</ele><time>2026-03-30T13:07:17.867Z</time></trkpt><trkpt lat="44.2194642" lon="11.2809339"><ele>593.0</ele><time>2026-03-30T13:07:18.872Z</time></trkpt><trkpt lat="44.2195246" lon="11.2808342"><ele>593.0</ele><time>2026-03-30T13:07:19.868Z</time></trkpt><trkpt lat="44.2195773" lon="11.2807123"><ele>593.0</ele><time>2026-03-30T13:07:20.877Z</time></trkpt><trkpt lat="44.2196308" lon="11.2805788"><ele>593.0</ele><time>2026-03-30T13:07:21.858Z</time></trkpt><trkpt lat="44.2196569" lon="11.2804337"><ele>593.0</ele><time>2026-03-30T13:07:22.871Z</time></trkpt><trkpt lat="44.2196867" lon="11.2802823"><ele>591.6</ele><time>2026-03-30T13:07:23.874Z</time></trkpt><trkpt lat="44.2197162" lon="11.2801392"><ele>590.1999999999999</ele><time>2026-03-30T13:07:24.87Z</time></trkpt><trkpt lat="44.2197532" lon="11.2799946"><ele>588.8</ele><time>2026-03-30T13:07:25.877Z</time></trkpt><trkpt lat="44.2197836" lon="11.2798549"><ele>587.4</ele><time>2026-03-30T13:07:26.866Z</time></trkpt><trkpt lat="44.2198148" lon="11.2797141"><ele>586.0</ele><time>2026-03-30T13:07:27.879Z</time></trkpt><trkpt lat="44.2198456" lon="11.2795732"><ele>586.0</ele><time>2026-03-30T13:07:28.881Z</time></trkpt><trkpt lat="44.2198775" lon="11.2794344"><ele>586.0</ele><time>2026-03-30T13:07:29.862Z</time></trkpt><trkpt lat="44.2199109" lon="11.2792982"><ele>586.0</ele><time>2026-03-30T13:07:30.863Z</time></trkpt><trkpt lat="44.2199435" lon="11.2791621"><ele>586.0</ele><time>2026-03-30T13:07:31.87Z</time></trkpt><trkpt lat="44.2199759" lon="11.2790266"><ele>586.0</ele><time>2026-03-30T13:07:32.876Z</time></trkpt><trkpt lat="44.220006" lon="11.278891"><ele>584.2</ele><time>2026-03-30T13:07:33.871Z</time></trkpt><trkpt lat="44.2200394" lon="11.2787541"><ele>582.4000000000001</ele><time>2026-03-30T13:07:34.868Z</time></trkpt><trkpt lat="44.2200712" lon="11.2786172"><ele>580.6</ele><time>2026-03-30T13:07:35.865Z</time></trkpt><trkpt lat="44.2201053" lon="11.2784789"><ele>578.8000000000001</ele><time>2026-03-30T13:07:36.868Z</time></trkpt><trkpt lat="44.2201446" lon="11.2783408"><ele>577.0</ele><time>2026-03-30T13:07:37.875Z</time></trkpt><trkpt lat="44.2201947" lon="11.2782094"><ele>574.4</ele><time>2026-03-30T13:07:38.878Z</time></trkpt><trkpt lat="44.2202433" lon="11.2780777"><ele>571.8000000000001</ele><time>2026-03-30T13:07:39.863Z</time></trkpt><trkpt lat="44.2203242" lon="11.2779683"><ele>569.2</ele><time>2026-03-30T13:07:40.868Z</time></trkpt><trkpt lat="44.2204131" lon="11.2778801"><ele>566.6</ele><time>2026-03-30T13:07:41.875Z</time></trkpt><trkpt lat="44.2205077" lon="11.2778086"><ele>564.0</ele><time>2026-03-30T13:07:42.875Z</time></trkpt><trkpt lat="44.2206028" lon="11.2777409"><ele>567.6</ele><time>2026-03-30T13:07:43.873Z</time></trkpt><trkpt lat="44.2206962" lon="11.2776682"><ele>571.2</ele><time>2026-03-30T13:07:44.874Z</time></trkpt><trkpt lat="44.2207967" lon="11.2775909"><ele>574.8000000000001</ele><time>2026-03-30T13:07:45.876Z</time></trkpt><trkpt lat="44.2208978" lon="11.27751"><ele>578.4</ele><time>2026-03-30T13:07:46.866Z</time></trkpt><trkpt lat="44.2209942" lon="11.2774343"><ele>582.0</ele><time>2026-03-30T13:07:47.866Z</time></trkpt><trkpt lat="44.2210867" lon="11.2773612"><ele>582.0</ele><time>2026-03-30T13:07:48.868Z</time></trkpt><trkpt lat="44.2211847" lon="11.2772848"><ele>582.0</ele><time>2026-03-30T13:07:49.87Z</time></trkpt><trkpt lat="44.2212841" lon="11.2772069"><ele>582.0</ele><time>2026-03-30T13:07:50.867Z</time></trkpt><trkpt lat="44.2213846" lon="11.2771348"><ele>582.0</ele><time>2026-03-30T13:07:51.883Z</time></trkpt><trkpt lat="44.2214841" lon="11.2770643"><ele>580.75</ele><time>2026-03-30T13:07:52.871Z</time></trkpt><trkpt lat="44.2215831" lon="11.2769892"><ele>579.5</ele><time>2026-03-30T13:07:53.867Z</time></trkpt><trkpt lat="44.2216852" lon="11.2769179"><ele>578.25</ele><time>2026-03-30T13:07:54.865Z</time></trkpt><trkpt lat="44.2217934" lon="11.2768477"><ele>577.0</ele><time>2026-03-30T13:07:55.874Z</time></trkpt><trkpt lat="44.2219059" lon="11.2767861"><ele>577.0</ele><time>2026-03-30T13:07:56.88Z</time></trkpt><trkpt lat="44.22202" lon="11.2767309"><ele>577.0</ele><time>2026-03-30T13:07:57.873Z</time></trkpt><trkpt lat="44.2221336" lon="11.2766843"><ele>577.0</ele><time>2026-03-30T13:07:58.876Z</time></trkpt><trkpt lat="44.2222501" lon="11.2766436"><ele>577.0</ele><time>2026-03-30T13:07:59.868Z</time></trkpt><trkpt lat="44.2223639" lon="11.2766086"><ele>577.75</ele><time>2026-03-30T13:08:00.871Z</time></trkpt><trkpt lat="44.2224785" lon="11.2765786"><ele>578.5</ele><time>2026-03-30T13:08:01.874Z</time></trkpt><trkpt lat="44.2225932" lon="11.2765514"><ele>579.25</ele><time>2026-03-30T13:08:02.875Z</time></trkpt><trkpt lat="44.2227075" lon="11.2765244"><ele>580.0</ele><time>2026-03-30T13:08:03.873Z</time></trkpt><trkpt lat="44.222823" lon="11.2764985"><ele>580.0</ele><time>2026-03-30T13:08:04.865Z</time></trkpt><trkpt lat="44.2229432" lon="11.2764723"><ele>580.0</ele><time>2026-03-30T13:08:05.876Z</time></trkpt><trkpt lat="44.2230668" lon="11.2764465"><ele>580.0</ele><time>2026-03-30T13:08:06.883Z</time></trkpt><trkpt lat="44.2231917" lon="11.2764236"><ele>580.0</ele><time>2026-03-30T13:08:07.871Z</time></trkpt><trkpt lat="44.2233166" lon="11.2763994"><ele>576.0</ele><time>2026-03-30T13:08:08.866Z</time></trkpt><trkpt lat="44.2234388" lon="11.2763781"><ele>572.0</ele><time>2026-03-30T13:08:09.863Z</time></trkpt><trkpt lat="44.2235581" lon="11.2763539"><ele>568.0</ele><time>2026-03-30T13:08:10.87Z</time></trkpt><trkpt lat="44.2236834" lon="11.276332"><ele>564.0</ele><time>2026-03-30T13:08:11.859Z</time></trkpt><trkpt lat="44.2238047" lon="11.2763071"><ele>564.0</ele><time>2026-03-30T13:08:12.873Z</time></trkpt><trkpt lat="44.2239299" lon="11.2762785"><ele>564.0</ele><time>2026-03-30T13:08:13.866Z</time></trkpt><trkpt lat="44.2240588" lon="11.2762534"><ele>564.0</ele><time>2026-03-30T13:08:14.868Z</time></trkpt><trkpt lat="44.2241856" lon="11.2762238"><ele>564.0</ele><time>2026-03-30T13:08:15.873Z</time></trkpt><trkpt lat="44.2243159" lon="11.2762044"><ele>563.0</ele><time>2026-03-30T13:08:16.87Z</time></trkpt><trkpt lat="44.2244441" lon="11.2761878"><ele>562.0</ele><time>2026-03-30T13:08:17.878Z</time></trkpt><trkpt lat="44.224578" lon="11.2762291"><ele>561.0</ele><time>2026-03-30T13:08:18.867Z</time></trkpt><trkpt lat="44.224714" lon="11.2763484"><ele>560.0</ele><time>2026-03-30T13:08:19.87Z</time></trkpt><trkpt lat="44.2248205" lon="11.2765106"><ele>559.0</ele><time>2026-03-30T13:08:20.868Z</time></trkpt><trkpt lat="44.2249205" lon="11.2766807"><ele>558.0</ele><time>2026-03-30T13:08:21.868Z</time></trkpt><trkpt lat="44.2249723" lon="11.2768672"><ele>557.0</ele><time>2026-03-30T13:08:22.87Z</time></trkpt><trkpt lat="44.2250225" lon="11.2770531"><ele>556.0</ele><time>2026-03-30T13:08:23.882Z</time></trkpt><trkpt lat="44.2250903" lon="11.2772193"><ele>558.75</ele><time>2026-03-30T13:08:24.882Z</time></trkpt><trkpt lat="44.22518" lon="11.2773433"><ele>561.5</ele><time>2026-03-30T13:08:25.881Z</time></trkpt><trkpt lat="44.22527" lon="11.2774608"><ele>564.25</ele><time>2026-03-30T13:08:26.866Z</time></trkpt><trkpt lat="44.2253905" lon="11.2774886"><ele>567.0</ele><time>2026-03-30T13:08:27.864Z</time></trkpt><trkpt lat="44.2255138" lon="11.2775185"><ele>567.0</ele><time>2026-03-30T13:08:28.873Z</time></trkpt><trkpt lat="44.2256349" lon="11.2774928"><ele>567.0</ele><time>2026-03-30T13:08:29.871Z</time></trkpt><trkpt lat="44.2257368" lon="11.2774145"><ele>567.0</ele><time>2026-03-30T13:08:30.868Z</time></trkpt><trkpt lat="44.2257901" lon="11.2772603"><ele>567.0</ele><time>2026-03-30T13:08:31.875Z</time></trkpt><trkpt lat="44.2258044" lon="11.2770932"><ele>562.75</ele><time>2026-03-30T13:08:32.874Z</time></trkpt><trkpt lat="44.2258148" lon="11.2769215"><ele>558.5</ele><time>2026-03-30T13:08:33.879Z</time></trkpt><trkpt lat="44.2258217" lon="11.2767505"><ele>554.25</ele><time>2026-03-30T13:08:34.872Z</time></trkpt><trkpt lat="44.2258266" lon="11.2765784"><ele>550.0</ele><time>2026-03-30T13:08:35.876Z</time></trkpt><trkpt lat="44.22585" lon="11.2764096"><ele>546.25</ele><time>2026-03-30T13:08:36.869Z</time></trkpt><trkpt lat="44.2259037" lon="11.276257"><ele>542.5</ele><time>2026-03-30T13:08:37.877Z</time></trkpt><trkpt lat="44.2259777" lon="11.2761235"><ele>538.75</ele><time>2026-03-30T13:08:38.872Z</time></trkpt><trkpt lat="44.2260789" lon="11.2760361"><ele>535.0</ele><time>2026-03-30T13:08:39.876Z</time></trkpt><trkpt lat="44.226192" lon="11.2759763"><ele>535.0</ele><time>2026-03-30T13:08:40.871Z</time></trkpt><trkpt lat="44.2263103" lon="11.2759267"><ele>535.0</ele><time>2026-03-30T13:08:41.869Z</time></trkpt><trkpt lat="44.2264263" lon="11.275877"><ele>535.0</ele><time>2026-03-30T13:08:42.871Z</time></trkpt><trkpt lat="44.2265398" lon="11.2758133"><ele>535.0</ele><time>2026-03-30T13:08:43.876Z</time></trkpt><trkpt lat="44.2266498" lon="11.2757298"><ele>537.0</ele><time>2026-03-30T13:08:44.867Z</time></trkpt><trkpt lat="44.2267533" lon="11.2756348"><ele>539.0</ele><time>2026-03-30T13:08:45.881Z</time></trkpt><trkpt lat="44.2268535" lon="11.2755296"><ele>541.0</ele><time>2026-03-30T13:08:46.88Z</time></trkpt><trkpt lat="44.22695" lon="11.2754168"><ele>543.0</ele><time>2026-03-30T13:08:47.88Z</time></trkpt><trkpt lat="44.2270498" lon="11.2753096"><ele>539.5</ele><time>2026-03-30T13:08:48.871Z</time></trkpt><trkpt lat="44.2271589" lon="11.2752162"><ele>536.0</ele><time>2026-03-30T13:08:49.866Z</time></trkpt><trkpt lat="44.227281" lon="11.2751588"><ele>532.5</ele><time>2026-03-30T13:08:50.875Z</time></trkpt><trkpt lat="44.2274084" lon="11.2751426"><ele>529.0</ele><time>2026-03-30T13:08:51.878Z</time></trkpt><trkpt lat="44.227536" lon="11.2751682"><ele>529.0</ele><time>2026-03-30T13:08:52.866Z</time></trkpt><trkpt lat="44.2276578" lon="11.2752214"><ele>529.0</ele><time>2026-03-30T13:08:53.865Z</time></trkpt><trkpt lat="44.2277822" lon="11.2752846"><ele>529.0</ele><time>2026-03-30T13:08:54.879Z</time></trkpt><trkpt lat="44.2279107" lon="11.2753481"><ele>529.0</ele><time>2026-03-30T13:08:55.867Z</time></trkpt><trkpt lat="44.2280384" lon="11.2754094"><ele>527.25</ele><time>2026-03-30T13:08:56.878Z</time></trkpt><trkpt lat="44.228168" lon="11.2754748"><ele>525.5</ele><time>2026-03-30T13:08:57.89Z</time></trkpt><trkpt lat="44.2282955" lon="11.2755376"><ele>523.75</ele><time>2026-03-30T13:08:58.875Z</time></trkpt><trkpt lat="44.2284235" lon="11.2756015"><ele>522.0</ele><time>2026-03-30T13:08:59.885Z</time></trkpt><trkpt lat="44.2285506" lon="11.2756585"><ele>522.5</ele><time>2026-03-30T13:09:00.875Z</time></trkpt><trkpt lat="44.2286815" lon="11.2757091"><ele>523.0</ele><time>2026-03-30T13:09:01.878Z</time></trkpt><trkpt lat="44.2288128" lon="11.2757518"><ele>523.5</ele><time>2026-03-30T13:09:02.867Z</time></trkpt><trkpt lat="44.2289465" lon="11.2757728"><ele>524.0</ele><time>2026-03-30T13:09:03.865Z</time></trkpt><trkpt lat="44.2290784" lon="11.2757733"><ele>524.0</ele><time>2026-03-30T13:09:04.866Z</time></trkpt><trkpt lat="44.2292088" lon="11.27576"><ele>524.0</ele><time>2026-03-30T13:09:05.873Z</time></trkpt><trkpt lat="44.2293373" lon="11.2757299"><ele>524.0</ele><time>2026-03-30T13:09:06.873Z</time></trkpt><trkpt lat="44.2294577" lon="11.2756813"><ele>524.0</ele><time>2026-03-30T13:09:07.887Z</time></trkpt><trkpt lat="44.2295763" lon="11.2756201"><ele>521.75</ele><time>2026-03-30T13:09:08.87Z</time></trkpt><trkpt lat="44.22969" lon="11.2755472"><ele>519.5</ele><time>2026-03-30T13:09:09.871Z</time></trkpt><trkpt lat="44.229801" lon="11.2754629"><ele>517.25</ele><time>2026-03-30T13:09:10.87Z</time></trkpt><trkpt lat="44.2299085" lon="11.2753707"><ele>515.0</ele><time>2026-03-30T13:09:11.866Z</time></trkpt><trkpt lat="44.2300154" lon="11.2752784"><ele>515.0</ele><time>2026-03-30T13:09:12.874Z</time></trkpt><trkpt lat="44.2301227" lon="11.2751892"><ele>515.0</ele><time>2026-03-30T13:09:13.872Z</time></trkpt><trkpt lat="44.2302286" lon="11.2751"><ele>515.0</ele><time>2026-03-30T13:09:14.881Z</time></trkpt><trkpt lat="44.230334" lon="11.2750082"><ele>515.0</ele><time>2026-03-30T13:09:15.879Z</time></trkpt><trkpt lat="44.2304387" lon="11.2749169"><ele>515.0</ele><time>2026-03-30T13:09:16.879Z</time></trkpt><trkpt lat="44.2305418" lon="11.2748242"><ele>515.0</ele><time>2026-03-30T13:09:17.877Z</time></trkpt><trkpt lat="44.2306429" lon="11.2747297"><ele>515.0</ele><time>2026-03-30T13:09:18.879Z</time></trkpt><trkpt lat="44.2307465" lon="11.2746382"><ele>515.0</ele><time>2026-03-30T13:09:19.875Z</time></trkpt><trkpt lat="44.2308496" lon="11.2745432"><ele>513.25</ele><time>2026-03-30T13:09:20.882Z</time></trkpt><trkpt lat="44.2309508" lon="11.274447"><ele>511.5</ele><time>2026-03-30T13:09:21.875Z</time></trkpt><trkpt lat="44.2310576" lon="11.2743496"><ele>509.75</ele><time>2026-03-30T13:09:22.877Z</time></trkpt><trkpt lat="44.2311584" lon="11.2742562"><ele>508.0</ele><time>2026-03-30T13:09:23.868Z</time></trkpt><trkpt lat="44.2312603" lon="11.2741608"><ele>508.0</ele><time>2026-03-30T13:09:24.883Z</time></trkpt><trkpt lat="44.2313669" lon="11.2740701"><ele>508.0</ele><time>2026-03-30T13:09:25.875Z</time></trkpt><trkpt lat="44.2314674" lon="11.2739786"><ele>508.0</ele><time>2026-03-30T13:09:26.863Z</time></trkpt><trkpt lat="44.2315686" lon="11.2738855"><ele>508.0</ele><time>2026-03-30T13:09:27.867Z</time></trkpt><trkpt lat="44.2316739" lon="11.2737935"><ele>505.75</ele><time>2026-03-30T13:09:28.876Z</time></trkpt><trkpt lat="44.2317879" lon="11.2737112"><ele>503.5</ele><time>2026-03-30T13:09:29.887Z</time></trkpt><trkpt lat="44.2319078" lon="11.2736508"><ele>501.25</ele><time>2026-03-30T13:09:30.864Z</time></trkpt><trkpt lat="44.2320335" lon="11.2736151"><ele>499.0</ele><time>2026-03-30T13:09:31.879Z</time></trkpt><trkpt lat="44.2321614" lon="11.273592"><ele>499.0</ele><time>2026-03-30T13:09:32.871Z</time></trkpt><trkpt lat="44.2322907" lon="11.2735803"><ele>499.0</ele><time>2026-03-30T13:09:33.874Z</time></trkpt><trkpt lat="44.2324178" lon="11.2735777"><ele>499.0</ele><time>2026-03-30T13:09:34.865Z</time></trkpt><trkpt lat="44.2325467" lon="11.2735805"><ele>499.0</ele><time>2026-03-30T13:09:35.877Z</time></trkpt><trkpt lat="44.2326767" lon="11.2735835"><ele>498.75</ele><time>2026-03-30T13:09:36.875Z</time></trkpt><trkpt lat="44.2328068" lon="11.2735868"><ele>498.5</ele><time>2026-03-30T13:09:37.871Z</time></trkpt><trkpt lat="44.2329419" lon="11.2735973"><ele>498.25</ele><time>2026-03-30T13:09:38.873Z</time></trkpt><trkpt lat="44.2330783" lon="11.2736043"><ele>498.0</ele><time>2026-03-30T13:09:39.873Z</time></trkpt><trkpt lat="44.2332156" lon="11.2736102"><ele>498.0</ele><time>2026-03-30T13:09:40.876Z</time></trkpt><trkpt lat="44.233354" lon="11.2736136"><ele>498.0</ele><time>2026-03-30T13:09:41.866Z</time></trkpt><trkpt lat="44.2334897" lon="11.2735852"><ele>498.0</ele><time>2026-03-30T13:09:42.872Z</time></trkpt><trkpt lat="44.2336206" lon="11.2735344"><ele>498.0</ele><time>2026-03-30T13:09:43.866Z</time></trkpt><trkpt lat="44.2337515" lon="11.2734762"><ele>498.0</ele><time>2026-03-30T13:09:44.877Z</time></trkpt><trkpt lat="44.2338651" lon="11.27339"><ele>498.0</ele><time>2026-03-30T13:09:45.89Z</time></trkpt><trkpt lat="44.2339683" lon="11.2732917"><ele>498.0</ele><time>2026-03-30T13:09:46.871Z</time></trkpt><trkpt lat="44.2340863" lon="11.2731894"><ele>498.0</ele><time>2026-03-30T13:09:47.881Z</time></trkpt><trkpt lat="44.2341896" lon="11.2730986"><ele>494.5</ele><time>2026-03-30T13:09:48.864Z</time></trkpt><trkpt lat="44.2343083" lon="11.2730444"><ele>491.0</ele><time>2026-03-30T13:09:49.875Z</time></trkpt><trkpt lat="44.2344427" lon="11.2730166"><ele>487.5</ele><time>2026-03-30T13:09:50.877Z</time></trkpt><trkpt lat="44.2345676" lon="11.2729974"><ele>484.0</ele><time>2026-03-30T13:09:51.88Z</time></trkpt><trkpt lat="44.2346884" lon="11.2729696"><ele>484.0</ele><time>2026-03-30T13:09:52.891Z</time></trkpt><trkpt lat="44.2348134" lon="11.272939"><ele>484.0</ele><time>2026-03-30T13:09:53.877Z</time></trkpt><trkpt lat="44.2349394" lon="11.2729038"><ele>484.0</ele><time>2026-03-30T13:09:54.875Z</time></trkpt><trkpt lat="44.2350692" lon="11.272865"><ele>484.0</ele><time>2026-03-30T13:09:55.863Z</time></trkpt><trkpt lat="44.2351861" lon="11.2728313"><ele>484.0</ele><time>2026-03-30T13:09:56.865Z</time></trkpt><trkpt lat="44.2353077" lon="11.2727852"><ele>484.0</ele><time>2026-03-30T13:09:57.869Z</time></trkpt><trkpt lat="44.2354272" lon="11.2727365"><ele>484.0</ele><time>2026-03-30T13:09:58.857Z</time></trkpt><trkpt lat="44.2355399" lon="11.2726861"><ele>484.0</ele><time>2026-03-30T13:09:59.876Z</time></trkpt><trkpt lat="44.2356585" lon="11.2726362"><ele>483.0</ele><time>2026-03-30T13:10:00.874Z</time></trkpt><trkpt lat="44.2357784" lon="11.2725906"><ele>482.0</ele><time>2026-03-30T13:10:01.887Z</time></trkpt><trkpt lat="44.2358913" lon="11.2725474"><ele>481.0</ele><time>2026-03-30T13:10:02.872Z</time></trkpt><trkpt lat="44.235995" lon="11.2725106"><ele>480.0</ele><time>2026-03-30T13:10:03.881Z</time></trkpt><trkpt lat="44.2360971" lon="11.2724758"><ele>480.0</ele><time>2026-03-30T13:10:04.889Z</time></trkpt><trkpt lat="44.2361887" lon="11.2724456"><ele>480.0</ele><time>2026-03-30T13:10:05.884Z</time></trkpt><trkpt lat="44.236288" lon="11.2724142"><ele>480.0</ele><time>2026-03-30T13:10:06.865Z</time></trkpt><trkpt lat="44.2363986" lon="11.2723793"><ele>480.0</ele><time>2026-03-30T13:10:07.875Z</time></trkpt><trkpt lat="44.2365135" lon="11.2723454"><ele>480.0</ele><time>2026-03-30T13:10:08.875Z</time></trkpt><trkpt lat="44.2366204" lon="11.272312"><ele>481.2</ele><time>2026-03-30T13:10:09.877Z</time></trkpt><trkpt lat="44.2367241" lon="11.2722866"><ele>482.4</ele><time>2026-03-30T13:10:10.88Z</time></trkpt><trkpt lat="44.236824" lon="11.2722681"><ele>483.6</ele><time>2026-03-30T13:10:11.868Z</time></trkpt><trkpt lat="44.2369188" lon="11.272256"><ele>484.8</ele><time>2026-03-30T13:10:12.881Z</time></trkpt><trkpt lat="44.2370087" lon="11.2722467"><ele>486.0</ele><time>2026-03-30T13:10:13.873Z</time></trkpt><trkpt lat="44.2370996" lon="11.2722389"><ele>485.4</ele><time>2026-03-30T13:10:14.875Z</time></trkpt><trkpt lat="44.2371763" lon="11.2722316"><ele>484.8</ele><time>2026-03-30T13:10:15.867Z</time></trkpt><trkpt lat="44.2372849" lon="11.2722273"><ele>484.19999999999993</ele><time>2026-03-30T13:10:17.871Z</time></trkpt><trkpt lat="44.2373722" lon="11.2722644"><ele>483.59999999999997</ele><time>2026-03-30T13:10:19.874Z</time></trkpt><trkpt lat="44.2374667" lon="11.2723798"><ele>483.0</ele><time>2026-03-30T13:10:21.862Z</time></trkpt><trkpt lat="44.2375118" lon="11.2724491"><ele>483.0</ele><time>2026-03-30T13:10:22.878Z</time></trkpt><trkpt lat="44.2375946" lon="11.2725553"><ele>482.99999999999994</ele><time>2026-03-30T13:10:24.876Z</time></trkpt><trkpt lat="44.2376471" lon="11.272638"><ele>482.99999999999994</ele><time>2026-03-30T13:10:26.878Z</time></trkpt><trkpt lat="44.2376712" lon="11.2727316"><ele>483.0</ele><time>2026-03-30T13:10:48.862Z</time></trkpt><trkpt lat="44.2375955" lon="11.2727309"><ele>483.0</ele><time>2026-03-30T13:11:26.86Z</time></trkpt><trkpt lat="44.2377018" lon="11.2727783"><ele>483.0</ele><time>2026-03-30T13:12:35.864Z</time></trkpt><trkpt lat="44.2376438" lon="11.2727228"><ele>483.0</ele><time>2026-03-30T13:12:50.869Z</time></trkpt><trkpt lat="44.2375838" lon="11.2726677"><ele>483.0</ele><time>2026-03-30T13:12:52.868Z</time></trkpt><trkpt lat="44.2375269" lon="11.2726017"><ele>483.0</ele><time>2026-03-30T13:12:54.884Z</time></trkpt><trkpt lat="44.2375001" lon="11.2724748"><ele>483.0</ele><time>2026-03-30T13:12:57.871Z</time></trkpt><trkpt lat="44.2375515" lon="11.2723568"><ele>483.0</ele><time>2026-03-30T13:12:59.871Z</time></trkpt><trkpt lat="44.2376265" lon="11.2723007"><ele>483.0</ele><time>2026-03-30T13:13:01.869Z</time></trkpt><trkpt lat="44.2377121" lon="11.2722798"><ele>482.99999999999994</ele><time>2026-03-30T13:13:03.871Z</time></trkpt><trkpt lat="44.237819" lon="11.2722472"><ele>482.99999999999994</ele><time>2026-03-30T13:13:05.871Z</time></trkpt><trkpt lat="44.2379312" lon="11.2722283"><ele>483.0</ele><time>2026-03-30T13:13:07.867Z</time></trkpt><trkpt lat="44.2380289" lon="11.2722084"><ele>483.0</ele><time>2026-03-30T13:13:09.871Z</time></trkpt><trkpt lat="44.2381444" lon="11.2721935"><ele>480.2</ele><time>2026-03-30T13:13:11.874Z</time></trkpt><trkpt lat="44.2382665" lon="11.2721924"><ele>477.4</ele><time>2026-03-30T13:13:13.869Z</time></trkpt><trkpt lat="44.2383813" lon="11.2721897"><ele>474.59999999999997</ele><time>2026-03-30T13:13:15.876Z</time></trkpt><trkpt lat="44.2385008" lon="11.272194"><ele>471.79999999999995</ele><time>2026-03-30T13:13:17.865Z</time></trkpt><trkpt lat="44.2385662" lon="11.2722052"><ele>469.0</ele><time>2026-03-30T13:13:18.887Z</time></trkpt><trkpt lat="44.23865" lon="11.2722474"><ele>470.2</ele><time>2026-03-30T13:13:19.864Z</time></trkpt><trkpt lat="44.2387291" lon="11.2722928"><ele>471.4</ele><time>2026-03-30T13:13:20.875Z</time></trkpt><trkpt lat="44.2388221" lon="11.2723449"><ele>472.6</ele><time>2026-03-30T13:13:21.866Z</time></trkpt><trkpt lat="44.2389098" lon="11.2724025"><ele>473.8</ele><time>2026-03-30T13:13:22.858Z</time></trkpt><trkpt lat="44.2390047" lon="11.2724684"><ele>475.0</ele><time>2026-03-30T13:13:23.876Z</time></trkpt><trkpt lat="44.2390858" lon="11.2725252"><ele>475.0</ele><time>2026-03-30T13:13:24.863Z</time></trkpt><trkpt lat="44.2391796" lon="11.2725823"><ele>475.0</ele><time>2026-03-30T13:13:25.869Z</time></trkpt><trkpt lat="44.2392821" lon="11.2726413"><ele>475.0</ele><time>2026-03-30T13:13:26.876Z</time></trkpt><trkpt lat="44.2393771" lon="11.2726828"><ele>475.0</ele><time>2026-03-30T13:13:27.872Z</time></trkpt><trkpt lat="44.2394732" lon="11.2727177"><ele>475.0</ele><time>2026-03-30T13:13:28.876Z</time></trkpt><trkpt lat="44.2395681" lon="11.2727428"><ele>475.00000000000006</ele><time>2026-03-30T13:13:29.881Z</time></trkpt><trkpt lat="44.2396578" lon="11.2727565"><ele>475.0</ele><time>2026-03-30T13:13:30.874Z</time></trkpt><trkpt lat="44.2397506" lon="11.2727565"><ele>475.0</ele><time>2026-03-30T13:13:31.879Z</time></trkpt><trkpt lat="44.2398445" lon="11.2727547"><ele>475.0</ele><time>2026-03-30T13:13:32.869Z</time></trkpt><trkpt lat="44.2399264" lon="11.2727506"><ele>475.00000000000006</ele><time>2026-03-30T13:13:33.865Z</time></trkpt><trkpt lat="44.2400069" lon="11.2727386"><ele>475.0</ele><time>2026-03-30T13:13:34.867Z</time></trkpt><trkpt lat="44.2400997" lon="11.2727152"><ele>472.4</ele><time>2026-03-30T13:13:35.869Z</time></trkpt><trkpt lat="44.2401938" lon="11.2726866"><ele>469.8</ele><time>2026-03-30T13:13:36.873Z</time></trkpt><trkpt lat="44.2402915" lon="11.2726563"><ele>467.20000000000005</ele><time>2026-03-30T13:13:37.872Z</time></trkpt><trkpt lat="44.2403789" lon="11.2726294"><ele>464.6</ele><time>2026-03-30T13:13:38.858Z</time></trkpt><trkpt lat="44.2404635" lon="11.2726026"><ele>462.0</ele><time>2026-03-30T13:13:39.869Z</time></trkpt><trkpt lat="44.2405597" lon="11.2725712"><ele>462.6</ele><time>2026-03-30T13:13:40.877Z</time></trkpt><trkpt lat="44.2406529" lon="11.2725403"><ele>463.20000000000005</ele><time>2026-03-30T13:13:41.871Z</time></trkpt><trkpt lat="44.2407465" lon="11.2725134"><ele>463.8</ele><time>2026-03-30T13:13:42.879Z</time></trkpt><trkpt lat="44.2408398" lon="11.272484"><ele>464.4</ele><time>2026-03-30T13:13:43.871Z</time></trkpt><trkpt lat="44.2409321" lon="11.2724556"><ele>465.0</ele><time>2026-03-30T13:13:44.887Z</time></trkpt><trkpt lat="44.2410243" lon="11.2724285"><ele>465.0</ele><time>2026-03-30T13:13:45.869Z</time></trkpt><trkpt lat="44.2411201" lon="11.2724083"><ele>465.0</ele><time>2026-03-30T13:13:46.867Z</time></trkpt><trkpt lat="44.2412222" lon="11.2724085"><ele>465.0</ele><time>2026-03-30T13:13:47.868Z</time></trkpt><trkpt lat="44.2413259" lon="11.2724135"><ele>465.0</ele><time>2026-03-30T13:13:48.874Z</time></trkpt><trkpt lat="44.2414304" lon="11.2724647"><ele>465.0</ele><time>2026-03-30T13:13:49.861Z</time></trkpt><trkpt lat="44.2415279" lon="11.2725282"><ele>463.2</ele><time>2026-03-30T13:13:50.867Z</time></trkpt><trkpt lat="44.2416208" lon="11.2726015"><ele>461.4</ele><time>2026-03-30T13:13:51.869Z</time></trkpt><trkpt lat="44.241716" lon="11.2726746"><ele>459.6</ele><time>2026-03-30T13:13:52.87Z</time></trkpt><trkpt lat="44.2418092" lon="11.2727483"><ele>457.8</ele><time>2026-03-30T13:13:53.875Z</time></trkpt><trkpt lat="44.241896" lon="11.2728207"><ele>456.0</ele><time>2026-03-30T13:13:54.876Z</time></trkpt><trkpt lat="44.2419878" lon="11.2728831"><ele>456.0</ele><time>2026-03-30T13:13:55.868Z</time></trkpt><trkpt lat="44.2420831" lon="11.2729437"><ele>456.0</ele><time>2026-03-30T13:13:56.871Z</time></trkpt><trkpt lat="44.242182" lon="11.2729975"><ele>456.0</ele><time>2026-03-30T13:13:57.859Z</time></trkpt><trkpt lat="44.2422837" lon="11.2730337"><ele>456.0</ele><time>2026-03-30T13:13:58.863Z</time></trkpt><trkpt lat="44.2423908" lon="11.2730454"><ele>456.0</ele><time>2026-03-30T13:13:59.872Z</time></trkpt><trkpt lat="44.2425126" lon="11.2730284"><ele>455.0</ele><time>2026-03-30T13:14:00.881Z</time></trkpt><trkpt lat="44.24262" lon="11.2729973"><ele>454.0</ele><time>2026-03-30T13:14:01.869Z</time></trkpt><trkpt lat="44.2427202" lon="11.2729421"><ele>453.0</ele><time>2026-03-30T13:14:02.87Z</time></trkpt><trkpt lat="44.2427914" lon="11.2728848"><ele>452.0</ele><time>2026-03-30T13:14:03.866Z</time></trkpt><trkpt lat="44.2428689" lon="11.2728334"><ele>451.0</ele><time>2026-03-30T13:14:04.865Z</time></trkpt><trkpt lat="44.2429438" lon="11.2727798"><ele>451.00000000000006</ele><time>2026-03-30T13:14:05.862Z</time></trkpt><trkpt lat="44.2430133" lon="11.2727191"><ele>451.0</ele><time>2026-03-30T13:14:06.878Z</time></trkpt><trkpt lat="44.2430941" lon="11.2726596"><ele>451.0</ele><time>2026-03-30T13:14:07.878Z</time></trkpt><trkpt lat="44.2431816" lon="11.2726138"><ele>451.0</ele><time>2026-03-30T13:14:08.869Z</time></trkpt><trkpt lat="44.24327" lon="11.2725858"><ele>451.00000000000006</ele><time>2026-03-30T13:14:09.86Z</time></trkpt><trkpt lat="44.2433566" lon="11.2725791"><ele>451.0</ele><time>2026-03-30T13:14:10.863Z</time></trkpt><trkpt lat="44.2434431" lon="11.2725893"><ele>451.20000000000005</ele><time>2026-03-30T13:14:11.868Z</time></trkpt><trkpt lat="44.2435347" lon="11.2726009"><ele>451.40000000000003</ele><time>2026-03-30T13:14:12.853Z</time></trkpt><trkpt lat="44.2436251" lon="11.2726188"><ele>451.6</ele><time>2026-03-30T13:14:13.87Z</time></trkpt><trkpt lat="44.2437222" lon="11.2726366"><ele>451.8</ele><time>2026-03-30T13:14:14.872Z</time></trkpt><trkpt lat="44.2438215" lon="11.2726754"><ele>452.0</ele><time>2026-03-30T13:14:15.876Z</time></trkpt><trkpt lat="44.2439186" lon="11.2727116"><ele>450.40000000000003</ele><time>2026-03-30T13:14:16.869Z</time></trkpt><trkpt lat="44.2440135" lon="11.2727484"><ele>448.80000000000007</ele><time>2026-03-30T13:14:17.87Z</time></trkpt><trkpt lat="44.2441082" lon="11.2727926"><ele>447.2</ele><time>2026-03-30T13:14:18.88Z</time></trkpt><trkpt lat="44.2441897" lon="11.2728263"><ele>445.6</ele><time>2026-03-30T13:14:19.87Z</time></trkpt><trkpt lat="44.2442886" lon="11.2728678"><ele>444.0</ele><time>2026-03-30T13:14:20.883Z</time></trkpt><trkpt lat="44.2443774" lon="11.2729059"><ele>444.0</ele><time>2026-03-30T13:14:21.864Z</time></trkpt><trkpt lat="44.2444744" lon="11.2729471"><ele>444.0</ele><time>2026-03-30T13:14:22.858Z</time></trkpt><trkpt lat="44.2445668" lon="11.2729957"><ele>444.0</ele><time>2026-03-30T13:14:23.869Z</time></trkpt><trkpt lat="44.2446526" lon="11.2730369"><ele>444.0</ele><time>2026-03-30T13:14:24.866Z</time></trkpt><trkpt lat="44.2447419" lon="11.273085"><ele>444.0</ele><time>2026-03-30T13:14:25.87Z</time></trkpt><trkpt lat="44.2448259" lon="11.2731296"><ele>445.4</ele><time>2026-03-30T13:14:26.869Z</time></trkpt><trkpt lat="44.2449079" lon="11.2731739"><ele>446.79999999999995</ele><time>2026-03-30T13:14:27.861Z</time></trkpt><trkpt lat="44.2449954" lon="11.2732193"><ele>448.20000000000005</ele><time>2026-03-30T13:14:28.871Z</time></trkpt><trkpt lat="44.2450806" lon="11.2732609"><ele>449.6</ele><time>2026-03-30T13:14:29.871Z</time></trkpt><trkpt lat="44.245167" lon="11.2733001"><ele>451.0</ele><time>2026-03-30T13:14:30.859Z</time></trkpt><trkpt lat="44.2452542" lon="11.2733397"><ele>451.0</ele><time>2026-03-30T13:14:31.866Z</time></trkpt><trkpt lat="44.2453437" lon="11.2733898"><ele>451.0</ele><time>2026-03-30T13:14:32.873Z</time></trkpt><trkpt lat="44.2454382" lon="11.2734564"><ele>451.0</ele><time>2026-03-30T13:14:33.866Z</time></trkpt><trkpt lat="44.2455394" lon="11.2735307"><ele>451.0</ele><time>2026-03-30T13:14:34.879Z</time></trkpt><trkpt lat="44.2456283" lon="11.2735993"><ele>451.0</ele><time>2026-03-30T13:14:35.867Z</time></trkpt><trkpt lat="44.2457164" lon="11.2736831"><ele>451.8</ele><time>2026-03-30T13:14:36.88Z</time></trkpt><trkpt lat="44.2457953" lon="11.273762"><ele>452.6</ele><time>2026-03-30T13:14:37.865Z</time></trkpt><trkpt lat="44.2458794" lon="11.2738606"><ele>453.4</ele><time>2026-03-30T13:14:38.869Z</time></trkpt><trkpt lat="44.2459597" lon="11.2739469"><ele>454.2</ele><time>2026-03-30T13:14:39.879Z</time></trkpt><trkpt lat="44.246034" lon="11.2740486"><ele>455.0</ele><time>2026-03-30T13:14:40.881Z</time></trkpt><trkpt lat="44.2461058" lon="11.274144"><ele>455.0</ele><time>2026-03-30T13:14:41.864Z</time></trkpt><trkpt lat="44.2461682" lon="11.2742449"><ele>455.0</ele><time>2026-03-30T13:14:42.877Z</time></trkpt><trkpt lat="44.2462328" lon="11.2743412"><ele>455.0</ele><time>2026-03-30T13:14:43.868Z</time></trkpt><trkpt lat="44.2462938" lon="11.2744348"><ele>455.0</ele><time>2026-03-30T13:14:44.868Z</time></trkpt><trkpt lat="44.2463557" lon="11.2745298"><ele>455.0</ele><time>2026-03-30T13:14:45.872Z</time></trkpt><trkpt lat="44.246419" lon="11.2746211"><ele>454.66666666666663</ele><time>2026-03-30T13:14:46.868Z</time></trkpt><trkpt lat="44.2464722" lon="11.2747024"><ele>454.3333333333333</ele><time>2026-03-30T13:14:47.867Z</time></trkpt><trkpt lat="44.246527" lon="11.2747845"><ele>454.0</ele><time>2026-03-30T13:14:48.865Z</time></trkpt><trkpt lat="44.2465792" lon="11.2748567"><ele>453.66666666666663</ele><time>2026-03-30T13:14:49.873Z</time></trkpt><trkpt lat="44.2466381" lon="11.2749331"><ele>453.3333333333333</ele><time>2026-03-30T13:14:50.87Z</time></trkpt><trkpt lat="44.2467011" lon="11.2750082"><ele>453.0</ele><time>2026-03-30T13:14:51.871Z</time></trkpt><trkpt lat="44.246774" lon="11.2750911"><ele>453.0</ele><time>2026-03-30T13:14:52.866Z</time></trkpt><trkpt lat="44.2468462" lon="11.2751802"><ele>453.0</ele><time>2026-03-30T13:14:53.875Z</time></trkpt><trkpt lat="44.2469149" lon="11.2752652"><ele>453.0</ele><time>2026-03-30T13:14:54.869Z</time></trkpt><trkpt lat="44.2469848" lon="11.2753355"><ele>453.0</ele><time>2026-03-30T13:14:55.868Z</time></trkpt><trkpt lat="44.2470599" lon="11.2753884"><ele>453.0</ele><time>2026-03-30T13:14:56.862Z</time></trkpt><trkpt lat="44.2471202" lon="11.2754276"><ele>453.0</ele><time>2026-03-30T13:14:57.872Z</time></trkpt><trkpt lat="44.2472046" lon="11.2754752"><ele>453.0</ele><time>2026-03-30T13:14:58.873Z</time></trkpt><trkpt lat="44.2472765" lon="11.2754946"><ele>453.0</ele><time>2026-03-30T13:14:59.87Z</time></trkpt><trkpt lat="44.2473526" lon="11.2755302"><ele>453.0</ele><time>2026-03-30T13:15:00.881Z</time></trkpt><trkpt lat="44.2474308" lon="11.2755584"><ele>453.0</ele><time>2026-03-30T13:15:01.876Z</time></trkpt><trkpt lat="44.2475157" lon="11.2755926"><ele>453.0</ele><time>2026-03-30T13:15:02.874Z</time></trkpt><trkpt lat="44.2475915" lon="11.2756278"><ele>453.0</ele><time>2026-03-30T13:15:03.873Z</time></trkpt><trkpt lat="44.2476649" lon="11.2756857"><ele>451.79999999999995</ele><time>2026-03-30T13:15:04.865Z</time></trkpt><trkpt lat="44.2477427" lon="11.275767"><ele>450.59999999999997</ele><time>2026-03-30T13:15:05.866Z</time></trkpt><trkpt lat="44.2478136" lon="11.2758687"><ele>449.40000000000003</ele><time>2026-03-30T13:15:06.881Z</time></trkpt><trkpt lat="44.247893" lon="11.2760003"><ele>448.20000000000005</ele><time>2026-03-30T13:15:07.875Z</time></trkpt><trkpt lat="44.2479582" lon="11.2761273"><ele>447.0</ele><time>2026-03-30T13:15:08.886Z</time></trkpt><trkpt lat="44.2480112" lon="11.2762453"><ele>447.0</ele><time>2026-03-30T13:15:09.875Z</time></trkpt><trkpt lat="44.2480686" lon="11.276363"><ele>447.00000000000006</ele><time>2026-03-30T13:15:10.881Z</time></trkpt><trkpt lat="44.2481263" lon="11.276479"><ele>447.00000000000006</ele><time>2026-03-30T13:15:11.869Z</time></trkpt><trkpt lat="44.2481827" lon="11.2765901"><ele>447.0</ele><time>2026-03-30T13:15:12.877Z</time></trkpt><trkpt lat="44.2482409" lon="11.2766991"><ele>447.0</ele><time>2026-03-30T13:15:13.888Z</time></trkpt><trkpt lat="44.2482966" lon="11.2768064"><ele>446.8</ele><time>2026-03-30T13:15:14.881Z</time></trkpt><trkpt lat="44.248351" lon="11.2769156"><ele>446.6</ele><time>2026-03-30T13:15:15.883Z</time></trkpt><trkpt lat="44.2483995" lon="11.2770319"><ele>446.40000000000003</ele><time>2026-03-30T13:15:16.871Z</time></trkpt><trkpt lat="44.2484378" lon="11.2771586"><ele>446.20000000000005</ele><time>2026-03-30T13:15:17.882Z</time></trkpt><trkpt lat="44.2484637" lon="11.2772961"><ele>446.0</ele><time>2026-03-30T13:15:18.877Z</time></trkpt><trkpt lat="44.2484743" lon="11.2774366"><ele>446.0</ele><time>2026-03-30T13:15:19.881Z</time></trkpt><trkpt lat="44.2484802" lon="11.2775741"><ele>446.0</ele><time>2026-03-30T13:15:20.873Z</time></trkpt><trkpt lat="44.2484816" lon="11.2777093"><ele>446.0</ele><time>2026-03-30T13:15:21.873Z</time></trkpt><trkpt lat="44.2484793" lon="11.2778416"><ele>446.0</ele><time>2026-03-30T13:15:22.873Z</time></trkpt><trkpt lat="44.2484768" lon="11.2779711"><ele>446.0</ele><time>2026-03-30T13:15:23.861Z</time></trkpt><trkpt lat="44.2484812" lon="11.2780995"><ele>446.0</ele><time>2026-03-30T13:15:24.875Z</time></trkpt><trkpt lat="44.2484943" lon="11.278228"><ele>446.0</ele><time>2026-03-30T13:15:25.875Z</time></trkpt><trkpt lat="44.2485081" lon="11.2783518"><ele>446.0</ele><time>2026-03-30T13:15:26.876Z</time></trkpt><trkpt lat="44.2485524" lon="11.2784619"><ele>446.0</ele><time>2026-03-30T13:15:27.881Z</time></trkpt><trkpt lat="44.2486118" lon="11.2785601"><ele>446.0</ele><time>2026-03-30T13:15:28.878Z</time></trkpt><trkpt lat="44.2486827" lon="11.2786441"><ele>445.99999999999994</ele><time>2026-03-30T13:15:29.867Z</time></trkpt><trkpt lat="44.2487509" lon="11.2787224"><ele>446.0</ele><time>2026-03-30T13:15:30.872Z</time></trkpt><trkpt lat="44.2488184" lon="11.2787597"><ele>446.0</ele><time>2026-03-30T13:15:31.869Z</time></trkpt><trkpt lat="44.2489144" lon="11.2787835"><ele>446.0</ele><time>2026-03-30T13:15:32.873Z</time></trkpt><trkpt lat="44.2490054" lon="11.2788034"><ele>445.99999999999994</ele><time>2026-03-30T13:15:33.868Z</time></trkpt><trkpt lat="44.2490952" lon="11.2788192"><ele>446.0</ele><time>2026-03-30T13:15:34.881Z</time></trkpt><trkpt lat="44.2491945" lon="11.2788448"><ele>444.8</ele><time>2026-03-30T13:15:35.879Z</time></trkpt><trkpt lat="44.2492987" lon="11.2788682"><ele>443.6</ele><time>2026-03-30T13:15:36.874Z</time></trkpt><trkpt lat="44.2494025" lon="11.2788883"><ele>442.4</ele><time>2026-03-30T13:15:37.876Z</time></trkpt><trkpt lat="44.2495162" lon="11.2789138"><ele>441.2</ele><time>2026-03-30T13:15:38.88Z</time></trkpt><trkpt lat="44.2496308" lon="11.2789396"><ele>440.0</ele><time>2026-03-30T13:15:39.872Z</time></trkpt><trkpt lat="44.2497414" lon="11.2789654"><ele>437.25</ele><time>2026-03-30T13:15:40.876Z</time></trkpt><trkpt lat="44.2498541" lon="11.2789928"><ele>434.5</ele><time>2026-03-30T13:15:41.865Z</time></trkpt><trkpt lat="44.2499672" lon="11.2790216"><ele>431.75</ele><time>2026-03-30T13:15:42.895Z</time></trkpt><trkpt lat="44.2500822" lon="11.2790512"><ele>429.0</ele><time>2026-03-30T13:15:43.87Z</time></trkpt><trkpt lat="44.2501965" lon="11.2790817"><ele>429.0</ele><time>2026-03-30T13:15:44.875Z</time></trkpt><trkpt lat="44.2503081" lon="11.2791143"><ele>429.0</ele><time>2026-03-30T13:15:45.862Z</time></trkpt><trkpt lat="44.2504208" lon="11.2791461"><ele>429.0</ele><time>2026-03-30T13:15:46.87Z</time></trkpt><trkpt lat="44.2505339" lon="11.279178"><ele>429.0</ele><time>2026-03-30T13:15:47.872Z</time></trkpt><trkpt lat="44.2506483" lon="11.2792104"><ele>426.5</ele><time>2026-03-30T13:15:48.878Z</time></trkpt><trkpt lat="44.2507639" lon="11.2792471"><ele>424.0</ele><time>2026-03-30T13:15:49.874Z</time></trkpt><trkpt lat="44.2508793" lon="11.2792984"><ele>421.5</ele><time>2026-03-30T13:15:50.879Z</time></trkpt><trkpt lat="44.2509924" lon="11.2793669"><ele>419.0</ele><time>2026-03-30T13:15:51.867Z</time></trkpt><trkpt lat="44.2510989" lon="11.2794559"><ele>419.0</ele><time>2026-03-30T13:15:52.869Z</time></trkpt><trkpt lat="44.2511965" lon="11.2795656"><ele>419.0</ele><time>2026-03-30T13:15:53.871Z</time></trkpt><trkpt lat="44.2512868" lon="11.2796907"><ele>419.0</ele><time>2026-03-30T13:15:54.869Z</time></trkpt><trkpt lat="44.2513728" lon="11.2798258"><ele>419.0</ele><time>2026-03-30T13:15:55.876Z</time></trkpt><trkpt lat="44.2514577" lon="11.2799603"><ele>417.5</ele><time>2026-03-30T13:15:56.88Z</time></trkpt><trkpt lat="44.2515421" lon="11.2800965"><ele>416.0</ele><time>2026-03-30T13:15:57.878Z</time></trkpt><trkpt lat="44.2516316" lon="11.2802397"><ele>414.5</ele><time>2026-03-30T13:15:58.883Z</time></trkpt><trkpt lat="44.2517178" lon="11.2803844"><ele>413.0</ele><time>2026-03-30T13:15:59.881Z</time></trkpt><trkpt lat="44.2518035" lon="11.2805163"><ele>415.5</ele><time>2026-03-30T13:16:00.873Z</time></trkpt><trkpt lat="44.2518865" lon="11.2806507"><ele>418.0</ele><time>2026-03-30T13:16:01.879Z</time></trkpt><trkpt lat="44.2519681" lon="11.2807869"><ele>420.5</ele><time>2026-03-30T13:16:02.869Z</time></trkpt><trkpt lat="44.2520488" lon="11.2809141"><ele>423.0</ele><time>2026-03-30T13:16:03.87Z</time></trkpt><trkpt lat="44.2521309" lon="11.2810396"><ele>423.0</ele><time>2026-03-30T13:16:04.865Z</time></trkpt><trkpt lat="44.2522194" lon="11.2811568"><ele>423.0</ele><time>2026-03-30T13:16:05.885Z</time></trkpt><trkpt lat="44.2523168" lon="11.2812597"><ele>423.0</ele><time>2026-03-30T13:16:06.866Z</time></trkpt><trkpt lat="44.2524252" lon="11.2813436"><ele>423.0</ele><time>2026-03-30T13:16:07.862Z</time></trkpt><trkpt lat="44.2525422" lon="11.2813986"><ele>420.79999999999995</ele><time>2026-03-30T13:16:08.863Z</time></trkpt><trkpt lat="44.2526618" lon="11.28142"><ele>418.6</ele><time>2026-03-30T13:16:09.867Z</time></trkpt><trkpt lat="44.2527679" lon="11.2814374"><ele>416.4</ele><time>2026-03-30T13:16:10.872Z</time></trkpt><trkpt lat="44.2528656" lon="11.281422"><ele>414.20000000000005</ele><time>2026-03-30T13:16:11.87Z</time></trkpt><trkpt lat="44.2529662" lon="11.2814143"><ele>412.0</ele><time>2026-03-30T13:16:12.87Z</time></trkpt><trkpt lat="44.253075" lon="11.2814306"><ele>409.0</ele><time>2026-03-30T13:16:13.87Z</time></trkpt><trkpt lat="44.2531911" lon="11.281485"><ele>406.0</ele><time>2026-03-30T13:16:14.872Z</time></trkpt><trkpt lat="44.2532973" lon="11.2815748"><ele>403.0</ele><time>2026-03-30T13:16:15.872Z</time></trkpt><trkpt lat="44.2533908" lon="11.2817047"><ele>400.0</ele><time>2026-03-30T13:16:16.87Z</time></trkpt><trkpt lat="44.2534586" lon="11.2818613"><ele>400.0</ele><time>2026-03-30T13:16:17.869Z</time></trkpt><trkpt lat="44.2535293" lon="11.2820304"><ele>400.0</ele><time>2026-03-30T13:16:18.867Z</time></trkpt><trkpt lat="44.2535534" lon="11.2822193"><ele>400.0</ele><time>2026-03-30T13:16:19.871Z</time></trkpt><trkpt lat="44.2535668" lon="11.2823976"><ele>400.0</ele><time>2026-03-30T13:16:20.873Z</time></trkpt><trkpt lat="44.2535802" lon="11.2825709"><ele>401.25</ele><time>2026-03-30T13:16:21.869Z</time></trkpt><trkpt lat="44.2535911" lon="11.2827452"><ele>402.5</ele><time>2026-03-30T13:16:22.879Z</time></trkpt><trkpt lat="44.2535988" lon="11.282918"><ele>403.75</ele><time>2026-03-30T13:16:23.873Z</time></trkpt><trkpt lat="44.2536074" lon="11.283096"><ele>405.0</ele><time>2026-03-30T13:16:24.879Z</time></trkpt><trkpt lat="44.2536162" lon="11.283274"><ele>406.25</ele><time>2026-03-30T13:16:25.871Z</time></trkpt><trkpt lat="44.2536377" lon="11.2834465"><ele>407.5</ele><time>2026-03-30T13:16:26.874Z</time></trkpt><trkpt lat="44.253675" lon="11.2836109"><ele>408.75</ele><time>2026-03-30T13:16:27.872Z</time></trkpt><trkpt lat="44.2537283" lon="11.2837635"><ele>410.0</ele><time>2026-03-30T13:16:28.883Z</time></trkpt><trkpt lat="44.2537915" lon="11.2839057"><ele>408.25</ele><time>2026-03-30T13:16:29.88Z</time></trkpt><trkpt lat="44.2538534" lon="11.284053"><ele>406.5</ele><time>2026-03-30T13:16:30.881Z</time></trkpt><trkpt lat="44.2539177" lon="11.284188"><ele>404.75</ele><time>2026-03-30T13:16:31.871Z</time></trkpt><trkpt lat="44.2539795" lon="11.2843246"><ele>403.0</ele><time>2026-03-30T13:16:32.862Z</time></trkpt><trkpt lat="44.2540401" lon="11.2844532"><ele>401.79999999999995</ele><time>2026-03-30T13:16:33.878Z</time></trkpt><trkpt lat="44.2540997" lon="11.2845833"><ele>400.6</ele><time>2026-03-30T13:16:34.869Z</time></trkpt><trkpt lat="44.2541619" lon="11.2847089"><ele>399.4</ele><time>2026-03-30T13:16:35.867Z</time></trkpt><trkpt lat="44.2542224" lon="11.2848353"><ele>398.20000000000005</ele><time>2026-03-30T13:16:36.879Z</time></trkpt><trkpt lat="44.2542842" lon="11.2849617"><ele>397.0</ele><time>2026-03-30T13:16:37.871Z</time></trkpt><trkpt lat="44.2543312" lon="11.2850634"><ele>397.0</ele><time>2026-03-30T13:16:38.862Z</time></trkpt><trkpt lat="44.2543805" lon="11.2851648"><ele>397.0</ele><time>2026-03-30T13:16:39.876Z</time></trkpt><trkpt lat="44.2544365" lon="11.2852849"><ele>397.0</ele><time>2026-03-30T13:16:40.87Z</time></trkpt><trkpt lat="44.2544988" lon="11.2854344"><ele>397.0</ele><time>2026-03-30T13:16:41.871Z</time></trkpt><trkpt lat="44.2545488" lon="11.2855789"><ele>397.0</ele><time>2026-03-30T13:16:42.869Z</time></trkpt><trkpt lat="44.2545905" lon="11.2857093"><ele>397.0</ele><time>2026-03-30T13:16:43.872Z</time></trkpt><trkpt lat="44.2546205" lon="11.2858279"><ele>397.0</ele><time>2026-03-30T13:16:44.878Z</time></trkpt><trkpt lat="44.2546356" lon="11.2859614"><ele>397.0</ele><time>2026-03-30T13:16:45.865Z</time></trkpt><trkpt lat="44.2546459" lon="11.2861053"><ele>397.0</ele><time>2026-03-30T13:16:46.871Z</time></trkpt><trkpt lat="44.254653" lon="11.2862434"><ele>397.0</ele><time>2026-03-30T13:16:47.877Z</time></trkpt><trkpt lat="44.254659" lon="11.2863838"><ele>397.20000000000005</ele><time>2026-03-30T13:16:48.877Z</time></trkpt><trkpt lat="44.254668" lon="11.2865247"><ele>397.4</ele><time>2026-03-30T13:16:49.874Z</time></trkpt><trkpt lat="44.2546748" lon="11.2866591"><ele>397.6</ele><time>2026-03-30T13:16:50.87Z</time></trkpt><trkpt lat="44.254678" lon="11.2867948"><ele>397.79999999999995</ele><time>2026-03-30T13:16:51.876Z</time></trkpt><trkpt lat="44.254686" lon="11.2869303"><ele>398.0</ele><time>2026-03-30T13:16:52.87Z</time></trkpt><trkpt lat="44.2546926" lon="11.2870636"><ele>398.0</ele><time>2026-03-30T13:16:53.875Z</time></trkpt><trkpt lat="44.2547014" lon="11.2872008"><ele>398.0</ele><time>2026-03-30T13:16:54.882Z</time></trkpt><trkpt lat="44.2547122" lon="11.2873393"><ele>398.0</ele><time>2026-03-30T13:16:55.877Z</time></trkpt><trkpt lat="44.2547227" lon="11.2874748"><ele>398.0</ele><time>2026-03-30T13:16:56.87Z</time></trkpt><trkpt lat="44.2547323" lon="11.2876089"><ele>398.0</ele><time>2026-03-30T13:16:57.877Z</time></trkpt><trkpt lat="44.25474" lon="11.2877478"><ele>398.4</ele><time>2026-03-30T13:16:58.884Z</time></trkpt><trkpt lat="44.2547497" lon="11.2878918"><ele>398.79999999999995</ele><time>2026-03-30T13:16:59.876Z</time></trkpt><trkpt lat="44.254759" lon="11.2880351"><ele>399.2</ele><time>2026-03-30T13:17:00.874Z</time></trkpt><trkpt lat="44.2547715" lon="11.2881767"><ele>399.6</ele><time>2026-03-30T13:17:01.875Z</time></trkpt><trkpt lat="44.2547851" lon="11.2883277"><ele>400.0</ele><time>2026-03-30T13:17:02.872Z</time></trkpt><trkpt lat="44.2547969" lon="11.2884616"><ele>397.8</ele><time>2026-03-30T13:17:03.871Z</time></trkpt><trkpt lat="44.2548092" lon="11.2886006"><ele>395.6</ele><time>2026-03-30T13:17:04.875Z</time></trkpt><trkpt lat="44.2548253" lon="11.2887485"><ele>393.4</ele><time>2026-03-30T13:17:05.859Z</time></trkpt><trkpt lat="44.2548466" lon="11.2888873"><ele>391.2</ele><time>2026-03-30T13:17:06.868Z</time></trkpt><trkpt lat="44.2548743" lon="11.2890146"><ele>389.0</ele><time>2026-03-30T13:17:07.874Z</time></trkpt><trkpt lat="44.254911" lon="11.2891332"><ele>388.49999999999994</ele><time>2026-03-30T13:17:08.878Z</time></trkpt><trkpt lat="44.2549567" lon="11.2892464"><ele>388.0</ele><time>2026-03-30T13:17:09.871Z</time></trkpt><trkpt lat="44.2550117" lon="11.2893446"><ele>387.5</ele><time>2026-03-30T13:17:10.865Z</time></trkpt><trkpt lat="44.2550643" lon="11.2894356"><ele>387.0</ele><time>2026-03-30T13:17:11.869Z</time></trkpt><trkpt lat="44.2551273" lon="11.289504"><ele>386.49999999999994</ele><time>2026-03-30T13:17:12.875Z</time></trkpt><trkpt lat="44.2551946" lon="11.2895607"><ele>386.0</ele><time>2026-03-30T13:17:13.878Z</time></trkpt><trkpt lat="44.2552708" lon="11.2896088"><ele>385.99999999999994</ele><time>2026-03-30T13:17:14.86Z</time></trkpt><trkpt lat="44.2553439" lon="11.2896461"><ele>386.0</ele><time>2026-03-30T13:17:15.868Z</time></trkpt><trkpt lat="44.2554531" lon="11.2896923"><ele>386.0</ele><time>2026-03-30T13:17:17.872Z</time></trkpt><trkpt lat="44.2555357" lon="11.2896853"><ele>386.0</ele><time>2026-03-30T13:17:18.863Z</time></trkpt><trkpt lat="44.2556134" lon="11.2896696"><ele>385.99999999999994</ele><time>2026-03-30T13:17:19.869Z</time></trkpt><trkpt lat="44.2556925" lon="11.2896415"><ele>386.0</ele><time>2026-03-30T13:17:20.873Z</time></trkpt><trkpt lat="44.2557652" lon="11.2896128"><ele>385.49999999999994</ele><time>2026-03-30T13:17:21.867Z</time></trkpt><trkpt lat="44.2558426" lon="11.2895749"><ele>385.0</ele><time>2026-03-30T13:17:22.872Z</time></trkpt><trkpt lat="44.2559291" lon="11.2895435"><ele>384.5</ele><time>2026-03-30T13:17:23.875Z</time></trkpt><trkpt lat="44.2560149" lon="11.2895078"><ele>384.0</ele><time>2026-03-30T13:17:24.874Z</time></trkpt><trkpt lat="44.2560979" lon="11.2894757"><ele>383.5</ele><time>2026-03-30T13:17:25.875Z</time></trkpt><trkpt lat="44.2561753" lon="11.2894457"><ele>383.0</ele><time>2026-03-30T13:17:26.877Z</time></trkpt><trkpt lat="44.2562539" lon="11.2894142"><ele>383.0</ele><time>2026-03-30T13:17:27.865Z</time></trkpt><trkpt lat="44.2563353" lon="11.289388"><ele>383.0</ele><time>2026-03-30T13:17:28.878Z</time></trkpt><trkpt lat="44.2564155" lon="11.2893633"><ele>383.0</ele><time>2026-03-30T13:17:29.872Z</time></trkpt><trkpt lat="44.2564953" lon="11.2893565"><ele>383.0</ele><time>2026-03-30T13:17:30.865Z</time></trkpt><trkpt lat="44.2565599" lon="11.2893506"><ele>383.0</ele><time>2026-03-30T13:17:31.863Z</time></trkpt><trkpt lat="44.2566328" lon="11.2893417"><ele>383.0</ele><time>2026-03-30T13:17:32.872Z</time></trkpt><trkpt lat="44.2567045" lon="11.2893463"><ele>382.2857142857143</ele><time>2026-03-30T13:17:33.875Z</time></trkpt><trkpt lat="44.2567798" lon="11.2893507"><ele>381.57142857142856</ele><time>2026-03-30T13:17:34.874Z</time></trkpt><trkpt lat="44.2568575" lon="11.2893613"><ele>380.8571428571429</ele><time>2026-03-30T13:17:35.873Z</time></trkpt><trkpt lat="44.2569295" lon="11.2893634"><ele>380.1428571428571</ele><time>2026-03-30T13:17:36.887Z</time></trkpt><trkpt lat="44.2569977" lon="11.2893658"><ele>379.42857142857144</ele><time>2026-03-30T13:17:37.868Z</time></trkpt><trkpt lat="44.2570627" lon="11.289374"><ele>378.7142857142857</ele><time>2026-03-30T13:17:38.874Z</time></trkpt><trkpt lat="44.2571279" lon="11.2893748"><ele>378.0</ele><time>2026-03-30T13:17:39.874Z</time></trkpt><trkpt lat="44.2571953" lon="11.2893693"><ele>378.0</ele><time>2026-03-30T13:17:40.874Z</time></trkpt><trkpt lat="44.2572601" lon="11.2893582"><ele>378.0</ele><time>2026-03-30T13:17:41.876Z</time></trkpt><trkpt lat="44.2573338" lon="11.2893423"><ele>378.0</ele><time>2026-03-30T13:17:42.876Z</time></trkpt><trkpt lat="44.2574001" lon="11.2893158"><ele>378.0</ele><time>2026-03-30T13:17:43.874Z</time></trkpt><trkpt lat="44.2574637" lon="11.2892885"><ele>378.0</ele><time>2026-03-30T13:17:44.875Z</time></trkpt><trkpt lat="44.2575275" lon="11.2892414"><ele>378.0</ele><time>2026-03-30T13:17:46.881Z</time></trkpt><trkpt lat="44.2576424" lon="11.2891666"><ele>378.4</ele><time>2026-03-30T13:17:48.876Z</time></trkpt><trkpt lat="44.257748" lon="11.2890824"><ele>378.79999999999995</ele><time>2026-03-30T13:17:50.866Z</time></trkpt><trkpt lat="44.2578474" lon="11.289021"><ele>379.2</ele><time>2026-03-30T13:17:52.872Z</time></trkpt><trkpt lat="44.2579513" lon="11.2889556"><ele>379.6</ele><time>2026-03-30T13:17:54.868Z</time></trkpt><trkpt lat="44.2580137" lon="11.2889268"><ele>380.0</ele><time>2026-03-30T13:17:55.877Z</time></trkpt><trkpt lat="44.2581109" lon="11.2888698"><ele>380.6</ele><time>2026-03-30T13:17:57.864Z</time></trkpt><trkpt lat="44.2582228" lon="11.288807"><ele>381.2</ele><time>2026-03-30T13:17:59.874Z</time></trkpt><trkpt lat="44.2583425" lon="11.2887479"><ele>381.79999999999995</ele><time>2026-03-30T13:18:01.873Z</time></trkpt><trkpt lat="44.2584078" lon="11.2887232"><ele>382.4</ele><time>2026-03-30T13:18:02.855Z</time></trkpt><trkpt lat="44.2585271" lon="11.2886733"><ele>383.0</ele><time>2026-03-30T13:18:04.87Z</time></trkpt><trkpt lat="44.2586522" lon="11.2886633"><ele>383.0</ele><time>2026-03-30T13:18:06.876Z</time></trkpt><trkpt lat="44.2587353" lon="11.2886599"><ele>383.0</ele><time>2026-03-30T13:18:07.866Z</time></trkpt><trkpt lat="44.2588116" lon="11.2886494"><ele>383.0</ele><time>2026-03-30T13:18:08.874Z</time></trkpt><trkpt lat="44.2588763" lon="11.2886494"><ele>383.0</ele><time>2026-03-30T13:18:09.868Z</time></trkpt><trkpt lat="44.2589614" lon="11.2886469"><ele>383.0</ele><time>2026-03-30T13:18:10.867Z</time></trkpt><trkpt lat="44.259037" lon="11.288642"><ele>383.0</ele><time>2026-03-30T13:18:11.866Z</time></trkpt><trkpt lat="44.2591044" lon="11.2886395"><ele>382.0</ele><time>2026-03-30T13:18:12.868Z</time></trkpt><trkpt lat="44.259237" lon="11.2886739"><ele>381.0</ele><time>2026-03-30T13:18:14.867Z</time></trkpt><trkpt lat="44.2593546" lon="11.288693"><ele>380.0</ele><time>2026-03-30T13:18:16.87Z</time></trkpt><trkpt lat="44.2594238" lon="11.2887015"><ele>379.0</ele><time>2026-03-30T13:18:17.876Z</time></trkpt><trkpt lat="44.259493" lon="11.2887153"><ele>378.0</ele><time>2026-03-30T13:18:18.869Z</time></trkpt><trkpt lat="44.2595627" lon="11.2887254"><ele>378.0</ele><time>2026-03-30T13:18:19.87Z</time></trkpt><trkpt lat="44.25963" lon="11.2887349"><ele>378.0</ele><time>2026-03-30T13:18:20.875Z</time></trkpt><trkpt lat="44.2597121" lon="11.2887409"><ele>378.0</ele><time>2026-03-30T13:18:21.87Z</time></trkpt><trkpt lat="44.259796" lon="11.2887512"><ele>378.0</ele><time>2026-03-30T13:18:22.864Z</time></trkpt><trkpt lat="44.259884" lon="11.2887643"><ele>378.0</ele><time>2026-03-30T13:18:23.867Z</time></trkpt><trkpt lat="44.2599585" lon="11.2887776"><ele>378.0</ele><time>2026-03-30T13:18:24.875Z</time></trkpt><trkpt lat="44.2600362" lon="11.2887906"><ele>377.8333333333333</ele><time>2026-03-30T13:18:25.876Z</time></trkpt><trkpt lat="44.2601107" lon="11.2888003"><ele>377.6666666666667</ele><time>2026-03-30T13:18:26.876Z</time></trkpt><trkpt lat="44.2601931" lon="11.2888145"><ele>377.5</ele><time>2026-03-30T13:18:27.872Z</time></trkpt><trkpt lat="44.2602721" lon="11.2888279"><ele>377.33333333333337</ele><time>2026-03-30T13:18:28.88Z</time></trkpt><trkpt lat="44.2603509" lon="11.2888476"><ele>377.1666666666667</ele><time>2026-03-30T13:18:29.87Z</time></trkpt><trkpt lat="44.2604443" lon="11.2888762"><ele>377.0</ele><time>2026-03-30T13:18:30.875Z</time></trkpt><trkpt lat="44.2605141" lon="11.2889042"><ele>377.20000000000005</ele><time>2026-03-30T13:18:31.87Z</time></trkpt><trkpt lat="44.2606002" lon="11.2889428"><ele>377.4</ele><time>2026-03-30T13:18:32.878Z</time></trkpt><trkpt lat="44.2606982" lon="11.2890019"><ele>377.6</ele><time>2026-03-30T13:18:33.877Z</time></trkpt><trkpt lat="44.2607913" lon="11.2890745"><ele>377.79999999999995</ele><time>2026-03-30T13:18:34.876Z</time></trkpt><trkpt lat="44.2608606" lon="11.2891849"><ele>378.0</ele><time>2026-03-30T13:18:35.873Z</time></trkpt><trkpt lat="44.2609213" lon="11.289302"><ele>378.0</ele><time>2026-03-30T13:18:36.865Z</time></trkpt><trkpt lat="44.2609838" lon="11.2894085"><ele>378.0</ele><time>2026-03-30T13:18:37.864Z</time></trkpt><trkpt lat="44.2610566" lon="11.2895185"><ele>378.0</ele><time>2026-03-30T13:18:38.882Z</time></trkpt><trkpt lat="44.2611165" lon="11.2896253"><ele>378.0</ele><time>2026-03-30T13:18:39.871Z</time></trkpt><trkpt lat="44.2611786" lon="11.2897237"><ele>378.0</ele><time>2026-03-30T13:18:40.867Z</time></trkpt><trkpt lat="44.2612395" lon="11.2898166"><ele>377.2</ele><time>2026-03-30T13:18:41.866Z</time></trkpt><trkpt lat="44.2613021" lon="11.2899112"><ele>376.4</ele><time>2026-03-30T13:18:42.867Z</time></trkpt><trkpt lat="44.2613652" lon="11.2900057"><ele>375.59999999999997</ele><time>2026-03-30T13:18:43.87Z</time></trkpt><trkpt lat="44.2614294" lon="11.290104"><ele>374.79999999999995</ele><time>2026-03-30T13:18:44.866Z</time></trkpt><trkpt lat="44.2614923" lon="11.2901984"><ele>374.0</ele><time>2026-03-30T13:18:45.879Z</time></trkpt><trkpt lat="44.2615547" lon="11.2902868"><ele>374.0</ele><time>2026-03-30T13:18:46.869Z</time></trkpt><trkpt lat="44.2616136" lon="11.2903659"><ele>374.0</ele><time>2026-03-30T13:18:47.873Z</time></trkpt><trkpt lat="44.2616796" lon="11.2904385"><ele>374.0</ele><time>2026-03-30T13:18:48.868Z</time></trkpt><trkpt lat="44.2617459" lon="11.2905007"><ele>374.0</ele><time>2026-03-30T13:18:49.863Z</time></trkpt><trkpt lat="44.2618139" lon="11.2905552"><ele>374.0</ele><time>2026-03-30T13:18:50.88Z</time></trkpt><trkpt lat="44.2618877" lon="11.2906003"><ele>374.0</ele><time>2026-03-30T13:18:51.867Z</time></trkpt><trkpt lat="44.2619646" lon="11.2906338"><ele>375.5</ele><time>2026-03-30T13:18:52.877Z</time></trkpt><trkpt lat="44.2620415" lon="11.2906589"><ele>377.0</ele><time>2026-03-30T13:18:53.879Z</time></trkpt><trkpt lat="44.2621184" lon="11.2906748"><ele>378.5</ele><time>2026-03-30T13:18:54.88Z</time></trkpt><trkpt lat="44.2621955" lon="11.2906801"><ele>380.0</ele><time>2026-03-30T13:18:55.871Z</time></trkpt><trkpt lat="44.2622728" lon="11.2906756"><ele>381.5</ele><time>2026-03-30T13:18:56.874Z</time></trkpt><trkpt lat="44.2623516" lon="11.2906647"><ele>383.0</ele><time>2026-03-30T13:18:57.865Z</time></trkpt><trkpt lat="44.2624275" lon="11.2906427"><ele>383.5</ele><time>2026-03-30T13:18:58.867Z</time></trkpt><trkpt lat="44.2624963" lon="11.2906221"><ele>384.0</ele><time>2026-03-30T13:18:59.876Z</time></trkpt><trkpt lat="44.2625663" lon="11.2905841"><ele>384.5</ele><time>2026-03-30T13:19:00.877Z</time></trkpt><trkpt lat="44.2626465" lon="11.2905418"><ele>385.0</ele><time>2026-03-30T13:19:01.884Z</time></trkpt><trkpt lat="44.2627296" lon="11.2905002"><ele>385.49999999999994</ele><time>2026-03-30T13:19:02.871Z</time></trkpt><trkpt lat="44.2628145" lon="11.2904642"><ele>386.0</ele><time>2026-03-30T13:19:03.865Z</time></trkpt><trkpt lat="44.2628977" lon="11.2904239"><ele>383.8333333333333</ele><time>2026-03-30T13:19:04.876Z</time></trkpt><trkpt lat="44.2629804" lon="11.2903866"><ele>381.66666666666663</ele><time>2026-03-30T13:19:05.879Z</time></trkpt><trkpt lat="44.2630623" lon="11.2903485"><ele>379.5</ele><time>2026-03-30T13:19:06.88Z</time></trkpt><trkpt lat="44.2631227" lon="11.2903198"><ele>377.3333333333333</ele><time>2026-03-30T13:19:07.876Z</time></trkpt><trkpt lat="44.2631893" lon="11.2902849"><ele>375.16666666666663</ele><time>2026-03-30T13:19:08.87Z</time></trkpt><trkpt lat="44.263259" lon="11.2902522"><ele>373.0</ele><time>2026-03-30T13:19:09.87Z</time></trkpt><trkpt lat="44.2633318" lon="11.2902178"><ele>373.0</ele><time>2026-03-30T13:19:10.876Z</time></trkpt><trkpt lat="44.2634069" lon="11.2901803"><ele>373.0</ele><time>2026-03-30T13:19:11.861Z</time></trkpt><trkpt lat="44.2634832" lon="11.2901418"><ele>373.0</ele><time>2026-03-30T13:19:12.874Z</time></trkpt><trkpt lat="44.2635617" lon="11.2901019"><ele>373.0</ele><time>2026-03-30T13:19:13.871Z</time></trkpt><trkpt lat="44.2636389" lon="11.2900617"><ele>373.0</ele><time>2026-03-30T13:19:14.879Z</time></trkpt><trkpt lat="44.2637147" lon="11.2900225"><ele>373.0</ele><time>2026-03-30T13:19:15.876Z</time></trkpt><trkpt lat="44.2637937" lon="11.2899852"><ele>373.0</ele><time>2026-03-30T13:19:16.874Z</time></trkpt><trkpt lat="44.2638706" lon="11.2899379"><ele>373.0</ele><time>2026-03-30T13:19:17.875Z</time></trkpt><trkpt lat="44.2639462" lon="11.2899006"><ele>373.0</ele><time>2026-03-30T13:19:18.866Z</time></trkpt><trkpt lat="44.2640232" lon="11.28987"><ele>373.0</ele><time>2026-03-30T13:19:19.881Z</time></trkpt><trkpt lat="44.2640974" lon="11.2898368"><ele>373.0</ele><time>2026-03-30T13:19:20.857Z</time></trkpt><trkpt lat="44.2641673" lon="11.2898027"><ele>373.0</ele><time>2026-03-30T13:19:21.872Z</time></trkpt><trkpt lat="44.2642469" lon="11.2897783"><ele>373.16666666666663</ele><time>2026-03-30T13:19:22.87Z</time></trkpt><trkpt lat="44.2643262" lon="11.2897676"><ele>373.3333333333333</ele><time>2026-03-30T13:19:23.862Z</time></trkpt><trkpt lat="44.2644051" lon="11.289773"><ele>373.5</ele><time>2026-03-30T13:19:24.865Z</time></trkpt><trkpt lat="44.2644841" lon="11.2898016"><ele>373.6666666666667</ele><time>2026-03-30T13:19:25.875Z</time></trkpt><trkpt lat="44.2645698" lon="11.289824"><ele>373.83333333333337</ele><time>2026-03-30T13:19:26.875Z</time></trkpt><trkpt lat="44.2646565" lon="11.2898857"><ele>374.0</ele><time>2026-03-30T13:19:27.878Z</time></trkpt><trkpt lat="44.264733" lon="11.2899557"><ele>372.6</ele><time>2026-03-30T13:19:28.856Z</time></trkpt><trkpt lat="44.264808" lon="11.2900303"><ele>371.2</ele><time>2026-03-30T13:19:29.871Z</time></trkpt><trkpt lat="44.2648803" lon="11.2901047"><ele>369.8</ele><time>2026-03-30T13:19:30.881Z</time></trkpt><trkpt lat="44.2649529" lon="11.2901808"><ele>368.40000000000003</ele><time>2026-03-30T13:19:31.874Z</time></trkpt><trkpt lat="44.26503" lon="11.2902595"><ele>367.0</ele><time>2026-03-30T13:19:32.872Z</time></trkpt><trkpt lat="44.2651063" lon="11.29034"><ele>367.0</ele><time>2026-03-30T13:19:33.873Z</time></trkpt><trkpt lat="44.2651772" lon="11.2904205"><ele>367.0</ele><time>2026-03-30T13:19:34.872Z</time></trkpt><trkpt lat="44.2652499" lon="11.2905005"><ele>367.0</ele><time>2026-03-30T13:19:35.871Z</time></trkpt><trkpt lat="44.2653243" lon="11.290581"><ele>367.0</ele><time>2026-03-30T13:19:36.869Z</time></trkpt><trkpt lat="44.2653975" lon="11.2906635"><ele>367.0</ele><time>2026-03-30T13:19:37.88Z</time></trkpt><trkpt lat="44.2654732" lon="11.2907442"><ele>367.20000000000005</ele><time>2026-03-30T13:19:38.88Z</time></trkpt><trkpt lat="44.2655488" lon="11.2908316"><ele>367.4</ele><time>2026-03-30T13:19:39.871Z</time></trkpt><trkpt lat="44.2656246" lon="11.2909152"><ele>367.6</ele><time>2026-03-30T13:19:40.869Z</time></trkpt><trkpt lat="44.2657053" lon="11.290999"><ele>367.79999999999995</ele><time>2026-03-30T13:19:41.87Z</time></trkpt><trkpt lat="44.265788" lon="11.2910795"><ele>368.0</ele><time>2026-03-30T13:19:42.88Z</time></trkpt><trkpt lat="44.2658739" lon="11.291159"><ele>368.0</ele><time>2026-03-30T13:19:43.868Z</time></trkpt><trkpt lat="44.2659561" lon="11.2912351"><ele>368.0</ele><time>2026-03-30T13:19:44.891Z</time></trkpt><trkpt lat="44.2660436" lon="11.2913029"><ele>368.0</ele><time>2026-03-30T13:19:45.877Z</time></trkpt><trkpt lat="44.2661393" lon="11.2913623"><ele>368.0</ele><time>2026-03-30T13:19:46.874Z</time></trkpt><trkpt lat="44.2662259" lon="11.2914166"><ele>368.0</ele><time>2026-03-30T13:19:47.868Z</time></trkpt><trkpt lat="44.266317" lon="11.2914649"><ele>367.59999999999997</ele><time>2026-03-30T13:19:48.861Z</time></trkpt><trkpt lat="44.2664146" lon="11.2915074"><ele>367.2</ele><time>2026-03-30T13:19:49.86Z</time></trkpt><trkpt lat="44.2665101" lon="11.2915399"><ele>366.8</ele><time>2026-03-30T13:19:50.88Z</time></trkpt><trkpt lat="44.2666054" lon="11.2915701"><ele>366.4</ele><time>2026-03-30T13:19:51.858Z</time></trkpt><trkpt lat="44.2666929" lon="11.291603"><ele>366.0</ele><time>2026-03-30T13:19:52.87Z</time></trkpt><trkpt lat="44.2667941" lon="11.2916394"><ele>366.0</ele><time>2026-03-30T13:19:53.871Z</time></trkpt><trkpt lat="44.2668961" lon="11.291679"><ele>366.0</ele><time>2026-03-30T13:19:54.866Z</time></trkpt><trkpt lat="44.2669976" lon="11.2917142"><ele>366.0</ele><time>2026-03-30T13:19:55.873Z</time></trkpt><trkpt lat="44.2670981" lon="11.2917497"><ele>366.0</ele><time>2026-03-30T13:19:56.873Z</time></trkpt><trkpt lat="44.2672006" lon="11.2917861"><ele>366.0</ele><time>2026-03-30T13:19:57.872Z</time></trkpt><trkpt lat="44.2673001" lon="11.29182"><ele>364.6</ele><time>2026-03-30T13:19:58.886Z</time></trkpt><trkpt lat="44.2673986" lon="11.291852"><ele>363.20000000000005</ele><time>2026-03-30T13:19:59.869Z</time></trkpt><trkpt lat="44.2674968" lon="11.2918904"><ele>361.79999999999995</ele><time>2026-03-30T13:20:00.877Z</time></trkpt><trkpt lat="44.2675953" lon="11.2919199"><ele>360.4</ele><time>2026-03-30T13:20:01.874Z</time></trkpt><trkpt lat="44.2676922" lon="11.291958"><ele>359.0</ele><time>2026-03-30T13:20:02.881Z</time></trkpt><trkpt lat="44.2677839" lon="11.2919906"><ele>359.0</ele><time>2026-03-30T13:20:03.874Z</time></trkpt><trkpt lat="44.2678689" lon="11.2920247"><ele>359.0</ele><time>2026-03-30T13:20:04.864Z</time></trkpt><trkpt lat="44.2679377" lon="11.2920539"><ele>359.0</ele><time>2026-03-30T13:20:05.883Z</time></trkpt><trkpt lat="44.2679996" lon="11.2920781"><ele>359.0</ele><time>2026-03-30T13:20:06.872Z</time></trkpt><trkpt lat="44.2680962" lon="11.2921247"><ele>359.0</ele><time>2026-03-30T13:20:08.874Z</time></trkpt><trkpt lat="44.2681789" lon="11.2921757"><ele>359.0</ele><time>2026-03-30T13:20:10.873Z</time></trkpt><trkpt lat="44.26828" lon="11.292227"><ele>358.6666666666667</ele><time>2026-03-30T13:20:12.89Z</time></trkpt><trkpt lat="44.2684004" lon="11.2922775"><ele>358.33333333333337</ele><time>2026-03-30T13:20:14.872Z</time></trkpt><trkpt lat="44.2684672" lon="11.2923049"><ele>358.0</ele><time>2026-03-30T13:20:15.879Z</time></trkpt><trkpt lat="44.2685386" lon="11.2923318"><ele>357.6666666666667</ele><time>2026-03-30T13:20:16.892Z</time></trkpt><trkpt lat="44.2686113" lon="11.292359"><ele>357.3333333333333</ele><time>2026-03-30T13:20:17.869Z</time></trkpt><trkpt lat="44.2686854" lon="11.2923865"><ele>357.0</ele><time>2026-03-30T13:20:18.88Z</time></trkpt><trkpt lat="44.2687642" lon="11.292415"><ele>357.0</ele><time>2026-03-30T13:20:19.877Z</time></trkpt><trkpt lat="44.2688451" lon="11.2924456"><ele>357.0</ele><time>2026-03-30T13:20:20.868Z</time></trkpt><trkpt lat="44.2689282" lon="11.2924753"><ele>357.0</ele><time>2026-03-30T13:20:21.878Z</time></trkpt><trkpt lat="44.2690009" lon="11.2925027"><ele>357.0</ele><time>2026-03-30T13:20:22.873Z</time></trkpt><trkpt lat="44.2690871" lon="11.2925319"><ele>357.0</ele><time>2026-03-30T13:20:23.873Z</time></trkpt><trkpt lat="44.2691751" lon="11.2925643"><ele>357.0</ele><time>2026-03-30T13:20:24.879Z</time></trkpt><trkpt lat="44.269263" lon="11.2925943"><ele>356.3333333333333</ele><time>2026-03-30T13:20:25.883Z</time></trkpt><trkpt lat="44.2693408" lon="11.292626"><ele>355.6666666666667</ele><time>2026-03-30T13:20:26.864Z</time></trkpt><trkpt lat="44.2694307" lon="11.2926556"><ele>355.0</ele><time>2026-03-30T13:20:27.863Z</time></trkpt><trkpt lat="44.2695082" lon="11.2926755"><ele>354.33333333333337</ele><time>2026-03-30T13:20:28.877Z</time></trkpt><trkpt lat="44.2695822" lon="11.2926907"><ele>353.6666666666667</ele><time>2026-03-30T13:20:29.876Z</time></trkpt><trkpt lat="44.2696596" lon="11.2927029"><ele>353.0</ele><time>2026-03-30T13:20:30.882Z</time></trkpt><trkpt lat="44.2697453" lon="11.2927136"><ele>352.83333333333337</ele><time>2026-03-30T13:20:31.881Z</time></trkpt><trkpt lat="44.2698299" lon="11.2927166"><ele>352.6666666666667</ele><time>2026-03-30T13:20:32.866Z</time></trkpt><trkpt lat="44.2699175" lon="11.2927127"><ele>352.5</ele><time>2026-03-30T13:20:33.869Z</time></trkpt><trkpt lat="44.2700057" lon="11.2927047"><ele>352.3333333333333</ele><time>2026-03-30T13:20:34.877Z</time></trkpt><trkpt lat="44.2700907" lon="11.2926881"><ele>352.16666666666663</ele><time>2026-03-30T13:20:35.864Z</time></trkpt><trkpt lat="44.2701759" lon="11.2926665"><ele>352.0</ele><time>2026-03-30T13:20:36.871Z</time></trkpt><trkpt lat="44.2702616" lon="11.2926451"><ele>352.0</ele><time>2026-03-30T13:20:37.88Z</time></trkpt><trkpt lat="44.2703473" lon="11.2926202"><ele>352.0</ele><time>2026-03-30T13:20:38.87Z</time></trkpt><trkpt lat="44.2704321" lon="11.2925876"><ele>352.0</ele><time>2026-03-30T13:20:39.876Z</time></trkpt><trkpt lat="44.2705144" lon="11.2925522"><ele>352.0</ele><time>2026-03-30T13:20:40.872Z</time></trkpt><trkpt lat="44.270598" lon="11.2925129"><ele>352.0</ele><time>2026-03-30T13:20:41.883Z</time></trkpt><trkpt lat="44.2706796" lon="11.2924693"><ele>352.0</ele><time>2026-03-30T13:20:42.868Z</time></trkpt><trkpt lat="44.2707608" lon="11.2924196"><ele>352.6</ele><time>2026-03-30T13:20:43.871Z</time></trkpt><trkpt lat="44.2708399" lon="11.2923638"><ele>353.20000000000005</ele><time>2026-03-30T13:20:44.882Z</time></trkpt><trkpt lat="44.2709184" lon="11.2923018"><ele>353.8</ele><time>2026-03-30T13:20:45.865Z</time></trkpt><trkpt lat="44.2709954" lon="11.2922347"><ele>354.4</ele><time>2026-03-30T13:20:46.874Z</time></trkpt><trkpt lat="44.2710703" lon="11.2921618"><ele>355.0</ele><time>2026-03-30T13:20:47.885Z</time></trkpt><trkpt lat="44.2711424" lon="11.2920836"><ele>354.0</ele><time>2026-03-30T13:20:48.875Z</time></trkpt><trkpt lat="44.2712121" lon="11.2919996"><ele>353.0</ele><time>2026-03-30T13:20:49.872Z</time></trkpt><trkpt lat="44.2712807" lon="11.2919142"><ele>352.0</ele><time>2026-03-30T13:20:50.872Z</time></trkpt><trkpt lat="44.271347" lon="11.2918253"><ele>351.0</ele><time>2026-03-30T13:20:51.87Z</time></trkpt><trkpt lat="44.2714098" lon="11.2917333"><ele>350.0</ele><time>2026-03-30T13:20:52.876Z</time></trkpt><trkpt lat="44.2714691" lon="11.291641"><ele>350.0</ele><time>2026-03-30T13:20:53.875Z</time></trkpt><trkpt lat="44.2715292" lon="11.2915521"><ele>350.0</ele><time>2026-03-30T13:20:54.871Z</time></trkpt><trkpt lat="44.2715898" lon="11.2914656"><ele>350.0</ele><time>2026-03-30T13:20:55.89Z</time></trkpt><trkpt lat="44.2716509" lon="11.2913808"><ele>350.0</ele><time>2026-03-30T13:20:56.868Z</time></trkpt><trkpt lat="44.271715" lon="11.2913004"><ele>350.0</ele><time>2026-03-30T13:20:57.862Z</time></trkpt><trkpt lat="44.271781" lon="11.2912218"><ele>350.0</ele><time>2026-03-30T13:20:58.874Z</time></trkpt><trkpt lat="44.2718511" lon="11.2911497"><ele>349.83333333333337</ele><time>2026-03-30T13:20:59.886Z</time></trkpt><trkpt lat="44.2719272" lon="11.2910887"><ele>349.6666666666667</ele><time>2026-03-30T13:21:00.873Z</time></trkpt><trkpt lat="44.2720052" lon="11.2910341"><ele>349.5</ele><time>2026-03-30T13:21:01.874Z</time></trkpt><trkpt lat="44.2720854" lon="11.2909832"><ele>349.3333333333333</ele><time>2026-03-30T13:21:02.871Z</time></trkpt><trkpt lat="44.2721673" lon="11.2909331"><ele>349.16666666666663</ele><time>2026-03-30T13:21:03.872Z</time></trkpt><trkpt lat="44.2722488" lon="11.2908813"><ele>349.0</ele><time>2026-03-30T13:21:04.873Z</time></trkpt><trkpt lat="44.2723308" lon="11.2908305"><ele>348.4</ele><time>2026-03-30T13:21:05.873Z</time></trkpt><trkpt lat="44.2724151" lon="11.2907805"><ele>347.79999999999995</ele><time>2026-03-30T13:21:06.866Z</time></trkpt><trkpt lat="44.2725015" lon="11.2907318"><ele>347.20000000000005</ele><time>2026-03-30T13:21:07.875Z</time></trkpt><trkpt lat="44.2725862" lon="11.2906821"><ele>346.6</ele><time>2026-03-30T13:21:08.864Z</time></trkpt><trkpt lat="44.2726739" lon="11.2906356"><ele>346.0</ele><time>2026-03-30T13:21:09.874Z</time></trkpt><trkpt lat="44.272761" lon="11.2905874"><ele>346.0</ele><time>2026-03-30T13:21:10.878Z</time></trkpt><trkpt lat="44.2728487" lon="11.29054"><ele>346.0</ele><time>2026-03-30T13:21:11.874Z</time></trkpt><trkpt lat="44.2729351" lon="11.2904909"><ele>346.0</ele><time>2026-03-30T13:21:12.869Z</time></trkpt><trkpt lat="44.2730202" lon="11.2904413"><ele>346.0</ele><time>2026-03-30T13:21:13.874Z</time></trkpt><trkpt lat="44.2731054" lon="11.2903918"><ele>346.0</ele><time>2026-03-30T13:21:14.86Z</time></trkpt><trkpt lat="44.273191" lon="11.2903405"><ele>345.6</ele><time>2026-03-30T13:21:15.868Z</time></trkpt><trkpt lat="44.2732773" lon="11.290288"><ele>345.20000000000005</ele><time>2026-03-30T13:21:16.88Z</time></trkpt><trkpt lat="44.2733633" lon="11.2902362"><ele>344.79999999999995</ele><time>2026-03-30T13:21:17.866Z</time></trkpt><trkpt lat="44.2734474" lon="11.2901818"><ele>344.4</ele><time>2026-03-30T13:21:18.869Z</time></trkpt><trkpt lat="44.2735338" lon="11.2901284"><ele>344.0</ele><time>2026-03-30T13:21:19.873Z</time></trkpt><trkpt lat="44.2736212" lon="11.2900773"><ele>344.0</ele><time>2026-03-30T13:21:20.866Z</time></trkpt><trkpt lat="44.2737083" lon="11.2900273"><ele>344.0</ele><time>2026-03-30T13:21:21.871Z</time></trkpt><trkpt lat="44.2737936" lon="11.2899739"><ele>344.0</ele><time>2026-03-30T13:21:22.875Z</time></trkpt><trkpt lat="44.2738814" lon="11.2899213"><ele>344.0</ele><time>2026-03-30T13:21:23.877Z</time></trkpt><trkpt lat="44.2739712" lon="11.2898696"><ele>344.0</ele><time>2026-03-30T13:21:24.869Z</time></trkpt><trkpt lat="44.2740628" lon="11.2898172"><ele>344.2</ele><time>2026-03-30T13:21:25.883Z</time></trkpt><trkpt lat="44.2741557" lon="11.289765"><ele>344.4</ele><time>2026-03-30T13:21:26.874Z</time></trkpt><trkpt lat="44.2742493" lon="11.2897139"><ele>344.6</ele><time>2026-03-30T13:21:27.869Z</time></trkpt><trkpt lat="44.2743452" lon="11.289664"><ele>344.8</ele><time>2026-03-30T13:21:28.877Z</time></trkpt><trkpt lat="44.2744423" lon="11.2896191"><ele>345.0</ele><time>2026-03-30T13:21:29.873Z</time></trkpt><trkpt lat="44.2745382" lon="11.2895758"><ele>344.4</ele><time>2026-03-30T13:21:30.865Z</time></trkpt><trkpt lat="44.2746354" lon="11.2895399"><ele>343.8</ele><time>2026-03-30T13:21:31.868Z</time></trkpt><trkpt lat="44.274734" lon="11.2895148"><ele>343.20000000000005</ele><time>2026-03-30T13:21:32.872Z</time></trkpt><trkpt lat="44.2748331" lon="11.2895002"><ele>342.6</ele><time>2026-03-30T13:21:33.865Z</time></trkpt><trkpt lat="44.2749341" lon="11.2895023"><ele>342.0</ele><time>2026-03-30T13:21:34.874Z</time></trkpt><trkpt lat="44.2750344" lon="11.2895214"><ele>341.6</ele><time>2026-03-30T13:21:35.879Z</time></trkpt><trkpt lat="44.2751336" lon="11.2895523"><ele>341.20000000000005</ele><time>2026-03-30T13:21:36.869Z</time></trkpt><trkpt lat="44.275229" lon="11.289594"><ele>340.8</ele><time>2026-03-30T13:21:37.876Z</time></trkpt><trkpt lat="44.2753247" lon="11.2896389"><ele>340.4</ele><time>2026-03-30T13:21:38.866Z</time></trkpt><trkpt lat="44.2754226" lon="11.289682"><ele>340.0</ele><time>2026-03-30T13:21:39.869Z</time></trkpt><trkpt lat="44.2755196" lon="11.2897242"><ele>341.0</ele><time>2026-03-30T13:21:40.873Z</time></trkpt><trkpt lat="44.275615" lon="11.289768"><ele>342.0</ele><time>2026-03-30T13:21:41.873Z</time></trkpt><trkpt lat="44.2757098" lon="11.2898116"><ele>343.0</ele><time>2026-03-30T13:21:42.872Z</time></trkpt><trkpt lat="44.2758026" lon="11.2898586"><ele>344.0</ele><time>2026-03-30T13:21:43.859Z</time></trkpt><trkpt lat="44.2758948" lon="11.2899027"><ele>345.0</ele><time>2026-03-30T13:21:44.872Z</time></trkpt><trkpt lat="44.2759857" lon="11.2899467"><ele>345.0</ele><time>2026-03-30T13:21:45.877Z</time></trkpt><trkpt lat="44.2760759" lon="11.2899906"><ele>345.0</ele><time>2026-03-30T13:21:46.866Z</time></trkpt><trkpt lat="44.2761649" lon="11.2900329"><ele>345.0</ele><time>2026-03-30T13:21:47.874Z</time></trkpt><trkpt lat="44.2762546" lon="11.290072"><ele>345.0</ele><time>2026-03-30T13:21:48.868Z</time></trkpt><trkpt lat="44.2763443" lon="11.2901133"><ele>345.0</ele><time>2026-03-30T13:21:49.856Z</time></trkpt><trkpt lat="44.2764322" lon="11.2901542"><ele>343.4</ele><time>2026-03-30T13:21:50.869Z</time></trkpt><trkpt lat="44.2765206" lon="11.2901936"><ele>341.8</ele><time>2026-03-30T13:21:51.865Z</time></trkpt><trkpt lat="44.2766081" lon="11.2902352"><ele>340.20000000000005</ele><time>2026-03-30T13:21:52.87Z</time></trkpt><trkpt lat="44.2767035" lon="11.2902784"><ele>338.6</ele><time>2026-03-30T13:21:53.878Z</time></trkpt><trkpt lat="44.2767978" lon="11.2903226"><ele>337.0</ele><time>2026-03-30T13:21:54.867Z</time></trkpt><trkpt lat="44.2768943" lon="11.290368"><ele>337.0</ele><time>2026-03-30T13:21:55.891Z</time></trkpt><trkpt lat="44.2769849" lon="11.2904057"><ele>337.0</ele><time>2026-03-30T13:21:56.88Z</time></trkpt><trkpt lat="44.2770751" lon="11.2904376"><ele>337.0</ele><time>2026-03-30T13:21:57.876Z</time></trkpt><trkpt lat="44.2771666" lon="11.2904645"><ele>337.0</ele><time>2026-03-30T13:21:58.877Z</time></trkpt><trkpt lat="44.2772583" lon="11.2904883"><ele>337.0</ele><time>2026-03-30T13:21:59.871Z</time></trkpt><trkpt lat="44.2773491" lon="11.2905079"><ele>336.3333333333333</ele><time>2026-03-30T13:22:00.876Z</time></trkpt><trkpt lat="44.2774366" lon="11.290522"><ele>335.66666666666663</ele><time>2026-03-30T13:22:01.884Z</time></trkpt><trkpt lat="44.2775281" lon="11.2905306"><ele>335.0</ele><time>2026-03-30T13:22:02.869Z</time></trkpt><trkpt lat="44.2776142" lon="11.2905369"><ele>334.3333333333333</ele><time>2026-03-30T13:22:03.878Z</time></trkpt><trkpt lat="44.277701" lon="11.2905404"><ele>333.6666666666667</ele><time>2026-03-30T13:22:04.874Z</time></trkpt><trkpt lat="44.2777902" lon="11.290543"><ele>333.0</ele><time>2026-03-30T13:22:05.868Z</time></trkpt><trkpt lat="44.2778816" lon="11.2905442"><ele>333.0</ele><time>2026-03-30T13:22:06.867Z</time></trkpt><trkpt lat="44.2779735" lon="11.2905457"><ele>333.0</ele><time>2026-03-30T13:22:07.871Z</time></trkpt><trkpt lat="44.2780657" lon="11.2905481"><ele>333.0</ele><time>2026-03-30T13:22:08.88Z</time></trkpt><trkpt lat="44.2781583" lon="11.2905488"><ele>333.0</ele><time>2026-03-30T13:22:09.881Z</time></trkpt><trkpt lat="44.2782495" lon="11.290553"><ele>333.0</ele><time>2026-03-30T13:22:10.866Z</time></trkpt><trkpt lat="44.2783404" lon="11.2905547"><ele>333.3333333333333</ele><time>2026-03-30T13:22:11.885Z</time></trkpt><trkpt lat="44.27843" lon="11.2905572"><ele>333.6666666666667</ele><time>2026-03-30T13:22:12.866Z</time></trkpt><trkpt lat="44.2785189" lon="11.2905594"><ele>334.0</ele><time>2026-03-30T13:22:13.872Z</time></trkpt><trkpt lat="44.2786061" lon="11.2905619"><ele>334.33333333333337</ele><time>2026-03-30T13:22:14.881Z</time></trkpt><trkpt lat="44.2786924" lon="11.2905635"><ele>334.6666666666667</ele><time>2026-03-30T13:22:15.879Z</time></trkpt><trkpt lat="44.2787794" lon="11.2905639"><ele>335.0</ele><time>2026-03-30T13:22:16.877Z</time></trkpt><trkpt lat="44.2788654" lon="11.2905674"><ele>334.5</ele><time>2026-03-30T13:22:17.872Z</time></trkpt><trkpt lat="44.2789519" lon="11.2905692"><ele>334.0</ele><time>2026-03-30T13:22:18.871Z</time></trkpt><trkpt lat="44.2790367" lon="11.29057"><ele>333.5</ele><time>2026-03-30T13:22:19.871Z</time></trkpt><trkpt lat="44.2791219" lon="11.2905726"><ele>333.0</ele><time>2026-03-30T13:22:20.875Z</time></trkpt><trkpt lat="44.2792036" lon="11.2905758"><ele>332.5</ele><time>2026-03-30T13:22:21.88Z</time></trkpt><trkpt lat="44.2792858" lon="11.2905757"><ele>332.0</ele><time>2026-03-30T13:22:22.881Z</time></trkpt><trkpt lat="44.2793705" lon="11.2905771"><ele>332.0</ele><time>2026-03-30T13:22:23.871Z</time></trkpt><trkpt lat="44.2794534" lon="11.2905815"><ele>332.0</ele><time>2026-03-30T13:22:24.869Z</time></trkpt><trkpt lat="44.2795341" lon="11.2905847"><ele>332.0</ele><time>2026-03-30T13:22:25.868Z</time></trkpt><trkpt lat="44.2796189" lon="11.2905792"><ele>332.0</ele><time>2026-03-30T13:22:26.886Z</time></trkpt><trkpt lat="44.2796982" lon="11.2905668"><ele>332.0</ele><time>2026-03-30T13:22:27.87Z</time></trkpt><trkpt lat="44.2797793" lon="11.2905465"><ele>332.0</ele><time>2026-03-30T13:22:28.872Z</time></trkpt><trkpt lat="44.2798594" lon="11.2905206"><ele>332.1666666666667</ele><time>2026-03-30T13:22:29.873Z</time></trkpt><trkpt lat="44.2799351" lon="11.2904887"><ele>332.33333333333337</ele><time>2026-03-30T13:22:30.874Z</time></trkpt><trkpt lat="44.2800154" lon="11.2904521"><ele>332.5</ele><time>2026-03-30T13:22:31.869Z</time></trkpt><trkpt lat="44.2800953" lon="11.2904122"><ele>332.6666666666667</ele><time>2026-03-30T13:22:32.884Z</time></trkpt><trkpt lat="44.2801763" lon="11.2903708"><ele>332.8333333333333</ele><time>2026-03-30T13:22:33.877Z</time></trkpt><trkpt lat="44.2802604" lon="11.2903319"><ele>333.0</ele><time>2026-03-30T13:22:34.87Z</time></trkpt><trkpt lat="44.2803453" lon="11.2902904"><ele>333.0</ele><time>2026-03-30T13:22:35.884Z</time></trkpt><trkpt lat="44.2804311" lon="11.2902507"><ele>333.0</ele><time>2026-03-30T13:22:36.877Z</time></trkpt><trkpt lat="44.2805159" lon="11.2902152"><ele>333.0</ele><time>2026-03-30T13:22:37.871Z</time></trkpt><trkpt lat="44.2806007" lon="11.2901817"><ele>333.0</ele><time>2026-03-30T13:22:38.866Z</time></trkpt><trkpt lat="44.2806847" lon="11.2901532"><ele>333.0</ele><time>2026-03-30T13:22:39.872Z</time></trkpt><trkpt lat="44.2807693" lon="11.2901288"><ele>333.0</ele><time>2026-03-30T13:22:40.874Z</time></trkpt><trkpt lat="44.2808558" lon="11.2901107"><ele>332.6666666666667</ele><time>2026-03-30T13:22:41.875Z</time></trkpt><trkpt lat="44.2809441" lon="11.2901008"><ele>332.3333333333333</ele><time>2026-03-30T13:22:42.872Z</time></trkpt><trkpt lat="44.2810331" lon="11.2900996"><ele>332.0</ele><time>2026-03-30T13:22:43.874Z</time></trkpt><trkpt lat="44.2811237" lon="11.2901061"><ele>331.66666666666663</ele><time>2026-03-30T13:22:44.884Z</time></trkpt><trkpt lat="44.2812136" lon="11.2901134"><ele>331.3333333333333</ele><time>2026-03-30T13:22:45.868Z</time></trkpt><trkpt lat="44.2813035" lon="11.2901212"><ele>331.0</ele><time>2026-03-30T13:22:46.875Z</time></trkpt><trkpt lat="44.2813942" lon="11.2901279"><ele>330.5</ele><time>2026-03-30T13:22:47.874Z</time></trkpt><trkpt lat="44.28148" lon="11.2901368"><ele>330.0</ele><time>2026-03-30T13:22:48.877Z</time></trkpt><trkpt lat="44.2815709" lon="11.2901469"><ele>329.5</ele><time>2026-03-30T13:22:49.876Z</time></trkpt><trkpt lat="44.2816599" lon="11.2901584"><ele>329.0</ele><time>2026-03-30T13:22:50.879Z</time></trkpt><trkpt lat="44.281747" lon="11.2901678"><ele>328.5</ele><time>2026-03-30T13:22:51.875Z</time></trkpt><trkpt lat="44.2818394" lon="11.2901745"><ele>328.0</ele><time>2026-03-30T13:22:52.872Z</time></trkpt><trkpt lat="44.2819309" lon="11.2901863"><ele>328.0</ele><time>2026-03-30T13:22:53.877Z</time></trkpt><trkpt lat="44.2820235" lon="11.2901994"><ele>328.0</ele><time>2026-03-30T13:22:54.878Z</time></trkpt><trkpt lat="44.2821133" lon="11.290211"><ele>328.0</ele><time>2026-03-30T13:22:55.87Z</time></trkpt><trkpt lat="44.2822038" lon="11.2902189"><ele>328.0</ele><time>2026-03-30T13:22:56.872Z</time></trkpt><trkpt lat="44.2822948" lon="11.2902283"><ele>328.0</ele><time>2026-03-30T13:22:57.873Z</time></trkpt><trkpt lat="44.2823845" lon="11.2902379"><ele>327.5</ele><time>2026-03-30T13:22:58.877Z</time></trkpt><trkpt lat="44.2824757" lon="11.2902472"><ele>327.0</ele><time>2026-03-30T13:22:59.883Z</time></trkpt><trkpt lat="44.2825666" lon="11.2902575"><ele>326.5</ele><time>2026-03-30T13:23:00.866Z</time></trkpt><trkpt lat="44.282656" lon="11.2902666"><ele>326.0</ele><time>2026-03-30T13:23:01.875Z</time></trkpt><trkpt lat="44.2827437" lon="11.2902751"><ele>325.5</ele><time>2026-03-30T13:23:02.871Z</time></trkpt><trkpt lat="44.2828294" lon="11.2902838"><ele>325.0</ele><time>2026-03-30T13:23:03.865Z</time></trkpt><trkpt lat="44.2829128" lon="11.2902902"><ele>325.0</ele><time>2026-03-30T13:23:04.864Z</time></trkpt><trkpt lat="44.2829952" lon="11.2903001"><ele>325.0</ele><time>2026-03-30T13:23:05.884Z</time></trkpt><trkpt lat="44.2830768" lon="11.2903098"><ele>325.0</ele><time>2026-03-30T13:23:06.872Z</time></trkpt><trkpt lat="44.2831585" lon="11.2903188"><ele>325.0</ele><time>2026-03-30T13:23:07.875Z</time></trkpt><trkpt lat="44.2832402" lon="11.2903298"><ele>325.0</ele><time>2026-03-30T13:23:08.88Z</time></trkpt><trkpt lat="44.2833228" lon="11.2903373"><ele>325.0</ele><time>2026-03-30T13:23:09.878Z</time></trkpt><trkpt lat="44.2834049" lon="11.2903462"><ele>324.8333333333333</ele><time>2026-03-30T13:23:10.868Z</time></trkpt><trkpt lat="44.2834877" lon="11.2903542"><ele>324.66666666666663</ele><time>2026-03-30T13:23:11.876Z</time></trkpt><trkpt lat="44.2835717" lon="11.2903623"><ele>324.5</ele><time>2026-03-30T13:23:12.88Z</time></trkpt><trkpt lat="44.2836571" lon="11.2903734"><ele>324.3333333333333</ele><time>2026-03-30T13:23:13.872Z</time></trkpt><trkpt lat="44.2837425" lon="11.2903841"><ele>324.1666666666667</ele><time>2026-03-30T13:23:14.884Z</time></trkpt><trkpt lat="44.2838274" lon="11.2903939"><ele>324.0</ele><time>2026-03-30T13:23:15.865Z</time></trkpt><trkpt lat="44.2839122" lon="11.2904045"><ele>323.8333333333333</ele><time>2026-03-30T13:23:16.869Z</time></trkpt><trkpt lat="44.2839987" lon="11.2904152"><ele>323.6666666666667</ele><time>2026-03-30T13:23:17.875Z</time></trkpt><trkpt lat="44.2840846" lon="11.2904245"><ele>323.5</ele><time>2026-03-30T13:23:18.871Z</time></trkpt><trkpt lat="44.28417" lon="11.2904321"><ele>323.33333333333337</ele><time>2026-03-30T13:23:19.871Z</time></trkpt><trkpt lat="44.284256" lon="11.2904402"><ele>323.1666666666667</ele><time>2026-03-30T13:23:20.885Z</time></trkpt><trkpt lat="44.2843444" lon="11.2904486"><ele>323.0</ele><time>2026-03-30T13:23:21.888Z</time></trkpt><trkpt lat="44.2844346" lon="11.2904601"><ele>323.0</ele><time>2026-03-30T13:23:22.869Z</time></trkpt><trkpt lat="44.2845216" lon="11.2904707"><ele>323.0</ele><time>2026-03-30T13:23:23.875Z</time></trkpt><trkpt lat="44.2846076" lon="11.2904796"><ele>323.0</ele><time>2026-03-30T13:23:24.876Z</time></trkpt><trkpt lat="44.2846932" lon="11.2904886"><ele>323.0</ele><time>2026-03-30T13:23:25.873Z</time></trkpt><trkpt lat="44.2847777" lon="11.2904976"><ele>323.0</ele><time>2026-03-30T13:23:26.878Z</time></trkpt><trkpt lat="44.2848595" lon="11.2905058"><ele>323.0</ele><time>2026-03-30T13:23:27.867Z</time></trkpt><trkpt lat="44.2849425" lon="11.2905132"><ele>322.6666666666667</ele><time>2026-03-30T13:23:28.875Z</time></trkpt><trkpt lat="44.2850237" lon="11.2905203"><ele>322.33333333333337</ele><time>2026-03-30T13:23:29.871Z</time></trkpt><trkpt lat="44.2851053" lon="11.2905277"><ele>322.0</ele><time>2026-03-30T13:23:30.871Z</time></trkpt><trkpt lat="44.285187" lon="11.2905364"><ele>321.6666666666667</ele><time>2026-03-30T13:23:31.869Z</time></trkpt><trkpt lat="44.2852676" lon="11.2905446"><ele>321.3333333333333</ele><time>2026-03-30T13:23:32.865Z</time></trkpt><trkpt lat="44.2853481" lon="11.2905515"><ele>321.0</ele><time>2026-03-30T13:23:33.872Z</time></trkpt><trkpt lat="44.2854283" lon="11.2905577"><ele>321.0</ele><time>2026-03-30T13:23:34.873Z</time></trkpt><trkpt lat="44.2855095" lon="11.2905648"><ele>321.0</ele><time>2026-03-30T13:23:35.87Z</time></trkpt><trkpt lat="44.2855908" lon="11.2905727"><ele>321.0</ele><time>2026-03-30T13:23:36.88Z</time></trkpt><trkpt lat="44.2856722" lon="11.2905796"><ele>321.0</ele><time>2026-03-30T13:23:37.871Z</time></trkpt><trkpt lat="44.2857545" lon="11.2905868"><ele>321.0</ele><time>2026-03-30T13:23:38.866Z</time></trkpt><trkpt lat="44.2858359" lon="11.2905937"><ele>321.0</ele><time>2026-03-30T13:23:39.874Z</time></trkpt><trkpt lat="44.2859163" lon="11.2906019"><ele>321.3333333333333</ele><time>2026-03-30T13:23:40.867Z</time></trkpt><trkpt lat="44.2859978" lon="11.2906105"><ele>321.6666666666667</ele><time>2026-03-30T13:23:41.867Z</time></trkpt><trkpt lat="44.286079" lon="11.2906182"><ele>322.0</ele><time>2026-03-30T13:23:42.881Z</time></trkpt><trkpt lat="44.2861606" lon="11.2906264"><ele>322.33333333333337</ele><time>2026-03-30T13:23:43.871Z</time></trkpt><trkpt lat="44.286242" lon="11.290632"><ele>322.6666666666667</ele><time>2026-03-30T13:23:44.876Z</time></trkpt><trkpt lat="44.2863246" lon="11.2906383"><ele>323.0</ele><time>2026-03-30T13:23:45.867Z</time></trkpt><trkpt lat="44.2864065" lon="11.2906449"><ele>324.0</ele><time>2026-03-30T13:23:46.866Z</time></trkpt><trkpt lat="44.2864884" lon="11.2906511"><ele>325.0</ele><time>2026-03-30T13:23:47.865Z</time></trkpt><trkpt lat="44.2865707" lon="11.2906581"><ele>326.0</ele><time>2026-03-30T13:23:48.878Z</time></trkpt><trkpt lat="44.2866537" lon="11.2906667"><ele>327.0</ele><time>2026-03-30T13:23:49.878Z</time></trkpt><trkpt lat="44.286737" lon="11.2906754"><ele>328.0</ele><time>2026-03-30T13:23:50.873Z</time></trkpt><trkpt lat="44.2868213" lon="11.2906823"><ele>329.0</ele><time>2026-03-30T13:23:51.872Z</time></trkpt><trkpt lat="44.2869067" lon="11.2906906"><ele>329.0</ele><time>2026-03-30T13:23:52.879Z</time></trkpt><trkpt lat="44.2869927" lon="11.2907057"><ele>329.0</ele><time>2026-03-30T13:23:53.877Z</time></trkpt><trkpt lat="44.2870778" lon="11.2907289"><ele>329.0</ele><time>2026-03-30T13:23:54.879Z</time></trkpt><trkpt lat="44.2871626" lon="11.2907588"><ele>329.0</ele><time>2026-03-30T13:23:55.87Z</time></trkpt><trkpt lat="44.2872464" lon="11.2908013"><ele>329.0</ele><time>2026-03-30T13:23:56.863Z</time></trkpt><trkpt lat="44.2873271" lon="11.2908564"><ele>329.0</ele><time>2026-03-30T13:23:57.872Z</time></trkpt><trkpt lat="44.2874048" lon="11.2909211"><ele>327.2</ele><time>2026-03-30T13:23:58.864Z</time></trkpt><trkpt lat="44.2874821" lon="11.2909912"><ele>325.4</ele><time>2026-03-30T13:23:59.873Z</time></trkpt><trkpt lat="44.287563" lon="11.2910621"><ele>323.6</ele><time>2026-03-30T13:24:00.879Z</time></trkpt><trkpt lat="44.2876464" lon="11.2911368"><ele>321.8</ele><time>2026-03-30T13:24:01.875Z</time></trkpt><trkpt lat="44.2877291" lon="11.2912104"><ele>320.0</ele><time>2026-03-30T13:24:02.874Z</time></trkpt><trkpt lat="44.2878127" lon="11.2912849"><ele>320.0</ele><time>2026-03-30T13:24:03.88Z</time></trkpt><trkpt lat="44.2878958" lon="11.2913604"><ele>320.0</ele><time>2026-03-30T13:24:04.871Z</time></trkpt><trkpt lat="44.287979" lon="11.291433"><ele>320.0</ele><time>2026-03-30T13:24:05.869Z</time></trkpt><trkpt lat="44.2880639" lon="11.2915095"><ele>320.0</ele><time>2026-03-30T13:24:06.873Z</time></trkpt><trkpt lat="44.2881497" lon="11.2915874"><ele>320.0</ele><time>2026-03-30T13:24:07.872Z</time></trkpt><trkpt lat="44.2882349" lon="11.2916649"><ele>319.0</ele><time>2026-03-30T13:24:08.852Z</time></trkpt><trkpt lat="44.2883211" lon="11.2917435"><ele>318.0</ele><time>2026-03-30T13:24:09.881Z</time></trkpt><trkpt lat="44.2884063" lon="11.2918222"><ele>317.0</ele><time>2026-03-30T13:24:10.871Z</time></trkpt><trkpt lat="44.2884929" lon="11.2919011"><ele>316.0</ele><time>2026-03-30T13:24:11.872Z</time></trkpt><trkpt lat="44.2885783" lon="11.2919777"><ele>315.0</ele><time>2026-03-30T13:24:12.878Z</time></trkpt><trkpt lat="44.2886634" lon="11.2920537"><ele>315.0</ele><time>2026-03-30T13:24:13.877Z</time></trkpt><trkpt lat="44.2887485" lon="11.2921266"><ele>315.0</ele><time>2026-03-30T13:24:14.872Z</time></trkpt><trkpt lat="44.2888346" lon="11.2921913"><ele>315.0</ele><time>2026-03-30T13:24:15.866Z</time></trkpt><trkpt lat="44.2889252" lon="11.2922461"><ele>315.0</ele><time>2026-03-30T13:24:16.865Z</time></trkpt><trkpt lat="44.2890153" lon="11.2922893"><ele>315.0</ele><time>2026-03-30T13:24:17.876Z</time></trkpt><trkpt lat="44.2891079" lon="11.2923204"><ele>314.8333333333333</ele><time>2026-03-30T13:24:18.87Z</time></trkpt><trkpt lat="44.2891996" lon="11.2923374"><ele>314.6666666666667</ele><time>2026-03-30T13:24:19.876Z</time></trkpt><trkpt lat="44.28929" lon="11.29234"><ele>314.5</ele><time>2026-03-30T13:24:20.871Z</time></trkpt><trkpt lat="44.2893794" lon="11.2923429"><ele>314.33333333333337</ele><time>2026-03-30T13:24:21.864Z</time></trkpt><trkpt lat="44.2894716" lon="11.2923243"><ele>314.1666666666667</ele><time>2026-03-30T13:24:22.861Z</time></trkpt><trkpt lat="44.2895413" lon="11.2922979"><ele>314.0</ele><time>2026-03-30T13:24:23.871Z</time></trkpt><trkpt lat="44.2896174" lon="11.2922594"><ele>313.5</ele><time>2026-03-30T13:24:24.882Z</time></trkpt><trkpt lat="44.2896875" lon="11.2922079"><ele>313.0</ele><time>2026-03-30T13:24:25.871Z</time></trkpt><trkpt lat="44.2897569" lon="11.2921454"><ele>312.5</ele><time>2026-03-30T13:24:26.868Z</time></trkpt><trkpt lat="44.2898249" lon="11.2920751"><ele>312.0</ele><time>2026-03-30T13:24:27.877Z</time></trkpt><trkpt lat="44.289888" lon="11.2919952"><ele>311.5</ele><time>2026-03-30T13:24:28.874Z</time></trkpt><trkpt lat="44.2899435" lon="11.2919026"><ele>311.0</ele><time>2026-03-30T13:24:29.872Z</time></trkpt><trkpt lat="44.2899893" lon="11.2918007"><ele>311.33333333333337</ele><time>2026-03-30T13:24:30.884Z</time></trkpt><trkpt lat="44.2900234" lon="11.2916908"><ele>311.6666666666667</ele><time>2026-03-30T13:24:31.871Z</time></trkpt><trkpt lat="44.2900445" lon="11.2915746"><ele>312.0</ele><time>2026-03-30T13:24:32.871Z</time></trkpt><trkpt lat="44.2900555" lon="11.2914561"><ele>312.3333333333333</ele><time>2026-03-30T13:24:33.875Z</time></trkpt><trkpt lat="44.2900571" lon="11.291336"><ele>312.66666666666663</ele><time>2026-03-30T13:24:34.869Z</time></trkpt><trkpt lat="44.2900568" lon="11.2912158"><ele>313.0</ele><time>2026-03-30T13:24:35.861Z</time></trkpt><trkpt lat="44.2900553" lon="11.2910923"><ele>313.0</ele><time>2026-03-30T13:24:36.876Z</time></trkpt><trkpt lat="44.2900531" lon="11.2909722"><ele>313.0</ele><time>2026-03-30T13:24:37.863Z</time></trkpt><trkpt lat="44.2900503" lon="11.2908509"><ele>313.0</ele><time>2026-03-30T13:24:38.878Z</time></trkpt><trkpt lat="44.2900495" lon="11.2907301"><ele>313.0</ele><time>2026-03-30T13:24:39.874Z</time></trkpt><trkpt lat="44.2900497" lon="11.2906122"><ele>313.0</ele><time>2026-03-30T13:24:40.876Z</time></trkpt><trkpt lat="44.2900488" lon="11.2904937"><ele>313.0</ele><time>2026-03-30T13:24:41.87Z</time></trkpt><trkpt lat="44.2900485" lon="11.2903741"><ele>312.66666666666663</ele><time>2026-03-30T13:24:42.877Z</time></trkpt><trkpt lat="44.2900515" lon="11.290254"><ele>312.3333333333333</ele><time>2026-03-30T13:24:43.868Z</time></trkpt><trkpt lat="44.2900539" lon="11.2901405"><ele>312.0</ele><time>2026-03-30T13:24:44.871Z</time></trkpt><trkpt lat="44.2900594" lon="11.2900254"><ele>311.6666666666667</ele><time>2026-03-30T13:24:45.887Z</time></trkpt><trkpt lat="44.2900868" lon="11.2899139"><ele>311.33333333333337</ele><time>2026-03-30T13:24:46.87Z</time></trkpt><trkpt lat="44.2901281" lon="11.2898062"><ele>311.0</ele><time>2026-03-30T13:24:47.87Z</time></trkpt><trkpt lat="44.2901759" lon="11.2897012"><ele>310.83333333333337</ele><time>2026-03-30T13:24:48.877Z</time></trkpt><trkpt lat="44.2902335" lon="11.2896055"><ele>310.6666666666667</ele><time>2026-03-30T13:24:49.866Z</time></trkpt><trkpt lat="44.290296" lon="11.289518"><ele>310.5</ele><time>2026-03-30T13:24:50.876Z</time></trkpt><trkpt lat="44.2903658" lon="11.2894394"><ele>310.3333333333333</ele><time>2026-03-30T13:24:51.877Z</time></trkpt><trkpt lat="44.2904374" lon="11.2893656"><ele>310.16666666666663</ele><time>2026-03-30T13:24:52.876Z</time></trkpt><trkpt lat="44.2905122" lon="11.2892938"><ele>310.0</ele><time>2026-03-30T13:24:53.868Z</time></trkpt><trkpt lat="44.2905865" lon="11.2892232"><ele>310.0</ele><time>2026-03-30T13:24:54.877Z</time></trkpt><trkpt lat="44.2906645" lon="11.2891519"><ele>310.0</ele><time>2026-03-30T13:24:55.883Z</time></trkpt><trkpt lat="44.2907456" lon="11.2890883"><ele>310.0</ele><time>2026-03-30T13:24:56.877Z</time></trkpt><trkpt lat="44.290832" lon="11.2890326"><ele>310.0</ele><time>2026-03-30T13:24:57.881Z</time></trkpt><trkpt lat="44.2909225" lon="11.2889878"><ele>310.0</ele><time>2026-03-30T13:24:58.872Z</time></trkpt><trkpt lat="44.2910174" lon="11.2889552"><ele>310.0</ele><time>2026-03-30T13:24:59.876Z</time></trkpt><trkpt lat="44.2911134" lon="11.2889339"><ele>310.0</ele><time>2026-03-30T13:25:00.882Z</time></trkpt><trkpt lat="44.2912086" lon="11.2889185"><ele>310.0</ele><time>2026-03-30T13:25:01.874Z</time></trkpt><trkpt lat="44.2913058" lon="11.2889105"><ele>310.0</ele><time>2026-03-30T13:25:02.875Z</time></trkpt><trkpt lat="44.2914022" lon="11.2889091"><ele>310.0</ele><time>2026-03-30T13:25:03.872Z</time></trkpt><trkpt lat="44.2915002" lon="11.2889095"><ele>309.2</ele><time>2026-03-30T13:25:04.869Z</time></trkpt><trkpt lat="44.2915984" lon="11.288912"><ele>308.4</ele><time>2026-03-30T13:25:05.877Z</time></trkpt><trkpt lat="44.2916958" lon="11.2889178"><ele>307.6</ele><time>2026-03-30T13:25:06.877Z</time></trkpt><trkpt lat="44.2917926" lon="11.2889232"><ele>306.8</ele><time>2026-03-30T13:25:07.869Z</time></trkpt><trkpt lat="44.2918886" lon="11.288928"><ele>306.0</ele><time>2026-03-30T13:25:08.873Z</time></trkpt><trkpt lat="44.2919824" lon="11.288934"><ele>307.8333333333333</ele><time>2026-03-30T13:25:09.892Z</time></trkpt><trkpt lat="44.2920729" lon="11.2889392"><ele>309.6666666666667</ele><time>2026-03-30T13:25:10.871Z</time></trkpt><trkpt lat="44.2921617" lon="11.2889431"><ele>311.5</ele><time>2026-03-30T13:25:11.874Z</time></trkpt><trkpt lat="44.2922491" lon="11.2889488"><ele>313.33333333333337</ele><time>2026-03-30T13:25:12.875Z</time></trkpt><trkpt lat="44.2923349" lon="11.2889543"><ele>315.1666666666667</ele><time>2026-03-30T13:25:13.871Z</time></trkpt><trkpt lat="44.2924225" lon="11.2889605"><ele>317.0</ele><time>2026-03-30T13:25:14.871Z</time></trkpt><trkpt lat="44.2925114" lon="11.2889669"><ele>317.0</ele><time>2026-03-30T13:25:15.878Z</time></trkpt><trkpt lat="44.2925999" lon="11.2889711"><ele>317.0</ele><time>2026-03-30T13:25:16.873Z</time></trkpt><trkpt lat="44.2926889" lon="11.288976"><ele>317.0</ele><time>2026-03-30T13:25:17.873Z</time></trkpt><trkpt lat="44.2927779" lon="11.288982"><ele>317.0</ele><time>2026-03-30T13:25:18.874Z</time></trkpt><trkpt lat="44.2928671" lon="11.2889895"><ele>317.0</ele><time>2026-03-30T13:25:19.868Z</time></trkpt><trkpt lat="44.2929562" lon="11.2889951"><ele>317.0</ele><time>2026-03-30T13:25:20.877Z</time></trkpt><trkpt lat="44.2930443" lon="11.2890024"><ele>316.0</ele><time>2026-03-30T13:25:21.88Z</time></trkpt><trkpt lat="44.2931335" lon="11.2890093"><ele>315.0</ele><time>2026-03-30T13:25:22.867Z</time></trkpt><trkpt lat="44.2932223" lon="11.289017"><ele>314.0</ele><time>2026-03-30T13:25:23.865Z</time></trkpt><trkpt lat="44.2933095" lon="11.2890252"><ele>313.0</ele><time>2026-03-30T13:25:24.881Z</time></trkpt><trkpt lat="44.2933957" lon="11.2890316"><ele>312.0</ele><time>2026-03-30T13:25:25.88Z</time></trkpt><trkpt lat="44.2934835" lon="11.2890367"><ele>311.0</ele><time>2026-03-30T13:25:26.871Z</time></trkpt><trkpt lat="44.2935699" lon="11.2890433"><ele>311.0</ele><time>2026-03-30T13:25:27.879Z</time></trkpt><trkpt lat="44.2936558" lon="11.2890491"><ele>311.0</ele><time>2026-03-30T13:25:28.867Z</time></trkpt><trkpt lat="44.2937424" lon="11.2890551"><ele>311.0</ele><time>2026-03-30T13:25:29.881Z</time></trkpt><trkpt lat="44.2938289" lon="11.28906"><ele>311.0</ele><time>2026-03-30T13:25:30.861Z</time></trkpt><trkpt lat="44.2939149" lon="11.2890676"><ele>311.0</ele><time>2026-03-30T13:25:31.884Z</time></trkpt><trkpt lat="44.2940024" lon="11.2890769"><ele>311.0</ele><time>2026-03-30T13:25:32.872Z</time></trkpt><trkpt lat="44.2940897" lon="11.2890891"><ele>310.0</ele><time>2026-03-30T13:25:33.882Z</time></trkpt><trkpt lat="44.2941776" lon="11.2891055"><ele>309.0</ele><time>2026-03-30T13:25:34.868Z</time></trkpt><trkpt lat="44.2942661" lon="11.2891253"><ele>308.0</ele><time>2026-03-30T13:25:35.876Z</time></trkpt><trkpt lat="44.2943541" lon="11.2891467"><ele>307.0</ele><time>2026-03-30T13:25:36.884Z</time></trkpt><trkpt lat="44.2944424" lon="11.2891712"><ele>306.0</ele><time>2026-03-30T13:25:37.874Z</time></trkpt><trkpt lat="44.2945295" lon="11.289199"><ele>305.0</ele><time>2026-03-30T13:25:38.872Z</time></trkpt><trkpt lat="44.2946169" lon="11.2892302"><ele>305.0</ele><time>2026-03-30T13:25:39.87Z</time></trkpt><trkpt lat="44.2947036" lon="11.2892647"><ele>305.0</ele><time>2026-03-30T13:25:40.891Z</time></trkpt><trkpt lat="44.2947902" lon="11.289301"><ele>305.0</ele><time>2026-03-30T13:25:41.877Z</time></trkpt><trkpt lat="44.294877" lon="11.2893369"><ele>305.0</ele><time>2026-03-30T13:25:42.883Z</time></trkpt><trkpt lat="44.2949649" lon="11.289374"><ele>305.0</ele><time>2026-03-30T13:25:43.87Z</time></trkpt><trkpt lat="44.2950513" lon="11.2894097"><ele>304.2</ele><time>2026-03-30T13:25:44.865Z</time></trkpt><trkpt lat="44.2951389" lon="11.2894465"><ele>303.4</ele><time>2026-03-30T13:25:45.873Z</time></trkpt><trkpt lat="44.2952265" lon="11.2894846"><ele>302.6</ele><time>2026-03-30T13:25:46.889Z</time></trkpt><trkpt lat="44.2953137" lon="11.2895229"><ele>301.8</ele><time>2026-03-30T13:25:47.868Z</time></trkpt><trkpt lat="44.2954026" lon="11.2895616"><ele>301.0</ele><time>2026-03-30T13:25:48.872Z</time></trkpt><trkpt lat="44.2954916" lon="11.2896003"><ele>301.0</ele><time>2026-03-30T13:25:49.872Z</time></trkpt><trkpt lat="44.2955813" lon="11.2896374"><ele>301.0</ele><time>2026-03-30T13:25:50.876Z</time></trkpt><trkpt lat="44.2956707" lon="11.2896757"><ele>301.0</ele><time>2026-03-30T13:25:51.875Z</time></trkpt><trkpt lat="44.2957612" lon="11.2897147"><ele>301.0</ele><time>2026-03-30T13:25:52.87Z</time></trkpt><trkpt lat="44.2958513" lon="11.2897527"><ele>301.0</ele><time>2026-03-30T13:25:53.867Z</time></trkpt><trkpt lat="44.2959404" lon="11.2897916"><ele>302.0</ele><time>2026-03-30T13:25:54.872Z</time></trkpt><trkpt lat="44.2960287" lon="11.2898294"><ele>303.0</ele><time>2026-03-30T13:25:55.871Z</time></trkpt><trkpt lat="44.2961167" lon="11.289867"><ele>304.0</ele><time>2026-03-30T13:25:56.874Z</time></trkpt><trkpt lat="44.2962039" lon="11.2899035"><ele>305.0</ele><time>2026-03-30T13:25:57.872Z</time></trkpt><trkpt lat="44.2962904" lon="11.2899391"><ele>306.0</ele><time>2026-03-30T13:25:58.87Z</time></trkpt><trkpt lat="44.2963769" lon="11.2899755"><ele>304.0</ele><time>2026-03-30T13:25:59.868Z</time></trkpt><trkpt lat="44.2964639" lon="11.2900107"><ele>302.0</ele><time>2026-03-30T13:26:00.87Z</time></trkpt><trkpt lat="44.2965508" lon="11.2900467"><ele>300.0</ele><time>2026-03-30T13:26:01.864Z</time></trkpt><trkpt lat="44.2966372" lon="11.2900839"><ele>298.0</ele><time>2026-03-30T13:26:02.876Z</time></trkpt><trkpt lat="44.2967238" lon="11.2901224"><ele>296.0</ele><time>2026-03-30T13:26:03.869Z</time></trkpt><trkpt lat="44.2968115" lon="11.2901606"><ele>296.0</ele><time>2026-03-30T13:26:04.865Z</time></trkpt><trkpt lat="44.2968987" lon="11.2901974"><ele>296.0</ele><time>2026-03-30T13:26:05.872Z</time></trkpt><trkpt lat="44.296986" lon="11.2902342"><ele>296.0</ele><time>2026-03-30T13:26:06.886Z</time></trkpt><trkpt lat="44.2970716" lon="11.2902709"><ele>296.0</ele><time>2026-03-30T13:26:07.876Z</time></trkpt><trkpt lat="44.297159" lon="11.2903069"><ele>296.0</ele><time>2026-03-30T13:26:08.869Z</time></trkpt><trkpt lat="44.2972462" lon="11.290344"><ele>296.0</ele><time>2026-03-30T13:26:09.892Z</time></trkpt><trkpt lat="44.2973331" lon="11.2903804"><ele>296.0</ele><time>2026-03-30T13:26:10.868Z</time></trkpt><trkpt lat="44.2974191" lon="11.2904186"><ele>296.0</ele><time>2026-03-30T13:26:11.878Z</time></trkpt><trkpt lat="44.2975046" lon="11.2904558"><ele>296.0</ele><time>2026-03-30T13:26:12.877Z</time></trkpt><trkpt lat="44.2975907" lon="11.2904916"><ele>296.0</ele><time>2026-03-30T13:26:13.873Z</time></trkpt><trkpt lat="44.2976758" lon="11.2905292"><ele>296.0</ele><time>2026-03-30T13:26:14.876Z</time></trkpt><trkpt lat="44.2977604" lon="11.2905647"><ele>296.0</ele><time>2026-03-30T13:26:15.87Z</time></trkpt><trkpt lat="44.2978444" lon="11.2906003"><ele>296.0</ele><time>2026-03-30T13:26:16.879Z</time></trkpt><trkpt lat="44.2979275" lon="11.2906359"><ele>296.0</ele><time>2026-03-30T13:26:17.876Z</time></trkpt><trkpt lat="44.2980097" lon="11.2906716"><ele>296.0</ele><time>2026-03-30T13:26:18.876Z</time></trkpt><trkpt lat="44.298092" lon="11.2907074"><ele>296.0</ele><time>2026-03-30T13:26:19.88Z</time></trkpt><trkpt lat="44.2981744" lon="11.2907424"><ele>296.40000000000003</ele><time>2026-03-30T13:26:20.865Z</time></trkpt><trkpt lat="44.298264" lon="11.2907799"><ele>296.8</ele><time>2026-03-30T13:26:21.878Z</time></trkpt><trkpt lat="44.2983507" lon="11.2908153"><ele>297.20000000000005</ele><time>2026-03-30T13:26:22.872Z</time></trkpt><trkpt lat="44.2984374" lon="11.2908521"><ele>297.6</ele><time>2026-03-30T13:26:23.878Z</time></trkpt><trkpt lat="44.2985235" lon="11.2908872"><ele>298.0</ele><time>2026-03-30T13:26:24.869Z</time></trkpt><trkpt lat="44.2986087" lon="11.2909216"><ele>298.0</ele><time>2026-03-30T13:26:25.873Z</time></trkpt><trkpt lat="44.2986935" lon="11.2909564"><ele>298.0</ele><time>2026-03-30T13:26:26.876Z</time></trkpt><trkpt lat="44.2987759" lon="11.290991"><ele>298.0</ele><time>2026-03-30T13:26:27.871Z</time></trkpt><trkpt lat="44.2988597" lon="11.2910267"><ele>298.0</ele><time>2026-03-30T13:26:28.869Z</time></trkpt><trkpt lat="44.2989416" lon="11.2910635"><ele>298.0</ele><time>2026-03-30T13:26:29.871Z</time></trkpt><trkpt lat="44.2990263" lon="11.2910994"><ele>298.0</ele><time>2026-03-30T13:26:30.874Z</time></trkpt><trkpt lat="44.299112" lon="11.2911362"><ele>297.3333333333333</ele><time>2026-03-30T13:26:31.873Z</time></trkpt><trkpt lat="44.2991975" lon="11.2911741"><ele>296.66666666666663</ele><time>2026-03-30T13:26:32.872Z</time></trkpt><trkpt lat="44.2992829" lon="11.2912099"><ele>296.0</ele><time>2026-03-30T13:26:33.869Z</time></trkpt><trkpt lat="44.2993671" lon="11.2912463"><ele>295.3333333333333</ele><time>2026-03-30T13:26:34.87Z</time></trkpt><trkpt lat="44.299451" lon="11.2912804"><ele>294.6666666666667</ele><time>2026-03-30T13:26:35.868Z</time></trkpt><trkpt lat="44.2995334" lon="11.2913177"><ele>294.0</ele><time>2026-03-30T13:26:36.882Z</time></trkpt><trkpt lat="44.2996178" lon="11.2913551"><ele>294.0</ele><time>2026-03-30T13:26:37.87Z</time></trkpt><trkpt lat="44.2997011" lon="11.2913899"><ele>294.0</ele><time>2026-03-30T13:26:38.873Z</time></trkpt><trkpt lat="44.2997833" lon="11.2914247"><ele>294.0</ele><time>2026-03-30T13:26:39.885Z</time></trkpt><trkpt lat="44.2998666" lon="11.2914605"><ele>294.0</ele><time>2026-03-30T13:26:40.874Z</time></trkpt><trkpt lat="44.2999494" lon="11.2914963"><ele>294.0</ele><time>2026-03-30T13:26:41.873Z</time></trkpt><trkpt lat="44.300033" lon="11.2915319"><ele>294.0</ele><time>2026-03-30T13:26:42.871Z</time></trkpt><trkpt lat="44.3001156" lon="11.2915663"><ele>293.6666666666667</ele><time>2026-03-30T13:26:43.868Z</time></trkpt><trkpt lat="44.3001974" lon="11.2916"><ele>293.3333333333333</ele><time>2026-03-30T13:26:44.869Z</time></trkpt><trkpt lat="44.3002791" lon="11.2916342"><ele>293.0</ele><time>2026-03-30T13:26:45.87Z</time></trkpt><trkpt lat="44.3003602" lon="11.291671"><ele>292.66666666666663</ele><time>2026-03-30T13:26:46.876Z</time></trkpt><trkpt lat="44.3004421" lon="11.2917065"><ele>292.3333333333333</ele><time>2026-03-30T13:26:47.866Z</time></trkpt><trkpt lat="44.3005235" lon="11.2917416"><ele>292.0</ele><time>2026-03-30T13:26:48.869Z</time></trkpt><trkpt lat="44.3006033" lon="11.291776"><ele>292.0</ele><time>2026-03-30T13:26:49.872Z</time></trkpt><trkpt lat="44.3006837" lon="11.2918104"><ele>292.0</ele><time>2026-03-30T13:26:50.87Z</time></trkpt><trkpt lat="44.3007648" lon="11.2918431"><ele>292.0</ele><time>2026-03-30T13:26:51.869Z</time></trkpt><trkpt lat="44.3008444" lon="11.291875"><ele>292.0</ele><time>2026-03-30T13:26:52.873Z</time></trkpt><trkpt lat="44.300928" lon="11.2919072"><ele>292.0</ele><time>2026-03-30T13:26:53.872Z</time></trkpt><trkpt lat="44.3010089" lon="11.2919339"><ele>292.0</ele><time>2026-03-30T13:26:54.872Z</time></trkpt><trkpt lat="44.3010881" lon="11.2919514"><ele>292.0</ele><time>2026-03-30T13:26:55.884Z</time></trkpt><trkpt lat="44.3011687" lon="11.2919628"><ele>292.0</ele><time>2026-03-30T13:26:56.866Z</time></trkpt><trkpt lat="44.3012474" lon="11.2919704"><ele>292.0</ele><time>2026-03-30T13:26:57.869Z</time></trkpt><trkpt lat="44.3013235" lon="11.291975"><ele>292.0</ele><time>2026-03-30T13:26:58.872Z</time></trkpt><trkpt lat="44.3013972" lon="11.2919743"><ele>292.0</ele><time>2026-03-30T13:26:59.878Z</time></trkpt><trkpt lat="44.3014719" lon="11.2919665"><ele>292.0</ele><time>2026-03-30T13:27:00.883Z</time></trkpt><trkpt lat="44.3015489" lon="11.291953"><ele>291.8333333333333</ele><time>2026-03-30T13:27:01.881Z</time></trkpt><trkpt lat="44.3016271" lon="11.2919337"><ele>291.66666666666663</ele><time>2026-03-30T13:27:02.864Z</time></trkpt><trkpt lat="44.3017047" lon="11.2919106"><ele>291.5</ele><time>2026-03-30T13:27:03.867Z</time></trkpt><trkpt lat="44.3017813" lon="11.2918822"><ele>291.3333333333333</ele><time>2026-03-30T13:27:04.876Z</time></trkpt><trkpt lat="44.3018591" lon="11.2918521"><ele>291.1666666666667</ele><time>2026-03-30T13:27:05.888Z</time></trkpt><trkpt lat="44.3019318" lon="11.2918252"><ele>291.0</ele><time>2026-03-30T13:27:06.875Z</time></trkpt><trkpt lat="44.3020136" lon="11.2917969"><ele>291.0</ele><time>2026-03-30T13:27:07.879Z</time></trkpt><trkpt lat="44.3020922" lon="11.2917677"><ele>291.0</ele><time>2026-03-30T13:27:08.876Z</time></trkpt><trkpt lat="44.3021706" lon="11.2917407"><ele>291.0</ele><time>2026-03-30T13:27:09.873Z</time></trkpt><trkpt lat="44.3022487" lon="11.2917111"><ele>291.0</ele><time>2026-03-30T13:27:10.868Z</time></trkpt><trkpt lat="44.3023265" lon="11.2916826"><ele>291.0</ele><time>2026-03-30T13:27:11.872Z</time></trkpt><trkpt lat="44.302405" lon="11.2916553"><ele>291.0</ele><time>2026-03-30T13:27:12.875Z</time></trkpt><trkpt lat="44.3024818" lon="11.2916277"><ele>291.6666666666667</ele><time>2026-03-30T13:27:13.878Z</time></trkpt><trkpt lat="44.3025599" lon="11.2915994"><ele>292.3333333333333</ele><time>2026-03-30T13:27:14.869Z</time></trkpt><trkpt lat="44.3026389" lon="11.2915714"><ele>293.0</ele><time>2026-03-30T13:27:15.873Z</time></trkpt><trkpt lat="44.3027181" lon="11.2915437"><ele>293.66666666666663</ele><time>2026-03-30T13:27:16.886Z</time></trkpt><trkpt lat="44.3027981" lon="11.291518"><ele>294.3333333333333</ele><time>2026-03-30T13:27:17.875Z</time></trkpt><trkpt lat="44.3028769" lon="11.2914899"><ele>295.0</ele><time>2026-03-30T13:27:18.88Z</time></trkpt><trkpt lat="44.3029568" lon="11.2914616"><ele>295.0</ele><time>2026-03-30T13:27:19.881Z</time></trkpt><trkpt lat="44.3030322" lon="11.2914306"><ele>295.0</ele><time>2026-03-30T13:27:20.885Z</time></trkpt><trkpt lat="44.3031053" lon="11.2914043"><ele>295.0</ele><time>2026-03-30T13:27:21.881Z</time></trkpt><trkpt lat="44.3031813" lon="11.291375"><ele>295.0</ele><time>2026-03-30T13:27:22.877Z</time></trkpt><trkpt lat="44.3032586" lon="11.2913449"><ele>295.0</ele><time>2026-03-30T13:27:23.872Z</time></trkpt><trkpt lat="44.3033373" lon="11.2913089"><ele>295.0</ele><time>2026-03-30T13:27:24.879Z</time></trkpt><trkpt lat="44.3034167" lon="11.2912703"><ele>293.8333333333333</ele><time>2026-03-30T13:27:25.879Z</time></trkpt><trkpt lat="44.3034935" lon="11.2912335"><ele>292.66666666666663</ele><time>2026-03-30T13:27:26.873Z</time></trkpt><trkpt lat="44.3035642" lon="11.2911986"><ele>291.5</ele><time>2026-03-30T13:27:27.875Z</time></trkpt><trkpt lat="44.3036361" lon="11.2911609"><ele>290.3333333333333</ele><time>2026-03-30T13:27:28.879Z</time></trkpt><trkpt lat="44.3037105" lon="11.2911273"><ele>289.1666666666667</ele><time>2026-03-30T13:27:29.874Z</time></trkpt><trkpt lat="44.3037786" lon="11.2910927"><ele>288.0</ele><time>2026-03-30T13:27:30.881Z</time></trkpt><trkpt lat="44.3038522" lon="11.2910569"><ele>288.6666666666667</ele><time>2026-03-30T13:27:31.88Z</time></trkpt><trkpt lat="44.3039243" lon="11.2910227"><ele>289.3333333333333</ele><time>2026-03-30T13:27:32.872Z</time></trkpt><trkpt lat="44.3040018" lon="11.2909865"><ele>290.0</ele><time>2026-03-30T13:27:33.884Z</time></trkpt><trkpt lat="44.3040766" lon="11.2909524"><ele>290.66666666666663</ele><time>2026-03-30T13:27:34.875Z</time></trkpt><trkpt lat="44.3041517" lon="11.2909174"><ele>291.3333333333333</ele><time>2026-03-30T13:27:35.874Z</time></trkpt><trkpt lat="44.3042252" lon="11.2908816"><ele>292.0</ele><time>2026-03-30T13:27:36.882Z</time></trkpt><trkpt lat="44.3042993" lon="11.2908438"><ele>292.0</ele><time>2026-03-30T13:27:37.889Z</time></trkpt><trkpt lat="44.3043722" lon="11.2908001"><ele>292.0</ele><time>2026-03-30T13:27:38.876Z</time></trkpt><trkpt lat="44.3044446" lon="11.2907521"><ele>292.0</ele><time>2026-03-30T13:27:39.879Z</time></trkpt><trkpt lat="44.3045151" lon="11.2907013"><ele>292.0</ele><time>2026-03-30T13:27:40.872Z</time></trkpt><trkpt lat="44.3045863" lon="11.2906488"><ele>292.0</ele><time>2026-03-30T13:27:41.872Z</time></trkpt><trkpt lat="44.3046557" lon="11.2905952"><ele>292.0</ele><time>2026-03-30T13:27:42.864Z</time></trkpt><trkpt lat="44.3047219" lon="11.2905387"><ele>290.8333333333333</ele><time>2026-03-30T13:27:43.873Z</time></trkpt><trkpt lat="44.3047898" lon="11.2904794"><ele>289.66666666666663</ele><time>2026-03-30T13:27:44.862Z</time></trkpt><trkpt lat="44.304856" lon="11.2904177"><ele>288.5</ele><time>2026-03-30T13:27:45.877Z</time></trkpt><trkpt lat="44.304922" lon="11.290352"><ele>287.3333333333333</ele><time>2026-03-30T13:27:46.882Z</time></trkpt><trkpt lat="44.3049886" lon="11.2902868"><ele>286.1666666666667</ele><time>2026-03-30T13:27:47.885Z</time></trkpt><trkpt lat="44.305055" lon="11.2902234"><ele>285.0</ele><time>2026-03-30T13:27:48.866Z</time></trkpt><trkpt lat="44.3051219" lon="11.290158"><ele>285.0</ele><time>2026-03-30T13:27:49.872Z</time></trkpt><trkpt lat="44.3051874" lon="11.2900928"><ele>285.0</ele><time>2026-03-30T13:27:50.877Z</time></trkpt><trkpt lat="44.3052565" lon="11.2900306"><ele>285.0</ele><time>2026-03-30T13:27:51.865Z</time></trkpt><trkpt lat="44.3053263" lon="11.2899714"><ele>285.0</ele><time>2026-03-30T13:27:52.874Z</time></trkpt><trkpt lat="44.3053962" lon="11.2899192"><ele>285.0</ele><time>2026-03-30T13:27:53.875Z</time></trkpt><trkpt lat="44.3054684" lon="11.2898697"><ele>285.0</ele><time>2026-03-30T13:27:54.865Z</time></trkpt><trkpt lat="44.3055408" lon="11.2898257"><ele>285.1666666666667</ele><time>2026-03-30T13:27:55.88Z</time></trkpt><trkpt lat="44.3056174" lon="11.2897772"><ele>285.3333333333333</ele><time>2026-03-30T13:27:56.87Z</time></trkpt><trkpt lat="44.3056989" lon="11.2897361"><ele>285.5</ele><time>2026-03-30T13:27:57.879Z</time></trkpt><trkpt lat="44.3057783" lon="11.2897086"><ele>285.66666666666663</ele><time>2026-03-30T13:27:58.881Z</time></trkpt><trkpt lat="44.3058538" lon="11.2896884"><ele>285.8333333333333</ele><time>2026-03-30T13:27:59.878Z</time></trkpt><trkpt lat="44.3059304" lon="11.2896717"><ele>286.0</ele><time>2026-03-30T13:28:00.865Z</time></trkpt><trkpt lat="44.3060057" lon="11.2896613"><ele>285.8333333333333</ele><time>2026-03-30T13:28:01.879Z</time></trkpt><trkpt lat="44.3060848" lon="11.2896561"><ele>285.66666666666663</ele><time>2026-03-30T13:28:02.871Z</time></trkpt><trkpt lat="44.3061639" lon="11.2896529"><ele>285.5</ele><time>2026-03-30T13:28:03.872Z</time></trkpt><trkpt lat="44.3062399" lon="11.2896536"><ele>285.3333333333333</ele><time>2026-03-30T13:28:04.873Z</time></trkpt><trkpt lat="44.306314" lon="11.2896587"><ele>285.1666666666667</ele><time>2026-03-30T13:28:05.873Z</time></trkpt><trkpt lat="44.3063812" lon="11.2896619"><ele>285.0</ele><time>2026-03-30T13:28:06.875Z</time></trkpt><trkpt lat="44.3064626" lon="11.2896741"><ele>285.0</ele><time>2026-03-30T13:28:07.874Z</time></trkpt><trkpt lat="44.3065454" lon="11.2896939"><ele>285.0</ele><time>2026-03-30T13:28:08.877Z</time></trkpt><trkpt lat="44.3066203" lon="11.289715"><ele>285.0</ele><time>2026-03-30T13:28:09.88Z</time></trkpt><trkpt lat="44.3066965" lon="11.2897398"><ele>285.0</ele><time>2026-03-30T13:28:10.877Z</time></trkpt><trkpt lat="44.3067708" lon="11.289777"><ele>285.0</ele><time>2026-03-30T13:28:11.874Z</time></trkpt><trkpt lat="44.3068437" lon="11.2898227"><ele>285.0</ele><time>2026-03-30T13:28:12.885Z</time></trkpt><trkpt lat="44.3069164" lon="11.2898741"><ele>285.1666666666667</ele><time>2026-03-30T13:28:13.873Z</time></trkpt><trkpt lat="44.3069865" lon="11.2899298"><ele>285.3333333333333</ele><time>2026-03-30T13:28:14.877Z</time></trkpt><trkpt lat="44.3070508" lon="11.2899883"><ele>285.5</ele><time>2026-03-30T13:28:15.876Z</time></trkpt><trkpt lat="44.3071125" lon="11.290049"><ele>285.66666666666663</ele><time>2026-03-30T13:28:16.87Z</time></trkpt><trkpt lat="44.3071726" lon="11.2901138"><ele>285.8333333333333</ele><time>2026-03-30T13:28:17.869Z</time></trkpt><trkpt lat="44.3072408" lon="11.2901867"><ele>286.0</ele><time>2026-03-30T13:28:18.866Z</time></trkpt><trkpt lat="44.3073086" lon="11.2902676"><ele>285.66666666666663</ele><time>2026-03-30T13:28:19.882Z</time></trkpt><trkpt lat="44.3073708" lon="11.2903455"><ele>285.3333333333333</ele><time>2026-03-30T13:28:20.875Z</time></trkpt><trkpt lat="44.3074422" lon="11.2904333"><ele>285.0</ele><time>2026-03-30T13:28:21.874Z</time></trkpt><trkpt lat="44.3075099" lon="11.2905219"><ele>284.6666666666667</ele><time>2026-03-30T13:28:22.875Z</time></trkpt><trkpt lat="44.3075743" lon="11.2906072"><ele>284.33333333333337</ele><time>2026-03-30T13:28:23.865Z</time></trkpt><trkpt lat="44.3076368" lon="11.2906888"><ele>284.0</ele><time>2026-03-30T13:28:24.88Z</time></trkpt><trkpt lat="44.3077007" lon="11.2907669"><ele>283.6666666666667</ele><time>2026-03-30T13:28:25.881Z</time></trkpt><trkpt lat="44.3077636" lon="11.2908434"><ele>283.33333333333337</ele><time>2026-03-30T13:28:26.877Z</time></trkpt><trkpt lat="44.3078259" lon="11.2909204"><ele>283.0</ele><time>2026-03-30T13:28:27.877Z</time></trkpt><trkpt lat="44.3078879" lon="11.2909988"><ele>282.6666666666667</ele><time>2026-03-30T13:28:28.875Z</time></trkpt><trkpt lat="44.3079488" lon="11.2910765"><ele>282.3333333333333</ele><time>2026-03-30T13:28:29.875Z</time></trkpt><trkpt lat="44.308011" lon="11.2911518"><ele>282.0</ele><time>2026-03-30T13:28:30.882Z</time></trkpt><trkpt lat="44.308074" lon="11.291223"><ele>282.1666666666667</ele><time>2026-03-30T13:28:31.882Z</time></trkpt><trkpt lat="44.3081378" lon="11.2912905"><ele>282.3333333333333</ele><time>2026-03-30T13:28:32.874Z</time></trkpt><trkpt lat="44.3082039" lon="11.2913518"><ele>282.5</ele><time>2026-03-30T13:28:33.878Z</time></trkpt><trkpt lat="44.3082735" lon="11.2914065"><ele>282.66666666666663</ele><time>2026-03-30T13:28:34.873Z</time></trkpt><trkpt lat="44.3083452" lon="11.2914516"><ele>282.8333333333333</ele><time>2026-03-30T13:28:35.878Z</time></trkpt><trkpt lat="44.3084178" lon="11.2914873"><ele>283.0</ele><time>2026-03-30T13:28:36.877Z</time></trkpt><trkpt lat="44.308493" lon="11.2915124"><ele>283.0</ele><time>2026-03-30T13:28:37.876Z</time></trkpt><trkpt lat="44.3085701" lon="11.291531"><ele>283.0</ele><time>2026-03-30T13:28:38.878Z</time></trkpt><trkpt lat="44.308647" lon="11.2915414"><ele>283.0</ele><time>2026-03-30T13:28:39.878Z</time></trkpt><trkpt lat="44.3087209" lon="11.2915448"><ele>283.0</ele><time>2026-03-30T13:28:40.873Z</time></trkpt><trkpt lat="44.3087933" lon="11.2915401"><ele>283.0</ele><time>2026-03-30T13:28:41.874Z</time></trkpt><trkpt lat="44.3088661" lon="11.291528"><ele>283.0</ele><time>2026-03-30T13:28:42.868Z</time></trkpt><trkpt lat="44.3089371" lon="11.2915112"><ele>283.0</ele><time>2026-03-30T13:28:43.87Z</time></trkpt><trkpt lat="44.309008" lon="11.2914884"><ele>283.8571428571429</ele><time>2026-03-30T13:28:44.871Z</time></trkpt><trkpt lat="44.3090777" lon="11.291465"><ele>284.7142857142857</ele><time>2026-03-30T13:28:45.868Z</time></trkpt><trkpt lat="44.3091475" lon="11.2914415"><ele>285.57142857142856</ele><time>2026-03-30T13:28:46.859Z</time></trkpt><trkpt lat="44.3092176" lon="11.2914195"><ele>286.42857142857144</ele><time>2026-03-30T13:28:47.863Z</time></trkpt><trkpt lat="44.3092876" lon="11.2913985"><ele>287.2857142857143</ele><time>2026-03-30T13:28:48.873Z</time></trkpt><trkpt lat="44.3093545" lon="11.2913763"><ele>288.14285714285717</ele><time>2026-03-30T13:28:49.882Z</time></trkpt><trkpt lat="44.3094208" lon="11.291355"><ele>289.0</ele><time>2026-03-30T13:28:50.859Z</time></trkpt><trkpt lat="44.3094883" lon="11.2913339"><ele>287.7142857142857</ele><time>2026-03-30T13:28:51.879Z</time></trkpt><trkpt lat="44.3095559" lon="11.2913109"><ele>286.42857142857144</ele><time>2026-03-30T13:28:52.878Z</time></trkpt><trkpt lat="44.3096242" lon="11.2912898"><ele>285.1428571428571</ele><time>2026-03-30T13:28:53.866Z</time></trkpt><trkpt lat="44.3096925" lon="11.2912668"><ele>283.8571428571429</ele><time>2026-03-30T13:28:54.88Z</time></trkpt><trkpt lat="44.3097607" lon="11.2912444"><ele>282.57142857142856</ele><time>2026-03-30T13:28:55.866Z</time></trkpt><trkpt lat="44.3098293" lon="11.2912212"><ele>281.2857142857143</ele><time>2026-03-30T13:28:56.874Z</time></trkpt><trkpt lat="44.3098988" lon="11.2911992"><ele>280.0</ele><time>2026-03-30T13:28:57.887Z</time></trkpt><trkpt lat="44.309968" lon="11.2911762"><ele>280.0</ele><time>2026-03-30T13:28:58.876Z</time></trkpt><trkpt lat="44.3100391" lon="11.2911538"><ele>280.0</ele><time>2026-03-30T13:28:59.879Z</time></trkpt><trkpt lat="44.3101108" lon="11.2911328"><ele>280.0</ele><time>2026-03-30T13:29:00.878Z</time></trkpt><trkpt lat="44.3101839" lon="11.2911118"><ele>280.0</ele><time>2026-03-30T13:29:01.898Z</time></trkpt><trkpt lat="44.3102565" lon="11.2910912"><ele>280.0</ele><time>2026-03-30T13:29:02.876Z</time></trkpt><trkpt lat="44.3103299" lon="11.2910727"><ele>280.0</ele><time>2026-03-30T13:29:03.872Z</time></trkpt><trkpt lat="44.3104036" lon="11.2910557"><ele>280.0</ele><time>2026-03-30T13:29:04.868Z</time></trkpt><trkpt lat="44.3104782" lon="11.2910449"><ele>280.0</ele><time>2026-03-30T13:29:05.872Z</time></trkpt><trkpt lat="44.3105538" lon="11.2910394"><ele>280.0</ele><time>2026-03-30T13:29:06.876Z</time></trkpt><trkpt lat="44.3106299" lon="11.2910371"><ele>280.0</ele><time>2026-03-30T13:29:07.881Z</time></trkpt><trkpt lat="44.3107052" lon="11.2910373"><ele>280.0</ele><time>2026-03-30T13:29:08.88Z</time></trkpt><trkpt lat="44.31078" lon="11.2910413"><ele>280.0</ele><time>2026-03-30T13:29:09.866Z</time></trkpt><trkpt lat="44.3108548" lon="11.2910486"><ele>280.0</ele><time>2026-03-30T13:29:10.879Z</time></trkpt><trkpt lat="44.3109286" lon="11.2910585"><ele>280.3333333333333</ele><time>2026-03-30T13:29:11.871Z</time></trkpt><trkpt lat="44.3110025" lon="11.291074"><ele>280.66666666666663</ele><time>2026-03-30T13:29:12.871Z</time></trkpt><trkpt lat="44.3110764" lon="11.2910895"><ele>281.0</ele><time>2026-03-30T13:29:13.872Z</time></trkpt><trkpt lat="44.3111425" lon="11.2911023"><ele>281.3333333333333</ele><time>2026-03-30T13:29:14.878Z</time></trkpt><trkpt lat="44.3112551" lon="11.2911278"><ele>281.6666666666667</ele><time>2026-03-30T13:29:16.881Z</time></trkpt><trkpt lat="44.3113175" lon="11.2911474"><ele>282.0</ele><time>2026-03-30T13:29:17.872Z</time></trkpt><trkpt lat="44.3114226" lon="11.2911713"><ele>282.5</ele><time>2026-03-30T13:29:19.886Z</time></trkpt><trkpt lat="44.3115697" lon="11.2912129"><ele>283.0</ele><time>2026-03-30T13:29:21.875Z</time></trkpt><trkpt lat="44.3116551" lon="11.2912499"><ele>283.5</ele><time>2026-03-30T13:29:22.882Z</time></trkpt><trkpt lat="44.3117255" lon="11.291274"><ele>284.0</ele><time>2026-03-30T13:29:23.864Z</time></trkpt><trkpt lat="44.3118641" lon="11.2913389"><ele>284.0</ele><time>2026-03-30T13:29:25.87Z</time></trkpt><trkpt lat="44.3119432" lon="11.2913832"><ele>284.0</ele><time>2026-03-30T13:29:26.878Z</time></trkpt><trkpt lat="44.3120207" lon="11.2914482"><ele>284.0</ele><time>2026-03-30T13:29:27.876Z</time></trkpt><trkpt lat="44.3120933" lon="11.2915289"><ele>284.0</ele><time>2026-03-30T13:29:28.879Z</time></trkpt><trkpt lat="44.3121597" lon="11.2916179"><ele>284.0</ele><time>2026-03-30T13:29:29.886Z</time></trkpt><trkpt lat="44.3122136" lon="11.2916941"><ele>284.0</ele><time>2026-03-30T13:29:30.879Z</time></trkpt><trkpt lat="44.3122758" lon="11.2917825"><ele>285.33333333333337</ele><time>2026-03-30T13:29:31.884Z</time></trkpt><trkpt lat="44.3123357" lon="11.2918718"><ele>286.6666666666667</ele><time>2026-03-30T13:29:32.877Z</time></trkpt><trkpt lat="44.3123936" lon="11.291961"><ele>288.0</ele><time>2026-03-30T13:29:33.872Z</time></trkpt><trkpt lat="44.3124513" lon="11.2920472"><ele>289.3333333333333</ele><time>2026-03-30T13:29:34.871Z</time></trkpt><trkpt lat="44.3125108" lon="11.2921334"><ele>290.66666666666663</ele><time>2026-03-30T13:29:35.872Z</time></trkpt><trkpt lat="44.3125748" lon="11.2922177"><ele>292.0</ele><time>2026-03-30T13:29:36.875Z</time></trkpt><trkpt lat="44.3126391" lon="11.2923061"><ele>292.0</ele><time>2026-03-30T13:29:37.882Z</time></trkpt><trkpt lat="44.3127065" lon="11.292393"><ele>292.0</ele><time>2026-03-30T13:29:38.88Z</time></trkpt><trkpt lat="44.3127699" lon="11.2924558"><ele>292.0</ele><time>2026-03-30T13:29:39.874Z</time></trkpt><trkpt lat="44.3128344" lon="11.2925079"><ele>292.0</ele><time>2026-03-30T13:29:40.871Z</time></trkpt><trkpt lat="44.3129035" lon="11.2925575"><ele>292.0</ele><time>2026-03-30T13:29:41.864Z</time></trkpt><trkpt lat="44.3129707" lon="11.2925985"><ele>292.0</ele><time>2026-03-30T13:29:42.869Z</time></trkpt><trkpt lat="44.3130374" lon="11.2926422"><ele>292.8333333333333</ele><time>2026-03-30T13:29:43.883Z</time></trkpt><trkpt lat="44.3131051" lon="11.2926906"><ele>293.66666666666663</ele><time>2026-03-30T13:29:44.884Z</time></trkpt><trkpt lat="44.3131738" lon="11.2927398"><ele>294.5</ele><time>2026-03-30T13:29:45.88Z</time></trkpt><trkpt lat="44.3132462" lon="11.2927932"><ele>295.3333333333333</ele><time>2026-03-30T13:29:46.876Z</time></trkpt><trkpt lat="44.3133131" lon="11.2928407"><ele>296.1666666666667</ele><time>2026-03-30T13:29:47.884Z</time></trkpt><trkpt lat="44.3133812" lon="11.2928866"><ele>297.0</ele><time>2026-03-30T13:29:48.879Z</time></trkpt><trkpt lat="44.3134578" lon="11.2929458"><ele>297.0</ele><time>2026-03-30T13:29:49.867Z</time></trkpt><trkpt lat="44.31353" lon="11.2929948"><ele>297.0</ele><time>2026-03-30T13:29:50.882Z</time></trkpt><trkpt lat="44.3135975" lon="11.2930502"><ele>297.0</ele><time>2026-03-30T13:29:51.88Z</time></trkpt><trkpt lat="44.3136647" lon="11.2931076"><ele>297.0</ele><time>2026-03-30T13:29:52.876Z</time></trkpt><trkpt lat="44.3137299" lon="11.2931627"><ele>297.0</ele><time>2026-03-30T13:29:53.873Z</time></trkpt><trkpt lat="44.3137944" lon="11.2932157"><ele>297.0</ele><time>2026-03-30T13:29:54.875Z</time></trkpt><trkpt lat="44.3138565" lon="11.2932721"><ele>299.8333333333333</ele><time>2026-03-30T13:29:55.869Z</time></trkpt><trkpt lat="44.313916" lon="11.2933355"><ele>302.6666666666667</ele><time>2026-03-30T13:29:56.881Z</time></trkpt><trkpt lat="44.3139783" lon="11.2934007"><ele>305.5</ele><time>2026-03-30T13:29:57.861Z</time></trkpt><trkpt lat="44.3140318" lon="11.2934826"><ele>308.33333333333337</ele><time>2026-03-30T13:29:58.879Z</time></trkpt><trkpt lat="44.3140796" lon="11.2935722"><ele>311.1666666666667</ele><time>2026-03-30T13:29:59.872Z</time></trkpt><trkpt lat="44.3141178" lon="11.2936678"><ele>314.0</ele><time>2026-03-30T13:30:00.878Z</time></trkpt><trkpt lat="44.314164" lon="11.2937819"><ele>314.0</ele><time>2026-03-30T13:30:01.875Z</time></trkpt><trkpt lat="44.3141904" lon="11.2938986"><ele>314.0</ele><time>2026-03-30T13:30:02.874Z</time></trkpt><trkpt lat="44.3142059" lon="11.2940076"><ele>314.0</ele><time>2026-03-30T13:30:03.878Z</time></trkpt><trkpt lat="44.314213" lon="11.2941143"><ele>314.0</ele><time>2026-03-30T13:30:04.873Z</time></trkpt><trkpt lat="44.3142141" lon="11.2942199"><ele>314.0</ele><time>2026-03-30T13:30:05.881Z</time></trkpt><trkpt lat="44.3142133" lon="11.2943253"><ele>314.0</ele><time>2026-03-30T13:30:06.877Z</time></trkpt><trkpt lat="44.3142104" lon="11.2944343"><ele>311.2857142857143</ele><time>2026-03-30T13:30:07.863Z</time></trkpt><trkpt lat="44.3142043" lon="11.2945414"><ele>308.57142857142856</ele><time>2026-03-30T13:30:08.874Z</time></trkpt><trkpt lat="44.3141913" lon="11.2946346"><ele>305.8571428571429</ele><time>2026-03-30T13:30:09.865Z</time></trkpt><trkpt lat="44.3141823" lon="11.2947297"><ele>303.1428571428571</ele><time>2026-03-30T13:30:10.865Z</time></trkpt><trkpt lat="44.3141741" lon="11.2948275"><ele>300.42857142857144</ele><time>2026-03-30T13:30:11.869Z</time></trkpt><trkpt lat="44.3141649" lon="11.2949213"><ele>297.7142857142857</ele><time>2026-03-30T13:30:12.878Z</time></trkpt><trkpt lat="44.3141606" lon="11.2950169"><ele>295.0</ele><time>2026-03-30T13:30:13.875Z</time></trkpt><trkpt lat="44.3141586" lon="11.2951105"><ele>295.28571428571433</ele><time>2026-03-30T13:30:14.869Z</time></trkpt><trkpt lat="44.3141667" lon="11.2952064"><ele>295.57142857142856</ele><time>2026-03-30T13:30:15.879Z</time></trkpt><trkpt lat="44.3141822" lon="11.2952954"><ele>295.8571428571429</ele><time>2026-03-30T13:30:16.87Z</time></trkpt><trkpt lat="44.3142069" lon="11.295383"><ele>296.14285714285717</ele><time>2026-03-30T13:30:17.876Z</time></trkpt><trkpt lat="44.3142375" lon="11.2954633"><ele>296.42857142857144</ele><time>2026-03-30T13:30:18.868Z</time></trkpt><trkpt lat="44.3142741" lon="11.2955364"><ele>296.7142857142857</ele><time>2026-03-30T13:30:19.864Z</time></trkpt><trkpt lat="44.3143539" lon="11.2956408"><ele>297.0</ele><time>2026-03-30T13:30:21.864Z</time></trkpt><trkpt lat="44.3144208" lon="11.2956957"><ele>297.0</ele><time>2026-03-30T13:30:23.872Z</time></trkpt><trkpt lat="44.3145122" lon="11.295701"><ele>297.0</ele><time>2026-03-30T13:30:25.867Z</time></trkpt><trkpt lat="44.3146142" lon="11.2956857"><ele>297.0</ele><time>2026-03-30T13:30:27.87Z</time></trkpt><trkpt lat="44.3147239" lon="11.2956909"><ele>297.0</ele><time>2026-03-30T13:30:29.874Z</time></trkpt><trkpt lat="44.3147898" lon="11.2957058"><ele>297.0</ele><time>2026-03-30T13:30:30.873Z</time></trkpt><trkpt lat="44.3148604" lon="11.2957466"><ele>297.0</ele><time>2026-03-30T13:30:31.88Z</time></trkpt><trkpt lat="44.3149274" lon="11.2957943"><ele>297.6666666666667</ele><time>2026-03-30T13:30:32.868Z</time></trkpt><trkpt lat="44.3149939" lon="11.2958446"><ele>298.3333333333333</ele><time>2026-03-30T13:30:33.86Z</time></trkpt><trkpt lat="44.3150567" lon="11.2959067"><ele>299.0</ele><time>2026-03-30T13:30:34.868Z</time></trkpt><trkpt lat="44.3151163" lon="11.2959806"><ele>299.66666666666663</ele><time>2026-03-30T13:30:35.862Z</time></trkpt><trkpt lat="44.3151769" lon="11.2960672"><ele>300.3333333333333</ele><time>2026-03-30T13:30:36.866Z</time></trkpt><trkpt lat="44.3152317" lon="11.2961588"><ele>301.0</ele><time>2026-03-30T13:30:37.871Z</time></trkpt><trkpt lat="44.315287" lon="11.29625"><ele>301.0</ele><time>2026-03-30T13:30:38.872Z</time></trkpt><trkpt lat="44.3153416" lon="11.2963424"><ele>301.0</ele><time>2026-03-30T13:30:39.862Z</time></trkpt><trkpt lat="44.3153917" lon="11.2964448"><ele>301.0</ele><time>2026-03-30T13:30:40.862Z</time></trkpt><trkpt lat="44.3154383" lon="11.2965471"><ele>301.0</ele><time>2026-03-30T13:30:41.869Z</time></trkpt><trkpt lat="44.315482" lon="11.2966549"><ele>301.0</ele><time>2026-03-30T13:30:42.866Z</time></trkpt><trkpt lat="44.3155143" lon="11.2967672"><ele>301.0</ele><time>2026-03-30T13:30:43.876Z</time></trkpt><trkpt lat="44.3155426" lon="11.2968793"><ele>301.3333333333333</ele><time>2026-03-30T13:30:44.873Z</time></trkpt><trkpt lat="44.3155638" lon="11.2969914"><ele>301.66666666666663</ele><time>2026-03-30T13:30:45.876Z</time></trkpt><trkpt lat="44.3155852" lon="11.2971032"><ele>302.0</ele><time>2026-03-30T13:30:46.871Z</time></trkpt><trkpt lat="44.3156093" lon="11.2972115"><ele>302.3333333333333</ele><time>2026-03-30T13:30:47.871Z</time></trkpt><trkpt lat="44.3156406" lon="11.2973123"><ele>302.6666666666667</ele><time>2026-03-30T13:30:48.872Z</time></trkpt><trkpt lat="44.3156776" lon="11.2974079"><ele>303.0</ele><time>2026-03-30T13:30:49.874Z</time></trkpt><trkpt lat="44.3157219" lon="11.2974958"><ele>299.8333333333333</ele><time>2026-03-30T13:30:50.874Z</time></trkpt><trkpt lat="44.3157707" lon="11.297582"><ele>296.6666666666667</ele><time>2026-03-30T13:30:51.875Z</time></trkpt><trkpt lat="44.3158252" lon="11.2976591"><ele>293.5</ele><time>2026-03-30T13:30:52.873Z</time></trkpt><trkpt lat="44.3158829" lon="11.297732"><ele>290.33333333333337</ele><time>2026-03-30T13:30:53.877Z</time></trkpt><trkpt lat="44.3159451" lon="11.2977965"><ele>287.1666666666667</ele><time>2026-03-30T13:30:54.872Z</time></trkpt><trkpt lat="44.316011" lon="11.2978563"><ele>284.0</ele><time>2026-03-30T13:30:55.873Z</time></trkpt><trkpt lat="44.3160801" lon="11.2979083"><ele>284.0</ele><time>2026-03-30T13:30:56.874Z</time></trkpt><trkpt lat="44.3161416" lon="11.2979505"><ele>284.0</ele><time>2026-03-30T13:30:57.873Z</time></trkpt><trkpt lat="44.3162084" lon="11.2979796"><ele>284.0</ele><time>2026-03-30T13:30:58.869Z</time></trkpt><trkpt lat="44.3162775" lon="11.2980012"><ele>284.0</ele><time>2026-03-30T13:30:59.877Z</time></trkpt><trkpt lat="44.3163468" lon="11.2980123"><ele>284.0</ele><time>2026-03-30T13:31:00.872Z</time></trkpt><trkpt lat="44.3164214" lon="11.2980087"><ele>284.0</ele><time>2026-03-30T13:31:01.872Z</time></trkpt><trkpt lat="44.3164972" lon="11.2979975"><ele>284.0</ele><time>2026-03-30T13:31:02.867Z</time></trkpt><trkpt lat="44.3165771" lon="11.2979795"><ele>281.83333333333337</ele><time>2026-03-30T13:31:03.878Z</time></trkpt><trkpt lat="44.316659" lon="11.2979459"><ele>279.6666666666667</ele><time>2026-03-30T13:31:04.872Z</time></trkpt><trkpt lat="44.3167329" lon="11.2978982"><ele>277.5</ele><time>2026-03-30T13:31:05.876Z</time></trkpt><trkpt lat="44.3168028" lon="11.2978425"><ele>275.3333333333333</ele><time>2026-03-30T13:31:06.874Z</time></trkpt><trkpt lat="44.3168713" lon="11.2977861"><ele>273.16666666666663</ele><time>2026-03-30T13:31:07.879Z</time></trkpt><trkpt lat="44.3169402" lon="11.2977315"><ele>271.0</ele><time>2026-03-30T13:31:08.859Z</time></trkpt><trkpt lat="44.3170096" lon="11.2976846"><ele>271.0</ele><time>2026-03-30T13:31:09.866Z</time></trkpt><trkpt lat="44.3170824" lon="11.2976504"><ele>271.0</ele><time>2026-03-30T13:31:10.861Z</time></trkpt><trkpt lat="44.3171538" lon="11.2976258"><ele>271.0</ele><time>2026-03-30T13:31:11.866Z</time></trkpt><trkpt lat="44.3172238" lon="11.297615"><ele>271.0</ele><time>2026-03-30T13:31:12.86Z</time></trkpt><trkpt lat="44.3172875" lon="11.2976069"><ele>271.0</ele><time>2026-03-30T13:31:13.867Z</time></trkpt><trkpt lat="44.3174097" lon="11.2975956"><ele>271.0</ele><time>2026-03-30T13:31:15.857Z</time></trkpt><trkpt lat="44.3175255" lon="11.2975826"><ele>271.5</ele><time>2026-03-30T13:31:17.869Z</time></trkpt><trkpt lat="44.3176408" lon="11.297571"><ele>272.0</ele><time>2026-03-30T13:31:19.855Z</time></trkpt><trkpt lat="44.3177476" lon="11.297558"><ele>272.5</ele><time>2026-03-30T13:31:21.86Z</time></trkpt><trkpt lat="44.3178697" lon="11.2975363"><ele>273.0</ele><time>2026-03-30T13:31:23.867Z</time></trkpt><trkpt lat="44.3179811" lon="11.2974791"><ele>272.8333333333333</ele><time>2026-03-30T13:31:25.875Z</time></trkpt><trkpt lat="44.3180969" lon="11.2974041"><ele>272.6666666666667</ele><time>2026-03-30T13:31:27.874Z</time></trkpt><trkpt lat="44.3182041" lon="11.2973172"><ele>272.5</ele><time>2026-03-30T13:31:29.871Z</time></trkpt><trkpt lat="44.3182613" lon="11.297269"><ele>272.33333333333337</ele><time>2026-03-30T13:31:30.859Z</time></trkpt><trkpt lat="44.318313" lon="11.2972164"><ele>272.1666666666667</ele><time>2026-03-30T13:31:31.868Z</time></trkpt><trkpt lat="44.3183684" lon="11.2971695"><ele>272.0</ele><time>2026-03-30T13:31:32.86Z</time></trkpt><trkpt lat="44.3184245" lon="11.297117"><ele>273.57142857142856</ele><time>2026-03-30T13:31:33.86Z</time></trkpt><trkpt lat="44.3184767" lon="11.2970663"><ele>275.1428571428571</ele><time>2026-03-30T13:31:34.858Z</time></trkpt><trkpt lat="44.3185362" lon="11.2970166"><ele>276.7142857142857</ele><time>2026-03-30T13:31:35.86Z</time></trkpt><trkpt lat="44.318597" lon="11.2969683"><ele>278.2857142857143</ele><time>2026-03-30T13:31:36.867Z</time></trkpt><trkpt lat="44.3186567" lon="11.2969144"><ele>279.8571428571429</ele><time>2026-03-30T13:31:37.862Z</time></trkpt><trkpt lat="44.3187185" lon="11.2968612"><ele>281.42857142857144</ele><time>2026-03-30T13:31:38.875Z</time></trkpt><trkpt lat="44.3187822" lon="11.2968072"><ele>283.0</ele><time>2026-03-30T13:31:39.871Z</time></trkpt><trkpt lat="44.3188459" lon="11.2967558"><ele>280.8333333333333</ele><time>2026-03-30T13:31:40.858Z</time></trkpt><trkpt lat="44.3189068" lon="11.2967074"><ele>278.66666666666663</ele><time>2026-03-30T13:31:41.871Z</time></trkpt><trkpt lat="44.3189676" lon="11.2966615"><ele>276.5</ele><time>2026-03-30T13:31:42.86Z</time></trkpt><trkpt lat="44.3190266" lon="11.2966226"><ele>274.3333333333333</ele><time>2026-03-30T13:31:43.882Z</time></trkpt><trkpt lat="44.3190852" lon="11.2965883"><ele>272.1666666666667</ele><time>2026-03-30T13:31:44.868Z</time></trkpt><trkpt lat="44.3192008" lon="11.2965423"><ele>270.0</ele><time>2026-03-30T13:31:46.87Z</time></trkpt><trkpt lat="44.3193154" lon="11.2965272"><ele>270.0</ele><time>2026-03-30T13:31:48.876Z</time></trkpt><trkpt lat="44.3194251" lon="11.2965541"><ele>270.0</ele><time>2026-03-30T13:31:50.88Z</time></trkpt><trkpt lat="44.3195253" lon="11.2966326"><ele>270.0</ele><time>2026-03-30T13:31:52.871Z</time></trkpt><trkpt lat="44.3196044" lon="11.2967703"><ele>270.0</ele><time>2026-03-30T13:31:54.868Z</time></trkpt><trkpt lat="44.3196369" lon="11.296847"><ele>270.0</ele><time>2026-03-30T13:31:55.871Z</time></trkpt><trkpt lat="44.3196648" lon="11.2969279"><ele>270.0</ele><time>2026-03-30T13:31:56.878Z</time></trkpt><trkpt lat="44.3197256" lon="11.2971054"><ele>270.0</ele><time>2026-03-30T13:31:58.886Z</time></trkpt><trkpt lat="44.3197586" lon="11.2971908"><ele>270.0</ele><time>2026-03-30T13:31:59.883Z</time></trkpt><trkpt lat="44.3197918" lon="11.2972755"><ele>270.0</ele><time>2026-03-30T13:32:00.87Z</time></trkpt><trkpt lat="44.3198255" lon="11.2973572"><ele>270.0</ele><time>2026-03-30T13:32:01.881Z</time></trkpt><trkpt lat="44.31986" lon="11.2974357"><ele>270.0</ele><time>2026-03-30T13:32:02.883Z</time></trkpt><trkpt lat="44.3198951" lon="11.2975121"><ele>269.7142857142857</ele><time>2026-03-30T13:32:03.88Z</time></trkpt><trkpt lat="44.3199349" lon="11.2975855"><ele>269.4285714285714</ele><time>2026-03-30T13:32:04.86Z</time></trkpt><trkpt lat="44.3199783" lon="11.2976626"><ele>269.1428571428571</ele><time>2026-03-30T13:32:05.871Z</time></trkpt><trkpt lat="44.3200228" lon="11.2977362"><ele>268.85714285714283</ele><time>2026-03-30T13:32:06.864Z</time></trkpt><trkpt lat="44.3200666" lon="11.2978059"><ele>268.57142857142856</ele><time>2026-03-30T13:32:07.872Z</time></trkpt><trkpt lat="44.3201085" lon="11.2978743"><ele>268.2857142857143</ele><time>2026-03-30T13:32:08.879Z</time></trkpt><trkpt lat="44.3201512" lon="11.2979407"><ele>268.0</ele><time>2026-03-30T13:32:09.873Z</time></trkpt><trkpt lat="44.3201937" lon="11.2980101"><ele>268.0</ele><time>2026-03-30T13:32:10.876Z</time></trkpt><trkpt lat="44.3202388" lon="11.2980774"><ele>268.0</ele><time>2026-03-30T13:32:11.872Z</time></trkpt><trkpt lat="44.3202887" lon="11.2981457"><ele>268.0</ele><time>2026-03-30T13:32:12.879Z</time></trkpt><trkpt lat="44.3203381" lon="11.2982147"><ele>268.0</ele><time>2026-03-30T13:32:13.869Z</time></trkpt><trkpt lat="44.320386" lon="11.2982817"><ele>268.0</ele><time>2026-03-30T13:32:14.878Z</time></trkpt><trkpt lat="44.3204342" lon="11.298347"><ele>268.0</ele><time>2026-03-30T13:32:15.871Z</time></trkpt><trkpt lat="44.3204831" lon="11.2984126"><ele>268.0</ele><time>2026-03-30T13:32:16.882Z</time></trkpt><trkpt lat="44.3205314" lon="11.2984765"><ele>267.3333333333333</ele><time>2026-03-30T13:32:17.883Z</time></trkpt><trkpt lat="44.320584" lon="11.2985418"><ele>266.66666666666663</ele><time>2026-03-30T13:32:18.878Z</time></trkpt><trkpt lat="44.3206355" lon="11.2986114"><ele>266.0</ele><time>2026-03-30T13:32:19.864Z</time></trkpt><trkpt lat="44.3206906" lon="11.2986804"><ele>265.3333333333333</ele><time>2026-03-30T13:32:20.886Z</time></trkpt><trkpt lat="44.3207501" lon="11.298757"><ele>264.6666666666667</ele><time>2026-03-30T13:32:21.876Z</time></trkpt><trkpt lat="44.3208136" lon="11.2988346"><ele>264.0</ele><time>2026-03-30T13:32:22.878Z</time></trkpt><trkpt lat="44.3208749" lon="11.2989071"><ele>266.0</ele><time>2026-03-30T13:32:23.869Z</time></trkpt><trkpt lat="44.3209378" lon="11.2989827"><ele>268.0</ele><time>2026-03-30T13:32:24.865Z</time></trkpt><trkpt lat="44.3210006" lon="11.2990572"><ele>270.0</ele><time>2026-03-30T13:32:25.862Z</time></trkpt><trkpt lat="44.3210635" lon="11.299132"><ele>272.0</ele><time>2026-03-30T13:32:26.873Z</time></trkpt><trkpt lat="44.3211286" lon="11.2992098"><ele>274.0</ele><time>2026-03-30T13:32:27.869Z</time></trkpt><trkpt lat="44.3211927" lon="11.2992899"><ele>276.0</ele><time>2026-03-30T13:32:28.869Z</time></trkpt><trkpt lat="44.3212581" lon="11.2993704"><ele>276.0</ele><time>2026-03-30T13:32:29.871Z</time></trkpt><trkpt lat="44.3213252" lon="11.2994526"><ele>276.0</ele><time>2026-03-30T13:32:30.874Z</time></trkpt><trkpt lat="44.3213905" lon="11.2995346"><ele>276.0</ele><time>2026-03-30T13:32:31.876Z</time></trkpt><trkpt lat="44.3214564" lon="11.2996151"><ele>276.0</ele><time>2026-03-30T13:32:32.878Z</time></trkpt><trkpt lat="44.3215218" lon="11.2996911"><ele>276.0</ele><time>2026-03-30T13:32:33.868Z</time></trkpt><trkpt lat="44.3215895" lon="11.2997658"><ele>276.0</ele><time>2026-03-30T13:32:34.878Z</time></trkpt><trkpt lat="44.3216545" lon="11.2998345"><ele>273.5</ele><time>2026-03-30T13:32:35.873Z</time></trkpt><trkpt lat="44.3217261" lon="11.2998924"><ele>271.0</ele><time>2026-03-30T13:32:36.877Z</time></trkpt><trkpt lat="44.3217974" lon="11.2999368"><ele>268.5</ele><time>2026-03-30T13:32:37.872Z</time></trkpt><trkpt lat="44.3218675" lon="11.2999719"><ele>266.0</ele><time>2026-03-30T13:32:38.88Z</time></trkpt><trkpt lat="44.3219406" lon="11.3000023"><ele>263.5</ele><time>2026-03-30T13:32:39.874Z</time></trkpt><trkpt lat="44.3220135" lon="11.3000201"><ele>261.0</ele><time>2026-03-30T13:32:40.87Z</time></trkpt><trkpt lat="44.3220857" lon="11.3000288"><ele>261.0</ele><time>2026-03-30T13:32:41.87Z</time></trkpt><trkpt lat="44.3221608" lon="11.3000316"><ele>261.0</ele><time>2026-03-30T13:32:42.872Z</time></trkpt><trkpt lat="44.322238" lon="11.3000358"><ele>261.0</ele><time>2026-03-30T13:32:43.881Z</time></trkpt><trkpt lat="44.3223143" lon="11.3000395"><ele>261.0</ele><time>2026-03-30T13:32:44.869Z</time></trkpt><trkpt lat="44.322392" lon="11.3000423"><ele>261.0</ele><time>2026-03-30T13:32:45.857Z</time></trkpt><trkpt lat="44.3224712" lon="11.3000392"><ele>261.0</ele><time>2026-03-30T13:32:46.878Z</time></trkpt><trkpt lat="44.3225509" lon="11.3000331"><ele>260.0</ele><time>2026-03-30T13:32:47.879Z</time></trkpt><trkpt lat="44.3226303" lon="11.3000241"><ele>259.0</ele><time>2026-03-30T13:32:48.88Z</time></trkpt><trkpt lat="44.3227107" lon="11.3000125"><ele>258.0</ele><time>2026-03-30T13:32:49.876Z</time></trkpt><trkpt lat="44.3227902" lon="11.3000002"><ele>257.0</ele><time>2026-03-30T13:32:50.871Z</time></trkpt><trkpt lat="44.3228698" lon="11.299987"><ele>256.0</ele><time>2026-03-30T13:32:51.871Z</time></trkpt><trkpt lat="44.3229485" lon="11.2999726"><ele>255.0</ele><time>2026-03-30T13:32:52.867Z</time></trkpt><trkpt lat="44.3230261" lon="11.2999557"><ele>254.83333333333334</ele><time>2026-03-30T13:32:53.871Z</time></trkpt><trkpt lat="44.323103" lon="11.2999371"><ele>254.66666666666669</ele><time>2026-03-30T13:32:54.872Z</time></trkpt><trkpt lat="44.3231802" lon="11.2999184"><ele>254.5</ele><time>2026-03-30T13:32:55.863Z</time></trkpt><trkpt lat="44.3232574" lon="11.2999007"><ele>254.33333333333334</ele><time>2026-03-30T13:32:56.858Z</time></trkpt><trkpt lat="44.3233349" lon="11.2998801"><ele>254.16666666666669</ele><time>2026-03-30T13:32:57.877Z</time></trkpt><trkpt lat="44.3234112" lon="11.2998551"><ele>254.0</ele><time>2026-03-30T13:32:58.877Z</time></trkpt><trkpt lat="44.3234875" lon="11.2998277"><ele>254.00000000000003</ele><time>2026-03-30T13:32:59.875Z</time></trkpt><trkpt lat="44.3235633" lon="11.299796"><ele>254.0</ele><time>2026-03-30T13:33:00.869Z</time></trkpt><trkpt lat="44.3236383" lon="11.2997569"><ele>254.0</ele><time>2026-03-30T13:33:01.889Z</time></trkpt><trkpt lat="44.3237135" lon="11.2997131"><ele>254.0</ele><time>2026-03-30T13:33:02.871Z</time></trkpt><trkpt lat="44.3237886" lon="11.2996632"><ele>254.00000000000003</ele><time>2026-03-30T13:33:03.869Z</time></trkpt><trkpt lat="44.3238642" lon="11.2996076"><ele>254.0</ele><time>2026-03-30T13:33:04.867Z</time></trkpt><trkpt lat="44.3239392" lon="11.2995466"><ele>252.83333333333334</ele><time>2026-03-30T13:33:05.867Z</time></trkpt><trkpt lat="44.3240157" lon="11.299485"><ele>251.66666666666669</ele><time>2026-03-30T13:33:06.872Z</time></trkpt><trkpt lat="44.3240939" lon="11.2994256"><ele>250.5</ele><time>2026-03-30T13:33:07.873Z</time></trkpt><trkpt lat="44.3241751" lon="11.2993736"><ele>249.33333333333331</ele><time>2026-03-30T13:33:08.874Z</time></trkpt><trkpt lat="44.3242586" lon="11.2993343"><ele>248.16666666666666</ele><time>2026-03-30T13:33:09.869Z</time></trkpt><trkpt lat="44.3243446" lon="11.2993107"><ele>247.0</ele><time>2026-03-30T13:33:10.867Z</time></trkpt><trkpt lat="44.3244319" lon="11.2993098"><ele>246.99999999999997</ele><time>2026-03-30T13:33:11.875Z</time></trkpt><trkpt lat="44.3245172" lon="11.29933"><ele>247.0</ele><time>2026-03-30T13:33:12.875Z</time></trkpt><trkpt lat="44.3245991" lon="11.2993676"><ele>247.0</ele><time>2026-03-30T13:33:13.866Z</time></trkpt><trkpt lat="44.3246745" lon="11.2994234"><ele>247.0</ele><time>2026-03-30T13:33:14.874Z</time></trkpt><trkpt lat="44.3247431" lon="11.2994964"><ele>246.99999999999997</ele><time>2026-03-30T13:33:15.875Z</time></trkpt><trkpt lat="44.3248089" lon="11.2995792"><ele>247.0</ele><time>2026-03-30T13:33:16.872Z</time></trkpt><trkpt lat="44.3248712" lon="11.2996641"><ele>246.83333333333331</ele><time>2026-03-30T13:33:17.873Z</time></trkpt><trkpt lat="44.3249343" lon="11.2997485"><ele>246.66666666666666</ele><time>2026-03-30T13:33:18.878Z</time></trkpt><trkpt lat="44.3249982" lon="11.2998312"><ele>246.5</ele><time>2026-03-30T13:33:19.877Z</time></trkpt><trkpt lat="44.3250604" lon="11.2999134"><ele>246.33333333333331</ele><time>2026-03-30T13:33:20.888Z</time></trkpt><trkpt lat="44.3251232" lon="11.2999965"><ele>246.16666666666666</ele><time>2026-03-30T13:33:21.867Z</time></trkpt><trkpt lat="44.3251844" lon="11.3000792"><ele>246.0</ele><time>2026-03-30T13:33:22.866Z</time></trkpt><trkpt lat="44.3252459" lon="11.3001601"><ele>246.33333333333334</ele><time>2026-03-30T13:33:23.875Z</time></trkpt><trkpt lat="44.3253075" lon="11.3002396"><ele>246.66666666666669</ele><time>2026-03-30T13:33:24.876Z</time></trkpt><trkpt lat="44.3253683" lon="11.3003211"><ele>247.0</ele><time>2026-03-30T13:33:25.876Z</time></trkpt><trkpt lat="44.3254296" lon="11.3004019"><ele>247.33333333333334</ele><time>2026-03-30T13:33:26.873Z</time></trkpt><trkpt lat="44.3254896" lon="11.3004835"><ele>247.66666666666669</ele><time>2026-03-30T13:33:27.875Z</time></trkpt><trkpt lat="44.3255494" lon="11.3005659"><ele>248.0</ele><time>2026-03-30T13:33:28.872Z</time></trkpt><trkpt lat="44.3256103" lon="11.3006451"><ele>247.16666666666669</ele><time>2026-03-30T13:33:29.873Z</time></trkpt><trkpt lat="44.3256711" lon="11.3007241"><ele>246.33333333333334</ele><time>2026-03-30T13:33:30.876Z</time></trkpt><trkpt lat="44.325731" lon="11.3008034"><ele>245.5</ele><time>2026-03-30T13:33:31.871Z</time></trkpt><trkpt lat="44.3257906" lon="11.3008826"><ele>244.66666666666669</ele><time>2026-03-30T13:33:32.873Z</time></trkpt><trkpt lat="44.3258514" lon="11.300961"><ele>243.83333333333334</ele><time>2026-03-30T13:33:33.878Z</time></trkpt><trkpt lat="44.3259111" lon="11.3010386"><ele>243.0</ele><time>2026-03-30T13:33:34.869Z</time></trkpt><trkpt lat="44.3259709" lon="11.3011156"><ele>243.0</ele><time>2026-03-30T13:33:35.877Z</time></trkpt><trkpt lat="44.3260295" lon="11.3011931"><ele>243.0</ele><time>2026-03-30T13:33:36.878Z</time></trkpt><trkpt lat="44.3260889" lon="11.3012695"><ele>243.0</ele><time>2026-03-30T13:33:37.875Z</time></trkpt><trkpt lat="44.3261469" lon="11.3013472"><ele>243.0</ele><time>2026-03-30T13:33:38.879Z</time></trkpt><trkpt lat="44.3262054" lon="11.3014239"><ele>243.0</ele><time>2026-03-30T13:33:39.879Z</time></trkpt><trkpt lat="44.3262643" lon="11.3014988"><ele>243.0</ele><time>2026-03-30T13:33:40.868Z</time></trkpt><trkpt lat="44.3263226" lon="11.3015756"><ele>243.33333333333334</ele><time>2026-03-30T13:33:41.876Z</time></trkpt><trkpt lat="44.326382" lon="11.3016485"><ele>243.66666666666669</ele><time>2026-03-30T13:33:42.874Z</time></trkpt><trkpt lat="44.3264443" lon="11.301717"><ele>244.0</ele><time>2026-03-30T13:33:43.876Z</time></trkpt><trkpt lat="44.3265084" lon="11.3017817"><ele>244.33333333333334</ele><time>2026-03-30T13:33:44.874Z</time></trkpt><trkpt lat="44.3265721" lon="11.3018439"><ele>244.66666666666669</ele><time>2026-03-30T13:33:45.865Z</time></trkpt><trkpt lat="44.3266408" lon="11.3019088"><ele>245.0</ele><time>2026-03-30T13:33:46.86Z</time></trkpt><trkpt lat="44.3267117" lon="11.3019729"><ele>245.00000000000003</ele><time>2026-03-30T13:33:47.874Z</time></trkpt><trkpt lat="44.3267814" lon="11.3020235"><ele>245.0</ele><time>2026-03-30T13:33:48.864Z</time></trkpt><trkpt lat="44.3268509" lon="11.3020697"><ele>245.0</ele><time>2026-03-30T13:33:49.867Z</time></trkpt><trkpt lat="44.3269241" lon="11.3021111"><ele>245.0</ele><time>2026-03-30T13:33:50.874Z</time></trkpt><trkpt lat="44.3269962" lon="11.3021474"><ele>245.00000000000003</ele><time>2026-03-30T13:33:51.873Z</time></trkpt><trkpt lat="44.3270714" lon="11.3021782"><ele>245.0</ele><time>2026-03-30T13:33:52.869Z</time></trkpt><trkpt lat="44.3271455" lon="11.3022021"><ele>245.0</ele><time>2026-03-30T13:33:53.869Z</time></trkpt><trkpt lat="44.327219" lon="11.3022195"><ele>245.0</ele><time>2026-03-30T13:33:54.88Z</time></trkpt><trkpt lat="44.3272927" lon="11.3022316"><ele>245.0</ele><time>2026-03-30T13:33:55.872Z</time></trkpt><trkpt lat="44.3273652" lon="11.3022415"><ele>245.0</ele><time>2026-03-30T13:33:56.882Z</time></trkpt><trkpt lat="44.3274372" lon="11.3022501"><ele>245.0</ele><time>2026-03-30T13:33:57.876Z</time></trkpt><trkpt lat="44.3275119" lon="11.3022629"><ele>245.0</ele><time>2026-03-30T13:33:58.875Z</time></trkpt><trkpt lat="44.3275822" lon="11.3022717"><ele>245.0</ele><time>2026-03-30T13:33:59.883Z</time></trkpt><trkpt lat="44.3276568" lon="11.3022912"><ele>244.50000000000003</ele><time>2026-03-30T13:34:00.885Z</time></trkpt><trkpt lat="44.3277313" lon="11.3023149"><ele>244.0</ele><time>2026-03-30T13:34:01.876Z</time></trkpt><trkpt lat="44.3278035" lon="11.3023444"><ele>243.5</ele><time>2026-03-30T13:34:02.873Z</time></trkpt><trkpt lat="44.3278773" lon="11.3023803"><ele>243.0</ele><time>2026-03-30T13:34:03.879Z</time></trkpt><trkpt lat="44.3279484" lon="11.3024258"><ele>242.50000000000003</ele><time>2026-03-30T13:34:04.873Z</time></trkpt><trkpt lat="44.3280171" lon="11.3024799"><ele>242.0</ele><time>2026-03-30T13:34:05.878Z</time></trkpt><trkpt lat="44.3280809" lon="11.3025369"><ele>241.83333333333334</ele><time>2026-03-30T13:34:06.86Z</time></trkpt><trkpt lat="44.3281469" lon="11.3025957"><ele>241.66666666666669</ele><time>2026-03-30T13:34:07.864Z</time></trkpt><trkpt lat="44.3282104" lon="11.3026584"><ele>241.5</ele><time>2026-03-30T13:34:08.873Z</time></trkpt><trkpt lat="44.3282786" lon="11.3027227"><ele>241.33333333333331</ele><time>2026-03-30T13:34:09.873Z</time></trkpt><trkpt lat="44.3283436" lon="11.3027882"><ele>241.16666666666666</ele><time>2026-03-30T13:34:10.876Z</time></trkpt><trkpt lat="44.3284066" lon="11.3028494"><ele>241.0</ele><time>2026-03-30T13:34:11.882Z</time></trkpt><trkpt lat="44.3284697" lon="11.3029135"><ele>241.0</ele><time>2026-03-30T13:34:12.874Z</time></trkpt><trkpt lat="44.3285319" lon="11.3029756"><ele>241.00000000000003</ele><time>2026-03-30T13:34:13.863Z</time></trkpt><trkpt lat="44.3285924" lon="11.3030373"><ele>241.0</ele><time>2026-03-30T13:34:14.884Z</time></trkpt><trkpt lat="44.3286513" lon="11.3030976"><ele>241.0</ele><time>2026-03-30T13:34:15.883Z</time></trkpt><trkpt lat="44.3287112" lon="11.3031569"><ele>241.00000000000003</ele><time>2026-03-30T13:34:16.884Z</time></trkpt><trkpt lat="44.3287724" lon="11.3032163"><ele>241.0</ele><time>2026-03-30T13:34:17.871Z</time></trkpt><trkpt lat="44.3288342" lon="11.3032749"><ele>241.0</ele><time>2026-03-30T13:34:18.886Z</time></trkpt><trkpt lat="44.3288948" lon="11.3033325"><ele>240.49999999999997</ele><time>2026-03-30T13:34:19.878Z</time></trkpt><trkpt lat="44.3289563" lon="11.3033913"><ele>240.0</ele><time>2026-03-30T13:34:20.878Z</time></trkpt><trkpt lat="44.3290183" lon="11.3034521"><ele>239.5</ele><time>2026-03-30T13:34:21.879Z</time></trkpt><trkpt lat="44.3290854" lon="11.3035127"><ele>239.0</ele><time>2026-03-30T13:34:22.88Z</time></trkpt><trkpt lat="44.3291512" lon="11.3035708"><ele>238.49999999999997</ele><time>2026-03-30T13:34:23.883Z</time></trkpt><trkpt lat="44.3292137" lon="11.303632"><ele>238.0</ele><time>2026-03-30T13:34:24.881Z</time></trkpt><trkpt lat="44.3292769" lon="11.3036921"><ele>237.99999999999997</ele><time>2026-03-30T13:34:25.872Z</time></trkpt><trkpt lat="44.3293438" lon="11.3037523"><ele>238.0</ele><time>2026-03-30T13:34:26.873Z</time></trkpt><trkpt lat="44.3294111" lon="11.3038104"><ele>238.0</ele><time>2026-03-30T13:34:27.87Z</time></trkpt><trkpt lat="44.3294777" lon="11.3038676"><ele>238.0</ele><time>2026-03-30T13:34:28.87Z</time></trkpt><trkpt lat="44.329545" lon="11.3039262"><ele>237.99999999999997</ele><time>2026-03-30T13:34:29.892Z</time></trkpt><trkpt lat="44.3296144" lon="11.3039838"><ele>238.0</ele><time>2026-03-30T13:34:30.877Z</time></trkpt><trkpt lat="44.3296835" lon="11.3040366"><ele>237.99999999999997</ele><time>2026-03-30T13:34:31.872Z</time></trkpt><trkpt lat="44.3297542" lon="11.3040884"><ele>238.0</ele><time>2026-03-30T13:34:32.872Z</time></trkpt><trkpt lat="44.3298251" lon="11.3041381"><ele>238.0</ele><time>2026-03-30T13:34:33.88Z</time></trkpt><trkpt lat="44.329895" lon="11.3041858"><ele>238.0</ele><time>2026-03-30T13:34:34.891Z</time></trkpt><trkpt lat="44.3299647" lon="11.3042326"><ele>237.99999999999997</ele><time>2026-03-30T13:34:35.875Z</time></trkpt><trkpt lat="44.3300328" lon="11.3042814"><ele>238.0</ele><time>2026-03-30T13:34:36.874Z</time></trkpt><trkpt lat="44.3301019" lon="11.3043282"><ele>238.0</ele><time>2026-03-30T13:34:37.861Z</time></trkpt><trkpt lat="44.3301705" lon="11.304374"><ele>238.0</ele><time>2026-03-30T13:34:38.87Z</time></trkpt><trkpt lat="44.3302394" lon="11.304416"><ele>238.0</ele><time>2026-03-30T13:34:39.87Z</time></trkpt><trkpt lat="44.3303075" lon="11.3044576"><ele>238.0</ele><time>2026-03-30T13:34:40.872Z</time></trkpt><trkpt lat="44.3303755" lon="11.3044976"><ele>238.0</ele><time>2026-03-30T13:34:41.888Z</time></trkpt><trkpt lat="44.3304431" lon="11.3045382"><ele>238.0</ele><time>2026-03-30T13:34:42.865Z</time></trkpt><trkpt lat="44.3305109" lon="11.3045789"><ele>238.0</ele><time>2026-03-30T13:34:43.868Z</time></trkpt><trkpt lat="44.330579" lon="11.30462"><ele>238.0</ele><time>2026-03-30T13:34:44.877Z</time></trkpt><trkpt lat="44.3306465" lon="11.3046619"><ele>238.0</ele><time>2026-03-30T13:34:45.861Z</time></trkpt><trkpt lat="44.3307136" lon="11.304703"><ele>238.0</ele><time>2026-03-30T13:34:46.875Z</time></trkpt><trkpt lat="44.3307801" lon="11.3047447"><ele>238.0</ele><time>2026-03-30T13:34:47.883Z</time></trkpt><trkpt lat="44.3308468" lon="11.3047874"><ele>238.0</ele><time>2026-03-30T13:34:48.877Z</time></trkpt><trkpt lat="44.3309135" lon="11.3048295"><ele>238.0</ele><time>2026-03-30T13:34:49.876Z</time></trkpt><trkpt lat="44.3309802" lon="11.304873"><ele>238.0</ele><time>2026-03-30T13:34:50.879Z</time></trkpt><trkpt lat="44.3310469" lon="11.3049174"><ele>238.0</ele><time>2026-03-30T13:34:51.873Z</time></trkpt><trkpt lat="44.3311134" lon="11.3049615"><ele>238.0</ele><time>2026-03-30T13:34:52.876Z</time></trkpt><trkpt lat="44.3311798" lon="11.3050051"><ele>238.0</ele><time>2026-03-30T13:34:53.879Z</time></trkpt><trkpt lat="44.3312469" lon="11.305049"><ele>238.0</ele><time>2026-03-30T13:34:54.876Z</time></trkpt><trkpt lat="44.3313141" lon="11.3050931"><ele>238.0</ele><time>2026-03-30T13:34:55.882Z</time></trkpt><trkpt lat="44.3313808" lon="11.305138"><ele>238.0</ele><time>2026-03-30T13:34:56.882Z</time></trkpt><trkpt lat="44.331447" lon="11.3051836"><ele>238.0</ele><time>2026-03-30T13:34:57.878Z</time></trkpt><trkpt lat="44.3315143" lon="11.3052294"><ele>237.33333333333331</ele><time>2026-03-30T13:34:58.866Z</time></trkpt><trkpt lat="44.3315813" lon="11.3052755"><ele>236.66666666666666</ele><time>2026-03-30T13:34:59.867Z</time></trkpt><trkpt lat="44.3316471" lon="11.3053256"><ele>236.0</ele><time>2026-03-30T13:35:00.879Z</time></trkpt><trkpt lat="44.3317114" lon="11.3053798"><ele>235.33333333333331</ele><time>2026-03-30T13:35:01.855Z</time></trkpt><trkpt lat="44.3317741" lon="11.305437"><ele>234.66666666666666</ele><time>2026-03-30T13:35:02.876Z</time></trkpt><trkpt lat="44.3318355" lon="11.305498"><ele>234.0</ele><time>2026-03-30T13:35:03.873Z</time></trkpt><trkpt lat="44.3318966" lon="11.305562"><ele>234.0</ele><time>2026-03-30T13:35:04.872Z</time></trkpt><trkpt lat="44.3319575" lon="11.305628"><ele>234.0</ele><time>2026-03-30T13:35:05.879Z</time></trkpt><trkpt lat="44.3320181" lon="11.3056937"><ele>234.0</ele><time>2026-03-30T13:35:06.862Z</time></trkpt><trkpt lat="44.3320775" lon="11.3057655"><ele>234.0</ele><time>2026-03-30T13:35:07.871Z</time></trkpt><trkpt lat="44.3321358" lon="11.3058364"><ele>234.0</ele><time>2026-03-30T13:35:08.875Z</time></trkpt><trkpt lat="44.3321939" lon="11.3059141"><ele>234.0</ele><time>2026-03-30T13:35:09.871Z</time></trkpt><trkpt lat="44.3322514" lon="11.3059902"><ele>233.66666666666666</ele><time>2026-03-30T13:35:10.881Z</time></trkpt><trkpt lat="44.3323055" lon="11.3060691"><ele>233.33333333333331</ele><time>2026-03-30T13:35:11.879Z</time></trkpt><trkpt lat="44.332359" lon="11.3061503"><ele>233.0</ele><time>2026-03-30T13:35:12.87Z</time></trkpt><trkpt lat="44.3324124" lon="11.3062325"><ele>232.66666666666666</ele><time>2026-03-30T13:35:13.872Z</time></trkpt><trkpt lat="44.3324645" lon="11.3063149"><ele>232.33333333333331</ele><time>2026-03-30T13:35:14.879Z</time></trkpt><trkpt lat="44.3325165" lon="11.3063972"><ele>232.0</ele><time>2026-03-30T13:35:15.884Z</time></trkpt><trkpt lat="44.3325674" lon="11.3064798"><ele>231.83333333333331</ele><time>2026-03-30T13:35:16.877Z</time></trkpt><trkpt lat="44.3326157" lon="11.3065646"><ele>231.66666666666666</ele><time>2026-03-30T13:35:17.88Z</time></trkpt><trkpt lat="44.3326645" lon="11.3066499"><ele>231.5</ele><time>2026-03-30T13:35:18.881Z</time></trkpt><trkpt lat="44.3327116" lon="11.3067343"><ele>231.33333333333331</ele><time>2026-03-30T13:35:19.885Z</time></trkpt><trkpt lat="44.3327594" lon="11.3068171"><ele>231.16666666666666</ele><time>2026-03-30T13:35:20.881Z</time></trkpt><trkpt lat="44.3328065" lon="11.3068997"><ele>231.0</ele><time>2026-03-30T13:35:21.87Z</time></trkpt><trkpt lat="44.3328535" lon="11.3069834"><ele>231.0</ele><time>2026-03-30T13:35:22.875Z</time></trkpt><trkpt lat="44.3329013" lon="11.3070674"><ele>231.0</ele><time>2026-03-30T13:35:23.88Z</time></trkpt><trkpt lat="44.332946" lon="11.3071494"><ele>231.0</ele><time>2026-03-30T13:35:24.865Z</time></trkpt><trkpt lat="44.3329918" lon="11.3072349"><ele>231.0</ele><time>2026-03-30T13:35:25.873Z</time></trkpt><trkpt lat="44.3330372" lon="11.3073172"><ele>231.0</ele><time>2026-03-30T13:35:26.869Z</time></trkpt><trkpt lat="44.3330808" lon="11.3074037"><ele>231.0</ele><time>2026-03-30T13:35:27.868Z</time></trkpt><trkpt lat="44.3331229" lon="11.3074935"><ele>231.0</ele><time>2026-03-30T13:35:28.868Z</time></trkpt><trkpt lat="44.3331603" lon="11.3075838"><ele>231.0</ele><time>2026-03-30T13:35:29.878Z</time></trkpt><trkpt lat="44.3331967" lon="11.3076765"><ele>231.0</ele><time>2026-03-30T13:35:30.88Z</time></trkpt><trkpt lat="44.3332294" lon="11.3077707"><ele>231.0</ele><time>2026-03-30T13:35:31.874Z</time></trkpt><trkpt lat="44.3332621" lon="11.3078658"><ele>231.0</ele><time>2026-03-30T13:35:32.873Z</time></trkpt><trkpt lat="44.3332927" lon="11.3079616"><ele>231.0</ele><time>2026-03-30T13:35:33.875Z</time></trkpt><trkpt lat="44.3333219" lon="11.3080556"><ele>231.0</ele><time>2026-03-30T13:35:34.871Z</time></trkpt><trkpt lat="44.33335" lon="11.3081512"><ele>231.0</ele><time>2026-03-30T13:35:35.876Z</time></trkpt><trkpt lat="44.3333767" lon="11.3082478"><ele>231.0</ele><time>2026-03-30T13:35:36.86Z</time></trkpt><trkpt lat="44.3334044" lon="11.3083435"><ele>231.0</ele><time>2026-03-30T13:35:37.876Z</time></trkpt><trkpt lat="44.3334324" lon="11.3084391"><ele>231.0</ele><time>2026-03-30T13:35:38.866Z</time></trkpt><trkpt lat="44.3334609" lon="11.3085368"><ele>231.0</ele><time>2026-03-30T13:35:39.88Z</time></trkpt><trkpt lat="44.3334907" lon="11.3086346"><ele>231.0</ele><time>2026-03-30T13:35:40.876Z</time></trkpt><trkpt lat="44.333519" lon="11.3087315"><ele>231.0</ele><time>2026-03-30T13:35:41.893Z</time></trkpt><trkpt lat="44.3335492" lon="11.3088282"><ele>230.83333333333334</ele><time>2026-03-30T13:35:42.872Z</time></trkpt><trkpt lat="44.3335774" lon="11.3089254"><ele>230.66666666666669</ele><time>2026-03-30T13:35:43.872Z</time></trkpt><trkpt lat="44.3336054" lon="11.3090217"><ele>230.5</ele><time>2026-03-30T13:35:44.892Z</time></trkpt><trkpt lat="44.3336334" lon="11.3091187"><ele>230.33333333333334</ele><time>2026-03-30T13:35:45.872Z</time></trkpt><trkpt lat="44.3336615" lon="11.3092157"><ele>230.16666666666669</ele><time>2026-03-30T13:35:46.878Z</time></trkpt><trkpt lat="44.3336895" lon="11.309314"><ele>230.0</ele><time>2026-03-30T13:35:47.881Z</time></trkpt><trkpt lat="44.3337179" lon="11.3094125"><ele>230.00000000000003</ele><time>2026-03-30T13:35:48.876Z</time></trkpt><trkpt lat="44.3337466" lon="11.309511"><ele>230.0</ele><time>2026-03-30T13:35:49.874Z</time></trkpt><trkpt lat="44.3337758" lon="11.309608"><ele>230.0</ele><time>2026-03-30T13:35:50.88Z</time></trkpt><trkpt lat="44.3338056" lon="11.3097054"><ele>230.0</ele><time>2026-03-30T13:35:51.867Z</time></trkpt><trkpt lat="44.3338345" lon="11.3098039"><ele>230.00000000000003</ele><time>2026-03-30T13:35:52.869Z</time></trkpt><trkpt lat="44.3338643" lon="11.3099016"><ele>230.0</ele><time>2026-03-30T13:35:53.887Z</time></trkpt><trkpt lat="44.3338936" lon="11.3099999"><ele>230.00000000000003</ele><time>2026-03-30T13:35:54.867Z</time></trkpt><trkpt lat="44.3339229" lon="11.3100988"><ele>230.0</ele><time>2026-03-30T13:35:55.877Z</time></trkpt><trkpt lat="44.3339538" lon="11.3101968"><ele>230.0</ele><time>2026-03-30T13:35:56.875Z</time></trkpt><trkpt lat="44.3339828" lon="11.310296"><ele>230.0</ele><time>2026-03-30T13:35:57.875Z</time></trkpt><trkpt lat="44.3340137" lon="11.3103947"><ele>230.00000000000003</ele><time>2026-03-30T13:35:58.871Z</time></trkpt><trkpt lat="44.3340442" lon="11.310493"><ele>230.0</ele><time>2026-03-30T13:35:59.883Z</time></trkpt><trkpt lat="44.3340747" lon="11.3105926"><ele>229.83333333333334</ele><time>2026-03-30T13:36:00.891Z</time></trkpt><trkpt lat="44.3341051" lon="11.3106902"><ele>229.66666666666669</ele><time>2026-03-30T13:36:01.883Z</time></trkpt><trkpt lat="44.3341353" lon="11.3107876"><ele>229.5</ele><time>2026-03-30T13:36:02.89Z</time></trkpt><trkpt lat="44.3341654" lon="11.3108861"><ele>229.33333333333331</ele><time>2026-03-30T13:36:03.881Z</time></trkpt><trkpt lat="44.3341955" lon="11.310984"><ele>229.16666666666666</ele><time>2026-03-30T13:36:04.883Z</time></trkpt><trkpt lat="44.3342248" lon="11.3110826"><ele>229.0</ele><time>2026-03-30T13:36:05.875Z</time></trkpt><trkpt lat="44.3342543" lon="11.3111812"><ele>228.99999999999997</ele><time>2026-03-30T13:36:06.854Z</time></trkpt><trkpt lat="44.3342843" lon="11.311278"><ele>229.0</ele><time>2026-03-30T13:36:07.881Z</time></trkpt><trkpt lat="44.3343132" lon="11.3113764"><ele>229.0</ele><time>2026-03-30T13:36:08.883Z</time></trkpt><trkpt lat="44.3343418" lon="11.3114748"><ele>229.0</ele><time>2026-03-30T13:36:09.871Z</time></trkpt><trkpt lat="44.3343707" lon="11.3115718"><ele>228.99999999999997</ele><time>2026-03-30T13:36:10.872Z</time></trkpt><trkpt lat="44.3344" lon="11.3116683"><ele>229.0</ele><time>2026-03-30T13:36:11.884Z</time></trkpt><trkpt lat="44.3344288" lon="11.311765"><ele>229.0</ele><time>2026-03-30T13:36:12.863Z</time></trkpt><trkpt lat="44.3344573" lon="11.3118623"><ele>229.0</ele><time>2026-03-30T13:36:13.87Z</time></trkpt><trkpt lat="44.3344869" lon="11.3119595"><ele>229.0</ele><time>2026-03-30T13:36:14.874Z</time></trkpt><trkpt lat="44.334516" lon="11.3120559"><ele>229.0</ele><time>2026-03-30T13:36:15.868Z</time></trkpt><trkpt lat="44.3345437" lon="11.3121506"><ele>229.0</ele><time>2026-03-30T13:36:16.873Z</time></trkpt><trkpt lat="44.3345716" lon="11.3122439"><ele>229.0</ele><time>2026-03-30T13:36:17.88Z</time></trkpt><trkpt lat="44.3346" lon="11.3123366"><ele>229.0</ele><time>2026-03-30T13:36:18.877Z</time></trkpt><trkpt lat="44.3346272" lon="11.3124298"><ele>229.0</ele><time>2026-03-30T13:36:19.874Z</time></trkpt><trkpt lat="44.3346543" lon="11.3125221"><ele>229.0</ele><time>2026-03-30T13:36:20.876Z</time></trkpt><trkpt lat="44.3346809" lon="11.3126076"><ele>229.0</ele><time>2026-03-30T13:36:21.871Z</time></trkpt><trkpt lat="44.3347091" lon="11.3126967"><ele>229.0</ele><time>2026-03-30T13:36:22.863Z</time></trkpt><trkpt lat="44.3347351" lon="11.3127869"><ele>229.0</ele><time>2026-03-30T13:36:23.886Z</time></trkpt><trkpt lat="44.3347626" lon="11.3128742"><ele>229.0</ele><time>2026-03-30T13:36:24.879Z</time></trkpt><trkpt lat="44.334791" lon="11.3129582"><ele>229.0</ele><time>2026-03-30T13:36:25.875Z</time></trkpt><trkpt lat="44.3348229" lon="11.3130418"><ele>228.57142857142856</ele><time>2026-03-30T13:36:26.887Z</time></trkpt><trkpt lat="44.334859" lon="11.3131218"><ele>228.14285714285717</ele><time>2026-03-30T13:36:27.884Z</time></trkpt><trkpt lat="44.3348991" lon="11.3131989"><ele>227.71428571428572</ele><time>2026-03-30T13:36:28.872Z</time></trkpt><trkpt lat="44.3349457" lon="11.3132783"><ele>227.28571428571428</ele><time>2026-03-30T13:36:29.892Z</time></trkpt><trkpt lat="44.3349961" lon="11.3133499"><ele>226.85714285714283</ele><time>2026-03-30T13:36:30.879Z</time></trkpt><trkpt lat="44.3350498" lon="11.3134152"><ele>226.42857142857144</ele><time>2026-03-30T13:36:31.875Z</time></trkpt><trkpt lat="44.3351044" lon="11.3134732"><ele>226.0</ele><time>2026-03-30T13:36:32.877Z</time></trkpt><trkpt lat="44.3351598" lon="11.3135321"><ele>226.0</ele><time>2026-03-30T13:36:33.882Z</time></trkpt><trkpt lat="44.3352169" lon="11.3135833"><ele>226.0</ele><time>2026-03-30T13:36:34.877Z</time></trkpt><trkpt lat="44.3352748" lon="11.3136327"><ele>226.0</ele><time>2026-03-30T13:36:35.872Z</time></trkpt><trkpt lat="44.3353339" lon="11.3136811"><ele>226.0</ele><time>2026-03-30T13:36:36.872Z</time></trkpt><trkpt lat="44.3353925" lon="11.3137251"><ele>226.0</ele><time>2026-03-30T13:36:37.873Z</time></trkpt><trkpt lat="44.3354491" lon="11.313772"><ele>226.0</ele><time>2026-03-30T13:36:38.87Z</time></trkpt><trkpt lat="44.3355062" lon="11.3138178"><ele>226.0</ele><time>2026-03-30T13:36:39.874Z</time></trkpt><trkpt lat="44.3355623" lon="11.3138666"><ele>226.28571428571428</ele><time>2026-03-30T13:36:40.874Z</time></trkpt><trkpt lat="44.3356173" lon="11.3139164"><ele>226.57142857142856</ele><time>2026-03-30T13:36:41.877Z</time></trkpt><trkpt lat="44.3356717" lon="11.3139701"><ele>226.85714285714283</ele><time>2026-03-30T13:36:42.868Z</time></trkpt><trkpt lat="44.3357245" lon="11.3140236"><ele>227.14285714285714</ele><time>2026-03-30T13:36:43.872Z</time></trkpt><trkpt lat="44.3357765" lon="11.3140798"><ele>227.4285714285714</ele><time>2026-03-30T13:36:44.887Z</time></trkpt><trkpt lat="44.3358276" lon="11.314137"><ele>227.7142857142857</ele><time>2026-03-30T13:36:45.873Z</time></trkpt><trkpt lat="44.3358775" lon="11.3141953"><ele>228.0</ele><time>2026-03-30T13:36:46.872Z</time></trkpt><trkpt lat="44.3359282" lon="11.314252"><ele>228.0</ele><time>2026-03-30T13:36:47.877Z</time></trkpt><trkpt lat="44.3359781" lon="11.3143106"><ele>227.99999999999997</ele><time>2026-03-30T13:36:48.872Z</time></trkpt><trkpt lat="44.3360264" lon="11.3143677"><ele>228.0</ele><time>2026-03-30T13:36:49.872Z</time></trkpt><trkpt lat="44.3360776" lon="11.3144224"><ele>228.0</ele><time>2026-03-30T13:36:50.885Z</time></trkpt><trkpt lat="44.3361781" lon="11.3145296"><ele>227.99999999999997</ele><time>2026-03-30T13:36:52.875Z</time></trkpt><trkpt lat="44.3362298" lon="11.3145808"><ele>228.0</ele><time>2026-03-30T13:36:53.869Z</time></trkpt><trkpt lat="44.3362826" lon="11.3146304"><ele>228.0</ele><time>2026-03-30T13:36:54.876Z</time></trkpt><trkpt lat="44.3363355" lon="11.3146804"><ele>228.0</ele><time>2026-03-30T13:36:55.87Z</time></trkpt><trkpt lat="44.3363935" lon="11.3147305"><ele>227.99999999999997</ele><time>2026-03-30T13:36:56.873Z</time></trkpt><trkpt lat="44.3364521" lon="11.3147765"><ele>228.0</ele><time>2026-03-30T13:36:57.877Z</time></trkpt><trkpt lat="44.3365098" lon="11.3148209"><ele>228.0</ele><time>2026-03-30T13:36:58.876Z</time></trkpt><trkpt lat="44.3365667" lon="11.3148661"><ele>227.99999999999997</ele><time>2026-03-30T13:36:59.875Z</time></trkpt><trkpt lat="44.336624" lon="11.3149122"><ele>228.0</ele><time>2026-03-30T13:37:00.868Z</time></trkpt><trkpt lat="44.3366818" lon="11.3149603"><ele>228.0</ele><time>2026-03-30T13:37:01.871Z</time></trkpt><trkpt lat="44.3367397" lon="11.3150094"><ele>228.0</ele><time>2026-03-30T13:37:02.873Z</time></trkpt><trkpt lat="44.3367981" lon="11.3150597"><ele>227.99999999999997</ele><time>2026-03-30T13:37:03.872Z</time></trkpt><trkpt lat="44.3368564" lon="11.3151097"><ele>228.0</ele><time>2026-03-30T13:37:04.878Z</time></trkpt><trkpt lat="44.3369147" lon="11.3151623"><ele>228.0</ele><time>2026-03-30T13:37:05.866Z</time></trkpt><trkpt lat="44.3369704" lon="11.3152188"><ele>227.99999999999997</ele><time>2026-03-30T13:37:06.868Z</time></trkpt><trkpt lat="44.3370245" lon="11.3152801"><ele>228.0</ele><time>2026-03-30T13:37:07.872Z</time></trkpt><trkpt lat="44.3370775" lon="11.3153449"><ele>228.0</ele><time>2026-03-30T13:37:08.877Z</time></trkpt><trkpt lat="44.3371293" lon="11.3154124"><ele>228.0</ele><time>2026-03-30T13:37:09.878Z</time></trkpt><trkpt lat="44.3371802" lon="11.3154817"><ele>227.99999999999997</ele><time>2026-03-30T13:37:10.879Z</time></trkpt><trkpt lat="44.3372285" lon="11.3155557"><ele>228.0</ele><time>2026-03-30T13:37:11.876Z</time></trkpt><trkpt lat="44.3372754" lon="11.3156315"><ele>228.0</ele><time>2026-03-30T13:37:12.871Z</time></trkpt><trkpt lat="44.3373215" lon="11.31571"><ele>227.99999999999997</ele><time>2026-03-30T13:37:13.875Z</time></trkpt><trkpt lat="44.3373664" lon="11.3157891"><ele>228.0</ele><time>2026-03-30T13:37:14.868Z</time></trkpt><trkpt lat="44.3374108" lon="11.3158696"><ele>228.0</ele><time>2026-03-30T13:37:15.87Z</time></trkpt><trkpt lat="44.3374567" lon="11.315948"><ele>227.57142857142856</ele><time>2026-03-30T13:37:16.879Z</time></trkpt><trkpt lat="44.3375028" lon="11.3160279"><ele>227.1428571428571</ele><time>2026-03-30T13:37:17.872Z</time></trkpt><trkpt lat="44.3375512" lon="11.3161077"><ele>226.71428571428572</ele><time>2026-03-30T13:37:18.867Z</time></trkpt><trkpt lat="44.3376" lon="11.3161859"><ele>226.28571428571428</ele><time>2026-03-30T13:37:19.867Z</time></trkpt><trkpt lat="44.3376484" lon="11.316262"><ele>225.85714285714286</ele><time>2026-03-30T13:37:20.883Z</time></trkpt><trkpt lat="44.3376947" lon="11.3163331"><ele>225.42857142857144</ele><time>2026-03-30T13:37:21.869Z</time></trkpt><trkpt lat="44.3377441" lon="11.3164056"><ele>225.00000000000003</ele><time>2026-03-30T13:37:22.876Z</time></trkpt><trkpt lat="44.3377976" lon="11.3164781"><ele>225.00000000000003</ele><time>2026-03-30T13:37:23.872Z</time></trkpt><trkpt lat="44.3378478" lon="11.3165476"><ele>225.0</ele><time>2026-03-30T13:37:24.875Z</time></trkpt><trkpt lat="44.3378994" lon="11.3166157"><ele>225.00000000000003</ele><time>2026-03-30T13:37:25.867Z</time></trkpt><trkpt lat="44.3379513" lon="11.3166856"><ele>225.00000000000003</ele><time>2026-03-30T13:37:26.876Z</time></trkpt><trkpt lat="44.3380048" lon="11.3167514"><ele>225.0</ele><time>2026-03-30T13:37:27.877Z</time></trkpt><trkpt lat="44.3380572" lon="11.3168137"><ele>225.00000000000003</ele><time>2026-03-30T13:37:28.868Z</time></trkpt><trkpt lat="44.3381131" lon="11.3168748"><ele>225.00000000000003</ele><time>2026-03-30T13:37:29.874Z</time></trkpt><trkpt lat="44.3381673" lon="11.3169342"><ele>224.71428571428575</ele><time>2026-03-30T13:37:30.874Z</time></trkpt><trkpt lat="44.3382236" lon="11.3169903"><ele>224.42857142857144</ele><time>2026-03-30T13:37:31.881Z</time></trkpt><trkpt lat="44.338282" lon="11.3170448"><ele>224.14285714285717</ele><time>2026-03-30T13:37:32.869Z</time></trkpt><trkpt lat="44.3383424" lon="11.3170932"><ele>223.8571428571429</ele><time>2026-03-30T13:37:33.872Z</time></trkpt><trkpt lat="44.3384013" lon="11.3171374"><ele>223.57142857142856</ele><time>2026-03-30T13:37:34.868Z</time></trkpt><trkpt lat="44.3384635" lon="11.3171752"><ele>223.28571428571428</ele><time>2026-03-30T13:37:35.876Z</time></trkpt><trkpt lat="44.3385613" lon="11.3172251"><ele>223.0</ele><time>2026-03-30T13:37:37.864Z</time></trkpt><trkpt lat="44.3386761" lon="11.3172741"><ele>222.99999999999997</ele><time>2026-03-30T13:37:39.869Z</time></trkpt><trkpt lat="44.3387395" lon="11.3172979"><ele>223.0</ele><time>2026-03-30T13:37:40.871Z</time></trkpt><trkpt lat="44.338804" lon="11.3173243"><ele>223.0</ele><time>2026-03-30T13:37:41.878Z</time></trkpt><trkpt lat="44.3388682" lon="11.3173489"><ele>223.0</ele><time>2026-03-30T13:37:42.876Z</time></trkpt><trkpt lat="44.3389334" lon="11.3173692"><ele>222.99999999999997</ele><time>2026-03-30T13:37:43.869Z</time></trkpt><trkpt lat="44.3390526" lon="11.3174023"><ele>223.0</ele><time>2026-03-30T13:37:45.879Z</time></trkpt><trkpt lat="44.3391751" lon="11.3174348"><ele>223.2</ele><time>2026-03-30T13:37:47.872Z</time></trkpt><trkpt lat="44.3392913" lon="11.3174706"><ele>223.4</ele><time>2026-03-30T13:37:49.875Z</time></trkpt><trkpt lat="44.3393532" lon="11.3174895"><ele>223.59999999999997</ele><time>2026-03-30T13:37:50.874Z</time></trkpt><trkpt lat="44.3394704" lon="11.3175163"><ele>223.79999999999998</ele><time>2026-03-30T13:37:52.873Z</time></trkpt><trkpt lat="44.3395925" lon="11.3175444"><ele>224.0</ele><time>2026-03-30T13:37:54.874Z</time></trkpt><trkpt lat="44.3397097" lon="11.3175713"><ele>223.0</ele><time>2026-03-30T13:37:56.871Z</time></trkpt><trkpt lat="44.3398181" lon="11.3175944"><ele>221.99999999999997</ele><time>2026-03-30T13:37:58.875Z</time></trkpt><trkpt lat="44.3399244" lon="11.3176151"><ele>220.99999999999997</ele><time>2026-03-30T13:38:00.868Z</time></trkpt><trkpt lat="44.3400193" lon="11.3176373"><ele>220.0</ele><time>2026-03-30T13:38:02.877Z</time></trkpt><trkpt lat="44.3401104" lon="11.3176763"><ele>219.0</ele><time>2026-03-30T13:38:04.865Z</time></trkpt><trkpt lat="44.3402019" lon="11.3177377"><ele>219.0</ele><time>2026-03-30T13:38:06.882Z</time></trkpt><trkpt lat="44.3402986" lon="11.3178055"><ele>218.99999999999997</ele><time>2026-03-30T13:38:08.877Z</time></trkpt><trkpt lat="44.3403872" lon="11.3178811"><ele>218.99999999999997</ele><time>2026-03-30T13:38:10.874Z</time></trkpt><trkpt lat="44.3404771" lon="11.3179605"><ele>219.0</ele><time>2026-03-30T13:38:12.867Z</time></trkpt><trkpt lat="44.3405671" lon="11.3180478"><ele>219.0</ele><time>2026-03-30T13:38:14.874Z</time></trkpt><trkpt lat="44.3406188" lon="11.3180993"><ele>219.16666666666666</ele><time>2026-03-30T13:38:15.871Z</time></trkpt><trkpt lat="44.3407166" lon="11.3181934"><ele>219.33333333333331</ele><time>2026-03-30T13:38:17.877Z</time></trkpt><trkpt lat="44.3407753" lon="11.3182461"><ele>219.5</ele><time>2026-03-30T13:38:18.867Z</time></trkpt><trkpt lat="44.3408338" lon="11.318309"><ele>219.66666666666666</ele><time>2026-03-30T13:38:19.88Z</time></trkpt><trkpt lat="44.3408945" lon="11.3183695"><ele>219.83333333333331</ele><time>2026-03-30T13:38:20.875Z</time></trkpt><trkpt lat="44.3409674" lon="11.3184421"><ele>220.0</ele><time>2026-03-30T13:38:21.874Z</time></trkpt><trkpt lat="44.3410381" lon="11.3185155"><ele>219.99999999999997</ele><time>2026-03-30T13:38:22.873Z</time></trkpt><trkpt lat="44.341113" lon="11.3185942"><ele>220.0</ele><time>2026-03-30T13:38:23.875Z</time></trkpt><trkpt lat="44.3411814" lon="11.318664"><ele>220.0</ele><time>2026-03-30T13:38:24.87Z</time></trkpt><trkpt lat="44.3412523" lon="11.3187367"><ele>220.0</ele><time>2026-03-30T13:38:25.873Z</time></trkpt><trkpt lat="44.3413277" lon="11.3188128"><ele>219.99999999999997</ele><time>2026-03-30T13:38:26.866Z</time></trkpt><trkpt lat="44.3413979" lon="11.3188773"><ele>220.0</ele><time>2026-03-30T13:38:27.881Z</time></trkpt><trkpt lat="44.3414671" lon="11.3189429"><ele>221.16666666666666</ele><time>2026-03-30T13:38:28.871Z</time></trkpt><trkpt lat="44.3415298" lon="11.3190064"><ele>222.33333333333331</ele><time>2026-03-30T13:38:29.874Z</time></trkpt><trkpt lat="44.3416011" lon="11.3190756"><ele>223.5</ele><time>2026-03-30T13:38:30.872Z</time></trkpt><trkpt lat="44.3416663" lon="11.3191435"><ele>224.66666666666669</ele><time>2026-03-30T13:38:31.876Z</time></trkpt><trkpt lat="44.3417309" lon="11.3192125"><ele>225.83333333333334</ele><time>2026-03-30T13:38:32.875Z</time></trkpt><trkpt lat="44.341794" lon="11.3192881"><ele>227.0</ele><time>2026-03-30T13:38:33.874Z</time></trkpt><trkpt lat="44.3418505" lon="11.3193688"><ele>227.00000000000003</ele><time>2026-03-30T13:38:34.881Z</time></trkpt><trkpt lat="44.3419012" lon="11.3194515"><ele>227.0</ele><time>2026-03-30T13:38:35.877Z</time></trkpt><trkpt lat="44.3419547" lon="11.3195329"><ele>227.0</ele><time>2026-03-30T13:38:36.88Z</time></trkpt><trkpt lat="44.3420056" lon="11.3196137"><ele>227.0</ele><time>2026-03-30T13:38:37.88Z</time></trkpt><trkpt lat="44.3420537" lon="11.3196951"><ele>227.00000000000003</ele><time>2026-03-30T13:38:38.88Z</time></trkpt><trkpt lat="44.3421025" lon="11.3197746"><ele>227.0</ele><time>2026-03-30T13:38:39.868Z</time></trkpt><trkpt lat="44.3421516" lon="11.3198502"><ele>227.00000000000003</ele><time>2026-03-30T13:38:40.875Z</time></trkpt><trkpt lat="44.3421996" lon="11.3199246"><ele>227.0</ele><time>2026-03-30T13:38:41.885Z</time></trkpt><trkpt lat="44.3422477" lon="11.3199971"><ele>227.0</ele><time>2026-03-30T13:38:42.87Z</time></trkpt><trkpt lat="44.3422964" lon="11.3200664"><ele>227.0</ele><time>2026-03-30T13:38:43.869Z</time></trkpt><trkpt lat="44.3423441" lon="11.3201297"><ele>227.00000000000003</ele><time>2026-03-30T13:38:44.868Z</time></trkpt><trkpt lat="44.34239" lon="11.3201905"><ele>227.0</ele><time>2026-03-30T13:38:45.874Z</time></trkpt><trkpt lat="44.3424946" lon="11.3202823"><ele>227.0</ele><time>2026-03-30T13:38:47.87Z</time></trkpt><trkpt lat="44.3426086" lon="11.3203479"><ele>227.0</ele><time>2026-03-30T13:38:49.875Z</time></trkpt><trkpt lat="44.3427221" lon="11.3203904"><ele>227.0</ele><time>2026-03-30T13:38:51.877Z</time></trkpt><trkpt lat="44.3428384" lon="11.3204144"><ele>227.0</ele><time>2026-03-30T13:38:53.872Z</time></trkpt><trkpt lat="44.3429467" lon="11.3204246"><ele>226.75</ele><time>2026-03-30T13:38:55.882Z</time></trkpt><trkpt lat="44.343061" lon="11.3204318"><ele>226.5</ele><time>2026-03-30T13:38:57.864Z</time></trkpt><trkpt lat="44.3431664" lon="11.320428"><ele>226.25</ele><time>2026-03-30T13:38:59.874Z</time></trkpt><trkpt lat="44.3432848" lon="11.3204213"><ele>226.0</ele><time>2026-03-30T13:39:01.866Z</time></trkpt><trkpt lat="44.343402" lon="11.3203977"><ele>226.0</ele><time>2026-03-30T13:39:03.875Z</time></trkpt><trkpt lat="44.3435121" lon="11.3203728"><ele>226.0</ele><time>2026-03-30T13:39:05.869Z</time></trkpt><trkpt lat="44.3436252" lon="11.320346"><ele>226.0</ele><time>2026-03-30T13:39:07.88Z</time></trkpt><trkpt lat="44.3437441" lon="11.3203259"><ele>226.0</ele><time>2026-03-30T13:39:09.865Z</time></trkpt><trkpt lat="44.3438655" lon="11.3203048"><ele>226.60000000000002</ele><time>2026-03-30T13:39:11.866Z</time></trkpt><trkpt lat="44.3439852" lon="11.3202802"><ele>227.20000000000002</ele><time>2026-03-30T13:39:13.88Z</time></trkpt><trkpt lat="44.3441093" lon="11.320254"><ele>227.79999999999998</ele><time>2026-03-30T13:39:15.877Z</time></trkpt><trkpt lat="44.3442338" lon="11.3202329"><ele>228.39999999999998</ele><time>2026-03-30T13:39:17.88Z</time></trkpt><trkpt lat="44.3442968" lon="11.3202241"><ele>229.0</ele><time>2026-03-30T13:39:18.875Z</time></trkpt><trkpt lat="44.3443597" lon="11.3202172"><ele>228.99999999999997</ele><time>2026-03-30T13:39:19.878Z</time></trkpt><trkpt lat="44.3444789" lon="11.32021"><ele>229.0</ele><time>2026-03-30T13:39:21.87Z</time></trkpt><trkpt lat="44.3445957" lon="11.3202388"><ele>229.0</ele><time>2026-03-30T13:39:23.883Z</time></trkpt><trkpt lat="44.3446568" lon="11.3202659"><ele>229.0</ele><time>2026-03-30T13:39:24.872Z</time></trkpt><trkpt lat="44.3447164" lon="11.3203023"><ele>228.99999999999997</ele><time>2026-03-30T13:39:25.87Z</time></trkpt><trkpt lat="44.3447722" lon="11.3203575"><ele>229.0</ele><time>2026-03-30T13:39:26.877Z</time></trkpt><trkpt lat="44.3448238" lon="11.3204231"><ele>228.49999999999997</ele><time>2026-03-30T13:39:27.876Z</time></trkpt><trkpt lat="44.3448689" lon="11.3204983"><ele>228.0</ele><time>2026-03-30T13:39:28.875Z</time></trkpt><trkpt lat="44.3449114" lon="11.3205818"><ele>227.5</ele><time>2026-03-30T13:39:29.871Z</time></trkpt><trkpt lat="44.3449481" lon="11.3206662"><ele>227.0</ele><time>2026-03-30T13:39:30.881Z</time></trkpt><trkpt lat="44.3449801" lon="11.3207469"><ele>226.49999999999997</ele><time>2026-03-30T13:39:31.871Z</time></trkpt><trkpt lat="44.3450258" lon="11.3208874"><ele>226.0</ele><time>2026-03-30T13:39:33.873Z</time></trkpt><trkpt lat="44.345062" lon="11.3209962"><ele>225.99999999999997</ele><time>2026-03-30T13:39:35.878Z</time></trkpt><trkpt lat="44.3451048" lon="11.3210895"><ele>226.0</ele><time>2026-03-30T13:39:37.876Z</time></trkpt><trkpt lat="44.3451692" lon="11.321143"><ele>226.0</ele><time>2026-03-30T13:40:00.868Z</time></trkpt><trkpt lat="44.3452306" lon="11.3211994"><ele>226.0</ele><time>2026-03-30T13:40:24.873Z</time></trkpt><trkpt lat="44.3453406" lon="11.3212476"><ele>225.99999999999997</ele><time>2026-03-30T13:41:34.865Z</time></trkpt><trkpt lat="44.3453924" lon="11.3213298"><ele>226.0</ele><time>2026-03-30T13:42:16.884Z</time></trkpt><trkpt lat="44.3454309" lon="11.3214134"><ele>225.20000000000002</ele><time>2026-03-30T13:42:18.866Z</time></trkpt><trkpt lat="44.3454742" lon="11.3215123"><ele>224.40000000000003</ele><time>2026-03-30T13:42:20.874Z</time></trkpt><trkpt lat="44.3455192" lon="11.3216403"><ele>223.6</ele><time>2026-03-30T13:42:22.883Z</time></trkpt><trkpt lat="44.3455807" lon="11.3217788"><ele>222.8</ele><time>2026-03-30T13:42:24.878Z</time></trkpt><trkpt lat="44.3456492" lon="11.3219272"><ele>222.0</ele><time>2026-03-30T13:42:26.873Z</time></trkpt><trkpt lat="44.3456887" lon="11.3220029"><ele>222.0</ele><time>2026-03-30T13:42:27.869Z</time></trkpt><trkpt lat="44.3457321" lon="11.322077"><ele>222.0</ele><time>2026-03-30T13:42:28.871Z</time></trkpt><trkpt lat="44.3457764" lon="11.3221525"><ele>222.0</ele><time>2026-03-30T13:42:29.878Z</time></trkpt><trkpt lat="44.3458217" lon="11.3222286"><ele>222.0</ele><time>2026-03-30T13:42:30.877Z</time></trkpt><trkpt lat="44.3458656" lon="11.3223029"><ele>222.0</ele><time>2026-03-30T13:42:31.869Z</time></trkpt><trkpt lat="44.3459139" lon="11.3223719"><ele>222.0</ele><time>2026-03-30T13:42:32.864Z</time></trkpt><trkpt lat="44.3459657" lon="11.3224347"><ele>222.0</ele><time>2026-03-30T13:42:33.877Z</time></trkpt><trkpt lat="44.3460203" lon="11.3224873"><ele>221.7142857142857</ele><time>2026-03-30T13:42:34.879Z</time></trkpt><trkpt lat="44.3460759" lon="11.3225379"><ele>221.42857142857144</ele><time>2026-03-30T13:42:35.874Z</time></trkpt><trkpt lat="44.3461353" lon="11.3225873"><ele>221.14285714285714</ele><time>2026-03-30T13:42:36.871Z</time></trkpt><trkpt lat="44.3461957" lon="11.3226306"><ele>220.85714285714283</ele><time>2026-03-30T13:42:37.883Z</time></trkpt><trkpt lat="44.3462585" lon="11.3226675"><ele>220.57142857142856</ele><time>2026-03-30T13:42:38.872Z</time></trkpt><trkpt lat="44.3463239" lon="11.3226994"><ele>220.28571428571428</ele><time>2026-03-30T13:42:39.87Z</time></trkpt><trkpt lat="44.3463907" lon="11.3227255"><ele>220.0</ele><time>2026-03-30T13:42:40.872Z</time></trkpt><trkpt lat="44.3464586" lon="11.3227442"><ele>219.99999999999997</ele><time>2026-03-30T13:42:41.868Z</time></trkpt><trkpt lat="44.3465282" lon="11.322754"><ele>220.0</ele><time>2026-03-30T13:42:42.872Z</time></trkpt><trkpt lat="44.3465964" lon="11.3227602"><ele>220.0</ele><time>2026-03-30T13:42:43.883Z</time></trkpt><trkpt lat="44.3466649" lon="11.3227631"><ele>220.0</ele><time>2026-03-30T13:42:44.871Z</time></trkpt><trkpt lat="44.346734" lon="11.3227593"><ele>220.0</ele><time>2026-03-30T13:42:45.865Z</time></trkpt><trkpt lat="44.346803" lon="11.3227539"><ele>219.99999999999997</ele><time>2026-03-30T13:42:46.876Z</time></trkpt><trkpt lat="44.3468727" lon="11.322749"><ele>220.0</ele><time>2026-03-30T13:42:47.869Z</time></trkpt><trkpt lat="44.3469415" lon="11.3227464"><ele>219.99999999999997</ele><time>2026-03-30T13:42:48.874Z</time></trkpt><trkpt lat="44.3470123" lon="11.3227421"><ele>220.0</ele><time>2026-03-30T13:42:49.871Z</time></trkpt><trkpt lat="44.3470824" lon="11.3227388"><ele>220.0</ele><time>2026-03-30T13:42:50.87Z</time></trkpt><trkpt lat="44.3471527" lon="11.3227347"><ele>220.0</ele><time>2026-03-30T13:42:51.87Z</time></trkpt><trkpt lat="44.3472212" lon="11.3227321"><ele>219.99999999999997</ele><time>2026-03-30T13:42:52.861Z</time></trkpt><trkpt lat="44.3472898" lon="11.3227296"><ele>220.0</ele><time>2026-03-30T13:42:53.873Z</time></trkpt><trkpt lat="44.3474134" lon="11.3227117"><ele>219.8</ele><time>2026-03-30T13:42:55.865Z</time></trkpt><trkpt lat="44.3475383" lon="11.3226978"><ele>219.6</ele><time>2026-03-30T13:42:57.863Z</time></trkpt><trkpt lat="44.3476558" lon="11.3226833"><ele>219.39999999999998</ele><time>2026-03-30T13:42:59.877Z</time></trkpt><trkpt lat="44.347778" lon="11.3226836"><ele>219.2</ele><time>2026-03-30T13:43:01.872Z</time></trkpt><trkpt lat="44.3478462" lon="11.3226844"><ele>219.0</ele><time>2026-03-30T13:43:02.876Z</time></trkpt><trkpt lat="44.3479133" lon="11.3226859"><ele>219.0</ele><time>2026-03-30T13:43:03.873Z</time></trkpt><trkpt lat="44.3479816" lon="11.322688"><ele>219.0</ele><time>2026-03-30T13:43:04.875Z</time></trkpt><trkpt lat="44.3480518" lon="11.3226913"><ele>219.0</ele><time>2026-03-30T13:43:05.867Z</time></trkpt><trkpt lat="44.3481221" lon="11.3226935"><ele>219.0</ele><time>2026-03-30T13:43:06.865Z</time></trkpt><trkpt lat="44.3481898" lon="11.3226936"><ele>219.0</ele><time>2026-03-30T13:43:07.879Z</time></trkpt><trkpt lat="44.3482576" lon="11.3226942"><ele>219.0</ele><time>2026-03-30T13:43:08.875Z</time></trkpt><trkpt lat="44.3483212" lon="11.3226939"><ele>219.0</ele><time>2026-03-30T13:43:09.861Z</time></trkpt><trkpt lat="44.3483901" lon="11.3226906"><ele>219.2857142857143</ele><time>2026-03-30T13:43:10.861Z</time></trkpt><trkpt lat="44.3484556" lon="11.3226854"><ele>219.57142857142856</ele><time>2026-03-30T13:43:11.876Z</time></trkpt><trkpt lat="44.3485188" lon="11.3226807"><ele>219.85714285714286</ele><time>2026-03-30T13:43:12.864Z</time></trkpt><trkpt lat="44.348583" lon="11.322675"><ele>220.14285714285717</ele><time>2026-03-30T13:43:13.869Z</time></trkpt><trkpt lat="44.3486482" lon="11.3226676"><ele>220.42857142857144</ele><time>2026-03-30T13:43:14.875Z</time></trkpt><trkpt lat="44.3487127" lon="11.3226579"><ele>220.71428571428572</ele><time>2026-03-30T13:43:15.871Z</time></trkpt><trkpt lat="44.3488287" lon="11.3226398"><ele>221.0</ele><time>2026-03-30T13:43:17.884Z</time></trkpt><trkpt lat="44.3489445" lon="11.3226237"><ele>219.4</ele><time>2026-03-30T13:43:19.86Z</time></trkpt><trkpt lat="44.3490432" lon="11.3225979"><ele>217.8</ele><time>2026-03-30T13:43:21.87Z</time></trkpt><trkpt lat="44.3491539" lon="11.3225586"><ele>216.20000000000002</ele><time>2026-03-30T13:43:23.871Z</time></trkpt><trkpt lat="44.3492185" lon="11.3225451"><ele>214.60000000000002</ele><time>2026-03-30T13:43:24.881Z</time></trkpt><trkpt lat="44.349287" lon="11.322527"><ele>213.0</ele><time>2026-03-30T13:43:25.879Z</time></trkpt><trkpt lat="44.3494009" lon="11.3224846"><ele>213.0</ele><time>2026-03-30T13:43:27.875Z</time></trkpt><trkpt lat="44.3495166" lon="11.3224338"><ele>213.0</ele><time>2026-03-30T13:43:29.867Z</time></trkpt><trkpt lat="44.3495776" lon="11.3224033"><ele>213.0</ele><time>2026-03-30T13:43:30.872Z</time></trkpt><trkpt lat="44.34964" lon="11.3223724"><ele>213.0</ele><time>2026-03-30T13:43:31.877Z</time></trkpt><trkpt lat="44.3497013" lon="11.322339"><ele>213.0</ele><time>2026-03-30T13:43:32.873Z</time></trkpt><trkpt lat="44.3497651" lon="11.3223063"><ele>213.0</ele><time>2026-03-30T13:43:33.884Z</time></trkpt><trkpt lat="44.3498295" lon="11.3222728"><ele>212.85714285714283</ele><time>2026-03-30T13:43:34.873Z</time></trkpt><trkpt lat="44.3498933" lon="11.3222392"><ele>212.71428571428572</ele><time>2026-03-30T13:43:35.873Z</time></trkpt><trkpt lat="44.3499572" lon="11.3222042"><ele>212.57142857142856</ele><time>2026-03-30T13:43:36.868Z</time></trkpt><trkpt lat="44.3500213" lon="11.3221729"><ele>212.42857142857142</ele><time>2026-03-30T13:43:37.864Z</time></trkpt><trkpt lat="44.3500891" lon="11.322146"><ele>212.28571428571428</ele><time>2026-03-30T13:43:38.873Z</time></trkpt><trkpt lat="44.350157" lon="11.322121"><ele>212.14285714285714</ele><time>2026-03-30T13:43:39.873Z</time></trkpt><trkpt lat="44.3502269" lon="11.3221085"><ele>212.0</ele><time>2026-03-30T13:43:40.871Z</time></trkpt><trkpt lat="44.3502993" lon="11.3221093"><ele>211.85714285714286</ele><time>2026-03-30T13:43:41.868Z</time></trkpt><trkpt lat="44.35037" lon="11.3221209"><ele>211.7142857142857</ele><time>2026-03-30T13:43:42.871Z</time></trkpt><trkpt lat="44.3504418" lon="11.3221444"><ele>211.57142857142856</ele><time>2026-03-30T13:43:43.881Z</time></trkpt><trkpt lat="44.3505159" lon="11.3221696"><ele>211.42857142857144</ele><time>2026-03-30T13:43:44.877Z</time></trkpt><trkpt lat="44.3505835" lon="11.322213"><ele>211.28571428571428</ele><time>2026-03-30T13:43:45.881Z</time></trkpt><trkpt lat="44.3506507" lon="11.3222652"><ele>211.14285714285714</ele><time>2026-03-30T13:43:46.867Z</time></trkpt><trkpt lat="44.3507126" lon="11.322318"><ele>211.0</ele><time>2026-03-30T13:43:47.882Z</time></trkpt><trkpt lat="44.3507783" lon="11.3223818"><ele>210.99999999999997</ele><time>2026-03-30T13:43:48.885Z</time></trkpt><trkpt lat="44.35084" lon="11.322448"><ele>211.0</ele><time>2026-03-30T13:43:49.878Z</time></trkpt><trkpt lat="44.3509027" lon="11.3225148"><ele>211.0</ele><time>2026-03-30T13:43:50.869Z</time></trkpt><trkpt lat="44.3509651" lon="11.322583"><ele>211.0</ele><time>2026-03-30T13:43:51.87Z</time></trkpt><trkpt lat="44.3510248" lon="11.3226518"><ele>210.99999999999997</ele><time>2026-03-30T13:43:52.873Z</time></trkpt><trkpt lat="44.3510836" lon="11.3227222"><ele>211.0</ele><time>2026-03-30T13:43:53.871Z</time></trkpt><trkpt lat="44.3511409" lon="11.3227932"><ele>210.99999999999997</ele><time>2026-03-30T13:43:54.872Z</time></trkpt><trkpt lat="44.351198" lon="11.3228652"><ele>211.0</ele><time>2026-03-30T13:43:55.876Z</time></trkpt><trkpt lat="44.3512544" lon="11.3229381"><ele>211.0</ele><time>2026-03-30T13:43:56.883Z</time></trkpt><trkpt lat="44.3513069" lon="11.3230112"><ele>211.0</ele><time>2026-03-30T13:43:57.877Z</time></trkpt><trkpt lat="44.3513585" lon="11.3230848"><ele>210.99999999999997</ele><time>2026-03-30T13:43:58.882Z</time></trkpt><trkpt lat="44.3514089" lon="11.3231602"><ele>211.0</ele><time>2026-03-30T13:43:59.867Z</time></trkpt><trkpt lat="44.351459" lon="11.3232413"><ele>210.33333333333331</ele><time>2026-03-30T13:44:00.875Z</time></trkpt><trkpt lat="44.3515085" lon="11.3233275"><ele>209.66666666666666</ele><time>2026-03-30T13:44:01.874Z</time></trkpt><trkpt lat="44.3515586" lon="11.3234154"><ele>209.0</ele><time>2026-03-30T13:44:02.871Z</time></trkpt><trkpt lat="44.3516063" lon="11.3235058"><ele>208.33333333333331</ele><time>2026-03-30T13:44:03.876Z</time></trkpt><trkpt lat="44.3516494" lon="11.3235996"><ele>207.66666666666666</ele><time>2026-03-30T13:44:04.874Z</time></trkpt><trkpt lat="44.3516904" lon="11.3236949"><ele>207.0</ele><time>2026-03-30T13:44:05.878Z</time></trkpt><trkpt lat="44.3517282" lon="11.3237934"><ele>207.0</ele><time>2026-03-30T13:44:06.879Z</time></trkpt><trkpt lat="44.3517619" lon="11.3238943"><ele>207.0</ele><time>2026-03-30T13:44:07.887Z</time></trkpt><trkpt lat="44.3517943" lon="11.3239987"><ele>207.0</ele><time>2026-03-30T13:44:08.886Z</time></trkpt><trkpt lat="44.3518238" lon="11.3241039"><ele>207.0</ele><time>2026-03-30T13:44:09.872Z</time></trkpt><trkpt lat="44.3518497" lon="11.3242061"><ele>207.0</ele><time>2026-03-30T13:44:10.888Z</time></trkpt><trkpt lat="44.3518753" lon="11.3243057"><ele>207.0</ele><time>2026-03-30T13:44:11.873Z</time></trkpt><trkpt lat="44.3518976" lon="11.3244061"><ele>208.42857142857144</ele><time>2026-03-30T13:44:12.891Z</time></trkpt><trkpt lat="44.3519208" lon="11.3245052"><ele>209.85714285714286</ele><time>2026-03-30T13:44:13.889Z</time></trkpt><trkpt lat="44.3519411" lon="11.3246036"><ele>211.28571428571428</ele><time>2026-03-30T13:44:14.872Z</time></trkpt><trkpt lat="44.3519618" lon="11.3247016"><ele>212.71428571428572</ele><time>2026-03-30T13:44:15.879Z</time></trkpt><trkpt lat="44.3519829" lon="11.3247997"><ele>214.14285714285714</ele><time>2026-03-30T13:44:16.869Z</time></trkpt><trkpt lat="44.3520049" lon="11.324896"><ele>215.57142857142858</ele><time>2026-03-30T13:44:17.884Z</time></trkpt><trkpt lat="44.3520277" lon="11.3249923"><ele>217.0</ele><time>2026-03-30T13:44:18.867Z</time></trkpt><trkpt lat="44.352052" lon="11.3250868"><ele>218.42857142857144</ele><time>2026-03-30T13:44:19.872Z</time></trkpt><trkpt lat="44.3520797" lon="11.3251821"><ele>219.85714285714286</ele><time>2026-03-30T13:44:20.872Z</time></trkpt><trkpt lat="44.3521075" lon="11.325277"><ele>221.28571428571428</ele><time>2026-03-30T13:44:21.877Z</time></trkpt><trkpt lat="44.3521345" lon="11.3253723"><ele>222.71428571428572</ele><time>2026-03-30T13:44:22.873Z</time></trkpt><trkpt lat="44.352159" lon="11.3254683"><ele>224.14285714285717</ele><time>2026-03-30T13:44:23.881Z</time></trkpt><trkpt lat="44.3521839" lon="11.3255652"><ele>225.57142857142858</ele><time>2026-03-30T13:44:24.874Z</time></trkpt><trkpt lat="44.3522091" lon="11.3256614"><ele>227.0</ele><time>2026-03-30T13:44:25.881Z</time></trkpt><trkpt lat="44.352234" lon="11.3257574"><ele>224.42857142857144</ele><time>2026-03-30T13:44:26.867Z</time></trkpt><trkpt lat="44.3522598" lon="11.3258527"><ele>221.8571428571429</ele><time>2026-03-30T13:44:27.877Z</time></trkpt><trkpt lat="44.3522873" lon="11.3259484"><ele>219.28571428571428</ele><time>2026-03-30T13:44:28.881Z</time></trkpt><trkpt lat="44.3523138" lon="11.3260441"><ele>216.71428571428572</ele><time>2026-03-30T13:44:29.873Z</time></trkpt><trkpt lat="44.352339" lon="11.3261411"><ele>214.14285714285714</ele><time>2026-03-30T13:44:30.866Z</time></trkpt><trkpt lat="44.3523641" lon="11.3262373"><ele>211.57142857142856</ele><time>2026-03-30T13:44:31.875Z</time></trkpt><trkpt lat="44.3523886" lon="11.3263333"><ele>209.0</ele><time>2026-03-30T13:44:32.875Z</time></trkpt><trkpt lat="44.3524143" lon="11.3264275"><ele>209.0</ele><time>2026-03-30T13:44:33.878Z</time></trkpt><trkpt lat="44.3524409" lon="11.3265206"><ele>209.0</ele><time>2026-03-30T13:44:34.878Z</time></trkpt><trkpt lat="44.3524692" lon="11.3266111"><ele>209.0</ele><time>2026-03-30T13:44:35.874Z</time></trkpt><trkpt lat="44.352502" lon="11.3266993"><ele>209.0</ele><time>2026-03-30T13:44:36.878Z</time></trkpt><trkpt lat="44.3525356" lon="11.326787"><ele>209.0</ele><time>2026-03-30T13:44:37.874Z</time></trkpt><trkpt lat="44.352572" lon="11.3268721"><ele>209.0</ele><time>2026-03-30T13:44:38.879Z</time></trkpt><trkpt lat="44.3526116" lon="11.3269543"><ele>209.0</ele><time>2026-03-30T13:44:39.857Z</time></trkpt><trkpt lat="44.3526535" lon="11.3270331"><ele>209.0</ele><time>2026-03-30T13:44:40.873Z</time></trkpt><trkpt lat="44.352699" lon="11.3271102"><ele>209.0</ele><time>2026-03-30T13:44:41.87Z</time></trkpt><trkpt lat="44.3527462" lon="11.3271842"><ele>209.0</ele><time>2026-03-30T13:44:42.882Z</time></trkpt><trkpt lat="44.3527968" lon="11.3272552"><ele>209.0</ele><time>2026-03-30T13:44:43.864Z</time></trkpt><trkpt lat="44.35285" lon="11.3273225"><ele>209.0</ele><time>2026-03-30T13:44:44.878Z</time></trkpt><trkpt lat="44.3529053" lon="11.3273869"><ele>209.0</ele><time>2026-03-30T13:44:45.879Z</time></trkpt><trkpt lat="44.3529629" lon="11.327447"><ele>209.0</ele><time>2026-03-30T13:44:46.872Z</time></trkpt><trkpt lat="44.3530214" lon="11.327504"><ele>208.0</ele><time>2026-03-30T13:44:47.874Z</time></trkpt><trkpt lat="44.35308" lon="11.3275589"><ele>207.0</ele><time>2026-03-30T13:44:48.879Z</time></trkpt><trkpt lat="44.3531409" lon="11.3276119"><ele>206.0</ele><time>2026-03-30T13:44:49.863Z</time></trkpt><trkpt lat="44.3532004" lon="11.3276629"><ele>205.0</ele><time>2026-03-30T13:44:50.888Z</time></trkpt><trkpt lat="44.353263" lon="11.3277104"><ele>204.0</ele><time>2026-03-30T13:44:51.874Z</time></trkpt><trkpt lat="44.3533271" lon="11.3277531"><ele>203.0</ele><time>2026-03-30T13:44:52.877Z</time></trkpt><trkpt lat="44.3533913" lon="11.3277927"><ele>202.0</ele><time>2026-03-30T13:44:53.875Z</time></trkpt><trkpt lat="44.3534566" lon="11.3278307"><ele>202.0</ele><time>2026-03-30T13:44:54.869Z</time></trkpt><trkpt lat="44.3535188" lon="11.3278667"><ele>202.0</ele><time>2026-03-30T13:44:55.875Z</time></trkpt><trkpt lat="44.3535824" lon="11.3278994"><ele>202.0</ele><time>2026-03-30T13:44:56.884Z</time></trkpt><trkpt lat="44.3536468" lon="11.327931"><ele>202.0</ele><time>2026-03-30T13:44:57.864Z</time></trkpt><trkpt lat="44.3537123" lon="11.3279634"><ele>202.0</ele><time>2026-03-30T13:44:58.87Z</time></trkpt><trkpt lat="44.3537767" lon="11.3279933"><ele>202.0</ele><time>2026-03-30T13:44:59.879Z</time></trkpt><trkpt lat="44.3538419" lon="11.3280228"><ele>202.0</ele><time>2026-03-30T13:45:00.876Z</time></trkpt><trkpt lat="44.3539085" lon="11.3280529"><ele>202.42857142857142</ele><time>2026-03-30T13:45:01.864Z</time></trkpt><trkpt lat="44.3539745" lon="11.3280828"><ele>202.85714285714283</ele><time>2026-03-30T13:45:02.876Z</time></trkpt><trkpt lat="44.3540413" lon="11.3281122"><ele>203.28571428571428</ele><time>2026-03-30T13:45:03.869Z</time></trkpt><trkpt lat="44.3541066" lon="11.3281421"><ele>203.71428571428572</ele><time>2026-03-30T13:45:04.872Z</time></trkpt><trkpt lat="44.3541726" lon="11.3281717"><ele>204.14285714285714</ele><time>2026-03-30T13:45:05.876Z</time></trkpt><trkpt lat="44.3542384" lon="11.328201"><ele>204.57142857142858</ele><time>2026-03-30T13:45:06.878Z</time></trkpt><trkpt lat="44.3543031" lon="11.3282306"><ele>205.0</ele><time>2026-03-30T13:45:07.877Z</time></trkpt><trkpt lat="44.3543677" lon="11.32826"><ele>205.0</ele><time>2026-03-30T13:45:08.871Z</time></trkpt><trkpt lat="44.3544863" lon="11.3283076"><ele>205.0</ele><time>2026-03-30T13:45:10.874Z</time></trkpt><trkpt lat="44.3545519" lon="11.3283351"><ele>205.0</ele><time>2026-03-30T13:45:11.87Z</time></trkpt><trkpt lat="44.3546738" lon="11.3283819"><ele>205.0</ele><time>2026-03-30T13:45:13.878Z</time></trkpt><trkpt lat="44.3547382" lon="11.3284073"><ele>205.0</ele><time>2026-03-30T13:45:14.873Z</time></trkpt><trkpt lat="44.3548036" lon="11.3284336"><ele>203.75</ele><time>2026-03-30T13:45:15.865Z</time></trkpt><trkpt lat="44.3549231" lon="11.3284853"><ele>202.5</ele><time>2026-03-30T13:45:17.867Z</time></trkpt><trkpt lat="44.3550391" lon="11.3285352"><ele>201.25</ele><time>2026-03-30T13:45:19.87Z</time></trkpt><trkpt lat="44.3551496" lon="11.3285737"><ele>200.0</ele><time>2026-03-30T13:45:21.873Z</time></trkpt><trkpt lat="44.3552517" lon="11.3286161"><ele>200.00000000000003</ele><time>2026-03-30T13:45:23.867Z</time></trkpt><trkpt lat="44.3553744" lon="11.3286597"><ele>200.0</ele><time>2026-03-30T13:45:25.871Z</time></trkpt><trkpt lat="44.3554402" lon="11.328686"><ele>200.0</ele><time>2026-03-30T13:45:26.873Z</time></trkpt><trkpt lat="44.3555108" lon="11.3287111"><ele>200.0</ele><time>2026-03-30T13:45:27.867Z</time></trkpt><trkpt lat="44.3555727" lon="11.3287317"><ele>200.00000000000003</ele><time>2026-03-30T13:45:28.861Z</time></trkpt><trkpt lat="44.3556403" lon="11.3287529"><ele>200.0</ele><time>2026-03-30T13:45:29.876Z</time></trkpt><trkpt lat="44.3557521" lon="11.3287824"><ele>198.75</ele><time>2026-03-30T13:45:31.881Z</time></trkpt><trkpt lat="44.3558751" lon="11.3288028"><ele>197.5</ele><time>2026-03-30T13:45:33.877Z</time></trkpt><trkpt lat="44.3559947" lon="11.3288056"><ele>196.25</ele><time>2026-03-30T13:45:35.874Z</time></trkpt><trkpt lat="44.3561169" lon="11.3287937"><ele>195.0</ele><time>2026-03-30T13:45:37.878Z</time></trkpt><trkpt lat="44.3562377" lon="11.3287571"><ele>195.0</ele><time>2026-03-30T13:45:39.864Z</time></trkpt><trkpt lat="44.3563014" lon="11.3287343"><ele>195.0</ele><time>2026-03-30T13:45:40.863Z</time></trkpt><trkpt lat="44.3563647" lon="11.3287075"><ele>195.0</ele><time>2026-03-30T13:45:41.885Z</time></trkpt><trkpt lat="44.3564267" lon="11.3286788"><ele>195.0</ele><time>2026-03-30T13:45:42.874Z</time></trkpt><trkpt lat="44.3565373" lon="11.328619"><ele>195.0</ele><time>2026-03-30T13:45:44.88Z</time></trkpt><trkpt lat="44.3566531" lon="11.3285612"><ele>195.0</ele><time>2026-03-30T13:45:46.87Z</time></trkpt><trkpt lat="44.3567695" lon="11.3285024"><ele>195.4</ele><time>2026-03-30T13:45:48.887Z</time></trkpt><trkpt lat="44.3568839" lon="11.3284415"><ele>195.8</ele><time>2026-03-30T13:45:50.884Z</time></trkpt><trkpt lat="44.3570008" lon="11.3283864"><ele>196.2</ele><time>2026-03-30T13:45:52.87Z</time></trkpt><trkpt lat="44.3571209" lon="11.3283356"><ele>196.6</ele><time>2026-03-30T13:45:54.88Z</time></trkpt><trkpt lat="44.3571823" lon="11.3283134"><ele>197.0</ele><time>2026-03-30T13:45:55.877Z</time></trkpt><trkpt lat="44.3572445" lon="11.328295"><ele>197.0</ele><time>2026-03-30T13:45:56.869Z</time></trkpt><trkpt lat="44.3573094" lon="11.3282781"><ele>197.0</ele><time>2026-03-30T13:45:57.883Z</time></trkpt><trkpt lat="44.3573756" lon="11.3282632"><ele>197.0</ele><time>2026-03-30T13:45:58.881Z</time></trkpt><trkpt lat="44.3574431" lon="11.3282503"><ele>197.0</ele><time>2026-03-30T13:45:59.873Z</time></trkpt><trkpt lat="44.3575119" lon="11.3282414"><ele>197.0</ele><time>2026-03-30T13:46:00.865Z</time></trkpt><trkpt lat="44.3575842" lon="11.3282354"><ele>197.0</ele><time>2026-03-30T13:46:01.871Z</time></trkpt><trkpt lat="44.3576584" lon="11.3282309"><ele>197.0</ele><time>2026-03-30T13:46:02.889Z</time></trkpt><trkpt lat="44.3577333" lon="11.3282282"><ele>197.00000000000003</ele><time>2026-03-30T13:46:03.87Z</time></trkpt><trkpt lat="44.35781" lon="11.328231"><ele>197.0</ele><time>2026-03-30T13:46:04.869Z</time></trkpt><trkpt lat="44.3578862" lon="11.3282426"><ele>197.0</ele><time>2026-03-30T13:46:05.869Z</time></trkpt><trkpt lat="44.3579609" lon="11.3282668"><ele>197.0</ele><time>2026-03-30T13:46:06.873Z</time></trkpt><trkpt lat="44.3580343" lon="11.3283019"><ele>197.00000000000003</ele><time>2026-03-30T13:46:07.863Z</time></trkpt><trkpt lat="44.3581057" lon="11.3283444"><ele>197.0</ele><time>2026-03-30T13:46:08.869Z</time></trkpt><trkpt lat="44.358173" lon="11.328396"><ele>197.14285714285714</ele><time>2026-03-30T13:46:09.871Z</time></trkpt><trkpt lat="44.3582363" lon="11.3284542"><ele>197.28571428571428</ele><time>2026-03-30T13:46:10.879Z</time></trkpt><trkpt lat="44.3582964" lon="11.3285179"><ele>197.42857142857144</ele><time>2026-03-30T13:46:11.867Z</time></trkpt><trkpt lat="44.3583547" lon="11.328585"><ele>197.57142857142856</ele><time>2026-03-30T13:46:12.873Z</time></trkpt><trkpt lat="44.3584099" lon="11.3286567"><ele>197.7142857142857</ele><time>2026-03-30T13:46:13.875Z</time></trkpt><trkpt lat="44.3584632" lon="11.3287295"><ele>197.85714285714286</ele><time>2026-03-30T13:46:14.872Z</time></trkpt><trkpt lat="44.3585136" lon="11.3288017"><ele>198.0</ele><time>2026-03-30T13:46:15.874Z</time></trkpt><trkpt lat="44.3585642" lon="11.3288753"><ele>197.85714285714286</ele><time>2026-03-30T13:46:16.878Z</time></trkpt><trkpt lat="44.3586143" lon="11.3289483"><ele>197.7142857142857</ele><time>2026-03-30T13:46:17.866Z</time></trkpt><trkpt lat="44.3586629" lon="11.3290212"><ele>197.57142857142856</ele><time>2026-03-30T13:46:18.877Z</time></trkpt><trkpt lat="44.3587103" lon="11.3290924"><ele>197.42857142857144</ele><time>2026-03-30T13:46:19.871Z</time></trkpt><trkpt lat="44.3587571" lon="11.3291636"><ele>197.28571428571428</ele><time>2026-03-30T13:46:20.865Z</time></trkpt><trkpt lat="44.358814" lon="11.3292478"><ele>197.14285714285714</ele><time>2026-03-30T13:46:21.877Z</time></trkpt><trkpt lat="44.3588688" lon="11.3293274"><ele>197.0</ele><time>2026-03-30T13:46:22.875Z</time></trkpt><trkpt lat="44.3589206" lon="11.3294035"><ele>196.33333333333334</ele><time>2026-03-30T13:46:23.868Z</time></trkpt><trkpt lat="44.3589724" lon="11.3294778"><ele>195.66666666666669</ele><time>2026-03-30T13:46:24.876Z</time></trkpt><trkpt lat="44.3590221" lon="11.3295477"><ele>195.0</ele><time>2026-03-30T13:46:25.869Z</time></trkpt><trkpt lat="44.3590781" lon="11.3296227"><ele>194.33333333333331</ele><time>2026-03-30T13:46:26.867Z</time></trkpt><trkpt lat="44.3591384" lon="11.3296936"><ele>193.66666666666666</ele><time>2026-03-30T13:46:27.867Z</time></trkpt><trkpt lat="44.3591999" lon="11.3297612"><ele>193.0</ele><time>2026-03-30T13:46:28.871Z</time></trkpt><trkpt lat="44.3592553" lon="11.3298251"><ele>193.00000000000003</ele><time>2026-03-30T13:46:29.871Z</time></trkpt><trkpt lat="44.3593108" lon="11.3298856"><ele>193.0</ele><time>2026-03-30T13:46:30.882Z</time></trkpt><trkpt lat="44.3593664" lon="11.3299426"><ele>193.0</ele><time>2026-03-30T13:46:31.869Z</time></trkpt><trkpt lat="44.3594231" lon="11.3299963"><ele>193.0</ele><time>2026-03-30T13:46:32.87Z</time></trkpt><trkpt lat="44.3594785" lon="11.3300485"><ele>193.0</ele><time>2026-03-30T13:46:33.872Z</time></trkpt><trkpt lat="44.359535" lon="11.3300979"><ele>193.00000000000003</ele><time>2026-03-30T13:46:34.874Z</time></trkpt><trkpt lat="44.359593" lon="11.3301463"><ele>193.0</ele><time>2026-03-30T13:46:35.884Z</time></trkpt><trkpt lat="44.3596503" lon="11.3301937"><ele>192.99999999999997</ele><time>2026-03-30T13:46:36.871Z</time></trkpt><trkpt lat="44.3597114" lon="11.3302407"><ele>193.0</ele><time>2026-03-30T13:46:37.871Z</time></trkpt><trkpt lat="44.3597756" lon="11.3302855"><ele>193.0</ele><time>2026-03-30T13:46:38.872Z</time></trkpt><trkpt lat="44.3598359" lon="11.3303284"><ele>193.0</ele><time>2026-03-30T13:46:39.879Z</time></trkpt><trkpt lat="44.3598938" lon="11.3303687"><ele>192.99999999999997</ele><time>2026-03-30T13:46:40.877Z</time></trkpt><trkpt lat="44.359952" lon="11.3304062"><ele>193.0</ele><time>2026-03-30T13:46:41.875Z</time></trkpt><trkpt lat="44.3600674" lon="11.3304697"><ele>193.0</ele><time>2026-03-30T13:46:43.874Z</time></trkpt><trkpt lat="44.3601265" lon="11.3305006"><ele>193.0</ele><time>2026-03-30T13:46:44.873Z</time></trkpt><trkpt lat="44.360243" lon="11.3305549"><ele>193.0</ele><time>2026-03-30T13:46:46.87Z</time></trkpt><trkpt lat="44.3603605" lon="11.3306044"><ele>193.0</ele><time>2026-03-30T13:46:48.869Z</time></trkpt><trkpt lat="44.3604764" lon="11.330652"><ele>193.0</ele><time>2026-03-30T13:46:50.871Z</time></trkpt><trkpt lat="44.3605916" lon="11.3307085"><ele>192.85714285714286</ele><time>2026-03-30T13:46:52.884Z</time></trkpt><trkpt lat="44.3606521" lon="11.3307406"><ele>192.71428571428572</ele><time>2026-03-30T13:46:53.872Z</time></trkpt><trkpt lat="44.3607133" lon="11.3307758"><ele>192.57142857142856</ele><time>2026-03-30T13:46:54.873Z</time></trkpt><trkpt lat="44.3607738" lon="11.3308161"><ele>192.42857142857144</ele><time>2026-03-30T13:46:55.874Z</time></trkpt><trkpt lat="44.3608348" lon="11.3308593"><ele>192.28571428571428</ele><time>2026-03-30T13:46:56.875Z</time></trkpt><trkpt lat="44.3608959" lon="11.3309076"><ele>192.14285714285714</ele><time>2026-03-30T13:46:57.869Z</time></trkpt><trkpt lat="44.360955" lon="11.3309605"><ele>192.0</ele><time>2026-03-30T13:46:58.862Z</time></trkpt><trkpt lat="44.3610134" lon="11.3310199"><ele>192.0</ele><time>2026-03-30T13:46:59.87Z</time></trkpt><trkpt lat="44.3610681" lon="11.3310857"><ele>192.0</ele><time>2026-03-30T13:47:00.864Z</time></trkpt><trkpt lat="44.3611265" lon="11.3311571"><ele>192.0</ele><time>2026-03-30T13:47:01.878Z</time></trkpt><trkpt lat="44.3611747" lon="11.3312424"><ele>192.0</ele><time>2026-03-30T13:47:02.869Z</time></trkpt><trkpt lat="44.3612172" lon="11.3313332"><ele>192.0</ele><time>2026-03-30T13:47:03.883Z</time></trkpt><trkpt lat="44.3612496" lon="11.3314236"><ele>192.0</ele><time>2026-03-30T13:47:04.875Z</time></trkpt><trkpt lat="44.3612776" lon="11.3315225"><ele>192.28571428571428</ele><time>2026-03-30T13:47:05.871Z</time></trkpt><trkpt lat="44.361295" lon="11.3316237"><ele>192.57142857142856</ele><time>2026-03-30T13:47:06.876Z</time></trkpt><trkpt lat="44.3613079" lon="11.3317255"><ele>192.85714285714283</ele><time>2026-03-30T13:47:07.868Z</time></trkpt><trkpt lat="44.3613192" lon="11.331826"><ele>193.14285714285714</ele><time>2026-03-30T13:47:08.862Z</time></trkpt><trkpt lat="44.3613312" lon="11.3319287"><ele>193.42857142857144</ele><time>2026-03-30T13:47:09.877Z</time></trkpt><trkpt lat="44.3613426" lon="11.3320292"><ele>193.7142857142857</ele><time>2026-03-30T13:47:10.875Z</time></trkpt><trkpt lat="44.3613508" lon="11.3321289"><ele>194.0</ele><time>2026-03-30T13:47:11.876Z</time></trkpt><trkpt lat="44.3613598" lon="11.3322287"><ele>193.7142857142857</ele><time>2026-03-30T13:47:12.872Z</time></trkpt><trkpt lat="44.3613682" lon="11.332327"><ele>193.42857142857144</ele><time>2026-03-30T13:47:13.861Z</time></trkpt><trkpt lat="44.3613776" lon="11.3324268"><ele>193.14285714285714</ele><time>2026-03-30T13:47:14.863Z</time></trkpt><trkpt lat="44.3613872" lon="11.3325254"><ele>192.85714285714283</ele><time>2026-03-30T13:47:15.871Z</time></trkpt><trkpt lat="44.3613957" lon="11.3326251"><ele>192.57142857142856</ele><time>2026-03-30T13:47:16.875Z</time></trkpt><trkpt lat="44.3614049" lon="11.3327251"><ele>192.28571428571428</ele><time>2026-03-30T13:47:17.871Z</time></trkpt><trkpt lat="44.361414" lon="11.3328238"><ele>192.0</ele><time>2026-03-30T13:47:18.874Z</time></trkpt><trkpt lat="44.3614237" lon="11.3329236"><ele>191.99999999999997</ele><time>2026-03-30T13:47:19.87Z</time></trkpt><trkpt lat="44.3614317" lon="11.3330232"><ele>192.0</ele><time>2026-03-30T13:47:20.871Z</time></trkpt><trkpt lat="44.3614399" lon="11.3331233"><ele>192.0</ele><time>2026-03-30T13:47:21.869Z</time></trkpt><trkpt lat="44.3614497" lon="11.3332229"><ele>192.0</ele><time>2026-03-30T13:47:22.872Z</time></trkpt><trkpt lat="44.3614591" lon="11.3333249"><ele>192.0</ele><time>2026-03-30T13:47:23.879Z</time></trkpt><trkpt lat="44.3614662" lon="11.3334271"><ele>191.99999999999997</ele><time>2026-03-30T13:47:24.875Z</time></trkpt><trkpt lat="44.3614741" lon="11.3335303"><ele>192.0</ele><time>2026-03-30T13:47:25.878Z</time></trkpt><trkpt lat="44.3614821" lon="11.3336334"><ele>191.57142857142856</ele><time>2026-03-30T13:47:26.873Z</time></trkpt><trkpt lat="44.3614908" lon="11.3337376"><ele>191.14285714285714</ele><time>2026-03-30T13:47:27.876Z</time></trkpt><trkpt lat="44.3614976" lon="11.3338425"><ele>190.71428571428572</ele><time>2026-03-30T13:47:28.877Z</time></trkpt><trkpt lat="44.3615043" lon="11.3339469"><ele>190.28571428571428</ele><time>2026-03-30T13:47:29.874Z</time></trkpt><trkpt lat="44.3615124" lon="11.3340512"><ele>189.85714285714286</ele><time>2026-03-30T13:47:30.867Z</time></trkpt><trkpt lat="44.3615203" lon="11.3341537"><ele>189.42857142857142</ele><time>2026-03-30T13:47:31.876Z</time></trkpt><trkpt lat="44.3615282" lon="11.3342549"><ele>189.0</ele><time>2026-03-30T13:47:32.872Z</time></trkpt><trkpt lat="44.3615356" lon="11.3343558"><ele>188.85714285714286</ele><time>2026-03-30T13:47:33.868Z</time></trkpt><trkpt lat="44.3615453" lon="11.3344552"><ele>188.71428571428572</ele><time>2026-03-30T13:47:34.867Z</time></trkpt><trkpt lat="44.3615596" lon="11.3345528"><ele>188.57142857142856</ele><time>2026-03-30T13:47:35.876Z</time></trkpt><trkpt lat="44.3615777" lon="11.3346473"><ele>188.42857142857144</ele><time>2026-03-30T13:47:36.875Z</time></trkpt><trkpt lat="44.3615996" lon="11.3347417"><ele>188.28571428571428</ele><time>2026-03-30T13:47:37.874Z</time></trkpt><trkpt lat="44.3616256" lon="11.3348334"><ele>188.14285714285714</ele><time>2026-03-30T13:47:38.873Z</time></trkpt><trkpt lat="44.3616554" lon="11.3349227"><ele>188.0</ele><time>2026-03-30T13:47:39.874Z</time></trkpt><trkpt lat="44.3616917" lon="11.3350069"><ele>188.28571428571428</ele><time>2026-03-30T13:47:40.875Z</time></trkpt><trkpt lat="44.3617306" lon="11.3350861"><ele>188.57142857142856</ele><time>2026-03-30T13:47:41.871Z</time></trkpt><trkpt lat="44.3617731" lon="11.3351628"><ele>188.85714285714286</ele><time>2026-03-30T13:47:42.881Z</time></trkpt><trkpt lat="44.361817" lon="11.3352359"><ele>189.14285714285714</ele><time>2026-03-30T13:47:43.879Z</time></trkpt><trkpt lat="44.3618615" lon="11.3353076"><ele>189.42857142857144</ele><time>2026-03-30T13:47:44.874Z</time></trkpt><trkpt lat="44.3619082" lon="11.3353747"><ele>189.71428571428572</ele><time>2026-03-30T13:47:45.868Z</time></trkpt><trkpt lat="44.3619553" lon="11.3354384"><ele>190.0</ele><time>2026-03-30T13:47:46.873Z</time></trkpt><trkpt lat="44.3620036" lon="11.3354986"><ele>190.2</ele><time>2026-03-30T13:47:47.868Z</time></trkpt><trkpt lat="44.3620536" lon="11.3355543"><ele>190.4</ele><time>2026-03-30T13:47:48.872Z</time></trkpt><trkpt lat="44.3621525" lon="11.3356525"><ele>190.60000000000002</ele><time>2026-03-30T13:47:50.878Z</time></trkpt><trkpt lat="44.3622493" lon="11.3357373"><ele>190.8</ele><time>2026-03-30T13:47:52.863Z</time></trkpt><trkpt lat="44.362343" lon="11.3358151"><ele>191.0</ele><time>2026-03-30T13:47:54.875Z</time></trkpt><trkpt lat="44.3624348" lon="11.3358849"><ele>191.0</ele><time>2026-03-30T13:47:56.874Z</time></trkpt><trkpt lat="44.3625232" lon="11.3359537"><ele>191.0</ele><time>2026-03-30T13:47:58.875Z</time></trkpt><trkpt lat="44.3626128" lon="11.3360191"><ele>191.0</ele><time>2026-03-30T13:48:00.86Z</time></trkpt><trkpt lat="44.3627019" lon="11.3360819"><ele>191.0</ele><time>2026-03-30T13:48:02.877Z</time></trkpt><trkpt lat="44.3627866" lon="11.3361417"><ele>191.0</ele><time>2026-03-30T13:48:04.872Z</time></trkpt><trkpt lat="44.3628677" lon="11.3362015"><ele>191.0</ele><time>2026-03-30T13:48:06.881Z</time></trkpt><trkpt lat="44.3629541" lon="11.3362598"><ele>191.0</ele><time>2026-03-30T13:48:08.873Z</time></trkpt><trkpt lat="44.3630391" lon="11.3363196"><ele>191.0</ele><time>2026-03-30T13:48:10.87Z</time></trkpt><trkpt lat="44.3631289" lon="11.3363886"><ele>191.0</ele><time>2026-03-30T13:48:12.877Z</time></trkpt><trkpt lat="44.363231" lon="11.3364592"><ele>191.0</ele><time>2026-03-30T13:48:14.869Z</time></trkpt><trkpt lat="44.3633391" lon="11.3365338"><ele>191.57142857142858</ele><time>2026-03-30T13:48:16.874Z</time></trkpt><trkpt lat="44.363401" lon="11.3365768"><ele>192.14285714285714</ele><time>2026-03-30T13:48:17.873Z</time></trkpt><trkpt lat="44.3634662" lon="11.3366214"><ele>192.71428571428572</ele><time>2026-03-30T13:48:18.876Z</time></trkpt><trkpt lat="44.3635317" lon="11.3366652"><ele>193.28571428571428</ele><time>2026-03-30T13:48:19.882Z</time></trkpt><trkpt lat="44.3635981" lon="11.3367083"><ele>193.85714285714283</ele><time>2026-03-30T13:48:20.872Z</time></trkpt><trkpt lat="44.3636643" lon="11.3367522"><ele>194.42857142857142</ele><time>2026-03-30T13:48:21.867Z</time></trkpt><trkpt lat="44.3637348" lon="11.3368033"><ele>195.0</ele><time>2026-03-30T13:48:22.863Z</time></trkpt><trkpt lat="44.3638048" lon="11.3368546"><ele>192.5</ele><time>2026-03-30T13:48:23.873Z</time></trkpt><trkpt lat="44.3638778" lon="11.336911"><ele>190.0</ele><time>2026-03-30T13:48:24.873Z</time></trkpt><trkpt lat="44.363952" lon="11.3369681"><ele>187.5</ele><time>2026-03-30T13:48:25.881Z</time></trkpt><trkpt lat="44.3640275" lon="11.337024"><ele>185.0</ele><time>2026-03-30T13:48:26.872Z</time></trkpt><trkpt lat="44.3641054" lon="11.3370809"><ele>182.5</ele><time>2026-03-30T13:48:27.878Z</time></trkpt><trkpt lat="44.3641834" lon="11.3371358"><ele>180.0</ele><time>2026-03-30T13:48:28.878Z</time></trkpt><trkpt lat="44.3642598" lon="11.3371923"><ele>180.0</ele><time>2026-03-30T13:48:29.863Z</time></trkpt><trkpt lat="44.3643371" lon="11.3372469"><ele>180.0</ele><time>2026-03-30T13:48:30.889Z</time></trkpt><trkpt lat="44.3644149" lon="11.3373028"><ele>180.0</ele><time>2026-03-30T13:48:31.874Z</time></trkpt><trkpt lat="44.3644914" lon="11.337357"><ele>180.0</ele><time>2026-03-30T13:48:32.881Z</time></trkpt><trkpt lat="44.3645674" lon="11.3374102"><ele>180.0</ele><time>2026-03-30T13:48:33.876Z</time></trkpt><trkpt lat="44.3646448" lon="11.337462"><ele>180.0</ele><time>2026-03-30T13:48:34.875Z</time></trkpt><trkpt lat="44.3647212" lon="11.3375138"><ele>180.0</ele><time>2026-03-30T13:48:35.881Z</time></trkpt><trkpt lat="44.3647977" lon="11.3375629"><ele>180.0</ele><time>2026-03-30T13:48:36.883Z</time></trkpt><trkpt lat="44.3648746" lon="11.3376151"><ele>180.0</ele><time>2026-03-30T13:48:37.873Z</time></trkpt><trkpt lat="44.3649515" lon="11.3376691"><ele>180.0</ele><time>2026-03-30T13:48:38.869Z</time></trkpt><trkpt lat="44.3650257" lon="11.3377281"><ele>180.0</ele><time>2026-03-30T13:48:39.877Z</time></trkpt><trkpt lat="44.3650928" lon="11.3378035"><ele>180.0</ele><time>2026-03-30T13:48:40.885Z</time></trkpt><trkpt lat="44.3651482" lon="11.337894"><ele>180.0</ele><time>2026-03-30T13:48:41.874Z</time></trkpt><trkpt lat="44.3651916" lon="11.3379963"><ele>180.0</ele><time>2026-03-30T13:48:42.868Z</time></trkpt><trkpt lat="44.3652215" lon="11.3381063"><ele>180.0</ele><time>2026-03-30T13:48:43.88Z</time></trkpt><trkpt lat="44.365244" lon="11.3382167"><ele>180.0</ele><time>2026-03-30T13:48:44.869Z</time></trkpt><trkpt lat="44.3652611" lon="11.3383295"><ele>180.0</ele><time>2026-03-30T13:48:45.884Z</time></trkpt><trkpt lat="44.3652748" lon="11.3384401"><ele>180.0</ele><time>2026-03-30T13:48:46.884Z</time></trkpt><trkpt lat="44.3652896" lon="11.3385528"><ele>179.5</ele><time>2026-03-30T13:48:47.872Z</time></trkpt><trkpt lat="44.3653033" lon="11.3386639"><ele>179.0</ele><time>2026-03-30T13:48:48.889Z</time></trkpt><trkpt lat="44.365318" lon="11.3387739"><ele>178.5</ele><time>2026-03-30T13:48:49.881Z</time></trkpt><trkpt lat="44.3653328" lon="11.3388838"><ele>178.0</ele><time>2026-03-30T13:48:50.871Z</time></trkpt><trkpt lat="44.3653483" lon="11.3389924"><ele>177.5</ele><time>2026-03-30T13:48:51.87Z</time></trkpt><trkpt lat="44.3653651" lon="11.3391008"><ele>177.0</ele><time>2026-03-30T13:48:52.877Z</time></trkpt><trkpt lat="44.3653838" lon="11.3392077"><ele>177.0</ele><time>2026-03-30T13:48:53.873Z</time></trkpt><trkpt lat="44.3654051" lon="11.339313"><ele>177.0</ele><time>2026-03-30T13:48:54.876Z</time></trkpt><trkpt lat="44.3654298" lon="11.3394147"><ele>177.0</ele><time>2026-03-30T13:48:55.87Z</time></trkpt><trkpt lat="44.3654603" lon="11.339514"><ele>177.0</ele><time>2026-03-30T13:48:56.872Z</time></trkpt><trkpt lat="44.3654958" lon="11.3396096"><ele>177.0</ele><time>2026-03-30T13:48:57.875Z</time></trkpt><trkpt lat="44.3655348" lon="11.3397006"><ele>177.0</ele><time>2026-03-30T13:48:58.884Z</time></trkpt><trkpt lat="44.3655766" lon="11.3397882"><ele>176.83333333333334</ele><time>2026-03-30T13:48:59.881Z</time></trkpt><trkpt lat="44.3656221" lon="11.3398737"><ele>176.66666666666666</ele><time>2026-03-30T13:49:00.876Z</time></trkpt><trkpt lat="44.3656695" lon="11.3399556"><ele>176.5</ele><time>2026-03-30T13:49:01.872Z</time></trkpt><trkpt lat="44.3657218" lon="11.3400324"><ele>176.33333333333331</ele><time>2026-03-30T13:49:02.88Z</time></trkpt><trkpt lat="44.3657765" lon="11.3401057"><ele>176.16666666666666</ele><time>2026-03-30T13:49:03.881Z</time></trkpt><trkpt lat="44.3658353" lon="11.3401745"><ele>176.0</ele><time>2026-03-30T13:49:04.872Z</time></trkpt><trkpt lat="44.3658958" lon="11.3402364"><ele>176.0</ele><time>2026-03-30T13:49:05.87Z</time></trkpt><trkpt lat="44.36596" lon="11.340293"><ele>176.0</ele><time>2026-03-30T13:49:06.872Z</time></trkpt><trkpt lat="44.366027" lon="11.340342"><ele>176.0</ele><time>2026-03-30T13:49:07.882Z</time></trkpt><trkpt lat="44.3660945" lon="11.3403866"><ele>176.0</ele><time>2026-03-30T13:49:08.874Z</time></trkpt><trkpt lat="44.3661619" lon="11.3404273"><ele>176.0</ele><time>2026-03-30T13:49:09.878Z</time></trkpt><trkpt lat="44.3662303" lon="11.3404632"><ele>176.0</ele><time>2026-03-30T13:49:10.881Z</time></trkpt><trkpt lat="44.3662992" lon="11.3404922"><ele>176.0</ele><time>2026-03-30T13:49:11.879Z</time></trkpt><trkpt lat="44.3663687" lon="11.3405178"><ele>176.66666666666666</ele><time>2026-03-30T13:49:12.875Z</time></trkpt><trkpt lat="44.3664384" lon="11.3405381"><ele>177.33333333333331</ele><time>2026-03-30T13:49:13.877Z</time></trkpt><trkpt lat="44.3665054" lon="11.3405519"><ele>178.0</ele><time>2026-03-30T13:49:14.878Z</time></trkpt><trkpt lat="44.3665714" lon="11.3405562"><ele>178.66666666666666</ele><time>2026-03-30T13:49:15.876Z</time></trkpt><trkpt lat="44.3666974" lon="11.3405485"><ele>179.33333333333334</ele><time>2026-03-30T13:49:17.876Z</time></trkpt><trkpt lat="44.3667601" lon="11.3405355"><ele>180.0</ele><time>2026-03-30T13:49:18.865Z</time></trkpt><trkpt lat="44.3668238" lon="11.3405149"><ele>180.0</ele><time>2026-03-30T13:49:19.871Z</time></trkpt><trkpt lat="44.3668867" lon="11.3404902"><ele>180.0</ele><time>2026-03-30T13:49:20.876Z</time></trkpt><trkpt lat="44.3669847" lon="11.3404396"><ele>180.0</ele><time>2026-03-30T13:49:22.891Z</time></trkpt><trkpt lat="44.3670989" lon="11.3403784"><ele>180.0</ele><time>2026-03-30T13:49:24.882Z</time></trkpt><trkpt lat="44.3672153" lon="11.3403182"><ele>180.0</ele><time>2026-03-30T13:49:26.879Z</time></trkpt><trkpt lat="44.3672767" lon="11.3402859"><ele>180.14285714285714</ele><time>2026-03-30T13:49:27.877Z</time></trkpt><trkpt lat="44.3673367" lon="11.340255"><ele>180.2857142857143</ele><time>2026-03-30T13:49:28.87Z</time></trkpt><trkpt lat="44.3673988" lon="11.3402257"><ele>180.42857142857144</ele><time>2026-03-30T13:49:29.873Z</time></trkpt><trkpt lat="44.3674592" lon="11.3401959"><ele>180.57142857142856</ele><time>2026-03-30T13:49:30.879Z</time></trkpt><trkpt lat="44.3675203" lon="11.3401657"><ele>180.71428571428572</ele><time>2026-03-30T13:49:31.877Z</time></trkpt><trkpt lat="44.3675818" lon="11.3401364"><ele>180.85714285714286</ele><time>2026-03-30T13:49:32.88Z</time></trkpt><trkpt lat="44.3676438" lon="11.3401033"><ele>181.0</ele><time>2026-03-30T13:49:33.867Z</time></trkpt><trkpt lat="44.3677073" lon="11.340071"><ele>181.0</ele><time>2026-03-30T13:49:34.887Z</time></trkpt><trkpt lat="44.3677697" lon="11.3400387"><ele>181.0</ele><time>2026-03-30T13:49:35.875Z</time></trkpt><trkpt lat="44.3678314" lon="11.3400024"><ele>181.0</ele><time>2026-03-30T13:49:36.89Z</time></trkpt><trkpt lat="44.3678923" lon="11.3399648"><ele>181.0</ele><time>2026-03-30T13:49:37.877Z</time></trkpt><trkpt lat="44.3679518" lon="11.3399229"><ele>181.0</ele><time>2026-03-30T13:49:38.868Z</time></trkpt><trkpt lat="44.3680087" lon="11.3398758"><ele>181.0</ele><time>2026-03-30T13:49:39.884Z</time></trkpt><trkpt lat="44.3680646" lon="11.3398255"><ele>181.0</ele><time>2026-03-30T13:49:40.871Z</time></trkpt><trkpt lat="44.3681194" lon="11.3397733"><ele>180.28571428571428</ele><time>2026-03-30T13:49:41.872Z</time></trkpt><trkpt lat="44.3681731" lon="11.339716"><ele>179.57142857142856</ele><time>2026-03-30T13:49:42.876Z</time></trkpt><trkpt lat="44.3682255" lon="11.3396571"><ele>178.85714285714286</ele><time>2026-03-30T13:49:43.87Z</time></trkpt><trkpt lat="44.3682784" lon="11.3395963"><ele>178.14285714285714</ele><time>2026-03-30T13:49:44.875Z</time></trkpt><trkpt lat="44.3683322" lon="11.3395368"><ele>177.42857142857142</ele><time>2026-03-30T13:49:45.881Z</time></trkpt><trkpt lat="44.3683853" lon="11.3394767"><ele>176.71428571428572</ele><time>2026-03-30T13:49:46.864Z</time></trkpt><trkpt lat="44.3684393" lon="11.3394159"><ele>176.0</ele><time>2026-03-30T13:49:47.874Z</time></trkpt><trkpt lat="44.3684929" lon="11.3393547"><ele>176.0</ele><time>2026-03-30T13:49:48.884Z</time></trkpt><trkpt lat="44.3685478" lon="11.3392926"><ele>176.0</ele><time>2026-03-30T13:49:49.872Z</time></trkpt><trkpt lat="44.3686027" lon="11.3392314"><ele>176.0</ele><time>2026-03-30T13:49:50.877Z</time></trkpt><trkpt lat="44.3686571" lon="11.3391704"><ele>176.0</ele><time>2026-03-30T13:49:51.875Z</time></trkpt><trkpt lat="44.3687105" lon="11.3391089"><ele>176.0</ele><time>2026-03-30T13:49:52.876Z</time></trkpt><trkpt lat="44.3687635" lon="11.3390469"><ele>176.0</ele><time>2026-03-30T13:49:53.866Z</time></trkpt><trkpt lat="44.3688183" lon="11.3389839"><ele>176.0</ele><time>2026-03-30T13:49:54.87Z</time></trkpt><trkpt lat="44.3688722" lon="11.3389215"><ele>176.14285714285714</ele><time>2026-03-30T13:49:55.867Z</time></trkpt><trkpt lat="44.368926" lon="11.3388596"><ele>176.28571428571428</ele><time>2026-03-30T13:49:56.89Z</time></trkpt><trkpt lat="44.3689805" lon="11.3387994"><ele>176.42857142857144</ele><time>2026-03-30T13:49:57.868Z</time></trkpt><trkpt lat="44.3690355" lon="11.3387383"><ele>176.57142857142856</ele><time>2026-03-30T13:49:58.869Z</time></trkpt><trkpt lat="44.3690911" lon="11.3386777"><ele>176.7142857142857</ele><time>2026-03-30T13:49:59.88Z</time></trkpt><trkpt lat="44.3691473" lon="11.3386181"><ele>176.85714285714286</ele><time>2026-03-30T13:50:00.882Z</time></trkpt><trkpt lat="44.3692026" lon="11.3385582"><ele>177.0</ele><time>2026-03-30T13:50:01.875Z</time></trkpt><trkpt lat="44.3692594" lon="11.3384979"><ele>177.0</ele><time>2026-03-30T13:50:02.873Z</time></trkpt><trkpt lat="44.3693169" lon="11.3384386"><ele>177.0</ele><time>2026-03-30T13:50:03.86Z</time></trkpt><trkpt lat="44.3693759" lon="11.3383818"><ele>177.0</ele><time>2026-03-30T13:50:04.871Z</time></trkpt><trkpt lat="44.3694364" lon="11.3383307"><ele>177.0</ele><time>2026-03-30T13:50:05.879Z</time></trkpt><trkpt lat="44.3695009" lon="11.3382895"><ele>177.0</ele><time>2026-03-30T13:50:06.871Z</time></trkpt><trkpt lat="44.3695695" lon="11.3382612"><ele>177.0</ele><time>2026-03-30T13:50:07.877Z</time></trkpt><trkpt lat="44.3696346" lon="11.3382337"><ele>177.0</ele><time>2026-03-30T13:50:08.877Z</time></trkpt><trkpt lat="44.3697054" lon="11.3382354"><ele>177.14285714285714</ele><time>2026-03-30T13:50:09.876Z</time></trkpt><trkpt lat="44.3697733" lon="11.3382514"><ele>177.28571428571428</ele><time>2026-03-30T13:50:10.865Z</time></trkpt><trkpt lat="44.3698436" lon="11.3382778"><ele>177.42857142857142</ele><time>2026-03-30T13:50:11.873Z</time></trkpt><trkpt lat="44.36991" lon="11.3383161"><ele>177.57142857142856</ele><time>2026-03-30T13:50:12.888Z</time></trkpt><trkpt lat="44.369975" lon="11.3383612"><ele>177.71428571428572</ele><time>2026-03-30T13:50:13.87Z</time></trkpt><trkpt lat="44.3700365" lon="11.3384139"><ele>177.85714285714283</ele><time>2026-03-30T13:50:14.867Z</time></trkpt><trkpt lat="44.37009" lon="11.3384773"><ele>178.0</ele><time>2026-03-30T13:50:15.871Z</time></trkpt><trkpt lat="44.3701375" lon="11.3385495"><ele>177.99999999999997</ele><time>2026-03-30T13:50:16.875Z</time></trkpt><trkpt lat="44.3701796" lon="11.3386258"><ele>178.0</ele><time>2026-03-30T13:50:17.868Z</time></trkpt><trkpt lat="44.37022" lon="11.3387026"><ele>178.0</ele><time>2026-03-30T13:50:18.871Z</time></trkpt><trkpt lat="44.3702594" lon="11.3387801"><ele>178.0</ele><time>2026-03-30T13:50:19.878Z</time></trkpt><trkpt lat="44.3702989" lon="11.3388595"><ele>178.0</ele><time>2026-03-30T13:50:20.873Z</time></trkpt><trkpt lat="44.3703409" lon="11.3389423"><ele>177.99999999999997</ele><time>2026-03-30T13:50:21.879Z</time></trkpt><trkpt lat="44.3703864" lon="11.3390208"><ele>178.0</ele><time>2026-03-30T13:50:22.87Z</time></trkpt><trkpt lat="44.3704305" lon="11.3390936"><ele>177.57142857142856</ele><time>2026-03-30T13:50:23.874Z</time></trkpt><trkpt lat="44.3704736" lon="11.3391636"><ele>177.14285714285714</ele><time>2026-03-30T13:50:24.872Z</time></trkpt><trkpt lat="44.3705188" lon="11.3392446"><ele>176.71428571428572</ele><time>2026-03-30T13:50:25.871Z</time></trkpt><trkpt lat="44.3705632" lon="11.3393212"><ele>176.28571428571428</ele><time>2026-03-30T13:50:26.878Z</time></trkpt><trkpt lat="44.3706062" lon="11.339402"><ele>175.85714285714286</ele><time>2026-03-30T13:50:27.876Z</time></trkpt><trkpt lat="44.3706536" lon="11.3394858"><ele>175.42857142857142</ele><time>2026-03-30T13:50:28.875Z</time></trkpt><trkpt lat="44.3707007" lon="11.3395674"><ele>175.0</ele><time>2026-03-30T13:50:29.877Z</time></trkpt><trkpt lat="44.3707485" lon="11.3396491"><ele>174.57142857142858</ele><time>2026-03-30T13:50:30.869Z</time></trkpt><trkpt lat="44.3707956" lon="11.3397289"><ele>174.14285714285714</ele><time>2026-03-30T13:50:31.873Z</time></trkpt><trkpt lat="44.370841" lon="11.3398062"><ele>173.71428571428572</ele><time>2026-03-30T13:50:32.884Z</time></trkpt><trkpt lat="44.3708889" lon="11.3398809"><ele>173.28571428571428</ele><time>2026-03-30T13:50:33.88Z</time></trkpt><trkpt lat="44.3709406" lon="11.3399507"><ele>172.85714285714286</ele><time>2026-03-30T13:50:34.876Z</time></trkpt><trkpt lat="44.3709963" lon="11.3400082"><ele>172.42857142857144</ele><time>2026-03-30T13:50:35.883Z</time></trkpt><trkpt lat="44.3710535" lon="11.3400512"><ele>172.0</ele><time>2026-03-30T13:50:36.878Z</time></trkpt><trkpt lat="44.3711147" lon="11.3400735"><ele>172.0</ele><time>2026-03-30T13:50:37.867Z</time></trkpt><trkpt lat="44.3712333" lon="11.3400674"><ele>172.0</ele><time>2026-03-30T13:50:39.876Z</time></trkpt><trkpt lat="44.3713458" lon="11.340022"><ele>172.0</ele><time>2026-03-30T13:50:41.874Z</time></trkpt><trkpt lat="44.3714538" lon="11.3399529"><ele>172.0</ele><time>2026-03-30T13:50:43.872Z</time></trkpt><trkpt lat="44.3715662" lon="11.3398866"><ele>172.0</ele><time>2026-03-30T13:50:45.877Z</time></trkpt><trkpt lat="44.371677" lon="11.3398213"><ele>172.0</ele><time>2026-03-30T13:50:47.879Z</time></trkpt><trkpt lat="44.3717843" lon="11.339763"><ele>172.0</ele><time>2026-03-30T13:50:49.876Z</time></trkpt><trkpt lat="44.3718831" lon="11.3397032"><ele>172.0</ele><time>2026-03-30T13:50:51.872Z</time></trkpt><trkpt lat="44.3719493" lon="11.3396523"><ele>172.0</ele><time>2026-03-30T13:50:53.868Z</time></trkpt><trkpt lat="44.3720541" lon="11.339599"><ele>174.0</ele><time>2026-03-30T13:50:55.866Z</time></trkpt><trkpt lat="44.3721189" lon="11.3395684"><ele>176.0</ele><time>2026-03-30T13:50:56.88Z</time></trkpt><trkpt lat="44.3722453" lon="11.3395061"><ele>178.0</ele><time>2026-03-30T13:50:58.877Z</time></trkpt><trkpt lat="44.3723717" lon="11.3394493"><ele>180.0</ele><time>2026-03-30T13:51:00.871Z</time></trkpt><trkpt lat="44.3724356" lon="11.3394263"><ele>182.0</ele><time>2026-03-30T13:51:01.874Z</time></trkpt><trkpt lat="44.3725095" lon="11.3393978"><ele>182.0</ele><time>2026-03-30T13:51:02.875Z</time></trkpt><trkpt lat="44.3725837" lon="11.339374"><ele>182.0</ele><time>2026-03-30T13:51:03.874Z</time></trkpt><trkpt lat="44.3726585" lon="11.3393512"><ele>182.0</ele><time>2026-03-30T13:51:04.869Z</time></trkpt><trkpt lat="44.3727332" lon="11.3393219"><ele>182.0</ele><time>2026-03-30T13:51:05.873Z</time></trkpt><trkpt lat="44.3728081" lon="11.3392881"><ele>182.0</ele><time>2026-03-30T13:51:06.864Z</time></trkpt><trkpt lat="44.3728847" lon="11.3392525"><ele>182.0</ele><time>2026-03-30T13:51:07.878Z</time></trkpt><trkpt lat="44.3729622" lon="11.3392135"><ele>181.33333333333331</ele><time>2026-03-30T13:51:08.878Z</time></trkpt><trkpt lat="44.3730345" lon="11.3391701"><ele>180.66666666666666</ele><time>2026-03-30T13:51:09.874Z</time></trkpt><trkpt lat="44.3731035" lon="11.3391302"><ele>180.0</ele><time>2026-03-30T13:51:10.87Z</time></trkpt><trkpt lat="44.3731665" lon="11.3390693"><ele>179.33333333333334</ele><time>2026-03-30T13:51:11.866Z</time></trkpt><trkpt lat="44.373229" lon="11.3390046"><ele>178.66666666666669</ele><time>2026-03-30T13:51:12.873Z</time></trkpt><trkpt lat="44.3732941" lon="11.3389369"><ele>178.0</ele><time>2026-03-30T13:51:13.875Z</time></trkpt><trkpt lat="44.3733581" lon="11.3388716"><ele>178.0</ele><time>2026-03-30T13:51:14.881Z</time></trkpt><trkpt lat="44.3734212" lon="11.3388073"><ele>178.0</ele><time>2026-03-30T13:51:15.867Z</time></trkpt><trkpt lat="44.3734827" lon="11.3387487"><ele>178.0</ele><time>2026-03-30T13:51:16.882Z</time></trkpt><trkpt lat="44.3735471" lon="11.3386942"><ele>178.0</ele><time>2026-03-30T13:51:17.866Z</time></trkpt><trkpt lat="44.3736124" lon="11.3386454"><ele>178.0</ele><time>2026-03-30T13:51:18.873Z</time></trkpt><trkpt lat="44.3736813" lon="11.3386087"><ele>178.0</ele><time>2026-03-30T13:51:19.87Z</time></trkpt><trkpt lat="44.3737545" lon="11.3385827"><ele>177.99999999999997</ele><time>2026-03-30T13:51:20.877Z</time></trkpt><trkpt lat="44.3738216" lon="11.3385599"><ele>178.0</ele><time>2026-03-30T13:51:21.879Z</time></trkpt><trkpt lat="44.3738862" lon="11.3385447"><ele>178.0</ele><time>2026-03-30T13:51:22.868Z</time></trkpt><trkpt lat="44.3739613" lon="11.3385196"><ele>178.0</ele><time>2026-03-30T13:51:23.878Z</time></trkpt><trkpt lat="44.3740309" lon="11.3384968"><ele>178.0</ele><time>2026-03-30T13:51:24.865Z</time></trkpt><trkpt lat="44.3741112" lon="11.3384684"><ele>177.99999999999997</ele><time>2026-03-30T13:51:25.874Z</time></trkpt><trkpt lat="44.3741878" lon="11.3384371"><ele>178.0</ele><time>2026-03-30T13:51:26.87Z</time></trkpt><trkpt lat="44.3742571" lon="11.3383873"><ele>176.66666666666669</ele><time>2026-03-30T13:51:27.876Z</time></trkpt><trkpt lat="44.3743271" lon="11.3383338"><ele>175.33333333333334</ele><time>2026-03-30T13:51:28.88Z</time></trkpt><trkpt lat="44.3743868" lon="11.338283"><ele>174.0</ele><time>2026-03-30T13:51:29.873Z</time></trkpt><trkpt lat="44.3744447" lon="11.3382325"><ele>172.66666666666666</ele><time>2026-03-30T13:51:30.872Z</time></trkpt><trkpt lat="44.3745043" lon="11.3381626"><ele>171.33333333333331</ele><time>2026-03-30T13:51:31.875Z</time></trkpt><trkpt lat="44.3745687" lon="11.3380921"><ele>170.0</ele><time>2026-03-30T13:51:32.885Z</time></trkpt><trkpt lat="44.3746353" lon="11.3380046"><ele>169.0</ele><time>2026-03-30T13:51:33.879Z</time></trkpt><trkpt lat="44.3746958" lon="11.3379239"><ele>168.0</ele><time>2026-03-30T13:51:34.873Z</time></trkpt><trkpt lat="44.3747532" lon="11.3378519"><ele>167.0</ele><time>2026-03-30T13:51:35.877Z</time></trkpt><trkpt lat="44.3748119" lon="11.3377753"><ele>166.0</ele><time>2026-03-30T13:51:36.862Z</time></trkpt><trkpt lat="44.3748638" lon="11.337714"><ele>165.0</ele><time>2026-03-30T13:51:37.871Z</time></trkpt><trkpt lat="44.3749145" lon="11.3376599"><ele>164.0</ele><time>2026-03-30T13:51:38.866Z</time></trkpt><trkpt lat="44.3749688" lon="11.3376124"><ele>163.0</ele><time>2026-03-30T13:51:39.877Z</time></trkpt><trkpt lat="44.3750233" lon="11.3375675"><ele>163.0</ele><time>2026-03-30T13:51:40.858Z</time></trkpt><trkpt lat="44.3750781" lon="11.3375211"><ele>163.0</ele><time>2026-03-30T13:51:41.871Z</time></trkpt><trkpt lat="44.3751351" lon="11.3374725"><ele>163.0</ele><time>2026-03-30T13:51:42.881Z</time></trkpt><trkpt lat="44.3751911" lon="11.3374244"><ele>163.0</ele><time>2026-03-30T13:51:43.853Z</time></trkpt><trkpt lat="44.3752487" lon="11.3373767"><ele>163.0</ele><time>2026-03-30T13:51:44.863Z</time></trkpt><trkpt lat="44.3753069" lon="11.33733"><ele>163.0</ele><time>2026-03-30T13:51:45.862Z</time></trkpt><trkpt lat="44.3753618" lon="11.3372839"><ele>163.0</ele><time>2026-03-30T13:51:46.871Z</time></trkpt><trkpt lat="44.3754175" lon="11.3372337"><ele>163.2857142857143</ele><time>2026-03-30T13:51:47.874Z</time></trkpt><trkpt lat="44.3754731" lon="11.3371834"><ele>163.57142857142856</ele><time>2026-03-30T13:51:48.871Z</time></trkpt><trkpt lat="44.3755282" lon="11.3371347"><ele>163.85714285714286</ele><time>2026-03-30T13:51:49.866Z</time></trkpt><trkpt lat="44.3755832" lon="11.3370824"><ele>164.14285714285717</ele><time>2026-03-30T13:51:50.872Z</time></trkpt><trkpt lat="44.3756382" lon="11.3370369"><ele>164.42857142857144</ele><time>2026-03-30T13:51:51.868Z</time></trkpt><trkpt lat="44.3756937" lon="11.336995"><ele>164.71428571428572</ele><time>2026-03-30T13:51:52.852Z</time></trkpt><trkpt lat="44.3757506" lon="11.3369548"><ele>165.0</ele><time>2026-03-30T13:51:53.861Z</time></trkpt><trkpt lat="44.3758085" lon="11.3369162"><ele>165.00000000000003</ele><time>2026-03-30T13:51:54.874Z</time></trkpt><trkpt lat="44.375869" lon="11.3368795"><ele>165.0</ele><time>2026-03-30T13:51:55.875Z</time></trkpt><trkpt lat="44.3759313" lon="11.3368434"><ele>165.0</ele><time>2026-03-30T13:51:56.868Z</time></trkpt><trkpt lat="44.3759948" lon="11.3368118"><ele>165.0</ele><time>2026-03-30T13:51:57.864Z</time></trkpt><trkpt lat="44.37606" lon="11.3367847"><ele>165.0</ele><time>2026-03-30T13:51:58.87Z</time></trkpt><trkpt lat="44.3761272" lon="11.3367591"><ele>165.00000000000003</ele><time>2026-03-30T13:51:59.862Z</time></trkpt><trkpt lat="44.3761942" lon="11.3367353"><ele>165.0</ele><time>2026-03-30T13:52:00.86Z</time></trkpt><trkpt lat="44.3762601" lon="11.3367161"><ele>165.00000000000003</ele><time>2026-03-30T13:52:01.856Z</time></trkpt><trkpt lat="44.3763268" lon="11.336704"><ele>165.0</ele><time>2026-03-30T13:52:02.87Z</time></trkpt><trkpt lat="44.3763907" lon="11.3366983"><ele>165.0</ele><time>2026-03-30T13:52:03.872Z</time></trkpt><trkpt lat="44.3764563" lon="11.3366965"><ele>165.0</ele><time>2026-03-30T13:52:04.872Z</time></trkpt><trkpt lat="44.3765225" lon="11.3367041"><ele>165.0</ele><time>2026-03-30T13:52:05.867Z</time></trkpt><trkpt lat="44.3765881" lon="11.3367189"><ele>165.00000000000003</ele><time>2026-03-30T13:52:06.862Z</time></trkpt><trkpt lat="44.3766524" lon="11.3367413"><ele>165.0</ele><time>2026-03-30T13:52:07.877Z</time></trkpt><trkpt lat="44.3767134" lon="11.3367757"><ele>164.71428571428572</ele><time>2026-03-30T13:52:08.876Z</time></trkpt><trkpt lat="44.3767724" lon="11.3368171"><ele>164.42857142857144</ele><time>2026-03-30T13:52:09.879Z</time></trkpt><trkpt lat="44.3768298" lon="11.3368646"><ele>164.14285714285717</ele><time>2026-03-30T13:52:10.867Z</time></trkpt><trkpt lat="44.3768853" lon="11.3369158"><ele>163.85714285714286</ele><time>2026-03-30T13:52:11.881Z</time></trkpt><trkpt lat="44.3769388" lon="11.3369693"><ele>163.57142857142856</ele><time>2026-03-30T13:52:12.877Z</time></trkpt><trkpt lat="44.3769923" lon="11.3370226"><ele>163.2857142857143</ele><time>2026-03-30T13:52:13.86Z</time></trkpt><trkpt lat="44.3770449" lon="11.3370775"><ele>163.0</ele><time>2026-03-30T13:52:14.87Z</time></trkpt><trkpt lat="44.3770972" lon="11.3371317"><ele>163.0</ele><time>2026-03-30T13:52:15.877Z</time></trkpt><trkpt lat="44.3771492" lon="11.3371865"><ele>163.0</ele><time>2026-03-30T13:52:16.872Z</time></trkpt><trkpt lat="44.3772022" lon="11.3372401"><ele>163.0</ele><time>2026-03-30T13:52:17.873Z</time></trkpt><trkpt lat="44.3773032" lon="11.3373494"><ele>163.0</ele><time>2026-03-30T13:52:19.878Z</time></trkpt><trkpt lat="44.3773561" lon="11.337405"><ele>163.0</ele><time>2026-03-30T13:52:20.886Z</time></trkpt><trkpt lat="44.3774114" lon="11.3374619"><ele>163.0</ele><time>2026-03-30T13:52:21.868Z</time></trkpt><trkpt lat="44.3774724" lon="11.3375224"><ele>163.14285714285714</ele><time>2026-03-30T13:52:22.872Z</time></trkpt><trkpt lat="44.3775328" lon="11.3375717"><ele>163.28571428571428</ele><time>2026-03-30T13:52:23.865Z</time></trkpt><trkpt lat="44.3775926" lon="11.3376179"><ele>163.42857142857142</ele><time>2026-03-30T13:52:24.875Z</time></trkpt><trkpt lat="44.3776528" lon="11.3376608"><ele>163.57142857142856</ele><time>2026-03-30T13:52:25.879Z</time></trkpt><trkpt lat="44.3777188" lon="11.3377"><ele>163.71428571428572</ele><time>2026-03-30T13:52:26.873Z</time></trkpt><trkpt lat="44.3777831" lon="11.3377299"><ele>163.85714285714283</ele><time>2026-03-30T13:52:27.882Z</time></trkpt><trkpt lat="44.377851" lon="11.3377614"><ele>164.0</ele><time>2026-03-30T13:52:28.871Z</time></trkpt><trkpt lat="44.3779156" lon="11.3377839"><ele>166.25</ele><time>2026-03-30T13:52:29.866Z</time></trkpt><trkpt lat="44.3780348" lon="11.3378046"><ele>168.5</ele><time>2026-03-30T13:52:31.873Z</time></trkpt><trkpt lat="44.3781577" lon="11.3378243"><ele>170.75</ele><time>2026-03-30T13:52:33.865Z</time></trkpt><trkpt lat="44.3782748" lon="11.3378331"><ele>173.0</ele><time>2026-03-30T13:52:35.869Z</time></trkpt><trkpt lat="44.3783921" lon="11.3378352"><ele>173.0</ele><time>2026-03-30T13:52:37.882Z</time></trkpt><trkpt lat="44.3785055" lon="11.3378295"><ele>173.0</ele><time>2026-03-30T13:52:39.873Z</time></trkpt><trkpt lat="44.3786221" lon="11.3378168"><ele>173.0</ele><time>2026-03-30T13:52:41.886Z</time></trkpt><trkpt lat="44.378741" lon="11.3377983"><ele>173.0</ele><time>2026-03-30T13:52:43.876Z</time></trkpt><trkpt lat="44.3788601" lon="11.3377719"><ele>171.5</ele><time>2026-03-30T13:52:45.871Z</time></trkpt><trkpt lat="44.3789684" lon="11.3377398"><ele>170.0</ele><time>2026-03-30T13:52:47.867Z</time></trkpt><trkpt lat="44.3790827" lon="11.3376975"><ele>168.5</ele><time>2026-03-30T13:52:49.866Z</time></trkpt><trkpt lat="44.3791997" lon="11.3376508"><ele>167.0</ele><time>2026-03-30T13:52:51.875Z</time></trkpt><trkpt lat="44.3793141" lon="11.3376025"><ele>167.0</ele><time>2026-03-30T13:52:53.882Z</time></trkpt><trkpt lat="44.3793752" lon="11.3375762"><ele>167.0</ele><time>2026-03-30T13:52:54.868Z</time></trkpt><trkpt lat="44.3794375" lon="11.3375559"><ele>167.0</ele><time>2026-03-30T13:52:55.882Z</time></trkpt><trkpt lat="44.3795621" lon="11.3375231"><ele>167.0</ele><time>2026-03-30T13:52:57.884Z</time></trkpt><trkpt lat="44.379683" lon="11.3375023"><ele>167.0</ele><time>2026-03-30T13:52:59.874Z</time></trkpt><trkpt lat="44.3797468" lon="11.3374937"><ele>167.0</ele><time>2026-03-30T13:53:00.864Z</time></trkpt><trkpt lat="44.3798697" lon="11.3374803"><ele>165.66666666666666</ele><time>2026-03-30T13:53:02.878Z</time></trkpt><trkpt lat="44.3799913" lon="11.3374596"><ele>164.33333333333331</ele><time>2026-03-30T13:53:04.873Z</time></trkpt><trkpt lat="44.3801171" lon="11.3374337"><ele>163.0</ele><time>2026-03-30T13:53:06.875Z</time></trkpt><trkpt lat="44.3801805" lon="11.3374142"><ele>161.66666666666666</ele><time>2026-03-30T13:53:07.886Z</time></trkpt><trkpt lat="44.3802429" lon="11.3373935"><ele>160.33333333333334</ele><time>2026-03-30T13:53:08.878Z</time></trkpt><trkpt lat="44.3803062" lon="11.3373702"><ele>159.0</ele><time>2026-03-30T13:53:09.876Z</time></trkpt><trkpt lat="44.3803699" lon="11.3373464"><ele>159.0</ele><time>2026-03-30T13:53:10.869Z</time></trkpt><trkpt lat="44.3804356" lon="11.337318"><ele>159.0</ele><time>2026-03-30T13:53:11.868Z</time></trkpt><trkpt lat="44.3805522" lon="11.3372629"><ele>159.0</ele><time>2026-03-30T13:53:13.886Z</time></trkpt><trkpt lat="44.3806169" lon="11.3372271"><ele>159.0</ele><time>2026-03-30T13:53:14.88Z</time></trkpt><trkpt lat="44.3806772" lon="11.3371917"><ele>159.0</ele><time>2026-03-30T13:53:15.87Z</time></trkpt><trkpt lat="44.3807402" lon="11.3371536"><ele>159.0</ele><time>2026-03-30T13:53:16.883Z</time></trkpt><trkpt lat="44.380799" lon="11.3371168"><ele>159.0</ele><time>2026-03-30T13:53:17.873Z</time></trkpt><trkpt lat="44.3809144" lon="11.3370471"><ele>159.0</ele><time>2026-03-30T13:53:19.877Z</time></trkpt><trkpt lat="44.3809739" lon="11.3370143"><ele>159.0</ele><time>2026-03-30T13:53:20.874Z</time></trkpt><trkpt lat="44.381035" lon="11.3369783"><ele>159.0</ele><time>2026-03-30T13:53:21.881Z</time></trkpt><trkpt lat="44.3811579" lon="11.3369195"><ele>159.0</ele><time>2026-03-30T13:53:23.874Z</time></trkpt><trkpt lat="44.3812227" lon="11.3368896"><ele>159.0</ele><time>2026-03-30T13:53:24.87Z</time></trkpt><trkpt lat="44.3812897" lon="11.3368634"><ele>159.0</ele><time>2026-03-30T13:53:25.872Z</time></trkpt><trkpt lat="44.3813565" lon="11.3368366"><ele>159.0</ele><time>2026-03-30T13:53:26.871Z</time></trkpt><trkpt lat="44.3814261" lon="11.3368084"><ele>159.0</ele><time>2026-03-30T13:53:27.872Z</time></trkpt><trkpt lat="44.3814917" lon="11.3367831"><ele>159.0</ele><time>2026-03-30T13:53:28.871Z</time></trkpt><trkpt lat="44.3815576" lon="11.3367549"><ele>159.0</ele><time>2026-03-30T13:53:29.855Z</time></trkpt><trkpt lat="44.381626" lon="11.3367268"><ele>159.0</ele><time>2026-03-30T13:53:30.871Z</time></trkpt><trkpt lat="44.3816944" lon="11.3366981"><ele>158.7142857142857</ele><time>2026-03-30T13:53:31.876Z</time></trkpt><trkpt lat="44.3817582" lon="11.3366699"><ele>158.42857142857144</ele><time>2026-03-30T13:53:32.883Z</time></trkpt><trkpt lat="44.3818222" lon="11.3366402"><ele>158.14285714285714</ele><time>2026-03-30T13:53:33.884Z</time></trkpt><trkpt lat="44.3818872" lon="11.3366074"><ele>157.85714285714283</ele><time>2026-03-30T13:53:34.872Z</time></trkpt><trkpt lat="44.3819535" lon="11.3365744"><ele>157.57142857142856</ele><time>2026-03-30T13:53:35.884Z</time></trkpt><trkpt lat="44.3820209" lon="11.33654"><ele>157.28571428571428</ele><time>2026-03-30T13:53:36.88Z</time></trkpt><trkpt lat="44.3820885" lon="11.3365036"><ele>157.0</ele><time>2026-03-30T13:53:37.888Z</time></trkpt><trkpt lat="44.3821528" lon="11.3364676"><ele>157.14285714285714</ele><time>2026-03-30T13:53:38.866Z</time></trkpt><trkpt lat="44.3822165" lon="11.3364316"><ele>157.28571428571428</ele><time>2026-03-30T13:53:39.877Z</time></trkpt><trkpt lat="44.3822827" lon="11.3363929"><ele>157.42857142857144</ele><time>2026-03-30T13:53:40.875Z</time></trkpt><trkpt lat="44.3823473" lon="11.3363576"><ele>157.57142857142856</ele><time>2026-03-30T13:53:41.865Z</time></trkpt><trkpt lat="44.3824129" lon="11.3363197"><ele>157.71428571428572</ele><time>2026-03-30T13:53:42.874Z</time></trkpt><trkpt lat="44.3824797" lon="11.3362812"><ele>157.85714285714286</ele><time>2026-03-30T13:53:43.875Z</time></trkpt><trkpt lat="44.3825462" lon="11.3362454"><ele>158.0</ele><time>2026-03-30T13:53:44.877Z</time></trkpt><trkpt lat="44.3826142" lon="11.3362123"><ele>158.00000000000003</ele><time>2026-03-30T13:53:45.88Z</time></trkpt><trkpt lat="44.3826821" lon="11.3361761"><ele>158.0</ele><time>2026-03-30T13:53:46.877Z</time></trkpt><trkpt lat="44.3827473" lon="11.3361396"><ele>158.0</ele><time>2026-03-30T13:53:47.881Z</time></trkpt><trkpt lat="44.382815" lon="11.3361024"><ele>158.0</ele><time>2026-03-30T13:53:48.874Z</time></trkpt><trkpt lat="44.3828807" lon="11.3360651"><ele>158.0</ele><time>2026-03-30T13:53:49.876Z</time></trkpt><trkpt lat="44.3829473" lon="11.3360261"><ele>158.00000000000003</ele><time>2026-03-30T13:53:50.88Z</time></trkpt><trkpt lat="44.3830136" lon="11.3359882"><ele>158.0</ele><time>2026-03-30T13:53:51.867Z</time></trkpt><trkpt lat="44.3830812" lon="11.3359503"><ele>157.57142857142858</ele><time>2026-03-30T13:53:52.871Z</time></trkpt><trkpt lat="44.3831477" lon="11.3359089"><ele>157.14285714285714</ele><time>2026-03-30T13:53:53.877Z</time></trkpt><trkpt lat="44.3832124" lon="11.3358728"><ele>156.71428571428572</ele><time>2026-03-30T13:53:54.877Z</time></trkpt><trkpt lat="44.3832809" lon="11.3358305"><ele>156.28571428571428</ele><time>2026-03-30T13:53:55.879Z</time></trkpt><trkpt lat="44.3833492" lon="11.3357913"><ele>155.85714285714286</ele><time>2026-03-30T13:53:56.878Z</time></trkpt><trkpt lat="44.3834177" lon="11.3357515"><ele>155.42857142857144</ele><time>2026-03-30T13:53:57.869Z</time></trkpt><trkpt lat="44.3834831" lon="11.3357159"><ele>155.0</ele><time>2026-03-30T13:53:58.877Z</time></trkpt><trkpt lat="44.3835534" lon="11.3356797"><ele>155.0</ele><time>2026-03-30T13:53:59.865Z</time></trkpt><trkpt lat="44.3836223" lon="11.3356408"><ele>155.0</ele><time>2026-03-30T13:54:00.87Z</time></trkpt><trkpt lat="44.3836911" lon="11.335603"><ele>155.0</ele><time>2026-03-30T13:54:01.877Z</time></trkpt><trkpt lat="44.3837617" lon="11.3355625"><ele>155.0</ele><time>2026-03-30T13:54:02.869Z</time></trkpt><trkpt lat="44.3838309" lon="11.335525"><ele>155.0</ele><time>2026-03-30T13:54:03.877Z</time></trkpt><trkpt lat="44.3839012" lon="11.3354926"><ele>155.0</ele><time>2026-03-30T13:54:04.879Z</time></trkpt><trkpt lat="44.3839734" lon="11.3354607"><ele>155.0</ele><time>2026-03-30T13:54:05.88Z</time></trkpt><trkpt lat="44.3840465" lon="11.3354323"><ele>155.0</ele><time>2026-03-30T13:54:06.873Z</time></trkpt><trkpt lat="44.3841206" lon="11.3354054"><ele>155.0</ele><time>2026-03-30T13:54:07.882Z</time></trkpt><trkpt lat="44.3841952" lon="11.3353828"><ele>155.0</ele><time>2026-03-30T13:54:08.874Z</time></trkpt><trkpt lat="44.3842696" lon="11.3353599"><ele>155.0</ele><time>2026-03-30T13:54:09.881Z</time></trkpt><trkpt lat="44.384345" lon="11.3353406"><ele>155.0</ele><time>2026-03-30T13:54:10.876Z</time></trkpt><trkpt lat="44.3844206" lon="11.3353231"><ele>155.0</ele><time>2026-03-30T13:54:11.883Z</time></trkpt><trkpt lat="44.3844954" lon="11.3353106"><ele>155.0</ele><time>2026-03-30T13:54:12.879Z</time></trkpt><trkpt lat="44.3845703" lon="11.3353001"><ele>155.0</ele><time>2026-03-30T13:54:13.871Z</time></trkpt><trkpt lat="44.3846452" lon="11.3352936"><ele>155.0</ele><time>2026-03-30T13:54:14.878Z</time></trkpt><trkpt lat="44.3847222" lon="11.3352875"><ele>155.0</ele><time>2026-03-30T13:54:15.875Z</time></trkpt><trkpt lat="44.3847963" lon="11.3352857"><ele>155.0</ele><time>2026-03-30T13:54:16.873Z</time></trkpt><trkpt lat="44.3848692" lon="11.3352823"><ele>155.0</ele><time>2026-03-30T13:54:17.876Z</time></trkpt><trkpt lat="44.3849426" lon="11.3352793"><ele>155.0</ele><time>2026-03-30T13:54:18.876Z</time></trkpt><trkpt lat="44.3850143" lon="11.3352784"><ele>155.0</ele><time>2026-03-30T13:54:19.875Z</time></trkpt><trkpt lat="44.3850852" lon="11.3352789"><ele>155.0</ele><time>2026-03-30T13:54:20.876Z</time></trkpt><trkpt lat="44.3851543" lon="11.3352781"><ele>155.0</ele><time>2026-03-30T13:54:21.887Z</time></trkpt><trkpt lat="44.3852256" lon="11.3352775"><ele>155.0</ele><time>2026-03-30T13:54:22.865Z</time></trkpt><trkpt lat="44.3852991" lon="11.3352773"><ele>155.0</ele><time>2026-03-30T13:54:23.88Z</time></trkpt><trkpt lat="44.3853722" lon="11.3352758"><ele>155.0</ele><time>2026-03-30T13:54:24.877Z</time></trkpt><trkpt lat="44.3854463" lon="11.3352754"><ele>155.0</ele><time>2026-03-30T13:54:25.88Z</time></trkpt><trkpt lat="44.3855203" lon="11.3352741"><ele>155.0</ele><time>2026-03-30T13:54:26.874Z</time></trkpt><trkpt lat="44.3855942" lon="11.3352731"><ele>155.0</ele><time>2026-03-30T13:54:27.878Z</time></trkpt><trkpt lat="44.3856682" lon="11.3352714"><ele>155.0</ele><time>2026-03-30T13:54:28.879Z</time></trkpt><trkpt lat="44.3857433" lon="11.3352698"><ele>155.0</ele><time>2026-03-30T13:54:29.869Z</time></trkpt><trkpt lat="44.3858187" lon="11.3352688"><ele>155.0</ele><time>2026-03-30T13:54:30.873Z</time></trkpt><trkpt lat="44.385893" lon="11.335267"><ele>155.0</ele><time>2026-03-30T13:54:31.875Z</time></trkpt><trkpt lat="44.3859673" lon="11.3352622"><ele>155.0</ele><time>2026-03-30T13:54:32.882Z</time></trkpt><trkpt lat="44.3860416" lon="11.33526"><ele>155.0</ele><time>2026-03-30T13:54:33.87Z</time></trkpt><trkpt lat="44.3861163" lon="11.3352569"><ele>155.0</ele><time>2026-03-30T13:54:34.892Z</time></trkpt><trkpt lat="44.386191" lon="11.335254"><ele>155.0</ele><time>2026-03-30T13:54:35.871Z</time></trkpt><trkpt lat="44.386265" lon="11.3352521"><ele>155.0</ele><time>2026-03-30T13:54:36.872Z</time></trkpt><trkpt lat="44.3863397" lon="11.3352486"><ele>155.0</ele><time>2026-03-30T13:54:37.875Z</time></trkpt><trkpt lat="44.386415" lon="11.3352431"><ele>155.0</ele><time>2026-03-30T13:54:38.872Z</time></trkpt><trkpt lat="44.386491" lon="11.3352396"><ele>154.66666666666666</ele><time>2026-03-30T13:54:39.873Z</time></trkpt><trkpt lat="44.386566" lon="11.3352373"><ele>154.33333333333331</ele><time>2026-03-30T13:54:40.871Z</time></trkpt><trkpt lat="44.3866411" lon="11.3352334"><ele>154.0</ele><time>2026-03-30T13:54:41.874Z</time></trkpt><trkpt lat="44.3867163" lon="11.3352291"><ele>153.66666666666666</ele><time>2026-03-30T13:54:42.873Z</time></trkpt><trkpt lat="44.3867913" lon="11.3352249"><ele>153.33333333333334</ele><time>2026-03-30T13:54:43.869Z</time></trkpt><trkpt lat="44.3868667" lon="11.3352207"><ele>153.0</ele><time>2026-03-30T13:54:44.864Z</time></trkpt><trkpt lat="44.3869418" lon="11.3352157"><ele>153.0</ele><time>2026-03-30T13:54:45.871Z</time></trkpt><trkpt lat="44.3870201" lon="11.3352102"><ele>153.0</ele><time>2026-03-30T13:54:46.878Z</time></trkpt><trkpt lat="44.3870955" lon="11.3352042"><ele>153.0</ele><time>2026-03-30T13:54:47.875Z</time></trkpt><trkpt lat="44.3871716" lon="11.3352006"><ele>153.0</ele><time>2026-03-30T13:54:48.879Z</time></trkpt><trkpt lat="44.3872457" lon="11.3351974"><ele>153.0</ele><time>2026-03-30T13:54:49.87Z</time></trkpt><trkpt lat="44.3873221" lon="11.3351923"><ele>153.0</ele><time>2026-03-30T13:54:50.868Z</time></trkpt><trkpt lat="44.3873985" lon="11.3351878"><ele>152.5</ele><time>2026-03-30T13:54:51.876Z</time></trkpt><trkpt lat="44.3874742" lon="11.3351825"><ele>152.0</ele><time>2026-03-30T13:54:52.873Z</time></trkpt><trkpt lat="44.3875505" lon="11.3351781"><ele>151.5</ele><time>2026-03-30T13:54:53.88Z</time></trkpt><trkpt lat="44.3876231" lon="11.3351744"><ele>151.0</ele><time>2026-03-30T13:54:54.865Z</time></trkpt><trkpt lat="44.3877003" lon="11.3351699"><ele>150.5</ele><time>2026-03-30T13:54:55.868Z</time></trkpt><trkpt lat="44.3877786" lon="11.3351632"><ele>150.0</ele><time>2026-03-30T13:54:56.869Z</time></trkpt><trkpt lat="44.387855" lon="11.3351571"><ele>149.99999999999997</ele><time>2026-03-30T13:54:57.876Z</time></trkpt><trkpt lat="44.3879294" lon="11.335152"><ele>150.0</ele><time>2026-03-30T13:54:58.868Z</time></trkpt><trkpt lat="44.3880025" lon="11.3351479"><ele>150.0</ele><time>2026-03-30T13:54:59.865Z</time></trkpt><trkpt lat="44.3880746" lon="11.3351448"><ele>150.0</ele><time>2026-03-30T13:55:00.871Z</time></trkpt><trkpt lat="44.3881471" lon="11.3351421"><ele>150.0</ele><time>2026-03-30T13:55:01.878Z</time></trkpt><trkpt lat="44.3882231" lon="11.3351374"><ele>149.99999999999997</ele><time>2026-03-30T13:55:02.874Z</time></trkpt><trkpt lat="44.3882969" lon="11.3351345"><ele>150.0</ele><time>2026-03-30T13:55:03.874Z</time></trkpt><trkpt lat="44.3883674" lon="11.3351306"><ele>149.99999999999997</ele><time>2026-03-30T13:55:04.869Z</time></trkpt><trkpt lat="44.3884384" lon="11.3351275"><ele>150.0</ele><time>2026-03-30T13:55:05.875Z</time></trkpt><trkpt lat="44.3885161" lon="11.3351255"><ele>150.0</ele><time>2026-03-30T13:55:06.875Z</time></trkpt><trkpt lat="44.3885893" lon="11.3351282"><ele>150.0</ele><time>2026-03-30T13:55:07.867Z</time></trkpt><trkpt lat="44.3886633" lon="11.3351306"><ele>150.0</ele><time>2026-03-30T13:55:08.881Z</time></trkpt><trkpt lat="44.3887393" lon="11.3351323"><ele>149.99999999999997</ele><time>2026-03-30T13:55:09.879Z</time></trkpt><trkpt lat="44.3888167" lon="11.3351309"><ele>150.0</ele><time>2026-03-30T13:55:10.886Z</time></trkpt><trkpt lat="44.3888916" lon="11.3351292"><ele>149.42857142857142</ele><time>2026-03-30T13:55:11.875Z</time></trkpt><trkpt lat="44.3889639" lon="11.3351287"><ele>148.85714285714286</ele><time>2026-03-30T13:55:12.884Z</time></trkpt><trkpt lat="44.3890367" lon="11.335129"><ele>148.28571428571428</ele><time>2026-03-30T13:55:13.872Z</time></trkpt><trkpt lat="44.3891137" lon="11.3351311"><ele>147.71428571428572</ele><time>2026-03-30T13:55:14.881Z</time></trkpt><trkpt lat="44.3891882" lon="11.3351354"><ele>147.14285714285714</ele><time>2026-03-30T13:55:15.88Z</time></trkpt><trkpt lat="44.3892607" lon="11.3351385"><ele>146.57142857142856</ele><time>2026-03-30T13:55:16.879Z</time></trkpt><trkpt lat="44.389336" lon="11.335141"><ele>146.0</ele><time>2026-03-30T13:55:17.875Z</time></trkpt><trkpt lat="44.3894088" lon="11.335147"><ele>146.0</ele><time>2026-03-30T13:55:18.873Z</time></trkpt><trkpt lat="44.3894817" lon="11.3351524"><ele>146.0</ele><time>2026-03-30T13:55:19.875Z</time></trkpt><trkpt lat="44.3895544" lon="11.3351582"><ele>146.0</ele><time>2026-03-30T13:55:20.874Z</time></trkpt><trkpt lat="44.3896267" lon="11.3351633"><ele>146.0</ele><time>2026-03-30T13:55:21.877Z</time></trkpt><trkpt lat="44.389701" lon="11.3351693"><ele>146.0</ele><time>2026-03-30T13:55:22.88Z</time></trkpt><trkpt lat="44.3897762" lon="11.3351749"><ele>146.0</ele><time>2026-03-30T13:55:23.867Z</time></trkpt><trkpt lat="44.3898507" lon="11.335185"><ele>146.0</ele><time>2026-03-30T13:55:24.871Z</time></trkpt><trkpt lat="44.3899253" lon="11.3351914"><ele>146.57142857142856</ele><time>2026-03-30T13:55:25.872Z</time></trkpt><trkpt lat="44.3900004" lon="11.3352021"><ele>147.14285714285714</ele><time>2026-03-30T13:55:26.88Z</time></trkpt><trkpt lat="44.3900736" lon="11.3352126"><ele>147.71428571428572</ele><time>2026-03-30T13:55:27.882Z</time></trkpt><trkpt lat="44.3901459" lon="11.3352224"><ele>148.28571428571428</ele><time>2026-03-30T13:55:28.871Z</time></trkpt><trkpt lat="44.3902191" lon="11.335233"><ele>148.85714285714286</ele><time>2026-03-30T13:55:29.881Z</time></trkpt><trkpt lat="44.3902918" lon="11.3352432"><ele>149.42857142857142</ele><time>2026-03-30T13:55:30.87Z</time></trkpt><trkpt lat="44.3903659" lon="11.3352499"><ele>150.0</ele><time>2026-03-30T13:55:31.868Z</time></trkpt><trkpt lat="44.3904417" lon="11.3352577"><ele>149.85714285714283</ele><time>2026-03-30T13:55:32.874Z</time></trkpt><trkpt lat="44.3905193" lon="11.3352638"><ele>149.71428571428572</ele><time>2026-03-30T13:55:33.875Z</time></trkpt><trkpt lat="44.3905885" lon="11.3352732"><ele>149.57142857142856</ele><time>2026-03-30T13:55:34.876Z</time></trkpt><trkpt lat="44.3906622" lon="11.335282"><ele>149.42857142857142</ele><time>2026-03-30T13:55:35.868Z</time></trkpt><trkpt lat="44.3907382" lon="11.3352902"><ele>149.28571428571428</ele><time>2026-03-30T13:55:36.871Z</time></trkpt><trkpt lat="44.3908069" lon="11.3353007"><ele>149.14285714285714</ele><time>2026-03-30T13:55:37.877Z</time></trkpt><trkpt lat="44.3908815" lon="11.3353061"><ele>149.0</ele><time>2026-03-30T13:55:38.881Z</time></trkpt><trkpt lat="44.3909567" lon="11.3353125"><ele>149.0</ele><time>2026-03-30T13:55:39.874Z</time></trkpt><trkpt lat="44.3910301" lon="11.3353201"><ele>149.0</ele><time>2026-03-30T13:55:40.88Z</time></trkpt><trkpt lat="44.3911029" lon="11.3353279"><ele>149.0</ele><time>2026-03-30T13:55:41.877Z</time></trkpt><trkpt lat="44.3911763" lon="11.3353331"><ele>149.0</ele><time>2026-03-30T13:55:42.878Z</time></trkpt><trkpt lat="44.3912467" lon="11.3353436"><ele>149.0</ele><time>2026-03-30T13:55:43.87Z</time></trkpt><trkpt lat="44.3913125" lon="11.3353531"><ele>149.0</ele><time>2026-03-30T13:55:44.874Z</time></trkpt><trkpt lat="44.3913797" lon="11.3353616"><ele>149.0</ele><time>2026-03-30T13:55:45.876Z</time></trkpt><trkpt lat="44.3914488" lon="11.335371"><ele>148.42857142857142</ele><time>2026-03-30T13:55:46.877Z</time></trkpt><trkpt lat="44.3915147" lon="11.3353805"><ele>147.85714285714283</ele><time>2026-03-30T13:55:47.87Z</time></trkpt><trkpt lat="44.3915859" lon="11.3353916"><ele>147.28571428571428</ele><time>2026-03-30T13:55:48.868Z</time></trkpt><trkpt lat="44.3916547" lon="11.3354018"><ele>146.71428571428572</ele><time>2026-03-30T13:55:49.873Z</time></trkpt><trkpt lat="44.3917232" lon="11.3354124"><ele>146.14285714285717</ele><time>2026-03-30T13:55:50.877Z</time></trkpt><trkpt lat="44.3917917" lon="11.3354217"><ele>145.57142857142858</ele><time>2026-03-30T13:55:51.877Z</time></trkpt><trkpt lat="44.3918639" lon="11.3354309"><ele>145.0</ele><time>2026-03-30T13:55:52.873Z</time></trkpt><trkpt lat="44.3919363" lon="11.3354382"><ele>145.0</ele><time>2026-03-30T13:55:53.874Z</time></trkpt><trkpt lat="44.3920088" lon="11.3354487"><ele>145.0</ele><time>2026-03-30T13:55:54.872Z</time></trkpt><trkpt lat="44.3920804" lon="11.3354574"><ele>145.0</ele><time>2026-03-30T13:55:55.871Z</time></trkpt><trkpt lat="44.392157" lon="11.3354614"><ele>145.0</ele><time>2026-03-30T13:55:56.868Z</time></trkpt><trkpt lat="44.3922338" lon="11.3354666"><ele>145.0</ele><time>2026-03-30T13:55:57.88Z</time></trkpt><trkpt lat="44.3923133" lon="11.335474"><ele>145.0</ele><time>2026-03-30T13:55:58.874Z</time></trkpt><trkpt lat="44.392385" lon="11.3354832"><ele>145.14285714285714</ele><time>2026-03-30T13:55:59.868Z</time></trkpt><trkpt lat="44.3924515" lon="11.3354895"><ele>145.2857142857143</ele><time>2026-03-30T13:56:00.87Z</time></trkpt><trkpt lat="44.3925149" lon="11.3354967"><ele>145.42857142857144</ele><time>2026-03-30T13:56:01.879Z</time></trkpt><trkpt lat="44.3925855" lon="11.3355038"><ele>145.57142857142858</ele><time>2026-03-30T13:56:02.868Z</time></trkpt><trkpt lat="44.3926522" lon="11.3355135"><ele>145.71428571428572</ele><time>2026-03-30T13:56:03.87Z</time></trkpt><trkpt lat="44.3927222" lon="11.3355227"><ele>145.85714285714286</ele><time>2026-03-30T13:56:04.87Z</time></trkpt><trkpt lat="44.3927944" lon="11.33553"><ele>146.0</ele><time>2026-03-30T13:56:05.869Z</time></trkpt><trkpt lat="44.3928652" lon="11.3355398"><ele>146.0</ele><time>2026-03-30T13:56:06.874Z</time></trkpt><trkpt lat="44.3929343" lon="11.3355474"><ele>146.0</ele><time>2026-03-30T13:56:07.868Z</time></trkpt><trkpt lat="44.393009" lon="11.3355593"><ele>146.0</ele><time>2026-03-30T13:56:08.868Z</time></trkpt><trkpt lat="44.3930756" lon="11.3355725"><ele>146.0</ele><time>2026-03-30T13:56:09.869Z</time></trkpt><trkpt lat="44.3931456" lon="11.3355883"><ele>146.0</ele><time>2026-03-30T13:56:10.875Z</time></trkpt><trkpt lat="44.3932158" lon="11.3356048"><ele>146.0</ele><time>2026-03-30T13:56:11.879Z</time></trkpt><trkpt lat="44.3932843" lon="11.3356251"><ele>146.0</ele><time>2026-03-30T13:56:12.888Z</time></trkpt><trkpt lat="44.393355" lon="11.3356396"><ele>146.0</ele><time>2026-03-30T13:56:13.868Z</time></trkpt><trkpt lat="44.3934281" lon="11.3356608"><ele>146.0</ele><time>2026-03-30T13:56:14.873Z</time></trkpt><trkpt lat="44.3935004" lon="11.3356841"><ele>146.0</ele><time>2026-03-30T13:56:15.875Z</time></trkpt><trkpt lat="44.3935747" lon="11.3357089"><ele>146.0</ele><time>2026-03-30T13:56:16.872Z</time></trkpt><trkpt lat="44.3936481" lon="11.3357344"><ele>146.0</ele><time>2026-03-30T13:56:17.876Z</time></trkpt><trkpt lat="44.3937214" lon="11.3357564"><ele>146.0</ele><time>2026-03-30T13:56:18.876Z</time></trkpt><trkpt lat="44.393788" lon="11.3357781"><ele>146.0</ele><time>2026-03-30T13:56:19.876Z</time></trkpt><trkpt lat="44.3938581" lon="11.3358039"><ele>145.83333333333331</ele><time>2026-03-30T13:56:20.876Z</time></trkpt><trkpt lat="44.3939317" lon="11.3358302"><ele>145.66666666666666</ele><time>2026-03-30T13:56:21.876Z</time></trkpt><trkpt lat="44.3940067" lon="11.3358605"><ele>145.5</ele><time>2026-03-30T13:56:22.874Z</time></trkpt><trkpt lat="44.3940803" lon="11.3358916"><ele>145.33333333333334</ele><time>2026-03-30T13:56:23.863Z</time></trkpt><trkpt lat="44.394157" lon="11.3359204"><ele>145.16666666666669</ele><time>2026-03-30T13:56:24.867Z</time></trkpt><trkpt lat="44.3942301" lon="11.335952"><ele>145.0</ele><time>2026-03-30T13:56:25.879Z</time></trkpt><trkpt lat="44.3943048" lon="11.335984"><ele>145.0</ele><time>2026-03-30T13:56:26.877Z</time></trkpt><trkpt lat="44.394382" lon="11.3360159"><ele>145.0</ele><time>2026-03-30T13:56:27.88Z</time></trkpt><trkpt lat="44.3944549" lon="11.3360473"><ele>145.0</ele><time>2026-03-30T13:56:28.862Z</time></trkpt><trkpt lat="44.3945267" lon="11.336082"><ele>145.0</ele><time>2026-03-30T13:56:29.869Z</time></trkpt><trkpt lat="44.3945985" lon="11.3361187"><ele>145.0</ele><time>2026-03-30T13:56:30.877Z</time></trkpt><trkpt lat="44.3946656" lon="11.3361543"><ele>145.0</ele><time>2026-03-30T13:56:31.869Z</time></trkpt><trkpt lat="44.3947397" lon="11.3361889"><ele>145.14285714285714</ele><time>2026-03-30T13:56:32.88Z</time></trkpt><trkpt lat="44.3948153" lon="11.3362275"><ele>145.2857142857143</ele><time>2026-03-30T13:56:33.87Z</time></trkpt><trkpt lat="44.3948857" lon="11.3362614"><ele>145.42857142857144</ele><time>2026-03-30T13:56:34.872Z</time></trkpt><trkpt lat="44.3949517" lon="11.3362905"><ele>145.57142857142858</ele><time>2026-03-30T13:56:35.878Z</time></trkpt><trkpt lat="44.3950174" lon="11.3363219"><ele>145.71428571428572</ele><time>2026-03-30T13:56:36.888Z</time></trkpt><trkpt lat="44.395082" lon="11.3363528"><ele>145.85714285714286</ele><time>2026-03-30T13:56:37.87Z</time></trkpt><trkpt lat="44.3951459" lon="11.3363821"><ele>146.0</ele><time>2026-03-30T13:56:38.881Z</time></trkpt><trkpt lat="44.3952102" lon="11.3364149"><ele>145.5</ele><time>2026-03-30T13:56:39.871Z</time></trkpt><trkpt lat="44.3952749" lon="11.3364486"><ele>145.0</ele><time>2026-03-30T13:56:40.866Z</time></trkpt><trkpt lat="44.395341" lon="11.3364786"><ele>144.5</ele><time>2026-03-30T13:56:41.862Z</time></trkpt><trkpt lat="44.3954042" lon="11.3365071"><ele>144.0</ele><time>2026-03-30T13:56:42.869Z</time></trkpt><trkpt lat="44.3955239" lon="11.3365605"><ele>143.5</ele><time>2026-03-30T13:56:44.876Z</time></trkpt><trkpt lat="44.3955863" lon="11.3365891"><ele>143.0</ele><time>2026-03-30T13:56:45.882Z</time></trkpt><trkpt lat="44.3956475" lon="11.336616"><ele>142.99999999999997</ele><time>2026-03-30T13:56:46.872Z</time></trkpt><trkpt lat="44.3957081" lon="11.3366449"><ele>143.0</ele><time>2026-03-30T13:56:47.868Z</time></trkpt><trkpt lat="44.3957733" lon="11.3366744"><ele>143.0</ele><time>2026-03-30T13:56:48.869Z</time></trkpt><trkpt lat="44.3958383" lon="11.3367055"><ele>143.0</ele><time>2026-03-30T13:56:49.882Z</time></trkpt><trkpt lat="44.3959016" lon="11.3367362"><ele>143.0</ele><time>2026-03-30T13:56:50.879Z</time></trkpt><trkpt lat="44.3959643" lon="11.3367681"><ele>142.99999999999997</ele><time>2026-03-30T13:56:51.869Z</time></trkpt><trkpt lat="44.3960295" lon="11.3367994"><ele>143.0</ele><time>2026-03-30T13:56:52.886Z</time></trkpt><trkpt lat="44.3960963" lon="11.336833"><ele>143.0</ele><time>2026-03-30T13:56:53.87Z</time></trkpt><trkpt lat="44.3961664" lon="11.3368668"><ele>143.0</ele><time>2026-03-30T13:56:54.872Z</time></trkpt><trkpt lat="44.3962376" lon="11.336901"><ele>143.0</ele><time>2026-03-30T13:56:55.877Z</time></trkpt><trkpt lat="44.3962977" lon="11.3369307"><ele>143.0</ele><time>2026-03-30T13:56:56.88Z</time></trkpt><trkpt lat="44.3963651" lon="11.3369609"><ele>143.0</ele><time>2026-03-30T13:56:57.871Z</time></trkpt><trkpt lat="44.3964294" lon="11.3369869"><ele>143.0</ele><time>2026-03-30T13:56:58.867Z</time></trkpt><trkpt lat="44.3965492" lon="11.3370365"><ele>142.7142857142857</ele><time>2026-03-30T13:57:00.871Z</time></trkpt><trkpt lat="44.3966123" lon="11.3370606"><ele>142.42857142857142</ele><time>2026-03-30T13:57:01.875Z</time></trkpt><trkpt lat="44.3966753" lon="11.3370834"><ele>142.14285714285714</ele><time>2026-03-30T13:57:02.864Z</time></trkpt><trkpt lat="44.3967381" lon="11.3371066"><ele>141.85714285714283</ele><time>2026-03-30T13:57:03.872Z</time></trkpt><trkpt lat="44.3968033" lon="11.3371288"><ele>141.57142857142856</ele><time>2026-03-30T13:57:04.875Z</time></trkpt><trkpt lat="44.3968681" lon="11.3371481"><ele>141.28571428571428</ele><time>2026-03-30T13:57:05.875Z</time></trkpt><trkpt lat="44.3969353" lon="11.3371701"><ele>141.0</ele><time>2026-03-30T13:57:06.877Z</time></trkpt><trkpt lat="44.3969989" lon="11.3371903"><ele>141.0</ele><time>2026-03-30T13:57:07.876Z</time></trkpt><trkpt lat="44.3970654" lon="11.3372087"><ele>141.0</ele><time>2026-03-30T13:57:08.871Z</time></trkpt><trkpt lat="44.397134" lon="11.3372259"><ele>141.0</ele><time>2026-03-30T13:57:09.869Z</time></trkpt><trkpt lat="44.3972017" lon="11.3372437"><ele>141.0</ele><time>2026-03-30T13:57:10.884Z</time></trkpt><trkpt lat="44.3972689" lon="11.3372635"><ele>141.0</ele><time>2026-03-30T13:57:11.88Z</time></trkpt><trkpt lat="44.3973376" lon="11.337283"><ele>141.0</ele><time>2026-03-30T13:57:12.875Z</time></trkpt><trkpt lat="44.3974074" lon="11.3372999"><ele>141.0</ele><time>2026-03-30T13:57:13.88Z</time></trkpt><trkpt lat="44.3974779" lon="11.3373156"><ele>140.66666666666666</ele><time>2026-03-30T13:57:14.866Z</time></trkpt><trkpt lat="44.3975457" lon="11.3373314"><ele>140.33333333333334</ele><time>2026-03-30T13:57:15.875Z</time></trkpt><trkpt lat="44.3976124" lon="11.3373454"><ele>140.0</ele><time>2026-03-30T13:57:16.877Z</time></trkpt><trkpt lat="44.3976763" lon="11.3373593"><ele>139.66666666666669</ele><time>2026-03-30T13:57:17.875Z</time></trkpt><trkpt lat="44.3978006" lon="11.337384"><ele>139.33333333333334</ele><time>2026-03-30T13:57:19.876Z</time></trkpt><trkpt lat="44.397922" lon="11.3373999"><ele>139.0</ele><time>2026-03-30T13:57:21.874Z</time></trkpt><trkpt lat="44.3980327" lon="11.3374059"><ele>139.0</ele><time>2026-03-30T13:57:23.862Z</time></trkpt><trkpt lat="44.3981394" lon="11.3373991"><ele>139.0</ele><time>2026-03-30T13:57:25.873Z</time></trkpt><trkpt lat="44.3982468" lon="11.3373911"><ele>139.0</ele><time>2026-03-30T13:57:27.874Z</time></trkpt><trkpt lat="44.3983403" lon="11.3373896"><ele>139.0</ele><time>2026-03-30T13:57:29.879Z</time></trkpt><trkpt lat="44.3984362" lon="11.3374246"><ele>139.0</ele><time>2026-03-30T13:57:31.872Z</time></trkpt><trkpt lat="44.3985392" lon="11.3374864"><ele>139.0</ele><time>2026-03-30T13:57:33.868Z</time></trkpt><trkpt lat="44.3986398" lon="11.337534"><ele>139.0</ele><time>2026-03-30T13:57:35.873Z</time></trkpt><trkpt lat="44.3987392" lon="11.3375572"><ele>139.0</ele><time>2026-03-30T13:57:37.87Z</time></trkpt><trkpt lat="44.3988432" lon="11.3375833"><ele>139.0</ele><time>2026-03-30T13:57:39.871Z</time></trkpt><trkpt lat="44.398945" lon="11.337622"><ele>139.0</ele><time>2026-03-30T13:57:41.871Z</time></trkpt><trkpt lat="44.3990596" lon="11.3376509"><ele>138.8</ele><time>2026-03-30T13:57:43.863Z</time></trkpt><trkpt lat="44.3991757" lon="11.3376727"><ele>138.60000000000002</ele><time>2026-03-30T13:57:45.875Z</time></trkpt><trkpt lat="44.3993048" lon="11.3376887"><ele>138.4</ele><time>2026-03-30T13:57:47.877Z</time></trkpt><trkpt lat="44.3993719" lon="11.3376993"><ele>138.20000000000002</ele><time>2026-03-30T13:57:48.871Z</time></trkpt><trkpt lat="44.3994433" lon="11.3377103"><ele>138.0</ele><time>2026-03-30T13:57:49.875Z</time></trkpt><trkpt lat="44.3995101" lon="11.337718"><ele>138.0</ele><time>2026-03-30T13:57:50.869Z</time></trkpt><trkpt lat="44.3995798" lon="11.3377283"><ele>138.0</ele><time>2026-03-30T13:57:51.872Z</time></trkpt><trkpt lat="44.3996504" lon="11.3377397"><ele>138.0</ele><time>2026-03-30T13:57:52.871Z</time></trkpt><trkpt lat="44.3997245" lon="11.3377521"><ele>138.0</ele><time>2026-03-30T13:57:53.87Z</time></trkpt><trkpt lat="44.3997981" lon="11.3377649"><ele>138.0</ele><time>2026-03-30T13:57:54.878Z</time></trkpt><trkpt lat="44.3998702" lon="11.3377783"><ele>138.0</ele><time>2026-03-30T13:57:55.868Z</time></trkpt><trkpt lat="44.399939" lon="11.3377901"><ele>138.0</ele><time>2026-03-30T13:57:56.874Z</time></trkpt><trkpt lat="44.4000061" lon="11.3378029"><ele>138.0</ele><time>2026-03-30T13:57:57.875Z</time></trkpt><trkpt lat="44.4001302" lon="11.3378266"><ele>138.0</ele><time>2026-03-30T13:57:59.876Z</time></trkpt><trkpt lat="44.400193" lon="11.3378379"><ele>138.0</ele><time>2026-03-30T13:58:00.869Z</time></trkpt><trkpt lat="44.4002587" lon="11.3378473"><ele>138.0</ele><time>2026-03-30T13:58:01.874Z</time></trkpt><trkpt lat="44.4003763" lon="11.3378678"><ele>138.0</ele><time>2026-03-30T13:58:03.869Z</time></trkpt><trkpt lat="44.4004419" lon="11.3378794"><ele>138.0</ele><time>2026-03-30T13:58:04.865Z</time></trkpt><trkpt lat="44.4005053" lon="11.3378921"><ele>137.85714285714286</ele><time>2026-03-30T13:58:05.87Z</time></trkpt><trkpt lat="44.4005677" lon="11.3379046"><ele>137.71428571428572</ele><time>2026-03-30T13:58:06.874Z</time></trkpt><trkpt lat="44.4006332" lon="11.3379159"><ele>137.57142857142858</ele><time>2026-03-30T13:58:07.879Z</time></trkpt><trkpt lat="44.4006987" lon="11.3379266"><ele>137.42857142857144</ele><time>2026-03-30T13:58:08.879Z</time></trkpt><trkpt lat="44.4007634" lon="11.3379387"><ele>137.28571428571428</ele><time>2026-03-30T13:58:09.869Z</time></trkpt><trkpt lat="44.4008302" lon="11.3379483"><ele>137.14285714285717</ele><time>2026-03-30T13:58:10.877Z</time></trkpt><trkpt lat="44.4008982" lon="11.3379601"><ele>137.0</ele><time>2026-03-30T13:58:11.871Z</time></trkpt><trkpt lat="44.4009674" lon="11.3379699"><ele>137.00000000000003</ele><time>2026-03-30T13:58:12.877Z</time></trkpt><trkpt lat="44.4010355" lon="11.3379803"><ele>137.0</ele><time>2026-03-30T13:58:13.867Z</time></trkpt><trkpt lat="44.4011032" lon="11.3379927"><ele>137.0</ele><time>2026-03-30T13:58:14.872Z</time></trkpt><trkpt lat="44.4011717" lon="11.3380041"><ele>137.0</ele><time>2026-03-30T13:58:15.878Z</time></trkpt><trkpt lat="44.4012411" lon="11.338013"><ele>137.0</ele><time>2026-03-30T13:58:16.864Z</time></trkpt><trkpt lat="44.4013111" lon="11.3380269"><ele>137.00000000000003</ele><time>2026-03-30T13:58:17.877Z</time></trkpt><trkpt lat="44.4013806" lon="11.338043"><ele>137.0</ele><time>2026-03-30T13:58:18.869Z</time></trkpt><trkpt lat="44.401452" lon="11.3380577"><ele>136.57142857142858</ele><time>2026-03-30T13:58:19.89Z</time></trkpt><trkpt lat="44.4015188" lon="11.3380771"><ele>136.14285714285714</ele><time>2026-03-30T13:58:20.886Z</time></trkpt><trkpt lat="44.4015905" lon="11.3380999"><ele>135.71428571428572</ele><time>2026-03-30T13:58:21.877Z</time></trkpt><trkpt lat="44.4016581" lon="11.3381253"><ele>135.28571428571428</ele><time>2026-03-30T13:58:22.888Z</time></trkpt><trkpt lat="44.4017242" lon="11.3381516"><ele>134.85714285714286</ele><time>2026-03-30T13:58:23.884Z</time></trkpt><trkpt lat="44.4017973" lon="11.338181"><ele>134.42857142857144</ele><time>2026-03-30T13:58:24.865Z</time></trkpt><trkpt lat="44.4018695" lon="11.3382136"><ele>134.0</ele><time>2026-03-30T13:58:25.868Z</time></trkpt><trkpt lat="44.401941" lon="11.3382476"><ele>134.0</ele><time>2026-03-30T13:58:26.875Z</time></trkpt><trkpt lat="44.4020091" lon="11.338278"><ele>134.0</ele><time>2026-03-30T13:58:27.874Z</time></trkpt><trkpt lat="44.4020769" lon="11.3383148"><ele>134.0</ele><time>2026-03-30T13:58:28.887Z</time></trkpt><trkpt lat="44.4021495" lon="11.338358"><ele>134.0</ele><time>2026-03-30T13:58:29.878Z</time></trkpt><trkpt lat="44.4022224" lon="11.3384036"><ele>134.0</ele><time>2026-03-30T13:58:30.878Z</time></trkpt><trkpt lat="44.4022987" lon="11.3384544"><ele>134.0</ele><time>2026-03-30T13:58:31.87Z</time></trkpt><trkpt lat="44.402374" lon="11.3385034"><ele>134.0</ele><time>2026-03-30T13:58:32.882Z</time></trkpt><trkpt lat="44.4024465" lon="11.3385497"><ele>134.0</ele><time>2026-03-30T13:58:33.873Z</time></trkpt><trkpt lat="44.402521" lon="11.3385985"><ele>134.0</ele><time>2026-03-30T13:58:34.869Z</time></trkpt><trkpt lat="44.4025867" lon="11.3386433"><ele>134.0</ele><time>2026-03-30T13:58:35.866Z</time></trkpt><trkpt lat="44.4026532" lon="11.3386906"><ele>134.0</ele><time>2026-03-30T13:58:36.893Z</time></trkpt><trkpt lat="44.4027138" lon="11.3387373"><ele>134.0</ele><time>2026-03-30T13:58:37.871Z</time></trkpt><trkpt lat="44.4027844" lon="11.3387882"><ele>134.0</ele><time>2026-03-30T13:58:38.882Z</time></trkpt><trkpt lat="44.4028567" lon="11.3388431"><ele>134.0</ele><time>2026-03-30T13:58:39.874Z</time></trkpt><trkpt lat="44.4029184" lon="11.3388906"><ele>134.0</ele><time>2026-03-30T13:58:40.868Z</time></trkpt><trkpt lat="44.4029841" lon="11.3389336"><ele>134.0</ele><time>2026-03-30T13:58:41.871Z</time></trkpt><trkpt lat="44.4030489" lon="11.3389794"><ele>134.0</ele><time>2026-03-30T13:58:42.868Z</time></trkpt><trkpt lat="44.4031146" lon="11.3390304"><ele>134.0</ele><time>2026-03-30T13:58:43.865Z</time></trkpt><trkpt lat="44.4031768" lon="11.3390763"><ele>134.0</ele><time>2026-03-30T13:58:44.866Z</time></trkpt><trkpt lat="44.4032423" lon="11.3391232"><ele>133.71428571428572</ele><time>2026-03-30T13:58:45.876Z</time></trkpt><trkpt lat="44.4033099" lon="11.3391689"><ele>133.42857142857142</ele><time>2026-03-30T13:58:46.871Z</time></trkpt><trkpt lat="44.4033788" lon="11.3392152"><ele>133.14285714285714</ele><time>2026-03-30T13:58:47.867Z</time></trkpt><trkpt lat="44.4034443" lon="11.3392623"><ele>132.85714285714286</ele><time>2026-03-30T13:58:48.873Z</time></trkpt><trkpt lat="44.4035123" lon="11.3393089"><ele>132.57142857142858</ele><time>2026-03-30T13:58:49.872Z</time></trkpt><trkpt lat="44.4035754" lon="11.3393553"><ele>132.28571428571428</ele><time>2026-03-30T13:58:50.876Z</time></trkpt><trkpt lat="44.4036378" lon="11.3394024"><ele>132.0</ele><time>2026-03-30T13:58:51.879Z</time></trkpt><trkpt lat="44.4037018" lon="11.3394499"><ele>132.0</ele><time>2026-03-30T13:58:52.868Z</time></trkpt><trkpt lat="44.4037659" lon="11.3394947"><ele>132.0</ele><time>2026-03-30T13:58:53.868Z</time></trkpt><trkpt lat="44.4038295" lon="11.3395405"><ele>132.0</ele><time>2026-03-30T13:58:54.866Z</time></trkpt><trkpt lat="44.4038946" lon="11.3395856"><ele>132.0</ele><time>2026-03-30T13:58:55.873Z</time></trkpt><trkpt lat="44.4039594" lon="11.3396306"><ele>132.0</ele><time>2026-03-30T13:58:56.874Z</time></trkpt><trkpt lat="44.4040251" lon="11.3396757"><ele>132.0</ele><time>2026-03-30T13:58:57.873Z</time></trkpt><trkpt lat="44.4040883" lon="11.339721"><ele>132.0</ele><time>2026-03-30T13:58:58.875Z</time></trkpt><trkpt lat="44.4041538" lon="11.3397649"><ele>131.85714285714286</ele><time>2026-03-30T13:58:59.87Z</time></trkpt><trkpt lat="44.4042166" lon="11.3398103"><ele>131.71428571428572</ele><time>2026-03-30T13:59:00.873Z</time></trkpt><trkpt lat="44.4042786" lon="11.3398537"><ele>131.57142857142858</ele><time>2026-03-30T13:59:01.871Z</time></trkpt><trkpt lat="44.4043444" lon="11.3398973"><ele>131.42857142857144</ele><time>2026-03-30T13:59:02.876Z</time></trkpt><trkpt lat="44.404408" lon="11.3399411"><ele>131.2857142857143</ele><time>2026-03-30T13:59:03.871Z</time></trkpt><trkpt lat="44.4044699" lon="11.3399859"><ele>131.14285714285714</ele><time>2026-03-30T13:59:04.877Z</time></trkpt><trkpt lat="44.4045309" lon="11.340031"><ele>131.0</ele><time>2026-03-30T13:59:05.876Z</time></trkpt><trkpt lat="44.4045935" lon="11.3400752"><ele>131.0</ele><time>2026-03-30T13:59:06.87Z</time></trkpt><trkpt lat="44.4046545" lon="11.3401209"><ele>131.0</ele><time>2026-03-30T13:59:07.882Z</time></trkpt><trkpt lat="44.4047165" lon="11.3401671"><ele>131.0</ele><time>2026-03-30T13:59:08.862Z</time></trkpt><trkpt lat="44.4047791" lon="11.3402133"><ele>131.0</ele><time>2026-03-30T13:59:09.88Z</time></trkpt><trkpt lat="44.4048416" lon="11.3402602"><ele>131.0</ele><time>2026-03-30T13:59:10.88Z</time></trkpt><trkpt lat="44.4049075" lon="11.3403065"><ele>131.0</ele><time>2026-03-30T13:59:11.879Z</time></trkpt><trkpt lat="44.404972" lon="11.3403513"><ele>131.0</ele><time>2026-03-30T13:59:12.857Z</time></trkpt><trkpt lat="44.4050362" lon="11.3403974"><ele>131.0</ele><time>2026-03-30T13:59:13.87Z</time></trkpt><trkpt lat="44.4051005" lon="11.3404421"><ele>131.0</ele><time>2026-03-30T13:59:14.873Z</time></trkpt><trkpt lat="44.4051654" lon="11.340486"><ele>131.0</ele><time>2026-03-30T13:59:15.869Z</time></trkpt><trkpt lat="44.4052286" lon="11.3405322"><ele>131.0</ele><time>2026-03-30T13:59:16.875Z</time></trkpt><trkpt lat="44.4052914" lon="11.3405789"><ele>131.0</ele><time>2026-03-30T13:59:17.869Z</time></trkpt><trkpt lat="44.405356" lon="11.3406239"><ele>131.0</ele><time>2026-03-30T13:59:18.879Z</time></trkpt><trkpt lat="44.4054191" lon="11.340668"><ele>131.0</ele><time>2026-03-30T13:59:19.885Z</time></trkpt><trkpt lat="44.4054823" lon="11.3407127"><ele>130.57142857142858</ele><time>2026-03-30T13:59:20.875Z</time></trkpt><trkpt lat="44.4055482" lon="11.3407601"><ele>130.14285714285717</ele><time>2026-03-30T13:59:21.879Z</time></trkpt><trkpt lat="44.4056111" lon="11.3408054"><ele>129.71428571428572</ele><time>2026-03-30T13:59:22.866Z</time></trkpt><trkpt lat="44.4056725" lon="11.3408475"><ele>129.28571428571428</ele><time>2026-03-30T13:59:23.866Z</time></trkpt><trkpt lat="44.4057333" lon="11.3408911"><ele>128.85714285714283</ele><time>2026-03-30T13:59:24.871Z</time></trkpt><trkpt lat="44.4057943" lon="11.340933"><ele>128.42857142857142</ele><time>2026-03-30T13:59:25.873Z</time></trkpt><trkpt lat="44.4058557" lon="11.3409749"><ele>128.0</ele><time>2026-03-30T13:59:26.869Z</time></trkpt><trkpt lat="44.4059177" lon="11.3410222"><ele>128.0</ele><time>2026-03-30T13:59:27.874Z</time></trkpt><trkpt lat="44.4059805" lon="11.3410703"><ele>127.99999999999999</ele><time>2026-03-30T13:59:28.856Z</time></trkpt><trkpt lat="44.4060425" lon="11.341117"><ele>128.0</ele><time>2026-03-30T13:59:29.872Z</time></trkpt><trkpt lat="44.4061052" lon="11.3411648"><ele>128.0</ele><time>2026-03-30T13:59:30.862Z</time></trkpt><trkpt lat="44.4061687" lon="11.3412143"><ele>127.99999999999999</ele><time>2026-03-30T13:59:31.869Z</time></trkpt><trkpt lat="44.4062317" lon="11.3412645"><ele>128.0</ele><time>2026-03-30T13:59:32.872Z</time></trkpt><trkpt lat="44.4062988" lon="11.3413199"><ele>128.0</ele><time>2026-03-30T13:59:33.862Z</time></trkpt><trkpt lat="44.4063614" lon="11.3413707"><ele>128.0</ele><time>2026-03-30T13:59:34.871Z</time></trkpt><trkpt lat="44.4064252" lon="11.3414202"><ele>127.99999999999999</ele><time>2026-03-30T13:59:35.875Z</time></trkpt><trkpt lat="44.4064878" lon="11.3414709"><ele>128.0</ele><time>2026-03-30T13:59:36.872Z</time></trkpt><trkpt lat="44.4065496" lon="11.3415178"><ele>128.0</ele><time>2026-03-30T13:59:37.866Z</time></trkpt><trkpt lat="44.4066109" lon="11.3415639"><ele>127.99999999999999</ele><time>2026-03-30T13:59:38.869Z</time></trkpt><trkpt lat="44.4066757" lon="11.3416101"><ele>128.0</ele><time>2026-03-30T13:59:39.872Z</time></trkpt><trkpt lat="44.4067391" lon="11.3416555"><ele>128.0</ele><time>2026-03-30T13:59:40.868Z</time></trkpt><trkpt lat="44.4068042" lon="11.3417005"><ele>128.0</ele><time>2026-03-30T13:59:41.867Z</time></trkpt><trkpt lat="44.4068687" lon="11.3417446"><ele>127.99999999999999</ele><time>2026-03-30T13:59:42.864Z</time></trkpt><trkpt lat="44.4069327" lon="11.3417896"><ele>128.0</ele><time>2026-03-30T13:59:43.877Z</time></trkpt><trkpt lat="44.4069976" lon="11.341836"><ele>128.0</ele><time>2026-03-30T13:59:44.865Z</time></trkpt><trkpt lat="44.407059" lon="11.3418833"><ele>127.99999999999999</ele><time>2026-03-30T13:59:45.887Z</time></trkpt><trkpt lat="44.4071218" lon="11.3419284"><ele>128.0</ele><time>2026-03-30T13:59:46.868Z</time></trkpt><trkpt lat="44.4071844" lon="11.3419725"><ele>128.0</ele><time>2026-03-30T13:59:47.874Z</time></trkpt><trkpt lat="44.4072483" lon="11.3420185"><ele>127.85714285714285</ele><time>2026-03-30T13:59:48.875Z</time></trkpt><trkpt lat="44.4073114" lon="11.3420667"><ele>127.7142857142857</ele><time>2026-03-30T13:59:49.878Z</time></trkpt><trkpt lat="44.4073748" lon="11.3421129"><ele>127.57142857142857</ele><time>2026-03-30T13:59:50.86Z</time></trkpt><trkpt lat="44.4074397" lon="11.342159"><ele>127.42857142857142</ele><time>2026-03-30T13:59:51.873Z</time></trkpt><trkpt lat="44.4075047" lon="11.3422031"><ele>127.28571428571428</ele><time>2026-03-30T13:59:52.867Z</time></trkpt><trkpt lat="44.40757" lon="11.3422456"><ele>127.14285714285714</ele><time>2026-03-30T13:59:53.876Z</time></trkpt><trkpt lat="44.4076331" lon="11.3422895"><ele>127.0</ele><time>2026-03-30T13:59:54.874Z</time></trkpt><trkpt lat="44.407696" lon="11.3423354"><ele>127.0</ele><time>2026-03-30T13:59:55.88Z</time></trkpt><trkpt lat="44.4077575" lon="11.342381"><ele>127.0</ele><time>2026-03-30T13:59:56.884Z</time></trkpt><trkpt lat="44.4078181" lon="11.3424258"><ele>127.0</ele><time>2026-03-30T13:59:57.876Z</time></trkpt><trkpt lat="44.407879" lon="11.3424701"><ele>127.0</ele><time>2026-03-30T13:59:58.862Z</time></trkpt><trkpt lat="44.4079405" lon="11.3425131"><ele>127.0</ele><time>2026-03-30T13:59:59.869Z</time></trkpt><trkpt lat="44.4080009" lon="11.3425545"><ele>127.0</ele><time>2026-03-30T14:00:00.871Z</time></trkpt><trkpt lat="44.4080623" lon="11.3425949"><ele>127.0</ele><time>2026-03-30T14:00:01.871Z</time></trkpt><trkpt lat="44.4081219" lon="11.3426356"><ele>127.57142857142858</ele><time>2026-03-30T14:00:02.867Z</time></trkpt><trkpt lat="44.4081804" lon="11.3426753"><ele>128.14285714285714</ele><time>2026-03-30T14:00:03.873Z</time></trkpt><trkpt lat="44.4082388" lon="11.3427174"><ele>128.71428571428572</ele><time>2026-03-30T14:00:04.86Z</time></trkpt><trkpt lat="44.4082958" lon="11.3427597"><ele>129.28571428571428</ele><time>2026-03-30T14:00:05.871Z</time></trkpt><trkpt lat="44.4083528" lon="11.3428023"><ele>129.85714285714286</ele><time>2026-03-30T14:00:06.865Z</time></trkpt><trkpt lat="44.4084104" lon="11.3428453"><ele>130.42857142857144</ele><time>2026-03-30T14:00:07.874Z</time></trkpt><trkpt lat="44.408469" lon="11.3428877"><ele>131.0</ele><time>2026-03-30T14:00:08.872Z</time></trkpt><trkpt lat="44.4085272" lon="11.3429303"><ele>131.0</ele><time>2026-03-30T14:00:09.87Z</time></trkpt><trkpt lat="44.4085861" lon="11.3429743"><ele>131.0</ele><time>2026-03-30T14:00:10.87Z</time></trkpt><trkpt lat="44.408646" lon="11.3430172"><ele>131.0</ele><time>2026-03-30T14:00:11.872Z</time></trkpt><trkpt lat="44.4087055" lon="11.3430595"><ele>131.0</ele><time>2026-03-30T14:00:12.874Z</time></trkpt><trkpt lat="44.4087652" lon="11.3431027"><ele>131.0</ele><time>2026-03-30T14:00:13.876Z</time></trkpt><trkpt lat="44.408825" lon="11.3431462"><ele>131.0</ele><time>2026-03-30T14:00:14.873Z</time></trkpt><trkpt lat="44.4088844" lon="11.3431885"><ele>131.0</ele><time>2026-03-30T14:00:15.882Z</time></trkpt><trkpt lat="44.4089446" lon="11.3432325"><ele>130.57142857142858</ele><time>2026-03-30T14:00:16.872Z</time></trkpt><trkpt lat="44.4090048" lon="11.3432781"><ele>130.14285714285717</ele><time>2026-03-30T14:00:17.862Z</time></trkpt><trkpt lat="44.4090641" lon="11.3433245"><ele>129.71428571428572</ele><time>2026-03-30T14:00:18.873Z</time></trkpt><trkpt lat="44.4091232" lon="11.3433704"><ele>129.28571428571428</ele><time>2026-03-30T14:00:19.874Z</time></trkpt><trkpt lat="44.4091829" lon="11.3434156"><ele>128.85714285714283</ele><time>2026-03-30T14:00:20.879Z</time></trkpt><trkpt lat="44.4092413" lon="11.3434598"><ele>128.42857142857142</ele><time>2026-03-30T14:00:21.877Z</time></trkpt><trkpt lat="44.4093025" lon="11.3435045"><ele>128.0</ele><time>2026-03-30T14:00:22.869Z</time></trkpt><trkpt lat="44.4093634" lon="11.3435483"><ele>128.0</ele><time>2026-03-30T14:00:23.866Z</time></trkpt><trkpt lat="44.4094248" lon="11.3435917"><ele>127.99999999999999</ele><time>2026-03-30T14:00:24.871Z</time></trkpt><trkpt lat="44.4094857" lon="11.3436355"><ele>128.0</ele><time>2026-03-30T14:00:25.867Z</time></trkpt><trkpt lat="44.4095468" lon="11.3436801"><ele>128.0</ele><time>2026-03-30T14:00:26.873Z</time></trkpt><trkpt lat="44.4096079" lon="11.343725"><ele>127.99999999999999</ele><time>2026-03-30T14:00:27.881Z</time></trkpt><trkpt lat="44.4096695" lon="11.3437705"><ele>128.0</ele><time>2026-03-30T14:00:28.868Z</time></trkpt><trkpt lat="44.4097309" lon="11.3438165"><ele>128.0</ele><time>2026-03-30T14:00:29.876Z</time></trkpt><trkpt lat="44.4097923" lon="11.3438609"><ele>128.14285714285714</ele><time>2026-03-30T14:00:30.877Z</time></trkpt><trkpt lat="44.4098543" lon="11.3439043"><ele>128.28571428571428</ele><time>2026-03-30T14:00:31.865Z</time></trkpt><trkpt lat="44.4099162" lon="11.3439493"><ele>128.42857142857142</ele><time>2026-03-30T14:00:32.871Z</time></trkpt><trkpt lat="44.4099788" lon="11.3439944"><ele>128.57142857142856</ele><time>2026-03-30T14:00:33.878Z</time></trkpt><trkpt lat="44.4100403" lon="11.3440404"><ele>128.71428571428572</ele><time>2026-03-30T14:00:34.869Z</time></trkpt><trkpt lat="44.4101032" lon="11.3440879"><ele>128.85714285714283</ele><time>2026-03-30T14:00:35.863Z</time></trkpt><trkpt lat="44.4101676" lon="11.3441368"><ele>129.0</ele><time>2026-03-30T14:00:36.879Z</time></trkpt><trkpt lat="44.4102329" lon="11.3441842"><ele>128.99999999999997</ele><time>2026-03-30T14:00:37.892Z</time></trkpt><trkpt lat="44.4102972" lon="11.3442315"><ele>129.0</ele><time>2026-03-30T14:00:38.878Z</time></trkpt><trkpt lat="44.4103635" lon="11.3442816"><ele>129.0</ele><time>2026-03-30T14:00:39.865Z</time></trkpt><trkpt lat="44.4104294" lon="11.344331"><ele>129.0</ele><time>2026-03-30T14:00:40.878Z</time></trkpt><trkpt lat="44.4104949" lon="11.3443784"><ele>129.0</ele><time>2026-03-30T14:00:41.864Z</time></trkpt><trkpt lat="44.4105615" lon="11.3444242"><ele>128.99999999999997</ele><time>2026-03-30T14:00:42.873Z</time></trkpt><trkpt lat="44.4106287" lon="11.3444693"><ele>129.0</ele><time>2026-03-30T14:00:43.871Z</time></trkpt><trkpt lat="44.4106951" lon="11.3445147"><ele>128.99999999999997</ele><time>2026-03-30T14:00:44.878Z</time></trkpt><trkpt lat="44.4107631" lon="11.3445598"><ele>129.0</ele><time>2026-03-30T14:00:45.869Z</time></trkpt><trkpt lat="44.4108307" lon="11.3446039"><ele>129.0</ele><time>2026-03-30T14:00:46.873Z</time></trkpt><trkpt lat="44.4108957" lon="11.3446496"><ele>129.0</ele><time>2026-03-30T14:00:47.871Z</time></trkpt><trkpt lat="44.4109594" lon="11.3446952"><ele>129.0</ele><time>2026-03-30T14:00:48.872Z</time></trkpt><trkpt lat="44.4110239" lon="11.3447385"><ele>128.99999999999997</ele><time>2026-03-30T14:00:49.876Z</time></trkpt><trkpt lat="44.4110861" lon="11.3447822"><ele>129.0</ele><time>2026-03-30T14:00:50.87Z</time></trkpt><trkpt lat="44.4111449" lon="11.3448243"><ele>129.0</ele><time>2026-03-30T14:00:51.873Z</time></trkpt><trkpt lat="44.4112011" lon="11.344868"><ele>129.0</ele><time>2026-03-30T14:00:52.869Z</time></trkpt><trkpt lat="44.4112566" lon="11.3449105"><ele>129.0</ele><time>2026-03-30T14:00:53.872Z</time></trkpt><trkpt lat="44.4113128" lon="11.3449513"><ele>129.0</ele><time>2026-03-30T14:00:54.87Z</time></trkpt><trkpt lat="44.4114236" lon="11.345026"><ele>129.0</ele><time>2026-03-30T14:00:56.871Z</time></trkpt><trkpt lat="44.4115308" lon="11.3451008"><ele>129.0</ele><time>2026-03-30T14:00:58.875Z</time></trkpt><trkpt lat="44.4116297" lon="11.3451726"><ele>128.5</ele><time>2026-03-30T14:01:00.87Z</time></trkpt><trkpt lat="44.4117352" lon="11.3452491"><ele>128.0</ele><time>2026-03-30T14:01:02.876Z</time></trkpt><trkpt lat="44.4118454" lon="11.3453252"><ele>127.5</ele><time>2026-03-30T14:01:04.871Z</time></trkpt><trkpt lat="44.4119048" lon="11.3453682"><ele>127.0</ele><time>2026-03-30T14:01:05.88Z</time></trkpt><trkpt lat="44.4119617" lon="11.3454101"><ele>126.5</ele><time>2026-03-30T14:01:06.883Z</time></trkpt><trkpt lat="44.4120196" lon="11.3454465"><ele>126.0</ele><time>2026-03-30T14:01:07.873Z</time></trkpt><trkpt lat="44.4120775" lon="11.3454818"><ele>126.0</ele><time>2026-03-30T14:01:08.87Z</time></trkpt><trkpt lat="44.4121366" lon="11.3455159"><ele>126.0</ele><time>2026-03-30T14:01:09.873Z</time></trkpt><trkpt lat="44.4121959" lon="11.34555"><ele>126.0</ele><time>2026-03-30T14:01:10.872Z</time></trkpt><trkpt lat="44.4122557" lon="11.3455836"><ele>126.0</ele><time>2026-03-30T14:01:11.88Z</time></trkpt><trkpt lat="44.4123169" lon="11.3456155"><ele>126.0</ele><time>2026-03-30T14:01:12.869Z</time></trkpt><trkpt lat="44.412377" lon="11.3456448"><ele>126.0</ele><time>2026-03-30T14:01:13.868Z</time></trkpt><trkpt lat="44.4124384" lon="11.3456751"><ele>126.0</ele><time>2026-03-30T14:01:14.876Z</time></trkpt><trkpt lat="44.412499" lon="11.3457044"><ele>126.4</ele><time>2026-03-30T14:01:15.874Z</time></trkpt><trkpt lat="44.4125603" lon="11.3457317"><ele>126.8</ele><time>2026-03-30T14:01:16.869Z</time></trkpt><trkpt lat="44.4126798" lon="11.3457759"><ele>127.20000000000002</ele><time>2026-03-30T14:01:18.874Z</time></trkpt><trkpt lat="44.412801" lon="11.3458148"><ele>127.60000000000001</ele><time>2026-03-30T14:01:20.876Z</time></trkpt><trkpt lat="44.4129163" lon="11.3458517"><ele>128.0</ele><time>2026-03-30T14:01:22.875Z</time></trkpt><trkpt lat="44.413039" lon="11.3458854"><ele>127.99999999999999</ele><time>2026-03-30T14:01:24.873Z</time></trkpt><trkpt lat="44.4131637" lon="11.3459107"><ele>128.0</ele><time>2026-03-30T14:01:26.869Z</time></trkpt><trkpt lat="44.4132866" lon="11.3459335"><ele>128.0</ele><time>2026-03-30T14:01:28.87Z</time></trkpt><trkpt lat="44.4133493" lon="11.3459439"><ele>128.0</ele><time>2026-03-30T14:01:29.875Z</time></trkpt><trkpt lat="44.413413" lon="11.3459504"><ele>127.99999999999999</ele><time>2026-03-30T14:01:30.879Z</time></trkpt><trkpt lat="44.4134772" lon="11.3459568"><ele>128.0</ele><time>2026-03-30T14:01:31.863Z</time></trkpt><trkpt lat="44.4135439" lon="11.3459643"><ele>128.0</ele><time>2026-03-30T14:01:32.879Z</time></trkpt><trkpt lat="44.4136086" lon="11.3459679"><ele>127.99999999999999</ele><time>2026-03-30T14:01:33.879Z</time></trkpt><trkpt lat="44.4136724" lon="11.3459693"><ele>128.0</ele><time>2026-03-30T14:01:34.878Z</time></trkpt><trkpt lat="44.4137375" lon="11.3459706"><ele>128.0</ele><time>2026-03-30T14:01:35.876Z</time></trkpt><trkpt lat="44.4138017" lon="11.3459699"><ele>127.99999999999999</ele><time>2026-03-30T14:01:36.873Z</time></trkpt><trkpt lat="44.4138671" lon="11.3459688"><ele>128.0</ele><time>2026-03-30T14:01:37.869Z</time></trkpt><trkpt lat="44.413932" lon="11.3459673"><ele>128.0</ele><time>2026-03-30T14:01:38.872Z</time></trkpt><trkpt lat="44.4139961" lon="11.3459627"><ele>127.85714285714285</ele><time>2026-03-30T14:01:39.873Z</time></trkpt><trkpt lat="44.4140611" lon="11.3459556"><ele>127.7142857142857</ele><time>2026-03-30T14:01:40.882Z</time></trkpt><trkpt lat="44.4141255" lon="11.3459511"><ele>127.57142857142857</ele><time>2026-03-30T14:01:41.873Z</time></trkpt><trkpt lat="44.4141901" lon="11.3459448"><ele>127.42857142857142</ele><time>2026-03-30T14:01:42.876Z</time></trkpt><trkpt lat="44.4142548" lon="11.3459364"><ele>127.28571428571428</ele><time>2026-03-30T14:01:43.878Z</time></trkpt><trkpt lat="44.4143189" lon="11.3459265"><ele>127.14285714285714</ele><time>2026-03-30T14:01:44.874Z</time></trkpt><trkpt lat="44.4143828" lon="11.3459161"><ele>127.0</ele><time>2026-03-30T14:01:45.872Z</time></trkpt><trkpt lat="44.4144455" lon="11.3459042"><ele>127.0</ele><time>2026-03-30T14:01:46.883Z</time></trkpt><trkpt lat="44.4145121" lon="11.3458962"><ele>127.0</ele><time>2026-03-30T14:01:47.872Z</time></trkpt><trkpt lat="44.4145787" lon="11.3458878"><ele>127.0</ele><time>2026-03-30T14:01:48.875Z</time></trkpt><trkpt lat="44.414647" lon="11.3458798"><ele>127.0</ele><time>2026-03-30T14:01:49.873Z</time></trkpt><trkpt lat="44.4147163" lon="11.3458715"><ele>127.0</ele><time>2026-03-30T14:01:50.867Z</time></trkpt><trkpt lat="44.4147854" lon="11.3458628"><ele>127.0</ele><time>2026-03-30T14:01:51.869Z</time></trkpt><trkpt lat="44.4148572" lon="11.3458558"><ele>127.0</ele><time>2026-03-30T14:01:52.869Z</time></trkpt><trkpt lat="44.4149278" lon="11.3458454"><ele>126.71428571428572</ele><time>2026-03-30T14:01:53.867Z</time></trkpt><trkpt lat="44.4149994" lon="11.345836"><ele>126.42857142857142</ele><time>2026-03-30T14:01:54.875Z</time></trkpt><trkpt lat="44.4150716" lon="11.3458266"><ele>126.14285714285714</ele><time>2026-03-30T14:01:55.865Z</time></trkpt><trkpt lat="44.415145" lon="11.3458171"><ele>125.85714285714286</ele><time>2026-03-30T14:01:56.884Z</time></trkpt><trkpt lat="44.4152181" lon="11.3458059"><ele>125.57142857142858</ele><time>2026-03-30T14:01:57.874Z</time></trkpt><trkpt lat="44.4152918" lon="11.3457958"><ele>125.28571428571428</ele><time>2026-03-30T14:01:58.873Z</time></trkpt><trkpt lat="44.4153667" lon="11.3457853"><ele>125.0</ele><time>2026-03-30T14:01:59.874Z</time></trkpt><trkpt lat="44.415442" lon="11.345774"><ele>124.49999999999999</ele><time>2026-03-30T14:02:00.869Z</time></trkpt><trkpt lat="44.4155183" lon="11.3457626"><ele>124.0</ele><time>2026-03-30T14:02:01.877Z</time></trkpt><trkpt lat="44.4155945" lon="11.3457527"><ele>123.5</ele><time>2026-03-30T14:02:02.866Z</time></trkpt><trkpt lat="44.4156711" lon="11.3457432"><ele>123.0</ele><time>2026-03-30T14:02:03.876Z</time></trkpt><trkpt lat="44.4157484" lon="11.3457347"><ele>122.49999999999999</ele><time>2026-03-30T14:02:04.88Z</time></trkpt><trkpt lat="44.4158265" lon="11.3457248"><ele>122.0</ele><time>2026-03-30T14:02:05.872Z</time></trkpt><trkpt lat="44.4159048" lon="11.3457139"><ele>121.99999999999999</ele><time>2026-03-30T14:02:06.87Z</time></trkpt><trkpt lat="44.4159835" lon="11.3457039"><ele>122.0</ele><time>2026-03-30T14:02:07.874Z</time></trkpt><trkpt lat="44.4160635" lon="11.345695"><ele>122.0</ele><time>2026-03-30T14:02:08.878Z</time></trkpt><trkpt lat="44.4161442" lon="11.3456899"><ele>122.0</ele><time>2026-03-30T14:02:09.871Z</time></trkpt><trkpt lat="44.4162253" lon="11.3456851"><ele>121.99999999999999</ele><time>2026-03-30T14:02:10.869Z</time></trkpt><trkpt lat="44.4163056" lon="11.3456793"><ele>122.0</ele><time>2026-03-30T14:02:11.884Z</time></trkpt><trkpt lat="44.4163856" lon="11.3456756"><ele>121.99999999999999</ele><time>2026-03-30T14:02:12.873Z</time></trkpt><trkpt lat="44.416465" lon="11.3456698"><ele>122.0</ele><time>2026-03-30T14:02:13.877Z</time></trkpt><trkpt lat="44.4165427" lon="11.3456646"><ele>122.0</ele><time>2026-03-30T14:02:14.874Z</time></trkpt><trkpt lat="44.4166201" lon="11.3456618"><ele>122.0</ele><time>2026-03-30T14:02:15.878Z</time></trkpt><trkpt lat="44.4166971" lon="11.3456622"><ele>121.99999999999999</ele><time>2026-03-30T14:02:16.865Z</time></trkpt><trkpt lat="44.4167732" lon="11.3456621"><ele>122.0</ele><time>2026-03-30T14:02:17.877Z</time></trkpt><trkpt lat="44.4168488" lon="11.3456614"><ele>121.99999999999999</ele><time>2026-03-30T14:02:18.882Z</time></trkpt><trkpt lat="44.4169236" lon="11.3456588"><ele>122.0</ele><time>2026-03-30T14:02:19.874Z</time></trkpt><trkpt lat="44.416997" lon="11.3456575"><ele>121.99999999999999</ele><time>2026-03-30T14:02:20.871Z</time></trkpt><trkpt lat="44.417069" lon="11.345653"><ele>121.99999999999999</ele><time>2026-03-30T14:02:21.873Z</time></trkpt><trkpt lat="44.4171399" lon="11.3456488"><ele>122.0</ele><time>2026-03-30T14:02:22.882Z</time></trkpt><trkpt lat="44.4172099" lon="11.3456448"><ele>121.99999999999999</ele><time>2026-03-30T14:02:23.871Z</time></trkpt><trkpt lat="44.4172787" lon="11.3456414"><ele>121.99999999999999</ele><time>2026-03-30T14:02:24.868Z</time></trkpt><trkpt lat="44.4173479" lon="11.3456376"><ele>121.85714285714283</ele><time>2026-03-30T14:02:25.869Z</time></trkpt><trkpt lat="44.4174169" lon="11.3456324"><ele>121.71428571428571</ele><time>2026-03-30T14:02:26.872Z</time></trkpt><trkpt lat="44.4174862" lon="11.3456288"><ele>121.57142857142856</ele><time>2026-03-30T14:02:27.873Z</time></trkpt><trkpt lat="44.4175556" lon="11.3456244"><ele>121.42857142857142</ele><time>2026-03-30T14:02:28.874Z</time></trkpt><trkpt lat="44.4176261" lon="11.3456189"><ele>121.28571428571428</ele><time>2026-03-30T14:02:29.876Z</time></trkpt><trkpt lat="44.4176969" lon="11.3456133"><ele>121.14285714285714</ele><time>2026-03-30T14:02:30.876Z</time></trkpt><trkpt lat="44.4177676" lon="11.3456084"><ele>121.0</ele><time>2026-03-30T14:02:31.883Z</time></trkpt><trkpt lat="44.4178399" lon="11.345604"><ele>121.0</ele><time>2026-03-30T14:02:32.881Z</time></trkpt><trkpt lat="44.4179124" lon="11.3455974"><ele>120.99999999999999</ele><time>2026-03-30T14:02:33.887Z</time></trkpt><trkpt lat="44.4179854" lon="11.3455893"><ele>121.0</ele><time>2026-03-30T14:02:34.869Z</time></trkpt><trkpt lat="44.4180604" lon="11.3455815"><ele>121.0</ele><time>2026-03-30T14:02:35.885Z</time></trkpt><trkpt lat="44.4181357" lon="11.3455717"><ele>120.99999999999999</ele><time>2026-03-30T14:02:36.874Z</time></trkpt><trkpt lat="44.4182096" lon="11.3455594"><ele>121.0</ele><time>2026-03-30T14:02:37.88Z</time></trkpt><trkpt lat="44.4182824" lon="11.3455474"><ele>121.0</ele><time>2026-03-30T14:02:38.883Z</time></trkpt><trkpt lat="44.4183561" lon="11.3455363"><ele>121.14285714285714</ele><time>2026-03-30T14:02:39.867Z</time></trkpt><trkpt lat="44.4184296" lon="11.3455261"><ele>121.28571428571428</ele><time>2026-03-30T14:02:40.876Z</time></trkpt><trkpt lat="44.4185033" lon="11.3455148"><ele>121.42857142857142</ele><time>2026-03-30T14:02:41.873Z</time></trkpt><trkpt lat="44.4185774" lon="11.3455032"><ele>121.57142857142856</ele><time>2026-03-30T14:02:42.865Z</time></trkpt><trkpt lat="44.4186512" lon="11.3454917"><ele>121.71428571428571</ele><time>2026-03-30T14:02:43.878Z</time></trkpt><trkpt lat="44.4187259" lon="11.3454803"><ele>121.85714285714283</ele><time>2026-03-30T14:02:44.876Z</time></trkpt><trkpt lat="44.4187997" lon="11.3454703"><ele>121.99999999999999</ele><time>2026-03-30T14:02:45.872Z</time></trkpt><trkpt lat="44.4188737" lon="11.3454609"><ele>122.7142857142857</ele><time>2026-03-30T14:02:46.875Z</time></trkpt><trkpt lat="44.4189465" lon="11.3454509"><ele>123.42857142857142</ele><time>2026-03-30T14:02:47.87Z</time></trkpt><trkpt lat="44.419019" lon="11.3454385"><ele>124.14285714285714</ele><time>2026-03-30T14:02:48.876Z</time></trkpt><trkpt lat="44.4190927" lon="11.3454283"><ele>124.85714285714285</ele><time>2026-03-30T14:02:49.875Z</time></trkpt><trkpt lat="44.4191654" lon="11.3454169"><ele>125.57142857142856</ele><time>2026-03-30T14:02:50.89Z</time></trkpt><trkpt lat="44.4192388" lon="11.3454068"><ele>126.28571428571429</ele><time>2026-03-30T14:02:51.881Z</time></trkpt><trkpt lat="44.4193114" lon="11.3453971"><ele>127.0</ele><time>2026-03-30T14:02:52.869Z</time></trkpt><trkpt lat="44.419385" lon="11.3453884"><ele>127.0</ele><time>2026-03-30T14:02:53.874Z</time></trkpt><trkpt lat="44.4194573" lon="11.3453777"><ele>127.0</ele><time>2026-03-30T14:02:54.877Z</time></trkpt><trkpt lat="44.41953" lon="11.3453664"><ele>127.0</ele><time>2026-03-30T14:02:55.868Z</time></trkpt><trkpt lat="44.4196011" lon="11.3453562"><ele>127.0</ele><time>2026-03-30T14:02:56.879Z</time></trkpt><trkpt lat="44.4196742" lon="11.3453481"><ele>127.0</ele><time>2026-03-30T14:02:57.87Z</time></trkpt><trkpt lat="44.4197465" lon="11.3453405"><ele>127.0</ele><time>2026-03-30T14:02:58.872Z</time></trkpt><trkpt lat="44.4198189" lon="11.345332"><ele>127.0</ele><time>2026-03-30T14:02:59.872Z</time></trkpt><trkpt lat="44.4198918" lon="11.3453237"><ele>126.57142857142858</ele><time>2026-03-30T14:03:00.868Z</time></trkpt><trkpt lat="44.4199646" lon="11.3453129"><ele>126.14285714285714</ele><time>2026-03-30T14:03:01.879Z</time></trkpt><trkpt lat="44.420038" lon="11.3453003"><ele>125.71428571428572</ele><time>2026-03-30T14:03:02.866Z</time></trkpt><trkpt lat="44.4201125" lon="11.345289"><ele>125.28571428571429</ele><time>2026-03-30T14:03:03.875Z</time></trkpt><trkpt lat="44.4201869" lon="11.3452798"><ele>124.85714285714286</ele><time>2026-03-30T14:03:04.876Z</time></trkpt><trkpt lat="44.4202613" lon="11.34527"><ele>124.42857142857143</ele><time>2026-03-30T14:03:05.878Z</time></trkpt><trkpt lat="44.4203371" lon="11.3452615"><ele>124.0</ele><time>2026-03-30T14:03:06.877Z</time></trkpt><trkpt lat="44.4204129" lon="11.3452522"><ele>122.50000000000001</ele><time>2026-03-30T14:03:07.869Z</time></trkpt><trkpt lat="44.4204898" lon="11.3452412"><ele>121.0</ele><time>2026-03-30T14:03:08.87Z</time></trkpt><trkpt lat="44.420568" lon="11.345231"><ele>119.5</ele><time>2026-03-30T14:03:09.874Z</time></trkpt><trkpt lat="44.4206456" lon="11.3452192"><ele>118.0</ele><time>2026-03-30T14:03:10.877Z</time></trkpt><trkpt lat="44.4207261" lon="11.3452116"><ele>116.50000000000001</ele><time>2026-03-30T14:03:11.877Z</time></trkpt><trkpt lat="44.420805" lon="11.3452015"><ele>115.0</ele><time>2026-03-30T14:03:12.874Z</time></trkpt><trkpt lat="44.4208866" lon="11.3451911"><ele>115.00000000000001</ele><time>2026-03-30T14:03:13.873Z</time></trkpt><trkpt lat="44.4209679" lon="11.3451808"><ele>115.0</ele><time>2026-03-30T14:03:14.864Z</time></trkpt><trkpt lat="44.4210473" lon="11.3451684"><ele>115.0</ele><time>2026-03-30T14:03:15.88Z</time></trkpt><trkpt lat="44.4211257" lon="11.3451518"><ele>115.0</ele><time>2026-03-30T14:03:16.874Z</time></trkpt><trkpt lat="44.4212067" lon="11.3451414"><ele>115.00000000000001</ele><time>2026-03-30T14:03:17.876Z</time></trkpt><trkpt lat="44.4212854" lon="11.3451305"><ele>115.0</ele><time>2026-03-30T14:03:18.877Z</time></trkpt><trkpt lat="44.4213638" lon="11.3451194"><ele>115.50000000000001</ele><time>2026-03-30T14:03:19.87Z</time></trkpt><trkpt lat="44.421442" lon="11.3451093"><ele>116.0</ele><time>2026-03-30T14:03:20.875Z</time></trkpt><trkpt lat="44.4215166" lon="11.3450988"><ele>116.5</ele><time>2026-03-30T14:03:21.872Z</time></trkpt><trkpt lat="44.4215909" lon="11.3450899"><ele>117.0</ele><time>2026-03-30T14:03:22.877Z</time></trkpt><trkpt lat="44.4216668" lon="11.3450842"><ele>117.50000000000001</ele><time>2026-03-30T14:03:23.871Z</time></trkpt><trkpt lat="44.4217461" lon="11.3450805"><ele>118.0</ele><time>2026-03-30T14:03:24.878Z</time></trkpt><trkpt lat="44.4218203" lon="11.3450737"><ele>118.0</ele><time>2026-03-30T14:03:25.876Z</time></trkpt><trkpt lat="44.4218941" lon="11.3450725"><ele>118.0</ele><time>2026-03-30T14:03:26.875Z</time></trkpt><trkpt lat="44.4219695" lon="11.3450723"><ele>118.0</ele><time>2026-03-30T14:03:27.885Z</time></trkpt><trkpt lat="44.422043" lon="11.3450752"><ele>118.0</ele><time>2026-03-30T14:03:28.878Z</time></trkpt><trkpt lat="44.4221159" lon="11.3450807"><ele>118.0</ele><time>2026-03-30T14:03:29.874Z</time></trkpt><trkpt lat="44.4221886" lon="11.3450878"><ele>118.0</ele><time>2026-03-30T14:03:30.881Z</time></trkpt><trkpt lat="44.4222625" lon="11.345094"><ele>118.0</ele><time>2026-03-30T14:03:31.871Z</time></trkpt><trkpt lat="44.4223353" lon="11.3451015"><ele>117.71428571428571</ele><time>2026-03-30T14:03:32.88Z</time></trkpt><trkpt lat="44.4224074" lon="11.3451113"><ele>117.42857142857144</ele><time>2026-03-30T14:03:33.876Z</time></trkpt><trkpt lat="44.4224803" lon="11.3451232"><ele>117.14285714285715</ele><time>2026-03-30T14:03:34.873Z</time></trkpt><trkpt lat="44.4225521" lon="11.3451358"><ele>116.85714285714286</ele><time>2026-03-30T14:03:35.872Z</time></trkpt><trkpt lat="44.4226245" lon="11.3451517"><ele>116.57142857142858</ele><time>2026-03-30T14:03:36.875Z</time></trkpt><trkpt lat="44.4226957" lon="11.3451684"><ele>116.2857142857143</ele><time>2026-03-30T14:03:37.877Z</time></trkpt><trkpt lat="44.4227662" lon="11.3451869"><ele>116.00000000000001</ele><time>2026-03-30T14:03:38.872Z</time></trkpt><trkpt lat="44.4228378" lon="11.3452049"><ele>116.00000000000001</ele><time>2026-03-30T14:03:39.873Z</time></trkpt><trkpt lat="44.422909" lon="11.3452243"><ele>116.0</ele><time>2026-03-30T14:03:40.872Z</time></trkpt><trkpt lat="44.4229787" lon="11.3452434"><ele>116.00000000000001</ele><time>2026-03-30T14:03:41.873Z</time></trkpt><trkpt lat="44.4230507" lon="11.345264"><ele>116.00000000000001</ele><time>2026-03-30T14:03:42.884Z</time></trkpt><trkpt lat="44.4231258" lon="11.3452907"><ele>116.0</ele><time>2026-03-30T14:03:43.875Z</time></trkpt><trkpt lat="44.4231945" lon="11.3453151"><ele>116.00000000000001</ele><time>2026-03-30T14:03:44.878Z</time></trkpt><trkpt lat="44.4232642" lon="11.3453382"><ele>116.00000000000001</ele><time>2026-03-30T14:03:45.88Z</time></trkpt><trkpt lat="44.4233328" lon="11.3453633"><ele>115.85714285714288</ele><time>2026-03-30T14:03:46.874Z</time></trkpt><trkpt lat="44.423402" lon="11.3453921"><ele>115.71428571428572</ele><time>2026-03-30T14:03:47.883Z</time></trkpt><trkpt lat="44.4234688" lon="11.34542"><ele>115.57142857142857</ele><time>2026-03-30T14:03:48.878Z</time></trkpt><trkpt lat="44.4235372" lon="11.3454493"><ele>115.42857142857143</ele><time>2026-03-30T14:03:49.876Z</time></trkpt><trkpt lat="44.4236045" lon="11.3454797"><ele>115.28571428571428</ele><time>2026-03-30T14:03:50.875Z</time></trkpt><trkpt lat="44.4236723" lon="11.3455124"><ele>115.14285714285712</ele><time>2026-03-30T14:03:51.869Z</time></trkpt><trkpt lat="44.4237394" lon="11.3455463"><ele>114.99999999999999</ele><time>2026-03-30T14:03:52.871Z</time></trkpt><trkpt lat="44.4238048" lon="11.3455806"><ele>114.85714285714283</ele><time>2026-03-30T14:03:53.873Z</time></trkpt><trkpt lat="44.4238709" lon="11.3456135"><ele>114.71428571428571</ele><time>2026-03-30T14:03:54.876Z</time></trkpt><trkpt lat="44.4239373" lon="11.3456516"><ele>114.57142857142856</ele><time>2026-03-30T14:03:55.883Z</time></trkpt><trkpt lat="44.4240054" lon="11.3456897"><ele>114.42857142857142</ele><time>2026-03-30T14:03:56.875Z</time></trkpt><trkpt lat="44.4240726" lon="11.3457309"><ele>114.28571428571428</ele><time>2026-03-30T14:03:57.874Z</time></trkpt><trkpt lat="44.4241362" lon="11.3457703"><ele>114.14285714285714</ele><time>2026-03-30T14:03:58.87Z</time></trkpt><trkpt lat="44.4242053" lon="11.3458135"><ele>114.0</ele><time>2026-03-30T14:03:59.863Z</time></trkpt><trkpt lat="44.4242695" lon="11.3458561"><ele>114.0</ele><time>2026-03-30T14:04:00.885Z</time></trkpt><trkpt lat="44.4243359" lon="11.345898"><ele>113.99999999999999</ele><time>2026-03-30T14:04:01.873Z</time></trkpt><trkpt lat="44.4244032" lon="11.3459452"><ele>114.0</ele><time>2026-03-30T14:04:02.864Z</time></trkpt><trkpt lat="44.4244697" lon="11.3459946"><ele>114.0</ele><time>2026-03-30T14:04:03.866Z</time></trkpt><trkpt lat="44.4245344" lon="11.3460438"><ele>113.99999999999999</ele><time>2026-03-30T14:04:04.87Z</time></trkpt><trkpt lat="44.4245969" lon="11.3460936"><ele>114.0</ele><time>2026-03-30T14:04:05.868Z</time></trkpt><trkpt lat="44.4246605" lon="11.3461462"><ele>114.0</ele><time>2026-03-30T14:04:06.867Z</time></trkpt><trkpt lat="44.4247228" lon="11.3461984"><ele>113.85714285714285</ele><time>2026-03-30T14:04:07.885Z</time></trkpt><trkpt lat="44.4247827" lon="11.3462516"><ele>113.7142857142857</ele><time>2026-03-30T14:04:08.876Z</time></trkpt><trkpt lat="44.4248431" lon="11.3463066"><ele>113.57142857142857</ele><time>2026-03-30T14:04:09.871Z</time></trkpt><trkpt lat="44.4249053" lon="11.3463592"><ele>113.42857142857142</ele><time>2026-03-30T14:04:10.881Z</time></trkpt><trkpt lat="44.4249671" lon="11.3464159"><ele>113.28571428571428</ele><time>2026-03-30T14:04:11.868Z</time></trkpt><trkpt lat="44.4250248" lon="11.3464714"><ele>113.14285714285714</ele><time>2026-03-30T14:04:12.881Z</time></trkpt><trkpt lat="44.4250842" lon="11.3465326"><ele>113.0</ele><time>2026-03-30T14:04:13.867Z</time></trkpt><trkpt lat="44.4251441" lon="11.3465939"><ele>113.0</ele><time>2026-03-30T14:04:14.872Z</time></trkpt><trkpt lat="44.4252028" lon="11.3466567"><ele>113.0</ele><time>2026-03-30T14:04:15.881Z</time></trkpt><trkpt lat="44.4252589" lon="11.3467188"><ele>113.0</ele><time>2026-03-30T14:04:16.867Z</time></trkpt><trkpt lat="44.4253169" lon="11.3467815"><ele>113.0</ele><time>2026-03-30T14:04:17.877Z</time></trkpt><trkpt lat="44.4253732" lon="11.3468474"><ele>113.0</ele><time>2026-03-30T14:04:18.885Z</time></trkpt><trkpt lat="44.4254283" lon="11.3469121"><ele>113.0</ele><time>2026-03-30T14:04:19.871Z</time></trkpt><trkpt lat="44.4254839" lon="11.346977"><ele>113.0</ele><time>2026-03-30T14:04:20.869Z</time></trkpt><trkpt lat="44.4255364" lon="11.347044"><ele>113.0</ele><time>2026-03-30T14:04:21.872Z</time></trkpt><trkpt lat="44.4255891" lon="11.3471124"><ele>113.0</ele><time>2026-03-30T14:04:22.881Z</time></trkpt><trkpt lat="44.425642" lon="11.34718"><ele>113.0</ele><time>2026-03-30T14:04:23.872Z</time></trkpt><trkpt lat="44.4256948" lon="11.3472487"><ele>113.0</ele><time>2026-03-30T14:04:24.871Z</time></trkpt><trkpt lat="44.4257449" lon="11.3473189"><ele>113.0</ele><time>2026-03-30T14:04:25.871Z</time></trkpt><trkpt lat="44.4257967" lon="11.3473876"><ele>113.0</ele><time>2026-03-30T14:04:26.879Z</time></trkpt><trkpt lat="44.425847" lon="11.3474557"><ele>113.0</ele><time>2026-03-30T14:04:27.87Z</time></trkpt><trkpt lat="44.4258968" lon="11.3475255"><ele>113.0</ele><time>2026-03-30T14:04:28.888Z</time></trkpt><trkpt lat="44.4259462" lon="11.3475942"><ele>113.0</ele><time>2026-03-30T14:04:29.88Z</time></trkpt><trkpt lat="44.4259936" lon="11.3476624"><ele>113.0</ele><time>2026-03-30T14:04:30.875Z</time></trkpt><trkpt lat="44.4260402" lon="11.3477291"><ele>113.0</ele><time>2026-03-30T14:04:31.877Z</time></trkpt><trkpt lat="44.4260885" lon="11.3477944"><ele>113.0</ele><time>2026-03-30T14:04:32.874Z</time></trkpt><trkpt lat="44.4261364" lon="11.3478603"><ele>113.0</ele><time>2026-03-30T14:04:33.874Z</time></trkpt><trkpt lat="44.4261821" lon="11.3479284"><ele>113.0</ele><time>2026-03-30T14:04:34.887Z</time></trkpt><trkpt lat="44.4262279" lon="11.3479943"><ele>112.85714285714286</ele><time>2026-03-30T14:04:35.872Z</time></trkpt><trkpt lat="44.4262743" lon="11.3480601"><ele>112.71428571428571</ele><time>2026-03-30T14:04:36.878Z</time></trkpt><trkpt lat="44.4263224" lon="11.3481209"><ele>112.57142857142857</ele><time>2026-03-30T14:04:37.887Z</time></trkpt><trkpt lat="44.4263702" lon="11.3481812"><ele>112.42857142857143</ele><time>2026-03-30T14:04:38.879Z</time></trkpt><trkpt lat="44.426419" lon="11.3482402"><ele>112.28571428571428</ele><time>2026-03-30T14:04:39.873Z</time></trkpt><trkpt lat="44.4264696" lon="11.3482964"><ele>112.14285714285714</ele><time>2026-03-30T14:04:40.876Z</time></trkpt><trkpt lat="44.4265203" lon="11.348353"><ele>112.0</ele><time>2026-03-30T14:04:41.878Z</time></trkpt><trkpt lat="44.4265714" lon="11.3484073"><ele>112.0</ele><time>2026-03-30T14:04:42.879Z</time></trkpt><trkpt lat="44.4266246" lon="11.3484611"><ele>112.0</ele><time>2026-03-30T14:04:43.876Z</time></trkpt><trkpt lat="44.4266786" lon="11.3485118"><ele>112.0</ele><time>2026-03-30T14:04:44.875Z</time></trkpt><trkpt lat="44.4267336" lon="11.3485596"><ele>112.0</ele><time>2026-03-30T14:04:45.879Z</time></trkpt><trkpt lat="44.4267891" lon="11.3486075"><ele>112.0</ele><time>2026-03-30T14:04:46.871Z</time></trkpt><trkpt lat="44.4268453" lon="11.3486531"><ele>112.0</ele><time>2026-03-30T14:04:47.878Z</time></trkpt><trkpt lat="44.4269029" lon="11.3486977"><ele>112.0</ele><time>2026-03-30T14:04:48.878Z</time></trkpt><trkpt lat="44.426961" lon="11.3487434"><ele>112.0</ele><time>2026-03-30T14:04:49.876Z</time></trkpt><trkpt lat="44.4270197" lon="11.3487869"><ele>112.0</ele><time>2026-03-30T14:04:50.874Z</time></trkpt><trkpt lat="44.4270803" lon="11.3488254"><ele>112.0</ele><time>2026-03-30T14:04:51.876Z</time></trkpt><trkpt lat="44.4271435" lon="11.3488607"><ele>112.0</ele><time>2026-03-30T14:04:52.875Z</time></trkpt><trkpt lat="44.4272065" lon="11.3488976"><ele>112.0</ele><time>2026-03-30T14:04:53.873Z</time></trkpt><trkpt lat="44.4272693" lon="11.3489322"><ele>112.0</ele><time>2026-03-30T14:04:54.878Z</time></trkpt><trkpt lat="44.4273328" lon="11.3489642"><ele>112.0</ele><time>2026-03-30T14:04:55.873Z</time></trkpt><trkpt lat="44.4273972" lon="11.348997"><ele>111.85714285714286</ele><time>2026-03-30T14:04:56.885Z</time></trkpt><trkpt lat="44.4274624" lon="11.3490285"><ele>111.71428571428572</ele><time>2026-03-30T14:04:57.875Z</time></trkpt><trkpt lat="44.4275276" lon="11.3490589"><ele>111.57142857142857</ele><time>2026-03-30T14:04:58.88Z</time></trkpt><trkpt lat="44.4275938" lon="11.3490874"><ele>111.42857142857143</ele><time>2026-03-30T14:04:59.879Z</time></trkpt><trkpt lat="44.4276603" lon="11.3491177"><ele>111.28571428571429</ele><time>2026-03-30T14:05:00.872Z</time></trkpt><trkpt lat="44.4277264" lon="11.3491478"><ele>111.14285714285714</ele><time>2026-03-30T14:05:01.876Z</time></trkpt><trkpt lat="44.4277922" lon="11.3491792"><ele>111.0</ele><time>2026-03-30T14:05:02.871Z</time></trkpt><trkpt lat="44.4278586" lon="11.3492106"><ele>111.0</ele><time>2026-03-30T14:05:03.879Z</time></trkpt><trkpt lat="44.4279248" lon="11.3492446"><ele>111.0</ele><time>2026-03-30T14:05:04.879Z</time></trkpt><trkpt lat="44.4279921" lon="11.3492782"><ele>111.0</ele><time>2026-03-30T14:05:05.872Z</time></trkpt><trkpt lat="44.4280605" lon="11.3493092"><ele>111.0</ele><time>2026-03-30T14:05:06.863Z</time></trkpt><trkpt lat="44.428128" lon="11.3493397"><ele>111.0</ele><time>2026-03-30T14:05:07.892Z</time></trkpt><trkpt lat="44.4281944" lon="11.3493715"><ele>111.0</ele><time>2026-03-30T14:05:08.878Z</time></trkpt><trkpt lat="44.428261" lon="11.3494028"><ele>111.0</ele><time>2026-03-30T14:05:09.867Z</time></trkpt><trkpt lat="44.4283277" lon="11.3494333"><ele>110.71428571428571</ele><time>2026-03-30T14:05:10.872Z</time></trkpt><trkpt lat="44.4283942" lon="11.3494653"><ele>110.42857142857143</ele><time>2026-03-30T14:05:11.877Z</time></trkpt><trkpt lat="44.4284607" lon="11.3494957"><ele>110.14285714285714</ele><time>2026-03-30T14:05:12.88Z</time></trkpt><trkpt lat="44.4285272" lon="11.3495257"><ele>109.85714285714286</ele><time>2026-03-30T14:05:13.874Z</time></trkpt><trkpt lat="44.4285939" lon="11.3495564"><ele>109.57142857142858</ele><time>2026-03-30T14:05:14.873Z</time></trkpt><trkpt lat="44.4286604" lon="11.3495873"><ele>109.28571428571429</ele><time>2026-03-30T14:05:15.874Z</time></trkpt><trkpt lat="44.4287273" lon="11.3496187"><ele>109.0</ele><time>2026-03-30T14:05:16.875Z</time></trkpt><trkpt lat="44.4287959" lon="11.3496501"><ele>109.0</ele><time>2026-03-30T14:05:17.87Z</time></trkpt><trkpt lat="44.4288633" lon="11.3496833"><ele>109.0</ele><time>2026-03-30T14:05:18.879Z</time></trkpt><trkpt lat="44.4289311" lon="11.3497156"><ele>109.0</ele><time>2026-03-30T14:05:19.878Z</time></trkpt><trkpt lat="44.4289997" lon="11.3497471"><ele>109.0</ele><time>2026-03-30T14:05:20.883Z</time></trkpt><trkpt lat="44.4290666" lon="11.3497788"><ele>109.0</ele><time>2026-03-30T14:05:21.881Z</time></trkpt><trkpt lat="44.4291341" lon="11.3498082"><ele>109.0</ele><time>2026-03-30T14:05:22.872Z</time></trkpt><trkpt lat="44.4292011" lon="11.3498387"><ele>109.0</ele><time>2026-03-30T14:05:23.881Z</time></trkpt><trkpt lat="44.4292691" lon="11.349872"><ele>109.0</ele><time>2026-03-30T14:05:24.877Z</time></trkpt><trkpt lat="44.4293353" lon="11.3499044"><ele>109.0</ele><time>2026-03-30T14:05:25.869Z</time></trkpt><trkpt lat="44.4294051" lon="11.3499373"><ele>109.0</ele><time>2026-03-30T14:05:26.874Z</time></trkpt><trkpt lat="44.4294725" lon="11.3499684"><ele>109.0</ele><time>2026-03-30T14:05:27.871Z</time></trkpt><trkpt lat="44.4295407" lon="11.3499996"><ele>109.0</ele><time>2026-03-30T14:05:28.872Z</time></trkpt><trkpt lat="44.4296077" lon="11.3500348"><ele>109.0</ele><time>2026-03-30T14:05:29.873Z</time></trkpt><trkpt lat="44.4296737" lon="11.3500682"><ele>109.0</ele><time>2026-03-30T14:05:30.883Z</time></trkpt><trkpt lat="44.4297384" lon="11.350094"><ele>109.00000000000001</ele><time>2026-03-30T14:05:31.876Z</time></trkpt><trkpt lat="44.4298014" lon="11.3501205"><ele>109.0</ele><time>2026-03-30T14:05:32.88Z</time></trkpt><trkpt lat="44.4298627" lon="11.350148"><ele>109.0</ele><time>2026-03-30T14:05:33.878Z</time></trkpt><trkpt lat="44.4299799" lon="11.3502049"><ele>109.0</ele><time>2026-03-30T14:05:35.87Z</time></trkpt><trkpt lat="44.4300956" lon="11.3502586"><ele>109.00000000000001</ele><time>2026-03-30T14:05:37.879Z</time></trkpt><trkpt lat="44.4301572" lon="11.3502873"><ele>109.0</ele><time>2026-03-30T14:05:38.88Z</time></trkpt><trkpt lat="44.4302179" lon="11.3503145"><ele>109.0</ele><time>2026-03-30T14:05:39.872Z</time></trkpt><trkpt lat="44.4303378" lon="11.3503698"><ele>109.0</ele><time>2026-03-30T14:05:41.883Z</time></trkpt><trkpt lat="44.4304514" lon="11.3504185"><ele>109.0</ele><time>2026-03-30T14:05:43.864Z</time></trkpt><trkpt lat="44.430553" lon="11.3504605"><ele>109.0</ele><time>2026-03-30T14:05:45.88Z</time></trkpt><trkpt lat="44.4306434" lon="11.3504801"><ele>109.0</ele><time>2026-03-30T14:05:47.879Z</time></trkpt><trkpt lat="44.4307413" lon="11.3505123"><ele>109.0</ele><time>2026-03-30T14:05:49.877Z</time></trkpt><trkpt lat="44.4308552" lon="11.3505599"><ele>109.0</ele><time>2026-03-30T14:05:51.878Z</time></trkpt><trkpt lat="44.4309701" lon="11.3506057"><ele>109.0</ele><time>2026-03-30T14:05:53.876Z</time></trkpt><trkpt lat="44.4310861" lon="11.3506566"><ele>109.0</ele><time>2026-03-30T14:05:55.871Z</time></trkpt><trkpt lat="44.4312002" lon="11.3507053"><ele>109.50000000000001</ele><time>2026-03-30T14:05:57.869Z</time></trkpt><trkpt lat="44.4313211" lon="11.350746"><ele>110.0</ele><time>2026-03-30T14:05:59.871Z</time></trkpt><trkpt lat="44.4313845" lon="11.3507655"><ele>110.5</ele><time>2026-03-30T14:06:00.867Z</time></trkpt><trkpt lat="44.431502" lon="11.3508087"><ele>111.0</ele><time>2026-03-30T14:06:02.881Z</time></trkpt><trkpt lat="44.4315652" lon="11.3508287"><ele>111.50000000000001</ele><time>2026-03-30T14:06:03.871Z</time></trkpt><trkpt lat="44.4316272" lon="11.3508485"><ele>112.0</ele><time>2026-03-30T14:06:04.874Z</time></trkpt><trkpt lat="44.4316879" lon="11.3508769"><ele>112.00000000000001</ele><time>2026-03-30T14:06:05.876Z</time></trkpt><trkpt lat="44.4317505" lon="11.3509037"><ele>112.0</ele><time>2026-03-30T14:06:06.876Z</time></trkpt><trkpt lat="44.4318134" lon="11.3509333"><ele>112.0</ele><time>2026-03-30T14:06:07.878Z</time></trkpt><trkpt lat="44.4319296" lon="11.3509858"><ele>112.0</ele><time>2026-03-30T14:06:09.876Z</time></trkpt><trkpt lat="44.4319927" lon="11.3510109"><ele>112.00000000000001</ele><time>2026-03-30T14:06:10.878Z</time></trkpt><trkpt lat="44.4321126" lon="11.351066"><ele>112.0</ele><time>2026-03-30T14:06:12.874Z</time></trkpt><trkpt lat="44.4321751" lon="11.3510943"><ele>113.33333333333334</ele><time>2026-03-30T14:06:13.879Z</time></trkpt><trkpt lat="44.4322383" lon="11.3511261"><ele>114.66666666666667</ele><time>2026-03-30T14:06:14.879Z</time></trkpt><trkpt lat="44.4323601" lon="11.3511797"><ele>116.0</ele><time>2026-03-30T14:06:16.88Z</time></trkpt><trkpt lat="44.4324206" lon="11.3512089"><ele>117.33333333333334</ele><time>2026-03-30T14:06:17.883Z</time></trkpt><trkpt lat="44.4324805" lon="11.3512403"><ele>118.66666666666667</ele><time>2026-03-30T14:06:18.872Z</time></trkpt><trkpt lat="44.4325416" lon="11.3512712"><ele>120.0</ele><time>2026-03-30T14:06:19.871Z</time></trkpt><trkpt lat="44.4326028" lon="11.3513024"><ele>120.0</ele><time>2026-03-30T14:06:20.879Z</time></trkpt><trkpt lat="44.4326675" lon="11.3513383"><ele>120.0</ele><time>2026-03-30T14:06:21.884Z</time></trkpt><trkpt lat="44.4327303" lon="11.3513657"><ele>120.0</ele><time>2026-03-30T14:06:22.872Z</time></trkpt><trkpt lat="44.4328483" lon="11.35142"><ele>120.0</ele><time>2026-03-30T14:06:24.872Z</time></trkpt><trkpt lat="44.4329648" lon="11.3514656"><ele>120.0</ele><time>2026-03-30T14:06:26.876Z</time></trkpt><trkpt lat="44.4330267" lon="11.3514856"><ele>120.0</ele><time>2026-03-30T14:06:27.873Z</time></trkpt><trkpt lat="44.4331508" lon="11.351522"><ele>117.83333333333333</ele><time>2026-03-30T14:06:29.874Z</time></trkpt><trkpt lat="44.4332759" lon="11.351552"><ele>115.66666666666666</ele><time>2026-03-30T14:06:31.874Z</time></trkpt><trkpt lat="44.4333409" lon="11.3515636"><ele>113.5</ele><time>2026-03-30T14:06:32.879Z</time></trkpt><trkpt lat="44.4334055" lon="11.3515726"><ele>111.33333333333333</ele><time>2026-03-30T14:06:33.876Z</time></trkpt><trkpt lat="44.4334702" lon="11.3515834"><ele>109.16666666666666</ele><time>2026-03-30T14:06:34.875Z</time></trkpt><trkpt lat="44.4335334" lon="11.3515915"><ele>107.0</ele><time>2026-03-30T14:06:35.873Z</time></trkpt><trkpt lat="44.4335978" lon="11.3516"><ele>106.99999999999999</ele><time>2026-03-30T14:06:36.869Z</time></trkpt><trkpt lat="44.4336637" lon="11.3516071"><ele>107.0</ele><time>2026-03-30T14:06:37.873Z</time></trkpt><trkpt lat="44.4337276" lon="11.3516161"><ele>107.0</ele><time>2026-03-30T14:06:38.873Z</time></trkpt><trkpt lat="44.4338493" lon="11.3516286"><ele>107.0</ele><time>2026-03-30T14:06:40.88Z</time></trkpt><trkpt lat="44.4339125" lon="11.351636"><ele>106.99999999999999</ele><time>2026-03-30T14:06:41.871Z</time></trkpt><trkpt lat="44.4340431" lon="11.3516516"><ele>107.0</ele><time>2026-03-30T14:06:43.88Z</time></trkpt><trkpt lat="44.43411" lon="11.3516529"><ele>106.83333333333333</ele><time>2026-03-30T14:06:44.875Z</time></trkpt><trkpt lat="44.434181" lon="11.351656"><ele>106.66666666666666</ele><time>2026-03-30T14:06:45.875Z</time></trkpt><trkpt lat="44.4342786" lon="11.3516676"><ele>106.5</ele><time>2026-03-30T14:06:47.875Z</time></trkpt><trkpt lat="44.4343432" lon="11.3516781"><ele>106.33333333333334</ele><time>2026-03-30T14:06:48.884Z</time></trkpt><trkpt lat="44.4344585" lon="11.351687"><ele>106.16666666666667</ele><time>2026-03-30T14:06:50.873Z</time></trkpt><trkpt lat="44.4345271" lon="11.3516938"><ele>106.0</ele><time>2026-03-30T14:06:51.871Z</time></trkpt><trkpt lat="44.4346083" lon="11.3516986"><ele>106.19999999999999</ele><time>2026-03-30T14:06:53.887Z</time></trkpt><trkpt lat="44.4347102" lon="11.3517042"><ele>106.39999999999999</ele><time>2026-03-30T14:06:55.871Z</time></trkpt><trkpt lat="44.4348202" lon="11.3517119"><ele>106.6</ele><time>2026-03-30T14:06:57.88Z</time></trkpt><trkpt lat="44.4349142" lon="11.3517201"><ele>106.8</ele><time>2026-03-30T14:06:59.873Z</time></trkpt><trkpt lat="44.435014" lon="11.3517258"><ele>107.0</ele><time>2026-03-30T14:07:01.88Z</time></trkpt><trkpt lat="44.4351235" lon="11.3517348"><ele>107.0</ele><time>2026-03-30T14:07:03.884Z</time></trkpt><trkpt lat="44.43523" lon="11.351745"><ele>106.99999999999999</ele><time>2026-03-30T14:07:05.876Z</time></trkpt><trkpt lat="44.4353359" lon="11.3517533"><ele>106.99999999999999</ele><time>2026-03-30T14:07:07.876Z</time></trkpt><trkpt lat="44.435443" lon="11.3517664"><ele>107.0</ele><time>2026-03-30T14:07:09.872Z</time></trkpt><trkpt lat="44.4355529" lon="11.3517796"><ele>107.0</ele><time>2026-03-30T14:07:11.873Z</time></trkpt><trkpt lat="44.4356647" lon="11.3517941"><ele>106.8</ele><time>2026-03-30T14:07:13.876Z</time></trkpt><trkpt lat="44.4357759" lon="11.3518089"><ele>106.6</ele><time>2026-03-30T14:07:15.887Z</time></trkpt><trkpt lat="44.4358869" lon="11.3518189"><ele>106.39999999999999</ele><time>2026-03-30T14:07:17.873Z</time></trkpt><trkpt lat="44.4359973" lon="11.3518295"><ele>106.19999999999999</ele><time>2026-03-30T14:07:19.876Z</time></trkpt><trkpt lat="44.4361069" lon="11.3518442"><ele>106.0</ele><time>2026-03-30T14:07:21.878Z</time></trkpt><trkpt lat="44.4362199" lon="11.3518536"><ele>105.19999999999999</ele><time>2026-03-30T14:07:23.881Z</time></trkpt><trkpt lat="44.4363327" lon="11.3518683"><ele>104.39999999999999</ele><time>2026-03-30T14:07:25.879Z</time></trkpt><trkpt lat="44.4364496" lon="11.3518857"><ele>103.6</ele><time>2026-03-30T14:07:27.875Z</time></trkpt><trkpt lat="44.4365579" lon="11.3518987"><ele>102.8</ele><time>2026-03-30T14:07:29.88Z</time></trkpt><trkpt lat="44.4366622" lon="11.3519048"><ele>102.0</ele><time>2026-03-30T14:07:31.873Z</time></trkpt><trkpt lat="44.4367774" lon="11.3519158"><ele>102.0</ele><time>2026-03-30T14:07:33.878Z</time></trkpt><trkpt lat="44.4368411" lon="11.3519219"><ele>102.0</ele><time>2026-03-30T14:07:34.874Z</time></trkpt><trkpt lat="44.4369697" lon="11.3519425"><ele>102.0</ele><time>2026-03-30T14:07:36.877Z</time></trkpt><trkpt lat="44.4370349" lon="11.3519511"><ele>102.0</ele><time>2026-03-30T14:07:37.875Z</time></trkpt><trkpt lat="44.4371018" lon="11.3519596"><ele>102.0</ele><time>2026-03-30T14:07:38.866Z</time></trkpt><trkpt lat="44.4372265" lon="11.3519744"><ele>101.25</ele><time>2026-03-30T14:07:40.883Z</time></trkpt><trkpt lat="44.4373435" lon="11.3519855"><ele>100.5</ele><time>2026-03-30T14:07:42.87Z</time></trkpt><trkpt lat="44.4374586" lon="11.3519978"><ele>99.75</ele><time>2026-03-30T14:07:44.867Z</time></trkpt><trkpt lat="44.4375758" lon="11.3520103"><ele>99.0</ele><time>2026-03-30T14:07:46.881Z</time></trkpt><trkpt lat="44.4377061" lon="11.3520294"><ele>99.0</ele><time>2026-03-30T14:07:48.876Z</time></trkpt><trkpt lat="44.4377777" lon="11.352048"><ele>99.0</ele><time>2026-03-30T14:07:49.878Z</time></trkpt><trkpt lat="44.4378404" lon="11.3520616"><ele>99.0</ele><time>2026-03-30T14:07:50.874Z</time></trkpt><trkpt lat="44.4379655" lon="11.3520714"><ele>99.0</ele><time>2026-03-30T14:07:52.882Z</time></trkpt><trkpt lat="44.4380909" lon="11.3520733"><ele>99.0</ele><time>2026-03-30T14:07:54.875Z</time></trkpt><trkpt lat="44.438218" lon="11.3520682"><ele>99.0</ele><time>2026-03-30T14:07:56.873Z</time></trkpt><trkpt lat="44.438281" lon="11.3520653"><ele>99.0</ele><time>2026-03-30T14:07:57.867Z</time></trkpt><trkpt lat="44.4384033" lon="11.3520714"><ele>99.0</ele><time>2026-03-30T14:07:59.881Z</time></trkpt><trkpt lat="44.4385206" lon="11.3520789"><ele>99.0</ele><time>2026-03-30T14:08:01.878Z</time></trkpt><trkpt lat="44.43864" lon="11.3520822"><ele>99.0</ele><time>2026-03-30T14:08:03.881Z</time></trkpt><trkpt lat="44.4387053" lon="11.3520793"><ele>99.0</ele><time>2026-03-30T14:08:04.884Z</time></trkpt><trkpt lat="44.438771" lon="11.3520769"><ele>99.0</ele><time>2026-03-30T14:08:05.872Z</time></trkpt><trkpt lat="44.438899" lon="11.3520685"><ele>99.0</ele><time>2026-03-30T14:08:07.875Z</time></trkpt><trkpt lat="44.4389631" lon="11.3520636"><ele>99.0</ele><time>2026-03-30T14:08:08.874Z</time></trkpt><trkpt lat="44.4390863" lon="11.3520599"><ele>99.0</ele><time>2026-03-30T14:08:10.873Z</time></trkpt><trkpt lat="44.4392001" lon="11.3520577"><ele>99.6</ele><time>2026-03-30T14:08:12.883Z</time></trkpt><trkpt lat="44.4393105" lon="11.3520496"><ele>100.2</ele><time>2026-03-30T14:08:14.877Z</time></trkpt><trkpt lat="44.4394107" lon="11.3520404"><ele>100.8</ele><time>2026-03-30T14:08:16.876Z</time></trkpt><trkpt lat="44.4395148" lon="11.3520504"><ele>101.39999999999999</ele><time>2026-03-30T14:08:18.872Z</time></trkpt><trkpt lat="44.4396157" lon="11.3520803"><ele>102.0</ele><time>2026-03-30T14:08:20.875Z</time></trkpt><trkpt lat="44.4397089" lon="11.3521456"><ele>102.0</ele><time>2026-03-30T14:08:22.892Z</time></trkpt><trkpt lat="44.4398124" lon="11.3522216"><ele>102.0</ele><time>2026-03-30T14:08:24.879Z</time></trkpt><trkpt lat="44.4398788" lon="11.3522369"><ele>102.0</ele><time>2026-03-30T14:08:25.885Z</time></trkpt><trkpt lat="44.439999" lon="11.352194"><ele>102.0</ele><time>2026-03-30T14:08:27.879Z</time></trkpt><trkpt lat="44.4400584" lon="11.3521553"><ele>102.0</ele><time>2026-03-30T14:08:28.881Z</time></trkpt><trkpt lat="44.4401691" lon="11.3521225"><ele>102.0</ele><time>2026-03-30T14:08:30.875Z</time></trkpt><trkpt lat="44.4402939" lon="11.3521291"><ele>102.0</ele><time>2026-03-30T14:08:32.869Z</time></trkpt><trkpt lat="44.4404198" lon="11.3521297"><ele>102.0</ele><time>2026-03-30T14:08:34.87Z</time></trkpt><trkpt lat="44.4404844" lon="11.352128"><ele>102.0</ele><time>2026-03-30T14:08:35.875Z</time></trkpt><trkpt lat="44.4405483" lon="11.3521201"><ele>102.0</ele><time>2026-03-30T14:08:36.877Z</time></trkpt><trkpt lat="44.4406112" lon="11.352111"><ele>102.0</ele><time>2026-03-30T14:08:37.877Z</time></trkpt><trkpt lat="44.4406756" lon="11.3520995"><ele>101.71428571428572</ele><time>2026-03-30T14:08:38.874Z</time></trkpt><trkpt lat="44.4407384" lon="11.3520867"><ele>101.42857142857143</ele><time>2026-03-30T14:08:39.877Z</time></trkpt><trkpt lat="44.4408536" lon="11.3520536"><ele>101.14285714285714</ele><time>2026-03-30T14:08:41.884Z</time></trkpt><trkpt lat="44.4409151" lon="11.3520339"><ele>100.85714285714286</ele><time>2026-03-30T14:08:42.871Z</time></trkpt><trkpt lat="44.4409806" lon="11.3520118"><ele>100.57142857142857</ele><time>2026-03-30T14:08:43.872Z</time></trkpt><trkpt lat="44.4410431" lon="11.3519857"><ele>100.28571428571429</ele><time>2026-03-30T14:08:44.876Z</time></trkpt><trkpt lat="44.4411055" lon="11.3519572"><ele>100.0</ele><time>2026-03-30T14:08:45.877Z</time></trkpt><trkpt lat="44.4411668" lon="11.3519291"><ele>100.0</ele><time>2026-03-30T14:08:46.879Z</time></trkpt><trkpt lat="44.4412799" lon="11.3518696"><ele>100.0</ele><time>2026-03-30T14:08:48.879Z</time></trkpt><trkpt lat="44.4413421" lon="11.3518395"><ele>100.0</ele><time>2026-03-30T14:08:49.877Z</time></trkpt><trkpt lat="44.4414613" lon="11.3517819"><ele>100.0</ele><time>2026-03-30T14:08:51.886Z</time></trkpt><trkpt lat="44.4415804" lon="11.3517309"><ele>100.0</ele><time>2026-03-30T14:08:53.88Z</time></trkpt><trkpt lat="44.4416438" lon="11.3517116"><ele>100.16666666666667</ele><time>2026-03-30T14:08:54.876Z</time></trkpt><trkpt lat="44.441772" lon="11.3516885"><ele>100.33333333333334</ele><time>2026-03-30T14:08:56.878Z</time></trkpt><trkpt lat="44.44184" lon="11.3516798"><ele>100.5</ele><time>2026-03-30T14:08:57.873Z</time></trkpt><trkpt lat="44.4419058" lon="11.3516766"><ele>100.66666666666666</ele><time>2026-03-30T14:08:58.882Z</time></trkpt><trkpt lat="44.4419753" lon="11.3516742"><ele>100.83333333333333</ele><time>2026-03-30T14:08:59.872Z</time></trkpt><trkpt lat="44.4420431" lon="11.3516741"><ele>101.0</ele><time>2026-03-30T14:09:00.879Z</time></trkpt><trkpt lat="44.4421101" lon="11.3516798"><ele>100.0</ele><time>2026-03-30T14:09:01.876Z</time></trkpt><trkpt lat="44.4421734" lon="11.3516915"><ele>99.0</ele><time>2026-03-30T14:09:02.88Z</time></trkpt><trkpt lat="44.4422362" lon="11.3517083"><ele>98.0</ele><time>2026-03-30T14:09:03.885Z</time></trkpt><trkpt lat="44.4423532" lon="11.3517578"><ele>97.0</ele><time>2026-03-30T14:09:05.884Z</time></trkpt><trkpt lat="44.442468" lon="11.3518237"><ele>96.0</ele><time>2026-03-30T14:09:07.878Z</time></trkpt><trkpt lat="44.4425769" lon="11.3518986"><ele>96.0</ele><time>2026-03-30T14:09:09.874Z</time></trkpt><trkpt lat="44.442681" lon="11.3519874"><ele>96.0</ele><time>2026-03-30T14:09:11.881Z</time></trkpt><trkpt lat="44.442777" lon="11.3520866"><ele>96.0</ele><time>2026-03-30T14:09:13.875Z</time></trkpt><trkpt lat="44.442867" lon="11.3521956"><ele>96.0</ele><time>2026-03-30T14:09:15.877Z</time></trkpt><trkpt lat="44.4429521" lon="11.3523164"><ele>96.66666666666667</ele><time>2026-03-30T14:09:17.873Z</time></trkpt><trkpt lat="44.4429965" lon="11.3523834"><ele>97.33333333333334</ele><time>2026-03-30T14:09:18.872Z</time></trkpt><trkpt lat="44.4430685" lon="11.3525197"><ele>98.0</ele><time>2026-03-30T14:09:20.878Z</time></trkpt><trkpt lat="44.4431322" lon="11.3526543"><ele>98.66666666666667</ele><time>2026-03-30T14:09:22.872Z</time></trkpt><trkpt lat="44.4431696" lon="11.3527284"><ele>99.33333333333334</ele><time>2026-03-30T14:09:23.884Z</time></trkpt><trkpt lat="44.4432067" lon="11.352814"><ele>100.0</ele><time>2026-03-30T14:09:24.881Z</time></trkpt><trkpt lat="44.4432407" lon="11.3529013"><ele>100.25</ele><time>2026-03-30T14:09:25.875Z</time></trkpt><trkpt lat="44.4432932" lon="11.3530537"><ele>100.5</ele><time>2026-03-30T14:09:27.873Z</time></trkpt><trkpt lat="44.4433408" lon="11.3531966"><ele>100.75</ele><time>2026-03-30T14:09:29.881Z</time></trkpt><trkpt lat="44.4433982" lon="11.3533277"><ele>101.0</ele><time>2026-03-30T14:09:31.874Z</time></trkpt><trkpt lat="44.4434606" lon="11.3534537"><ele>101.0</ele><time>2026-03-30T14:09:33.881Z</time></trkpt><trkpt lat="44.4435253" lon="11.3535703"><ele>101.0</ele><time>2026-03-30T14:09:35.878Z</time></trkpt><trkpt lat="44.443592" lon="11.3536708"><ele>101.0</ele><time>2026-03-30T14:09:37.883Z</time></trkpt><trkpt lat="44.4436613" lon="11.3537521"><ele>101.0</ele><time>2026-03-30T14:09:39.868Z</time></trkpt><trkpt lat="44.4437369" lon="11.3538326"><ele>101.0</ele><time>2026-03-30T14:09:41.881Z</time></trkpt><trkpt lat="44.4438199" lon="11.3539204"><ele>101.25</ele><time>2026-03-30T14:09:43.883Z</time></trkpt><trkpt lat="44.4438987" lon="11.3540401"><ele>101.5</ele><time>2026-03-30T14:09:45.876Z</time></trkpt><trkpt lat="44.4439513" lon="11.3541847"><ele>101.75</ele><time>2026-03-30T14:09:47.879Z</time></trkpt><trkpt lat="44.4440232" lon="11.3542989"><ele>102.0</ele><time>2026-03-30T14:09:49.871Z</time></trkpt><trkpt lat="44.4441391" lon="11.3543437"><ele>102.0</ele><time>2026-03-30T14:09:51.87Z</time></trkpt><trkpt lat="44.4442499" lon="11.3543617"><ele>102.0</ele><time>2026-03-30T14:09:53.863Z</time></trkpt><trkpt lat="44.4443537" lon="11.3544456"><ele>102.0</ele><time>2026-03-30T14:09:55.876Z</time></trkpt><trkpt lat="44.4444449" lon="11.3545508"><ele>102.0</ele><time>2026-03-30T14:09:57.863Z</time></trkpt><trkpt lat="44.4445299" lon="11.3546722"><ele>101.75</ele><time>2026-03-30T14:09:59.873Z</time></trkpt><trkpt lat="44.4446074" lon="11.3547958"><ele>101.5</ele><time>2026-03-30T14:10:01.877Z</time></trkpt><trkpt lat="44.4446817" lon="11.3549255"><ele>101.25</ele><time>2026-03-30T14:10:03.879Z</time></trkpt><trkpt lat="44.4447531" lon="11.3550642"><ele>101.0</ele><time>2026-03-30T14:10:05.883Z</time></trkpt><trkpt lat="44.4448152" lon="11.3552038"><ele>101.0</ele><time>2026-03-30T14:10:07.874Z</time></trkpt><trkpt lat="44.4448734" lon="11.3553446"><ele>101.0</ele><time>2026-03-30T14:10:09.863Z</time></trkpt><trkpt lat="44.4449258" lon="11.3554979"><ele>101.0</ele><time>2026-03-30T14:10:11.874Z</time></trkpt><trkpt lat="44.4449747" lon="11.3556569"><ele>101.0</ele><time>2026-03-30T14:10:13.889Z</time></trkpt><trkpt lat="44.4450181" lon="11.3558092"><ele>101.0</ele><time>2026-03-30T14:10:15.879Z</time></trkpt><trkpt lat="44.4450569" lon="11.3559565"><ele>101.0</ele><time>2026-03-30T14:10:17.876Z</time></trkpt><trkpt lat="44.4450972" lon="11.3560981"><ele>101.0</ele><time>2026-03-30T14:10:19.881Z</time></trkpt><trkpt lat="44.4451286" lon="11.3562382"><ele>101.0</ele><time>2026-03-30T14:10:21.871Z</time></trkpt><trkpt lat="44.4451659" lon="11.3563797"><ele>101.0</ele><time>2026-03-30T14:10:23.882Z</time></trkpt><trkpt lat="44.4452066" lon="11.3565195"><ele>100.6</ele><time>2026-03-30T14:10:25.877Z</time></trkpt><trkpt lat="44.4452477" lon="11.3566571"><ele>100.19999999999999</ele><time>2026-03-30T14:10:27.871Z</time></trkpt><trkpt lat="44.4452904" lon="11.3567925"><ele>99.80000000000001</ele><time>2026-03-30T14:10:29.873Z</time></trkpt><trkpt lat="44.4453381" lon="11.3569226"><ele>99.4</ele><time>2026-03-30T14:10:31.872Z</time></trkpt><trkpt lat="44.4453898" lon="11.3570564"><ele>99.0</ele><time>2026-03-30T14:10:33.874Z</time></trkpt><trkpt lat="44.445442" lon="11.3571895"><ele>98.0</ele><time>2026-03-30T14:10:35.879Z</time></trkpt><trkpt lat="44.4454964" lon="11.3573221"><ele>97.0</ele><time>2026-03-30T14:10:37.871Z</time></trkpt><trkpt lat="44.4455539" lon="11.3574519"><ele>96.0</ele><time>2026-03-30T14:10:39.875Z</time></trkpt><trkpt lat="44.4456129" lon="11.3575785"><ele>95.0</ele><time>2026-03-30T14:10:41.873Z</time></trkpt><trkpt lat="44.4456707" lon="11.3577053"><ele>94.0</ele><time>2026-03-30T14:10:43.87Z</time></trkpt><trkpt lat="44.4457307" lon="11.3578304"><ele>94.0</ele><time>2026-03-30T14:10:45.871Z</time></trkpt><trkpt lat="44.4457864" lon="11.3579529"><ele>94.0</ele><time>2026-03-30T14:10:47.88Z</time></trkpt><trkpt lat="44.4458462" lon="11.3580777"><ele>94.0</ele><time>2026-03-30T14:10:49.875Z</time></trkpt><trkpt lat="44.4459055" lon="11.3582023"><ele>94.0</ele><time>2026-03-30T14:10:51.867Z</time></trkpt><trkpt lat="44.4459626" lon="11.358327"><ele>94.0</ele><time>2026-03-30T14:10:53.873Z</time></trkpt><trkpt lat="44.4460204" lon="11.3584516"><ele>94.6</ele><time>2026-03-30T14:10:55.871Z</time></trkpt><trkpt lat="44.446081" lon="11.3585772"><ele>95.2</ele><time>2026-03-30T14:10:57.87Z</time></trkpt><trkpt lat="44.4461453" lon="11.3587012"><ele>95.8</ele><time>2026-03-30T14:10:59.878Z</time></trkpt><trkpt lat="44.4462047" lon="11.358825"><ele>96.39999999999999</ele><time>2026-03-30T14:11:01.873Z</time></trkpt><trkpt lat="44.4462611" lon="11.3589482"><ele>97.0</ele><time>2026-03-30T14:11:03.876Z</time></trkpt><trkpt lat="44.4463172" lon="11.3590683"><ele>98.6</ele><time>2026-03-30T14:11:05.87Z</time></trkpt><trkpt lat="44.4463745" lon="11.3591889"><ele>100.19999999999999</ele><time>2026-03-30T14:11:07.876Z</time></trkpt><trkpt lat="44.4464309" lon="11.3593094"><ele>101.8</ele><time>2026-03-30T14:11:09.872Z</time></trkpt><trkpt lat="44.4464881" lon="11.3594305"><ele>103.4</ele><time>2026-03-30T14:11:11.866Z</time></trkpt><trkpt lat="44.4465455" lon="11.3595504"><ele>105.0</ele><time>2026-03-30T14:11:13.878Z</time></trkpt><trkpt lat="44.4466027" lon="11.359673"><ele>105.2</ele><time>2026-03-30T14:11:15.873Z</time></trkpt><trkpt lat="44.4466622" lon="11.3597965"><ele>105.4</ele><time>2026-03-30T14:11:17.884Z</time></trkpt><trkpt lat="44.4467212" lon="11.3599199"><ele>105.6</ele><time>2026-03-30T14:11:19.895Z</time></trkpt><trkpt lat="44.4467782" lon="11.360041"><ele>105.8</ele><time>2026-03-30T14:11:21.876Z</time></trkpt><trkpt lat="44.4468293" lon="11.3601649"><ele>106.0</ele><time>2026-03-30T14:11:23.878Z</time></trkpt><trkpt lat="44.4468881" lon="11.3602896"><ele>106.0</ele><time>2026-03-30T14:11:25.871Z</time></trkpt><trkpt lat="44.4469438" lon="11.3604149"><ele>106.0</ele><time>2026-03-30T14:11:27.869Z</time></trkpt><trkpt lat="44.4470007" lon="11.3605372"><ele>106.0</ele><time>2026-03-30T14:11:29.874Z</time></trkpt><trkpt lat="44.4470556" lon="11.3606602"><ele>106.0</ele><time>2026-03-30T14:11:31.873Z</time></trkpt><trkpt lat="44.447114" lon="11.360783"><ele>106.0</ele><time>2026-03-30T14:11:33.886Z</time></trkpt><trkpt lat="44.4471725" lon="11.3609054"><ele>106.0</ele><time>2026-03-30T14:11:35.863Z</time></trkpt><trkpt lat="44.447232" lon="11.3610305"><ele>106.0</ele><time>2026-03-30T14:11:37.861Z</time></trkpt><trkpt lat="44.4472906" lon="11.3611544"><ele>106.0</ele><time>2026-03-30T14:11:39.878Z</time></trkpt><trkpt lat="44.4473498" lon="11.3612807"><ele>106.0</ele><time>2026-03-30T14:11:41.866Z</time></trkpt><trkpt lat="44.4474084" lon="11.3614049"><ele>106.0</ele><time>2026-03-30T14:11:43.871Z</time></trkpt><trkpt lat="44.4474657" lon="11.3615283"><ele>106.4</ele><time>2026-03-30T14:11:45.869Z</time></trkpt><trkpt lat="44.4475253" lon="11.3616536"><ele>106.8</ele><time>2026-03-30T14:11:47.872Z</time></trkpt><trkpt lat="44.4475856" lon="11.3617802"><ele>107.20000000000002</ele><time>2026-03-30T14:11:49.879Z</time></trkpt><trkpt lat="44.447645" lon="11.3619063"><ele>107.60000000000001</ele><time>2026-03-30T14:11:51.88Z</time></trkpt><trkpt lat="44.4477065" lon="11.3620357"><ele>108.0</ele><time>2026-03-30T14:11:53.876Z</time></trkpt><trkpt lat="44.4477664" lon="11.3621594"><ele>108.2</ele><time>2026-03-30T14:11:55.87Z</time></trkpt><trkpt lat="44.4478246" lon="11.3622843"><ele>108.4</ele><time>2026-03-30T14:11:57.877Z</time></trkpt><trkpt lat="44.4478766" lon="11.3624159"><ele>108.60000000000001</ele><time>2026-03-30T14:11:59.869Z</time></trkpt><trkpt lat="44.4478845" lon="11.3625675"><ele>108.80000000000001</ele><time>2026-03-30T14:12:01.874Z</time></trkpt><trkpt lat="44.4478762" lon="11.3627216"><ele>109.0</ele><time>2026-03-30T14:12:03.862Z</time></trkpt><trkpt lat="44.4479028" lon="11.3628714"><ele>108.2</ele><time>2026-03-30T14:12:05.882Z</time></trkpt><trkpt lat="44.4479732" lon="11.3629915"><ele>107.4</ele><time>2026-03-30T14:12:07.878Z</time></trkpt><trkpt lat="44.4480701" lon="11.3630446"><ele>106.6</ele><time>2026-03-30T14:12:09.875Z</time></trkpt><trkpt lat="44.4481695" lon="11.3630399"><ele>105.8</ele><time>2026-03-30T14:12:11.881Z</time></trkpt><trkpt lat="44.4482738" lon="11.3630706"><ele>105.0</ele><time>2026-03-30T14:12:13.873Z</time></trkpt><trkpt lat="44.4483731" lon="11.3631574"><ele>105.0</ele><time>2026-03-30T14:12:15.869Z</time></trkpt><trkpt lat="44.448473" lon="11.3632624"><ele>105.0</ele><time>2026-03-30T14:12:17.883Z</time></trkpt><trkpt lat="44.4485707" lon="11.3633721"><ele>105.0</ele><time>2026-03-30T14:12:19.874Z</time></trkpt><trkpt lat="44.4486202" lon="11.3634267"><ele>105.0</ele><time>2026-03-30T14:12:20.87Z</time></trkpt><trkpt lat="44.4487201" lon="11.3635318"><ele>105.0</ele><time>2026-03-30T14:12:22.869Z</time></trkpt><trkpt lat="44.4487702" lon="11.363586"><ele>104.57142857142857</ele><time>2026-03-30T14:12:23.873Z</time></trkpt><trkpt lat="44.4488215" lon="11.363639"><ele>104.14285714285714</ele><time>2026-03-30T14:12:24.886Z</time></trkpt><trkpt lat="44.4488713" lon="11.3636934"><ele>103.71428571428572</ele><time>2026-03-30T14:12:25.878Z</time></trkpt><trkpt lat="44.4489225" lon="11.3637484"><ele>103.28571428571428</ele><time>2026-03-30T14:12:26.875Z</time></trkpt><trkpt lat="44.4489735" lon="11.3638029"><ele>102.85714285714286</ele><time>2026-03-30T14:12:27.884Z</time></trkpt><trkpt lat="44.4490258" lon="11.363859"><ele>102.42857142857143</ele><time>2026-03-30T14:12:28.895Z</time></trkpt><trkpt lat="44.4490769" lon="11.3639157"><ele>102.0</ele><time>2026-03-30T14:12:29.881Z</time></trkpt><trkpt lat="44.4491689" lon="11.3640048"><ele>102.0</ele><time>2026-03-30T14:12:31.87Z</time></trkpt><trkpt lat="44.4492608" lon="11.364093"><ele>102.0</ele><time>2026-03-30T14:12:33.866Z</time></trkpt><trkpt lat="44.4493537" lon="11.3641855"><ele>102.0</ele><time>2026-03-30T14:12:35.865Z</time></trkpt><trkpt lat="44.4494454" lon="11.3642771"><ele>102.0</ele><time>2026-03-30T14:12:37.888Z</time></trkpt><trkpt lat="44.4495347" lon="11.3643567"><ele>102.0</ele><time>2026-03-30T14:12:39.877Z</time></trkpt><trkpt lat="44.4496258" lon="11.3644498"><ele>102.0</ele><time>2026-03-30T14:12:41.874Z</time></trkpt><trkpt lat="44.4497218" lon="11.3645473"><ele>102.0</ele><time>2026-03-30T14:12:43.881Z</time></trkpt><trkpt lat="44.4498204" lon="11.3646421"><ele>102.0</ele><time>2026-03-30T14:12:45.872Z</time></trkpt><trkpt lat="44.4499205" lon="11.3647424"><ele>102.0</ele><time>2026-03-30T14:12:47.879Z</time></trkpt><trkpt lat="44.4500199" lon="11.3648443"><ele>101.71428571428572</ele><time>2026-03-30T14:12:49.889Z</time></trkpt><trkpt lat="44.4500712" lon="11.3648987"><ele>101.42857142857143</ele><time>2026-03-30T14:12:50.873Z</time></trkpt><trkpt lat="44.4501229" lon="11.364956"><ele>101.14285714285714</ele><time>2026-03-30T14:12:51.882Z</time></trkpt><trkpt lat="44.4501749" lon="11.3650157"><ele>100.85714285714286</ele><time>2026-03-30T14:12:52.878Z</time></trkpt><trkpt lat="44.4502295" lon="11.3650768"><ele>100.57142857142857</ele><time>2026-03-30T14:12:53.885Z</time></trkpt><trkpt lat="44.4502859" lon="11.3651387"><ele>100.28571428571429</ele><time>2026-03-30T14:12:54.882Z</time></trkpt><trkpt lat="44.4503414" lon="11.3652055"><ele>100.0</ele><time>2026-03-30T14:12:55.883Z</time></trkpt><trkpt lat="44.4503978" lon="11.3652762"><ele>100.00000000000001</ele><time>2026-03-30T14:12:56.874Z</time></trkpt><trkpt lat="44.4504566" lon="11.3653466"><ele>100.0</ele><time>2026-03-30T14:12:57.87Z</time></trkpt><trkpt lat="44.4505152" lon="11.3654205"><ele>100.0</ele><time>2026-03-30T14:12:58.873Z</time></trkpt><trkpt lat="44.4505738" lon="11.3654979"><ele>100.0</ele><time>2026-03-30T14:12:59.867Z</time></trkpt><trkpt lat="44.4506332" lon="11.365577"><ele>100.00000000000001</ele><time>2026-03-30T14:13:00.865Z</time></trkpt><trkpt lat="44.4506906" lon="11.3656587"><ele>100.0</ele><time>2026-03-30T14:13:01.872Z</time></trkpt><trkpt lat="44.4507502" lon="11.3657429"><ele>99.33333333333334</ele><time>2026-03-30T14:13:02.886Z</time></trkpt><trkpt lat="44.4508093" lon="11.3658283"><ele>98.66666666666667</ele><time>2026-03-30T14:13:03.877Z</time></trkpt><trkpt lat="44.4508684" lon="11.3659172"><ele>98.0</ele><time>2026-03-30T14:13:04.877Z</time></trkpt><trkpt lat="44.4509283" lon="11.3660092"><ele>97.33333333333334</ele><time>2026-03-30T14:13:05.876Z</time></trkpt><trkpt lat="44.4509873" lon="11.3661042"><ele>96.66666666666667</ele><time>2026-03-30T14:13:06.88Z</time></trkpt><trkpt lat="44.4510471" lon="11.3661996"><ele>96.0</ele><time>2026-03-30T14:13:07.872Z</time></trkpt><trkpt lat="44.4511066" lon="11.3662975"><ele>95.6</ele><time>2026-03-30T14:13:08.877Z</time></trkpt><trkpt lat="44.4511616" lon="11.366399"><ele>95.19999999999999</ele><time>2026-03-30T14:13:09.877Z</time></trkpt><trkpt lat="44.4512188" lon="11.3665029"><ele>94.80000000000001</ele><time>2026-03-30T14:13:10.878Z</time></trkpt><trkpt lat="44.4512757" lon="11.3666086"><ele>94.4</ele><time>2026-03-30T14:13:11.87Z</time></trkpt><trkpt lat="44.4513322" lon="11.3667138"><ele>94.0</ele><time>2026-03-30T14:13:12.876Z</time></trkpt><trkpt lat="44.4513886" lon="11.3668238"><ele>93.4</ele><time>2026-03-30T14:13:13.874Z</time></trkpt><trkpt lat="44.4514458" lon="11.3669359"><ele>92.80000000000001</ele><time>2026-03-30T14:13:14.879Z</time></trkpt><trkpt lat="44.4515036" lon="11.3670483"><ele>92.19999999999999</ele><time>2026-03-30T14:13:15.87Z</time></trkpt><trkpt lat="44.4515615" lon="11.3671641"><ele>91.6</ele><time>2026-03-30T14:13:16.874Z</time></trkpt><trkpt lat="44.4516202" lon="11.3672792"><ele>91.0</ele><time>2026-03-30T14:13:17.87Z</time></trkpt><trkpt lat="44.4516785" lon="11.3673946"><ele>90.8</ele><time>2026-03-30T14:13:18.872Z</time></trkpt><trkpt lat="44.4517379" lon="11.3675088"><ele>90.6</ele><time>2026-03-30T14:13:19.876Z</time></trkpt><trkpt lat="44.4517967" lon="11.3676244"><ele>90.4</ele><time>2026-03-30T14:13:20.876Z</time></trkpt><trkpt lat="44.4518545" lon="11.3677361"><ele>90.2</ele><time>2026-03-30T14:13:21.867Z</time></trkpt><trkpt lat="44.4519122" lon="11.3678502"><ele>90.0</ele><time>2026-03-30T14:13:22.875Z</time></trkpt><trkpt lat="44.4519714" lon="11.3679667"><ele>89.0</ele><time>2026-03-30T14:13:23.861Z</time></trkpt><trkpt lat="44.4520336" lon="11.3680861"><ele>88.0</ele><time>2026-03-30T14:13:24.874Z</time></trkpt><trkpt lat="44.4520938" lon="11.3682041"><ele>87.0</ele><time>2026-03-30T14:13:25.881Z</time></trkpt><trkpt lat="44.4521536" lon="11.3683216"><ele>86.0</ele><time>2026-03-30T14:13:26.876Z</time></trkpt><trkpt lat="44.4522126" lon="11.3684334"><ele>85.0</ele><time>2026-03-30T14:13:27.866Z</time></trkpt><trkpt lat="44.4522724" lon="11.3685438"><ele>83.8</ele><time>2026-03-30T14:13:28.89Z</time></trkpt><trkpt lat="44.4523297" lon="11.3686535"><ele>82.6</ele><time>2026-03-30T14:13:29.883Z</time></trkpt><trkpt lat="44.4523871" lon="11.3687632"><ele>81.4</ele><time>2026-03-30T14:13:30.874Z</time></trkpt><trkpt lat="44.4524421" lon="11.3688709"><ele>80.2</ele><time>2026-03-30T14:13:31.875Z</time></trkpt><trkpt lat="44.4524976" lon="11.3689773"><ele>79.0</ele><time>2026-03-30T14:13:32.881Z</time></trkpt><trkpt lat="44.4525524" lon="11.3690799"><ele>79.0</ele><time>2026-03-30T14:13:33.868Z</time></trkpt><trkpt lat="44.4526057" lon="11.3691791"><ele>79.0</ele><time>2026-03-30T14:13:34.872Z</time></trkpt><trkpt lat="44.4526528" lon="11.3692711"><ele>79.0</ele><time>2026-03-30T14:13:35.874Z</time></trkpt><trkpt lat="44.4526973" lon="11.3693586"><ele>79.0</ele><time>2026-03-30T14:13:36.875Z</time></trkpt><trkpt lat="44.4527403" lon="11.3694439"><ele>79.0</ele><time>2026-03-30T14:13:37.886Z</time></trkpt><trkpt lat="44.4527785" lon="11.3695315"><ele>79.0</ele><time>2026-03-30T14:13:38.877Z</time></trkpt><trkpt lat="44.4528038" lon="11.3696261"><ele>79.00000000000001</ele><time>2026-03-30T14:13:39.87Z</time></trkpt><trkpt lat="44.4528184" lon="11.369725"><ele>79.0</ele><time>2026-03-30T14:13:40.875Z</time></trkpt><trkpt lat="44.4528228" lon="11.3698252"><ele>79.0</ele><time>2026-03-30T14:13:41.87Z</time></trkpt><trkpt lat="44.452827" lon="11.3699299"><ele>79.0</ele><time>2026-03-30T14:13:42.875Z</time></trkpt><trkpt lat="44.4528523" lon="11.3700196"><ele>79.0</ele><time>2026-03-30T14:13:43.87Z</time></trkpt><trkpt lat="44.4528955" lon="11.3700905"><ele>79.00000000000001</ele><time>2026-03-30T14:13:44.878Z</time></trkpt><trkpt lat="44.4529526" lon="11.3701421"><ele>79.0</ele><time>2026-03-30T14:13:45.881Z</time></trkpt><trkpt lat="44.453017" lon="11.3701738"><ele>79.42857142857143</ele><time>2026-03-30T14:13:46.871Z</time></trkpt><trkpt lat="44.4530841" lon="11.3701907"><ele>79.85714285714286</ele><time>2026-03-30T14:13:47.877Z</time></trkpt><trkpt lat="44.4531494" lon="11.3702234"><ele>80.28571428571428</ele><time>2026-03-30T14:13:48.884Z</time></trkpt><trkpt lat="44.4532081" lon="11.3702807"><ele>80.71428571428572</ele><time>2026-03-30T14:13:49.872Z</time></trkpt><trkpt lat="44.4532597" lon="11.3703509"><ele>81.14285714285714</ele><time>2026-03-30T14:13:50.873Z</time></trkpt><trkpt lat="44.4533099" lon="11.370423"><ele>81.57142857142857</ele><time>2026-03-30T14:13:51.867Z</time></trkpt><trkpt lat="44.4533594" lon="11.3704943"><ele>82.0</ele><time>2026-03-30T14:13:52.871Z</time></trkpt><trkpt lat="44.4534085" lon="11.3705669"><ele>81.99999999999999</ele><time>2026-03-30T14:13:53.877Z</time></trkpt><trkpt lat="44.4534564" lon="11.3706386"><ele>82.0</ele><time>2026-03-30T14:13:54.879Z</time></trkpt><trkpt lat="44.4535057" lon="11.3707121"><ele>82.0</ele><time>2026-03-30T14:13:55.879Z</time></trkpt><trkpt lat="44.4535534" lon="11.3707853"><ele>82.0</ele><time>2026-03-30T14:13:56.879Z</time></trkpt><trkpt lat="44.453603" lon="11.3708562"><ele>82.0</ele><time>2026-03-30T14:13:57.879Z</time></trkpt><trkpt lat="44.4536514" lon="11.3709268"><ele>81.99999999999999</ele><time>2026-03-30T14:13:58.879Z</time></trkpt><trkpt lat="44.4536999" lon="11.3709959"><ele>82.0</ele><time>2026-03-30T14:13:59.883Z</time></trkpt><trkpt lat="44.4537475" lon="11.3710644"><ele>82.0</ele><time>2026-03-30T14:14:00.873Z</time></trkpt><trkpt lat="44.4537955" lon="11.3711333"><ele>82.0</ele><time>2026-03-30T14:14:01.873Z</time></trkpt><trkpt lat="44.4538436" lon="11.3712018"><ele>82.0</ele><time>2026-03-30T14:14:02.88Z</time></trkpt><trkpt lat="44.4538904" lon="11.3712679"><ele>82.0</ele><time>2026-03-30T14:14:03.87Z</time></trkpt><trkpt lat="44.4539809" lon="11.3713891"><ele>82.0</ele><time>2026-03-30T14:14:05.881Z</time></trkpt><trkpt lat="44.4540698" lon="11.371509"><ele>82.0</ele><time>2026-03-30T14:14:07.874Z</time></trkpt><trkpt lat="44.45416" lon="11.3716254"><ele>82.0</ele><time>2026-03-30T14:14:09.874Z</time></trkpt><trkpt lat="44.4542584" lon="11.3717305"><ele>82.0</ele><time>2026-03-30T14:14:11.871Z</time></trkpt><trkpt lat="44.4543593" lon="11.3718303"><ele>82.0</ele><time>2026-03-30T14:14:13.878Z</time></trkpt><trkpt lat="44.4544647" lon="11.371924"><ele>82.0</ele><time>2026-03-30T14:14:15.876Z</time></trkpt><trkpt lat="44.4545688" lon="11.3720135"><ele>82.0</ele><time>2026-03-30T14:14:17.882Z</time></trkpt><trkpt lat="44.4546729" lon="11.372092"><ele>82.0</ele><time>2026-03-30T14:14:19.876Z</time></trkpt><trkpt lat="44.45478" lon="11.3721607"><ele>82.0</ele><time>2026-03-30T14:14:21.871Z</time></trkpt><trkpt lat="44.4548963" lon="11.3722237"><ele>81.39999999999999</ele><time>2026-03-30T14:14:23.879Z</time></trkpt><trkpt lat="44.4550108" lon="11.372282"><ele>80.8</ele><time>2026-03-30T14:14:25.874Z</time></trkpt><trkpt lat="44.4550713" lon="11.3723148"><ele>80.2</ele><time>2026-03-30T14:14:26.876Z</time></trkpt><trkpt lat="44.4551824" lon="11.3723765"><ele>79.6</ele><time>2026-03-30T14:14:28.879Z</time></trkpt><trkpt lat="44.455296" lon="11.3724354"><ele>79.0</ele><time>2026-03-30T14:14:30.885Z</time></trkpt><trkpt lat="44.4554052" lon="11.3724924"><ele>79.5</ele><time>2026-03-30T14:14:32.882Z</time></trkpt><trkpt lat="44.4555179" lon="11.3725541"><ele>80.0</ele><time>2026-03-30T14:14:34.875Z</time></trkpt><trkpt lat="44.4556303" lon="11.3726171"><ele>80.5</ele><time>2026-03-30T14:14:36.877Z</time></trkpt><trkpt lat="44.4557429" lon="11.3726751"><ele>81.0</ele><time>2026-03-30T14:14:38.876Z</time></trkpt><trkpt lat="44.4558531" lon="11.3727368"><ele>81.0</ele><time>2026-03-30T14:14:40.869Z</time></trkpt><trkpt lat="44.4559686" lon="11.3728008"><ele>81.0</ele><time>2026-03-30T14:14:42.873Z</time></trkpt><trkpt lat="44.4560279" lon="11.3728354"><ele>81.0</ele><time>2026-03-30T14:14:43.875Z</time></trkpt><trkpt lat="44.4560895" lon="11.3728707"><ele>81.0</ele><time>2026-03-30T14:14:44.883Z</time></trkpt><trkpt lat="44.4561529" lon="11.3729052"><ele>81.0</ele><time>2026-03-30T14:14:45.866Z</time></trkpt><trkpt lat="44.4562156" lon="11.3729402"><ele>81.0</ele><time>2026-03-30T14:14:46.883Z</time></trkpt><trkpt lat="44.4562796" lon="11.372976"><ele>81.57142857142857</ele><time>2026-03-30T14:14:47.883Z</time></trkpt><trkpt lat="44.4563432" lon="11.3730112"><ele>82.14285714285714</ele><time>2026-03-30T14:14:48.87Z</time></trkpt><trkpt lat="44.4564081" lon="11.373046"><ele>82.71428571428572</ele><time>2026-03-30T14:14:49.881Z</time></trkpt><trkpt lat="44.4564733" lon="11.3730783"><ele>83.28571428571428</ele><time>2026-03-30T14:14:50.874Z</time></trkpt><trkpt lat="44.4565399" lon="11.3731105"><ele>83.85714285714285</ele><time>2026-03-30T14:14:51.868Z</time></trkpt><trkpt lat="44.456607" lon="11.3731404"><ele>84.42857142857143</ele><time>2026-03-30T14:14:52.87Z</time></trkpt><trkpt lat="44.4566742" lon="11.3731694"><ele>85.0</ele><time>2026-03-30T14:14:53.892Z</time></trkpt><trkpt lat="44.4567407" lon="11.373197"><ele>84.14285714285715</ele><time>2026-03-30T14:14:54.881Z</time></trkpt><trkpt lat="44.4568078" lon="11.3732239"><ele>83.28571428571428</ele><time>2026-03-30T14:14:55.875Z</time></trkpt><trkpt lat="44.4568756" lon="11.3732503"><ele>82.42857142857143</ele><time>2026-03-30T14:14:56.877Z</time></trkpt><trkpt lat="44.4569429" lon="11.3732753"><ele>81.57142857142858</ele><time>2026-03-30T14:14:57.873Z</time></trkpt><trkpt lat="44.4570122" lon="11.3733035"><ele>80.71428571428572</ele><time>2026-03-30T14:14:58.873Z</time></trkpt><trkpt lat="44.4570785" lon="11.3733349"><ele>79.85714285714286</ele><time>2026-03-30T14:14:59.872Z</time></trkpt><trkpt lat="44.457152" lon="11.3733562"><ele>79.0</ele><time>2026-03-30T14:15:00.876Z</time></trkpt><trkpt lat="44.4572188" lon="11.3733754"><ele>79.00000000000001</ele><time>2026-03-30T14:15:01.887Z</time></trkpt><trkpt lat="44.4572915" lon="11.3733931"><ele>79.0</ele><time>2026-03-30T14:15:02.875Z</time></trkpt><trkpt lat="44.4573664" lon="11.373408"><ele>79.0</ele><time>2026-03-30T14:15:03.884Z</time></trkpt><trkpt lat="44.4574381" lon="11.3734223"><ele>79.0</ele><time>2026-03-30T14:15:04.877Z</time></trkpt><trkpt lat="44.4575099" lon="11.373442"><ele>79.0</ele><time>2026-03-30T14:15:05.875Z</time></trkpt><trkpt lat="44.4575855" lon="11.3734572"><ele>79.00000000000001</ele><time>2026-03-30T14:15:06.884Z</time></trkpt><trkpt lat="44.45766" lon="11.3734767"><ele>79.0</ele><time>2026-03-30T14:15:07.869Z</time></trkpt><trkpt lat="44.4577354" lon="11.3734979"><ele>79.0</ele><time>2026-03-30T14:15:08.871Z</time></trkpt><trkpt lat="44.4578106" lon="11.3735177"><ele>79.0</ele><time>2026-03-30T14:15:09.881Z</time></trkpt><trkpt lat="44.4578848" lon="11.3735383"><ele>79.0</ele><time>2026-03-30T14:15:10.874Z</time></trkpt><trkpt lat="44.4579603" lon="11.373557"><ele>79.0</ele><time>2026-03-30T14:15:11.883Z</time></trkpt><trkpt lat="44.4580352" lon="11.3735733"><ele>79.0</ele><time>2026-03-30T14:15:12.876Z</time></trkpt><trkpt lat="44.4581094" lon="11.3735925"><ele>79.0</ele><time>2026-03-30T14:15:13.876Z</time></trkpt><trkpt lat="44.4581832" lon="11.3736105"><ele>79.33333333333333</ele><time>2026-03-30T14:15:14.879Z</time></trkpt><trkpt lat="44.4582544" lon="11.3736308"><ele>79.66666666666666</ele><time>2026-03-30T14:15:15.873Z</time></trkpt><trkpt lat="44.4583284" lon="11.373655"><ele>80.0</ele><time>2026-03-30T14:15:16.885Z</time></trkpt><trkpt lat="44.4584038" lon="11.3736791"><ele>80.33333333333333</ele><time>2026-03-30T14:15:17.879Z</time></trkpt><trkpt lat="44.4584778" lon="11.3737059"><ele>80.66666666666667</ele><time>2026-03-30T14:15:18.875Z</time></trkpt><trkpt lat="44.4585494" lon="11.3737384"><ele>81.0</ele><time>2026-03-30T14:15:19.875Z</time></trkpt><trkpt lat="44.4586211" lon="11.3737774"><ele>81.0</ele><time>2026-03-30T14:15:20.88Z</time></trkpt><trkpt lat="44.4586935" lon="11.3738183"><ele>81.0</ele><time>2026-03-30T14:15:21.874Z</time></trkpt><trkpt lat="44.4587611" lon="11.3738616"><ele>81.0</ele><time>2026-03-30T14:15:22.875Z</time></trkpt><trkpt lat="44.4588299" lon="11.3739092"><ele>81.0</ele><time>2026-03-30T14:15:23.88Z</time></trkpt><trkpt lat="44.4588974" lon="11.3739618"><ele>81.0</ele><time>2026-03-30T14:15:24.868Z</time></trkpt><trkpt lat="44.458962" lon="11.3740166"><ele>81.0</ele><time>2026-03-30T14:15:25.872Z</time></trkpt><trkpt lat="44.4590268" lon="11.3740743"><ele>80.5</ele><time>2026-03-30T14:15:26.877Z</time></trkpt><trkpt lat="44.4590882" lon="11.3741333"><ele>80.0</ele><time>2026-03-30T14:15:27.88Z</time></trkpt><trkpt lat="44.4591452" lon="11.374194"><ele>79.5</ele><time>2026-03-30T14:15:28.877Z</time></trkpt><trkpt lat="44.459197" lon="11.3742578"><ele>79.0</ele><time>2026-03-30T14:15:29.873Z</time></trkpt><trkpt lat="44.4592497" lon="11.3743249"><ele>78.5</ele><time>2026-03-30T14:15:30.873Z</time></trkpt><trkpt lat="44.4592942" lon="11.3743894"><ele>78.0</ele><time>2026-03-30T14:15:31.875Z</time></trkpt><trkpt lat="44.4593633" lon="11.3745071"><ele>78.0</ele><time>2026-03-30T14:15:33.878Z</time></trkpt><trkpt lat="44.4594076" lon="11.3746484"><ele>78.0</ele><time>2026-03-30T14:15:35.873Z</time></trkpt><trkpt lat="44.4594153" lon="11.3748312"><ele>78.0</ele><time>2026-03-30T14:15:37.883Z</time></trkpt><trkpt lat="44.459403" lon="11.3749212"><ele>78.0</ele><time>2026-03-30T14:15:38.877Z</time></trkpt><trkpt lat="44.4593969" lon="11.3750122"><ele>78.0</ele><time>2026-03-30T14:15:39.873Z</time></trkpt><trkpt lat="44.4593998" lon="11.3751027"><ele>78.0</ele><time>2026-03-30T14:15:40.88Z</time></trkpt><trkpt lat="44.4594138" lon="11.37519"><ele>77.66666666666667</ele><time>2026-03-30T14:15:41.871Z</time></trkpt><trkpt lat="44.4594753" lon="11.375338"><ele>77.33333333333333</ele><time>2026-03-30T14:15:43.876Z</time></trkpt><trkpt lat="44.4595706" lon="11.3754519"><ele>77.0</ele><time>2026-03-30T14:15:45.873Z</time></trkpt><trkpt lat="44.4596236" lon="11.3755026"><ele>76.66666666666666</ele><time>2026-03-30T14:15:46.879Z</time></trkpt><trkpt lat="44.4596787" lon="11.3755519"><ele>76.33333333333333</ele><time>2026-03-30T14:15:47.873Z</time></trkpt><trkpt lat="44.4597332" lon="11.3756086"><ele>76.0</ele><time>2026-03-30T14:15:48.874Z</time></trkpt><trkpt lat="44.4597811" lon="11.3756782"><ele>76.0</ele><time>2026-03-30T14:15:49.883Z</time></trkpt><trkpt lat="44.4598211" lon="11.3757576"><ele>76.0</ele><time>2026-03-30T14:15:50.876Z</time></trkpt><trkpt lat="44.4598512" lon="11.3758477"><ele>76.0</ele><time>2026-03-30T14:15:51.869Z</time></trkpt><trkpt lat="44.4598769" lon="11.3759414"><ele>76.0</ele><time>2026-03-30T14:15:52.871Z</time></trkpt><trkpt lat="44.459897" lon="11.3760388"><ele>76.0</ele><time>2026-03-30T14:15:53.872Z</time></trkpt><trkpt lat="44.4599131" lon="11.3761392"><ele>76.0</ele><time>2026-03-30T14:15:54.882Z</time></trkpt><trkpt lat="44.4599338" lon="11.3762392"><ele>76.0</ele><time>2026-03-30T14:15:55.869Z</time></trkpt><trkpt lat="44.4599554" lon="11.3763382"><ele>75.42857142857143</ele><time>2026-03-30T14:15:56.877Z</time></trkpt><trkpt lat="44.4599767" lon="11.376437"><ele>74.85714285714286</ele><time>2026-03-30T14:15:57.883Z</time></trkpt><trkpt lat="44.4600014" lon="11.3765307"><ele>74.28571428571429</ele><time>2026-03-30T14:15:58.872Z</time></trkpt><trkpt lat="44.460032" lon="11.3766256"><ele>73.71428571428572</ele><time>2026-03-30T14:15:59.877Z</time></trkpt><trkpt lat="44.4600634" lon="11.3767208"><ele>73.14285714285714</ele><time>2026-03-30T14:16:00.882Z</time></trkpt><trkpt lat="44.4600956" lon="11.3768134"><ele>72.57142857142858</ele><time>2026-03-30T14:16:01.895Z</time></trkpt><trkpt lat="44.460126" lon="11.3769065"><ele>72.0</ele><time>2026-03-30T14:16:02.874Z</time></trkpt><trkpt lat="44.4601633" lon="11.3769918"><ele>72.00000000000001</ele><time>2026-03-30T14:16:03.877Z</time></trkpt><trkpt lat="44.4602008" lon="11.3770726"><ele>72.0</ele><time>2026-03-30T14:16:04.882Z</time></trkpt><trkpt lat="44.4602426" lon="11.377152"><ele>72.0</ele><time>2026-03-30T14:16:05.882Z</time></trkpt><trkpt lat="44.4602849" lon="11.3772282"><ele>72.0</ele><time>2026-03-30T14:16:06.868Z</time></trkpt><trkpt lat="44.4603302" lon="11.3773009"><ele>72.0</ele><time>2026-03-30T14:16:07.876Z</time></trkpt><trkpt lat="44.4603789" lon="11.3773715"><ele>72.00000000000001</ele><time>2026-03-30T14:16:08.884Z</time></trkpt><trkpt lat="44.4604278" lon="11.3774408"><ele>72.0</ele><time>2026-03-30T14:16:09.876Z</time></trkpt><trkpt lat="44.4604792" lon="11.3775067"><ele>72.5</ele><time>2026-03-30T14:16:10.871Z</time></trkpt><trkpt lat="44.4605318" lon="11.3775755"><ele>73.0</ele><time>2026-03-30T14:16:11.875Z</time></trkpt><trkpt lat="44.4605802" lon="11.3776366"><ele>73.5</ele><time>2026-03-30T14:16:12.885Z</time></trkpt><trkpt lat="44.4606814" lon="11.3777609"><ele>74.0</ele><time>2026-03-30T14:16:14.875Z</time></trkpt><trkpt lat="44.4607305" lon="11.3778307"><ele>74.5</ele><time>2026-03-30T14:16:15.872Z</time></trkpt><trkpt lat="44.4607815" lon="11.3778975"><ele>75.0</ele><time>2026-03-30T14:16:16.881Z</time></trkpt><trkpt lat="44.4608297" lon="11.3779556"><ele>75.0</ele><time>2026-03-30T14:16:17.878Z</time></trkpt><trkpt lat="44.4608778" lon="11.3780185"><ele>75.0</ele><time>2026-03-30T14:16:18.869Z</time></trkpt><trkpt lat="44.4609287" lon="11.3780793"><ele>75.0</ele><time>2026-03-30T14:16:19.869Z</time></trkpt><trkpt lat="44.4609772" lon="11.3781419"><ele>75.0</ele><time>2026-03-30T14:16:20.881Z</time></trkpt><trkpt lat="44.4610227" lon="11.3782048"><ele>75.0</ele><time>2026-03-30T14:16:21.872Z</time></trkpt><trkpt lat="44.4611116" lon="11.3783146"><ele>75.0</ele><time>2026-03-30T14:16:23.893Z</time></trkpt><trkpt lat="44.4612008" lon="11.3784284"><ele>75.4</ele><time>2026-03-30T14:16:25.866Z</time></trkpt><trkpt lat="44.4612907" lon="11.3785358"><ele>75.8</ele><time>2026-03-30T14:16:27.88Z</time></trkpt><trkpt lat="44.46138" lon="11.3786604"><ele>76.2</ele><time>2026-03-30T14:16:29.88Z</time></trkpt><trkpt lat="44.4614287" lon="11.3787304"><ele>76.6</ele><time>2026-03-30T14:16:30.872Z</time></trkpt><trkpt lat="44.4614787" lon="11.3788004"><ele>77.0</ele><time>2026-03-30T14:16:31.878Z</time></trkpt><trkpt lat="44.4615273" lon="11.3788678"><ele>76.2</ele><time>2026-03-30T14:16:32.88Z</time></trkpt><trkpt lat="44.4615711" lon="11.3789411"><ele>75.4</ele><time>2026-03-30T14:16:33.886Z</time></trkpt><trkpt lat="44.4616049" lon="11.3790169"><ele>74.6</ele><time>2026-03-30T14:16:34.874Z</time></trkpt><trkpt lat="44.4616298" lon="11.3791608"><ele>73.8</ele><time>2026-03-30T14:16:36.878Z</time></trkpt><trkpt lat="44.4616257" lon="11.37933"><ele>73.0</ele><time>2026-03-30T14:16:38.877Z</time></trkpt><trkpt lat="44.4616214" lon="11.379503"><ele>73.0</ele><time>2026-03-30T14:16:40.881Z</time></trkpt><trkpt lat="44.4616283" lon="11.3795907"><ele>73.0</ele><time>2026-03-30T14:16:41.88Z</time></trkpt><trkpt lat="44.4616491" lon="11.3796774"><ele>73.0</ele><time>2026-03-30T14:16:42.878Z</time></trkpt><trkpt lat="44.461732" lon="11.3798025"><ele>73.0</ele><time>2026-03-30T14:16:44.871Z</time></trkpt><trkpt lat="44.4618387" lon="11.379833"><ele>73.0</ele><time>2026-03-30T14:16:46.869Z</time></trkpt><trkpt lat="44.4619379" lon="11.379776"><ele>72.8</ele><time>2026-03-30T14:16:48.876Z</time></trkpt><trkpt lat="44.4620536" lon="11.3796964"><ele>72.6</ele><time>2026-03-30T14:16:50.881Z</time></trkpt><trkpt lat="44.4621198" lon="11.3796719"><ele>72.4</ele><time>2026-03-30T14:16:51.869Z</time></trkpt><trkpt lat="44.4621823" lon="11.3796526"><ele>72.2</ele><time>2026-03-30T14:16:52.856Z</time></trkpt><trkpt lat="44.4622492" lon="11.3796415"><ele>72.0</ele><time>2026-03-30T14:16:53.863Z</time></trkpt><trkpt lat="44.4623715" lon="11.3796156"><ele>73.5</ele><time>2026-03-30T14:16:55.867Z</time></trkpt><trkpt lat="44.4624782" lon="11.3795935"><ele>75.0</ele><time>2026-03-30T14:16:57.872Z</time></trkpt><trkpt lat="44.4625942" lon="11.3795679"><ele>76.5</ele><time>2026-03-30T14:16:59.884Z</time></trkpt><trkpt lat="44.4627104" lon="11.3795583"><ele>78.0</ele><time>2026-03-30T14:17:01.875Z</time></trkpt><trkpt lat="44.4628203" lon="11.3796073"><ele>77.66666666666667</ele><time>2026-03-30T14:17:03.872Z</time></trkpt><trkpt lat="44.4629167" lon="11.3797214"><ele>77.33333333333333</ele><time>2026-03-30T14:17:05.877Z</time></trkpt><trkpt lat="44.4629676" lon="11.3797926"><ele>77.0</ele><time>2026-03-30T14:17:06.869Z</time></trkpt><trkpt lat="44.4630138" lon="11.3798604"><ele>76.66666666666666</ele><time>2026-03-30T14:17:07.876Z</time></trkpt><trkpt lat="44.4630633" lon="11.37993"><ele>76.33333333333333</ele><time>2026-03-30T14:17:08.881Z</time></trkpt><trkpt lat="44.4631132" lon="11.3799967"><ele>76.0</ele><time>2026-03-30T14:17:09.879Z</time></trkpt><trkpt lat="44.4631586" lon="11.3800595"><ele>76.0</ele><time>2026-03-30T14:17:10.873Z</time></trkpt><trkpt lat="44.4632047" lon="11.3801227"><ele>76.0</ele><time>2026-03-30T14:17:11.871Z</time></trkpt><trkpt lat="44.4632511" lon="11.3801885"><ele>76.0</ele><time>2026-03-30T14:17:12.873Z</time></trkpt><trkpt lat="44.4632974" lon="11.3802553"><ele>76.0</ele><time>2026-03-30T14:17:13.881Z</time></trkpt><trkpt lat="44.4633475" lon="11.3803224"><ele>76.0</ele><time>2026-03-30T14:17:14.881Z</time></trkpt><trkpt lat="44.4633973" lon="11.3803893"><ele>76.0</ele><time>2026-03-30T14:17:15.871Z</time></trkpt><trkpt lat="44.4634447" lon="11.3804591"><ele>76.0</ele><time>2026-03-30T14:17:16.876Z</time></trkpt><trkpt lat="44.4634919" lon="11.3805265"><ele>75.85714285714285</ele><time>2026-03-30T14:17:17.876Z</time></trkpt><trkpt lat="44.4635388" lon="11.3805941"><ele>75.71428571428572</ele><time>2026-03-30T14:17:18.876Z</time></trkpt><trkpt lat="44.4635861" lon="11.3806605"><ele>75.57142857142857</ele><time>2026-03-30T14:17:19.881Z</time></trkpt><trkpt lat="44.4636322" lon="11.3807278"><ele>75.42857142857142</ele><time>2026-03-30T14:17:20.87Z</time></trkpt><trkpt lat="44.4636825" lon="11.3807934"><ele>75.28571428571428</ele><time>2026-03-30T14:17:21.881Z</time></trkpt><trkpt lat="44.4637291" lon="11.3808599"><ele>75.14285714285714</ele><time>2026-03-30T14:17:22.876Z</time></trkpt><trkpt lat="44.4637812" lon="11.380935"><ele>75.0</ele><time>2026-03-30T14:17:23.872Z</time></trkpt><trkpt lat="44.4638303" lon="11.381005"><ele>75.0</ele><time>2026-03-30T14:17:24.879Z</time></trkpt><trkpt lat="44.4638816" lon="11.3810751"><ele>75.0</ele><time>2026-03-30T14:17:25.876Z</time></trkpt><trkpt lat="44.4639678" lon="11.3812017"><ele>75.0</ele><time>2026-03-30T14:17:27.878Z</time></trkpt><trkpt lat="44.4640139" lon="11.3812702"><ele>75.0</ele><time>2026-03-30T14:17:28.875Z</time></trkpt><trkpt lat="44.46406" lon="11.3813413"><ele>75.0</ele><time>2026-03-30T14:17:29.87Z</time></trkpt><trkpt lat="44.4641063" lon="11.3814064"><ele>75.0</ele><time>2026-03-30T14:17:30.877Z</time></trkpt><trkpt lat="44.4641532" lon="11.3814737"><ele>74.71428571428571</ele><time>2026-03-30T14:17:31.884Z</time></trkpt><trkpt lat="44.4642003" lon="11.3815403"><ele>74.42857142857143</ele><time>2026-03-30T14:17:32.878Z</time></trkpt><trkpt lat="44.464254" lon="11.3815877"><ele>74.14285714285714</ele><time>2026-03-30T14:17:33.874Z</time></trkpt><trkpt lat="44.4643034" lon="11.3816438"><ele>73.85714285714286</ele><time>2026-03-30T14:17:34.889Z</time></trkpt><trkpt lat="44.4643533" lon="11.3817062"><ele>73.57142857142857</ele><time>2026-03-30T14:17:35.873Z</time></trkpt><trkpt lat="44.4644021" lon="11.3817684"><ele>73.28571428571428</ele><time>2026-03-30T14:17:36.878Z</time></trkpt><trkpt lat="44.4644508" lon="11.3818346"><ele>73.0</ele><time>2026-03-30T14:17:37.873Z</time></trkpt><trkpt lat="44.4644969" lon="11.3818967"><ele>73.0</ele><time>2026-03-30T14:17:38.879Z</time></trkpt><trkpt lat="44.4645861" lon="11.3820051"><ele>73.0</ele><time>2026-03-30T14:17:40.875Z</time></trkpt><trkpt lat="44.4646688" lon="11.3821044"><ele>73.0</ele><time>2026-03-30T14:17:42.869Z</time></trkpt><trkpt lat="44.4647454" lon="11.382219"><ele>73.0</ele><time>2026-03-30T14:17:44.877Z</time></trkpt><trkpt lat="44.4648368" lon="11.3823456"><ele>73.6</ele><time>2026-03-30T14:17:46.874Z</time></trkpt><trkpt lat="44.4648826" lon="11.3824154"><ele>74.19999999999999</ele><time>2026-03-30T14:17:47.872Z</time></trkpt><trkpt lat="44.4649627" lon="11.3825377"><ele>74.8</ele><time>2026-03-30T14:17:49.88Z</time></trkpt><trkpt lat="44.4650408" lon="11.3826547"><ele>75.39999999999999</ele><time>2026-03-30T14:17:51.866Z</time></trkpt><trkpt lat="44.4651164" lon="11.3827706"><ele>76.0</ele><time>2026-03-30T14:17:53.88Z</time></trkpt><trkpt lat="44.465192" lon="11.3828901"><ele>75.6</ele><time>2026-03-30T14:17:55.877Z</time></trkpt><trkpt lat="44.4652716" lon="11.3830143"><ele>75.19999999999999</ele><time>2026-03-30T14:17:57.882Z</time></trkpt><trkpt lat="44.4653558" lon="11.3831348"><ele>74.80000000000001</ele><time>2026-03-30T14:17:59.873Z</time></trkpt><trkpt lat="44.465438" lon="11.3832583"><ele>74.4</ele><time>2026-03-30T14:18:01.871Z</time></trkpt><trkpt lat="44.4654854" lon="11.3833207"><ele>74.0</ele><time>2026-03-30T14:18:02.868Z</time></trkpt><trkpt lat="44.4655771" lon="11.38345"><ele>74.0</ele><time>2026-03-30T14:18:04.879Z</time></trkpt><trkpt lat="44.4656224" lon="11.3835128"><ele>74.0</ele><time>2026-03-30T14:18:05.876Z</time></trkpt><trkpt lat="44.4656919" lon="11.3836249"><ele>74.0</ele><time>2026-03-30T14:18:07.883Z</time></trkpt><trkpt lat="44.4657572" lon="11.3837241"><ele>74.0</ele><time>2026-03-30T14:18:09.877Z</time></trkpt><trkpt lat="44.4658462" lon="11.3838514"><ele>74.0</ele><time>2026-03-30T14:18:11.875Z</time></trkpt><trkpt lat="44.465892" lon="11.3839125"><ele>73.33333333333334</ele><time>2026-03-30T14:18:12.874Z</time></trkpt><trkpt lat="44.4659384" lon="11.3839768"><ele>72.66666666666667</ele><time>2026-03-30T14:18:13.873Z</time></trkpt><trkpt lat="44.4659859" lon="11.3840448"><ele>72.0</ele><time>2026-03-30T14:18:14.881Z</time></trkpt><trkpt lat="44.4660314" lon="11.3841102"><ele>71.33333333333333</ele><time>2026-03-30T14:18:15.873Z</time></trkpt><trkpt lat="44.4661017" lon="11.3842356"><ele>70.66666666666666</ele><time>2026-03-30T14:18:17.879Z</time></trkpt><trkpt lat="44.4661926" lon="11.3843572"><ele>70.0</ele><time>2026-03-30T14:18:19.871Z</time></trkpt><trkpt lat="44.4662387" lon="11.3844246"><ele>70.2</ele><time>2026-03-30T14:18:20.873Z</time></trkpt><trkpt lat="44.4662803" lon="11.3844957"><ele>70.4</ele><time>2026-03-30T14:18:21.88Z</time></trkpt><trkpt lat="44.4663724" lon="11.3846074"><ele>70.6</ele><time>2026-03-30T14:18:23.88Z</time></trkpt><trkpt lat="44.466432" lon="11.3846592"><ele>70.8</ele><time>2026-03-30T14:18:24.873Z</time></trkpt><trkpt lat="44.4665318" lon="11.3847158"><ele>71.0</ele><time>2026-03-30T14:18:26.869Z</time></trkpt><trkpt lat="44.4666237" lon="11.3847152"><ele>70.25</ele><time>2026-03-30T14:18:28.871Z</time></trkpt><trkpt lat="44.4667427" lon="11.3847076"><ele>69.5</ele><time>2026-03-30T14:18:30.876Z</time></trkpt><trkpt lat="44.4668635" lon="11.3847132"><ele>68.75</ele><time>2026-03-30T14:18:32.894Z</time></trkpt><trkpt lat="44.4669849" lon="11.3847202"><ele>68.0</ele><time>2026-03-30T14:18:34.87Z</time></trkpt><trkpt lat="44.4671032" lon="11.3847348"><ele>68.16666666666667</ele><time>2026-03-30T14:18:36.879Z</time></trkpt><trkpt lat="44.4672261" lon="11.3847524"><ele>68.33333333333334</ele><time>2026-03-30T14:18:38.877Z</time></trkpt><trkpt lat="44.4672909" lon="11.3847628"><ele>68.5</ele><time>2026-03-30T14:18:39.868Z</time></trkpt><trkpt lat="44.4673558" lon="11.3847732"><ele>68.66666666666667</ele><time>2026-03-30T14:18:40.874Z</time></trkpt><trkpt lat="44.4674192" lon="11.3847922"><ele>68.83333333333333</ele><time>2026-03-30T14:18:41.871Z</time></trkpt><trkpt lat="44.4674832" lon="11.3848041"><ele>69.0</ele><time>2026-03-30T14:18:42.872Z</time></trkpt><trkpt lat="44.4675485" lon="11.3848179"><ele>69.0</ele><time>2026-03-30T14:18:43.87Z</time></trkpt><trkpt lat="44.4676104" lon="11.3848357"><ele>69.0</ele><time>2026-03-30T14:18:44.87Z</time></trkpt><trkpt lat="44.4676726" lon="11.3848512"><ele>69.0</ele><time>2026-03-30T14:18:45.87Z</time></trkpt><trkpt lat="44.4677952" lon="11.3848842"><ele>69.0</ele><time>2026-03-30T14:18:47.871Z</time></trkpt><trkpt lat="44.4678985" lon="11.3849139"><ele>69.0</ele><time>2026-03-30T14:18:49.874Z</time></trkpt><trkpt lat="44.4680116" lon="11.3849464"><ele>69.16666666666667</ele><time>2026-03-30T14:18:51.881Z</time></trkpt><trkpt lat="44.4681359" lon="11.3849862"><ele>69.33333333333333</ele><time>2026-03-30T14:18:53.877Z</time></trkpt><trkpt lat="44.4682" lon="11.3850086"><ele>69.5</ele><time>2026-03-30T14:18:54.876Z</time></trkpt><trkpt lat="44.4682652" lon="11.3850291"><ele>69.66666666666666</ele><time>2026-03-30T14:18:55.877Z</time></trkpt><trkpt lat="44.4683291" lon="11.385053"><ele>69.83333333333333</ele><time>2026-03-30T14:18:56.877Z</time></trkpt><trkpt lat="44.4683924" lon="11.385077"><ele>70.0</ele><time>2026-03-30T14:18:57.878Z</time></trkpt><trkpt lat="44.4684619" lon="11.3850935"><ele>70.0</ele><time>2026-03-30T14:18:58.872Z</time></trkpt><trkpt lat="44.4685349" lon="11.3851199"><ele>70.0</ele><time>2026-03-30T14:18:59.874Z</time></trkpt><trkpt lat="44.4686563" lon="11.3851276"><ele>70.0</ele><time>2026-03-30T14:19:01.882Z</time></trkpt><trkpt lat="44.4687732" lon="11.3851487"><ele>70.0</ele><time>2026-03-30T14:19:03.879Z</time></trkpt><trkpt lat="44.468879" lon="11.3851794"><ele>70.0</ele><time>2026-03-30T14:19:05.88Z</time></trkpt><trkpt lat="44.4689413" lon="11.3852003"><ele>70.16666666666666</ele><time>2026-03-30T14:19:07.872Z</time></trkpt><trkpt lat="44.4690026" lon="11.3852289"><ele>70.33333333333333</ele><time>2026-03-30T14:19:09.888Z</time></trkpt><trkpt lat="44.4690709" lon="11.3852644"><ele>70.5</ele><time>2026-03-30T14:19:11.889Z</time></trkpt><trkpt lat="44.4691561" lon="11.3852896"><ele>70.66666666666667</ele><time>2026-03-30T14:19:13.883Z</time></trkpt><trkpt lat="44.4692393" lon="11.3853078"><ele>70.83333333333334</ele><time>2026-03-30T14:19:15.881Z</time></trkpt><trkpt lat="44.4693342" lon="11.3853377"><ele>71.0</ele><time>2026-03-30T14:19:17.887Z</time></trkpt><trkpt lat="44.4694267" lon="11.3853608"><ele>71.0</ele><time>2026-03-30T14:19:19.863Z</time></trkpt><trkpt lat="44.4695282" lon="11.3853568"><ele>71.0</ele><time>2026-03-30T14:19:22.883Z</time></trkpt><trkpt lat="44.469651" lon="11.385369"><ele>71.0</ele><time>2026-03-30T14:19:24.869Z</time></trkpt><trkpt lat="44.4697734" lon="11.3853887"><ele>71.0</ele><time>2026-03-30T14:19:26.882Z</time></trkpt><trkpt lat="44.4698887" lon="11.3854097"><ele>70.71428571428571</ele><time>2026-03-30T14:19:28.877Z</time></trkpt><trkpt lat="44.4699566" lon="11.3854196"><ele>70.42857142857142</ele><time>2026-03-30T14:19:29.872Z</time></trkpt><trkpt lat="44.4700248" lon="11.3854328"><ele>70.14285714285714</ele><time>2026-03-30T14:19:30.88Z</time></trkpt><trkpt lat="44.4700894" lon="11.3854527"><ele>69.85714285714286</ele><time>2026-03-30T14:19:31.875Z</time></trkpt><trkpt lat="44.4701562" lon="11.3854688"><ele>69.57142857142858</ele><time>2026-03-30T14:19:32.877Z</time></trkpt><trkpt lat="44.4702229" lon="11.3854903"><ele>69.28571428571429</ele><time>2026-03-30T14:19:33.874Z</time></trkpt><trkpt lat="44.4702852" lon="11.3855081"><ele>69.0</ele><time>2026-03-30T14:19:34.882Z</time></trkpt><trkpt lat="44.4703986" lon="11.3855481"><ele>69.4</ele><time>2026-03-30T14:19:36.88Z</time></trkpt><trkpt lat="44.4704596" lon="11.3855746"><ele>69.80000000000001</ele><time>2026-03-30T14:19:37.882Z</time></trkpt><trkpt lat="44.4705665" lon="11.3856356"><ele>70.19999999999999</ele><time>2026-03-30T14:19:39.874Z</time></trkpt><trkpt lat="44.4706668" lon="11.3856932"><ele>70.6</ele><time>2026-03-30T14:19:41.886Z</time></trkpt><trkpt lat="44.4707772" lon="11.385769"><ele>71.0</ele><time>2026-03-30T14:19:43.875Z</time></trkpt><trkpt lat="44.4708858" lon="11.3858283"><ele>71.0</ele><time>2026-03-30T14:19:45.882Z</time></trkpt><trkpt lat="44.4709994" lon="11.3858989"><ele>71.0</ele><time>2026-03-30T14:19:47.878Z</time></trkpt><trkpt lat="44.4711051" lon="11.3859541"><ele>71.0</ele><time>2026-03-30T14:19:49.874Z</time></trkpt><trkpt lat="44.471166" lon="11.3859908"><ele>71.0</ele><time>2026-03-30T14:19:50.873Z</time></trkpt><trkpt lat="44.4712277" lon="11.3860321"><ele>71.0</ele><time>2026-03-30T14:19:51.868Z</time></trkpt><trkpt lat="44.4712868" lon="11.386075"><ele>71.0</ele><time>2026-03-30T14:19:52.871Z</time></trkpt><trkpt lat="44.471394" lon="11.3861682"><ele>70.39999999999999</ele><time>2026-03-30T14:19:54.87Z</time></trkpt><trkpt lat="44.4714508" lon="11.3862157"><ele>69.8</ele><time>2026-03-30T14:19:55.87Z</time></trkpt><trkpt lat="44.4715597" lon="11.3863019"><ele>69.19999999999999</ele><time>2026-03-30T14:19:57.881Z</time></trkpt><trkpt lat="44.4716573" lon="11.3863779"><ele>68.6</ele><time>2026-03-30T14:19:59.872Z</time></trkpt><trkpt lat="44.4717447" lon="11.3864744"><ele>68.0</ele><time>2026-03-30T14:20:01.886Z</time></trkpt><trkpt lat="44.471818" lon="11.3865922"><ele>68.0</ele><time>2026-03-30T14:20:03.871Z</time></trkpt><trkpt lat="44.4718925" lon="11.3867175"><ele>68.0</ele><time>2026-03-30T14:20:05.875Z</time></trkpt><trkpt lat="44.4719672" lon="11.3868223"><ele>68.0</ele><time>2026-03-30T14:20:07.873Z</time></trkpt><trkpt lat="44.4720564" lon="11.3868916"><ele>68.0</ele><time>2026-03-30T14:20:09.871Z</time></trkpt><trkpt lat="44.4721646" lon="11.3869386"><ele>68.0</ele><time>2026-03-30T14:20:11.881Z</time></trkpt><trkpt lat="44.4722796" lon="11.3869652"><ele>68.2</ele><time>2026-03-30T14:20:13.868Z</time></trkpt><trkpt lat="44.4723957" lon="11.3869757"><ele>68.4</ele><time>2026-03-30T14:20:15.872Z</time></trkpt><trkpt lat="44.4725163" lon="11.3870028"><ele>68.60000000000001</ele><time>2026-03-30T14:20:17.879Z</time></trkpt><trkpt lat="44.4726344" lon="11.3870541"><ele>68.8</ele><time>2026-03-30T14:20:19.871Z</time></trkpt><trkpt lat="44.4726959" lon="11.3870886"><ele>69.0</ele><time>2026-03-30T14:20:20.888Z</time></trkpt><trkpt lat="44.4728059" lon="11.3871682"><ele>68.83333333333333</ele><time>2026-03-30T14:20:22.877Z</time></trkpt><trkpt lat="44.4729048" lon="11.3872383"><ele>68.66666666666667</ele><time>2026-03-30T14:20:24.879Z</time></trkpt><trkpt lat="44.4729796" lon="11.3872933"><ele>68.5</ele><time>2026-03-30T14:20:26.869Z</time></trkpt><trkpt lat="44.4730474" lon="11.3873486"><ele>68.33333333333334</ele><time>2026-03-30T14:20:28.87Z</time></trkpt><trkpt lat="44.473108" lon="11.3873932"><ele>68.16666666666667</ele><time>2026-03-30T14:20:30.882Z</time></trkpt><trkpt lat="44.4731773" lon="11.3874461"><ele>68.0</ele><time>2026-03-30T14:20:33.874Z</time></trkpt><trkpt lat="44.4732446" lon="11.3874989"><ele>68.0</ele><time>2026-03-30T14:20:36.88Z</time></trkpt><trkpt lat="44.4733158" lon="11.3875499"><ele>68.0</ele><time>2026-03-30T14:20:39.877Z</time></trkpt><trkpt lat="44.4733876" lon="11.3875888"><ele>68.0</ele><time>2026-03-30T14:20:41.877Z</time></trkpt><trkpt lat="44.4734683" lon="11.3876309"><ele>68.0</ele><time>2026-03-30T14:20:43.877Z</time></trkpt><trkpt lat="44.4735502" lon="11.3876805"><ele>68.0</ele><time>2026-03-30T14:20:45.873Z</time></trkpt><trkpt lat="44.4736028" lon="11.3877296"><ele>68.0</ele><time>2026-03-30T14:20:46.884Z</time></trkpt><trkpt lat="44.4736615" lon="11.3877861"><ele>68.0</ele><time>2026-03-30T14:20:47.881Z</time></trkpt><trkpt lat="44.4737183" lon="11.3878397"><ele>68.0</ele><time>2026-03-30T14:20:48.872Z</time></trkpt><trkpt lat="44.4737789" lon="11.3878894"><ele>68.0</ele><time>2026-03-30T14:20:49.886Z</time></trkpt><trkpt lat="44.4738324" lon="11.3879399"><ele>68.0</ele><time>2026-03-30T14:20:50.869Z</time></trkpt><trkpt lat="44.4739298" lon="11.3880376"><ele>68.0</ele><time>2026-03-30T14:20:52.872Z</time></trkpt><trkpt lat="44.4740192" lon="11.3881211"><ele>68.0</ele><time>2026-03-30T14:20:54.881Z</time></trkpt><trkpt lat="44.4741146" lon="11.388197"><ele>68.2</ele><time>2026-03-30T14:20:56.886Z</time></trkpt><trkpt lat="44.4742087" lon="11.388279"><ele>68.4</ele><time>2026-03-30T14:20:58.872Z</time></trkpt><trkpt lat="44.4742954" lon="11.388359"><ele>68.60000000000001</ele><time>2026-03-30T14:21:00.883Z</time></trkpt><trkpt lat="44.4743778" lon="11.3884308"><ele>68.8</ele><time>2026-03-30T14:21:02.876Z</time></trkpt><trkpt lat="44.474456" lon="11.3884804"><ele>69.0</ele><time>2026-03-30T14:21:04.878Z</time></trkpt><trkpt lat="44.4745341" lon="11.3885188"><ele>69.0</ele><time>2026-03-30T14:21:06.883Z</time></trkpt><trkpt lat="44.474591" lon="11.3885682"><ele>69.0</ele><time>2026-03-30T14:21:08.87Z</time></trkpt><trkpt lat="44.4746711" lon="11.3886322"><ele>69.0</ele><time>2026-03-30T14:21:11.88Z</time></trkpt><trkpt lat="44.4747382" lon="11.3886702"><ele>69.0</ele><time>2026-03-30T14:21:14.87Z</time></trkpt><trkpt lat="44.4748087" lon="11.3887421"><ele>69.0</ele><time>2026-03-30T14:21:17.879Z</time></trkpt><trkpt lat="44.4748681" lon="11.3888022"><ele>69.0</ele><time>2026-03-30T14:21:20.869Z</time></trkpt><trkpt lat="44.4749321" lon="11.3888864"><ele>69.33333333333333</ele><time>2026-03-30T14:21:24.874Z</time></trkpt><trkpt lat="44.4750058" lon="11.388968"><ele>69.66666666666667</ele><time>2026-03-30T14:21:26.87Z</time></trkpt><trkpt lat="44.475075" lon="11.3890198"><ele>70.0</ele><time>2026-03-30T14:21:28.871Z</time></trkpt><trkpt lat="44.4751487" lon="11.389057"><ele>70.33333333333334</ele><time>2026-03-30T14:21:30.867Z</time></trkpt><trkpt lat="44.4752325" lon="11.3891194"><ele>70.66666666666667</ele><time>2026-03-30T14:21:32.877Z</time></trkpt><trkpt lat="44.4753248" lon="11.3891835"><ele>71.0</ele><time>2026-03-30T14:21:34.872Z</time></trkpt><trkpt lat="44.4754229" lon="11.3892591"><ele>70.6</ele><time>2026-03-30T14:21:36.874Z</time></trkpt><trkpt lat="44.4755214" lon="11.3893332"><ele>70.19999999999999</ele><time>2026-03-30T14:21:38.875Z</time></trkpt><trkpt lat="44.475629" lon="11.3893971"><ele>69.80000000000001</ele><time>2026-03-30T14:21:40.881Z</time></trkpt><trkpt lat="44.4757305" lon="11.3894598"><ele>69.4</ele><time>2026-03-30T14:21:42.877Z</time></trkpt><trkpt lat="44.4758299" lon="11.3895145"><ele>69.0</ele><time>2026-03-30T14:21:44.874Z</time></trkpt><trkpt lat="44.4759325" lon="11.3895885"><ele>69.0</ele><time>2026-03-30T14:21:46.877Z</time></trkpt><trkpt lat="44.476035" lon="11.3896659"><ele>69.0</ele><time>2026-03-30T14:21:48.874Z</time></trkpt><trkpt lat="44.4761295" lon="11.3897283"><ele>69.0</ele><time>2026-03-30T14:21:50.869Z</time></trkpt><trkpt lat="44.4762277" lon="11.3897784"><ele>69.0</ele><time>2026-03-30T14:21:52.876Z</time></trkpt><trkpt lat="44.4763266" lon="11.3898453"><ele>69.0</ele><time>2026-03-30T14:21:54.873Z</time></trkpt><trkpt lat="44.4764249" lon="11.3899207"><ele>68.60000000000001</ele><time>2026-03-30T14:21:56.879Z</time></trkpt><trkpt lat="44.4765269" lon="11.3899951"><ele>68.2</ele><time>2026-03-30T14:21:58.87Z</time></trkpt><trkpt lat="44.4766348" lon="11.3900773"><ele>67.80000000000001</ele><time>2026-03-30T14:22:00.884Z</time></trkpt><trkpt lat="44.4767277" lon="11.390152"><ele>67.4</ele><time>2026-03-30T14:22:02.875Z</time></trkpt><trkpt lat="44.4768128" lon="11.3902135"><ele>67.0</ele><time>2026-03-30T14:22:04.869Z</time></trkpt><trkpt lat="44.4768894" lon="11.3902722"><ele>67.0</ele><time>2026-03-30T14:22:06.885Z</time></trkpt><trkpt lat="44.4769678" lon="11.390331"><ele>67.0</ele><time>2026-03-30T14:22:08.871Z</time></trkpt><trkpt lat="44.4770403" lon="11.3903911"><ele>67.0</ele><time>2026-03-30T14:22:10.883Z</time></trkpt><trkpt lat="44.4770958" lon="11.3904446"><ele>67.0</ele><time>2026-03-30T14:22:12.877Z</time></trkpt><trkpt lat="44.4771564" lon="11.3905041"><ele>67.0</ele><time>2026-03-30T14:22:15.879Z</time></trkpt><trkpt lat="44.4772255" lon="11.3905651"><ele>67.0</ele><time>2026-03-30T14:22:17.876Z</time></trkpt><trkpt lat="44.4772502" lon="11.3906615"><ele>67.0</ele><time>2026-03-30T14:22:19.878Z</time></trkpt><trkpt lat="44.4772125" lon="11.3907824"><ele>67.0</ele><time>2026-03-30T14:22:21.881Z</time></trkpt><trkpt lat="44.47716" lon="11.3909099"><ele>67.0</ele><time>2026-03-30T14:22:23.868Z</time></trkpt><trkpt lat="44.4771099" lon="11.3910565"><ele>67.0</ele><time>2026-03-30T14:22:25.875Z</time></trkpt><trkpt lat="44.4770619" lon="11.3912053"><ele>67.0</ele><time>2026-03-30T14:22:27.877Z</time></trkpt><trkpt lat="44.4770136" lon="11.3913473"><ele>67.5</ele><time>2026-03-30T14:22:29.872Z</time></trkpt><trkpt lat="44.4769825" lon="11.3914963"><ele>68.0</ele><time>2026-03-30T14:22:31.876Z</time></trkpt><trkpt lat="44.4769529" lon="11.3916502"><ele>68.5</ele><time>2026-03-30T14:22:33.874Z</time></trkpt><trkpt lat="44.4769042" lon="11.3917973"><ele>69.0</ele><time>2026-03-30T14:22:35.873Z</time></trkpt><trkpt lat="44.476862" lon="11.3919451"><ele>69.0</ele><time>2026-03-30T14:22:37.885Z</time></trkpt><trkpt lat="44.4768172" lon="11.3920878"><ele>69.0</ele><time>2026-03-30T14:22:39.876Z</time></trkpt><trkpt lat="44.4767656" lon="11.3922303"><ele>69.0</ele><time>2026-03-30T14:22:41.883Z</time></trkpt><trkpt lat="44.4767091" lon="11.3923709"><ele>69.0</ele><time>2026-03-30T14:22:43.872Z</time></trkpt><trkpt lat="44.4766517" lon="11.3925124"><ele>67.75</ele><time>2026-03-30T14:22:45.881Z</time></trkpt><trkpt lat="44.4765993" lon="11.3926606"><ele>66.5</ele><time>2026-03-30T14:22:47.876Z</time></trkpt><trkpt lat="44.4765485" lon="11.3928084"><ele>65.25</ele><time>2026-03-30T14:22:49.879Z</time></trkpt><trkpt lat="44.476502" lon="11.3929633"><ele>64.0</ele><time>2026-03-30T14:22:51.875Z</time></trkpt><trkpt lat="44.4764525" lon="11.3931184"><ele>63.75</ele><time>2026-03-30T14:22:53.87Z</time></trkpt><trkpt lat="44.4763998" lon="11.3932719"><ele>63.5</ele><time>2026-03-30T14:22:55.871Z</time></trkpt><trkpt lat="44.4763454" lon="11.3934264"><ele>63.25</ele><time>2026-03-30T14:22:57.877Z</time></trkpt><trkpt lat="44.4762917" lon="11.3935824"><ele>63.0</ele><time>2026-03-30T14:22:59.875Z</time></trkpt><trkpt lat="44.4762359" lon="11.3937341"><ele>63.75</ele><time>2026-03-30T14:23:01.872Z</time></trkpt><trkpt lat="44.4761828" lon="11.3938893"><ele>64.5</ele><time>2026-03-30T14:23:03.88Z</time></trkpt><trkpt lat="44.4761267" lon="11.3940437"><ele>65.25</ele><time>2026-03-30T14:23:05.866Z</time></trkpt><trkpt lat="44.4760702" lon="11.3941983"><ele>66.0</ele><time>2026-03-30T14:23:07.872Z</time></trkpt><trkpt lat="44.4760155" lon="11.3943539"><ele>66.0</ele><time>2026-03-30T14:23:09.871Z</time></trkpt><trkpt lat="44.4759598" lon="11.3945074"><ele>66.0</ele><time>2026-03-30T14:23:11.867Z</time></trkpt><trkpt lat="44.4759058" lon="11.3946616"><ele>66.0</ele><time>2026-03-30T14:23:13.865Z</time></trkpt><trkpt lat="44.475853" lon="11.3948001"><ele>66.0</ele><time>2026-03-30T14:23:15.882Z</time></trkpt><trkpt lat="44.4758029" lon="11.3949237"><ele>66.2</ele><time>2026-03-30T14:23:17.886Z</time></trkpt><trkpt lat="44.4757674" lon="11.3950278"><ele>66.39999999999999</ele><time>2026-03-30T14:23:19.875Z</time></trkpt><trkpt lat="44.4757334" lon="11.3951398"><ele>66.6</ele><time>2026-03-30T14:23:21.873Z</time></trkpt><trkpt lat="44.4756889" lon="11.3952736"><ele>66.8</ele><time>2026-03-30T14:23:23.878Z</time></trkpt><trkpt lat="44.475633" lon="11.3954176"><ele>67.0</ele><time>2026-03-30T14:23:25.875Z</time></trkpt><trkpt lat="44.4755789" lon="11.3955687"><ele>67.0</ele><time>2026-03-30T14:23:27.872Z</time></trkpt><trkpt lat="44.4755199" lon="11.3957224"><ele>67.0</ele><time>2026-03-30T14:23:29.875Z</time></trkpt><trkpt lat="44.4754649" lon="11.3958658"><ele>67.0</ele><time>2026-03-30T14:23:31.871Z</time></trkpt><trkpt lat="44.4754089" lon="11.3960113"><ele>67.0</ele><time>2026-03-30T14:23:33.876Z</time></trkpt><trkpt lat="44.4753541" lon="11.396157"><ele>66.6</ele><time>2026-03-30T14:23:35.877Z</time></trkpt><trkpt lat="44.4753018" lon="11.396299"><ele>66.2</ele><time>2026-03-30T14:23:37.871Z</time></trkpt><trkpt lat="44.4752514" lon="11.3964325"><ele>65.8</ele><time>2026-03-30T14:23:39.885Z</time></trkpt><trkpt lat="44.4752163" lon="11.3965244"><ele>65.4</ele><time>2026-03-30T14:23:41.885Z</time></trkpt><trkpt lat="44.4751726" lon="11.3966207"><ele>65.0</ele><time>2026-03-30T14:23:45.878Z</time></trkpt><trkpt lat="44.4751286" lon="11.3967038"><ele>65.0</ele><time>2026-03-30T14:23:48.871Z</time></trkpt><trkpt lat="44.475053" lon="11.3967987"><ele>65.0</ele><time>2026-03-30T14:23:51.876Z</time></trkpt><trkpt lat="44.4749797" lon="11.3968363"><ele>65.0</ele><time>2026-03-30T14:23:53.871Z</time></trkpt><trkpt lat="44.4748986" lon="11.3968655"><ele>65.0</ele><time>2026-03-30T14:23:55.868Z</time></trkpt><trkpt lat="44.4748222" lon="11.3968985"><ele>65.0</ele><time>2026-03-30T14:23:57.875Z</time></trkpt><trkpt lat="44.4747615" lon="11.3969293"><ele>65.0</ele><time>2026-03-30T14:23:59.881Z</time></trkpt><trkpt lat="44.4746741" lon="11.3969794"><ele>65.0</ele><time>2026-03-30T14:24:02.875Z</time></trkpt><trkpt lat="44.4746167" lon="11.397049"><ele>65.0</ele><time>2026-03-30T14:24:04.868Z</time></trkpt><trkpt lat="44.4745636" lon="11.3971507"><ele>65.0</ele><time>2026-03-30T14:24:06.873Z</time></trkpt><trkpt lat="44.4745306" lon="11.3972613"><ele>65.0</ele><time>2026-03-30T14:24:08.867Z</time></trkpt><trkpt lat="44.4744932" lon="11.3973452"><ele>65.0</ele><time>2026-03-30T14:24:10.876Z</time></trkpt><trkpt lat="44.4744858" lon="11.3974563"><ele>65.0</ele><time>2026-03-30T14:24:12.878Z</time></trkpt><trkpt lat="44.4744826" lon="11.397584"><ele>65.33333333333334</ele><time>2026-03-30T14:24:14.876Z</time></trkpt><trkpt lat="44.4744973" lon="11.3977144"><ele>65.66666666666667</ele><time>2026-03-30T14:24:16.871Z</time></trkpt><trkpt lat="44.4745214" lon="11.3978316"><ele>66.0</ele><time>2026-03-30T14:24:18.874Z</time></trkpt><trkpt lat="44.4745419" lon="11.3979563"><ele>66.33333333333333</ele><time>2026-03-30T14:24:20.886Z</time></trkpt><trkpt lat="44.4745359" lon="11.3980698"><ele>66.66666666666666</ele><time>2026-03-30T14:24:22.872Z</time></trkpt><trkpt lat="44.4745071" lon="11.3981744"><ele>67.0</ele><time>2026-03-30T14:24:24.885Z</time></trkpt><trkpt lat="44.4744659" lon="11.3982743"><ele>67.0</ele><time>2026-03-30T14:24:26.877Z</time></trkpt><trkpt lat="44.474422" lon="11.3983863"><ele>67.0</ele><time>2026-03-30T14:24:28.865Z</time></trkpt><trkpt lat="44.4743771" lon="11.3985099"><ele>67.0</ele><time>2026-03-30T14:24:30.869Z</time></trkpt><trkpt lat="44.4743264" lon="11.3986482"><ele>67.0</ele><time>2026-03-30T14:24:32.881Z</time></trkpt><trkpt lat="44.4742723" lon="11.3987953"><ele>67.0</ele><time>2026-03-30T14:24:34.863Z</time></trkpt><trkpt lat="44.4742161" lon="11.3989501"><ele>67.0</ele><time>2026-03-30T14:24:36.873Z</time></trkpt><trkpt lat="44.4741877" lon="11.3990305"><ele>67.0</ele><time>2026-03-30T14:24:37.872Z</time></trkpt><trkpt lat="44.4741581" lon="11.3991102"><ele>67.0</ele><time>2026-03-30T14:24:38.871Z</time></trkpt><trkpt lat="44.4741039" lon="11.3992594"><ele>67.0</ele><time>2026-03-30T14:24:40.864Z</time></trkpt><trkpt lat="44.4740522" lon="11.399395"><ele>67.0</ele><time>2026-03-30T14:24:42.881Z</time></trkpt><trkpt lat="44.4740036" lon="11.3995194"><ele>67.0</ele><time>2026-03-30T14:24:44.875Z</time></trkpt><trkpt lat="44.4739615" lon="11.3996247"><ele>67.0</ele><time>2026-03-30T14:24:46.876Z</time></trkpt><trkpt lat="44.47393" lon="11.3997238"><ele>67.0</ele><time>2026-03-30T14:24:48.862Z</time></trkpt><trkpt lat="44.4738974" lon="11.3998317"><ele>67.0</ele><time>2026-03-30T14:24:50.872Z</time></trkpt><trkpt lat="44.4738584" lon="11.3999462"><ele>67.0</ele><time>2026-03-30T14:24:52.885Z</time></trkpt><trkpt lat="44.473809" lon="11.4000364"><ele>67.0</ele><time>2026-03-30T14:24:55.881Z</time></trkpt><trkpt lat="44.4737745" lon="11.4001146"><ele>66.5</ele><time>2026-03-30T14:25:06.871Z</time></trkpt><trkpt lat="44.473749" lon="11.400209"><ele>66.0</ele><time>2026-03-30T14:25:09.874Z</time></trkpt><trkpt lat="44.4737162" lon="11.4002973"><ele>65.5</ele><time>2026-03-30T14:25:11.879Z</time></trkpt><trkpt lat="44.4736786" lon="11.4003989"><ele>65.0</ele><time>2026-03-30T14:25:13.866Z</time></trkpt><trkpt lat="44.4736375" lon="11.4005076"><ele>64.5</ele><time>2026-03-30T14:25:15.881Z</time></trkpt><trkpt lat="44.4735927" lon="11.4006183"><ele>64.0</ele><time>2026-03-30T14:25:17.883Z</time></trkpt><trkpt lat="44.4735518" lon="11.4007305"><ele>63.6</ele><time>2026-03-30T14:25:19.873Z</time></trkpt><trkpt lat="44.4735133" lon="11.400851"><ele>63.2</ele><time>2026-03-30T14:25:21.872Z</time></trkpt><trkpt lat="44.4734823" lon="11.400979"><ele>62.800000000000004</ele><time>2026-03-30T14:25:23.872Z</time></trkpt><trkpt lat="44.4734462" lon="11.4011088"><ele>62.400000000000006</ele><time>2026-03-30T14:25:25.881Z</time></trkpt><trkpt lat="44.4734075" lon="11.4012445"><ele>62.0</ele><time>2026-03-30T14:25:27.877Z</time></trkpt><trkpt lat="44.473366" lon="11.4013803"><ele>62.00000000000001</ele><time>2026-03-30T14:25:29.877Z</time></trkpt><trkpt lat="44.4733296" lon="11.4014978"><ele>62.0</ele><time>2026-03-30T14:25:31.868Z</time></trkpt><trkpt lat="44.4732979" lon="11.4015996"><ele>62.0</ele><time>2026-03-30T14:25:33.878Z</time></trkpt><trkpt lat="44.473262" lon="11.4017023"><ele>62.0</ele><time>2026-03-30T14:25:35.879Z</time></trkpt><trkpt lat="44.473229" lon="11.4017855"><ele>62.00000000000001</ele><time>2026-03-30T14:25:37.861Z</time></trkpt><trkpt lat="44.4731988" lon="11.4018681"><ele>62.0</ele><time>2026-03-30T14:25:39.877Z</time></trkpt><trkpt lat="44.4731592" lon="11.4019433"><ele>62.00000000000001</ele><time>2026-03-30T14:25:43.881Z</time></trkpt><trkpt lat="44.473124" lon="11.4020209"><ele>62.0</ele><time>2026-03-30T14:25:46.872Z</time></trkpt><trkpt lat="44.4730754" lon="11.4021187"><ele>62.0</ele><time>2026-03-30T14:25:48.868Z</time></trkpt><trkpt lat="44.4730253" lon="11.4022374"><ele>62.0</ele><time>2026-03-30T14:25:50.88Z</time></trkpt><trkpt lat="44.4729984" lon="11.4023181"><ele>62.00000000000001</ele><time>2026-03-30T14:25:51.871Z</time></trkpt><trkpt lat="44.4729356" lon="11.4024578"><ele>62.0</ele><time>2026-03-30T14:25:53.878Z</time></trkpt><trkpt lat="44.4728735" lon="11.4026004"><ele>63.00000000000001</ele><time>2026-03-30T14:25:55.877Z</time></trkpt><trkpt lat="44.4728217" lon="11.4027595"><ele>64.0</ele><time>2026-03-30T14:25:57.876Z</time></trkpt><trkpt lat="44.4727976" lon="11.402844"><ele>65.0</ele><time>2026-03-30T14:25:58.875Z</time></trkpt><trkpt lat="44.4727741" lon="11.4029284"><ele>66.0</ele><time>2026-03-30T14:25:59.886Z</time></trkpt><trkpt lat="44.4727236" lon="11.4030907"><ele>67.0</ele><time>2026-03-30T14:26:01.875Z</time></trkpt><trkpt lat="44.4726954" lon="11.4031701"><ele>68.0</ele><time>2026-03-30T14:26:02.872Z</time></trkpt><trkpt lat="44.4726665" lon="11.4032495"><ele>68.0</ele><time>2026-03-30T14:26:03.879Z</time></trkpt><trkpt lat="44.4726111" lon="11.4034047"><ele>68.0</ele><time>2026-03-30T14:26:05.878Z</time></trkpt><trkpt lat="44.4725526" lon="11.403553"><ele>68.0</ele><time>2026-03-30T14:26:07.878Z</time></trkpt><trkpt lat="44.4724963" lon="11.4037069"><ele>68.0</ele><time>2026-03-30T14:26:09.867Z</time></trkpt><trkpt lat="44.4724377" lon="11.4038615"><ele>67.75</ele><time>2026-03-30T14:26:11.864Z</time></trkpt><trkpt lat="44.4723777" lon="11.4040139"><ele>67.5</ele><time>2026-03-30T14:26:13.871Z</time></trkpt><trkpt lat="44.47232" lon="11.404166"><ele>67.25</ele><time>2026-03-30T14:26:15.872Z</time></trkpt><trkpt lat="44.4722657" lon="11.4043196"><ele>67.0</ele><time>2026-03-30T14:26:17.871Z</time></trkpt><trkpt lat="44.4722149" lon="11.4044501"><ele>67.0</ele><time>2026-03-30T14:26:19.871Z</time></trkpt><trkpt lat="44.4721693" lon="11.4045743"><ele>67.0</ele><time>2026-03-30T14:26:21.879Z</time></trkpt><trkpt lat="44.4721096" lon="11.4047294"><ele>67.0</ele><time>2026-03-30T14:26:23.883Z</time></trkpt><trkpt lat="44.47206" lon="11.4048823"><ele>67.0</ele><time>2026-03-30T14:26:25.878Z</time></trkpt><trkpt lat="44.4720195" lon="11.4050306"><ele>66.75</ele><time>2026-03-30T14:26:27.881Z</time></trkpt><trkpt lat="44.471974" lon="11.40519"><ele>66.5</ele><time>2026-03-30T14:26:29.878Z</time></trkpt><trkpt lat="44.4719208" lon="11.4053398"><ele>66.25</ele><time>2026-03-30T14:26:31.875Z</time></trkpt><trkpt lat="44.4718667" lon="11.405486"><ele>66.0</ele><time>2026-03-30T14:26:33.879Z</time></trkpt><trkpt lat="44.4718098" lon="11.4056358"><ele>65.75</ele><time>2026-03-30T14:26:35.888Z</time></trkpt><trkpt lat="44.4717559" lon="11.4057823"><ele>65.5</ele><time>2026-03-30T14:26:37.883Z</time></trkpt><trkpt lat="44.4717042" lon="11.4059291"><ele>65.25</ele><time>2026-03-30T14:26:39.878Z</time></trkpt><trkpt lat="44.47165" lon="11.4060785"><ele>65.0</ele><time>2026-03-30T14:26:41.872Z</time></trkpt><trkpt lat="44.4715959" lon="11.4062295"><ele>65.25</ele><time>2026-03-30T14:26:43.872Z</time></trkpt><trkpt lat="44.4715415" lon="11.4063797"><ele>65.5</ele><time>2026-03-30T14:26:45.88Z</time></trkpt><trkpt lat="44.4714844" lon="11.4065268"><ele>65.75</ele><time>2026-03-30T14:26:47.877Z</time></trkpt><trkpt lat="44.4714251" lon="11.406678"><ele>66.0</ele><time>2026-03-30T14:26:49.871Z</time></trkpt><trkpt lat="44.4713699" lon="11.40682"><ele>66.0</ele><time>2026-03-30T14:26:51.879Z</time></trkpt><trkpt lat="44.4713191" lon="11.4069611"><ele>66.0</ele><time>2026-03-30T14:26:53.876Z</time></trkpt><trkpt lat="44.4712625" lon="11.4071057"><ele>66.0</ele><time>2026-03-30T14:26:55.878Z</time></trkpt><trkpt lat="44.4712058" lon="11.4072519"><ele>66.0</ele><time>2026-03-30T14:26:57.871Z</time></trkpt><trkpt lat="44.47115" lon="11.4073984"><ele>66.25</ele><time>2026-03-30T14:26:59.874Z</time></trkpt><trkpt lat="44.471094" lon="11.4075433"><ele>66.5</ele><time>2026-03-30T14:27:01.88Z</time></trkpt><trkpt lat="44.471035" lon="11.4076864"><ele>66.75</ele><time>2026-03-30T14:27:03.881Z</time></trkpt><trkpt lat="44.4709787" lon="11.4078225"><ele>67.0</ele><time>2026-03-30T14:27:05.878Z</time></trkpt><trkpt lat="44.4709218" lon="11.4079531"><ele>66.83333333333333</ele><time>2026-03-30T14:27:07.877Z</time></trkpt><trkpt lat="44.4708656" lon="11.4080803"><ele>66.66666666666666</ele><time>2026-03-30T14:27:09.867Z</time></trkpt><trkpt lat="44.470812" lon="11.4082043"><ele>66.5</ele><time>2026-03-30T14:27:11.869Z</time></trkpt><trkpt lat="44.4707739" lon="11.4082983"><ele>66.33333333333333</ele><time>2026-03-30T14:27:13.881Z</time></trkpt><trkpt lat="44.4707419" lon="11.4083831"><ele>66.16666666666667</ele><time>2026-03-30T14:27:17.865Z</time></trkpt><trkpt lat="44.4707267" lon="11.4084852"><ele>66.0</ele><time>2026-03-30T14:27:20.873Z</time></trkpt><trkpt lat="44.4706821" lon="11.4085752"><ele>66.0</ele><time>2026-03-30T14:27:22.873Z</time></trkpt><trkpt lat="44.470633" lon="11.4086762"><ele>66.0</ele><time>2026-03-30T14:27:24.865Z</time></trkpt><trkpt lat="44.4705919" lon="11.4087907"><ele>66.0</ele><time>2026-03-30T14:27:26.877Z</time></trkpt><trkpt lat="44.4705493" lon="11.4089025"><ele>66.0</ele><time>2026-03-30T14:27:28.877Z</time></trkpt><trkpt lat="44.470509" lon="11.4090164"><ele>66.0</ele><time>2026-03-30T14:27:30.865Z</time></trkpt><trkpt lat="44.4704677" lon="11.4091181"><ele>66.0</ele><time>2026-03-30T14:27:32.881Z</time></trkpt><trkpt lat="44.4704293" lon="11.4092174"><ele>66.0</ele><time>2026-03-30T14:27:34.867Z</time></trkpt><trkpt lat="44.4703849" lon="11.4093118"><ele>66.0</ele><time>2026-03-30T14:27:36.875Z</time></trkpt><trkpt lat="44.4703387" lon="11.4094053"><ele>66.0</ele><time>2026-03-30T14:27:38.878Z</time></trkpt><trkpt lat="44.4702983" lon="11.4095241"><ele>66.0</ele><time>2026-03-30T14:27:40.869Z</time></trkpt><trkpt lat="44.4702505" lon="11.4096509"><ele>66.0</ele><time>2026-03-30T14:27:42.875Z</time></trkpt><trkpt lat="44.4702016" lon="11.4097838"><ele>65.6</ele><time>2026-03-30T14:27:44.868Z</time></trkpt><trkpt lat="44.470154" lon="11.4099192"><ele>65.19999999999999</ele><time>2026-03-30T14:27:46.874Z</time></trkpt><trkpt lat="44.4701042" lon="11.4100585"><ele>64.80000000000001</ele><time>2026-03-30T14:27:48.872Z</time></trkpt><trkpt lat="44.4700632" lon="11.4102003"><ele>64.4</ele><time>2026-03-30T14:27:50.877Z</time></trkpt><trkpt lat="44.4700075" lon="11.4103381"><ele>64.0</ele><time>2026-03-30T14:27:52.873Z</time></trkpt><trkpt lat="44.4699442" lon="11.4104774"><ele>63.75</ele><time>2026-03-30T14:27:54.875Z</time></trkpt><trkpt lat="44.4698838" lon="11.4106181"><ele>63.5</ele><time>2026-03-30T14:27:56.869Z</time></trkpt><trkpt lat="44.469826" lon="11.4107657"><ele>63.25</ele><time>2026-03-30T14:27:58.88Z</time></trkpt><trkpt lat="44.4697745" lon="11.4109238"><ele>63.0</ele><time>2026-03-30T14:28:00.871Z</time></trkpt><trkpt lat="44.4697251" lon="11.4110827"><ele>63.0</ele><time>2026-03-30T14:28:02.876Z</time></trkpt><trkpt lat="44.4696818" lon="11.4112254"><ele>63.0</ele><time>2026-03-30T14:28:04.873Z</time></trkpt><trkpt lat="44.4696402" lon="11.4113296"><ele>63.0</ele><time>2026-03-30T14:28:06.87Z</time></trkpt><trkpt lat="44.4695918" lon="11.4114219"><ele>63.0</ele><time>2026-03-30T14:28:08.875Z</time></trkpt><trkpt lat="44.4695445" lon="11.4115163"><ele>63.0</ele><time>2026-03-30T14:28:10.876Z</time></trkpt><trkpt lat="44.4695087" lon="11.4116137"><ele>63.0</ele><time>2026-03-30T14:28:12.875Z</time></trkpt><trkpt lat="44.4694767" lon="11.4117072"><ele>63.0</ele><time>2026-03-30T14:28:15.872Z</time></trkpt><trkpt lat="44.4694392" lon="11.4117985"><ele>63.0</ele><time>2026-03-30T14:28:19.87Z</time></trkpt><trkpt lat="44.4693979" lon="11.411918"><ele>63.0</ele><time>2026-03-30T14:28:22.865Z</time></trkpt><trkpt lat="44.4693687" lon="11.4120187"><ele>63.0</ele><time>2026-03-30T14:28:24.872Z</time></trkpt><trkpt lat="44.4693356" lon="11.4121134"><ele>63.0</ele><time>2026-03-30T14:28:26.871Z</time></trkpt><trkpt lat="44.469306" lon="11.4122047"><ele>63.0</ele><time>2026-03-30T14:28:28.873Z</time></trkpt><trkpt lat="44.4692773" lon="11.4122884"><ele>62.833333333333336</ele><time>2026-03-30T14:28:30.871Z</time></trkpt><trkpt lat="44.4692401" lon="11.4123729"><ele>62.66666666666667</ele><time>2026-03-30T14:28:32.877Z</time></trkpt><trkpt lat="44.4692069" lon="11.4124553"><ele>62.5</ele><time>2026-03-30T14:28:34.873Z</time></trkpt><trkpt lat="44.4691672" lon="11.4125541"><ele>62.333333333333336</ele><time>2026-03-30T14:28:37.875Z</time></trkpt><trkpt lat="44.4691312" lon="11.4126453"><ele>62.16666666666667</ele><time>2026-03-30T14:28:41.882Z</time></trkpt><trkpt lat="44.4690962" lon="11.4127761"><ele>62.0</ele><time>2026-03-30T14:28:44.873Z</time></trkpt><trkpt lat="44.469052" lon="11.4129011"><ele>62.0</ele><time>2026-03-30T14:28:46.872Z</time></trkpt><trkpt lat="44.4690033" lon="11.413035"><ele>62.0</ele><time>2026-03-30T14:28:48.887Z</time></trkpt><trkpt lat="44.4689525" lon="11.4131714"><ele>62.0</ele><time>2026-03-30T14:28:50.876Z</time></trkpt><trkpt lat="44.4688928" lon="11.4133042"><ele>62.0</ele><time>2026-03-30T14:28:52.876Z</time></trkpt><trkpt lat="44.4688353" lon="11.4134486"><ele>62.0</ele><time>2026-03-30T14:28:54.876Z</time></trkpt><trkpt lat="44.4687878" lon="11.4135707"><ele>62.00000000000001</ele><time>2026-03-30T14:28:56.872Z</time></trkpt><trkpt lat="44.4687526" lon="11.4136775"><ele>62.0</ele><time>2026-03-30T14:28:58.874Z</time></trkpt><trkpt lat="44.468727" lon="11.4137823"><ele>62.0</ele><time>2026-03-30T14:29:00.868Z</time></trkpt><trkpt lat="44.4686777" lon="11.4138677"><ele>62.0</ele><time>2026-03-30T14:29:02.881Z</time></trkpt><trkpt lat="44.4686038" lon="11.4139418"><ele>62.00000000000001</ele><time>2026-03-30T14:29:04.871Z</time></trkpt><trkpt lat="44.4685054" lon="11.413988"><ele>62.0</ele><time>2026-03-30T14:29:06.875Z</time></trkpt><trkpt lat="44.4683979" lon="11.4139373"><ele>62.0</ele><time>2026-03-30T14:29:08.881Z</time></trkpt><trkpt lat="44.4682971" lon="11.4138631"><ele>62.0</ele><time>2026-03-30T14:29:10.871Z</time></trkpt><trkpt lat="44.4681991" lon="11.4137926"><ele>62.0</ele><time>2026-03-30T14:29:12.88Z</time></trkpt><trkpt lat="44.4681009" lon="11.4137267"><ele>62.0</ele><time>2026-03-30T14:29:14.873Z</time></trkpt><trkpt lat="44.4680097" lon="11.4136551"><ele>62.0</ele><time>2026-03-30T14:29:16.879Z</time></trkpt><trkpt lat="44.4679189" lon="11.4135886"><ele>62.2</ele><time>2026-03-30T14:29:18.88Z</time></trkpt><trkpt lat="44.4678287" lon="11.4135167"><ele>62.400000000000006</ele><time>2026-03-30T14:29:20.877Z</time></trkpt><trkpt lat="44.4677433" lon="11.4134528"><ele>62.599999999999994</ele><time>2026-03-30T14:29:22.879Z</time></trkpt><trkpt lat="44.467653" lon="11.4133806"><ele>62.8</ele><time>2026-03-30T14:29:24.868Z</time></trkpt><trkpt lat="44.4675626" lon="11.4133019"><ele>63.0</ele><time>2026-03-30T14:29:26.866Z</time></trkpt><trkpt lat="44.4674699" lon="11.4131955"><ele>63.0</ele><time>2026-03-30T14:29:28.875Z</time></trkpt><trkpt lat="44.4673849" lon="11.4131013"><ele>63.0</ele><time>2026-03-30T14:29:30.879Z</time></trkpt><trkpt lat="44.4672945" lon="11.4129943"><ele>63.0</ele><time>2026-03-30T14:29:32.879Z</time></trkpt><trkpt lat="44.4671918" lon="11.4129092"><ele>63.0</ele><time>2026-03-30T14:29:34.876Z</time></trkpt><trkpt lat="44.4671333" lon="11.4128559"><ele>63.0</ele><time>2026-03-30T14:29:35.885Z</time></trkpt><trkpt lat="44.4670705" lon="11.41281"><ele>64.0</ele><time>2026-03-30T14:29:36.877Z</time></trkpt><trkpt lat="44.4669613" lon="11.4127283"><ele>65.0</ele><time>2026-03-30T14:29:38.873Z</time></trkpt><trkpt lat="44.4668569" lon="11.4126471"><ele>66.0</ele><time>2026-03-30T14:29:40.885Z</time></trkpt><trkpt lat="44.4667548" lon="11.4125572"><ele>67.0</ele><time>2026-03-30T14:29:42.876Z</time></trkpt><trkpt lat="44.4666435" lon="11.4124811"><ele>67.0</ele><time>2026-03-30T14:29:44.876Z</time></trkpt><trkpt lat="44.4665459" lon="11.4124142"><ele>67.0</ele><time>2026-03-30T14:29:46.87Z</time></trkpt><trkpt lat="44.466456" lon="11.4123454"><ele>67.0</ele><time>2026-03-30T14:29:48.877Z</time></trkpt><trkpt lat="44.4663674" lon="11.4122725"><ele>67.0</ele><time>2026-03-30T14:29:50.884Z</time></trkpt><trkpt lat="44.4662818" lon="11.4121954"><ele>67.0</ele><time>2026-03-30T14:29:52.875Z</time></trkpt><trkpt lat="44.4661925" lon="11.4121197"><ele>67.2</ele><time>2026-03-30T14:29:54.876Z</time></trkpt><trkpt lat="44.4660901" lon="11.4120407"><ele>67.4</ele><time>2026-03-30T14:29:56.877Z</time></trkpt><trkpt lat="44.4659951" lon="11.4119634"><ele>67.6</ele><time>2026-03-30T14:29:58.869Z</time></trkpt><trkpt lat="44.465905" lon="11.4118849"><ele>67.8</ele><time>2026-03-30T14:30:00.881Z</time></trkpt><trkpt lat="44.4658104" lon="11.4118043"><ele>68.0</ele><time>2026-03-30T14:30:02.871Z</time></trkpt><trkpt lat="44.4657183" lon="11.4117239"><ele>68.0</ele><time>2026-03-30T14:30:04.88Z</time></trkpt><trkpt lat="44.4656281" lon="11.4116426"><ele>68.0</ele><time>2026-03-30T14:30:06.878Z</time></trkpt><trkpt lat="44.4655441" lon="11.4115651"><ele>68.0</ele><time>2026-03-30T14:30:08.879Z</time></trkpt><trkpt lat="44.4654618" lon="11.4114955"><ele>68.0</ele><time>2026-03-30T14:30:10.878Z</time></trkpt><trkpt lat="44.4653806" lon="11.4114058"><ele>68.0</ele><time>2026-03-30T14:30:12.87Z</time></trkpt><trkpt lat="44.4652934" lon="11.4113236"><ele>68.0</ele><time>2026-03-30T14:30:14.876Z</time></trkpt><trkpt lat="44.4652135" lon="11.4112536"><ele>68.0</ele><time>2026-03-30T14:30:16.867Z</time></trkpt><trkpt lat="44.4651411" lon="11.411187"><ele>68.0</ele><time>2026-03-30T14:30:18.876Z</time></trkpt><trkpt lat="44.4650714" lon="11.411124"><ele>68.0</ele><time>2026-03-30T14:30:20.896Z</time></trkpt><trkpt lat="44.4650122" lon="11.4110649"><ele>68.0</ele><time>2026-03-30T14:30:22.887Z</time></trkpt><trkpt lat="44.4649434" lon="11.41099"><ele>68.0</ele><time>2026-03-30T14:30:25.88Z</time></trkpt><trkpt lat="44.4648739" lon="11.4109265"><ele>68.0</ele><time>2026-03-30T14:30:27.874Z</time></trkpt><trkpt lat="44.4648087" lon="11.4108643"><ele>68.0</ele><time>2026-03-30T14:30:29.875Z</time></trkpt><trkpt lat="44.464737" lon="11.410791"><ele>68.0</ele><time>2026-03-30T14:30:32.877Z</time></trkpt><trkpt lat="44.4646408" lon="11.4107521"><ele>68.0</ele><time>2026-03-30T14:30:35.878Z</time></trkpt><trkpt lat="44.4645599" lon="11.4107033"><ele>68.0</ele><time>2026-03-30T14:30:37.877Z</time></trkpt><trkpt lat="44.4644737" lon="11.4106485"><ele>67.66666666666667</ele><time>2026-03-30T14:30:40.878Z</time></trkpt><trkpt lat="44.4643975" lon="11.4106446"><ele>67.33333333333334</ele><time>2026-03-30T14:30:44.87Z</time></trkpt><trkpt lat="44.4643439" lon="11.4105933"><ele>67.0</ele><time>2026-03-30T14:30:45.882Z</time></trkpt><trkpt lat="44.46426" lon="11.4105227"><ele>66.66666666666667</ele><time>2026-03-30T14:30:47.879Z</time></trkpt><trkpt lat="44.4641888" lon="11.410473"><ele>66.33333333333333</ele><time>2026-03-30T14:30:50.871Z</time></trkpt><trkpt lat="44.4641108" lon="11.4104069"><ele>66.0</ele><time>2026-03-30T14:30:53.875Z</time></trkpt><trkpt lat="44.4639974" lon="11.4103162"><ele>66.0</ele><time>2026-03-30T14:30:55.885Z</time></trkpt><trkpt lat="44.4639112" lon="11.4102342"><ele>66.0</ele><time>2026-03-30T14:30:57.88Z</time></trkpt><trkpt lat="44.4638314" lon="11.410152"><ele>66.0</ele><time>2026-03-30T14:30:59.886Z</time></trkpt><trkpt lat="44.4637449" lon="11.410069"><ele>66.0</ele><time>2026-03-30T14:31:01.882Z</time></trkpt><trkpt lat="44.4636762" lon="11.409999"><ele>66.0</ele><time>2026-03-30T14:31:03.876Z</time></trkpt><trkpt lat="44.4635934" lon="11.4099118"><ele>66.2</ele><time>2026-03-30T14:31:05.878Z</time></trkpt><trkpt lat="44.4635075" lon="11.409824"><ele>66.39999999999999</ele><time>2026-03-30T14:31:07.88Z</time></trkpt><trkpt lat="44.4634221" lon="11.4097421"><ele>66.6</ele><time>2026-03-30T14:31:09.879Z</time></trkpt><trkpt lat="44.4633364" lon="11.4096603"><ele>66.8</ele><time>2026-03-30T14:31:11.883Z</time></trkpt><trkpt lat="44.4632547" lon="11.409586"><ele>67.0</ele><time>2026-03-30T14:31:13.879Z</time></trkpt><trkpt lat="44.4631723" lon="11.4095047"><ele>67.33333333333333</ele><time>2026-03-30T14:31:15.873Z</time></trkpt><trkpt lat="44.4630918" lon="11.4094308"><ele>67.66666666666666</ele><time>2026-03-30T14:31:17.872Z</time></trkpt><trkpt lat="44.4630126" lon="11.4093591"><ele>68.0</ele><time>2026-03-30T14:31:19.88Z</time></trkpt><trkpt lat="44.4629448" lon="11.4092896"><ele>68.33333333333333</ele><time>2026-03-30T14:31:21.872Z</time></trkpt><trkpt lat="44.4628932" lon="11.4092274"><ele>68.66666666666667</ele><time>2026-03-30T14:31:23.888Z</time></trkpt><trkpt lat="44.4628685" lon="11.4091081"><ele>69.0</ele><time>2026-03-30T14:31:25.873Z</time></trkpt><trkpt lat="44.4629139" lon="11.4089755"><ele>69.0</ele><time>2026-03-30T14:31:27.876Z</time></trkpt><trkpt lat="44.4629649" lon="11.4088542"><ele>69.0</ele><time>2026-03-30T14:31:29.891Z</time></trkpt><trkpt lat="44.4630165" lon="11.4087257"><ele>69.0</ele><time>2026-03-30T14:31:31.891Z</time></trkpt><trkpt lat="44.4630614" lon="11.4085912"><ele>69.0</ele><time>2026-03-30T14:31:33.876Z</time></trkpt><trkpt lat="44.4631081" lon="11.4084524"><ele>69.0</ele><time>2026-03-30T14:31:35.877Z</time></trkpt><trkpt lat="44.4631565" lon="11.4083117"><ele>69.2</ele><time>2026-03-30T14:31:37.878Z</time></trkpt><trkpt lat="44.4632033" lon="11.4081693"><ele>69.4</ele><time>2026-03-30T14:31:39.874Z</time></trkpt><trkpt lat="44.4632497" lon="11.408059"><ele>69.6</ele><time>2026-03-30T14:31:41.884Z</time></trkpt><trkpt lat="44.4632927" lon="11.4079508"><ele>69.8</ele><time>2026-03-30T14:31:43.874Z</time></trkpt><trkpt lat="44.4633308" lon="11.4078512"><ele>70.0</ele><time>2026-03-30T14:31:45.876Z</time></trkpt><trkpt lat="44.4633634" lon="11.4077456"><ele>70.6</ele><time>2026-03-30T14:31:47.885Z</time></trkpt><trkpt lat="44.4634214" lon="11.407631"><ele>71.2</ele><time>2026-03-30T14:31:49.875Z</time></trkpt><trkpt lat="44.4634689" lon="11.4075058"><ele>71.8</ele><time>2026-03-30T14:31:51.883Z</time></trkpt><trkpt lat="44.4635099" lon="11.4073802"><ele>72.4</ele><time>2026-03-30T14:31:53.874Z</time></trkpt><trkpt lat="44.4635578" lon="11.407254"><ele>73.0</ele><time>2026-03-30T14:31:55.874Z</time></trkpt><trkpt lat="44.4636058" lon="11.407128"><ele>73.2</ele><time>2026-03-30T14:31:57.882Z</time></trkpt><trkpt lat="44.4636579" lon="11.4070053"><ele>73.4</ele><time>2026-03-30T14:31:59.872Z</time></trkpt><trkpt lat="44.4637086" lon="11.4068718"><ele>73.60000000000001</ele><time>2026-03-30T14:32:01.879Z</time></trkpt><trkpt lat="44.4637597" lon="11.4067463"><ele>73.8</ele><time>2026-03-30T14:32:03.871Z</time></trkpt><trkpt lat="44.4638131" lon="11.4066297"><ele>74.0</ele><time>2026-03-30T14:32:05.881Z</time></trkpt><trkpt lat="44.4638715" lon="11.406504"><ele>74.0</ele><time>2026-03-30T14:32:07.883Z</time></trkpt><trkpt lat="44.4639214" lon="11.4063933"><ele>74.0</ele><time>2026-03-30T14:32:09.873Z</time></trkpt><trkpt lat="44.4639728" lon="11.4063129"><ele>74.0</ele><time>2026-03-30T14:32:12.872Z</time></trkpt><trkpt lat="44.4639837" lon="11.4062236"><ele>74.0</ele><time>2026-03-30T14:32:17.879Z</time></trkpt><trkpt lat="44.4639289" lon="11.4061215"><ele>74.0</ele><time>2026-03-30T14:32:20.874Z</time></trkpt><trkpt lat="44.4638766" lon="11.4060227"><ele>74.0</ele><time>2026-03-30T14:32:22.873Z</time></trkpt><trkpt lat="44.4638226" lon="11.4059404"><ele>74.4</ele><time>2026-03-30T14:32:24.878Z</time></trkpt><trkpt lat="44.4637566" lon="11.4058438"><ele>74.80000000000001</ele><time>2026-03-30T14:32:26.887Z</time></trkpt><trkpt lat="44.4636869" lon="11.4057657"><ele>75.19999999999999</ele><time>2026-03-30T14:32:28.884Z</time></trkpt><trkpt lat="44.4636179" lon="11.4056819"><ele>75.6</ele><time>2026-03-30T14:32:30.872Z</time></trkpt><trkpt lat="44.4635616" lon="11.4056031"><ele>76.0</ele><time>2026-03-30T14:32:32.873Z</time></trkpt><trkpt lat="44.4635004" lon="11.4055015"><ele>76.2</ele><time>2026-03-30T14:32:34.877Z</time></trkpt><trkpt lat="44.4634151" lon="11.405382"><ele>76.39999999999999</ele><time>2026-03-30T14:32:36.874Z</time></trkpt><trkpt lat="44.4633839" lon="11.4052525"><ele>76.6</ele><time>2026-03-30T14:32:38.881Z</time></trkpt><trkpt lat="44.4633727" lon="11.4051262"><ele>76.8</ele><time>2026-03-30T14:32:40.872Z</time></trkpt><trkpt lat="44.4633823" lon="11.4050011"><ele>77.0</ele><time>2026-03-30T14:32:42.87Z</time></trkpt><trkpt lat="44.4634013" lon="11.4048426"><ele>77.0</ele><time>2026-03-30T14:32:44.883Z</time></trkpt><trkpt lat="44.4634187" lon="11.4046999"><ele>77.0</ele><time>2026-03-30T14:32:46.876Z</time></trkpt><trkpt lat="44.4634215" lon="11.4045775"><ele>77.0</ele><time>2026-03-30T14:32:48.865Z</time></trkpt><trkpt lat="44.4634196" lon="11.4044497"><ele>77.0</ele><time>2026-03-30T14:32:50.874Z</time></trkpt><trkpt lat="44.4633965" lon="11.4043571"><ele>77.0</ele><time>2026-03-30T14:32:52.873Z</time></trkpt><trkpt lat="44.463356" lon="11.4042733"><ele>77.0</ele><time>2026-03-30T14:32:54.869Z</time></trkpt><trkpt lat="44.4633095" lon="11.4042045"><ele>77.16666666666667</ele><time>2026-03-30T14:32:56.872Z</time></trkpt><trkpt lat="44.4632619" lon="11.4041359"><ele>77.33333333333334</ele><time>2026-03-30T14:32:58.868Z</time></trkpt><trkpt lat="44.463218" lon="11.404066"><ele>77.5</ele><time>2026-03-30T14:33:00.869Z</time></trkpt><trkpt lat="44.4631675" lon="11.4039847"><ele>77.66666666666667</ele><time>2026-03-30T14:33:02.868Z</time></trkpt><trkpt lat="44.4631197" lon="11.4039023"><ele>77.83333333333333</ele><time>2026-03-30T14:33:04.868Z</time></trkpt><trkpt lat="44.4630602" lon="11.4038288"><ele>78.0</ele><time>2026-03-30T14:33:07.873Z</time></trkpt><trkpt lat="44.4630073" lon="11.4037262"><ele>78.16666666666667</ele><time>2026-03-30T14:33:10.878Z</time></trkpt><trkpt lat="44.4629595" lon="11.4036469"><ele>78.33333333333333</ele><time>2026-03-30T14:33:12.878Z</time></trkpt><trkpt lat="44.4628923" lon="11.4035777"><ele>78.5</ele><time>2026-03-30T14:33:15.865Z</time></trkpt><trkpt lat="44.4628269" lon="11.4035071"><ele>78.66666666666666</ele><time>2026-03-30T14:33:17.866Z</time></trkpt><trkpt lat="44.462767" lon="11.4034271"><ele>78.83333333333333</ele><time>2026-03-30T14:33:20.877Z</time></trkpt><trkpt lat="44.4627319" lon="11.4033088"><ele>79.0</ele><time>2026-03-30T14:33:23.883Z</time></trkpt><trkpt lat="44.4627821" lon="11.4031947"><ele>79.0</ele><time>2026-03-30T14:33:25.889Z</time></trkpt><trkpt lat="44.4628522" lon="11.4030578"><ele>79.0</ele><time>2026-03-30T14:33:27.874Z</time></trkpt><trkpt lat="44.4628842" lon="11.402979"><ele>79.0</ele><time>2026-03-30T14:33:28.878Z</time></trkpt><trkpt lat="44.4629129" lon="11.4028978"><ele>79.0</ele><time>2026-03-30T14:33:29.884Z</time></trkpt><trkpt lat="44.4629553" lon="11.4027596"><ele>79.0</ele><time>2026-03-30T14:33:31.882Z</time></trkpt><trkpt lat="44.4629727" lon="11.4026396"><ele>79.0</ele><time>2026-03-30T14:33:33.881Z</time></trkpt><trkpt lat="44.4629858" lon="11.4024959"><ele>78.83333333333333</ele><time>2026-03-30T14:33:35.872Z</time></trkpt><trkpt lat="44.4630014" lon="11.4024081"><ele>78.66666666666666</ele><time>2026-03-30T14:33:36.872Z</time></trkpt><trkpt lat="44.4630456" lon="11.4023087"><ele>78.5</ele><time>2026-03-30T14:33:38.875Z</time></trkpt><trkpt lat="44.463079" lon="11.4021991"><ele>78.33333333333333</ele><time>2026-03-30T14:33:40.88Z</time></trkpt><trkpt lat="44.4631292" lon="11.4021116"><ele>78.16666666666667</ele><time>2026-03-30T14:33:42.866Z</time></trkpt><trkpt lat="44.4631781" lon="11.4020322"><ele>78.0</ele><time>2026-03-30T14:33:44.875Z</time></trkpt><trkpt lat="44.4632355" lon="11.4019069"><ele>78.0</ele><time>2026-03-30T14:33:47.871Z</time></trkpt><trkpt lat="44.4633135" lon="11.4017945"><ele>78.0</ele><time>2026-03-30T14:33:49.88Z</time></trkpt><trkpt lat="44.4633564" lon="11.4017274"><ele>78.0</ele><time>2026-03-30T14:33:50.865Z</time></trkpt><trkpt lat="44.4634122" lon="11.4016495"><ele>78.0</ele><time>2026-03-30T14:33:52.87Z</time></trkpt><trkpt lat="44.463469" lon="11.4015666"><ele>78.0</ele><time>2026-03-30T14:33:54.877Z</time></trkpt><trkpt lat="44.4635191" lon="11.4015005"><ele>78.0</ele><time>2026-03-30T14:33:56.871Z</time></trkpt><trkpt lat="44.4635631" lon="11.4014231"><ele>78.0</ele><time>2026-03-30T14:33:58.881Z</time></trkpt><trkpt lat="44.4636197" lon="11.401336"><ele>78.0</ele><time>2026-03-30T14:34:00.881Z</time></trkpt><trkpt lat="44.4636908" lon="11.401233"><ele>78.0</ele><time>2026-03-30T14:34:02.875Z</time></trkpt><trkpt lat="44.4637616" lon="11.4011493"><ele>78.0</ele><time>2026-03-30T14:34:04.868Z</time></trkpt><trkpt lat="44.4638251" lon="11.4010982"><ele>78.0</ele><time>2026-03-30T14:34:06.872Z</time></trkpt><trkpt lat="44.4638808" lon="11.4010274"><ele>78.0</ele><time>2026-03-30T14:34:08.88Z</time></trkpt><trkpt lat="44.4639369" lon="11.4009401"><ele>78.33333333333333</ele><time>2026-03-30T14:34:10.869Z</time></trkpt><trkpt lat="44.4639877" lon="11.4008515"><ele>78.66666666666667</ele><time>2026-03-30T14:34:12.878Z</time></trkpt><trkpt lat="44.4640441" lon="11.4007588"><ele>79.0</ele><time>2026-03-30T14:34:14.874Z</time></trkpt><trkpt lat="44.4640837" lon="11.4006887"><ele>79.33333333333334</ele><time>2026-03-30T14:34:16.873Z</time></trkpt><trkpt lat="44.4641417" lon="11.4006508"><ele>79.66666666666667</ele><time>2026-03-30T14:34:18.885Z</time></trkpt><trkpt lat="44.4642199" lon="11.4006747"><ele>80.0</ele><time>2026-03-30T14:34:20.877Z</time></trkpt><trkpt lat="44.464287" lon="11.400721"><ele>80.0</ele><time>2026-03-30T14:34:22.89Z</time></trkpt><trkpt lat="44.4643629" lon="11.4006835"><ele>80.0</ele><time>2026-03-30T14:34:27.874Z</time></trkpt><trkpt lat="44.4644162" lon="11.40058"><ele>80.0</ele><time>2026-03-30T14:34:30.877Z</time></trkpt><trkpt lat="44.4644579" lon="11.400493"><ele>80.0</ele><time>2026-03-30T14:34:33.889Z</time></trkpt><trkpt lat="44.4644989" lon="11.4003737"><ele>80.0</ele><time>2026-03-30T14:34:36.878Z</time></trkpt><trkpt lat="44.464521" lon="11.4002764"><ele>80.0</ele><time>2026-03-30T14:34:38.881Z</time></trkpt><trkpt lat="44.464532" lon="11.4001827"><ele>80.0</ele><time>2026-03-30T14:34:40.872Z</time></trkpt><trkpt lat="44.4645522" lon="11.4000544"><ele>80.0</ele><time>2026-03-30T14:34:43.871Z</time></trkpt><trkpt lat="44.4645923" lon="11.3999595"><ele>80.0</ele><time>2026-03-30T14:34:46.871Z</time></trkpt><trkpt lat="44.4646436" lon="11.3998408"><ele>80.0</ele><time>2026-03-30T14:34:48.878Z</time></trkpt><trkpt lat="44.4646825" lon="11.3997362"><ele>80.0</ele><time>2026-03-30T14:34:50.875Z</time></trkpt><trkpt lat="44.4647231" lon="11.3996555"><ele>80.0</ele><time>2026-03-30T14:34:52.873Z</time></trkpt><trkpt lat="44.4647702" lon="11.3995673"><ele>79.5</ele><time>2026-03-30T14:34:54.876Z</time></trkpt><trkpt lat="44.4648129" lon="11.3994978"><ele>79.0</ele><time>2026-03-30T14:34:56.875Z</time></trkpt><trkpt lat="44.4648717" lon="11.3993968"><ele>78.5</ele><time>2026-03-30T14:34:59.871Z</time></trkpt><trkpt lat="44.4649204" lon="11.3993049"><ele>78.0</ele><time>2026-03-30T14:35:01.873Z</time></trkpt><trkpt lat="44.4649942" lon="11.3992782"><ele>77.5</ele><time>2026-03-30T14:35:03.864Z</time></trkpt><trkpt lat="44.4650702" lon="11.3993009"><ele>77.0</ele><time>2026-03-30T14:35:05.874Z</time></trkpt><trkpt lat="44.4651413" lon="11.3993548"><ele>77.0</ele><time>2026-03-30T14:35:07.876Z</time></trkpt><trkpt lat="44.4652073" lon="11.399415"><ele>77.0</ele><time>2026-03-30T14:35:09.893Z</time></trkpt><trkpt lat="44.465226" lon="11.3995336"><ele>77.0</ele><time>2026-03-30T14:35:12.88Z</time></trkpt><trkpt lat="44.4652114" lon="11.3997153"><ele>79.0</ele><time>2026-03-30T14:35:29.892Z</time></trkpt></trkseg></trk></gpx>